<?xml version="1.0" encoding="UTF-8" standalone="no" ?>
<gpx xmlns="http://www.topografix.com/GPX/1/1" xmlns:xsi="http://www.w3.org/2001/XMLSchema-instance" xsi:schemaLocation="http://www.topografix.com/GPX/1/1 http://www.topografix.com/GPX/1/1/gpx.xsd" version="1.1" creator="VisuGPX - https://www.visugpx.com">
  <metadata>
    <name>PTL 2022 TRACE GLOBALE sur TraceDeTrail.fr</name>
    <desc><![CDATA[Trace du PTL 2022]]></desc>
  </metadata>
  <trk>
    <name><![CDATA[PTL 2022 TRACE GLOBALE sur TraceDeTrail.fr]]></name>
    <trkseg>
      <trkpt lat="45.92352" lon="6.86924">
        <ele>1037</ele>
        <time>2000-01-01T02:02:35.000Z</time>
      </trkpt>
      <trkpt lat="45.92336" lon="6.86957">
        <ele>1036</ele>
        <time>2000-01-01T02:02:45.000Z</time>
      </trkpt>
      <trkpt lat="45.92311" lon="6.87008">
        <ele>1036</ele>
        <time>2000-01-01T02:02:55.000Z</time>
      </trkpt>
      <trkpt lat="45.92345" lon="6.8705">
        <ele>1035</ele>
        <time>2000-01-01T02:03:05.000Z</time>
      </trkpt>
      <trkpt lat="45.92358" lon="6.87017">
        <ele>1034</ele>
        <time>2000-01-01T02:03:15.000Z</time>
      </trkpt>
      <trkpt lat="45.92375" lon="6.86975">
        <ele>1034</ele>
        <time>2000-01-01T02:03:25.000Z</time>
      </trkpt>
      <trkpt lat="45.92411" lon="6.86976">
        <ele>1035</ele>
        <time>2000-01-01T02:03:35.000Z</time>
      </trkpt>
      <trkpt lat="45.92447" lon="6.86977">
        <ele>1036</ele>
        <time>2000-01-01T02:03:45.000Z</time>
      </trkpt>
      <trkpt lat="45.92482" lon="6.86978">
        <ele>1038</ele>
        <time>2000-01-01T02:03:55.000Z</time>
      </trkpt>
      <trkpt lat="45.92527" lon="6.86979">
        <ele>1039</ele>
        <time>2000-01-01T02:04:05.000Z</time>
      </trkpt>
      <trkpt lat="45.92537" lon="6.86939">
        <ele>1041</ele>
        <time>2000-01-01T02:04:15.000Z</time>
      </trkpt>
      <trkpt lat="45.92553" lon="6.86872">
        <ele>1045</ele>
        <time>2000-01-01T02:04:25.000Z</time>
      </trkpt>
      <trkpt lat="45.92555" lon="6.86829">
        <ele>1041</ele>
        <time>2000-01-01T02:04:35.000Z</time>
      </trkpt>
      <trkpt lat="45.92544" lon="6.8682">
        <ele>1045.5</ele>
        <time>2000-01-01T02:04:45.000Z</time>
      </trkpt>
      <trkpt lat="45.92346" lon="6.86764">
        <ele>1043</ele>
        <time>2000-01-01T02:04:55.000Z</time>
      </trkpt>
      <trkpt lat="45.92349" lon="6.86718">
        <ele>1046</ele>
        <time>2000-01-01T02:05:05.000Z</time>
      </trkpt>
      <trkpt lat="45.92352" lon="6.86673">
        <ele>1057</ele>
        <time>2000-01-01T02:05:15.000Z</time>
      </trkpt>
      <trkpt lat="45.92355" lon="6.86622">
        <ele>1057</ele>
        <time>2000-01-01T02:05:25.000Z</time>
      </trkpt>
      <trkpt lat="45.92364" lon="6.8657">
        <ele>1057</ele>
        <time>2000-01-01T02:05:35.000Z</time>
      </trkpt>
      <trkpt lat="45.92374" lon="6.86517">
        <ele>1067</ele>
        <time>2000-01-01T02:05:45.000Z</time>
      </trkpt>
      <trkpt lat="45.92383" lon="6.86465">
        <ele>1068</ele>
        <time>2000-01-01T02:05:55.000Z</time>
      </trkpt>
      <trkpt lat="45.92393" lon="6.86413">
        <ele>1073</ele>
        <time>2000-01-01T02:06:05.000Z</time>
      </trkpt>
      <trkpt lat="45.92403" lon="6.86358">
        <ele>1081</ele>
        <time>2000-01-01T02:06:15.000Z</time>
      </trkpt>
      <trkpt lat="45.9238" lon="6.86343">
        <ele>1085</ele>
        <time>2000-01-01T02:06:25.000Z</time>
      </trkpt>
      <trkpt lat="45.92381" lon="6.86318">
        <ele>1089.9</ele>
        <time>2000-01-01T02:06:35.000Z</time>
      </trkpt>
      <trkpt lat="45.92423" lon="6.86242">
        <ele>1107</ele>
        <time>2000-01-01T02:06:45.000Z</time>
      </trkpt>
      <trkpt lat="45.92431" lon="6.86209">
        <ele>1110</ele>
        <time>2000-01-01T02:06:55.000Z</time>
      </trkpt>
      <trkpt lat="45.9244" lon="6.86172">
        <ele>1113</ele>
        <time>2000-01-01T02:07:05.000Z</time>
      </trkpt>
      <trkpt lat="45.92469" lon="6.86149">
        <ele>1124</ele>
        <time>2000-01-01T02:07:15.000Z</time>
      </trkpt>
      <trkpt lat="45.92499" lon="6.86127">
        <ele>1126</ele>
        <time>2000-01-01T02:07:25.000Z</time>
      </trkpt>
      <trkpt lat="45.92541" lon="6.86094">
        <ele>1127</ele>
        <time>2000-01-01T02:07:35.000Z</time>
      </trkpt>
      <trkpt lat="45.92565" lon="6.86114">
        <ele>1127</ele>
        <time>2000-01-01T02:07:45.000Z</time>
      </trkpt>
      <trkpt lat="45.926" lon="6.86144">
        <ele>1127</ele>
        <time>2000-01-01T02:07:55.000Z</time>
      </trkpt>
      <trkpt lat="45.92601" lon="6.86124">
        <ele>1151</ele>
        <time>2000-01-01T02:08:05.000Z</time>
      </trkpt>
      <trkpt lat="45.92624" lon="6.86127">
        <ele>1157</ele>
        <time>2000-01-01T02:08:15.000Z</time>
      </trkpt>
      <trkpt lat="45.92623" lon="6.86102">
        <ele>1164.6</ele>
        <time>2000-01-01T02:08:25.000Z</time>
      </trkpt>
      <trkpt lat="45.9264" lon="6.86112">
        <ele>1160</ele>
        <time>2000-01-01T02:08:35.000Z</time>
      </trkpt>
      <trkpt lat="45.92638" lon="6.86094">
        <ele>1172.7</ele>
        <time>2000-01-01T02:08:45.000Z</time>
      </trkpt>
      <trkpt lat="45.92654" lon="6.861">
        <ele>1163</ele>
        <time>2000-01-01T02:08:55.000Z</time>
      </trkpt>
      <trkpt lat="45.92662" lon="6.86068">
        <ele>1180</ele>
        <time>2000-01-01T02:09:05.000Z</time>
      </trkpt>
      <trkpt lat="45.92682" lon="6.86078">
        <ele>1183</ele>
        <time>2000-01-01T02:09:15.000Z</time>
      </trkpt>
      <trkpt lat="45.927" lon="6.8604">
        <ele>1204</ele>
        <time>2000-01-01T02:09:25.000Z</time>
      </trkpt>
      <trkpt lat="45.92712" lon="6.86049">
        <ele>1220.5</ele>
        <time>2000-01-01T02:09:35.000Z</time>
      </trkpt>
      <trkpt lat="45.9273" lon="6.8602">
        <ele>1230</ele>
        <time>2000-01-01T02:09:45.000Z</time>
      </trkpt>
      <trkpt lat="45.9274" lon="6.86029">
        <ele>1241.6</ele>
        <time>2000-01-01T02:09:55.000Z</time>
      </trkpt>
      <trkpt lat="45.92737" lon="6.86003">
        <ele>1230</ele>
        <time>2000-01-01T02:10:05.000Z</time>
      </trkpt>
      <trkpt lat="45.9275" lon="6.86015">
        <ele>1251.2</ele>
        <time>2000-01-01T02:10:15.000Z</time>
      </trkpt>
      <trkpt lat="45.9275" lon="6.85989">
        <ele>1262</ele>
        <time>2000-01-01T02:10:25.000Z</time>
      </trkpt>
      <trkpt lat="45.92765" lon="6.86001">
        <ele>1265</ele>
        <time>2000-01-01T02:10:35.000Z</time>
      </trkpt>
      <trkpt lat="45.92767" lon="6.85971">
        <ele>1262</ele>
        <time>2000-01-01T02:10:45.000Z</time>
      </trkpt>
      <trkpt lat="45.92779" lon="6.8599">
        <ele>1277.3</ele>
        <time>2000-01-01T02:10:55.000Z</time>
      </trkpt>
      <trkpt lat="45.92775" lon="6.85967">
        <ele>1275</ele>
        <time>2000-01-01T02:11:05.000Z</time>
      </trkpt>
      <trkpt lat="45.92787" lon="6.8598">
        <ele>1284.7</ele>
        <time>2000-01-01T02:11:15.000Z</time>
      </trkpt>
      <trkpt lat="45.92788" lon="6.85951">
        <ele>1289</ele>
        <time>2000-01-01T02:11:25.000Z</time>
      </trkpt>
      <trkpt lat="45.92799" lon="6.85964">
        <ele>1295.8</ele>
        <time>2000-01-01T02:11:35.000Z</time>
      </trkpt>
      <trkpt lat="45.92802" lon="6.85942">
        <ele>1301</ele>
        <time>2000-01-01T02:11:45.000Z</time>
      </trkpt>
      <trkpt lat="45.92809" lon="6.85959">
        <ele>1302.8</ele>
        <time>2000-01-01T02:11:55.000Z</time>
      </trkpt>
      <trkpt lat="45.92822" lon="6.85951">
        <ele>1311</ele>
        <time>2000-01-01T02:12:05.000Z</time>
      </trkpt>
      <trkpt lat="45.92827" lon="6.8592">
        <ele>1315</ele>
        <time>2000-01-01T02:12:15.000Z</time>
      </trkpt>
      <trkpt lat="45.92841" lon="6.85928">
        <ele>1328.6</ele>
        <time>2000-01-01T02:12:25.000Z</time>
      </trkpt>
      <trkpt lat="45.92841" lon="6.859">
        <ele>1316</ele>
        <time>2000-01-01T02:12:35.000Z</time>
      </trkpt>
      <trkpt lat="45.92856" lon="6.85915">
        <ele>1341.5</ele>
        <time>2000-01-01T02:12:45.000Z</time>
      </trkpt>
      <trkpt lat="45.92853" lon="6.85898">
        <ele>1317</ele>
        <time>2000-01-01T02:12:55.000Z</time>
      </trkpt>
      <trkpt lat="45.92875" lon="6.85901">
        <ele>1317</ele>
        <time>2000-01-01T02:13:05.000Z</time>
      </trkpt>
      <trkpt lat="45.92868" lon="6.85884">
        <ele>1360.9</ele>
        <time>2000-01-01T02:13:15.000Z</time>
      </trkpt>
      <trkpt lat="45.92887" lon="6.8589">
        <ele>1352</ele>
        <time>2000-01-01T02:13:25.000Z</time>
      </trkpt>
      <trkpt lat="45.92881" lon="6.85864">
        <ele>1367</ele>
        <time>2000-01-01T02:13:35.000Z</time>
      </trkpt>
      <trkpt lat="45.92899" lon="6.85872">
        <ele>1367</ele>
        <time>2000-01-01T02:13:45.000Z</time>
      </trkpt>
      <trkpt lat="45.92895" lon="6.85847">
        <ele>1389.1</ele>
        <time>2000-01-01T02:13:55.000Z</time>
      </trkpt>
      <trkpt lat="45.92928" lon="6.85857">
        <ele>1381</ele>
        <time>2000-01-01T02:14:05.000Z</time>
      </trkpt>
      <trkpt lat="45.9292" lon="6.85824">
        <ele>1391</ele>
        <time>2000-01-01T02:14:15.000Z</time>
      </trkpt>
      <trkpt lat="45.92949" lon="6.85831">
        <ele>1406</ele>
        <time>2000-01-01T02:14:25.000Z</time>
      </trkpt>
      <trkpt lat="45.92946" lon="6.85815">
        <ele>1434.4</ele>
        <time>2000-01-01T02:14:35.000Z</time>
      </trkpt>
      <trkpt lat="45.92959" lon="6.85822">
        <ele>1406</ele>
        <time>2000-01-01T02:14:45.000Z</time>
      </trkpt>
      <trkpt lat="45.92958" lon="6.85806">
        <ele>1447.5</ele>
        <time>2000-01-01T02:14:55.000Z</time>
      </trkpt>
      <trkpt lat="45.92976" lon="6.8581">
        <ele>1450</ele>
        <time>2000-01-01T02:15:05.000Z</time>
      </trkpt>
      <trkpt lat="45.92968" lon="6.85792">
        <ele>1461.8</ele>
        <time>2000-01-01T02:15:15.000Z</time>
      </trkpt>
      <trkpt lat="45.92986" lon="6.85801">
        <ele>1450</ele>
        <time>2000-01-01T02:15:25.000Z</time>
      </trkpt>
      <trkpt lat="45.92976" lon="6.85783">
        <ele>1471.4</ele>
        <time>2000-01-01T02:15:35.000Z</time>
      </trkpt>
      <trkpt lat="45.93011" lon="6.85774">
        <ele>1475</ele>
        <time>2000-01-01T02:15:45.000Z</time>
      </trkpt>
      <trkpt lat="45.93019" lon="6.85744">
        <ele>1488</ele>
        <time>2000-01-01T02:15:55.000Z</time>
      </trkpt>
      <trkpt lat="45.93053" lon="6.8574">
        <ele>1510</ele>
        <time>2000-01-01T02:16:05.000Z</time>
      </trkpt>
      <trkpt lat="45.93044" lon="6.85731">
        <ele>1530.1</ele>
        <time>2000-01-01T02:16:15.000Z</time>
      </trkpt>
      <trkpt lat="45.93085" lon="6.85702">
        <ele>1534</ele>
        <time>2000-01-01T02:16:25.000Z</time>
      </trkpt>
      <trkpt lat="45.9308" lon="6.8569">
        <ele>1570.2</ele>
        <time>2000-01-01T02:16:35.000Z</time>
      </trkpt>
      <trkpt lat="45.93102" lon="6.85703">
        <ele>1566</ele>
        <time>2000-01-01T02:16:45.000Z</time>
      </trkpt>
      <trkpt lat="45.93102" lon="6.85688">
        <ele>1581.4</ele>
        <time>2000-01-01T02:16:55.000Z</time>
      </trkpt>
      <trkpt lat="45.93126" lon="6.8569">
        <ele>1566</ele>
        <time>2000-01-01T02:17:05.000Z</time>
      </trkpt>
      <trkpt lat="45.93118" lon="6.85671">
        <ele>1597.4</ele>
        <time>2000-01-01T02:17:15.000Z</time>
      </trkpt>
      <trkpt lat="45.93135" lon="6.85674">
        <ele>1585</ele>
        <time>2000-01-01T02:17:25.000Z</time>
      </trkpt>
      <trkpt lat="45.93131" lon="6.85654">
        <ele>1611.6</ele>
        <time>2000-01-01T02:17:35.000Z</time>
      </trkpt>
      <trkpt lat="45.93179" lon="6.85662">
        <ele>1602</ele>
        <time>2000-01-01T02:17:45.000Z</time>
      </trkpt>
      <trkpt lat="45.93184" lon="6.85637">
        <ele>1645</ele>
        <time>2000-01-01T02:17:55.000Z</time>
      </trkpt>
      <trkpt lat="45.93199" lon="6.85641">
        <ele>1645</ele>
        <time>2000-01-01T02:18:05.000Z</time>
      </trkpt>
      <trkpt lat="45.93192" lon="6.85622">
        <ele>1659.8</ele>
        <time>2000-01-01T02:18:15.000Z</time>
      </trkpt>
      <trkpt lat="45.93211" lon="6.85631">
        <ele>1666</ele>
        <time>2000-01-01T02:18:25.000Z</time>
      </trkpt>
      <trkpt lat="45.93203" lon="6.85608">
        <ele>1676.4</ele>
        <time>2000-01-01T02:18:35.000Z</time>
      </trkpt>
      <trkpt lat="45.93253" lon="6.85614">
        <ele>1700</ele>
        <time>2000-01-01T02:18:45.000Z</time>
      </trkpt>
      <trkpt lat="45.93241" lon="6.85569">
        <ele>1725</ele>
        <time>2000-01-01T02:18:55.000Z</time>
      </trkpt>
      <trkpt lat="45.93257" lon="6.85564">
        <ele>1734.3</ele>
        <time>2000-01-01T02:19:05.000Z</time>
      </trkpt>
      <trkpt lat="45.9325" lon="6.85557">
        <ele>1725</ele>
        <time>2000-01-01T02:19:15.000Z</time>
      </trkpt>
      <trkpt lat="45.93273" lon="6.8553">
        <ele>1736</ele>
        <time>2000-01-01T02:19:25.000Z</time>
      </trkpt>
      <trkpt lat="45.93308" lon="6.85552">
        <ele>1753</ele>
        <time>2000-01-01T02:19:35.000Z</time>
      </trkpt>
      <trkpt lat="45.93323" lon="6.85509">
        <ele>1785</ele>
        <time>2000-01-01T02:19:45.000Z</time>
      </trkpt>
      <trkpt lat="45.93359" lon="6.85496">
        <ele>1794</ele>
        <time>2000-01-01T02:19:55.000Z</time>
      </trkpt>
      <trkpt lat="45.93343" lon="6.85468">
        <ele>1803</ele>
        <time>2000-01-01T02:20:05.000Z</time>
      </trkpt>
      <trkpt lat="45.93357" lon="6.85458">
        <ele>1849.1</ele>
        <time>2000-01-01T02:20:15.000Z</time>
      </trkpt>
      <trkpt lat="45.93417" lon="6.85447">
        <ele>1884</ele>
        <time>2000-01-01T02:20:25.000Z</time>
      </trkpt>
      <trkpt lat="45.93444" lon="6.85423">
        <ele>1892</ele>
        <time>2000-01-01T02:20:35.000Z</time>
      </trkpt>
      <trkpt lat="45.93441" lon="6.8544">
        <ele>1922.1</ele>
        <time>2000-01-01T02:20:45.000Z</time>
      </trkpt>
      <trkpt lat="45.93472" lon="6.85464">
        <ele>1901</ele>
        <time>2000-01-01T02:20:55.000Z</time>
      </trkpt>
      <trkpt lat="45.9347" lon="6.85448">
        <ele>1942.8</ele>
        <time>2000-01-01T02:21:05.000Z</time>
      </trkpt>
      <trkpt lat="45.93494" lon="6.85446">
        <ele>1933</ele>
        <time>2000-01-01T02:21:15.000Z</time>
      </trkpt>
      <trkpt lat="45.93513" lon="6.85392">
        <ele>1947</ele>
        <time>2000-01-01T02:21:25.000Z</time>
      </trkpt>
      <trkpt lat="45.93534" lon="6.85362">
        <ele>1979</ele>
        <time>2000-01-01T02:21:35.000Z</time>
      </trkpt>
      <trkpt lat="45.93571" lon="6.85309">
        <ele>2001</ele>
        <time>2000-01-01T02:21:45.000Z</time>
      </trkpt>
      <trkpt lat="45.9357" lon="6.85262">
        <ele>2005</ele>
        <time>2000-01-01T02:21:55.000Z</time>
      </trkpt>
      <trkpt lat="45.9359" lon="6.85229">
        <ele>2005</ele>
        <time>2000-01-01T02:22:05.000Z</time>
      </trkpt>
      <trkpt lat="45.93628" lon="6.85166">
        <ele>2015</ele>
        <time>2000-01-01T02:22:15.000Z</time>
      </trkpt>
      <trkpt lat="45.93658" lon="6.85149">
        <ele>2026</ele>
        <time>2000-01-01T02:22:25.000Z</time>
      </trkpt>
      <trkpt lat="45.93688" lon="6.85132">
        <ele>2040</ele>
        <time>2000-01-01T02:22:35.000Z</time>
      </trkpt>
      <trkpt lat="45.93726" lon="6.8511">
        <ele>2046</ele>
        <time>2000-01-01T02:22:45.000Z</time>
      </trkpt>
      <trkpt lat="45.9374" lon="6.85063">
        <ele>2050</ele>
        <time>2000-01-01T02:22:55.000Z</time>
      </trkpt>
      <trkpt lat="45.93754" lon="6.85016">
        <ele>2052</ele>
        <time>2000-01-01T02:23:05.000Z</time>
      </trkpt>
      <trkpt lat="45.93768" lon="6.84969">
        <ele>2053</ele>
        <time>2000-01-01T02:23:15.000Z</time>
      </trkpt>
      <trkpt lat="45.93784" lon="6.84917">
        <ele>2069</ele>
        <time>2000-01-01T02:23:25.000Z</time>
      </trkpt>
      <trkpt lat="45.93803" lon="6.84897">
        <ele>2075</ele>
        <time>2000-01-01T02:23:35.000Z</time>
      </trkpt>
      <trkpt lat="45.93823" lon="6.84876">
        <ele>2095</ele>
        <time>2000-01-01T02:23:45.000Z</time>
      </trkpt>
      <trkpt lat="45.9385" lon="6.84879">
        <ele>2110</ele>
        <time>2000-01-01T02:23:55.000Z</time>
      </trkpt>
      <trkpt lat="45.93845" lon="6.84869">
        <ele>2092.2</ele>
        <time>2000-01-01T02:24:05.000Z</time>
      </trkpt>
      <trkpt lat="45.93865" lon="6.84865">
        <ele>2110</ele>
        <time>2000-01-01T02:24:15.000Z</time>
      </trkpt>
      <trkpt lat="45.93891" lon="6.84841">
        <ele>2119</ele>
        <time>2000-01-01T02:24:25.000Z</time>
      </trkpt>
      <trkpt lat="45.93918" lon="6.84817">
        <ele>2127</ele>
        <time>2000-01-01T02:24:35.000Z</time>
      </trkpt>
      <trkpt lat="45.93945" lon="6.84792">
        <ele>2145</ele>
        <time>2000-01-01T02:24:45.000Z</time>
      </trkpt>
      <trkpt lat="45.93981" lon="6.8478">
        <ele>2146</ele>
        <time>2000-01-01T02:24:55.000Z</time>
      </trkpt>
      <trkpt lat="45.94017" lon="6.84768">
        <ele>2151</ele>
        <time>2000-01-01T02:25:05.000Z</time>
      </trkpt>
      <trkpt lat="45.94053" lon="6.84756">
        <ele>2157</ele>
        <time>2000-01-01T02:25:15.000Z</time>
      </trkpt>
      <trkpt lat="45.94114" lon="6.84736">
        <ele>2158</ele>
        <time>2000-01-01T02:25:25.000Z</time>
      </trkpt>
      <trkpt lat="45.94139" lon="6.84715">
        <ele>2159</ele>
        <time>2000-01-01T02:25:35.000Z</time>
      </trkpt>
      <trkpt lat="45.94179" lon="6.8468">
        <ele>2184</ele>
        <time>2000-01-01T02:25:45.000Z</time>
      </trkpt>
      <trkpt lat="45.94203" lon="6.84674">
        <ele>2184</ele>
        <time>2000-01-01T02:25:55.000Z</time>
      </trkpt>
      <trkpt lat="45.94228" lon="6.84668">
        <ele>2191</ele>
        <time>2000-01-01T02:26:05.000Z</time>
      </trkpt>
      <trkpt lat="45.94206" lon="6.84648">
        <ele>2193</ele>
        <time>2000-01-01T02:26:15.000Z</time>
      </trkpt>
      <trkpt lat="45.94177" lon="6.84622">
        <ele>2227</ele>
        <time>2000-01-01T02:26:25.000Z</time>
      </trkpt>
      <trkpt lat="45.94153" lon="6.84614">
        <ele>2223</ele>
        <time>2000-01-01T02:26:35.000Z</time>
      </trkpt>
      <trkpt lat="45.94119" lon="6.84633">
        <ele>2230</ele>
        <time>2000-01-01T02:26:45.000Z</time>
      </trkpt>
      <trkpt lat="45.94093" lon="6.84617">
        <ele>2238</ele>
        <time>2000-01-01T02:26:55.000Z</time>
      </trkpt>
      <trkpt lat="45.94055" lon="6.84594">
        <ele>2250</ele>
        <time>2000-01-01T02:27:05.000Z</time>
      </trkpt>
      <trkpt lat="45.9408" lon="6.84585">
        <ele>2255</ele>
        <time>2000-01-01T02:27:15.000Z</time>
      </trkpt>
      <trkpt lat="45.94112" lon="6.84573">
        <ele>2264</ele>
        <time>2000-01-01T02:27:25.000Z</time>
      </trkpt>
      <trkpt lat="45.94123" lon="6.84562">
        <ele>2270.3</ele>
        <time>2000-01-01T02:27:35.000Z</time>
      </trkpt>
      <trkpt lat="45.94082" lon="6.84556">
        <ele>2276</ele>
        <time>2000-01-01T02:27:45.000Z</time>
      </trkpt>
      <trkpt lat="45.94106" lon="6.84542">
        <ele>2295</ele>
        <time>2000-01-01T02:27:55.000Z</time>
      </trkpt>
      <trkpt lat="45.94134" lon="6.84525">
        <ele>2315</ele>
        <time>2000-01-01T02:28:05.000Z</time>
      </trkpt>
      <trkpt lat="45.94105" lon="6.84521">
        <ele>2304</ele>
        <time>2000-01-01T02:28:15.000Z</time>
      </trkpt>
      <trkpt lat="45.9406" lon="6.84516">
        <ele>2293</ele>
        <time>2000-01-01T02:28:25.000Z</time>
      </trkpt>
      <trkpt lat="45.9404" lon="6.84496">
        <ele>2293</ele>
        <time>2000-01-01T02:28:35.000Z</time>
      </trkpt>
      <trkpt lat="45.94062" lon="6.84491">
        <ele>2293</ele>
        <time>2000-01-01T02:28:45.000Z</time>
      </trkpt>
      <trkpt lat="45.94053" lon="6.84468">
        <ele>2332.4</ele>
        <time>2000-01-01T02:28:55.000Z</time>
      </trkpt>
      <trkpt lat="45.94084" lon="6.84466">
        <ele>2325</ele>
        <time>2000-01-01T02:29:05.000Z</time>
      </trkpt>
      <trkpt lat="45.94076" lon="6.84448">
        <ele>2345.5</ele>
        <time>2000-01-01T02:29:15.000Z</time>
      </trkpt>
      <trkpt lat="45.94135" lon="6.84354">
        <ele>2370</ele>
        <time>2000-01-01T02:29:25.000Z</time>
      </trkpt>
      <trkpt lat="45.94124" lon="6.84338">
        <ele>2369.4</ele>
        <time>2000-01-01T02:29:35.000Z</time>
      </trkpt>
      <trkpt lat="45.94136" lon="6.84322">
        <ele>2372</ele>
        <time>2000-01-01T02:29:45.000Z</time>
      </trkpt>
      <trkpt lat="45.94136" lon="6.8426">
        <ele>2377</ele>
        <time>2000-01-01T02:29:55.000Z</time>
      </trkpt>
      <trkpt lat="45.9412" lon="6.8423">
        <ele>2384</ele>
        <time>2000-01-01T02:30:05.000Z</time>
      </trkpt>
      <trkpt lat="45.94099" lon="6.84193">
        <ele>2385</ele>
        <time>2000-01-01T02:30:15.000Z</time>
      </trkpt>
      <trkpt lat="45.9409" lon="6.84155">
        <ele>2384</ele>
        <time>2000-01-01T02:30:25.000Z</time>
      </trkpt>
      <trkpt lat="45.94078" lon="6.84101">
        <ele>2383</ele>
        <time>2000-01-01T02:30:35.000Z</time>
      </trkpt>
      <trkpt lat="45.9406" lon="6.84092">
        <ele>2378</ele>
        <time>2000-01-01T02:30:45.000Z</time>
      </trkpt>
      <trkpt lat="45.94049" lon="6.84038">
        <ele>2371</ele>
        <time>2000-01-01T02:30:55.000Z</time>
      </trkpt>
      <trkpt lat="45.94031" lon="6.84007">
        <ele>2370</ele>
        <time>2000-01-01T02:31:05.000Z</time>
      </trkpt>
      <trkpt lat="45.94005" lon="6.83961">
        <ele>2368</ele>
        <time>2000-01-01T02:31:15.000Z</time>
      </trkpt>
      <trkpt lat="45.93988" lon="6.83914">
        <ele>2368</ele>
        <time>2000-01-01T02:31:25.000Z</time>
      </trkpt>
      <trkpt lat="45.93992" lon="6.83876">
        <ele>2355</ele>
        <time>2000-01-01T02:31:35.000Z</time>
      </trkpt>
      <trkpt lat="45.93971" lon="6.83844">
        <ele>2365</ele>
        <time>2000-01-01T02:31:45.000Z</time>
      </trkpt>
      <trkpt lat="45.93937" lon="6.83831">
        <ele>2369</ele>
        <time>2000-01-01T02:31:55.000Z</time>
      </trkpt>
      <trkpt lat="45.93915" lon="6.83805">
        <ele>2373</ele>
        <time>2000-01-01T02:32:05.000Z</time>
      </trkpt>
      <trkpt lat="45.93879" lon="6.83762">
        <ele>2381</ele>
        <time>2000-01-01T02:32:15.000Z</time>
      </trkpt>
      <trkpt lat="45.93853" lon="6.8375">
        <ele>2381</ele>
        <time>2000-01-01T02:32:25.000Z</time>
      </trkpt>
      <trkpt lat="45.93816" lon="6.83732">
        <ele>2383</ele>
        <time>2000-01-01T02:32:35.000Z</time>
      </trkpt>
      <trkpt lat="45.93791" lon="6.83731">
        <ele>2395</ele>
        <time>2000-01-01T02:32:45.000Z</time>
      </trkpt>
      <trkpt lat="45.93761" lon="6.83731">
        <ele>2395</ele>
        <time>2000-01-01T02:32:55.000Z</time>
      </trkpt>
      <trkpt lat="45.93726" lon="6.83708">
        <ele>2395</ele>
        <time>2000-01-01T02:33:05.000Z</time>
      </trkpt>
      <trkpt lat="45.93719" lon="6.8372">
        <ele>2400.5</ele>
        <time>2000-01-01T02:33:15.000Z</time>
      </trkpt>
      <trkpt lat="45.93686" lon="6.83721">
        <ele>2424</ele>
        <time>2000-01-01T02:33:25.000Z</time>
      </trkpt>
      <trkpt lat="45.93694" lon="6.83733">
        <ele>2416.4</ele>
        <time>2000-01-01T02:33:35.000Z</time>
      </trkpt>
      <trkpt lat="45.93672" lon="6.83746">
        <ele>2426</ele>
        <time>2000-01-01T02:33:45.000Z</time>
      </trkpt>
      <trkpt lat="45.93679" lon="6.83757">
        <ele>2426.6</ele>
        <time>2000-01-01T02:33:55.000Z</time>
      </trkpt>
      <trkpt lat="45.93662" lon="6.83781">
        <ele>2427</ele>
        <time>2000-01-01T02:34:05.000Z</time>
      </trkpt>
      <trkpt lat="45.93638" lon="6.83762">
        <ele>2429</ele>
        <time>2000-01-01T02:34:15.000Z</time>
      </trkpt>
      <trkpt lat="45.93603" lon="6.83735">
        <ele>2434</ele>
        <time>2000-01-01T02:34:25.000Z</time>
      </trkpt>
      <trkpt lat="45.93575" lon="6.83746">
        <ele>2446</ele>
        <time>2000-01-01T02:34:35.000Z</time>
      </trkpt>
      <trkpt lat="45.93528" lon="6.83765">
        <ele>2446</ele>
        <time>2000-01-01T02:34:45.000Z</time>
      </trkpt>
      <trkpt lat="45.935" lon="6.83743">
        <ele>2449</ele>
        <time>2000-01-01T02:34:55.000Z</time>
      </trkpt>
      <trkpt lat="45.93471" lon="6.8372">
        <ele>2463</ele>
        <time>2000-01-01T02:35:05.000Z</time>
      </trkpt>
      <trkpt lat="45.93437" lon="6.83693">
        <ele>2472</ele>
        <time>2000-01-01T02:35:15.000Z</time>
      </trkpt>
      <trkpt lat="45.93413" lon="6.83691">
        <ele>2472</ele>
        <time>2000-01-01T02:35:25.000Z</time>
      </trkpt>
      <trkpt lat="45.93389" lon="6.83689">
        <ele>2468</ele>
        <time>2000-01-01T02:35:35.000Z</time>
      </trkpt>
      <trkpt lat="45.93351" lon="6.8366">
        <ele>2465</ele>
        <time>2000-01-01T02:35:45.000Z</time>
      </trkpt>
      <trkpt lat="45.93318" lon="6.83662">
        <ele>2447</ele>
        <time>2000-01-01T02:35:55.000Z</time>
      </trkpt>
      <trkpt lat="45.93328" lon="6.83641">
        <ele>2462.9</ele>
        <time>2000-01-01T02:36:05.000Z</time>
      </trkpt>
      <trkpt lat="45.93319" lon="6.83638">
        <ele>2445</ele>
        <time>2000-01-01T02:36:15.000Z</time>
      </trkpt>
      <trkpt lat="45.93278" lon="6.83661">
        <ele>2436</ele>
        <time>2000-01-01T02:36:25.000Z</time>
      </trkpt>
      <trkpt lat="45.93284" lon="6.83645">
        <ele>2446.2</ele>
        <time>2000-01-01T02:36:35.000Z</time>
      </trkpt>
      <trkpt lat="45.93256" lon="6.83645">
        <ele>2426</ele>
        <time>2000-01-01T02:36:45.000Z</time>
      </trkpt>
      <trkpt lat="45.93236" lon="6.83663">
        <ele>2423</ele>
        <time>2000-01-01T02:36:55.000Z</time>
      </trkpt>
      <trkpt lat="45.93216" lon="6.83681">
        <ele>2423</ele>
        <time>2000-01-01T02:37:05.000Z</time>
      </trkpt>
      <trkpt lat="45.93196" lon="6.83678">
        <ele>2408</ele>
        <time>2000-01-01T02:37:15.000Z</time>
      </trkpt>
      <trkpt lat="45.93194" lon="6.83652">
        <ele>2410.2</ele>
        <time>2000-01-01T02:37:25.000Z</time>
      </trkpt>
      <trkpt lat="45.93179" lon="6.83657">
        <ele>2405</ele>
        <time>2000-01-01T02:37:35.000Z</time>
      </trkpt>
      <trkpt lat="45.93189" lon="6.83616">
        <ele>2403</ele>
        <time>2000-01-01T02:37:45.000Z</time>
      </trkpt>
      <trkpt lat="45.93148" lon="6.83648">
        <ele>2387</ele>
        <time>2000-01-01T02:37:55.000Z</time>
      </trkpt>
      <trkpt lat="45.93145" lon="6.83629">
        <ele>2387.9</ele>
        <time>2000-01-01T02:38:05.000Z</time>
      </trkpt>
      <trkpt lat="45.93212" lon="6.83537">
        <ele>2382</ele>
        <time>2000-01-01T02:38:15.000Z</time>
      </trkpt>
      <trkpt lat="45.9322" lon="6.83506">
        <ele>2367</ele>
        <time>2000-01-01T02:38:25.000Z</time>
      </trkpt>
      <trkpt lat="45.93191" lon="6.835">
        <ele>2362</ele>
        <time>2000-01-01T02:38:35.000Z</time>
      </trkpt>
      <trkpt lat="45.93193" lon="6.83477">
        <ele>2354.8</ele>
        <time>2000-01-01T02:38:45.000Z</time>
      </trkpt>
      <trkpt lat="45.93138" lon="6.83508">
        <ele>2340</ele>
        <time>2000-01-01T02:38:55.000Z</time>
      </trkpt>
      <trkpt lat="45.93112" lon="6.83508">
        <ele>2333</ele>
        <time>2000-01-01T02:39:05.000Z</time>
      </trkpt>
      <trkpt lat="45.93078" lon="6.83509">
        <ele>2324</ele>
        <time>2000-01-01T02:39:15.000Z</time>
      </trkpt>
      <trkpt lat="45.93059" lon="6.83504">
        <ele>2323</ele>
        <time>2000-01-01T02:39:25.000Z</time>
      </trkpt>
      <trkpt lat="45.93041" lon="6.83482">
        <ele>2320</ele>
        <time>2000-01-01T02:39:35.000Z</time>
      </trkpt>
      <trkpt lat="45.93023" lon="6.83459">
        <ele>2318</ele>
        <time>2000-01-01T02:39:45.000Z</time>
      </trkpt>
      <trkpt lat="45.92986" lon="6.83454">
        <ele>2308</ele>
        <time>2000-01-01T02:39:55.000Z</time>
      </trkpt>
      <trkpt lat="45.92984" lon="6.8347">
        <ele>2314.1</ele>
        <time>2000-01-01T02:40:05.000Z</time>
      </trkpt>
      <trkpt lat="45.92975" lon="6.83458">
        <ele>2308</ele>
        <time>2000-01-01T02:40:15.000Z</time>
      </trkpt>
      <trkpt lat="45.92945" lon="6.8348">
        <ele>2300</ele>
        <time>2000-01-01T02:40:25.000Z</time>
      </trkpt>
      <trkpt lat="45.9292" lon="6.83456">
        <ele>2294</ele>
        <time>2000-01-01T02:40:35.000Z</time>
      </trkpt>
      <trkpt lat="45.92872" lon="6.8341">
        <ele>2293</ele>
        <time>2000-01-01T02:40:45.000Z</time>
      </trkpt>
      <trkpt lat="45.9284" lon="6.83401">
        <ele>2293</ele>
        <time>2000-01-01T02:40:55.000Z</time>
      </trkpt>
      <trkpt lat="45.92808" lon="6.83392">
        <ele>2293</ele>
        <time>2000-01-01T02:41:05.000Z</time>
      </trkpt>
      <trkpt lat="45.92765" lon="6.8338">
        <ele>2292</ele>
        <time>2000-01-01T02:41:15.000Z</time>
      </trkpt>
      <trkpt lat="45.92736" lon="6.83361">
        <ele>2292</ele>
        <time>2000-01-01T02:41:25.000Z</time>
      </trkpt>
      <trkpt lat="45.92707" lon="6.83341">
        <ele>2284</ele>
        <time>2000-01-01T02:41:35.000Z</time>
      </trkpt>
      <trkpt lat="45.92676" lon="6.8332">
        <ele>2272</ele>
        <time>2000-01-01T02:41:45.000Z</time>
      </trkpt>
      <trkpt lat="45.92654" lon="6.83317">
        <ele>2271</ele>
        <time>2000-01-01T02:41:55.000Z</time>
      </trkpt>
      <trkpt lat="45.9265" lon="6.8337">
        <ele>2271</ele>
        <time>2000-01-01T02:42:05.000Z</time>
      </trkpt>
      <trkpt lat="45.92625" lon="6.83342">
        <ele>2271</ele>
        <time>2000-01-01T02:42:15.000Z</time>
      </trkpt>
      <trkpt lat="45.926" lon="6.83314">
        <ele>2270</ele>
        <time>2000-01-01T02:42:25.000Z</time>
      </trkpt>
      <trkpt lat="45.92572" lon="6.83283">
        <ele>2270</ele>
        <time>2000-01-01T02:42:35.000Z</time>
      </trkpt>
      <trkpt lat="45.92563" lon="6.83252">
        <ele>2269</ele>
        <time>2000-01-01T02:42:45.000Z</time>
      </trkpt>
      <trkpt lat="45.92553" lon="6.83219">
        <ele>2268</ele>
        <time>2000-01-01T02:42:55.000Z</time>
      </trkpt>
      <trkpt lat="45.92529" lon="6.83192">
        <ele>2268</ele>
        <time>2000-01-01T02:43:05.000Z</time>
      </trkpt>
      <trkpt lat="45.92519" lon="6.83149">
        <ele>2268</ele>
        <time>2000-01-01T02:43:15.000Z</time>
      </trkpt>
      <trkpt lat="45.92509" lon="6.83106">
        <ele>2268</ele>
        <time>2000-01-01T02:43:25.000Z</time>
      </trkpt>
      <trkpt lat="45.92499" lon="6.83061">
        <ele>2262</ele>
        <time>2000-01-01T02:43:35.000Z</time>
      </trkpt>
      <trkpt lat="45.92506" lon="6.83027">
        <ele>2261</ele>
        <time>2000-01-01T02:43:45.000Z</time>
      </trkpt>
      <trkpt lat="45.92515" lon="6.82987">
        <ele>2261</ele>
        <time>2000-01-01T02:43:55.000Z</time>
      </trkpt>
      <trkpt lat="45.92531" lon="6.82976">
        <ele>2261.8</ele>
        <time>2000-01-01T02:44:05.000Z</time>
      </trkpt>
      <trkpt lat="45.92495" lon="6.82954">
        <ele>2259</ele>
        <time>2000-01-01T02:44:15.000Z</time>
      </trkpt>
      <trkpt lat="45.92482" lon="6.82922">
        <ele>2251</ele>
        <time>2000-01-01T02:44:25.000Z</time>
      </trkpt>
      <trkpt lat="45.92479" lon="6.82932">
        <ele>2250.6</ele>
        <time>2000-01-01T02:44:35.000Z</time>
      </trkpt>
      <trkpt lat="45.92394" lon="6.8293">
        <ele>2215</ele>
        <time>2000-01-01T02:44:45.000Z</time>
      </trkpt>
      <trkpt lat="45.92395" lon="6.829">
        <ele>2217</ele>
        <time>2000-01-01T02:44:55.000Z</time>
      </trkpt>
      <trkpt lat="45.92432" lon="6.82872">
        <ele>2215</ele>
        <time>2000-01-01T02:45:05.000Z</time>
      </trkpt>
      <trkpt lat="45.924" lon="6.82856">
        <ele>2213</ele>
        <time>2000-01-01T02:45:15.000Z</time>
      </trkpt>
      <trkpt lat="45.92368" lon="6.8284">
        <ele>2200</ele>
        <time>2000-01-01T02:45:25.000Z</time>
      </trkpt>
      <trkpt lat="45.9232" lon="6.82816">
        <ele>2187</ele>
        <time>2000-01-01T02:45:35.000Z</time>
      </trkpt>
      <trkpt lat="45.92331" lon="6.82777">
        <ele>2174</ele>
        <time>2000-01-01T02:45:45.000Z</time>
      </trkpt>
      <trkpt lat="45.9235" lon="6.8271">
        <ele>2163</ele>
        <time>2000-01-01T02:45:55.000Z</time>
      </trkpt>
      <trkpt lat="45.92344" lon="6.8266">
        <ele>2160</ele>
        <time>2000-01-01T02:46:05.000Z</time>
      </trkpt>
      <trkpt lat="45.92338" lon="6.8261">
        <ele>2160</ele>
        <time>2000-01-01T02:46:15.000Z</time>
      </trkpt>
      <trkpt lat="45.92327" lon="6.82512">
        <ele>2140</ele>
        <time>2000-01-01T02:46:25.000Z</time>
      </trkpt>
      <trkpt lat="45.92335" lon="6.82451">
        <ele>2131</ele>
        <time>2000-01-01T02:46:35.000Z</time>
      </trkpt>
      <trkpt lat="45.92319" lon="6.8239">
        <ele>2132</ele>
        <time>2000-01-01T02:46:45.000Z</time>
      </trkpt>
      <trkpt lat="45.92297" lon="6.8235">
        <ele>2134</ele>
        <time>2000-01-01T02:46:55.000Z</time>
      </trkpt>
      <trkpt lat="45.92275" lon="6.8231">
        <ele>2146</ele>
        <time>2000-01-01T02:47:05.000Z</time>
      </trkpt>
      <trkpt lat="45.92253" lon="6.8227">
        <ele>2158</ele>
        <time>2000-01-01T02:47:15.000Z</time>
      </trkpt>
      <trkpt lat="45.92228" lon="6.82225">
        <ele>2159</ele>
        <time>2000-01-01T02:47:25.000Z</time>
      </trkpt>
      <trkpt lat="45.92218" lon="6.82184">
        <ele>2160</ele>
        <time>2000-01-01T02:47:35.000Z</time>
      </trkpt>
      <trkpt lat="45.92201" lon="6.82107">
        <ele>2188</ele>
        <time>2000-01-01T02:47:45.000Z</time>
      </trkpt>
      <trkpt lat="45.92183" lon="6.82073">
        <ele>2199</ele>
        <time>2000-01-01T02:47:55.000Z</time>
      </trkpt>
      <trkpt lat="45.92153" lon="6.82015">
        <ele>2207</ele>
        <time>2000-01-01T02:48:05.000Z</time>
      </trkpt>
      <trkpt lat="45.9217" lon="6.81979">
        <ele>2215</ele>
        <time>2000-01-01T02:48:15.000Z</time>
      </trkpt>
      <trkpt lat="45.92144" lon="6.81954">
        <ele>2225</ele>
        <time>2000-01-01T02:48:25.000Z</time>
      </trkpt>
      <trkpt lat="45.92107" lon="6.81986">
        <ele>2231</ele>
        <time>2000-01-01T02:48:35.000Z</time>
      </trkpt>
      <trkpt lat="45.92069" lon="6.81994">
        <ele>2236</ele>
        <time>2000-01-01T02:48:45.000Z</time>
      </trkpt>
      <trkpt lat="45.92048" lon="6.8198">
        <ele>2245</ele>
        <time>2000-01-01T02:48:55.000Z</time>
      </trkpt>
      <trkpt lat="45.92033" lon="6.81936">
        <ele>2252</ele>
        <time>2000-01-01T02:49:05.000Z</time>
      </trkpt>
      <trkpt lat="45.92019" lon="6.81893">
        <ele>2260</ele>
        <time>2000-01-01T02:49:15.000Z</time>
      </trkpt>
      <trkpt lat="45.91996" lon="6.81825">
        <ele>2271</ele>
        <time>2000-01-01T02:49:25.000Z</time>
      </trkpt>
      <trkpt lat="45.91987" lon="6.81814">
        <ele>2279.8</ele>
        <time>2000-01-01T02:49:35.000Z</time>
      </trkpt>
      <trkpt lat="45.9198" lon="6.81831">
        <ele>2271</ele>
        <time>2000-01-01T02:49:45.000Z</time>
      </trkpt>
      <trkpt lat="45.91971" lon="6.81822">
        <ele>2285.2</ele>
        <time>2000-01-01T02:49:55.000Z</time>
      </trkpt>
      <trkpt lat="45.91961" lon="6.8176">
        <ele>2271</ele>
        <time>2000-01-01T02:50:05.000Z</time>
      </trkpt>
      <trkpt lat="45.91964" lon="6.8172">
        <ele>2281</ele>
        <time>2000-01-01T02:50:15.000Z</time>
      </trkpt>
      <trkpt lat="45.91969" lon="6.81658">
        <ele>2303</ele>
        <time>2000-01-01T02:50:25.000Z</time>
      </trkpt>
      <trkpt lat="45.91967" lon="6.81601">
        <ele>2302</ele>
        <time>2000-01-01T02:50:35.000Z</time>
      </trkpt>
      <trkpt lat="45.91964" lon="6.81544">
        <ele>2301</ele>
        <time>2000-01-01T02:50:45.000Z</time>
      </trkpt>
      <trkpt lat="45.91962" lon="6.81486">
        <ele>2301</ele>
        <time>2000-01-01T02:50:55.000Z</time>
      </trkpt>
      <trkpt lat="45.91959" lon="6.81429">
        <ele>2303</ele>
        <time>2000-01-01T02:51:05.000Z</time>
      </trkpt>
      <trkpt lat="45.91957" lon="6.81372">
        <ele>2301</ele>
        <time>2000-01-01T02:51:15.000Z</time>
      </trkpt>
      <trkpt lat="45.91953" lon="6.81275">
        <ele>2299</ele>
        <time>2000-01-01T02:51:25.000Z</time>
      </trkpt>
      <trkpt lat="45.91969" lon="6.81221">
        <ele>2297</ele>
        <time>2000-01-01T02:51:35.000Z</time>
      </trkpt>
      <trkpt lat="45.91986" lon="6.81167">
        <ele>2295</ele>
        <time>2000-01-01T02:51:45.000Z</time>
      </trkpt>
      <trkpt lat="45.92003" lon="6.81113">
        <ele>2295</ele>
        <time>2000-01-01T02:51:55.000Z</time>
      </trkpt>
      <trkpt lat="45.92019" lon="6.81059">
        <ele>2296</ele>
        <time>2000-01-01T02:52:05.000Z</time>
      </trkpt>
      <trkpt lat="45.92036" lon="6.81005">
        <ele>2297</ele>
        <time>2000-01-01T02:52:15.000Z</time>
      </trkpt>
      <trkpt lat="45.92052" lon="6.80951">
        <ele>2285</ele>
        <time>2000-01-01T02:52:25.000Z</time>
      </trkpt>
      <trkpt lat="45.92069" lon="6.80896">
        <ele>2282</ele>
        <time>2000-01-01T02:52:35.000Z</time>
      </trkpt>
      <trkpt lat="45.92087" lon="6.80837">
        <ele>2280</ele>
        <time>2000-01-01T02:52:45.000Z</time>
      </trkpt>
      <trkpt lat="45.92084" lon="6.80801">
        <ele>2274</ele>
        <time>2000-01-01T02:52:55.000Z</time>
      </trkpt>
      <trkpt lat="45.9208" lon="6.80759">
        <ele>2271</ele>
        <time>2000-01-01T02:53:05.000Z</time>
      </trkpt>
      <trkpt lat="45.92091" lon="6.80711">
        <ele>2270</ele>
        <time>2000-01-01T02:53:15.000Z</time>
      </trkpt>
      <trkpt lat="45.92103" lon="6.80662">
        <ele>2269</ele>
        <time>2000-01-01T02:53:25.000Z</time>
      </trkpt>
      <trkpt lat="45.92115" lon="6.80614">
        <ele>2266</ele>
        <time>2000-01-01T02:53:35.000Z</time>
      </trkpt>
      <trkpt lat="45.92128" lon="6.80557">
        <ele>2265</ele>
        <time>2000-01-01T02:53:45.000Z</time>
      </trkpt>
      <trkpt lat="45.92117" lon="6.80575">
        <ele>2270.1</ele>
        <time>2000-01-01T02:53:55.000Z</time>
      </trkpt>
      <trkpt lat="45.9211" lon="6.80544">
        <ele>2265</ele>
        <time>2000-01-01T02:54:05.000Z</time>
      </trkpt>
      <trkpt lat="45.92104" lon="6.8057">
        <ele>2252</ele>
        <time>2000-01-01T02:54:15.000Z</time>
      </trkpt>
      <trkpt lat="45.92096" lon="6.80556">
        <ele>2252.1</ele>
        <time>2000-01-01T02:54:25.000Z</time>
      </trkpt>
      <trkpt lat="45.92087" lon="6.80567">
        <ele>2239</ele>
        <time>2000-01-01T02:54:35.000Z</time>
      </trkpt>
      <trkpt lat="45.92083" lon="6.80535">
        <ele>2235</ele>
        <time>2000-01-01T02:54:45.000Z</time>
      </trkpt>
      <trkpt lat="45.92067" lon="6.80552">
        <ele>2228</ele>
        <time>2000-01-01T02:54:55.000Z</time>
      </trkpt>
      <trkpt lat="45.92054" lon="6.80517">
        <ele>2222</ele>
        <time>2000-01-01T02:55:05.000Z</time>
      </trkpt>
      <trkpt lat="45.92035" lon="6.80469">
        <ele>2203</ele>
        <time>2000-01-01T02:55:15.000Z</time>
      </trkpt>
      <trkpt lat="45.92011" lon="6.8046">
        <ele>2183</ele>
        <time>2000-01-01T02:55:25.000Z</time>
      </trkpt>
      <trkpt lat="45.91984" lon="6.8045">
        <ele>2176</ele>
        <time>2000-01-01T02:55:35.000Z</time>
      </trkpt>
      <trkpt lat="45.91971" lon="6.80448">
        <ele>2177</ele>
        <time>2000-01-01T02:55:45.000Z</time>
      </trkpt>
      <trkpt lat="45.91961" lon="6.80485">
        <ele>2174</ele>
        <time>2000-01-01T02:55:55.000Z</time>
      </trkpt>
      <trkpt lat="45.91933" lon="6.80489">
        <ele>2160</ele>
        <time>2000-01-01T02:56:05.000Z</time>
      </trkpt>
      <trkpt lat="45.91892" lon="6.80494">
        <ele>2145</ele>
        <time>2000-01-01T02:56:15.000Z</time>
      </trkpt>
      <trkpt lat="45.91877" lon="6.80522">
        <ele>2138</ele>
        <time>2000-01-01T02:56:25.000Z</time>
      </trkpt>
      <trkpt lat="45.9186" lon="6.80552">
        <ele>2135</ele>
        <time>2000-01-01T02:56:35.000Z</time>
      </trkpt>
      <trkpt lat="45.91855" lon="6.80609">
        <ele>2130</ele>
        <time>2000-01-01T02:56:45.000Z</time>
      </trkpt>
      <trkpt lat="45.91833" lon="6.80633">
        <ele>2122</ele>
        <time>2000-01-01T02:56:55.000Z</time>
      </trkpt>
      <trkpt lat="45.91802" lon="6.80666">
        <ele>2114</ele>
        <time>2000-01-01T02:57:05.000Z</time>
      </trkpt>
      <trkpt lat="45.91787" lon="6.80698">
        <ele>2101</ele>
        <time>2000-01-01T02:57:15.000Z</time>
      </trkpt>
      <trkpt lat="45.91768" lon="6.80741">
        <ele>2095</ele>
        <time>2000-01-01T02:57:25.000Z</time>
      </trkpt>
      <trkpt lat="45.91751" lon="6.80788">
        <ele>2095</ele>
        <time>2000-01-01T02:57:35.000Z</time>
      </trkpt>
      <trkpt lat="45.91734" lon="6.80835">
        <ele>2095</ele>
        <time>2000-01-01T02:57:45.000Z</time>
      </trkpt>
      <trkpt lat="45.91717" lon="6.80882">
        <ele>2085</ele>
        <time>2000-01-01T02:57:55.000Z</time>
      </trkpt>
      <trkpt lat="45.91687" lon="6.80964">
        <ele>2061</ele>
        <time>2000-01-01T02:58:05.000Z</time>
      </trkpt>
      <trkpt lat="45.91667" lon="6.80987">
        <ele>2061</ele>
        <time>2000-01-01T02:58:15.000Z</time>
      </trkpt>
      <trkpt lat="45.91643" lon="6.81015">
        <ele>2051</ele>
        <time>2000-01-01T02:58:25.000Z</time>
      </trkpt>
      <trkpt lat="45.91616" lon="6.81033">
        <ele>2040</ele>
        <time>2000-01-01T02:58:35.000Z</time>
      </trkpt>
      <trkpt lat="45.9157" lon="6.81064">
        <ele>2024</ele>
        <time>2000-01-01T02:58:45.000Z</time>
      </trkpt>
      <trkpt lat="45.9156" lon="6.81105">
        <ele>2017</ele>
        <time>2000-01-01T02:58:55.000Z</time>
      </trkpt>
      <trkpt lat="45.91543" lon="6.81128">
        <ele>2012</ele>
        <time>2000-01-01T02:59:05.000Z</time>
      </trkpt>
      <trkpt lat="45.91525" lon="6.81151">
        <ele>2008</ele>
        <time>2000-01-01T02:59:15.000Z</time>
      </trkpt>
      <trkpt lat="45.91509" lon="6.81188">
        <ele>2000</ele>
        <time>2000-01-01T02:59:25.000Z</time>
      </trkpt>
      <trkpt lat="45.91482" lon="6.81252">
        <ele>1983</ele>
        <time>2000-01-01T02:59:35.000Z</time>
      </trkpt>
      <trkpt lat="45.91482" lon="6.81287">
        <ele>1983</ele>
        <time>2000-01-01T02:59:45.000Z</time>
      </trkpt>
      <trkpt lat="45.91482" lon="6.81323">
        <ele>1983</ele>
        <time>2000-01-01T02:59:55.000Z</time>
      </trkpt>
      <trkpt lat="45.9147" lon="6.81357">
        <ele>1973</ele>
        <time>2000-01-01T03:00:05.000Z</time>
      </trkpt>
      <trkpt lat="45.91455" lon="6.81402">
        <ele>1963</ele>
        <time>2000-01-01T03:00:15.000Z</time>
      </trkpt>
      <trkpt lat="45.91439" lon="6.81367">
        <ele>1946</ele>
        <time>2000-01-01T03:00:25.000Z</time>
      </trkpt>
      <trkpt lat="45.91412" lon="6.81308">
        <ele>1939</ele>
        <time>2000-01-01T03:00:35.000Z</time>
      </trkpt>
      <trkpt lat="45.91409" lon="6.81257">
        <ele>1934</ele>
        <time>2000-01-01T03:00:45.000Z</time>
      </trkpt>
      <trkpt lat="45.91406" lon="6.81206">
        <ele>1930</ele>
        <time>2000-01-01T03:00:55.000Z</time>
      </trkpt>
      <trkpt lat="45.91403" lon="6.81154">
        <ele>1930</ele>
        <time>2000-01-01T03:01:05.000Z</time>
      </trkpt>
      <trkpt lat="45.914" lon="6.81092">
        <ele>1929</ele>
        <time>2000-01-01T03:01:15.000Z</time>
      </trkpt>
      <trkpt lat="45.91387" lon="6.81041">
        <ele>1929</ele>
        <time>2000-01-01T03:01:25.000Z</time>
      </trkpt>
      <trkpt lat="45.91374" lon="6.8099">
        <ele>1918</ele>
        <time>2000-01-01T03:01:35.000Z</time>
      </trkpt>
      <trkpt lat="45.91361" lon="6.80939">
        <ele>1917</ele>
        <time>2000-01-01T03:01:45.000Z</time>
      </trkpt>
      <trkpt lat="45.91348" lon="6.80888">
        <ele>1908</ele>
        <time>2000-01-01T03:01:55.000Z</time>
      </trkpt>
      <trkpt lat="45.91334" lon="6.80832">
        <ele>1906</ele>
        <time>2000-01-01T03:02:05.000Z</time>
      </trkpt>
      <trkpt lat="45.91333" lon="6.80789">
        <ele>1899</ele>
        <time>2000-01-01T03:02:15.000Z</time>
      </trkpt>
      <trkpt lat="45.91332" lon="6.80714">
        <ele>1898</ele>
        <time>2000-01-01T03:02:25.000Z</time>
      </trkpt>
      <trkpt lat="45.91324" lon="6.80679">
        <ele>1895</ele>
        <time>2000-01-01T03:02:35.000Z</time>
      </trkpt>
      <trkpt lat="45.91314" lon="6.80636">
        <ele>1889</ele>
        <time>2000-01-01T03:02:45.000Z</time>
      </trkpt>
      <trkpt lat="45.91323" lon="6.80583">
        <ele>1884</ele>
        <time>2000-01-01T03:02:55.000Z</time>
      </trkpt>
      <trkpt lat="45.91332" lon="6.8053">
        <ele>1871</ele>
        <time>2000-01-01T03:03:05.000Z</time>
      </trkpt>
      <trkpt lat="45.91341" lon="6.80478">
        <ele>1859</ele>
        <time>2000-01-01T03:03:15.000Z</time>
      </trkpt>
      <trkpt lat="45.9135" lon="6.80425">
        <ele>1858</ele>
        <time>2000-01-01T03:03:25.000Z</time>
      </trkpt>
      <trkpt lat="45.9136" lon="6.80363">
        <ele>1857</ele>
        <time>2000-01-01T03:03:35.000Z</time>
      </trkpt>
      <trkpt lat="45.91356" lon="6.8032">
        <ele>1854</ele>
        <time>2000-01-01T03:03:45.000Z</time>
      </trkpt>
      <trkpt lat="45.91348" lon="6.80246">
        <ele>1847</ele>
        <time>2000-01-01T03:03:55.000Z</time>
      </trkpt>
      <trkpt lat="45.91326" lon="6.80274">
        <ele>1840</ele>
        <time>2000-01-01T03:04:05.000Z</time>
      </trkpt>
      <trkpt lat="45.91286" lon="6.80325">
        <ele>1803</ele>
        <time>2000-01-01T03:04:15.000Z</time>
      </trkpt>
      <trkpt lat="45.9127" lon="6.80361">
        <ele>1800</ele>
        <time>2000-01-01T03:04:25.000Z</time>
      </trkpt>
      <trkpt lat="45.91242" lon="6.80423">
        <ele>1797</ele>
        <time>2000-01-01T03:04:35.000Z</time>
      </trkpt>
      <trkpt lat="45.91215" lon="6.80439">
        <ele>1783</ele>
        <time>2000-01-01T03:04:45.000Z</time>
      </trkpt>
      <trkpt lat="45.91194" lon="6.80489">
        <ele>1777</ele>
        <time>2000-01-01T03:04:55.000Z</time>
      </trkpt>
      <trkpt lat="45.91172" lon="6.80539">
        <ele>1774</ele>
        <time>2000-01-01T03:05:05.000Z</time>
      </trkpt>
      <trkpt lat="45.91151" lon="6.80589">
        <ele>1768</ele>
        <time>2000-01-01T03:05:15.000Z</time>
      </trkpt>
      <trkpt lat="45.9113" lon="6.80639">
        <ele>1765</ele>
        <time>2000-01-01T03:05:25.000Z</time>
      </trkpt>
      <trkpt lat="45.91109" lon="6.8069">
        <ele>1763</ele>
        <time>2000-01-01T03:05:35.000Z</time>
      </trkpt>
      <trkpt lat="45.91087" lon="6.8074">
        <ele>1761</ele>
        <time>2000-01-01T03:05:45.000Z</time>
      </trkpt>
      <trkpt lat="45.9105" lon="6.80828">
        <ele>1761</ele>
        <time>2000-01-01T03:05:55.000Z</time>
      </trkpt>
      <trkpt lat="45.91041" lon="6.80867">
        <ele>1759</ele>
        <time>2000-01-01T03:06:05.000Z</time>
      </trkpt>
      <trkpt lat="45.91026" lon="6.8093">
        <ele>1757</ele>
        <time>2000-01-01T03:06:15.000Z</time>
      </trkpt>
      <trkpt lat="45.91035" lon="6.80963">
        <ele>1754</ele>
        <time>2000-01-01T03:06:25.000Z</time>
      </trkpt>
      <trkpt lat="45.91046" lon="6.81">
        <ele>1748</ele>
        <time>2000-01-01T03:06:35.000Z</time>
      </trkpt>
      <trkpt lat="45.91044" lon="6.81049">
        <ele>1745</ele>
        <time>2000-01-01T03:06:45.000Z</time>
      </trkpt>
      <trkpt lat="45.9103" lon="6.81079">
        <ele>1723</ele>
        <time>2000-01-01T03:06:55.000Z</time>
      </trkpt>
      <trkpt lat="45.91015" lon="6.81113">
        <ele>1708</ele>
        <time>2000-01-01T03:07:05.000Z</time>
      </trkpt>
      <trkpt lat="45.91011" lon="6.81163">
        <ele>1694</ele>
        <time>2000-01-01T03:07:15.000Z</time>
      </trkpt>
      <trkpt lat="45.91007" lon="6.81213">
        <ele>1690</ele>
        <time>2000-01-01T03:07:25.000Z</time>
      </trkpt>
      <trkpt lat="45.91003" lon="6.81264">
        <ele>1689</ele>
        <time>2000-01-01T03:07:35.000Z</time>
      </trkpt>
      <trkpt lat="45.90999" lon="6.81314">
        <ele>1685</ele>
        <time>2000-01-01T03:07:45.000Z</time>
      </trkpt>
      <trkpt lat="45.90983" lon="6.81362">
        <ele>1674</ele>
        <time>2000-01-01T03:07:55.000Z</time>
      </trkpt>
      <trkpt lat="45.90968" lon="6.8141">
        <ele>1664</ele>
        <time>2000-01-01T03:08:05.000Z</time>
      </trkpt>
      <trkpt lat="45.90952" lon="6.81458">
        <ele>1639</ele>
        <time>2000-01-01T03:08:15.000Z</time>
      </trkpt>
      <trkpt lat="45.90925" lon="6.81541">
        <ele>1613</ele>
        <time>2000-01-01T03:08:25.000Z</time>
      </trkpt>
      <trkpt lat="45.90923" lon="6.81577">
        <ele>1605</ele>
        <time>2000-01-01T03:08:35.000Z</time>
      </trkpt>
      <trkpt lat="45.9092" lon="6.81617">
        <ele>1595</ele>
        <time>2000-01-01T03:08:45.000Z</time>
      </trkpt>
      <trkpt lat="45.90901" lon="6.81583">
        <ele>1578</ele>
        <time>2000-01-01T03:08:55.000Z</time>
      </trkpt>
      <trkpt lat="45.90868" lon="6.81523">
        <ele>1578</ele>
        <time>2000-01-01T03:09:05.000Z</time>
      </trkpt>
      <trkpt lat="45.90853" lon="6.81537">
        <ele>1577.7</ele>
        <time>2000-01-01T03:09:15.000Z</time>
      </trkpt>
      <trkpt lat="45.90823" lon="6.8149">
        <ele>1565</ele>
        <time>2000-01-01T03:09:25.000Z</time>
      </trkpt>
      <trkpt lat="45.90813" lon="6.81455">
        <ele>1539</ele>
        <time>2000-01-01T03:09:35.000Z</time>
      </trkpt>
      <trkpt lat="45.90801" lon="6.81409">
        <ele>1535</ele>
        <time>2000-01-01T03:09:45.000Z</time>
      </trkpt>
      <trkpt lat="45.90773" lon="6.81395">
        <ele>1501</ele>
        <time>2000-01-01T03:09:55.000Z</time>
      </trkpt>
      <trkpt lat="45.90773" lon="6.81416">
        <ele>1531</ele>
        <time>2000-01-01T03:10:05.000Z</time>
      </trkpt>
      <trkpt lat="45.90742" lon="6.81373">
        <ele>1490</ele>
        <time>2000-01-01T03:10:15.000Z</time>
      </trkpt>
      <trkpt lat="45.90739" lon="6.81335">
        <ele>1489</ele>
        <time>2000-01-01T03:10:25.000Z</time>
      </trkpt>
      <trkpt lat="45.90736" lon="6.81284">
        <ele>1489</ele>
        <time>2000-01-01T03:10:35.000Z</time>
      </trkpt>
      <trkpt lat="45.9071" lon="6.81255">
        <ele>1486</ele>
        <time>2000-01-01T03:10:45.000Z</time>
      </trkpt>
      <trkpt lat="45.90705" lon="6.81212">
        <ele>1483</ele>
        <time>2000-01-01T03:10:55.000Z</time>
      </trkpt>
      <trkpt lat="45.90696" lon="6.81135">
        <ele>1483</ele>
        <time>2000-01-01T03:11:05.000Z</time>
      </trkpt>
      <trkpt lat="45.90689" lon="6.81189">
        <ele>1462</ele>
        <time>2000-01-01T03:11:15.000Z</time>
      </trkpt>
      <trkpt lat="45.90681" lon="6.81243">
        <ele>1453</ele>
        <time>2000-01-01T03:11:25.000Z</time>
      </trkpt>
      <trkpt lat="45.90674" lon="6.81297">
        <ele>1453</ele>
        <time>2000-01-01T03:11:35.000Z</time>
      </trkpt>
      <trkpt lat="45.90667" lon="6.81351">
        <ele>1444</ele>
        <time>2000-01-01T03:11:45.000Z</time>
      </trkpt>
      <trkpt lat="45.90656" lon="6.81432">
        <ele>1434</ele>
        <time>2000-01-01T03:11:55.000Z</time>
      </trkpt>
      <trkpt lat="45.90643" lon="6.8139">
        <ele>1434</ele>
        <time>2000-01-01T03:12:05.000Z</time>
      </trkpt>
      <trkpt lat="45.9063" lon="6.81349">
        <ele>1429</ele>
        <time>2000-01-01T03:12:15.000Z</time>
      </trkpt>
      <trkpt lat="45.90615" lon="6.81302">
        <ele>1425</ele>
        <time>2000-01-01T03:12:25.000Z</time>
      </trkpt>
      <trkpt lat="45.90607" lon="6.81292">
        <ele>1420.4</ele>
        <time>2000-01-01T03:12:35.000Z</time>
      </trkpt>
      <trkpt lat="45.90607" lon="6.8132">
        <ele>1420</ele>
        <time>2000-01-01T03:12:45.000Z</time>
      </trkpt>
      <trkpt lat="45.90592" lon="6.81285">
        <ele>1403</ele>
        <time>2000-01-01T03:12:55.000Z</time>
      </trkpt>
      <trkpt lat="45.90567" lon="6.81228">
        <ele>1394</ele>
        <time>2000-01-01T03:13:05.000Z</time>
      </trkpt>
      <trkpt lat="45.9056" lon="6.81174">
        <ele>1386</ele>
        <time>2000-01-01T03:13:15.000Z</time>
      </trkpt>
      <trkpt lat="45.90553" lon="6.81121">
        <ele>1383</ele>
        <time>2000-01-01T03:13:25.000Z</time>
      </trkpt>
      <trkpt lat="45.90546" lon="6.81067">
        <ele>1378</ele>
        <time>2000-01-01T03:13:35.000Z</time>
      </trkpt>
      <trkpt lat="45.90539" lon="6.81014">
        <ele>1374</ele>
        <time>2000-01-01T03:13:45.000Z</time>
      </trkpt>
      <trkpt lat="45.90531" lon="6.80949">
        <ele>1370</ele>
        <time>2000-01-01T03:13:55.000Z</time>
      </trkpt>
      <trkpt lat="45.90514" lon="6.80988">
        <ele>1343</ele>
        <time>2000-01-01T03:14:05.000Z</time>
      </trkpt>
      <trkpt lat="45.90498" lon="6.80939">
        <ele>1338</ele>
        <time>2000-01-01T03:14:15.000Z</time>
      </trkpt>
      <trkpt lat="45.90482" lon="6.80891">
        <ele>1332</ele>
        <time>2000-01-01T03:14:25.000Z</time>
      </trkpt>
      <trkpt lat="45.90466" lon="6.80842">
        <ele>1327</ele>
        <time>2000-01-01T03:14:35.000Z</time>
      </trkpt>
      <trkpt lat="45.90435" lon="6.80746">
        <ele>1309</ele>
        <time>2000-01-01T03:14:45.000Z</time>
      </trkpt>
      <trkpt lat="45.90429" lon="6.80796">
        <ele>1305</ele>
        <time>2000-01-01T03:14:55.000Z</time>
      </trkpt>
      <trkpt lat="45.90423" lon="6.80847">
        <ele>1295</ele>
        <time>2000-01-01T03:15:05.000Z</time>
      </trkpt>
      <trkpt lat="45.90418" lon="6.80897">
        <ele>1291</ele>
        <time>2000-01-01T03:15:15.000Z</time>
      </trkpt>
      <trkpt lat="45.90411" lon="6.80954">
        <ele>1278</ele>
        <time>2000-01-01T03:15:25.000Z</time>
      </trkpt>
      <trkpt lat="45.90402" lon="6.80985">
        <ele>1253</ele>
        <time>2000-01-01T03:15:35.000Z</time>
      </trkpt>
      <trkpt lat="45.90392" lon="6.80972">
        <ele>1260.8</ele>
        <time>2000-01-01T03:15:45.000Z</time>
      </trkpt>
      <trkpt lat="45.90387" lon="6.8099">
        <ele>1253</ele>
        <time>2000-01-01T03:15:55.000Z</time>
      </trkpt>
      <trkpt lat="45.90368" lon="6.80949">
        <ele>1238</ele>
        <time>2000-01-01T03:16:05.000Z</time>
      </trkpt>
      <trkpt lat="45.9035" lon="6.80908">
        <ele>1226</ele>
        <time>2000-01-01T03:16:15.000Z</time>
      </trkpt>
      <trkpt lat="45.90319" lon="6.80841">
        <ele>1215</ele>
        <time>2000-01-01T03:16:25.000Z</time>
      </trkpt>
      <trkpt lat="45.90314" lon="6.80881">
        <ele>1204</ele>
        <time>2000-01-01T03:16:35.000Z</time>
      </trkpt>
      <trkpt lat="45.90307" lon="6.80944">
        <ele>1194</ele>
        <time>2000-01-01T03:16:45.000Z</time>
      </trkpt>
      <trkpt lat="45.90275" lon="6.80906">
        <ele>1175</ele>
        <time>2000-01-01T03:16:55.000Z</time>
      </trkpt>
      <trkpt lat="45.90265" lon="6.80868">
        <ele>1148</ele>
        <time>2000-01-01T03:17:05.000Z</time>
      </trkpt>
      <trkpt lat="45.90251" lon="6.80812">
        <ele>1144</ele>
        <time>2000-01-01T03:17:15.000Z</time>
      </trkpt>
      <trkpt lat="45.90246" lon="6.80764">
        <ele>1142</ele>
        <time>2000-01-01T03:17:25.000Z</time>
      </trkpt>
      <trkpt lat="45.90241" lon="6.80716">
        <ele>1140</ele>
        <time>2000-01-01T03:17:35.000Z</time>
      </trkpt>
      <trkpt lat="45.90233" lon="6.8064">
        <ele>1136</ele>
        <time>2000-01-01T03:17:45.000Z</time>
      </trkpt>
      <trkpt lat="45.90211" lon="6.80595">
        <ele>1133</ele>
        <time>2000-01-01T03:17:55.000Z</time>
      </trkpt>
      <trkpt lat="45.90189" lon="6.80549">
        <ele>1119</ele>
        <time>2000-01-01T03:18:05.000Z</time>
      </trkpt>
      <trkpt lat="45.90167" lon="6.80504">
        <ele>1113</ele>
        <time>2000-01-01T03:18:15.000Z</time>
      </trkpt>
      <trkpt lat="45.90145" lon="6.80459">
        <ele>1107</ele>
        <time>2000-01-01T03:18:25.000Z</time>
      </trkpt>
      <trkpt lat="45.90112" lon="6.8039">
        <ele>1082</ele>
        <time>2000-01-01T03:18:35.000Z</time>
      </trkpt>
      <trkpt lat="45.90095" lon="6.80421">
        <ele>1068</ele>
        <time>2000-01-01T03:18:45.000Z</time>
      </trkpt>
      <trkpt lat="45.90069" lon="6.80468">
        <ele>1055</ele>
        <time>2000-01-01T03:18:55.000Z</time>
      </trkpt>
      <trkpt lat="45.90029" lon="6.80451">
        <ele>1054</ele>
        <time>2000-01-01T03:19:05.000Z</time>
      </trkpt>
      <trkpt lat="45.90008" lon="6.80428">
        <ele>1040</ele>
        <time>2000-01-01T03:19:15.000Z</time>
      </trkpt>
      <trkpt lat="45.89981" lon="6.80398">
        <ele>1030</ele>
        <time>2000-01-01T03:19:25.000Z</time>
      </trkpt>
      <trkpt lat="45.89987" lon="6.80448">
        <ele>1026</ele>
        <time>2000-01-01T03:19:35.000Z</time>
      </trkpt>
      <trkpt lat="45.89963" lon="6.80433">
        <ele>1023</ele>
        <time>2000-01-01T03:19:45.000Z</time>
      </trkpt>
      <trkpt lat="45.89933" lon="6.80415">
        <ele>1017</ele>
        <time>2000-01-01T03:19:55.000Z</time>
      </trkpt>
      <trkpt lat="45.89923" lon="6.80384">
        <ele>1011</ele>
        <time>2000-01-01T03:20:05.000Z</time>
      </trkpt>
      <trkpt lat="45.89899" lon="6.80371">
        <ele>1011</ele>
        <time>2000-01-01T03:20:15.000Z</time>
      </trkpt>
      <trkpt lat="45.89872" lon="6.80355">
        <ele>1010</ele>
        <time>2000-01-01T03:20:25.000Z</time>
      </trkpt>
      <trkpt lat="45.89845" lon="6.80325">
        <ele>1010</ele>
        <time>2000-01-01T03:20:35.000Z</time>
      </trkpt>
      <trkpt lat="45.89819" lon="6.80296">
        <ele>1008</ele>
        <time>2000-01-01T03:20:45.000Z</time>
      </trkpt>
      <trkpt lat="45.89778" lon="6.8025">
        <ele>1007</ele>
        <time>2000-01-01T03:20:55.000Z</time>
      </trkpt>
      <trkpt lat="45.89772" lon="6.80205">
        <ele>1005</ele>
        <time>2000-01-01T03:21:05.000Z</time>
      </trkpt>
      <trkpt lat="45.89765" lon="6.8016">
        <ele>1003</ele>
        <time>2000-01-01T03:21:15.000Z</time>
      </trkpt>
      <trkpt lat="45.89758" lon="6.80108">
        <ele>1003</ele>
        <time>2000-01-01T03:21:25.000Z</time>
      </trkpt>
      <trkpt lat="45.89743" lon="6.80075">
        <ele>1003</ele>
        <time>2000-01-01T03:21:35.000Z</time>
      </trkpt>
      <trkpt lat="45.89723" lon="6.80031">
        <ele>1003</ele>
        <time>2000-01-01T03:21:45.000Z</time>
      </trkpt>
      <trkpt lat="45.8969" lon="6.80013">
        <ele>1001</ele>
        <time>2000-01-01T03:21:55.000Z</time>
      </trkpt>
      <trkpt lat="45.89657" lon="6.79995">
        <ele>1003</ele>
        <time>2000-01-01T03:22:05.000Z</time>
      </trkpt>
      <trkpt lat="45.89624" lon="6.79978">
        <ele>1005</ele>
        <time>2000-01-01T03:22:15.000Z</time>
      </trkpt>
      <trkpt lat="45.89589" lon="6.79959">
        <ele>1007</ele>
        <time>2000-01-01T03:22:25.000Z</time>
      </trkpt>
      <trkpt lat="45.8956" lon="6.79938">
        <ele>1003</ele>
        <time>2000-01-01T03:22:35.000Z</time>
      </trkpt>
      <trkpt lat="45.89532" lon="6.79917">
        <ele>1000</ele>
        <time>2000-01-01T03:22:45.000Z</time>
      </trkpt>
      <trkpt lat="45.89498" lon="6.79892">
        <ele>996</ele>
        <time>2000-01-01T03:22:55.000Z</time>
      </trkpt>
      <trkpt lat="45.89454" lon="6.79893">
        <ele>987</ele>
        <time>2000-01-01T03:23:05.000Z</time>
      </trkpt>
      <trkpt lat="45.89434" lon="6.79858">
        <ele>981</ele>
        <time>2000-01-01T03:23:15.000Z</time>
      </trkpt>
      <trkpt lat="45.89395" lon="6.7979">
        <ele>981</ele>
        <time>2000-01-01T03:23:25.000Z</time>
      </trkpt>
      <trkpt lat="45.89388" lon="6.79831">
        <ele>978</ele>
        <time>2000-01-01T03:23:35.000Z</time>
      </trkpt>
      <trkpt lat="45.89375" lon="6.79903">
        <ele>978</ele>
        <time>2000-01-01T03:23:45.000Z</time>
      </trkpt>
      <trkpt lat="45.89355" lon="6.79932">
        <ele>979</ele>
        <time>2000-01-01T03:23:55.000Z</time>
      </trkpt>
      <trkpt lat="45.89323" lon="6.79979">
        <ele>982</ele>
        <time>2000-01-01T03:24:05.000Z</time>
      </trkpt>
      <trkpt lat="45.89301" lon="6.79957">
        <ele>985</ele>
        <time>2000-01-01T03:24:15.000Z</time>
      </trkpt>
      <trkpt lat="45.89274" lon="6.79929">
        <ele>986</ele>
        <time>2000-01-01T03:24:25.000Z</time>
      </trkpt>
      <trkpt lat="45.8925" lon="6.79944">
        <ele>994</ele>
        <time>2000-01-01T03:24:35.000Z</time>
      </trkpt>
      <trkpt lat="45.89254" lon="6.79963">
        <ele>1000.2</ele>
        <time>2000-01-01T03:24:45.000Z</time>
      </trkpt>
      <trkpt lat="45.89234" lon="6.79982">
        <ele>997</ele>
        <time>2000-01-01T03:24:55.000Z</time>
      </trkpt>
      <trkpt lat="45.89211" lon="6.79955">
        <ele>997</ele>
        <time>2000-01-01T03:25:05.000Z</time>
      </trkpt>
      <trkpt lat="45.89172" lon="6.79909">
        <ele>998</ele>
        <time>2000-01-01T03:25:15.000Z</time>
      </trkpt>
      <trkpt lat="45.89138" lon="6.79899">
        <ele>1005</ele>
        <time>2000-01-01T03:25:25.000Z</time>
      </trkpt>
      <trkpt lat="45.89103" lon="6.79889">
        <ele>1006</ele>
        <time>2000-01-01T03:25:35.000Z</time>
      </trkpt>
      <trkpt lat="45.89035" lon="6.79869">
        <ele>1011</ele>
        <time>2000-01-01T03:25:45.000Z</time>
      </trkpt>
      <trkpt lat="45.89017" lon="6.79839">
        <ele>1012</ele>
        <time>2000-01-01T03:25:55.000Z</time>
      </trkpt>
      <trkpt lat="45.88991" lon="6.79795">
        <ele>1013</ele>
        <time>2000-01-01T03:26:05.000Z</time>
      </trkpt>
      <trkpt lat="45.88977" lon="6.79799">
        <ele>1009.1</ele>
        <time>2000-01-01T03:26:15.000Z</time>
      </trkpt>
      <trkpt lat="45.88936" lon="6.7984">
        <ele>1022</ele>
        <time>2000-01-01T03:26:25.000Z</time>
      </trkpt>
      <trkpt lat="45.88944" lon="6.79882">
        <ele>1022</ele>
        <time>2000-01-01T03:26:35.000Z</time>
      </trkpt>
      <trkpt lat="45.88958" lon="6.79957">
        <ele>1025</ele>
        <time>2000-01-01T03:26:45.000Z</time>
      </trkpt>
      <trkpt lat="45.88936" lon="6.79935">
        <ele>1030</ele>
        <time>2000-01-01T03:26:55.000Z</time>
      </trkpt>
      <trkpt lat="45.88908" lon="6.79906">
        <ele>1035</ele>
        <time>2000-01-01T03:27:05.000Z</time>
      </trkpt>
      <trkpt lat="45.88885" lon="6.79953">
        <ele>1037</ele>
        <time>2000-01-01T03:27:15.000Z</time>
      </trkpt>
      <trkpt lat="45.88862" lon="6.8">
        <ele>1040</ele>
        <time>2000-01-01T03:27:25.000Z</time>
      </trkpt>
      <trkpt lat="45.88839" lon="6.80046">
        <ele>1043</ele>
        <time>2000-01-01T03:27:35.000Z</time>
      </trkpt>
      <trkpt lat="45.88816" lon="6.80093">
        <ele>1049</ele>
        <time>2000-01-01T03:27:45.000Z</time>
      </trkpt>
      <trkpt lat="45.88793" lon="6.8014">
        <ele>1055</ele>
        <time>2000-01-01T03:27:55.000Z</time>
      </trkpt>
      <trkpt lat="45.88753" lon="6.80221">
        <ele>1069</ele>
        <time>2000-01-01T03:28:05.000Z</time>
      </trkpt>
      <trkpt lat="45.88741" lon="6.80265">
        <ele>1077</ele>
        <time>2000-01-01T03:28:15.000Z</time>
      </trkpt>
      <trkpt lat="45.88728" lon="6.80308">
        <ele>1098</ele>
        <time>2000-01-01T03:28:25.000Z</time>
      </trkpt>
      <trkpt lat="45.88712" lon="6.80366">
        <ele>1098</ele>
        <time>2000-01-01T03:28:35.000Z</time>
      </trkpt>
      <trkpt lat="45.8869" lon="6.80405">
        <ele>1098</ele>
        <time>2000-01-01T03:28:45.000Z</time>
      </trkpt>
      <trkpt lat="45.88668" lon="6.80444">
        <ele>1098</ele>
        <time>2000-01-01T03:28:55.000Z</time>
      </trkpt>
      <trkpt lat="45.88625" lon="6.8052">
        <ele>1117</ele>
        <time>2000-01-01T03:29:05.000Z</time>
      </trkpt>
      <trkpt lat="45.88608" lon="6.80572">
        <ele>1124</ele>
        <time>2000-01-01T03:29:15.000Z</time>
      </trkpt>
      <trkpt lat="45.88591" lon="6.80623">
        <ele>1128</ele>
        <time>2000-01-01T03:29:25.000Z</time>
      </trkpt>
      <trkpt lat="45.88574" lon="6.80675">
        <ele>1143</ele>
        <time>2000-01-01T03:29:35.000Z</time>
      </trkpt>
      <trkpt lat="45.88556" lon="6.80727">
        <ele>1148</ele>
        <time>2000-01-01T03:29:45.000Z</time>
      </trkpt>
      <trkpt lat="45.88539" lon="6.80779">
        <ele>1164</ele>
        <time>2000-01-01T03:29:55.000Z</time>
      </trkpt>
      <trkpt lat="45.8851" lon="6.80867">
        <ele>1189</ele>
        <time>2000-01-01T03:30:05.000Z</time>
      </trkpt>
      <trkpt lat="45.88486" lon="6.80844">
        <ele>1193</ele>
        <time>2000-01-01T03:30:15.000Z</time>
      </trkpt>
      <trkpt lat="45.88447" lon="6.80808">
        <ele>1199</ele>
        <time>2000-01-01T03:30:25.000Z</time>
      </trkpt>
      <trkpt lat="45.88418" lon="6.80804">
        <ele>1207</ele>
        <time>2000-01-01T03:30:35.000Z</time>
      </trkpt>
      <trkpt lat="45.88372" lon="6.80798">
        <ele>1231</ele>
        <time>2000-01-01T03:30:45.000Z</time>
      </trkpt>
      <trkpt lat="45.8834" lon="6.80817">
        <ele>1235</ele>
        <time>2000-01-01T03:30:55.000Z</time>
      </trkpt>
      <trkpt lat="45.88307" lon="6.80836">
        <ele>1240</ele>
        <time>2000-01-01T03:31:05.000Z</time>
      </trkpt>
      <trkpt lat="45.88247" lon="6.80871">
        <ele>1253</ele>
        <time>2000-01-01T03:31:15.000Z</time>
      </trkpt>
      <trkpt lat="45.88233" lon="6.80914">
        <ele>1253</ele>
        <time>2000-01-01T03:31:25.000Z</time>
      </trkpt>
      <trkpt lat="45.88219" lon="6.80956">
        <ele>1254</ele>
        <time>2000-01-01T03:31:35.000Z</time>
      </trkpt>
      <trkpt lat="45.88201" lon="6.81013">
        <ele>1273</ele>
        <time>2000-01-01T03:31:45.000Z</time>
      </trkpt>
      <trkpt lat="45.88168" lon="6.81013">
        <ele>1289</ele>
        <time>2000-01-01T03:31:55.000Z</time>
      </trkpt>
      <trkpt lat="45.88136" lon="6.81013">
        <ele>1302</ele>
        <time>2000-01-01T03:32:05.000Z</time>
      </trkpt>
      <trkpt lat="45.88094" lon="6.81013">
        <ele>1316</ele>
        <time>2000-01-01T03:32:15.000Z</time>
      </trkpt>
      <trkpt lat="45.88064" lon="6.81001">
        <ele>1324</ele>
        <time>2000-01-01T03:32:25.000Z</time>
      </trkpt>
      <trkpt lat="45.88004" lon="6.80977">
        <ele>1345</ele>
        <time>2000-01-01T03:32:35.000Z</time>
      </trkpt>
      <trkpt lat="45.87995" lon="6.80949">
        <ele>1352</ele>
        <time>2000-01-01T03:32:45.000Z</time>
      </trkpt>
      <trkpt lat="45.88018" lon="6.80956">
        <ele>1352</ele>
        <time>2000-01-01T03:32:55.000Z</time>
      </trkpt>
      <trkpt lat="45.87996" lon="6.80924">
        <ele>1360</ele>
        <time>2000-01-01T03:33:05.000Z</time>
      </trkpt>
      <trkpt lat="45.88021" lon="6.8093">
        <ele>1361</ele>
        <time>2000-01-01T03:33:15.000Z</time>
      </trkpt>
      <trkpt lat="45.88049" lon="6.80936">
        <ele>1361</ele>
        <time>2000-01-01T03:33:25.000Z</time>
      </trkpt>
      <trkpt lat="45.88021" lon="6.809">
        <ele>1378</ele>
        <time>2000-01-01T03:33:35.000Z</time>
      </trkpt>
      <trkpt lat="45.87993" lon="6.80865">
        <ele>1385</ele>
        <time>2000-01-01T03:33:45.000Z</time>
      </trkpt>
      <trkpt lat="45.87965" lon="6.80829">
        <ele>1392</ele>
        <time>2000-01-01T03:33:55.000Z</time>
      </trkpt>
      <trkpt lat="45.87912" lon="6.80762">
        <ele>1430</ele>
        <time>2000-01-01T03:34:05.000Z</time>
      </trkpt>
      <trkpt lat="45.87957" lon="6.80759">
        <ele>1436</ele>
        <time>2000-01-01T03:34:15.000Z</time>
      </trkpt>
      <trkpt lat="45.87982" lon="6.80773">
        <ele>1442</ele>
        <time>2000-01-01T03:34:25.000Z</time>
      </trkpt>
      <trkpt lat="45.88014" lon="6.80792">
        <ele>1443</ele>
        <time>2000-01-01T03:34:35.000Z</time>
      </trkpt>
      <trkpt lat="45.87992" lon="6.80762">
        <ele>1450</ele>
        <time>2000-01-01T03:34:45.000Z</time>
      </trkpt>
      <trkpt lat="45.8795" lon="6.80708">
        <ele>1458</ele>
        <time>2000-01-01T03:34:55.000Z</time>
      </trkpt>
      <trkpt lat="45.87981" lon="6.80722">
        <ele>1466</ele>
        <time>2000-01-01T03:35:05.000Z</time>
      </trkpt>
      <trkpt lat="45.87962" lon="6.80701">
        <ele>1470</ele>
        <time>2000-01-01T03:35:15.000Z</time>
      </trkpt>
      <trkpt lat="45.87941" lon="6.80679">
        <ele>1475</ele>
        <time>2000-01-01T03:35:25.000Z</time>
      </trkpt>
      <trkpt lat="45.87968" lon="6.8069">
        <ele>1471</ele>
        <time>2000-01-01T03:35:35.000Z</time>
      </trkpt>
      <trkpt lat="45.88011" lon="6.80707">
        <ele>1472</ele>
        <time>2000-01-01T03:35:45.000Z</time>
      </trkpt>
      <trkpt lat="45.87998" lon="6.80663">
        <ele>1473</ele>
        <time>2000-01-01T03:35:55.000Z</time>
      </trkpt>
      <trkpt lat="45.87982" lon="6.80664">
        <ele>1488.2</ele>
        <time>2000-01-01T03:36:05.000Z</time>
      </trkpt>
      <trkpt lat="45.87987" lon="6.80645">
        <ele>1491</ele>
        <time>2000-01-01T03:36:15.000Z</time>
      </trkpt>
      <trkpt lat="45.8796" lon="6.80621">
        <ele>1508</ele>
        <time>2000-01-01T03:36:25.000Z</time>
      </trkpt>
      <trkpt lat="45.87933" lon="6.80596">
        <ele>1532</ele>
        <time>2000-01-01T03:36:35.000Z</time>
      </trkpt>
      <trkpt lat="45.87902" lon="6.80569">
        <ele>1534</ele>
        <time>2000-01-01T03:36:45.000Z</time>
      </trkpt>
      <trkpt lat="45.87935" lon="6.80567">
        <ele>1534</ele>
        <time>2000-01-01T03:36:55.000Z</time>
      </trkpt>
      <trkpt lat="45.87907" lon="6.80554">
        <ele>1534</ele>
        <time>2000-01-01T03:37:05.000Z</time>
      </trkpt>
      <trkpt lat="45.87918" lon="6.80533">
        <ele>1549.8</ele>
        <time>2000-01-01T03:37:15.000Z</time>
      </trkpt>
      <trkpt lat="45.87895" lon="6.8052">
        <ele>1549</ele>
        <time>2000-01-01T03:37:25.000Z</time>
      </trkpt>
      <trkpt lat="45.87901" lon="6.80487">
        <ele>1565</ele>
        <time>2000-01-01T03:37:35.000Z</time>
      </trkpt>
      <trkpt lat="45.8789" lon="6.80502">
        <ele>1568.6</ele>
        <time>2000-01-01T03:37:45.000Z</time>
      </trkpt>
      <trkpt lat="45.87871" lon="6.80462">
        <ele>1600</ele>
        <time>2000-01-01T03:37:55.000Z</time>
      </trkpt>
      <trkpt lat="45.87871" lon="6.80476">
        <ele>1593.5</ele>
        <time>2000-01-01T03:38:05.000Z</time>
      </trkpt>
      <trkpt lat="45.87856" lon="6.80462">
        <ele>1600</ele>
        <time>2000-01-01T03:38:15.000Z</time>
      </trkpt>
      <trkpt lat="45.87843" lon="6.80505">
        <ele>1609</ele>
        <time>2000-01-01T03:38:25.000Z</time>
      </trkpt>
      <trkpt lat="45.87836" lon="6.80455">
        <ele>1618</ele>
        <time>2000-01-01T03:38:35.000Z</time>
      </trkpt>
      <trkpt lat="45.8781" lon="6.80415">
        <ele>1627</ele>
        <time>2000-01-01T03:38:45.000Z</time>
      </trkpt>
      <trkpt lat="45.87822" lon="6.80427">
        <ele>1638.4</ele>
        <time>2000-01-01T03:38:55.000Z</time>
      </trkpt>
      <trkpt lat="45.87782" lon="6.80393">
        <ele>1639</ele>
        <time>2000-01-01T03:39:05.000Z</time>
      </trkpt>
      <trkpt lat="45.87777" lon="6.80375">
        <ele>1657.7</ele>
        <time>2000-01-01T03:39:15.000Z</time>
      </trkpt>
      <trkpt lat="45.87786" lon="6.8038">
        <ele>1651</ele>
        <time>2000-01-01T03:39:25.000Z</time>
      </trkpt>
      <trkpt lat="45.87791" lon="6.80356">
        <ele>1663.3</ele>
        <time>2000-01-01T03:39:35.000Z</time>
      </trkpt>
      <trkpt lat="45.87736" lon="6.80327">
        <ele>1664</ele>
        <time>2000-01-01T03:39:45.000Z</time>
      </trkpt>
      <trkpt lat="45.87721" lon="6.8029">
        <ele>1669</ele>
        <time>2000-01-01T03:39:55.000Z</time>
      </trkpt>
      <trkpt lat="45.87697" lon="6.80228">
        <ele>1676</ele>
        <time>2000-01-01T03:40:05.000Z</time>
      </trkpt>
      <trkpt lat="45.87676" lon="6.80218">
        <ele>1688</ele>
        <time>2000-01-01T03:40:15.000Z</time>
      </trkpt>
      <trkpt lat="45.87661" lon="6.80176">
        <ele>1695</ele>
        <time>2000-01-01T03:40:25.000Z</time>
      </trkpt>
      <trkpt lat="45.87637" lon="6.8016">
        <ele>1700</ele>
        <time>2000-01-01T03:40:35.000Z</time>
      </trkpt>
      <trkpt lat="45.87607" lon="6.80139">
        <ele>1704</ele>
        <time>2000-01-01T03:40:45.000Z</time>
      </trkpt>
      <trkpt lat="45.87596" lon="6.80105">
        <ele>1720</ele>
        <time>2000-01-01T03:40:55.000Z</time>
      </trkpt>
      <trkpt lat="45.87594" lon="6.8012">
        <ele>1734</ele>
        <time>2000-01-01T03:41:05.000Z</time>
      </trkpt>
      <trkpt lat="45.87577" lon="6.80105">
        <ele>1720</ele>
        <time>2000-01-01T03:41:15.000Z</time>
      </trkpt>
      <trkpt lat="45.87552" lon="6.80114">
        <ele>1729</ele>
        <time>2000-01-01T03:41:25.000Z</time>
      </trkpt>
      <trkpt lat="45.87523" lon="6.80124">
        <ele>1741</ele>
        <time>2000-01-01T03:41:35.000Z</time>
      </trkpt>
      <trkpt lat="45.87492" lon="6.80103">
        <ele>1750</ele>
        <time>2000-01-01T03:41:45.000Z</time>
      </trkpt>
      <trkpt lat="45.87498" lon="6.80067">
        <ele>1758</ele>
        <time>2000-01-01T03:41:55.000Z</time>
      </trkpt>
      <trkpt lat="45.87474" lon="6.80087">
        <ele>1765</ele>
        <time>2000-01-01T03:42:05.000Z</time>
      </trkpt>
      <trkpt lat="45.87437" lon="6.80118">
        <ele>1767</ele>
        <time>2000-01-01T03:42:15.000Z</time>
      </trkpt>
      <trkpt lat="45.87439" lon="6.80136">
        <ele>1772.3</ele>
        <time>2000-01-01T03:42:25.000Z</time>
      </trkpt>
      <trkpt lat="45.87422" lon="6.8013">
        <ele>1770</ele>
        <time>2000-01-01T03:42:35.000Z</time>
      </trkpt>
      <trkpt lat="45.87409" lon="6.80101">
        <ele>1786</ele>
        <time>2000-01-01T03:42:45.000Z</time>
      </trkpt>
      <trkpt lat="45.87395" lon="6.80072">
        <ele>1797</ele>
        <time>2000-01-01T03:42:55.000Z</time>
      </trkpt>
      <trkpt lat="45.87393" lon="6.80095">
        <ele>1801.3</ele>
        <time>2000-01-01T03:43:05.000Z</time>
      </trkpt>
      <trkpt lat="45.87269" lon="6.79927">
        <ele>1880</ele>
        <time>2000-01-01T03:43:15.000Z</time>
      </trkpt>
      <trkpt lat="45.87262" lon="6.79882">
        <ele>1885</ele>
        <time>2000-01-01T03:43:25.000Z</time>
      </trkpt>
      <trkpt lat="45.87254" lon="6.79837">
        <ele>1894</ele>
        <time>2000-01-01T03:43:35.000Z</time>
      </trkpt>
      <trkpt lat="45.87246" lon="6.79786">
        <ele>1902</ele>
        <time>2000-01-01T03:43:45.000Z</time>
      </trkpt>
      <trkpt lat="45.87215" lon="6.79771">
        <ele>1911</ele>
        <time>2000-01-01T03:43:55.000Z</time>
      </trkpt>
      <trkpt lat="45.87185" lon="6.79756">
        <ele>1935</ele>
        <time>2000-01-01T03:44:05.000Z</time>
      </trkpt>
      <trkpt lat="45.87147" lon="6.79737">
        <ele>1940</ele>
        <time>2000-01-01T03:44:15.000Z</time>
      </trkpt>
      <trkpt lat="45.8717" lon="6.79713">
        <ele>1946</ele>
        <time>2000-01-01T03:44:25.000Z</time>
      </trkpt>
      <trkpt lat="45.87204" lon="6.79678">
        <ele>1946</ele>
        <time>2000-01-01T03:44:35.000Z</time>
      </trkpt>
      <trkpt lat="45.87238" lon="6.79678">
        <ele>1947</ele>
        <time>2000-01-01T03:44:45.000Z</time>
      </trkpt>
      <trkpt lat="45.87251" lon="6.79663">
        <ele>1950.4</ele>
        <time>2000-01-01T03:44:55.000Z</time>
      </trkpt>
      <trkpt lat="45.87242" lon="6.79543">
        <ele>1974</ele>
        <time>2000-01-01T03:45:05.000Z</time>
      </trkpt>
      <trkpt lat="45.87259" lon="6.79512">
        <ele>1986</ele>
        <time>2000-01-01T03:45:15.000Z</time>
      </trkpt>
      <trkpt lat="45.87284" lon="6.79466">
        <ele>1988</ele>
        <time>2000-01-01T03:45:25.000Z</time>
      </trkpt>
      <trkpt lat="45.8724" lon="6.79484">
        <ele>1999</ele>
        <time>2000-01-01T03:45:35.000Z</time>
      </trkpt>
      <trkpt lat="45.87224" lon="6.79518">
        <ele>2002</ele>
        <time>2000-01-01T03:45:45.000Z</time>
      </trkpt>
      <trkpt lat="45.872" lon="6.79569">
        <ele>2005</ele>
        <time>2000-01-01T03:45:55.000Z</time>
      </trkpt>
      <trkpt lat="45.87169" lon="6.79581">
        <ele>2015</ele>
        <time>2000-01-01T03:46:05.000Z</time>
      </trkpt>
      <trkpt lat="45.87139" lon="6.79592">
        <ele>2012</ele>
        <time>2000-01-01T03:46:15.000Z</time>
      </trkpt>
      <trkpt lat="45.87106" lon="6.79605">
        <ele>2015</ele>
        <time>2000-01-01T03:46:25.000Z</time>
      </trkpt>
      <trkpt lat="45.87075" lon="6.79578">
        <ele>2014</ele>
        <time>2000-01-01T03:46:35.000Z</time>
      </trkpt>
      <trkpt lat="45.87045" lon="6.7955">
        <ele>2014</ele>
        <time>2000-01-01T03:46:45.000Z</time>
      </trkpt>
      <trkpt lat="45.87014" lon="6.79523">
        <ele>2024</ele>
        <time>2000-01-01T03:46:55.000Z</time>
      </trkpt>
      <trkpt lat="45.86975" lon="6.79488">
        <ele>2041</ele>
        <time>2000-01-01T03:47:05.000Z</time>
      </trkpt>
      <trkpt lat="45.8695" lon="6.79476">
        <ele>2049</ele>
        <time>2000-01-01T03:47:15.000Z</time>
      </trkpt>
      <trkpt lat="45.8692" lon="6.79461">
        <ele>2058</ele>
        <time>2000-01-01T03:47:25.000Z</time>
      </trkpt>
      <trkpt lat="45.86874" lon="6.7946">
        <ele>2061</ele>
        <time>2000-01-01T03:47:35.000Z</time>
      </trkpt>
      <trkpt lat="45.86847" lon="6.7948">
        <ele>2061</ele>
        <time>2000-01-01T03:47:45.000Z</time>
      </trkpt>
      <trkpt lat="45.86834" lon="6.7952">
        <ele>2062</ele>
        <time>2000-01-01T03:47:55.000Z</time>
      </trkpt>
      <trkpt lat="45.86811" lon="6.79594">
        <ele>2068</ele>
        <time>2000-01-01T03:48:05.000Z</time>
      </trkpt>
      <trkpt lat="45.86808" lon="6.79642">
        <ele>2072</ele>
        <time>2000-01-01T03:48:15.000Z</time>
      </trkpt>
      <trkpt lat="45.86805" lon="6.7969">
        <ele>2072</ele>
        <time>2000-01-01T03:48:25.000Z</time>
      </trkpt>
      <trkpt lat="45.86801" lon="6.79764">
        <ele>2072</ele>
        <time>2000-01-01T03:48:35.000Z</time>
      </trkpt>
      <trkpt lat="45.86778" lon="6.79774">
        <ele>2105</ele>
        <time>2000-01-01T03:48:45.000Z</time>
      </trkpt>
      <trkpt lat="45.86755" lon="6.79785">
        <ele>2105</ele>
        <time>2000-01-01T03:48:55.000Z</time>
      </trkpt>
      <trkpt lat="45.86768" lon="6.79807">
        <ele>2111</ele>
        <time>2000-01-01T03:49:05.000Z</time>
      </trkpt>
      <trkpt lat="45.86748" lon="6.79826">
        <ele>2116</ele>
        <time>2000-01-01T03:49:15.000Z</time>
      </trkpt>
      <trkpt lat="45.86727" lon="6.79847">
        <ele>2131</ele>
        <time>2000-01-01T03:49:25.000Z</time>
      </trkpt>
      <trkpt lat="45.86697" lon="6.79864">
        <ele>2150</ele>
        <time>2000-01-01T03:49:35.000Z</time>
      </trkpt>
      <trkpt lat="45.86667" lon="6.7988">
        <ele>2164</ele>
        <time>2000-01-01T03:49:45.000Z</time>
      </trkpt>
      <trkpt lat="45.8663" lon="6.79901">
        <ele>2187</ele>
        <time>2000-01-01T03:49:55.000Z</time>
      </trkpt>
      <trkpt lat="45.8662" lon="6.79937">
        <ele>2199</ele>
        <time>2000-01-01T03:50:05.000Z</time>
      </trkpt>
      <trkpt lat="45.86605" lon="6.79923">
        <ele>2213.3</ele>
        <time>2000-01-01T03:50:15.000Z</time>
      </trkpt>
      <trkpt lat="45.86576" lon="6.79927">
        <ele>2219</ele>
        <time>2000-01-01T03:50:25.000Z</time>
      </trkpt>
      <trkpt lat="45.86584" lon="6.79978">
        <ele>2238</ele>
        <time>2000-01-01T03:50:35.000Z</time>
      </trkpt>
      <trkpt lat="45.86592" lon="6.80028">
        <ele>2237</ele>
        <time>2000-01-01T03:50:45.000Z</time>
      </trkpt>
      <trkpt lat="45.86601" lon="6.80079">
        <ele>2237</ele>
        <time>2000-01-01T03:50:55.000Z</time>
      </trkpt>
      <trkpt lat="45.86612" lon="6.80149">
        <ele>2249</ele>
        <time>2000-01-01T03:51:05.000Z</time>
      </trkpt>
      <trkpt lat="45.86589" lon="6.8013">
        <ele>2260</ele>
        <time>2000-01-01T03:51:15.000Z</time>
      </trkpt>
      <trkpt lat="45.86559" lon="6.80105">
        <ele>2263</ele>
        <time>2000-01-01T03:51:25.000Z</time>
      </trkpt>
      <trkpt lat="45.86584" lon="6.80159">
        <ele>2267</ele>
        <time>2000-01-01T03:51:35.000Z</time>
      </trkpt>
      <trkpt lat="45.86571" lon="6.80223">
        <ele>2289</ele>
        <time>2000-01-01T03:51:45.000Z</time>
      </trkpt>
      <trkpt lat="45.86586" lon="6.80262">
        <ele>2295</ele>
        <time>2000-01-01T03:51:55.000Z</time>
      </trkpt>
      <trkpt lat="45.86616" lon="6.80338">
        <ele>2305</ele>
        <time>2000-01-01T03:52:05.000Z</time>
      </trkpt>
      <trkpt lat="45.86623" lon="6.80381">
        <ele>2317</ele>
        <time>2000-01-01T03:52:15.000Z</time>
      </trkpt>
      <trkpt lat="45.86635" lon="6.8046">
        <ele>2321</ele>
        <time>2000-01-01T03:52:25.000Z</time>
      </trkpt>
      <trkpt lat="45.86664" lon="6.80476">
        <ele>2321</ele>
        <time>2000-01-01T03:52:35.000Z</time>
      </trkpt>
      <trkpt lat="45.8672" lon="6.80506">
        <ele>2328</ele>
        <time>2000-01-01T03:52:45.000Z</time>
      </trkpt>
      <trkpt lat="45.86694" lon="6.80516">
        <ele>2333</ele>
        <time>2000-01-01T03:52:55.000Z</time>
      </trkpt>
      <trkpt lat="45.86661" lon="6.8053">
        <ele>2352</ele>
        <time>2000-01-01T03:53:05.000Z</time>
      </trkpt>
      <trkpt lat="45.8669" lon="6.8053">
        <ele>2352</ele>
        <time>2000-01-01T03:53:15.000Z</time>
      </trkpt>
      <trkpt lat="45.86736" lon="6.80531">
        <ele>2363</ele>
        <time>2000-01-01T03:53:25.000Z</time>
      </trkpt>
      <trkpt lat="45.86702" lon="6.8055">
        <ele>2359</ele>
        <time>2000-01-01T03:53:35.000Z</time>
      </trkpt>
      <trkpt lat="45.86729" lon="6.80564">
        <ele>2371</ele>
        <time>2000-01-01T03:53:45.000Z</time>
      </trkpt>
      <trkpt lat="45.86717" lon="6.80571">
        <ele>2381</ele>
        <time>2000-01-01T03:53:55.000Z</time>
      </trkpt>
      <trkpt lat="45.86716" lon="6.80606">
        <ele>2384</ele>
        <time>2000-01-01T03:54:05.000Z</time>
      </trkpt>
      <trkpt lat="45.86704" lon="6.80594">
        <ele>2400.3</ele>
        <time>2000-01-01T03:54:15.000Z</time>
      </trkpt>
      <trkpt lat="45.86704" lon="6.80614">
        <ele>2402</ele>
        <time>2000-01-01T03:54:25.000Z</time>
      </trkpt>
      <trkpt lat="45.86694" lon="6.80596">
        <ele>2408.6</ele>
        <time>2000-01-01T03:54:35.000Z</time>
      </trkpt>
      <trkpt lat="45.86695" lon="6.80633">
        <ele>2417</ele>
        <time>2000-01-01T03:54:45.000Z</time>
      </trkpt>
      <trkpt lat="45.86689" lon="6.80614">
        <ele>2420</ele>
        <time>2000-01-01T03:54:55.000Z</time>
      </trkpt>
      <trkpt lat="45.86683" lon="6.80639">
        <ele>2419</ele>
        <time>2000-01-01T03:55:05.000Z</time>
      </trkpt>
      <trkpt lat="45.86672" lon="6.80616">
        <ele>2421</ele>
        <time>2000-01-01T03:55:15.000Z</time>
      </trkpt>
      <trkpt lat="45.86666" lon="6.80648">
        <ele>2440</ele>
        <time>2000-01-01T03:55:25.000Z</time>
      </trkpt>
      <trkpt lat="45.86657" lon="6.80631">
        <ele>2445.3</ele>
        <time>2000-01-01T03:55:35.000Z</time>
      </trkpt>
      <trkpt lat="45.86638" lon="6.80666">
        <ele>2457</ele>
        <time>2000-01-01T03:55:45.000Z</time>
      </trkpt>
      <trkpt lat="45.86635" lon="6.80647">
        <ele>2461.5</ele>
        <time>2000-01-01T03:55:55.000Z</time>
      </trkpt>
      <trkpt lat="45.86582" lon="6.80611">
        <ele>2463</ele>
        <time>2000-01-01T03:56:05.000Z</time>
      </trkpt>
      <trkpt lat="45.86594" lon="6.80655">
        <ele>2468</ele>
        <time>2000-01-01T03:56:15.000Z</time>
      </trkpt>
      <trkpt lat="45.86607" lon="6.80699">
        <ele>2473</ele>
        <time>2000-01-01T03:56:25.000Z</time>
      </trkpt>
      <trkpt lat="45.86624" lon="6.8076">
        <ele>2483</ele>
        <time>2000-01-01T03:56:35.000Z</time>
      </trkpt>
      <trkpt lat="45.86607" lon="6.80815">
        <ele>2483</ele>
        <time>2000-01-01T03:56:45.000Z</time>
      </trkpt>
      <trkpt lat="45.86645" lon="6.8084">
        <ele>2485</ele>
        <time>2000-01-01T03:56:55.000Z</time>
      </trkpt>
      <trkpt lat="45.86654" lon="6.80864">
        <ele>2486</ele>
        <time>2000-01-01T03:57:05.000Z</time>
      </trkpt>
      <trkpt lat="45.86661" lon="6.80917">
        <ele>2487</ele>
        <time>2000-01-01T03:57:15.000Z</time>
      </trkpt>
      <trkpt lat="45.86637" lon="6.80959">
        <ele>2508</ele>
        <time>2000-01-01T03:57:25.000Z</time>
      </trkpt>
      <trkpt lat="45.86639" lon="6.80997">
        <ele>2514</ele>
        <time>2000-01-01T03:57:35.000Z</time>
      </trkpt>
      <trkpt lat="45.86641" lon="6.81047">
        <ele>2518</ele>
        <time>2000-01-01T03:57:45.000Z</time>
      </trkpt>
      <trkpt lat="45.86625" lon="6.81022">
        <ele>2522</ele>
        <time>2000-01-01T03:57:55.000Z</time>
      </trkpt>
      <trkpt lat="45.8661" lon="6.80996">
        <ele>2526</ele>
        <time>2000-01-01T03:58:05.000Z</time>
      </trkpt>
      <trkpt lat="45.86601" lon="6.81035">
        <ele>2530</ele>
        <time>2000-01-01T03:58:15.000Z</time>
      </trkpt>
      <trkpt lat="45.86588" lon="6.81094">
        <ele>2541</ele>
        <time>2000-01-01T03:58:25.000Z</time>
      </trkpt>
      <trkpt lat="45.86579" lon="6.81082">
        <ele>2560.2</ele>
        <time>2000-01-01T03:58:35.000Z</time>
      </trkpt>
      <trkpt lat="45.86574" lon="6.81143">
        <ele>2550</ele>
        <time>2000-01-01T03:58:45.000Z</time>
      </trkpt>
      <trkpt lat="45.86561" lon="6.81121">
        <ele>2564</ele>
        <time>2000-01-01T03:58:55.000Z</time>
      </trkpt>
      <trkpt lat="45.86559" lon="6.8116">
        <ele>2575</ele>
        <time>2000-01-01T03:59:05.000Z</time>
      </trkpt>
      <trkpt lat="45.86534" lon="6.81162">
        <ele>2600</ele>
        <time>2000-01-01T03:59:15.000Z</time>
      </trkpt>
      <trkpt lat="45.86519" lon="6.81215">
        <ele>2612</ele>
        <time>2000-01-01T03:59:25.000Z</time>
      </trkpt>
      <trkpt lat="45.86496" lon="6.81232">
        <ele>2612</ele>
        <time>2000-01-01T03:59:35.000Z</time>
      </trkpt>
      <trkpt lat="45.86483" lon="6.81222">
        <ele>2616.6</ele>
        <time>2000-01-01T03:59:45.000Z</time>
      </trkpt>
      <trkpt lat="45.86446" lon="6.8115">
        <ele>2668</ele>
        <time>2000-01-01T03:59:55.000Z</time>
      </trkpt>
      <trkpt lat="45.86433" lon="6.81185">
        <ele>2702</ele>
        <time>2000-01-01T04:00:05.000Z</time>
      </trkpt>
      <trkpt lat="45.86414" lon="6.81236">
        <ele>2707</ele>
        <time>2000-01-01T04:00:15.000Z</time>
      </trkpt>
      <trkpt lat="45.8641" lon="6.813">
        <ele>2707</ele>
        <time>2000-01-01T04:00:25.000Z</time>
      </trkpt>
      <trkpt lat="45.86403" lon="6.81287">
        <ele>2687.7</ele>
        <time>2000-01-01T04:00:35.000Z</time>
      </trkpt>
      <trkpt lat="45.86399" lon="6.81301">
        <ele>2732</ele>
        <time>2000-01-01T04:00:45.000Z</time>
      </trkpt>
      <trkpt lat="45.86396" lon="6.81281">
        <ele>2696.8</ele>
        <time>2000-01-01T04:00:55.000Z</time>
      </trkpt>
      <trkpt lat="45.8639" lon="6.81292">
        <ele>2735</ele>
        <time>2000-01-01T04:01:05.000Z</time>
      </trkpt>
      <trkpt lat="45.86388" lon="6.81251">
        <ele>2739</ele>
        <time>2000-01-01T04:01:15.000Z</time>
      </trkpt>
      <trkpt lat="45.86374" lon="6.8129">
        <ele>2754</ele>
        <time>2000-01-01T04:01:25.000Z</time>
      </trkpt>
      <trkpt lat="45.86361" lon="6.81252">
        <ele>2769</ele>
        <time>2000-01-01T04:01:35.000Z</time>
      </trkpt>
      <trkpt lat="45.86361" lon="6.81214">
        <ele>2774</ele>
        <time>2000-01-01T04:01:45.000Z</time>
      </trkpt>
      <trkpt lat="45.86361" lon="6.81166">
        <ele>2775</ele>
        <time>2000-01-01T04:01:55.000Z</time>
      </trkpt>
      <trkpt lat="45.86372" lon="6.81148">
        <ele>2742.3</ele>
        <time>2000-01-01T04:02:05.000Z</time>
      </trkpt>
      <trkpt lat="45.86348" lon="6.8114">
        <ele>2774</ele>
        <time>2000-01-01T04:02:15.000Z</time>
      </trkpt>
      <trkpt lat="45.8635" lon="6.81118">
        <ele>2768.8</ele>
        <time>2000-01-01T04:02:25.000Z</time>
      </trkpt>
      <trkpt lat="45.86322" lon="6.81129">
        <ele>2774</ele>
        <time>2000-01-01T04:02:35.000Z</time>
      </trkpt>
      <trkpt lat="45.86316" lon="6.81088">
        <ele>2771</ele>
        <time>2000-01-01T04:02:45.000Z</time>
      </trkpt>
      <trkpt lat="45.86315" lon="6.81044">
        <ele>2766</ele>
        <time>2000-01-01T04:02:55.000Z</time>
      </trkpt>
      <trkpt lat="45.86314" lon="6.80958">
        <ele>2762</ele>
        <time>2000-01-01T04:03:05.000Z</time>
      </trkpt>
      <trkpt lat="45.86332" lon="6.80931">
        <ele>2759</ele>
        <time>2000-01-01T04:03:15.000Z</time>
      </trkpt>
      <trkpt lat="45.86354" lon="6.80898">
        <ele>2758</ele>
        <time>2000-01-01T04:03:25.000Z</time>
      </trkpt>
      <trkpt lat="45.86332" lon="6.80871">
        <ele>2758</ele>
        <time>2000-01-01T04:03:35.000Z</time>
      </trkpt>
      <trkpt lat="45.86297" lon="6.80829">
        <ele>2743</ele>
        <time>2000-01-01T04:03:45.000Z</time>
      </trkpt>
      <trkpt lat="45.86269" lon="6.80824">
        <ele>2727</ele>
        <time>2000-01-01T04:03:55.000Z</time>
      </trkpt>
      <trkpt lat="45.86226" lon="6.80817">
        <ele>2714</ele>
        <time>2000-01-01T04:04:05.000Z</time>
      </trkpt>
      <trkpt lat="45.86192" lon="6.8079">
        <ele>2687</ele>
        <time>2000-01-01T04:04:15.000Z</time>
      </trkpt>
      <trkpt lat="45.86178" lon="6.80734">
        <ele>2662</ele>
        <time>2000-01-01T04:04:25.000Z</time>
      </trkpt>
      <trkpt lat="45.86155" lon="6.80696">
        <ele>2643</ele>
        <time>2000-01-01T04:04:35.000Z</time>
      </trkpt>
      <trkpt lat="45.86122" lon="6.80675">
        <ele>2631</ele>
        <time>2000-01-01T04:04:45.000Z</time>
      </trkpt>
      <trkpt lat="45.86106" lon="6.80645">
        <ele>2625</ele>
        <time>2000-01-01T04:04:55.000Z</time>
      </trkpt>
      <trkpt lat="45.86084" lon="6.80605">
        <ele>2618</ele>
        <time>2000-01-01T04:05:05.000Z</time>
      </trkpt>
      <trkpt lat="45.86071" lon="6.80561">
        <ele>2601</ele>
        <time>2000-01-01T04:05:15.000Z</time>
      </trkpt>
      <trkpt lat="45.86059" lon="6.80518">
        <ele>2586</ele>
        <time>2000-01-01T04:05:25.000Z</time>
      </trkpt>
      <trkpt lat="45.86042" lon="6.80459">
        <ele>2570</ele>
        <time>2000-01-01T04:05:35.000Z</time>
      </trkpt>
      <trkpt lat="45.86033" lon="6.80444">
        <ele>2575.3</ele>
        <time>2000-01-01T04:05:45.000Z</time>
      </trkpt>
      <trkpt lat="45.85993" lon="6.80436">
        <ele>2561</ele>
        <time>2000-01-01T04:05:55.000Z</time>
      </trkpt>
      <trkpt lat="45.8598" lon="6.80398">
        <ele>2551</ele>
        <time>2000-01-01T04:06:05.000Z</time>
      </trkpt>
      <trkpt lat="45.8596" lon="6.80337">
        <ele>2541</ele>
        <time>2000-01-01T04:06:15.000Z</time>
      </trkpt>
      <trkpt lat="45.85968" lon="6.80288">
        <ele>2532</ele>
        <time>2000-01-01T04:06:25.000Z</time>
      </trkpt>
      <trkpt lat="45.85959" lon="6.80249">
        <ele>2523</ele>
        <time>2000-01-01T04:06:35.000Z</time>
      </trkpt>
      <trkpt lat="45.85944" lon="6.80189">
        <ele>2500</ele>
        <time>2000-01-01T04:06:45.000Z</time>
      </trkpt>
      <trkpt lat="45.85926" lon="6.80159">
        <ele>2492</ele>
        <time>2000-01-01T04:06:55.000Z</time>
      </trkpt>
      <trkpt lat="45.85902" lon="6.80118">
        <ele>2482</ele>
        <time>2000-01-01T04:07:05.000Z</time>
      </trkpt>
      <trkpt lat="45.85905" lon="6.80081">
        <ele>2479</ele>
        <time>2000-01-01T04:07:15.000Z</time>
      </trkpt>
      <trkpt lat="45.85908" lon="6.80034">
        <ele>2451</ele>
        <time>2000-01-01T04:07:25.000Z</time>
      </trkpt>
      <trkpt lat="45.85881" lon="6.80034">
        <ele>2451</ele>
        <time>2000-01-01T04:07:35.000Z</time>
      </trkpt>
      <trkpt lat="45.85842" lon="6.80035">
        <ele>2432</ele>
        <time>2000-01-01T04:07:45.000Z</time>
      </trkpt>
      <trkpt lat="45.85809" lon="6.80012">
        <ele>2431</ele>
        <time>2000-01-01T04:07:55.000Z</time>
      </trkpt>
      <trkpt lat="45.85796" lon="6.7997">
        <ele>2413</ele>
        <time>2000-01-01T04:08:05.000Z</time>
      </trkpt>
      <trkpt lat="45.85761" lon="6.79982">
        <ele>2410</ele>
        <time>2000-01-01T04:08:15.000Z</time>
      </trkpt>
      <trkpt lat="45.85765" lon="6.79945">
        <ele>2406</ele>
        <time>2000-01-01T04:08:25.000Z</time>
      </trkpt>
      <trkpt lat="45.85771" lon="6.79899">
        <ele>2376</ele>
        <time>2000-01-01T04:08:35.000Z</time>
      </trkpt>
      <trkpt lat="45.85796" lon="6.79895">
        <ele>2376</ele>
        <time>2000-01-01T04:08:45.000Z</time>
      </trkpt>
      <trkpt lat="45.85827" lon="6.79891">
        <ele>2369</ele>
        <time>2000-01-01T04:08:55.000Z</time>
      </trkpt>
      <trkpt lat="45.85843" lon="6.79861">
        <ele>2358</ele>
        <time>2000-01-01T04:09:05.000Z</time>
      </trkpt>
      <trkpt lat="45.85828" lon="6.79865">
        <ele>2370.5</ele>
        <time>2000-01-01T04:09:15.000Z</time>
      </trkpt>
      <trkpt lat="45.85792" lon="6.79832">
        <ele>2351</ele>
        <time>2000-01-01T04:09:25.000Z</time>
      </trkpt>
      <trkpt lat="45.85768" lon="6.79823">
        <ele>2345</ele>
        <time>2000-01-01T04:09:35.000Z</time>
      </trkpt>
      <trkpt lat="45.85743" lon="6.79813">
        <ele>2352</ele>
        <time>2000-01-01T04:09:45.000Z</time>
      </trkpt>
      <trkpt lat="45.85732" lon="6.79851">
        <ele>2351</ele>
        <time>2000-01-01T04:09:55.000Z</time>
      </trkpt>
      <trkpt lat="45.85711" lon="6.79833">
        <ele>2350</ele>
        <time>2000-01-01T04:10:05.000Z</time>
      </trkpt>
      <trkpt lat="45.85665" lon="6.79827">
        <ele>2346</ele>
        <time>2000-01-01T04:10:15.000Z</time>
      </trkpt>
      <trkpt lat="45.85634" lon="6.79807">
        <ele>2345</ele>
        <time>2000-01-01T04:10:25.000Z</time>
      </trkpt>
      <trkpt lat="45.85602" lon="6.79787">
        <ele>2342</ele>
        <time>2000-01-01T04:10:35.000Z</time>
      </trkpt>
      <trkpt lat="45.85549" lon="6.79752">
        <ele>2339</ele>
        <time>2000-01-01T04:10:45.000Z</time>
      </trkpt>
      <trkpt lat="45.85523" lon="6.79715">
        <ele>2323</ele>
        <time>2000-01-01T04:10:55.000Z</time>
      </trkpt>
      <trkpt lat="45.85508" lon="6.79718">
        <ele>2329.3</ele>
        <time>2000-01-01T04:11:05.000Z</time>
      </trkpt>
      <trkpt lat="45.85514" lon="6.79686">
        <ele>2319</ele>
        <time>2000-01-01T04:11:15.000Z</time>
      </trkpt>
      <trkpt lat="45.8547" lon="6.79691">
        <ele>2316</ele>
        <time>2000-01-01T04:11:25.000Z</time>
      </trkpt>
      <trkpt lat="45.85448" lon="6.79673">
        <ele>2301</ele>
        <time>2000-01-01T04:11:35.000Z</time>
      </trkpt>
      <trkpt lat="45.85421" lon="6.79652">
        <ele>2287</ele>
        <time>2000-01-01T04:11:45.000Z</time>
      </trkpt>
      <trkpt lat="45.85405" lon="6.79627">
        <ele>2282</ele>
        <time>2000-01-01T04:11:55.000Z</time>
      </trkpt>
      <trkpt lat="45.85444" lon="6.79619">
        <ele>2278</ele>
        <time>2000-01-01T04:12:05.000Z</time>
      </trkpt>
      <trkpt lat="45.85427" lon="6.79592">
        <ele>2272</ele>
        <time>2000-01-01T04:12:15.000Z</time>
      </trkpt>
      <trkpt lat="45.85406" lon="6.79561">
        <ele>2262</ele>
        <time>2000-01-01T04:12:25.000Z</time>
      </trkpt>
      <trkpt lat="45.85373" lon="6.7957">
        <ele>2262</ele>
        <time>2000-01-01T04:12:35.000Z</time>
      </trkpt>
      <trkpt lat="45.85376" lon="6.79552">
        <ele>2260</ele>
        <time>2000-01-01T04:12:45.000Z</time>
      </trkpt>
      <trkpt lat="45.85314" lon="6.79463">
        <ele>2232</ele>
        <time>2000-01-01T04:12:55.000Z</time>
      </trkpt>
      <trkpt lat="45.85351" lon="6.7946">
        <ele>2220</ele>
        <time>2000-01-01T04:13:05.000Z</time>
      </trkpt>
      <trkpt lat="45.85348" lon="6.79443">
        <ele>2219.8</ele>
        <time>2000-01-01T04:13:15.000Z</time>
      </trkpt>
      <trkpt lat="45.85295" lon="6.79401">
        <ele>2196</ele>
        <time>2000-01-01T04:13:25.000Z</time>
      </trkpt>
      <trkpt lat="45.85282" lon="6.79345">
        <ele>2174</ele>
        <time>2000-01-01T04:13:35.000Z</time>
      </trkpt>
      <trkpt lat="45.85324" lon="6.79369">
        <ele>2173</ele>
        <time>2000-01-01T04:13:45.000Z</time>
      </trkpt>
      <trkpt lat="45.85319" lon="6.79336">
        <ele>2172</ele>
        <time>2000-01-01T04:13:55.000Z</time>
      </trkpt>
      <trkpt lat="45.85314" lon="6.79302">
        <ele>2165</ele>
        <time>2000-01-01T04:14:05.000Z</time>
      </trkpt>
      <trkpt lat="45.85335" lon="6.79321">
        <ele>2158</ele>
        <time>2000-01-01T04:14:15.000Z</time>
      </trkpt>
      <trkpt lat="45.8536" lon="6.79344">
        <ele>2140</ele>
        <time>2000-01-01T04:14:25.000Z</time>
      </trkpt>
      <trkpt lat="45.85356" lon="6.79326">
        <ele>2146</ele>
        <time>2000-01-01T04:14:35.000Z</time>
      </trkpt>
      <trkpt lat="45.85382" lon="6.79342">
        <ele>2132</ele>
        <time>2000-01-01T04:14:45.000Z</time>
      </trkpt>
      <trkpt lat="45.85406" lon="6.7933">
        <ele>2132</ele>
        <time>2000-01-01T04:14:55.000Z</time>
      </trkpt>
      <trkpt lat="45.85424" lon="6.79339">
        <ele>2121</ele>
        <time>2000-01-01T04:15:05.000Z</time>
      </trkpt>
      <trkpt lat="45.85434" lon="6.79312">
        <ele>2111</ele>
        <time>2000-01-01T04:15:15.000Z</time>
      </trkpt>
      <trkpt lat="45.85404" lon="6.79273">
        <ele>2088</ele>
        <time>2000-01-01T04:15:25.000Z</time>
      </trkpt>
      <trkpt lat="45.8543" lon="6.79281">
        <ele>2075</ele>
        <time>2000-01-01T04:15:35.000Z</time>
      </trkpt>
      <trkpt lat="45.85465" lon="6.79293">
        <ele>2055</ele>
        <time>2000-01-01T04:15:45.000Z</time>
      </trkpt>
      <trkpt lat="45.85494" lon="6.79281">
        <ele>2054</ele>
        <time>2000-01-01T04:15:55.000Z</time>
      </trkpt>
      <trkpt lat="45.85545" lon="6.7926">
        <ele>2047</ele>
        <time>2000-01-01T04:16:05.000Z</time>
      </trkpt>
      <trkpt lat="45.85515" lon="6.79247">
        <ele>2040</ele>
        <time>2000-01-01T04:16:15.000Z</time>
      </trkpt>
      <trkpt lat="45.85513" lon="6.79232">
        <ele>2027.1</ele>
        <time>2000-01-01T04:16:25.000Z</time>
      </trkpt>
      <trkpt lat="45.85487" lon="6.79237">
        <ele>2039</ele>
        <time>2000-01-01T04:16:35.000Z</time>
      </trkpt>
      <trkpt lat="45.85475" lon="6.79207">
        <ele>2029</ele>
        <time>2000-01-01T04:16:45.000Z</time>
      </trkpt>
      <trkpt lat="45.85494" lon="6.79178">
        <ele>2015</ele>
        <time>2000-01-01T04:16:55.000Z</time>
      </trkpt>
      <trkpt lat="45.85521" lon="6.79137">
        <ele>2015</ele>
        <time>2000-01-01T04:17:05.000Z</time>
      </trkpt>
      <trkpt lat="45.8554" lon="6.79126">
        <ele>2015</ele>
        <time>2000-01-01T04:17:15.000Z</time>
      </trkpt>
      <trkpt lat="45.85543" lon="6.79136">
        <ele>1996.1</ele>
        <time>2000-01-01T04:17:25.000Z</time>
      </trkpt>
      <trkpt lat="45.85616" lon="6.79038">
        <ele>2007</ele>
        <time>2000-01-01T04:17:35.000Z</time>
      </trkpt>
      <trkpt lat="45.85629" lon="6.78988">
        <ele>1999</ele>
        <time>2000-01-01T04:17:45.000Z</time>
      </trkpt>
      <trkpt lat="45.85642" lon="6.78938">
        <ele>1991</ele>
        <time>2000-01-01T04:17:55.000Z</time>
      </trkpt>
      <trkpt lat="45.85655" lon="6.78887">
        <ele>1983</ele>
        <time>2000-01-01T04:18:05.000Z</time>
      </trkpt>
      <trkpt lat="45.85679" lon="6.78794">
        <ele>1969</ele>
        <time>2000-01-01T04:18:15.000Z</time>
      </trkpt>
      <trkpt lat="45.85681" lon="6.78822">
        <ele>1955</ele>
        <time>2000-01-01T04:18:25.000Z</time>
      </trkpt>
      <trkpt lat="45.85694" lon="6.788">
        <ele>1925</ele>
        <time>2000-01-01T04:18:35.000Z</time>
      </trkpt>
      <trkpt lat="45.85697" lon="6.78826">
        <ele>1931</ele>
        <time>2000-01-01T04:18:45.000Z</time>
      </trkpt>
      <trkpt lat="45.85707" lon="6.78809">
        <ele>1925</ele>
        <time>2000-01-01T04:18:55.000Z</time>
      </trkpt>
      <trkpt lat="45.85711" lon="6.78833">
        <ele>1921.7</ele>
        <time>2000-01-01T04:19:05.000Z</time>
      </trkpt>
      <trkpt lat="45.85731" lon="6.78782">
        <ele>1907</ele>
        <time>2000-01-01T04:19:15.000Z</time>
      </trkpt>
      <trkpt lat="45.85741" lon="6.7882">
        <ele>1899</ele>
        <time>2000-01-01T04:19:25.000Z</time>
      </trkpt>
      <trkpt lat="45.85776" lon="6.78776">
        <ele>1874</ele>
        <time>2000-01-01T04:19:35.000Z</time>
      </trkpt>
      <trkpt lat="45.85803" lon="6.78773">
        <ele>1874</ele>
        <time>2000-01-01T04:19:45.000Z</time>
      </trkpt>
      <trkpt lat="45.85792" lon="6.78799">
        <ele>1874</ele>
        <time>2000-01-01T04:19:55.000Z</time>
      </trkpt>
      <trkpt lat="45.85808" lon="6.78834">
        <ele>1869</ele>
        <time>2000-01-01T04:20:05.000Z</time>
      </trkpt>
      <trkpt lat="45.85835" lon="6.78893">
        <ele>1859</ele>
        <time>2000-01-01T04:20:15.000Z</time>
      </trkpt>
      <trkpt lat="45.85866" lon="6.78876">
        <ele>1850</ele>
        <time>2000-01-01T04:20:25.000Z</time>
      </trkpt>
      <trkpt lat="45.85904" lon="6.78881">
        <ele>1845</ele>
        <time>2000-01-01T04:20:35.000Z</time>
      </trkpt>
      <trkpt lat="45.85932" lon="6.78896">
        <ele>1832</ele>
        <time>2000-01-01T04:20:45.000Z</time>
      </trkpt>
      <trkpt lat="45.85983" lon="6.78922">
        <ele>1824</ele>
        <time>2000-01-01T04:20:55.000Z</time>
      </trkpt>
      <trkpt lat="45.86014" lon="6.78922">
        <ele>1819</ele>
        <time>2000-01-01T04:21:05.000Z</time>
      </trkpt>
      <trkpt lat="45.86072" lon="6.78922">
        <ele>1810</ele>
        <time>2000-01-01T04:21:15.000Z</time>
      </trkpt>
      <trkpt lat="45.86101" lon="6.78914">
        <ele>1807</ele>
        <time>2000-01-01T04:21:25.000Z</time>
      </trkpt>
      <trkpt lat="45.86129" lon="6.78886">
        <ele>1806</ele>
        <time>2000-01-01T04:21:35.000Z</time>
      </trkpt>
      <trkpt lat="45.86157" lon="6.78858">
        <ele>1801</ele>
        <time>2000-01-01T04:21:45.000Z</time>
      </trkpt>
      <trkpt lat="45.86205" lon="6.7881">
        <ele>1798</ele>
        <time>2000-01-01T04:21:55.000Z</time>
      </trkpt>
      <trkpt lat="45.86241" lon="6.78798">
        <ele>1789</ele>
        <time>2000-01-01T04:22:05.000Z</time>
      </trkpt>
      <trkpt lat="45.86276" lon="6.78785">
        <ele>1789</ele>
        <time>2000-01-01T04:22:15.000Z</time>
      </trkpt>
      <trkpt lat="45.86312" lon="6.78773">
        <ele>1789</ele>
        <time>2000-01-01T04:22:25.000Z</time>
      </trkpt>
      <trkpt lat="45.86369" lon="6.78753">
        <ele>1779</ele>
        <time>2000-01-01T04:22:35.000Z</time>
      </trkpt>
      <trkpt lat="45.86394" lon="6.78732">
        <ele>1777</ele>
        <time>2000-01-01T04:22:45.000Z</time>
      </trkpt>
      <trkpt lat="45.86436" lon="6.78699">
        <ele>1776</ele>
        <time>2000-01-01T04:22:55.000Z</time>
      </trkpt>
      <trkpt lat="45.86418" lon="6.78664">
        <ele>1774</ele>
        <time>2000-01-01T04:23:05.000Z</time>
      </trkpt>
      <trkpt lat="45.86386" lon="6.78603">
        <ele>1768</ele>
        <time>2000-01-01T04:23:15.000Z</time>
      </trkpt>
      <trkpt lat="45.86376" lon="6.78551">
        <ele>1747</ele>
        <time>2000-01-01T04:23:25.000Z</time>
      </trkpt>
      <trkpt lat="45.86365" lon="6.785">
        <ele>1742</ele>
        <time>2000-01-01T04:23:35.000Z</time>
      </trkpt>
      <trkpt lat="45.86355" lon="6.78448">
        <ele>1729</ele>
        <time>2000-01-01T04:23:45.000Z</time>
      </trkpt>
      <trkpt lat="45.86335" lon="6.78351">
        <ele>1715</ele>
        <time>2000-01-01T04:23:55.000Z</time>
      </trkpt>
      <trkpt lat="45.86314" lon="6.78334">
        <ele>1703</ele>
        <time>2000-01-01T04:24:05.000Z</time>
      </trkpt>
      <trkpt lat="45.86293" lon="6.78317">
        <ele>1702</ele>
        <time>2000-01-01T04:24:15.000Z</time>
      </trkpt>
      <trkpt lat="45.86262" lon="6.78311">
        <ele>1702</ele>
        <time>2000-01-01T04:24:25.000Z</time>
      </trkpt>
      <trkpt lat="45.86231" lon="6.78306">
        <ele>1719</ele>
        <time>2000-01-01T04:24:35.000Z</time>
      </trkpt>
      <trkpt lat="45.86198" lon="6.783">
        <ele>1731</ele>
        <time>2000-01-01T04:24:45.000Z</time>
      </trkpt>
      <trkpt lat="45.86173" lon="6.78262">
        <ele>1748</ele>
        <time>2000-01-01T04:24:55.000Z</time>
      </trkpt>
      <trkpt lat="45.86149" lon="6.78224">
        <ele>1765</ele>
        <time>2000-01-01T04:25:05.000Z</time>
      </trkpt>
      <trkpt lat="45.86124" lon="6.78186">
        <ele>1777</ele>
        <time>2000-01-01T04:25:15.000Z</time>
      </trkpt>
      <trkpt lat="45.86091" lon="6.78136">
        <ele>1791</ele>
        <time>2000-01-01T04:25:25.000Z</time>
      </trkpt>
      <trkpt lat="45.86059" lon="6.78108">
        <ele>1807</ele>
        <time>2000-01-01T04:25:35.000Z</time>
      </trkpt>
      <trkpt lat="45.86026" lon="6.7808">
        <ele>1820</ele>
        <time>2000-01-01T04:25:45.000Z</time>
      </trkpt>
      <trkpt lat="45.85994" lon="6.78053">
        <ele>1830</ele>
        <time>2000-01-01T04:25:55.000Z</time>
      </trkpt>
      <trkpt lat="45.85962" lon="6.78025">
        <ele>1839</ele>
        <time>2000-01-01T04:26:05.000Z</time>
      </trkpt>
      <trkpt lat="45.85927" lon="6.77995">
        <ele>1847</ele>
        <time>2000-01-01T04:26:15.000Z</time>
      </trkpt>
      <trkpt lat="45.85898" lon="6.77961">
        <ele>1851</ele>
        <time>2000-01-01T04:26:25.000Z</time>
      </trkpt>
      <trkpt lat="45.85869" lon="6.77927">
        <ele>1862</ele>
        <time>2000-01-01T04:26:35.000Z</time>
      </trkpt>
      <trkpt lat="45.85841" lon="6.77893">
        <ele>1887</ele>
        <time>2000-01-01T04:26:45.000Z</time>
      </trkpt>
      <trkpt lat="45.85787" lon="6.7783">
        <ele>1891</ele>
        <time>2000-01-01T04:26:55.000Z</time>
      </trkpt>
      <trkpt lat="45.8577" lon="6.77794">
        <ele>1908</ele>
        <time>2000-01-01T04:27:05.000Z</time>
      </trkpt>
      <trkpt lat="45.85737" lon="6.77727">
        <ele>1926</ele>
        <time>2000-01-01T04:27:15.000Z</time>
      </trkpt>
      <trkpt lat="45.85709" lon="6.77686">
        <ele>1936</ele>
        <time>2000-01-01T04:27:25.000Z</time>
      </trkpt>
      <trkpt lat="45.85681" lon="6.77645">
        <ele>1937</ele>
        <time>2000-01-01T04:27:35.000Z</time>
      </trkpt>
      <trkpt lat="45.85653" lon="6.77605">
        <ele>1952</ele>
        <time>2000-01-01T04:27:45.000Z</time>
      </trkpt>
      <trkpt lat="45.85624" lon="6.77564">
        <ele>1960</ele>
        <time>2000-01-01T04:27:55.000Z</time>
      </trkpt>
      <trkpt lat="45.85596" lon="6.77523">
        <ele>1967</ele>
        <time>2000-01-01T04:28:05.000Z</time>
      </trkpt>
      <trkpt lat="45.85546" lon="6.7745">
        <ele>1989</ele>
        <time>2000-01-01T04:28:15.000Z</time>
      </trkpt>
      <trkpt lat="45.8552" lon="6.77425">
        <ele>1994</ele>
        <time>2000-01-01T04:28:25.000Z</time>
      </trkpt>
      <trkpt lat="45.85493" lon="6.77401">
        <ele>1999</ele>
        <time>2000-01-01T04:28:35.000Z</time>
      </trkpt>
      <trkpt lat="45.85466" lon="6.77375">
        <ele>2012</ele>
        <time>2000-01-01T04:28:45.000Z</time>
      </trkpt>
      <trkpt lat="45.85432" lon="6.77352">
        <ele>2014</ele>
        <time>2000-01-01T04:28:55.000Z</time>
      </trkpt>
      <trkpt lat="45.85398" lon="6.77329">
        <ele>2025</ele>
        <time>2000-01-01T04:29:05.000Z</time>
      </trkpt>
      <trkpt lat="45.85365" lon="6.77307">
        <ele>2036</ele>
        <time>2000-01-01T04:29:15.000Z</time>
      </trkpt>
      <trkpt lat="45.853" lon="6.77263">
        <ele>2056</ele>
        <time>2000-01-01T04:29:25.000Z</time>
      </trkpt>
      <trkpt lat="45.85268" lon="6.77235">
        <ele>2062</ele>
        <time>2000-01-01T04:29:35.000Z</time>
      </trkpt>
      <trkpt lat="45.85236" lon="6.77207">
        <ele>2067</ele>
        <time>2000-01-01T04:29:45.000Z</time>
      </trkpt>
      <trkpt lat="45.85205" lon="6.77179">
        <ele>2073</ele>
        <time>2000-01-01T04:29:55.000Z</time>
      </trkpt>
      <trkpt lat="45.85144" lon="6.77125">
        <ele>2101</ele>
        <time>2000-01-01T04:30:05.000Z</time>
      </trkpt>
      <trkpt lat="45.85118" lon="6.7709">
        <ele>2107</ele>
        <time>2000-01-01T04:30:15.000Z</time>
      </trkpt>
      <trkpt lat="45.85093" lon="6.77055">
        <ele>2111</ele>
        <time>2000-01-01T04:30:25.000Z</time>
      </trkpt>
      <trkpt lat="45.85042" lon="6.76986">
        <ele>2115</ele>
        <time>2000-01-01T04:30:35.000Z</time>
      </trkpt>
      <trkpt lat="45.85024" lon="6.77042">
        <ele>2118</ele>
        <time>2000-01-01T04:30:45.000Z</time>
      </trkpt>
      <trkpt lat="45.84991" lon="6.77057">
        <ele>2119</ele>
        <time>2000-01-01T04:30:55.000Z</time>
      </trkpt>
      <trkpt lat="45.84959" lon="6.77072">
        <ele>2113</ele>
        <time>2000-01-01T04:31:05.000Z</time>
      </trkpt>
      <trkpt lat="45.84902" lon="6.77099">
        <ele>2111</ele>
        <time>2000-01-01T04:31:15.000Z</time>
      </trkpt>
      <trkpt lat="45.84875" lon="6.77089">
        <ele>2110</ele>
        <time>2000-01-01T04:31:25.000Z</time>
      </trkpt>
      <trkpt lat="45.84834" lon="6.77074">
        <ele>2110</ele>
        <time>2000-01-01T04:31:35.000Z</time>
      </trkpt>
      <trkpt lat="45.84807" lon="6.77092">
        <ele>2110</ele>
        <time>2000-01-01T04:31:45.000Z</time>
      </trkpt>
      <trkpt lat="45.84762" lon="6.77122">
        <ele>2110</ele>
        <time>2000-01-01T04:31:55.000Z</time>
      </trkpt>
      <trkpt lat="45.84733" lon="6.77127">
        <ele>2111</ele>
        <time>2000-01-01T04:32:05.000Z</time>
      </trkpt>
      <trkpt lat="45.84683" lon="6.77135">
        <ele>2141</ele>
        <time>2000-01-01T04:32:15.000Z</time>
      </trkpt>
      <trkpt lat="45.84642" lon="6.77166">
        <ele>2145</ele>
        <time>2000-01-01T04:32:25.000Z</time>
      </trkpt>
      <trkpt lat="45.84607" lon="6.77173">
        <ele>2144</ele>
        <time>2000-01-01T04:32:35.000Z</time>
      </trkpt>
      <trkpt lat="45.84572" lon="6.7718">
        <ele>2144</ele>
        <time>2000-01-01T04:32:45.000Z</time>
      </trkpt>
      <trkpt lat="45.84504" lon="6.77194">
        <ele>2146</ele>
        <time>2000-01-01T04:32:55.000Z</time>
      </trkpt>
      <trkpt lat="45.8448" lon="6.77185">
        <ele>2148</ele>
        <time>2000-01-01T04:33:05.000Z</time>
      </trkpt>
      <trkpt lat="45.84451" lon="6.77175">
        <ele>2148</ele>
        <time>2000-01-01T04:33:15.000Z</time>
      </trkpt>
      <trkpt lat="45.84427" lon="6.77207">
        <ele>2155</ele>
        <time>2000-01-01T04:33:25.000Z</time>
      </trkpt>
      <trkpt lat="45.84404" lon="6.77239">
        <ele>2156</ele>
        <time>2000-01-01T04:33:35.000Z</time>
      </trkpt>
      <trkpt lat="45.84374" lon="6.77279">
        <ele>2156</ele>
        <time>2000-01-01T04:33:45.000Z</time>
      </trkpt>
      <trkpt lat="45.84344" lon="6.77257">
        <ele>2154</ele>
        <time>2000-01-01T04:33:55.000Z</time>
      </trkpt>
      <trkpt lat="45.84299" lon="6.7726">
        <ele>2161</ele>
        <time>2000-01-01T04:34:05.000Z</time>
      </trkpt>
      <trkpt lat="45.84288" lon="6.77292">
        <ele>2169</ele>
        <time>2000-01-01T04:34:15.000Z</time>
      </trkpt>
      <trkpt lat="45.84304" lon="6.7729">
        <ele>2187.6</ele>
        <time>2000-01-01T04:34:25.000Z</time>
      </trkpt>
      <trkpt lat="45.84324" lon="6.7733">
        <ele>2183</ele>
        <time>2000-01-01T04:34:35.000Z</time>
      </trkpt>
      <trkpt lat="45.84291" lon="6.77344">
        <ele>2197</ele>
        <time>2000-01-01T04:34:45.000Z</time>
      </trkpt>
      <trkpt lat="45.84304" lon="6.77379">
        <ele>2231</ele>
        <time>2000-01-01T04:34:55.000Z</time>
      </trkpt>
      <trkpt lat="45.84282" lon="6.77398">
        <ele>2240</ele>
        <time>2000-01-01T04:35:05.000Z</time>
      </trkpt>
      <trkpt lat="45.84256" lon="6.77421">
        <ele>2253</ele>
        <time>2000-01-01T04:35:15.000Z</time>
      </trkpt>
      <trkpt lat="45.8424" lon="6.77412">
        <ele>2251.7</ele>
        <time>2000-01-01T04:35:25.000Z</time>
      </trkpt>
      <trkpt lat="45.84232" lon="6.77421">
        <ele>2254</ele>
        <time>2000-01-01T04:35:35.000Z</time>
      </trkpt>
      <trkpt lat="45.8423" lon="6.77456">
        <ele>2260</ele>
        <time>2000-01-01T04:35:45.000Z</time>
      </trkpt>
      <trkpt lat="45.84228" lon="6.77496">
        <ele>2266</ele>
        <time>2000-01-01T04:35:55.000Z</time>
      </trkpt>
      <trkpt lat="45.84204" lon="6.77506">
        <ele>2256</ele>
        <time>2000-01-01T04:36:05.000Z</time>
      </trkpt>
      <trkpt lat="45.84176" lon="6.77518">
        <ele>2261</ele>
        <time>2000-01-01T04:36:15.000Z</time>
      </trkpt>
      <trkpt lat="45.84181" lon="6.77551">
        <ele>2266</ele>
        <time>2000-01-01T04:36:25.000Z</time>
      </trkpt>
      <trkpt lat="45.84187" lon="6.77585">
        <ele>2275</ele>
        <time>2000-01-01T04:36:35.000Z</time>
      </trkpt>
      <trkpt lat="45.8416" lon="6.77598">
        <ele>2275</ele>
        <time>2000-01-01T04:36:45.000Z</time>
      </trkpt>
      <trkpt lat="45.8412" lon="6.77617">
        <ele>2255</ele>
        <time>2000-01-01T04:36:55.000Z</time>
      </trkpt>
      <trkpt lat="45.84082" lon="6.77609">
        <ele>2251</ele>
        <time>2000-01-01T04:37:05.000Z</time>
      </trkpt>
      <trkpt lat="45.84083" lon="6.77656">
        <ele>2260</ele>
        <time>2000-01-01T04:37:15.000Z</time>
      </trkpt>
      <trkpt lat="45.84084" lon="6.77702">
        <ele>2263</ele>
        <time>2000-01-01T04:37:25.000Z</time>
      </trkpt>
      <trkpt lat="45.84086" lon="6.77761">
        <ele>2258</ele>
        <time>2000-01-01T04:37:35.000Z</time>
      </trkpt>
      <trkpt lat="45.84056" lon="6.77788">
        <ele>2261</ele>
        <time>2000-01-01T04:37:45.000Z</time>
      </trkpt>
      <trkpt lat="45.84065" lon="6.77819">
        <ele>2264</ele>
        <time>2000-01-01T04:37:55.000Z</time>
      </trkpt>
      <trkpt lat="45.84043" lon="6.77844">
        <ele>2273</ele>
        <time>2000-01-01T04:38:05.000Z</time>
      </trkpt>
      <trkpt lat="45.83997" lon="6.77853">
        <ele>2285</ele>
        <time>2000-01-01T04:38:15.000Z</time>
      </trkpt>
      <trkpt lat="45.83988" lon="6.77879">
        <ele>2297</ele>
        <time>2000-01-01T04:38:25.000Z</time>
      </trkpt>
      <trkpt lat="45.83968" lon="6.77873">
        <ele>2297</ele>
        <time>2000-01-01T04:38:35.000Z</time>
      </trkpt>
      <trkpt lat="45.83974" lon="6.77899">
        <ele>2311</ele>
        <time>2000-01-01T04:38:45.000Z</time>
      </trkpt>
      <trkpt lat="45.83948" lon="6.77909">
        <ele>2315</ele>
        <time>2000-01-01T04:38:55.000Z</time>
      </trkpt>
      <trkpt lat="45.83915" lon="6.77923">
        <ele>2331</ele>
        <time>2000-01-01T04:39:05.000Z</time>
      </trkpt>
      <trkpt lat="45.83898" lon="6.77948">
        <ele>2346</ele>
        <time>2000-01-01T04:39:15.000Z</time>
      </trkpt>
      <trkpt lat="45.8391" lon="6.7799">
        <ele>2350</ele>
        <time>2000-01-01T04:39:25.000Z</time>
      </trkpt>
      <trkpt lat="45.83902" lon="6.7804">
        <ele>2355</ele>
        <time>2000-01-01T04:39:35.000Z</time>
      </trkpt>
      <trkpt lat="45.83893" lon="6.78089">
        <ele>2376</ele>
        <time>2000-01-01T04:39:45.000Z</time>
      </trkpt>
      <trkpt lat="45.83885" lon="6.78139">
        <ele>2383</ele>
        <time>2000-01-01T04:39:55.000Z</time>
      </trkpt>
      <trkpt lat="45.83876" lon="6.78195">
        <ele>2390</ele>
        <time>2000-01-01T04:40:05.000Z</time>
      </trkpt>
      <trkpt lat="45.83883" lon="6.78231">
        <ele>2404</ele>
        <time>2000-01-01T04:40:15.000Z</time>
      </trkpt>
      <trkpt lat="45.83872" lon="6.78261">
        <ele>2418</ele>
        <time>2000-01-01T04:40:25.000Z</time>
      </trkpt>
      <trkpt lat="45.83861" lon="6.78292">
        <ele>2419</ele>
        <time>2000-01-01T04:40:35.000Z</time>
      </trkpt>
      <trkpt lat="45.83875" lon="6.7833">
        <ele>2422</ele>
        <time>2000-01-01T04:40:45.000Z</time>
      </trkpt>
      <trkpt lat="45.83898" lon="6.78395">
        <ele>2463</ele>
        <time>2000-01-01T04:40:55.000Z</time>
      </trkpt>
      <trkpt lat="45.83888" lon="6.78432">
        <ele>2472</ele>
        <time>2000-01-01T04:41:05.000Z</time>
      </trkpt>
      <trkpt lat="45.83873" lon="6.78485">
        <ele>2470</ele>
        <time>2000-01-01T04:41:15.000Z</time>
      </trkpt>
      <trkpt lat="45.83843" lon="6.78467">
        <ele>2468</ele>
        <time>2000-01-01T04:41:25.000Z</time>
      </trkpt>
      <trkpt lat="45.8384" lon="6.78483">
        <ele>2488.7</ele>
        <time>2000-01-01T04:41:35.000Z</time>
      </trkpt>
      <trkpt lat="45.83817" lon="6.78474">
        <ele>2471</ele>
        <time>2000-01-01T04:41:45.000Z</time>
      </trkpt>
      <trkpt lat="45.83807" lon="6.78519">
        <ele>2472</ele>
        <time>2000-01-01T04:41:55.000Z</time>
      </trkpt>
      <trkpt lat="45.83797" lon="6.78565">
        <ele>2473</ele>
        <time>2000-01-01T04:42:05.000Z</time>
      </trkpt>
      <trkpt lat="45.83782" lon="6.7863">
        <ele>2474</ele>
        <time>2000-01-01T04:42:15.000Z</time>
      </trkpt>
      <trkpt lat="45.83755" lon="6.78639">
        <ele>2472</ele>
        <time>2000-01-01T04:42:25.000Z</time>
      </trkpt>
      <trkpt lat="45.83718" lon="6.78651">
        <ele>2471</ele>
        <time>2000-01-01T04:42:35.000Z</time>
      </trkpt>
      <trkpt lat="45.83694" lon="6.78674">
        <ele>2471</ele>
        <time>2000-01-01T04:42:45.000Z</time>
      </trkpt>
      <trkpt lat="45.83654" lon="6.78711">
        <ele>2468</ele>
        <time>2000-01-01T04:42:55.000Z</time>
      </trkpt>
      <trkpt lat="45.83621" lon="6.78723">
        <ele>2467</ele>
        <time>2000-01-01T04:43:05.000Z</time>
      </trkpt>
      <trkpt lat="45.83589" lon="6.78735">
        <ele>2467</ele>
        <time>2000-01-01T04:43:15.000Z</time>
      </trkpt>
      <trkpt lat="45.83539" lon="6.78754">
        <ele>2477</ele>
        <time>2000-01-01T04:43:25.000Z</time>
      </trkpt>
      <trkpt lat="45.83519" lon="6.78776">
        <ele>2524</ele>
        <time>2000-01-01T04:43:35.000Z</time>
      </trkpt>
      <trkpt lat="45.83495" lon="6.78802">
        <ele>2524</ele>
        <time>2000-01-01T04:43:45.000Z</time>
      </trkpt>
      <trkpt lat="45.83475" lon="6.78806">
        <ele>2525</ele>
        <time>2000-01-01T04:43:55.000Z</time>
      </trkpt>
      <trkpt lat="45.83473" lon="6.78841">
        <ele>2527</ele>
        <time>2000-01-01T04:44:05.000Z</time>
      </trkpt>
      <trkpt lat="45.83471" lon="6.78881">
        <ele>2544</ele>
        <time>2000-01-01T04:44:15.000Z</time>
      </trkpt>
      <trkpt lat="45.83459" lon="6.7891">
        <ele>2545</ele>
        <time>2000-01-01T04:44:25.000Z</time>
      </trkpt>
      <trkpt lat="45.83447" lon="6.78939">
        <ele>2546</ele>
        <time>2000-01-01T04:44:35.000Z</time>
      </trkpt>
      <trkpt lat="45.83427" lon="6.78965">
        <ele>2553</ele>
        <time>2000-01-01T04:44:45.000Z</time>
      </trkpt>
      <trkpt lat="45.83399" lon="6.79">
        <ele>2562</ele>
        <time>2000-01-01T04:44:55.000Z</time>
      </trkpt>
      <trkpt lat="45.83373" lon="6.79012">
        <ele>2564</ele>
        <time>2000-01-01T04:45:05.000Z</time>
      </trkpt>
      <trkpt lat="45.83338" lon="6.79029">
        <ele>2574</ele>
        <time>2000-01-01T04:45:15.000Z</time>
      </trkpt>
      <trkpt lat="45.83314" lon="6.79034">
        <ele>2577</ele>
        <time>2000-01-01T04:45:25.000Z</time>
      </trkpt>
      <trkpt lat="45.83289" lon="6.7904">
        <ele>2580</ele>
        <time>2000-01-01T04:45:35.000Z</time>
      </trkpt>
      <trkpt lat="45.83283" lon="6.79031">
        <ele>2580.2</ele>
        <time>2000-01-01T04:45:45.000Z</time>
      </trkpt>
      <trkpt lat="45.83262" lon="6.79154">
        <ele>2584</ele>
        <time>2000-01-01T04:45:55.000Z</time>
      </trkpt>
      <trkpt lat="45.83237" lon="6.79183">
        <ele>2588</ele>
        <time>2000-01-01T04:46:05.000Z</time>
      </trkpt>
      <trkpt lat="45.83212" lon="6.79213">
        <ele>2592</ele>
        <time>2000-01-01T04:46:15.000Z</time>
      </trkpt>
      <trkpt lat="45.83182" lon="6.79248">
        <ele>2596</ele>
        <time>2000-01-01T04:46:25.000Z</time>
      </trkpt>
      <trkpt lat="45.83178" lon="6.79289">
        <ele>2611</ele>
        <time>2000-01-01T04:46:35.000Z</time>
      </trkpt>
      <trkpt lat="45.83161" lon="6.79297">
        <ele>2622.6</ele>
        <time>2000-01-01T04:46:45.000Z</time>
      </trkpt>
      <trkpt lat="45.83152" lon="6.7936">
        <ele>2639</ele>
        <time>2000-01-01T04:46:55.000Z</time>
      </trkpt>
      <trkpt lat="45.83172" lon="6.79405">
        <ele>2652</ele>
        <time>2000-01-01T04:47:05.000Z</time>
      </trkpt>
      <trkpt lat="45.83192" lon="6.7945">
        <ele>2660</ele>
        <time>2000-01-01T04:47:15.000Z</time>
      </trkpt>
      <trkpt lat="45.83213" lon="6.79495">
        <ele>2672</ele>
        <time>2000-01-01T04:47:25.000Z</time>
      </trkpt>
      <trkpt lat="45.83251" lon="6.79581">
        <ele>2680</ele>
        <time>2000-01-01T04:47:35.000Z</time>
      </trkpt>
      <trkpt lat="45.83243" lon="6.79619">
        <ele>2679</ele>
        <time>2000-01-01T04:47:45.000Z</time>
      </trkpt>
      <trkpt lat="45.83231" lon="6.79676">
        <ele>2701</ele>
        <time>2000-01-01T04:47:55.000Z</time>
      </trkpt>
      <trkpt lat="45.83243" lon="6.79726">
        <ele>2694</ele>
        <time>2000-01-01T04:48:05.000Z</time>
      </trkpt>
      <trkpt lat="45.83237" lon="6.79693">
        <ele>2687</ele>
        <time>2000-01-01T04:48:15.000Z</time>
      </trkpt>
      <trkpt lat="45.83232" lon="6.7966">
        <ele>2685</ele>
        <time>2000-01-01T04:48:25.000Z</time>
      </trkpt>
      <trkpt lat="45.83241" lon="6.79621">
        <ele>2684</ele>
        <time>2000-01-01T04:48:35.000Z</time>
      </trkpt>
      <trkpt lat="45.83254" lon="6.79561">
        <ele>2679</ele>
        <time>2000-01-01T04:48:45.000Z</time>
      </trkpt>
      <trkpt lat="45.83234" lon="6.79517">
        <ele>2672</ele>
        <time>2000-01-01T04:48:55.000Z</time>
      </trkpt>
      <trkpt lat="45.83213" lon="6.79472">
        <ele>2666</ele>
        <time>2000-01-01T04:49:05.000Z</time>
      </trkpt>
      <trkpt lat="45.83193" lon="6.79428">
        <ele>2656</ele>
        <time>2000-01-01T04:49:15.000Z</time>
      </trkpt>
      <trkpt lat="45.83158" lon="6.79353">
        <ele>2639</ele>
        <time>2000-01-01T04:49:25.000Z</time>
      </trkpt>
      <trkpt lat="45.83165" lon="6.79293">
        <ele>2611</ele>
        <time>2000-01-01T04:49:35.000Z</time>
      </trkpt>
      <trkpt lat="45.83178" lon="6.79261">
        <ele>2604</ele>
        <time>2000-01-01T04:49:45.000Z</time>
      </trkpt>
      <trkpt lat="45.83195" lon="6.79222">
        <ele>2598</ele>
        <time>2000-01-01T04:49:55.000Z</time>
      </trkpt>
      <trkpt lat="45.83219" lon="6.79196">
        <ele>2595</ele>
        <time>2000-01-01T04:50:05.000Z</time>
      </trkpt>
      <trkpt lat="45.83264" lon="6.79149">
        <ele>2595</ele>
        <time>2000-01-01T04:50:15.000Z</time>
      </trkpt>
      <trkpt lat="45.83271" lon="6.79106">
        <ele>2595</ele>
        <time>2000-01-01T04:50:25.000Z</time>
      </trkpt>
      <trkpt lat="45.83284" lon="6.79027">
        <ele>2580</ele>
        <time>2000-01-01T04:50:35.000Z</time>
      </trkpt>
      <trkpt lat="45.83277" lon="6.78979">
        <ele>2565</ele>
        <time>2000-01-01T04:50:45.000Z</time>
      </trkpt>
      <trkpt lat="45.8327" lon="6.78932">
        <ele>2538</ele>
        <time>2000-01-01T04:50:55.000Z</time>
      </trkpt>
      <trkpt lat="45.83259" lon="6.78857">
        <ele>2502</ele>
        <time>2000-01-01T04:51:05.000Z</time>
      </trkpt>
      <trkpt lat="45.83247" lon="6.78815">
        <ele>2481</ele>
        <time>2000-01-01T04:51:15.000Z</time>
      </trkpt>
      <trkpt lat="45.83235" lon="6.78773">
        <ele>2462</ele>
        <time>2000-01-01T04:51:25.000Z</time>
      </trkpt>
      <trkpt lat="45.83222" lon="6.7873">
        <ele>2427</ele>
        <time>2000-01-01T04:51:35.000Z</time>
      </trkpt>
      <trkpt lat="45.83233" lon="6.78703">
        <ele>2416</ele>
        <time>2000-01-01T04:51:45.000Z</time>
      </trkpt>
      <trkpt lat="45.8322" lon="6.78688">
        <ele>2415.1</ele>
        <time>2000-01-01T04:51:55.000Z</time>
      </trkpt>
      <trkpt lat="45.83233" lon="6.78572">
        <ele>2359</ele>
        <time>2000-01-01T04:52:05.000Z</time>
      </trkpt>
      <trkpt lat="45.83228" lon="6.78529">
        <ele>2333</ele>
        <time>2000-01-01T04:52:15.000Z</time>
      </trkpt>
      <trkpt lat="45.83218" lon="6.78451">
        <ele>2300</ele>
        <time>2000-01-01T04:52:25.000Z</time>
      </trkpt>
      <trkpt lat="45.83204" lon="6.78411">
        <ele>2280</ele>
        <time>2000-01-01T04:52:35.000Z</time>
      </trkpt>
      <trkpt lat="45.83176" lon="6.78331">
        <ele>2236</ele>
        <time>2000-01-01T04:52:45.000Z</time>
      </trkpt>
      <trkpt lat="45.83169" lon="6.78288">
        <ele>2217</ele>
        <time>2000-01-01T04:52:55.000Z</time>
      </trkpt>
      <trkpt lat="45.83157" lon="6.7821">
        <ele>2183</ele>
        <time>2000-01-01T04:53:05.000Z</time>
      </trkpt>
      <trkpt lat="45.83136" lon="6.78178">
        <ele>2178</ele>
        <time>2000-01-01T04:53:15.000Z</time>
      </trkpt>
      <trkpt lat="45.831" lon="6.78122">
        <ele>2158</ele>
        <time>2000-01-01T04:53:25.000Z</time>
      </trkpt>
      <trkpt lat="45.83085" lon="6.78152">
        <ele>2157</ele>
        <time>2000-01-01T04:53:35.000Z</time>
      </trkpt>
      <trkpt lat="45.83074" lon="6.78134">
        <ele>2139.8</ele>
        <time>2000-01-01T04:53:45.000Z</time>
      </trkpt>
      <trkpt lat="45.83063" lon="6.78152">
        <ele>2143</ele>
        <time>2000-01-01T04:53:55.000Z</time>
      </trkpt>
      <trkpt lat="45.83031" lon="6.78149">
        <ele>2134</ele>
        <time>2000-01-01T04:54:05.000Z</time>
      </trkpt>
      <trkpt lat="45.82999" lon="6.78146">
        <ele>2128</ele>
        <time>2000-01-01T04:54:15.000Z</time>
      </trkpt>
      <trkpt lat="45.82961" lon="6.78142">
        <ele>2127</ele>
        <time>2000-01-01T04:54:25.000Z</time>
      </trkpt>
      <trkpt lat="45.8294" lon="6.7812">
        <ele>2112</ele>
        <time>2000-01-01T04:54:35.000Z</time>
      </trkpt>
      <trkpt lat="45.82916" lon="6.78094">
        <ele>2111</ele>
        <time>2000-01-01T04:54:45.000Z</time>
      </trkpt>
      <trkpt lat="45.82909" lon="6.7806">
        <ele>2102</ele>
        <time>2000-01-01T04:54:55.000Z</time>
      </trkpt>
      <trkpt lat="45.829" lon="6.7802">
        <ele>2101</ele>
        <time>2000-01-01T04:55:05.000Z</time>
      </trkpt>
      <trkpt lat="45.82901" lon="6.77968">
        <ele>2085</ele>
        <time>2000-01-01T04:55:15.000Z</time>
      </trkpt>
      <trkpt lat="45.82901" lon="6.77915">
        <ele>2063</ele>
        <time>2000-01-01T04:55:25.000Z</time>
      </trkpt>
      <trkpt lat="45.82902" lon="6.77863">
        <ele>2043</ele>
        <time>2000-01-01T04:55:35.000Z</time>
      </trkpt>
      <trkpt lat="45.82903" lon="6.77785">
        <ele>2012</ele>
        <time>2000-01-01T04:55:45.000Z</time>
      </trkpt>
      <trkpt lat="45.82915" lon="6.77746">
        <ele>1997</ele>
        <time>2000-01-01T04:55:55.000Z</time>
      </trkpt>
      <trkpt lat="45.82936" lon="6.77676">
        <ele>1965</ele>
        <time>2000-01-01T04:56:05.000Z</time>
      </trkpt>
      <trkpt lat="45.82932" lon="6.7763">
        <ele>1962</ele>
        <time>2000-01-01T04:56:15.000Z</time>
      </trkpt>
      <trkpt lat="45.82928" lon="6.77584">
        <ele>1945</ele>
        <time>2000-01-01T04:56:25.000Z</time>
      </trkpt>
      <trkpt lat="45.82923" lon="6.7753">
        <ele>1918</ele>
        <time>2000-01-01T04:56:35.000Z</time>
      </trkpt>
      <trkpt lat="45.82938" lon="6.77479">
        <ele>1895</ele>
        <time>2000-01-01T04:56:45.000Z</time>
      </trkpt>
      <trkpt lat="45.82952" lon="6.77428">
        <ele>1881</ele>
        <time>2000-01-01T04:56:55.000Z</time>
      </trkpt>
      <trkpt lat="45.82967" lon="6.77377">
        <ele>1864</ele>
        <time>2000-01-01T04:57:05.000Z</time>
      </trkpt>
      <trkpt lat="45.82981" lon="6.77326">
        <ele>1859</ele>
        <time>2000-01-01T04:57:15.000Z</time>
      </trkpt>
      <trkpt lat="45.83004" lon="6.77247">
        <ele>1824</ele>
        <time>2000-01-01T04:57:25.000Z</time>
      </trkpt>
      <trkpt lat="45.82994" lon="6.77202">
        <ele>1808</ele>
        <time>2000-01-01T04:57:35.000Z</time>
      </trkpt>
      <trkpt lat="45.82984" lon="6.77156">
        <ele>1804</ele>
        <time>2000-01-01T04:57:45.000Z</time>
      </trkpt>
      <trkpt lat="45.82969" lon="6.77092">
        <ele>1790</ele>
        <time>2000-01-01T04:57:55.000Z</time>
      </trkpt>
      <trkpt lat="45.82983" lon="6.77046">
        <ele>1773</ele>
        <time>2000-01-01T04:58:05.000Z</time>
      </trkpt>
      <trkpt lat="45.82997" lon="6.77">
        <ele>1759</ele>
        <time>2000-01-01T04:58:15.000Z</time>
      </trkpt>
      <trkpt lat="45.83024" lon="6.76909">
        <ele>1749</ele>
        <time>2000-01-01T04:58:25.000Z</time>
      </trkpt>
      <trkpt lat="45.83009" lon="6.76939">
        <ele>1739</ele>
        <time>2000-01-01T04:58:35.000Z</time>
      </trkpt>
      <trkpt lat="45.83037" lon="6.76906">
        <ele>1735</ele>
        <time>2000-01-01T04:58:45.000Z</time>
      </trkpt>
      <trkpt lat="45.83066" lon="6.76932">
        <ele>1732</ele>
        <time>2000-01-01T04:58:55.000Z</time>
      </trkpt>
      <trkpt lat="45.83093" lon="6.76935">
        <ele>1718</ele>
        <time>2000-01-01T04:59:05.000Z</time>
      </trkpt>
      <trkpt lat="45.83116" lon="6.76906">
        <ele>1697</ele>
        <time>2000-01-01T04:59:15.000Z</time>
      </trkpt>
      <trkpt lat="45.83162" lon="6.7685">
        <ele>1680</ele>
        <time>2000-01-01T04:59:25.000Z</time>
      </trkpt>
      <trkpt lat="45.83198" lon="6.7683">
        <ele>1670</ele>
        <time>2000-01-01T04:59:35.000Z</time>
      </trkpt>
      <trkpt lat="45.83217" lon="6.76799">
        <ele>1654</ele>
        <time>2000-01-01T04:59:45.000Z</time>
      </trkpt>
      <trkpt lat="45.83249" lon="6.76747">
        <ele>1642</ele>
        <time>2000-01-01T04:59:55.000Z</time>
      </trkpt>
      <trkpt lat="45.8328" lon="6.76735">
        <ele>1637</ele>
        <time>2000-01-01T05:00:05.000Z</time>
      </trkpt>
      <trkpt lat="45.8331" lon="6.76722">
        <ele>1634</ele>
        <time>2000-01-01T05:00:15.000Z</time>
      </trkpt>
      <trkpt lat="45.83345" lon="6.76708">
        <ele>1630</ele>
        <time>2000-01-01T05:00:25.000Z</time>
      </trkpt>
      <trkpt lat="45.83369" lon="6.76678">
        <ele>1627</ele>
        <time>2000-01-01T05:00:35.000Z</time>
      </trkpt>
      <trkpt lat="45.83393" lon="6.76649">
        <ele>1625</ele>
        <time>2000-01-01T05:00:45.000Z</time>
      </trkpt>
      <trkpt lat="45.83419" lon="6.76617">
        <ele>1621</ele>
        <time>2000-01-01T05:00:55.000Z</time>
      </trkpt>
      <trkpt lat="45.83442" lon="6.76568">
        <ele>1617</ele>
        <time>2000-01-01T05:01:05.000Z</time>
      </trkpt>
      <trkpt lat="45.83468" lon="6.76539">
        <ele>1614</ele>
        <time>2000-01-01T05:01:15.000Z</time>
      </trkpt>
      <trkpt lat="45.83495" lon="6.7651">
        <ele>1609</ele>
        <time>2000-01-01T05:01:25.000Z</time>
      </trkpt>
      <trkpt lat="45.83532" lon="6.76468">
        <ele>1604</ele>
        <time>2000-01-01T05:01:35.000Z</time>
      </trkpt>
      <trkpt lat="45.83559" lon="6.76457">
        <ele>1601</ele>
        <time>2000-01-01T05:01:45.000Z</time>
      </trkpt>
      <trkpt lat="45.83598" lon="6.76441">
        <ele>1597</ele>
        <time>2000-01-01T05:01:55.000Z</time>
      </trkpt>
      <trkpt lat="45.83629" lon="6.76418">
        <ele>1595</ele>
        <time>2000-01-01T05:02:05.000Z</time>
      </trkpt>
      <trkpt lat="45.8366" lon="6.76395">
        <ele>1585</ele>
        <time>2000-01-01T05:02:15.000Z</time>
      </trkpt>
      <trkpt lat="45.83719" lon="6.76352">
        <ele>1581</ele>
        <time>2000-01-01T05:02:25.000Z</time>
      </trkpt>
      <trkpt lat="45.83749" lon="6.76316">
        <ele>1578</ele>
        <time>2000-01-01T05:02:35.000Z</time>
      </trkpt>
      <trkpt lat="45.8378" lon="6.7628">
        <ele>1577</ele>
        <time>2000-01-01T05:02:45.000Z</time>
      </trkpt>
      <trkpt lat="45.8381" lon="6.76244">
        <ele>1577</ele>
        <time>2000-01-01T05:02:55.000Z</time>
      </trkpt>
      <trkpt lat="45.8384" lon="6.76208">
        <ele>1570</ele>
        <time>2000-01-01T05:03:05.000Z</time>
      </trkpt>
      <trkpt lat="45.83871" lon="6.76172">
        <ele>1569</ele>
        <time>2000-01-01T05:03:15.000Z</time>
      </trkpt>
      <trkpt lat="45.83906" lon="6.7613">
        <ele>1567</ele>
        <time>2000-01-01T05:03:25.000Z</time>
      </trkpt>
      <trkpt lat="45.83905" lon="6.76093">
        <ele>1566</ele>
        <time>2000-01-01T05:03:35.000Z</time>
      </trkpt>
      <trkpt lat="45.83903" lon="6.76049">
        <ele>1566</ele>
        <time>2000-01-01T05:03:45.000Z</time>
      </trkpt>
      <trkpt lat="45.83875" lon="6.76026">
        <ele>1566</ele>
        <time>2000-01-01T05:03:55.000Z</time>
      </trkpt>
      <trkpt lat="45.83847" lon="6.76002">
        <ele>1567</ele>
        <time>2000-01-01T05:04:05.000Z</time>
      </trkpt>
      <trkpt lat="45.83813" lon="6.75974">
        <ele>1569</ele>
        <time>2000-01-01T05:04:15.000Z</time>
      </trkpt>
      <trkpt lat="45.83815" lon="6.75935">
        <ele>1567</ele>
        <time>2000-01-01T05:04:25.000Z</time>
      </trkpt>
      <trkpt lat="45.83817" lon="6.7588">
        <ele>1567</ele>
        <time>2000-01-01T05:04:35.000Z</time>
      </trkpt>
      <trkpt lat="45.83834" lon="6.75846">
        <ele>1568</ele>
        <time>2000-01-01T05:04:45.000Z</time>
      </trkpt>
      <trkpt lat="45.83858" lon="6.75831">
        <ele>1561</ele>
        <time>2000-01-01T05:04:55.000Z</time>
      </trkpt>
      <trkpt lat="45.8389" lon="6.75812">
        <ele>1568</ele>
        <time>2000-01-01T05:05:05.000Z</time>
      </trkpt>
      <trkpt lat="45.83898" lon="6.75769">
        <ele>1575</ele>
        <time>2000-01-01T05:05:15.000Z</time>
      </trkpt>
      <trkpt lat="45.83915" lon="6.75683">
        <ele>1615</ele>
        <time>2000-01-01T05:05:25.000Z</time>
      </trkpt>
      <trkpt lat="45.83934" lon="6.75653">
        <ele>1622</ele>
        <time>2000-01-01T05:05:35.000Z</time>
      </trkpt>
      <trkpt lat="45.83962" lon="6.75607">
        <ele>1635</ele>
        <time>2000-01-01T05:05:45.000Z</time>
      </trkpt>
      <trkpt lat="45.83922" lon="6.75596">
        <ele>1643</ele>
        <time>2000-01-01T05:05:55.000Z</time>
      </trkpt>
      <trkpt lat="45.83882" lon="6.75586">
        <ele>1645</ele>
        <time>2000-01-01T05:06:05.000Z</time>
      </trkpt>
      <trkpt lat="45.83842" lon="6.75575">
        <ele>1658</ele>
        <time>2000-01-01T05:06:15.000Z</time>
      </trkpt>
      <trkpt lat="45.83802" lon="6.75564">
        <ele>1673</ele>
        <time>2000-01-01T05:06:25.000Z</time>
      </trkpt>
      <trkpt lat="45.83762" lon="6.75553">
        <ele>1684</ele>
        <time>2000-01-01T05:06:35.000Z</time>
      </trkpt>
      <trkpt lat="45.83723" lon="6.75543">
        <ele>1704</ele>
        <time>2000-01-01T05:06:45.000Z</time>
      </trkpt>
      <trkpt lat="45.83667" lon="6.75528">
        <ele>1713</ele>
        <time>2000-01-01T05:06:55.000Z</time>
      </trkpt>
      <trkpt lat="45.83644" lon="6.75499">
        <ele>1728</ele>
        <time>2000-01-01T05:07:05.000Z</time>
      </trkpt>
      <trkpt lat="45.83604" lon="6.75447">
        <ele>1730</ele>
        <time>2000-01-01T05:07:15.000Z</time>
      </trkpt>
      <trkpt lat="45.83613" lon="6.75405">
        <ele>1732</ele>
        <time>2000-01-01T05:07:25.000Z</time>
      </trkpt>
      <trkpt lat="45.8363" lon="6.75329">
        <ele>1733</ele>
        <time>2000-01-01T05:07:35.000Z</time>
      </trkpt>
      <trkpt lat="45.83625" lon="6.7529">
        <ele>1742</ele>
        <time>2000-01-01T05:07:45.000Z</time>
      </trkpt>
      <trkpt lat="45.83618" lon="6.75233">
        <ele>1742</ele>
        <time>2000-01-01T05:07:55.000Z</time>
      </trkpt>
      <trkpt lat="45.83594" lon="6.75205">
        <ele>1739</ele>
        <time>2000-01-01T05:08:05.000Z</time>
      </trkpt>
      <trkpt lat="45.8355" lon="6.75151">
        <ele>1738</ele>
        <time>2000-01-01T05:08:15.000Z</time>
      </trkpt>
      <trkpt lat="45.83556" lon="6.75109">
        <ele>1732</ele>
        <time>2000-01-01T05:08:25.000Z</time>
      </trkpt>
      <trkpt lat="45.83567" lon="6.75035">
        <ele>1722</ele>
        <time>2000-01-01T05:08:35.000Z</time>
      </trkpt>
      <trkpt lat="45.83585" lon="6.74999">
        <ele>1720</ele>
        <time>2000-01-01T05:08:45.000Z</time>
      </trkpt>
      <trkpt lat="45.83621" lon="6.7493">
        <ele>1710</ele>
        <time>2000-01-01T05:08:55.000Z</time>
      </trkpt>
      <trkpt lat="45.83604" lon="6.74894">
        <ele>1704</ele>
        <time>2000-01-01T05:09:05.000Z</time>
      </trkpt>
      <trkpt lat="45.83571" lon="6.74826">
        <ele>1700</ele>
        <time>2000-01-01T05:09:15.000Z</time>
      </trkpt>
      <trkpt lat="45.8354" lon="6.74793">
        <ele>1694</ele>
        <time>2000-01-01T05:09:25.000Z</time>
      </trkpt>
      <trkpt lat="45.83509" lon="6.7476">
        <ele>1692</ele>
        <time>2000-01-01T05:09:35.000Z</time>
      </trkpt>
      <trkpt lat="45.83478" lon="6.74728">
        <ele>1691</ele>
        <time>2000-01-01T05:09:45.000Z</time>
      </trkpt>
      <trkpt lat="45.83447" lon="6.74695">
        <ele>1690</ele>
        <time>2000-01-01T05:09:55.000Z</time>
      </trkpt>
      <trkpt lat="45.83399" lon="6.74644">
        <ele>1685</ele>
        <time>2000-01-01T05:10:05.000Z</time>
      </trkpt>
      <trkpt lat="45.83367" lon="6.74633">
        <ele>1680</ele>
        <time>2000-01-01T05:10:15.000Z</time>
      </trkpt>
      <trkpt lat="45.83336" lon="6.74622">
        <ele>1674</ele>
        <time>2000-01-01T05:10:25.000Z</time>
      </trkpt>
      <trkpt lat="45.83297" lon="6.74609">
        <ele>1671</ele>
        <time>2000-01-01T05:10:35.000Z</time>
      </trkpt>
      <trkpt lat="45.8326" lon="6.74602">
        <ele>1669</ele>
        <time>2000-01-01T05:10:45.000Z</time>
      </trkpt>
      <trkpt lat="45.83222" lon="6.74595">
        <ele>1653</ele>
        <time>2000-01-01T05:10:55.000Z</time>
      </trkpt>
      <trkpt lat="45.83185" lon="6.74588">
        <ele>1650</ele>
        <time>2000-01-01T05:11:05.000Z</time>
      </trkpt>
      <trkpt lat="45.83148" lon="6.74581">
        <ele>1644</ele>
        <time>2000-01-01T05:11:15.000Z</time>
      </trkpt>
      <trkpt lat="45.83108" lon="6.74573">
        <ele>1638</ele>
        <time>2000-01-01T05:11:25.000Z</time>
      </trkpt>
      <trkpt lat="45.83086" lon="6.74541">
        <ele>1628</ele>
        <time>2000-01-01T05:11:35.000Z</time>
      </trkpt>
      <trkpt lat="45.83063" lon="6.7451">
        <ele>1622</ele>
        <time>2000-01-01T05:11:45.000Z</time>
      </trkpt>
      <trkpt lat="45.8304" lon="6.74477">
        <ele>1612</ele>
        <time>2000-01-01T05:11:55.000Z</time>
      </trkpt>
      <trkpt lat="45.83014" lon="6.74451">
        <ele>1603</ele>
        <time>2000-01-01T05:12:05.000Z</time>
      </trkpt>
      <trkpt lat="45.82988" lon="6.74425">
        <ele>1601</ele>
        <time>2000-01-01T05:12:15.000Z</time>
      </trkpt>
      <trkpt lat="45.82958" lon="6.74395">
        <ele>1595</ele>
        <time>2000-01-01T05:12:25.000Z</time>
      </trkpt>
      <trkpt lat="45.82953" lon="6.74361">
        <ele>1587</ele>
        <time>2000-01-01T05:12:35.000Z</time>
      </trkpt>
      <trkpt lat="45.82948" lon="6.74324">
        <ele>1582</ele>
        <time>2000-01-01T05:12:45.000Z</time>
      </trkpt>
      <trkpt lat="45.82916" lon="6.74293">
        <ele>1566</ele>
        <time>2000-01-01T05:12:55.000Z</time>
      </trkpt>
      <trkpt lat="45.82883" lon="6.74263">
        <ele>1558</ele>
        <time>2000-01-01T05:13:05.000Z</time>
      </trkpt>
      <trkpt lat="45.82851" lon="6.74232">
        <ele>1549</ele>
        <time>2000-01-01T05:13:15.000Z</time>
      </trkpt>
      <trkpt lat="45.82818" lon="6.74201">
        <ele>1549</ele>
        <time>2000-01-01T05:13:25.000Z</time>
      </trkpt>
      <trkpt lat="45.82761" lon="6.74147">
        <ele>1543</ele>
        <time>2000-01-01T05:13:35.000Z</time>
      </trkpt>
      <trkpt lat="45.82723" lon="6.7414">
        <ele>1538</ele>
        <time>2000-01-01T05:13:45.000Z</time>
      </trkpt>
      <trkpt lat="45.82686" lon="6.74132">
        <ele>1517</ele>
        <time>2000-01-01T05:13:55.000Z</time>
      </trkpt>
      <trkpt lat="45.82648" lon="6.74125">
        <ele>1505</ele>
        <time>2000-01-01T05:14:05.000Z</time>
      </trkpt>
      <trkpt lat="45.8261" lon="6.74118">
        <ele>1497</ele>
        <time>2000-01-01T05:14:15.000Z</time>
      </trkpt>
      <trkpt lat="45.82564" lon="6.74109">
        <ele>1485</ele>
        <time>2000-01-01T05:14:25.000Z</time>
      </trkpt>
      <trkpt lat="45.82543" lon="6.74092">
        <ele>1477</ele>
        <time>2000-01-01T05:14:35.000Z</time>
      </trkpt>
      <trkpt lat="45.82519" lon="6.74073">
        <ele>1478</ele>
        <time>2000-01-01T05:14:45.000Z</time>
      </trkpt>
      <trkpt lat="45.82521" lon="6.74112">
        <ele>1477</ele>
        <time>2000-01-01T05:14:55.000Z</time>
      </trkpt>
      <trkpt lat="45.82523" lon="6.74165">
        <ele>1476</ele>
        <time>2000-01-01T05:15:05.000Z</time>
      </trkpt>
      <trkpt lat="45.82512" lon="6.74214">
        <ele>1446</ele>
        <time>2000-01-01T05:15:15.000Z</time>
      </trkpt>
      <trkpt lat="45.82501" lon="6.74263">
        <ele>1445</ele>
        <time>2000-01-01T05:15:25.000Z</time>
      </trkpt>
      <trkpt lat="45.82489" lon="6.74311">
        <ele>1439</ele>
        <time>2000-01-01T05:15:35.000Z</time>
      </trkpt>
      <trkpt lat="45.82476" lon="6.7437">
        <ele>1434</ele>
        <time>2000-01-01T05:15:45.000Z</time>
      </trkpt>
      <trkpt lat="45.82452" lon="6.74336">
        <ele>1428</ele>
        <time>2000-01-01T05:15:55.000Z</time>
      </trkpt>
      <trkpt lat="45.82429" lon="6.74302">
        <ele>1425</ele>
        <time>2000-01-01T05:16:05.000Z</time>
      </trkpt>
      <trkpt lat="45.82393" lon="6.7425">
        <ele>1409</ele>
        <time>2000-01-01T05:16:15.000Z</time>
      </trkpt>
      <trkpt lat="45.82374" lon="6.74201">
        <ele>1392</ele>
        <time>2000-01-01T05:16:25.000Z</time>
      </trkpt>
      <trkpt lat="45.82355" lon="6.74152">
        <ele>1387</ele>
        <time>2000-01-01T05:16:35.000Z</time>
      </trkpt>
      <trkpt lat="45.82337" lon="6.74103">
        <ele>1379</ele>
        <time>2000-01-01T05:16:45.000Z</time>
      </trkpt>
      <trkpt lat="45.82318" lon="6.74054">
        <ele>1359</ele>
        <time>2000-01-01T05:16:55.000Z</time>
      </trkpt>
      <trkpt lat="45.82284" lon="6.73966">
        <ele>1347</ele>
        <time>2000-01-01T05:17:05.000Z</time>
      </trkpt>
      <trkpt lat="45.82287" lon="6.73908">
        <ele>1345</ele>
        <time>2000-01-01T05:17:15.000Z</time>
      </trkpt>
      <trkpt lat="45.8229" lon="6.73849">
        <ele>1335</ele>
        <time>2000-01-01T05:17:25.000Z</time>
      </trkpt>
      <trkpt lat="45.82294" lon="6.73791">
        <ele>1320</ele>
        <time>2000-01-01T05:17:35.000Z</time>
      </trkpt>
      <trkpt lat="45.82297" lon="6.73732">
        <ele>1304</ele>
        <time>2000-01-01T05:17:45.000Z</time>
      </trkpt>
      <trkpt lat="45.823" lon="6.73674">
        <ele>1287</ele>
        <time>2000-01-01T05:17:55.000Z</time>
      </trkpt>
      <trkpt lat="45.82303" lon="6.73615">
        <ele>1278</ele>
        <time>2000-01-01T05:18:05.000Z</time>
      </trkpt>
      <trkpt lat="45.82309" lon="6.73516">
        <ele>1257</ele>
        <time>2000-01-01T05:18:15.000Z</time>
      </trkpt>
      <trkpt lat="45.82285" lon="6.73475">
        <ele>1257</ele>
        <time>2000-01-01T05:18:25.000Z</time>
      </trkpt>
      <trkpt lat="45.82291" lon="6.73434">
        <ele>1248</ele>
        <time>2000-01-01T05:18:35.000Z</time>
      </trkpt>
      <trkpt lat="45.82323" lon="6.73421">
        <ele>1248</ele>
        <time>2000-01-01T05:18:45.000Z</time>
      </trkpt>
      <trkpt lat="45.82355" lon="6.73408">
        <ele>1247</ele>
        <time>2000-01-01T05:18:55.000Z</time>
      </trkpt>
      <trkpt lat="45.82401" lon="6.73389">
        <ele>1247</ele>
        <time>2000-01-01T05:19:05.000Z</time>
      </trkpt>
      <trkpt lat="45.8237" lon="6.73372">
        <ele>1244</ele>
        <time>2000-01-01T05:19:15.000Z</time>
      </trkpt>
      <trkpt lat="45.82339" lon="6.73355">
        <ele>1240</ele>
        <time>2000-01-01T05:19:25.000Z</time>
      </trkpt>
      <trkpt lat="45.82298" lon="6.73333">
        <ele>1238</ele>
        <time>2000-01-01T05:19:35.000Z</time>
      </trkpt>
      <trkpt lat="45.82267" lon="6.73326">
        <ele>1238</ele>
        <time>2000-01-01T05:19:45.000Z</time>
      </trkpt>
      <trkpt lat="45.82209" lon="6.73313">
        <ele>1234</ele>
        <time>2000-01-01T05:19:55.000Z</time>
      </trkpt>
      <trkpt lat="45.82208" lon="6.73285">
        <ele>1231</ele>
        <time>2000-01-01T05:20:05.000Z</time>
      </trkpt>
      <trkpt lat="45.82239" lon="6.73263">
        <ele>1228</ele>
        <time>2000-01-01T05:20:15.000Z</time>
      </trkpt>
      <trkpt lat="45.8227" lon="6.73241">
        <ele>1226</ele>
        <time>2000-01-01T05:20:25.000Z</time>
      </trkpt>
      <trkpt lat="45.82327" lon="6.73202">
        <ele>1220</ele>
        <time>2000-01-01T05:20:35.000Z</time>
      </trkpt>
      <trkpt lat="45.82329" lon="6.73182">
        <ele>1218.2</ele>
        <time>2000-01-01T05:20:45.000Z</time>
      </trkpt>
      <trkpt lat="45.82223" lon="6.73148">
        <ele>1214</ele>
        <time>2000-01-01T05:20:55.000Z</time>
      </trkpt>
      <trkpt lat="45.82229" lon="6.73127">
        <ele>1209.3</ele>
        <time>2000-01-01T05:21:05.000Z</time>
      </trkpt>
      <trkpt lat="45.82282" lon="6.73114">
        <ele>1209</ele>
        <time>2000-01-01T05:21:15.000Z</time>
      </trkpt>
      <trkpt lat="45.82285" lon="6.73091">
        <ele>1205.3</ele>
        <time>2000-01-01T05:21:25.000Z</time>
      </trkpt>
      <trkpt lat="45.8221" lon="6.73068">
        <ele>1202</ele>
        <time>2000-01-01T05:21:35.000Z</time>
      </trkpt>
      <trkpt lat="45.82189" lon="6.73047">
        <ele>1195</ele>
        <time>2000-01-01T05:21:45.000Z</time>
      </trkpt>
      <trkpt lat="45.82162" lon="6.7302">
        <ele>1191</ele>
        <time>2000-01-01T05:21:55.000Z</time>
      </trkpt>
      <trkpt lat="45.82158" lon="6.72983">
        <ele>1183</ele>
        <time>2000-01-01T05:22:05.000Z</time>
      </trkpt>
      <trkpt lat="45.82154" lon="6.72935">
        <ele>1182</ele>
        <time>2000-01-01T05:22:15.000Z</time>
      </trkpt>
      <trkpt lat="45.82177" lon="6.72913">
        <ele>1181</ele>
        <time>2000-01-01T05:22:25.000Z</time>
      </trkpt>
      <trkpt lat="45.82211" lon="6.7288">
        <ele>1177</ele>
        <time>2000-01-01T05:22:35.000Z</time>
      </trkpt>
      <trkpt lat="45.82239" lon="6.72863">
        <ele>1174</ele>
        <time>2000-01-01T05:22:45.000Z</time>
      </trkpt>
      <trkpt lat="45.82291" lon="6.72831">
        <ele>1175</ele>
        <time>2000-01-01T05:22:55.000Z</time>
      </trkpt>
      <trkpt lat="45.82324" lon="6.72831">
        <ele>1177</ele>
        <time>2000-01-01T05:23:05.000Z</time>
      </trkpt>
      <trkpt lat="45.82328" lon="6.72847">
        <ele>1176.5</ele>
        <time>2000-01-01T05:23:15.000Z</time>
      </trkpt>
      <trkpt lat="45.82333" lon="6.7283">
        <ele>1177</ele>
        <time>2000-01-01T05:23:25.000Z</time>
      </trkpt>
      <trkpt lat="45.82297" lon="6.72825">
        <ele>1174</ele>
        <time>2000-01-01T05:23:35.000Z</time>
      </trkpt>
      <trkpt lat="45.82313" lon="6.72801">
        <ele>1172</ele>
        <time>2000-01-01T05:23:45.000Z</time>
      </trkpt>
      <trkpt lat="45.8233" lon="6.72777">
        <ele>1169</ele>
        <time>2000-01-01T05:23:55.000Z</time>
      </trkpt>
      <trkpt lat="45.82361" lon="6.72763">
        <ele>1168</ele>
        <time>2000-01-01T05:24:05.000Z</time>
      </trkpt>
      <trkpt lat="45.82363" lon="6.72742">
        <ele>1164.1</ele>
        <time>2000-01-01T05:24:15.000Z</time>
      </trkpt>
      <trkpt lat="45.82286" lon="6.72714">
        <ele>1163</ele>
        <time>2000-01-01T05:24:25.000Z</time>
      </trkpt>
      <trkpt lat="45.82282" lon="6.72689">
        <ele>1160.1</ele>
        <time>2000-01-01T05:24:35.000Z</time>
      </trkpt>
      <trkpt lat="45.82215" lon="6.72694">
        <ele>1162</ele>
        <time>2000-01-01T05:24:45.000Z</time>
      </trkpt>
      <trkpt lat="45.82182" lon="6.72709">
        <ele>1162</ele>
        <time>2000-01-01T05:24:55.000Z</time>
      </trkpt>
      <trkpt lat="45.82149" lon="6.72724">
        <ele>1160</ele>
        <time>2000-01-01T05:25:05.000Z</time>
      </trkpt>
      <trkpt lat="45.82093" lon="6.72749">
        <ele>1160</ele>
        <time>2000-01-01T05:25:15.000Z</time>
      </trkpt>
      <trkpt lat="45.82061" lon="6.7275">
        <ele>1160</ele>
        <time>2000-01-01T05:25:25.000Z</time>
      </trkpt>
      <trkpt lat="45.82029" lon="6.72752">
        <ele>1158</ele>
        <time>2000-01-01T05:25:35.000Z</time>
      </trkpt>
      <trkpt lat="45.81993" lon="6.72753">
        <ele>1158</ele>
        <time>2000-01-01T05:25:45.000Z</time>
      </trkpt>
      <trkpt lat="45.81965" lon="6.72777">
        <ele>1158</ele>
        <time>2000-01-01T05:25:55.000Z</time>
      </trkpt>
      <trkpt lat="45.81938" lon="6.72802">
        <ele>1148</ele>
        <time>2000-01-01T05:26:05.000Z</time>
      </trkpt>
      <trkpt lat="45.81905" lon="6.72831">
        <ele>1149</ele>
        <time>2000-01-01T05:26:15.000Z</time>
      </trkpt>
      <trkpt lat="45.81879" lon="6.72839">
        <ele>1150</ele>
        <time>2000-01-01T05:26:25.000Z</time>
      </trkpt>
      <trkpt lat="45.81845" lon="6.7285">
        <ele>1155</ele>
        <time>2000-01-01T05:26:35.000Z</time>
      </trkpt>
      <trkpt lat="45.81816" lon="6.72847">
        <ele>1155</ele>
        <time>2000-01-01T05:26:45.000Z</time>
      </trkpt>
      <trkpt lat="45.81767" lon="6.72842">
        <ele>1157</ele>
        <time>2000-01-01T05:26:55.000Z</time>
      </trkpt>
      <trkpt lat="45.81737" lon="6.72814">
        <ele>1160</ele>
        <time>2000-01-01T05:27:05.000Z</time>
      </trkpt>
      <trkpt lat="45.81708" lon="6.72786">
        <ele>1160</ele>
        <time>2000-01-01T05:27:15.000Z</time>
      </trkpt>
      <trkpt lat="45.81678" lon="6.72758">
        <ele>1161</ele>
        <time>2000-01-01T05:27:25.000Z</time>
      </trkpt>
      <trkpt lat="45.81646" lon="6.72728">
        <ele>1161</ele>
        <time>2000-01-01T05:27:35.000Z</time>
      </trkpt>
      <trkpt lat="45.81612" lon="6.72723">
        <ele>1161</ele>
        <time>2000-01-01T05:27:45.000Z</time>
      </trkpt>
      <trkpt lat="45.81578" lon="6.72718">
        <ele>1162</ele>
        <time>2000-01-01T05:27:55.000Z</time>
      </trkpt>
      <trkpt lat="45.81519" lon="6.72709">
        <ele>1163</ele>
        <time>2000-01-01T05:28:05.000Z</time>
      </trkpt>
      <trkpt lat="45.81495" lon="6.72721">
        <ele>1166</ele>
        <time>2000-01-01T05:28:15.000Z</time>
      </trkpt>
      <trkpt lat="45.81467" lon="6.72736">
        <ele>1166</ele>
        <time>2000-01-01T05:28:25.000Z</time>
      </trkpt>
      <trkpt lat="45.81449" lon="6.72762">
        <ele>1169</ele>
        <time>2000-01-01T05:28:35.000Z</time>
      </trkpt>
      <trkpt lat="45.81428" lon="6.72793">
        <ele>1171</ele>
        <time>2000-01-01T05:28:45.000Z</time>
      </trkpt>
      <trkpt lat="45.81395" lon="6.72793">
        <ele>1173</ele>
        <time>2000-01-01T05:28:55.000Z</time>
      </trkpt>
      <trkpt lat="45.81362" lon="6.72792">
        <ele>1173</ele>
        <time>2000-01-01T05:29:05.000Z</time>
      </trkpt>
      <trkpt lat="45.81315" lon="6.72792">
        <ele>1171</ele>
        <time>2000-01-01T05:29:15.000Z</time>
      </trkpt>
      <trkpt lat="45.8129" lon="6.72831">
        <ele>1171</ele>
        <time>2000-01-01T05:29:25.000Z</time>
      </trkpt>
      <trkpt lat="45.81291" lon="6.72874">
        <ele>1171</ele>
        <time>2000-01-01T05:29:35.000Z</time>
      </trkpt>
      <trkpt lat="45.81292" lon="6.72948">
        <ele>1174</ele>
        <time>2000-01-01T05:29:45.000Z</time>
      </trkpt>
      <trkpt lat="45.81259" lon="6.72946">
        <ele>1178</ele>
        <time>2000-01-01T05:29:55.000Z</time>
      </trkpt>
      <trkpt lat="45.81237" lon="6.72977">
        <ele>1181</ele>
        <time>2000-01-01T05:30:05.000Z</time>
      </trkpt>
      <trkpt lat="45.81234" lon="6.73015">
        <ele>1183</ele>
        <time>2000-01-01T05:30:15.000Z</time>
      </trkpt>
      <trkpt lat="45.81231" lon="6.73065">
        <ele>1192</ele>
        <time>2000-01-01T05:30:25.000Z</time>
      </trkpt>
      <trkpt lat="45.81199" lon="6.73061">
        <ele>1192</ele>
        <time>2000-01-01T05:30:35.000Z</time>
      </trkpt>
      <trkpt lat="45.81167" lon="6.73057">
        <ele>1197</ele>
        <time>2000-01-01T05:30:45.000Z</time>
      </trkpt>
      <trkpt lat="45.8113" lon="6.73052">
        <ele>1221</ele>
        <time>2000-01-01T05:30:55.000Z</time>
      </trkpt>
      <trkpt lat="45.81106" lon="6.73096">
        <ele>1227</ele>
        <time>2000-01-01T05:31:05.000Z</time>
      </trkpt>
      <trkpt lat="45.81072" lon="6.73087">
        <ele>1236</ele>
        <time>2000-01-01T05:31:15.000Z</time>
      </trkpt>
      <trkpt lat="45.81046" lon="6.73093">
        <ele>1248</ele>
        <time>2000-01-01T05:31:25.000Z</time>
      </trkpt>
      <trkpt lat="45.81013" lon="6.731">
        <ele>1253</ele>
        <time>2000-01-01T05:31:35.000Z</time>
      </trkpt>
      <trkpt lat="45.80982" lon="6.73091">
        <ele>1258</ele>
        <time>2000-01-01T05:31:45.000Z</time>
      </trkpt>
      <trkpt lat="45.8096" lon="6.7307">
        <ele>1264</ele>
        <time>2000-01-01T05:31:55.000Z</time>
      </trkpt>
      <trkpt lat="45.8093" lon="6.73042">
        <ele>1265</ele>
        <time>2000-01-01T05:32:05.000Z</time>
      </trkpt>
      <trkpt lat="45.80895" lon="6.7305">
        <ele>1286</ele>
        <time>2000-01-01T05:32:15.000Z</time>
      </trkpt>
      <trkpt lat="45.80859" lon="6.73057">
        <ele>1301</ele>
        <time>2000-01-01T05:32:25.000Z</time>
      </trkpt>
      <trkpt lat="45.80824" lon="6.73065">
        <ele>1308</ele>
        <time>2000-01-01T05:32:35.000Z</time>
      </trkpt>
      <trkpt lat="45.80783" lon="6.73074">
        <ele>1324</ele>
        <time>2000-01-01T05:32:45.000Z</time>
      </trkpt>
      <trkpt lat="45.80796" lon="6.73083">
        <ele>1318.8</ele>
        <time>2000-01-01T05:32:55.000Z</time>
      </trkpt>
      <trkpt lat="45.80788" lon="6.73113">
        <ele>1335</ele>
        <time>2000-01-01T05:33:05.000Z</time>
      </trkpt>
      <trkpt lat="45.80798" lon="6.73125">
        <ele>1345.8</ele>
        <time>2000-01-01T05:33:15.000Z</time>
      </trkpt>
      <trkpt lat="45.80747" lon="6.73126">
        <ele>1337</ele>
        <time>2000-01-01T05:33:25.000Z</time>
      </trkpt>
      <trkpt lat="45.8072" lon="6.73141">
        <ele>1349</ele>
        <time>2000-01-01T05:33:35.000Z</time>
      </trkpt>
      <trkpt lat="45.80696" lon="6.73138">
        <ele>1362</ele>
        <time>2000-01-01T05:33:45.000Z</time>
      </trkpt>
      <trkpt lat="45.80673" lon="6.73135">
        <ele>1367</ele>
        <time>2000-01-01T05:33:55.000Z</time>
      </trkpt>
      <trkpt lat="45.8065" lon="6.73115">
        <ele>1367</ele>
        <time>2000-01-01T05:34:05.000Z</time>
      </trkpt>
      <trkpt lat="45.80618" lon="6.73089">
        <ele>1360</ele>
        <time>2000-01-01T05:34:15.000Z</time>
      </trkpt>
      <trkpt lat="45.80586" lon="6.73088">
        <ele>1360</ele>
        <time>2000-01-01T05:34:25.000Z</time>
      </trkpt>
      <trkpt lat="45.80559" lon="6.73105">
        <ele>1387</ele>
        <time>2000-01-01T05:34:35.000Z</time>
      </trkpt>
      <trkpt lat="45.80515" lon="6.73134">
        <ele>1417</ele>
        <time>2000-01-01T05:34:45.000Z</time>
      </trkpt>
      <trkpt lat="45.80499" lon="6.73193">
        <ele>1425</ele>
        <time>2000-01-01T05:34:55.000Z</time>
      </trkpt>
      <trkpt lat="45.80474" lon="6.73204">
        <ele>1433</ele>
        <time>2000-01-01T05:35:05.000Z</time>
      </trkpt>
      <trkpt lat="45.80443" lon="6.73217">
        <ele>1427</ele>
        <time>2000-01-01T05:35:15.000Z</time>
      </trkpt>
      <trkpt lat="45.80426" lon="6.73185">
        <ele>1422</ele>
        <time>2000-01-01T05:35:25.000Z</time>
      </trkpt>
      <trkpt lat="45.80403" lon="6.73141">
        <ele>1420</ele>
        <time>2000-01-01T05:35:35.000Z</time>
      </trkpt>
      <trkpt lat="45.8037" lon="6.73146">
        <ele>1418</ele>
        <time>2000-01-01T05:35:45.000Z</time>
      </trkpt>
      <trkpt lat="45.80338" lon="6.73151">
        <ele>1422</ele>
        <time>2000-01-01T05:35:55.000Z</time>
      </trkpt>
      <trkpt lat="45.80296" lon="6.73158">
        <ele>1421</ele>
        <time>2000-01-01T05:36:05.000Z</time>
      </trkpt>
      <trkpt lat="45.80277" lon="6.7313">
        <ele>1420</ele>
        <time>2000-01-01T05:36:15.000Z</time>
      </trkpt>
      <trkpt lat="45.8025" lon="6.7309">
        <ele>1425</ele>
        <time>2000-01-01T05:36:25.000Z</time>
      </trkpt>
      <trkpt lat="45.80214" lon="6.73075">
        <ele>1425</ele>
        <time>2000-01-01T05:36:35.000Z</time>
      </trkpt>
      <trkpt lat="45.80196" lon="6.73052">
        <ele>1425</ele>
        <time>2000-01-01T05:36:45.000Z</time>
      </trkpt>
      <trkpt lat="45.80179" lon="6.7303">
        <ele>1406</ele>
        <time>2000-01-01T05:36:55.000Z</time>
      </trkpt>
      <trkpt lat="45.80155" lon="6.73013">
        <ele>1409</ele>
        <time>2000-01-01T05:37:05.000Z</time>
      </trkpt>
      <trkpt lat="45.80122" lon="6.7299">
        <ele>1413</ele>
        <time>2000-01-01T05:37:15.000Z</time>
      </trkpt>
      <trkpt lat="45.80085" lon="6.72991">
        <ele>1423</ele>
        <time>2000-01-01T05:37:25.000Z</time>
      </trkpt>
      <trkpt lat="45.80068" lon="6.72971">
        <ele>1423</ele>
        <time>2000-01-01T05:37:35.000Z</time>
      </trkpt>
      <trkpt lat="45.80044" lon="6.72981">
        <ele>1412</ele>
        <time>2000-01-01T05:37:45.000Z</time>
      </trkpt>
      <trkpt lat="45.8002" lon="6.72959">
        <ele>1401</ele>
        <time>2000-01-01T05:37:55.000Z</time>
      </trkpt>
      <trkpt lat="45.79985" lon="6.72925">
        <ele>1397</ele>
        <time>2000-01-01T05:38:05.000Z</time>
      </trkpt>
      <trkpt lat="45.79956" lon="6.72905">
        <ele>1394</ele>
        <time>2000-01-01T05:38:15.000Z</time>
      </trkpt>
      <trkpt lat="45.79928" lon="6.72886">
        <ele>1391</ele>
        <time>2000-01-01T05:38:25.000Z</time>
      </trkpt>
      <trkpt lat="45.79898" lon="6.72865">
        <ele>1388</ele>
        <time>2000-01-01T05:38:35.000Z</time>
      </trkpt>
      <trkpt lat="45.79874" lon="6.72858">
        <ele>1392</ele>
        <time>2000-01-01T05:38:45.000Z</time>
      </trkpt>
      <trkpt lat="45.79846" lon="6.7285">
        <ele>1391</ele>
        <time>2000-01-01T05:38:55.000Z</time>
      </trkpt>
      <trkpt lat="45.79818" lon="6.72821">
        <ele>1391</ele>
        <time>2000-01-01T05:39:05.000Z</time>
      </trkpt>
      <trkpt lat="45.79786" lon="6.72824">
        <ele>1390</ele>
        <time>2000-01-01T05:39:15.000Z</time>
      </trkpt>
      <trkpt lat="45.79755" lon="6.72827">
        <ele>1391</ele>
        <time>2000-01-01T05:39:25.000Z</time>
      </trkpt>
      <trkpt lat="45.7972" lon="6.72831">
        <ele>1389</ele>
        <time>2000-01-01T05:39:35.000Z</time>
      </trkpt>
      <trkpt lat="45.79693" lon="6.72792">
        <ele>1393</ele>
        <time>2000-01-01T05:39:45.000Z</time>
      </trkpt>
      <trkpt lat="45.79666" lon="6.72754">
        <ele>1397</ele>
        <time>2000-01-01T05:39:55.000Z</time>
      </trkpt>
      <trkpt lat="45.7964" lon="6.72715">
        <ele>1408</ele>
        <time>2000-01-01T05:40:05.000Z</time>
      </trkpt>
      <trkpt lat="45.79613" lon="6.72676">
        <ele>1415</ele>
        <time>2000-01-01T05:40:15.000Z</time>
      </trkpt>
      <trkpt lat="45.79581" lon="6.7263">
        <ele>1434</ele>
        <time>2000-01-01T05:40:25.000Z</time>
      </trkpt>
      <trkpt lat="45.7956" lon="6.72584">
        <ele>1437</ele>
        <time>2000-01-01T05:40:35.000Z</time>
      </trkpt>
      <trkpt lat="45.79539" lon="6.72538">
        <ele>1445</ele>
        <time>2000-01-01T05:40:45.000Z</time>
      </trkpt>
      <trkpt lat="45.79518" lon="6.72492">
        <ele>1444</ele>
        <time>2000-01-01T05:40:55.000Z</time>
      </trkpt>
      <trkpt lat="45.79497" lon="6.72445">
        <ele>1444</ele>
        <time>2000-01-01T05:41:05.000Z</time>
      </trkpt>
      <trkpt lat="45.79465" lon="6.72376">
        <ele>1445</ele>
        <time>2000-01-01T05:41:15.000Z</time>
      </trkpt>
      <trkpt lat="45.79423" lon="6.7235">
        <ele>1450</ele>
        <time>2000-01-01T05:41:25.000Z</time>
      </trkpt>
      <trkpt lat="45.7941" lon="6.72318">
        <ele>1456</ele>
        <time>2000-01-01T05:41:35.000Z</time>
      </trkpt>
      <trkpt lat="45.79378" lon="6.723">
        <ele>1489</ele>
        <time>2000-01-01T05:41:45.000Z</time>
      </trkpt>
      <trkpt lat="45.79346" lon="6.72283">
        <ele>1489</ele>
        <time>2000-01-01T05:41:55.000Z</time>
      </trkpt>
      <trkpt lat="45.79292" lon="6.72253">
        <ele>1488</ele>
        <time>2000-01-01T05:42:05.000Z</time>
      </trkpt>
      <trkpt lat="45.79258" lon="6.7225">
        <ele>1485</ele>
        <time>2000-01-01T05:42:15.000Z</time>
      </trkpt>
      <trkpt lat="45.79223" lon="6.72247">
        <ele>1467</ele>
        <time>2000-01-01T05:42:25.000Z</time>
      </trkpt>
      <trkpt lat="45.79162" lon="6.72242">
        <ele>1459</ele>
        <time>2000-01-01T05:42:35.000Z</time>
      </trkpt>
      <trkpt lat="45.79138" lon="6.72246">
        <ele>1455</ele>
        <time>2000-01-01T05:42:45.000Z</time>
      </trkpt>
      <trkpt lat="45.79114" lon="6.72251">
        <ele>1452</ele>
        <time>2000-01-01T05:42:55.000Z</time>
      </trkpt>
      <trkpt lat="45.79083" lon="6.72242">
        <ele>1450</ele>
        <time>2000-01-01T05:43:05.000Z</time>
      </trkpt>
      <trkpt lat="45.79052" lon="6.72233">
        <ele>1453</ele>
        <time>2000-01-01T05:43:15.000Z</time>
      </trkpt>
      <trkpt lat="45.79018" lon="6.72224">
        <ele>1452</ele>
        <time>2000-01-01T05:43:25.000Z</time>
      </trkpt>
      <trkpt lat="45.79002" lon="6.72191">
        <ele>1451</ele>
        <time>2000-01-01T05:43:35.000Z</time>
      </trkpt>
      <trkpt lat="45.7898" lon="6.72145">
        <ele>1443</ele>
        <time>2000-01-01T05:43:45.000Z</time>
      </trkpt>
      <trkpt lat="45.78951" lon="6.72123">
        <ele>1443</ele>
        <time>2000-01-01T05:43:55.000Z</time>
      </trkpt>
      <trkpt lat="45.78923" lon="6.72102">
        <ele>1443</ele>
        <time>2000-01-01T05:44:05.000Z</time>
      </trkpt>
      <trkpt lat="45.78887" lon="6.72075">
        <ele>1439</ele>
        <time>2000-01-01T05:44:15.000Z</time>
      </trkpt>
      <trkpt lat="45.78857" lon="6.72094">
        <ele>1435</ele>
        <time>2000-01-01T05:44:25.000Z</time>
      </trkpt>
      <trkpt lat="45.78826" lon="6.72112">
        <ele>1435</ele>
        <time>2000-01-01T05:44:35.000Z</time>
      </trkpt>
      <trkpt lat="45.78785" lon="6.72138">
        <ele>1452</ele>
        <time>2000-01-01T05:44:45.000Z</time>
      </trkpt>
      <trkpt lat="45.78763" lon="6.72139">
        <ele>1454</ele>
        <time>2000-01-01T05:44:55.000Z</time>
      </trkpt>
      <trkpt lat="45.7873" lon="6.72117">
        <ele>1457</ele>
        <time>2000-01-01T05:45:05.000Z</time>
      </trkpt>
      <trkpt lat="45.78698" lon="6.72096">
        <ele>1460</ele>
        <time>2000-01-01T05:45:15.000Z</time>
      </trkpt>
      <trkpt lat="45.78665" lon="6.72074">
        <ele>1454</ele>
        <time>2000-01-01T05:45:25.000Z</time>
      </trkpt>
      <trkpt lat="45.78625" lon="6.72047">
        <ele>1448</ele>
        <time>2000-01-01T05:45:35.000Z</time>
      </trkpt>
      <trkpt lat="45.78592" lon="6.72037">
        <ele>1449</ele>
        <time>2000-01-01T05:45:45.000Z</time>
      </trkpt>
      <trkpt lat="45.7856" lon="6.72028">
        <ele>1451</ele>
        <time>2000-01-01T05:45:55.000Z</time>
      </trkpt>
      <trkpt lat="45.78512" lon="6.72014">
        <ele>1452</ele>
        <time>2000-01-01T05:46:05.000Z</time>
      </trkpt>
      <trkpt lat="45.78478" lon="6.71985">
        <ele>1448</ele>
        <time>2000-01-01T05:46:15.000Z</time>
      </trkpt>
      <trkpt lat="45.78443" lon="6.71956">
        <ele>1449</ele>
        <time>2000-01-01T05:46:25.000Z</time>
      </trkpt>
      <trkpt lat="45.78409" lon="6.71927">
        <ele>1446</ele>
        <time>2000-01-01T05:46:35.000Z</time>
      </trkpt>
      <trkpt lat="45.78374" lon="6.71898">
        <ele>1443</ele>
        <time>2000-01-01T05:46:45.000Z</time>
      </trkpt>
      <trkpt lat="45.7834" lon="6.71869">
        <ele>1440</ele>
        <time>2000-01-01T05:46:55.000Z</time>
      </trkpt>
      <trkpt lat="45.78282" lon="6.7182">
        <ele>1422</ele>
        <time>2000-01-01T05:47:05.000Z</time>
      </trkpt>
      <trkpt lat="45.78275" lon="6.71778">
        <ele>1418</ele>
        <time>2000-01-01T05:47:15.000Z</time>
      </trkpt>
      <trkpt lat="45.78264" lon="6.71705">
        <ele>1410</ele>
        <time>2000-01-01T05:47:25.000Z</time>
      </trkpt>
      <trkpt lat="45.78243" lon="6.71679">
        <ele>1411</ele>
        <time>2000-01-01T05:47:35.000Z</time>
      </trkpt>
      <trkpt lat="45.78212" lon="6.71641">
        <ele>1412</ele>
        <time>2000-01-01T05:47:45.000Z</time>
      </trkpt>
      <trkpt lat="45.78188" lon="6.71626">
        <ele>1412</ele>
        <time>2000-01-01T05:47:55.000Z</time>
      </trkpt>
      <trkpt lat="45.78158" lon="6.71606">
        <ele>1412</ele>
        <time>2000-01-01T05:48:05.000Z</time>
      </trkpt>
      <trkpt lat="45.78164" lon="6.71571">
        <ele>1411</ele>
        <time>2000-01-01T05:48:15.000Z</time>
      </trkpt>
      <trkpt lat="45.78171" lon="6.71531">
        <ele>1410</ele>
        <time>2000-01-01T05:48:25.000Z</time>
      </trkpt>
      <trkpt lat="45.78131" lon="6.71524">
        <ele>1409</ele>
        <time>2000-01-01T05:48:35.000Z</time>
      </trkpt>
      <trkpt lat="45.7809" lon="6.71517">
        <ele>1412</ele>
        <time>2000-01-01T05:48:45.000Z</time>
      </trkpt>
      <trkpt lat="45.7805" lon="6.7151">
        <ele>1415</ele>
        <time>2000-01-01T05:48:55.000Z</time>
      </trkpt>
      <trkpt lat="45.78009" lon="6.71503">
        <ele>1431</ele>
        <time>2000-01-01T05:49:05.000Z</time>
      </trkpt>
      <trkpt lat="45.77969" lon="6.71496">
        <ele>1442</ele>
        <time>2000-01-01T05:49:15.000Z</time>
      </trkpt>
      <trkpt lat="45.77928" lon="6.71489">
        <ele>1445</ele>
        <time>2000-01-01T05:49:25.000Z</time>
      </trkpt>
      <trkpt lat="45.77865" lon="6.71478">
        <ele>1460</ele>
        <time>2000-01-01T05:49:35.000Z</time>
      </trkpt>
      <trkpt lat="45.77837" lon="6.71446">
        <ele>1468</ele>
        <time>2000-01-01T05:49:45.000Z</time>
      </trkpt>
      <trkpt lat="45.77808" lon="6.71441">
        <ele>1469</ele>
        <time>2000-01-01T05:49:55.000Z</time>
      </trkpt>
      <trkpt lat="45.77771" lon="6.71456">
        <ele>1473</ele>
        <time>2000-01-01T05:50:05.000Z</time>
      </trkpt>
      <trkpt lat="45.77734" lon="6.7147">
        <ele>1486</ele>
        <time>2000-01-01T05:50:15.000Z</time>
      </trkpt>
      <trkpt lat="45.77697" lon="6.71485">
        <ele>1490</ele>
        <time>2000-01-01T05:50:25.000Z</time>
      </trkpt>
      <trkpt lat="45.77661" lon="6.71499">
        <ele>1495</ele>
        <time>2000-01-01T05:50:35.000Z</time>
      </trkpt>
      <trkpt lat="45.77611" lon="6.71519">
        <ele>1516</ele>
        <time>2000-01-01T05:50:45.000Z</time>
      </trkpt>
      <trkpt lat="45.77581" lon="6.71542">
        <ele>1529</ele>
        <time>2000-01-01T05:50:55.000Z</time>
      </trkpt>
      <trkpt lat="45.77552" lon="6.71565">
        <ele>1526</ele>
        <time>2000-01-01T05:51:05.000Z</time>
      </trkpt>
      <trkpt lat="45.77506" lon="6.716">
        <ele>1534</ele>
        <time>2000-01-01T05:51:15.000Z</time>
      </trkpt>
      <trkpt lat="45.77476" lon="6.71595">
        <ele>1543</ele>
        <time>2000-01-01T05:51:25.000Z</time>
      </trkpt>
      <trkpt lat="45.77426" lon="6.71587">
        <ele>1541</ele>
        <time>2000-01-01T05:51:35.000Z</time>
      </trkpt>
      <trkpt lat="45.77404" lon="6.71603">
        <ele>1553</ele>
        <time>2000-01-01T05:51:45.000Z</time>
      </trkpt>
      <trkpt lat="45.77393" lon="6.71586">
        <ele>1532.2</ele>
        <time>2000-01-01T05:51:55.000Z</time>
      </trkpt>
      <trkpt lat="45.77171" lon="6.71569">
        <ele>1557</ele>
        <time>2000-01-01T05:52:05.000Z</time>
      </trkpt>
      <trkpt lat="45.77136" lon="6.71551">
        <ele>1558</ele>
        <time>2000-01-01T05:52:15.000Z</time>
      </trkpt>
      <trkpt lat="45.77101" lon="6.71532">
        <ele>1558</ele>
        <time>2000-01-01T05:52:25.000Z</time>
      </trkpt>
      <trkpt lat="45.77067" lon="6.71514">
        <ele>1559</ele>
        <time>2000-01-01T05:52:35.000Z</time>
      </trkpt>
      <trkpt lat="45.77006" lon="6.71482">
        <ele>1564</ele>
        <time>2000-01-01T05:52:45.000Z</time>
      </trkpt>
      <trkpt lat="45.76969" lon="6.71468">
        <ele>1566</ele>
        <time>2000-01-01T05:52:55.000Z</time>
      </trkpt>
      <trkpt lat="45.76932" lon="6.71454">
        <ele>1568</ele>
        <time>2000-01-01T05:53:05.000Z</time>
      </trkpt>
      <trkpt lat="45.76895" lon="6.7144">
        <ele>1575</ele>
        <time>2000-01-01T05:53:15.000Z</time>
      </trkpt>
      <trkpt lat="45.76857" lon="6.71426">
        <ele>1575</ele>
        <time>2000-01-01T05:53:25.000Z</time>
      </trkpt>
      <trkpt lat="45.76803" lon="6.71405">
        <ele>1572</ele>
        <time>2000-01-01T05:53:35.000Z</time>
      </trkpt>
      <trkpt lat="45.76773" lon="6.7138">
        <ele>1571</ele>
        <time>2000-01-01T05:53:45.000Z</time>
      </trkpt>
      <trkpt lat="45.76742" lon="6.71356">
        <ele>1571</ele>
        <time>2000-01-01T05:53:55.000Z</time>
      </trkpt>
      <trkpt lat="45.76686" lon="6.7131">
        <ele>1573</ele>
        <time>2000-01-01T05:54:05.000Z</time>
      </trkpt>
      <trkpt lat="45.76644" lon="6.71295">
        <ele>1576</ele>
        <time>2000-01-01T05:54:15.000Z</time>
      </trkpt>
      <trkpt lat="45.76601" lon="6.7128">
        <ele>1577</ele>
        <time>2000-01-01T05:54:25.000Z</time>
      </trkpt>
      <trkpt lat="45.76559" lon="6.71264">
        <ele>1578</ele>
        <time>2000-01-01T05:54:35.000Z</time>
      </trkpt>
      <trkpt lat="45.76516" lon="6.71249">
        <ele>1581</ele>
        <time>2000-01-01T05:54:45.000Z</time>
      </trkpt>
      <trkpt lat="45.76474" lon="6.71234">
        <ele>1591</ele>
        <time>2000-01-01T05:54:55.000Z</time>
      </trkpt>
      <trkpt lat="45.76432" lon="6.71219">
        <ele>1594</ele>
        <time>2000-01-01T05:55:05.000Z</time>
      </trkpt>
      <trkpt lat="45.76389" lon="6.71203">
        <ele>1596</ele>
        <time>2000-01-01T05:55:15.000Z</time>
      </trkpt>
      <trkpt lat="45.76347" lon="6.71188">
        <ele>1596</ele>
        <time>2000-01-01T05:55:25.000Z</time>
      </trkpt>
      <trkpt lat="45.76305" lon="6.71173">
        <ele>1597</ele>
        <time>2000-01-01T05:55:35.000Z</time>
      </trkpt>
      <trkpt lat="45.76262" lon="6.71158">
        <ele>1609</ele>
        <time>2000-01-01T05:55:45.000Z</time>
      </trkpt>
      <trkpt lat="45.7622" lon="6.71143">
        <ele>1613</ele>
        <time>2000-01-01T05:55:55.000Z</time>
      </trkpt>
      <trkpt lat="45.76177" lon="6.71127">
        <ele>1624</ele>
        <time>2000-01-01T05:56:05.000Z</time>
      </trkpt>
      <trkpt lat="45.76135" lon="6.71112">
        <ele>1633</ele>
        <time>2000-01-01T05:56:15.000Z</time>
      </trkpt>
      <trkpt lat="45.76084" lon="6.71094">
        <ele>1634</ele>
        <time>2000-01-01T05:56:25.000Z</time>
      </trkpt>
      <trkpt lat="45.76057" lon="6.71105">
        <ele>1636</ele>
        <time>2000-01-01T05:56:35.000Z</time>
      </trkpt>
      <trkpt lat="45.76018" lon="6.71121">
        <ele>1654</ele>
        <time>2000-01-01T05:56:45.000Z</time>
      </trkpt>
      <trkpt lat="45.75987" lon="6.711">
        <ele>1667</ele>
        <time>2000-01-01T05:56:55.000Z</time>
      </trkpt>
      <trkpt lat="45.75955" lon="6.71079">
        <ele>1677</ele>
        <time>2000-01-01T05:57:05.000Z</time>
      </trkpt>
      <trkpt lat="45.75901" lon="6.71043">
        <ele>1686</ele>
        <time>2000-01-01T05:57:15.000Z</time>
      </trkpt>
      <trkpt lat="45.75877" lon="6.71058">
        <ele>1695</ele>
        <time>2000-01-01T05:57:25.000Z</time>
      </trkpt>
      <trkpt lat="45.75845" lon="6.71077">
        <ele>1695</ele>
        <time>2000-01-01T05:57:35.000Z</time>
      </trkpt>
      <trkpt lat="45.75819" lon="6.71069">
        <ele>1703</ele>
        <time>2000-01-01T05:57:45.000Z</time>
      </trkpt>
      <trkpt lat="45.75796" lon="6.71086">
        <ele>1710</ele>
        <time>2000-01-01T05:57:55.000Z</time>
      </trkpt>
      <trkpt lat="45.75767" lon="6.71108">
        <ele>1713</ele>
        <time>2000-01-01T05:58:05.000Z</time>
      </trkpt>
      <trkpt lat="45.75742" lon="6.7108">
        <ele>1713</ele>
        <time>2000-01-01T05:58:15.000Z</time>
      </trkpt>
      <trkpt lat="45.75716" lon="6.71052">
        <ele>1722</ele>
        <time>2000-01-01T05:58:25.000Z</time>
      </trkpt>
      <trkpt lat="45.75688" lon="6.7102">
        <ele>1728</ele>
        <time>2000-01-01T05:58:35.000Z</time>
      </trkpt>
      <trkpt lat="45.75673" lon="6.7098">
        <ele>1736</ele>
        <time>2000-01-01T05:58:45.000Z</time>
      </trkpt>
      <trkpt lat="45.75659" lon="6.7094">
        <ele>1754</ele>
        <time>2000-01-01T05:58:55.000Z</time>
      </trkpt>
      <trkpt lat="45.75644" lon="6.70898">
        <ele>1757</ele>
        <time>2000-01-01T05:59:05.000Z</time>
      </trkpt>
      <trkpt lat="45.75626" lon="6.70874">
        <ele>1767</ele>
        <time>2000-01-01T05:59:15.000Z</time>
      </trkpt>
      <trkpt lat="45.75605" lon="6.70846">
        <ele>1768</ele>
        <time>2000-01-01T05:59:25.000Z</time>
      </trkpt>
      <trkpt lat="45.75583" lon="6.70828">
        <ele>1769</ele>
        <time>2000-01-01T05:59:35.000Z</time>
      </trkpt>
      <trkpt lat="45.75559" lon="6.70807">
        <ele>1770</ele>
        <time>2000-01-01T05:59:45.000Z</time>
      </trkpt>
      <trkpt lat="45.75542" lon="6.7082">
        <ele>1770</ele>
        <time>2000-01-01T05:59:55.000Z</time>
      </trkpt>
      <trkpt lat="45.75513" lon="6.70808">
        <ele>1779</ele>
        <time>2000-01-01T06:00:05.000Z</time>
      </trkpt>
      <trkpt lat="45.75458" lon="6.70785">
        <ele>1805</ele>
        <time>2000-01-01T06:00:15.000Z</time>
      </trkpt>
      <trkpt lat="45.75427" lon="6.70816">
        <ele>1808</ele>
        <time>2000-01-01T06:00:25.000Z</time>
      </trkpt>
      <trkpt lat="45.75395" lon="6.70847">
        <ele>1808</ele>
        <time>2000-01-01T06:00:35.000Z</time>
      </trkpt>
      <trkpt lat="45.75364" lon="6.70877">
        <ele>1808</ele>
        <time>2000-01-01T06:00:45.000Z</time>
      </trkpt>
      <trkpt lat="45.75332" lon="6.70908">
        <ele>1818</ele>
        <time>2000-01-01T06:00:55.000Z</time>
      </trkpt>
      <trkpt lat="45.75294" lon="6.70946">
        <ele>1866</ele>
        <time>2000-01-01T06:01:05.000Z</time>
      </trkpt>
      <trkpt lat="45.75257" lon="6.70939">
        <ele>1874</ele>
        <time>2000-01-01T06:01:15.000Z</time>
      </trkpt>
      <trkpt lat="45.75249" lon="6.70916">
        <ele>1867.4</ele>
        <time>2000-01-01T06:01:25.000Z</time>
      </trkpt>
      <trkpt lat="45.75205" lon="6.70954">
        <ele>1889</ele>
        <time>2000-01-01T06:01:35.000Z</time>
      </trkpt>
      <trkpt lat="45.75181" lon="6.70957">
        <ele>1896</ele>
        <time>2000-01-01T06:01:45.000Z</time>
      </trkpt>
      <trkpt lat="45.75158" lon="6.7096">
        <ele>1907</ele>
        <time>2000-01-01T06:01:55.000Z</time>
      </trkpt>
      <trkpt lat="45.75129" lon="6.70982">
        <ele>1913</ele>
        <time>2000-01-01T06:02:05.000Z</time>
      </trkpt>
      <trkpt lat="45.75099" lon="6.71003">
        <ele>1917</ele>
        <time>2000-01-01T06:02:15.000Z</time>
      </trkpt>
      <trkpt lat="45.7506" lon="6.71032">
        <ele>1927</ele>
        <time>2000-01-01T06:02:25.000Z</time>
      </trkpt>
      <trkpt lat="45.75043" lon="6.71059">
        <ele>1921</ele>
        <time>2000-01-01T06:02:35.000Z</time>
      </trkpt>
      <trkpt lat="45.75022" lon="6.71091">
        <ele>1921</ele>
        <time>2000-01-01T06:02:45.000Z</time>
      </trkpt>
      <trkpt lat="45.75016" lon="6.71124">
        <ele>1921</ele>
        <time>2000-01-01T06:02:55.000Z</time>
      </trkpt>
      <trkpt lat="45.75009" lon="6.7116">
        <ele>1920</ele>
        <time>2000-01-01T06:03:05.000Z</time>
      </trkpt>
      <trkpt lat="45.75021" lon="6.71198">
        <ele>1919</ele>
        <time>2000-01-01T06:03:15.000Z</time>
      </trkpt>
      <trkpt lat="45.75041" lon="6.71259">
        <ele>1917</ele>
        <time>2000-01-01T06:03:25.000Z</time>
      </trkpt>
      <trkpt lat="45.7504" lon="6.7131">
        <ele>1917</ele>
        <time>2000-01-01T06:03:35.000Z</time>
      </trkpt>
      <trkpt lat="45.7504" lon="6.7136">
        <ele>1920</ele>
        <time>2000-01-01T06:03:45.000Z</time>
      </trkpt>
      <trkpt lat="45.75039" lon="6.71411">
        <ele>1925</ele>
        <time>2000-01-01T06:03:55.000Z</time>
      </trkpt>
      <trkpt lat="45.75039" lon="6.71463">
        <ele>1930</ele>
        <time>2000-01-01T06:04:05.000Z</time>
      </trkpt>
      <trkpt lat="45.75022" lon="6.71516">
        <ele>1932</ele>
        <time>2000-01-01T06:04:15.000Z</time>
      </trkpt>
      <trkpt lat="45.75025" lon="6.71558">
        <ele>1938</ele>
        <time>2000-01-01T06:04:25.000Z</time>
      </trkpt>
      <trkpt lat="45.75031" lon="6.7163">
        <ele>1945</ele>
        <time>2000-01-01T06:04:35.000Z</time>
      </trkpt>
      <trkpt lat="45.75047" lon="6.7167">
        <ele>1947</ele>
        <time>2000-01-01T06:04:45.000Z</time>
      </trkpt>
      <trkpt lat="45.75063" lon="6.71711">
        <ele>1957</ele>
        <time>2000-01-01T06:04:55.000Z</time>
      </trkpt>
      <trkpt lat="45.75082" lon="6.7176">
        <ele>1965</ele>
        <time>2000-01-01T06:05:05.000Z</time>
      </trkpt>
      <trkpt lat="45.75093" lon="6.71807">
        <ele>1972</ele>
        <time>2000-01-01T06:05:15.000Z</time>
      </trkpt>
      <trkpt lat="45.75104" lon="6.71854">
        <ele>1982</ele>
        <time>2000-01-01T06:05:25.000Z</time>
      </trkpt>
      <trkpt lat="45.75123" lon="6.71939">
        <ele>1982</ele>
        <time>2000-01-01T06:05:35.000Z</time>
      </trkpt>
      <trkpt lat="45.75122" lon="6.71994">
        <ele>1986</ele>
        <time>2000-01-01T06:05:45.000Z</time>
      </trkpt>
      <trkpt lat="45.75134" lon="6.72031">
        <ele>1998</ele>
        <time>2000-01-01T06:05:55.000Z</time>
      </trkpt>
      <trkpt lat="45.75153" lon="6.72089">
        <ele>2000</ele>
        <time>2000-01-01T06:06:05.000Z</time>
      </trkpt>
      <trkpt lat="45.75152" lon="6.72142">
        <ele>2009</ele>
        <time>2000-01-01T06:06:15.000Z</time>
      </trkpt>
      <trkpt lat="45.75152" lon="6.72195">
        <ele>2015</ele>
        <time>2000-01-01T06:06:25.000Z</time>
      </trkpt>
      <trkpt lat="45.75151" lon="6.72248">
        <ele>2023</ele>
        <time>2000-01-01T06:06:35.000Z</time>
      </trkpt>
      <trkpt lat="45.7515" lon="6.72336">
        <ele>2042</ele>
        <time>2000-01-01T06:06:45.000Z</time>
      </trkpt>
      <trkpt lat="45.75124" lon="6.72335">
        <ele>2047</ele>
        <time>2000-01-01T06:06:55.000Z</time>
      </trkpt>
      <trkpt lat="45.75117" lon="6.72368">
        <ele>2056</ele>
        <time>2000-01-01T06:07:05.000Z</time>
      </trkpt>
      <trkpt lat="45.7511" lon="6.72403">
        <ele>2065</ele>
        <time>2000-01-01T06:07:15.000Z</time>
      </trkpt>
      <trkpt lat="45.75131" lon="6.72422">
        <ele>2068</ele>
        <time>2000-01-01T06:07:25.000Z</time>
      </trkpt>
      <trkpt lat="45.75154" lon="6.72444">
        <ele>2081</ele>
        <time>2000-01-01T06:07:35.000Z</time>
      </trkpt>
      <trkpt lat="45.75168" lon="6.72474">
        <ele>2091</ele>
        <time>2000-01-01T06:07:45.000Z</time>
      </trkpt>
      <trkpt lat="45.75185" lon="6.72509">
        <ele>2102</ele>
        <time>2000-01-01T06:07:55.000Z</time>
      </trkpt>
      <trkpt lat="45.75211" lon="6.7253">
        <ele>2108</ele>
        <time>2000-01-01T06:08:05.000Z</time>
      </trkpt>
      <trkpt lat="45.75258" lon="6.72567">
        <ele>2123</ele>
        <time>2000-01-01T06:08:15.000Z</time>
      </trkpt>
      <trkpt lat="45.7528" lon="6.72594">
        <ele>2140</ele>
        <time>2000-01-01T06:08:25.000Z</time>
      </trkpt>
      <trkpt lat="45.75317" lon="6.7264">
        <ele>2155</ele>
        <time>2000-01-01T06:08:35.000Z</time>
      </trkpt>
      <trkpt lat="45.75345" lon="6.72658">
        <ele>2156</ele>
        <time>2000-01-01T06:08:45.000Z</time>
      </trkpt>
      <trkpt lat="45.75395" lon="6.72692">
        <ele>2162</ele>
        <time>2000-01-01T06:08:55.000Z</time>
      </trkpt>
      <trkpt lat="45.75421" lon="6.7273">
        <ele>2168</ele>
        <time>2000-01-01T06:09:05.000Z</time>
      </trkpt>
      <trkpt lat="45.75447" lon="6.72768">
        <ele>2175</ele>
        <time>2000-01-01T06:09:15.000Z</time>
      </trkpt>
      <trkpt lat="45.75473" lon="6.72806">
        <ele>2180</ele>
        <time>2000-01-01T06:09:25.000Z</time>
      </trkpt>
      <trkpt lat="45.7552" lon="6.72875">
        <ele>2182</ele>
        <time>2000-01-01T06:09:35.000Z</time>
      </trkpt>
      <trkpt lat="45.75526" lon="6.72926">
        <ele>2181</ele>
        <time>2000-01-01T06:09:45.000Z</time>
      </trkpt>
      <trkpt lat="45.75533" lon="6.72976">
        <ele>2181</ele>
        <time>2000-01-01T06:09:55.000Z</time>
      </trkpt>
      <trkpt lat="45.75539" lon="6.73027">
        <ele>2188</ele>
        <time>2000-01-01T06:10:05.000Z</time>
      </trkpt>
      <trkpt lat="45.75547" lon="6.73091">
        <ele>2188</ele>
        <time>2000-01-01T06:10:15.000Z</time>
      </trkpt>
      <trkpt lat="45.75563" lon="6.7312">
        <ele>2185</ele>
        <time>2000-01-01T06:10:25.000Z</time>
      </trkpt>
      <trkpt lat="45.75582" lon="6.73155">
        <ele>2184</ele>
        <time>2000-01-01T06:10:35.000Z</time>
      </trkpt>
      <trkpt lat="45.75607" lon="6.73175">
        <ele>2187</ele>
        <time>2000-01-01T06:10:45.000Z</time>
      </trkpt>
      <trkpt lat="45.75643" lon="6.73204">
        <ele>2191</ele>
        <time>2000-01-01T06:10:55.000Z</time>
      </trkpt>
      <trkpt lat="45.75653" lon="6.73257">
        <ele>2198</ele>
        <time>2000-01-01T06:11:05.000Z</time>
      </trkpt>
      <trkpt lat="45.75664" lon="6.73309">
        <ele>2206</ele>
        <time>2000-01-01T06:11:15.000Z</time>
      </trkpt>
      <trkpt lat="45.75674" lon="6.73362">
        <ele>2208</ele>
        <time>2000-01-01T06:11:25.000Z</time>
      </trkpt>
      <trkpt lat="45.75685" lon="6.73415">
        <ele>2211</ele>
        <time>2000-01-01T06:11:35.000Z</time>
      </trkpt>
      <trkpt lat="45.75699" lon="6.73485">
        <ele>2218</ele>
        <time>2000-01-01T06:11:45.000Z</time>
      </trkpt>
      <trkpt lat="45.75697" lon="6.73526">
        <ele>2225</ele>
        <time>2000-01-01T06:11:55.000Z</time>
      </trkpt>
      <trkpt lat="45.75693" lon="6.73593">
        <ele>2237</ele>
        <time>2000-01-01T06:12:05.000Z</time>
      </trkpt>
      <trkpt lat="45.75709" lon="6.73638">
        <ele>2254</ele>
        <time>2000-01-01T06:12:15.000Z</time>
      </trkpt>
      <trkpt lat="45.75691" lon="6.73664">
        <ele>2262</ele>
        <time>2000-01-01T06:12:25.000Z</time>
      </trkpt>
      <trkpt lat="45.75671" lon="6.73695">
        <ele>2276</ele>
        <time>2000-01-01T06:12:35.000Z</time>
      </trkpt>
      <trkpt lat="45.75677" lon="6.7373">
        <ele>2285</ele>
        <time>2000-01-01T06:12:45.000Z</time>
      </trkpt>
      <trkpt lat="45.75683" lon="6.73769">
        <ele>2295</ele>
        <time>2000-01-01T06:12:55.000Z</time>
      </trkpt>
      <trkpt lat="45.75649" lon="6.73778">
        <ele>2306</ele>
        <time>2000-01-01T06:13:05.000Z</time>
      </trkpt>
      <trkpt lat="45.75672" lon="6.73801">
        <ele>2313</ele>
        <time>2000-01-01T06:13:15.000Z</time>
      </trkpt>
      <trkpt lat="45.75685" lon="6.73835">
        <ele>2322</ele>
        <time>2000-01-01T06:13:25.000Z</time>
      </trkpt>
      <trkpt lat="45.75704" lon="6.73881">
        <ele>2322</ele>
        <time>2000-01-01T06:13:35.000Z</time>
      </trkpt>
      <trkpt lat="45.75714" lon="6.73928">
        <ele>2323</ele>
        <time>2000-01-01T06:13:45.000Z</time>
      </trkpt>
      <trkpt lat="45.75724" lon="6.73974">
        <ele>2332</ele>
        <time>2000-01-01T06:13:55.000Z</time>
      </trkpt>
      <trkpt lat="45.75741" lon="6.74052">
        <ele>2364</ele>
        <time>2000-01-01T06:14:05.000Z</time>
      </trkpt>
      <trkpt lat="45.75723" lon="6.7406">
        <ele>2373</ele>
        <time>2000-01-01T06:14:15.000Z</time>
      </trkpt>
      <trkpt lat="45.75721" lon="6.74124">
        <ele>2393</ele>
        <time>2000-01-01T06:14:25.000Z</time>
      </trkpt>
      <trkpt lat="45.75697" lon="6.7414">
        <ele>2405</ele>
        <time>2000-01-01T06:14:35.000Z</time>
      </trkpt>
      <trkpt lat="45.75693" lon="6.74163">
        <ele>2422.9</ele>
        <time>2000-01-01T06:14:45.000Z</time>
      </trkpt>
      <trkpt lat="45.75676" lon="6.74161">
        <ele>2430</ele>
        <time>2000-01-01T06:14:55.000Z</time>
      </trkpt>
      <trkpt lat="45.75656" lon="6.74208">
        <ele>2465</ele>
        <time>2000-01-01T06:15:05.000Z</time>
      </trkpt>
      <trkpt lat="45.75641" lon="6.74205">
        <ele>2472.6</ele>
        <time>2000-01-01T06:15:15.000Z</time>
      </trkpt>
      <trkpt lat="45.75633" lon="6.74255">
        <ele>2487</ele>
        <time>2000-01-01T06:15:25.000Z</time>
      </trkpt>
      <trkpt lat="45.75601" lon="6.74261">
        <ele>2506</ele>
        <time>2000-01-01T06:15:35.000Z</time>
      </trkpt>
      <trkpt lat="45.75579" lon="6.74288">
        <ele>2544</ele>
        <time>2000-01-01T06:15:45.000Z</time>
      </trkpt>
      <trkpt lat="45.75544" lon="6.74332">
        <ele>2593</ele>
        <time>2000-01-01T06:15:55.000Z</time>
      </trkpt>
      <trkpt lat="45.75516" lon="6.74344">
        <ele>2612</ele>
        <time>2000-01-01T06:16:05.000Z</time>
      </trkpt>
      <trkpt lat="45.75471" lon="6.74364">
        <ele>2648</ele>
        <time>2000-01-01T06:16:15.000Z</time>
      </trkpt>
      <trkpt lat="45.75477" lon="6.74406">
        <ele>2665</ele>
        <time>2000-01-01T06:16:25.000Z</time>
      </trkpt>
      <trkpt lat="45.75488" lon="6.74482">
        <ele>2666</ele>
        <time>2000-01-01T06:16:35.000Z</time>
      </trkpt>
      <trkpt lat="45.7546" lon="6.74531">
        <ele>2658</ele>
        <time>2000-01-01T06:16:45.000Z</time>
      </trkpt>
      <trkpt lat="45.75459" lon="6.74584">
        <ele>2650</ele>
        <time>2000-01-01T06:16:55.000Z</time>
      </trkpt>
      <trkpt lat="45.75444" lon="6.74614">
        <ele>2643</ele>
        <time>2000-01-01T06:17:05.000Z</time>
      </trkpt>
      <trkpt lat="45.75426" lon="6.7465">
        <ele>2624</ele>
        <time>2000-01-01T06:17:15.000Z</time>
      </trkpt>
      <trkpt lat="45.75418" lon="6.74687">
        <ele>2619</ele>
        <time>2000-01-01T06:17:25.000Z</time>
      </trkpt>
      <trkpt lat="45.75408" lon="6.74735">
        <ele>2618</ele>
        <time>2000-01-01T06:17:35.000Z</time>
      </trkpt>
      <trkpt lat="45.75386" lon="6.74753">
        <ele>2617</ele>
        <time>2000-01-01T06:17:45.000Z</time>
      </trkpt>
      <trkpt lat="45.75361" lon="6.74775">
        <ele>2611</ele>
        <time>2000-01-01T06:17:55.000Z</time>
      </trkpt>
      <trkpt lat="45.75353" lon="6.74808">
        <ele>2610</ele>
        <time>2000-01-01T06:18:05.000Z</time>
      </trkpt>
      <trkpt lat="45.75344" lon="6.74845">
        <ele>2606</ele>
        <time>2000-01-01T06:18:15.000Z</time>
      </trkpt>
      <trkpt lat="45.75348" lon="6.74896">
        <ele>2609</ele>
        <time>2000-01-01T06:18:25.000Z</time>
      </trkpt>
      <trkpt lat="45.75352" lon="6.74948">
        <ele>2609</ele>
        <time>2000-01-01T06:18:35.000Z</time>
      </trkpt>
      <trkpt lat="45.75356" lon="6.74999">
        <ele>2609</ele>
        <time>2000-01-01T06:18:45.000Z</time>
      </trkpt>
      <trkpt lat="45.75362" lon="6.75067">
        <ele>2597</ele>
        <time>2000-01-01T06:18:55.000Z</time>
      </trkpt>
      <trkpt lat="45.75372" lon="6.75099">
        <ele>2597</ele>
        <time>2000-01-01T06:19:05.000Z</time>
      </trkpt>
      <trkpt lat="45.75382" lon="6.75135">
        <ele>2598</ele>
        <time>2000-01-01T06:19:15.000Z</time>
      </trkpt>
      <trkpt lat="45.75417" lon="6.75149">
        <ele>2601</ele>
        <time>2000-01-01T06:19:25.000Z</time>
      </trkpt>
      <trkpt lat="45.75432" lon="6.75196">
        <ele>2605</ele>
        <time>2000-01-01T06:19:35.000Z</time>
      </trkpt>
      <trkpt lat="45.75451" lon="6.75219">
        <ele>2620</ele>
        <time>2000-01-01T06:19:45.000Z</time>
      </trkpt>
      <trkpt lat="45.75474" lon="6.75246">
        <ele>2618</ele>
        <time>2000-01-01T06:19:55.000Z</time>
      </trkpt>
      <trkpt lat="45.75482" lon="6.75284">
        <ele>2626</ele>
        <time>2000-01-01T06:20:05.000Z</time>
      </trkpt>
      <trkpt lat="45.75493" lon="6.75337">
        <ele>2626</ele>
        <time>2000-01-01T06:20:15.000Z</time>
      </trkpt>
      <trkpt lat="45.75519" lon="6.75372">
        <ele>2627</ele>
        <time>2000-01-01T06:20:25.000Z</time>
      </trkpt>
      <trkpt lat="45.75521" lon="6.75413">
        <ele>2629</ele>
        <time>2000-01-01T06:20:35.000Z</time>
      </trkpt>
      <trkpt lat="45.75524" lon="6.75476">
        <ele>2629</ele>
        <time>2000-01-01T06:20:45.000Z</time>
      </trkpt>
      <trkpt lat="45.75543" lon="6.75508">
        <ele>2629</ele>
        <time>2000-01-01T06:20:55.000Z</time>
      </trkpt>
      <trkpt lat="45.75577" lon="6.75565">
        <ele>2636</ele>
        <time>2000-01-01T06:21:05.000Z</time>
      </trkpt>
      <trkpt lat="45.75563" lon="6.75595">
        <ele>2638</ele>
        <time>2000-01-01T06:21:15.000Z</time>
      </trkpt>
      <trkpt lat="45.75547" lon="6.75629">
        <ele>2640</ele>
        <time>2000-01-01T06:21:25.000Z</time>
      </trkpt>
      <trkpt lat="45.75554" lon="6.75662">
        <ele>2650</ele>
        <time>2000-01-01T06:21:35.000Z</time>
      </trkpt>
      <trkpt lat="45.75561" lon="6.75696">
        <ele>2647</ele>
        <time>2000-01-01T06:21:45.000Z</time>
      </trkpt>
      <trkpt lat="45.75519" lon="6.75719">
        <ele>2648</ele>
        <time>2000-01-01T06:21:55.000Z</time>
      </trkpt>
      <trkpt lat="45.75499" lon="6.75741">
        <ele>2635</ele>
        <time>2000-01-01T06:22:05.000Z</time>
      </trkpt>
      <trkpt lat="45.75475" lon="6.75768">
        <ele>2645</ele>
        <time>2000-01-01T06:22:15.000Z</time>
      </trkpt>
      <trkpt lat="45.7548" lon="6.75813">
        <ele>2655</ele>
        <time>2000-01-01T06:22:25.000Z</time>
      </trkpt>
      <trkpt lat="45.75485" lon="6.75859">
        <ele>2667</ele>
        <time>2000-01-01T06:22:35.000Z</time>
      </trkpt>
      <trkpt lat="45.75491" lon="6.75912">
        <ele>2661</ele>
        <time>2000-01-01T06:22:45.000Z</time>
      </trkpt>
      <trkpt lat="45.75485" lon="6.75947">
        <ele>2656</ele>
        <time>2000-01-01T06:22:55.000Z</time>
      </trkpt>
      <trkpt lat="45.75479" lon="6.75988">
        <ele>2659</ele>
        <time>2000-01-01T06:23:05.000Z</time>
      </trkpt>
      <trkpt lat="45.75504" lon="6.76039">
        <ele>2663</ele>
        <time>2000-01-01T06:23:15.000Z</time>
      </trkpt>
      <trkpt lat="45.75526" lon="6.76038">
        <ele>2687</ele>
        <time>2000-01-01T06:23:25.000Z</time>
      </trkpt>
      <trkpt lat="45.75538" lon="6.76014">
        <ele>2701</ele>
        <time>2000-01-01T06:23:35.000Z</time>
      </trkpt>
      <trkpt lat="45.75554" lon="6.76047">
        <ele>2702</ele>
        <time>2000-01-01T06:23:45.000Z</time>
      </trkpt>
      <trkpt lat="45.75578" lon="6.76095">
        <ele>2694</ele>
        <time>2000-01-01T06:23:55.000Z</time>
      </trkpt>
      <trkpt lat="45.756" lon="6.76112">
        <ele>2687</ele>
        <time>2000-01-01T06:24:05.000Z</time>
      </trkpt>
      <trkpt lat="45.75624" lon="6.76131">
        <ele>2678</ele>
        <time>2000-01-01T06:24:15.000Z</time>
      </trkpt>
      <trkpt lat="45.75643" lon="6.7616">
        <ele>2668</ele>
        <time>2000-01-01T06:24:25.000Z</time>
      </trkpt>
      <trkpt lat="45.75673" lon="6.76205">
        <ele>2660</ele>
        <time>2000-01-01T06:24:35.000Z</time>
      </trkpt>
      <trkpt lat="45.75667" lon="6.76221">
        <ele>2654.7</ele>
        <time>2000-01-01T06:24:45.000Z</time>
      </trkpt>
      <trkpt lat="45.75705" lon="6.76277">
        <ele>2637</ele>
        <time>2000-01-01T06:24:55.000Z</time>
      </trkpt>
      <trkpt lat="45.75689" lon="6.76283">
        <ele>2630</ele>
        <time>2000-01-01T06:25:05.000Z</time>
      </trkpt>
      <trkpt lat="45.75726" lon="6.76319">
        <ele>2618</ele>
        <time>2000-01-01T06:25:15.000Z</time>
      </trkpt>
      <trkpt lat="45.757" lon="6.76334">
        <ele>2607</ele>
        <time>2000-01-01T06:25:25.000Z</time>
      </trkpt>
      <trkpt lat="45.75714" lon="6.7635">
        <ele>2597.9</ele>
        <time>2000-01-01T06:25:35.000Z</time>
      </trkpt>
      <trkpt lat="45.75702" lon="6.76363">
        <ele>2596</ele>
        <time>2000-01-01T06:25:45.000Z</time>
      </trkpt>
      <trkpt lat="45.75734" lon="6.76378">
        <ele>2587</ele>
        <time>2000-01-01T06:25:55.000Z</time>
      </trkpt>
      <trkpt lat="45.75766" lon="6.76392">
        <ele>2573</ele>
        <time>2000-01-01T06:26:05.000Z</time>
      </trkpt>
      <trkpt lat="45.75815" lon="6.76415">
        <ele>2560</ele>
        <time>2000-01-01T06:26:15.000Z</time>
      </trkpt>
      <trkpt lat="45.75809" lon="6.76455">
        <ele>2541</ele>
        <time>2000-01-01T06:26:25.000Z</time>
      </trkpt>
      <trkpt lat="45.75799" lon="6.76515">
        <ele>2538</ele>
        <time>2000-01-01T06:26:35.000Z</time>
      </trkpt>
      <trkpt lat="45.75812" lon="6.76543">
        <ele>2520</ele>
        <time>2000-01-01T06:26:45.000Z</time>
      </trkpt>
      <trkpt lat="45.75801" lon="6.76584">
        <ele>2506</ele>
        <time>2000-01-01T06:26:55.000Z</time>
      </trkpt>
      <trkpt lat="45.7578" lon="6.76664">
        <ele>2486</ele>
        <time>2000-01-01T06:27:05.000Z</time>
      </trkpt>
      <trkpt lat="45.75799" lon="6.76678">
        <ele>2486</ele>
        <time>2000-01-01T06:27:15.000Z</time>
      </trkpt>
      <trkpt lat="45.75796" lon="6.76734">
        <ele>2477</ele>
        <time>2000-01-01T06:27:25.000Z</time>
      </trkpt>
      <trkpt lat="45.75821" lon="6.76746">
        <ele>2469</ele>
        <time>2000-01-01T06:27:35.000Z</time>
      </trkpt>
      <trkpt lat="45.75848" lon="6.76799">
        <ele>2461</ele>
        <time>2000-01-01T06:27:45.000Z</time>
      </trkpt>
      <trkpt lat="45.75851" lon="6.76837">
        <ele>2460</ele>
        <time>2000-01-01T06:27:55.000Z</time>
      </trkpt>
      <trkpt lat="45.75856" lon="6.76885">
        <ele>2448</ele>
        <time>2000-01-01T06:28:05.000Z</time>
      </trkpt>
      <trkpt lat="45.75884" lon="6.76918">
        <ele>2447</ele>
        <time>2000-01-01T06:28:15.000Z</time>
      </trkpt>
      <trkpt lat="45.75864" lon="6.76962">
        <ele>2443</ele>
        <time>2000-01-01T06:28:25.000Z</time>
      </trkpt>
      <trkpt lat="45.75863" lon="6.76998">
        <ele>2442</ele>
        <time>2000-01-01T06:28:35.000Z</time>
      </trkpt>
      <trkpt lat="45.75862" lon="6.77039">
        <ele>2442</ele>
        <time>2000-01-01T06:28:45.000Z</time>
      </trkpt>
      <trkpt lat="45.75847" lon="6.77055">
        <ele>2440.9</ele>
        <time>2000-01-01T06:28:55.000Z</time>
      </trkpt>
      <trkpt lat="45.75853" lon="6.77112">
        <ele>2446</ele>
        <time>2000-01-01T06:29:05.000Z</time>
      </trkpt>
      <trkpt lat="45.75878" lon="6.77137">
        <ele>2452</ele>
        <time>2000-01-01T06:29:15.000Z</time>
      </trkpt>
      <trkpt lat="45.75926" lon="6.77186">
        <ele>2475</ele>
        <time>2000-01-01T06:29:25.000Z</time>
      </trkpt>
      <trkpt lat="45.75954" lon="6.77198">
        <ele>2495</ele>
        <time>2000-01-01T06:29:35.000Z</time>
      </trkpt>
      <trkpt lat="45.75998" lon="6.77218">
        <ele>2527</ele>
        <time>2000-01-01T06:29:45.000Z</time>
      </trkpt>
      <trkpt lat="45.76022" lon="6.77209">
        <ele>2529</ele>
        <time>2000-01-01T06:29:55.000Z</time>
      </trkpt>
      <trkpt lat="45.76058" lon="6.77226">
        <ele>2554</ele>
        <time>2000-01-01T06:30:05.000Z</time>
      </trkpt>
      <trkpt lat="45.76094" lon="6.77242">
        <ele>2569</ele>
        <time>2000-01-01T06:30:15.000Z</time>
      </trkpt>
      <trkpt lat="45.7613" lon="6.77259">
        <ele>2585</ele>
        <time>2000-01-01T06:30:25.000Z</time>
      </trkpt>
      <trkpt lat="45.76166" lon="6.77276">
        <ele>2589</ele>
        <time>2000-01-01T06:30:35.000Z</time>
      </trkpt>
      <trkpt lat="45.76207" lon="6.77295">
        <ele>2590</ele>
        <time>2000-01-01T06:30:45.000Z</time>
      </trkpt>
      <trkpt lat="45.7623" lon="6.77282">
        <ele>2614</ele>
        <time>2000-01-01T06:30:55.000Z</time>
      </trkpt>
      <trkpt lat="45.76255" lon="6.77268">
        <ele>2628</ele>
        <time>2000-01-01T06:31:05.000Z</time>
      </trkpt>
      <trkpt lat="45.76285" lon="6.77298">
        <ele>2638</ele>
        <time>2000-01-01T06:31:15.000Z</time>
      </trkpt>
      <trkpt lat="45.76326" lon="6.773">
        <ele>2647</ele>
        <time>2000-01-01T06:31:25.000Z</time>
      </trkpt>
      <trkpt lat="45.76336" lon="6.77331">
        <ele>2656</ele>
        <time>2000-01-01T06:31:35.000Z</time>
      </trkpt>
      <trkpt lat="45.76366" lon="6.77343">
        <ele>2669</ele>
        <time>2000-01-01T06:31:45.000Z</time>
      </trkpt>
      <trkpt lat="45.76426" lon="6.77368">
        <ele>2688</ele>
        <time>2000-01-01T06:31:55.000Z</time>
      </trkpt>
      <trkpt lat="45.76451" lon="6.77363">
        <ele>2701</ele>
        <time>2000-01-01T06:32:05.000Z</time>
      </trkpt>
      <trkpt lat="45.76478" lon="6.77358">
        <ele>2711</ele>
        <time>2000-01-01T06:32:15.000Z</time>
      </trkpt>
      <trkpt lat="45.76498" lon="6.77379">
        <ele>2725</ele>
        <time>2000-01-01T06:32:25.000Z</time>
      </trkpt>
      <trkpt lat="45.76521" lon="6.77402">
        <ele>2733</ele>
        <time>2000-01-01T06:32:35.000Z</time>
      </trkpt>
      <trkpt lat="45.76533" lon="6.77438">
        <ele>2733</ele>
        <time>2000-01-01T06:32:45.000Z</time>
      </trkpt>
      <trkpt lat="45.76528" lon="6.77476">
        <ele>2733</ele>
        <time>2000-01-01T06:32:55.000Z</time>
      </trkpt>
      <trkpt lat="45.76522" lon="6.77527">
        <ele>2732</ele>
        <time>2000-01-01T06:33:05.000Z</time>
      </trkpt>
      <trkpt lat="45.76503" lon="6.77576">
        <ele>2732</ele>
        <time>2000-01-01T06:33:15.000Z</time>
      </trkpt>
      <trkpt lat="45.76485" lon="6.77626">
        <ele>2728</ele>
        <time>2000-01-01T06:33:25.000Z</time>
      </trkpt>
      <trkpt lat="45.76467" lon="6.77675">
        <ele>2724</ele>
        <time>2000-01-01T06:33:35.000Z</time>
      </trkpt>
      <trkpt lat="45.76448" lon="6.77725">
        <ele>2712</ele>
        <time>2000-01-01T06:33:45.000Z</time>
      </trkpt>
      <trkpt lat="45.76429" lon="6.77774">
        <ele>2712</ele>
        <time>2000-01-01T06:33:55.000Z</time>
      </trkpt>
      <trkpt lat="45.76411" lon="6.77824">
        <ele>2712</ele>
        <time>2000-01-01T06:34:05.000Z</time>
      </trkpt>
      <trkpt lat="45.76401" lon="6.77868">
        <ele>2692</ele>
        <time>2000-01-01T06:34:15.000Z</time>
      </trkpt>
      <trkpt lat="45.76391" lon="6.77911">
        <ele>2692</ele>
        <time>2000-01-01T06:34:25.000Z</time>
      </trkpt>
      <trkpt lat="45.7638" lon="6.77961">
        <ele>2691</ele>
        <time>2000-01-01T06:34:35.000Z</time>
      </trkpt>
      <trkpt lat="45.7636" lon="6.77985">
        <ele>2671</ele>
        <time>2000-01-01T06:34:45.000Z</time>
      </trkpt>
      <trkpt lat="45.76335" lon="6.78015">
        <ele>2666</ele>
        <time>2000-01-01T06:34:55.000Z</time>
      </trkpt>
      <trkpt lat="45.76341" lon="6.78054">
        <ele>2662</ele>
        <time>2000-01-01T06:35:05.000Z</time>
      </trkpt>
      <trkpt lat="45.7635" lon="6.78113">
        <ele>2653</ele>
        <time>2000-01-01T06:35:15.000Z</time>
      </trkpt>
      <trkpt lat="45.76342" lon="6.78147">
        <ele>2649</ele>
        <time>2000-01-01T06:35:25.000Z</time>
      </trkpt>
      <trkpt lat="45.76333" lon="6.78186">
        <ele>2646</ele>
        <time>2000-01-01T06:35:35.000Z</time>
      </trkpt>
      <trkpt lat="45.763" lon="6.78167">
        <ele>2633</ele>
        <time>2000-01-01T06:35:45.000Z</time>
      </trkpt>
      <trkpt lat="45.76267" lon="6.78148">
        <ele>2590</ele>
        <time>2000-01-01T06:35:55.000Z</time>
      </trkpt>
      <trkpt lat="45.76234" lon="6.78129">
        <ele>2574</ele>
        <time>2000-01-01T06:36:05.000Z</time>
      </trkpt>
      <trkpt lat="45.76198" lon="6.78108">
        <ele>2562</ele>
        <time>2000-01-01T06:36:15.000Z</time>
      </trkpt>
      <trkpt lat="45.76166" lon="6.78062">
        <ele>2547</ele>
        <time>2000-01-01T06:36:25.000Z</time>
      </trkpt>
      <trkpt lat="45.76134" lon="6.78085">
        <ele>2534</ele>
        <time>2000-01-01T06:36:35.000Z</time>
      </trkpt>
      <trkpt lat="45.76102" lon="6.78107">
        <ele>2515</ele>
        <time>2000-01-01T06:36:45.000Z</time>
      </trkpt>
      <trkpt lat="45.7607" lon="6.7813">
        <ele>2504</ele>
        <time>2000-01-01T06:36:55.000Z</time>
      </trkpt>
      <trkpt lat="45.76035" lon="6.78155">
        <ele>2480</ele>
        <time>2000-01-01T06:37:05.000Z</time>
      </trkpt>
      <trkpt lat="45.76036" lon="6.78198">
        <ele>2475</ele>
        <time>2000-01-01T06:37:15.000Z</time>
      </trkpt>
      <trkpt lat="45.76038" lon="6.78273">
        <ele>2472</ele>
        <time>2000-01-01T06:37:25.000Z</time>
      </trkpt>
      <trkpt lat="45.76011" lon="6.78276">
        <ele>2471</ele>
        <time>2000-01-01T06:37:35.000Z</time>
      </trkpt>
      <trkpt lat="45.76017" lon="6.78311">
        <ele>2477</ele>
        <time>2000-01-01T06:37:45.000Z</time>
      </trkpt>
      <trkpt lat="45.76025" lon="6.78352">
        <ele>2476</ele>
        <time>2000-01-01T06:37:55.000Z</time>
      </trkpt>
      <trkpt lat="45.76002" lon="6.78395">
        <ele>2476</ele>
        <time>2000-01-01T06:38:05.000Z</time>
      </trkpt>
      <trkpt lat="45.76015" lon="6.78443">
        <ele>2482</ele>
        <time>2000-01-01T06:38:15.000Z</time>
      </trkpt>
      <trkpt lat="45.76028" lon="6.78492">
        <ele>2492</ele>
        <time>2000-01-01T06:38:25.000Z</time>
      </trkpt>
      <trkpt lat="45.76041" lon="6.7854">
        <ele>2503</ele>
        <time>2000-01-01T06:38:35.000Z</time>
      </trkpt>
      <trkpt lat="45.76058" lon="6.78603">
        <ele>2521</ele>
        <time>2000-01-01T06:38:45.000Z</time>
      </trkpt>
      <trkpt lat="45.76074" lon="6.78628">
        <ele>2525</ele>
        <time>2000-01-01T06:38:55.000Z</time>
      </trkpt>
      <trkpt lat="45.76091" lon="6.78653">
        <ele>2534</ele>
        <time>2000-01-01T06:39:05.000Z</time>
      </trkpt>
      <trkpt lat="45.76079" lon="6.78684">
        <ele>2541</ele>
        <time>2000-01-01T06:39:15.000Z</time>
      </trkpt>
      <trkpt lat="45.7609" lon="6.78707">
        <ele>2544</ele>
        <time>2000-01-01T06:39:25.000Z</time>
      </trkpt>
      <trkpt lat="45.76063" lon="6.78704">
        <ele>2543</ele>
        <time>2000-01-01T06:39:35.000Z</time>
      </trkpt>
      <trkpt lat="45.76024" lon="6.787">
        <ele>2543</ele>
        <time>2000-01-01T06:39:45.000Z</time>
      </trkpt>
      <trkpt lat="45.76017" lon="6.78736">
        <ele>2543</ele>
        <time>2000-01-01T06:39:55.000Z</time>
      </trkpt>
      <trkpt lat="45.76009" lon="6.7878">
        <ele>2542</ele>
        <time>2000-01-01T06:40:05.000Z</time>
      </trkpt>
      <trkpt lat="45.75984" lon="6.78805">
        <ele>2542</ele>
        <time>2000-01-01T06:40:15.000Z</time>
      </trkpt>
      <trkpt lat="45.75938" lon="6.78852">
        <ele>2521</ele>
        <time>2000-01-01T06:40:25.000Z</time>
      </trkpt>
      <trkpt lat="45.75939" lon="6.78873">
        <ele>2519.5</ele>
        <time>2000-01-01T06:40:35.000Z</time>
      </trkpt>
      <trkpt lat="45.75912" lon="6.78879">
        <ele>2521</ele>
        <time>2000-01-01T06:40:45.000Z</time>
      </trkpt>
      <trkpt lat="45.75909" lon="6.78931">
        <ele>2529</ele>
        <time>2000-01-01T06:40:55.000Z</time>
      </trkpt>
      <trkpt lat="45.7589" lon="6.7895">
        <ele>2524</ele>
        <time>2000-01-01T06:41:05.000Z</time>
      </trkpt>
      <trkpt lat="45.75849" lon="6.78952">
        <ele>2527</ele>
        <time>2000-01-01T06:41:15.000Z</time>
      </trkpt>
      <trkpt lat="45.75829" lon="6.78994">
        <ele>2524</ele>
        <time>2000-01-01T06:41:25.000Z</time>
      </trkpt>
      <trkpt lat="45.7581" lon="6.79036">
        <ele>2521</ele>
        <time>2000-01-01T06:41:35.000Z</time>
      </trkpt>
      <trkpt lat="45.7579" lon="6.79078">
        <ele>2526</ele>
        <time>2000-01-01T06:41:45.000Z</time>
      </trkpt>
      <trkpt lat="45.7577" lon="6.79122">
        <ele>2531</ele>
        <time>2000-01-01T06:41:55.000Z</time>
      </trkpt>
      <trkpt lat="45.75743" lon="6.79137">
        <ele>2527</ele>
        <time>2000-01-01T06:42:05.000Z</time>
      </trkpt>
      <trkpt lat="45.75702" lon="6.79159">
        <ele>2535</ele>
        <time>2000-01-01T06:42:15.000Z</time>
      </trkpt>
      <trkpt lat="45.75731" lon="6.79205">
        <ele>2543</ele>
        <time>2000-01-01T06:42:25.000Z</time>
      </trkpt>
      <trkpt lat="45.75727" lon="6.79249">
        <ele>2552</ele>
        <time>2000-01-01T06:42:35.000Z</time>
      </trkpt>
      <trkpt lat="45.75718" lon="6.79334">
        <ele>2558</ele>
        <time>2000-01-01T06:42:45.000Z</time>
      </trkpt>
      <trkpt lat="45.75737" lon="6.7938">
        <ele>2564</ele>
        <time>2000-01-01T06:42:55.000Z</time>
      </trkpt>
      <trkpt lat="45.75755" lon="6.79427">
        <ele>2578</ele>
        <time>2000-01-01T06:43:05.000Z</time>
      </trkpt>
      <trkpt lat="45.75774" lon="6.79474">
        <ele>2587</ele>
        <time>2000-01-01T06:43:15.000Z</time>
      </trkpt>
      <trkpt lat="45.75809" lon="6.79562">
        <ele>2608</ele>
        <time>2000-01-01T06:43:25.000Z</time>
      </trkpt>
      <trkpt lat="45.75805" lon="6.79624">
        <ele>2595</ele>
        <time>2000-01-01T06:43:35.000Z</time>
      </trkpt>
      <trkpt lat="45.75786" lon="6.7961">
        <ele>2582</ele>
        <time>2000-01-01T06:43:45.000Z</time>
      </trkpt>
      <trkpt lat="45.75772" lon="6.79643">
        <ele>2579</ele>
        <time>2000-01-01T06:43:55.000Z</time>
      </trkpt>
      <trkpt lat="45.75752" lon="6.79689">
        <ele>2576</ele>
        <time>2000-01-01T06:44:05.000Z</time>
      </trkpt>
      <trkpt lat="45.75724" lon="6.79683">
        <ele>2566</ele>
        <time>2000-01-01T06:44:15.000Z</time>
      </trkpt>
      <trkpt lat="45.75682" lon="6.79673">
        <ele>2530</ele>
        <time>2000-01-01T06:44:25.000Z</time>
      </trkpt>
      <trkpt lat="45.75674" lon="6.7972">
        <ele>2528</ele>
        <time>2000-01-01T06:44:35.000Z</time>
      </trkpt>
      <trkpt lat="45.75665" lon="6.79768">
        <ele>2524</ele>
        <time>2000-01-01T06:44:45.000Z</time>
      </trkpt>
      <trkpt lat="45.75652" lon="6.79845">
        <ele>2522</ele>
        <time>2000-01-01T06:44:55.000Z</time>
      </trkpt>
      <trkpt lat="45.75663" lon="6.79885">
        <ele>2523</ele>
        <time>2000-01-01T06:45:05.000Z</time>
      </trkpt>
      <trkpt lat="45.75683" lon="6.79956">
        <ele>2524</ele>
        <time>2000-01-01T06:45:15.000Z</time>
      </trkpt>
      <trkpt lat="45.75683" lon="6.79994">
        <ele>2529</ele>
        <time>2000-01-01T06:45:25.000Z</time>
      </trkpt>
      <trkpt lat="45.75682" lon="6.80044">
        <ele>2532</ele>
        <time>2000-01-01T06:45:35.000Z</time>
      </trkpt>
      <trkpt lat="45.75674" lon="6.80082">
        <ele>2542</ele>
        <time>2000-01-01T06:45:45.000Z</time>
      </trkpt>
      <trkpt lat="45.75663" lon="6.80136">
        <ele>2553</ele>
        <time>2000-01-01T06:45:55.000Z</time>
      </trkpt>
      <trkpt lat="45.75632" lon="6.80169">
        <ele>2565</ele>
        <time>2000-01-01T06:46:05.000Z</time>
      </trkpt>
      <trkpt lat="45.75647" lon="6.80181">
        <ele>2557.6</ele>
        <time>2000-01-01T06:46:15.000Z</time>
      </trkpt>
      <trkpt lat="45.7564" lon="6.80213">
        <ele>2607</ele>
        <time>2000-01-01T06:46:25.000Z</time>
      </trkpt>
      <trkpt lat="45.75605" lon="6.80211">
        <ele>2608</ele>
        <time>2000-01-01T06:46:35.000Z</time>
      </trkpt>
      <trkpt lat="45.7561" lon="6.80266">
        <ele>2619</ele>
        <time>2000-01-01T06:46:45.000Z</time>
      </trkpt>
      <trkpt lat="45.75645" lon="6.80291">
        <ele>2621</ele>
        <time>2000-01-01T06:46:55.000Z</time>
      </trkpt>
      <trkpt lat="45.75609" lon="6.80315">
        <ele>2616</ele>
        <time>2000-01-01T06:47:05.000Z</time>
      </trkpt>
      <trkpt lat="45.75572" lon="6.80339">
        <ele>2612</ele>
        <time>2000-01-01T06:47:15.000Z</time>
      </trkpt>
      <trkpt lat="45.75536" lon="6.80364">
        <ele>2599</ele>
        <time>2000-01-01T06:47:25.000Z</time>
      </trkpt>
      <trkpt lat="45.755" lon="6.80388">
        <ele>2594</ele>
        <time>2000-01-01T06:47:35.000Z</time>
      </trkpt>
      <trkpt lat="45.75464" lon="6.80412">
        <ele>2572</ele>
        <time>2000-01-01T06:47:45.000Z</time>
      </trkpt>
      <trkpt lat="45.75401" lon="6.80454">
        <ele>2567</ele>
        <time>2000-01-01T06:47:55.000Z</time>
      </trkpt>
      <trkpt lat="45.75378" lon="6.80481">
        <ele>2556</ele>
        <time>2000-01-01T06:48:05.000Z</time>
      </trkpt>
      <trkpt lat="45.75339" lon="6.80528">
        <ele>2547</ele>
        <time>2000-01-01T06:48:15.000Z</time>
      </trkpt>
      <trkpt lat="45.75313" lon="6.80539">
        <ele>2544</ele>
        <time>2000-01-01T06:48:25.000Z</time>
      </trkpt>
      <trkpt lat="45.75278" lon="6.80553">
        <ele>2540</ele>
        <time>2000-01-01T06:48:35.000Z</time>
      </trkpt>
      <trkpt lat="45.75248" lon="6.80582">
        <ele>2527</ele>
        <time>2000-01-01T06:48:45.000Z</time>
      </trkpt>
      <trkpt lat="45.75218" lon="6.80611">
        <ele>2524</ele>
        <time>2000-01-01T06:48:55.000Z</time>
      </trkpt>
      <trkpt lat="45.75187" lon="6.80639">
        <ele>2520</ele>
        <time>2000-01-01T06:49:05.000Z</time>
      </trkpt>
      <trkpt lat="45.75146" lon="6.80679">
        <ele>2517</ele>
        <time>2000-01-01T06:49:15.000Z</time>
      </trkpt>
      <trkpt lat="45.75135" lon="6.80716">
        <ele>2516</ele>
        <time>2000-01-01T06:49:25.000Z</time>
      </trkpt>
      <trkpt lat="45.7512" lon="6.80769">
        <ele>2515</ele>
        <time>2000-01-01T06:49:35.000Z</time>
      </trkpt>
      <trkpt lat="45.75088" lon="6.80793">
        <ele>2514</ele>
        <time>2000-01-01T06:49:45.000Z</time>
      </trkpt>
      <trkpt lat="45.75112" lon="6.80838">
        <ele>2502</ele>
        <time>2000-01-01T06:49:55.000Z</time>
      </trkpt>
      <trkpt lat="45.75122" lon="6.80892">
        <ele>2502</ele>
        <time>2000-01-01T06:50:05.000Z</time>
      </trkpt>
      <trkpt lat="45.75132" lon="6.80945">
        <ele>2488</ele>
        <time>2000-01-01T06:50:15.000Z</time>
      </trkpt>
      <trkpt lat="45.75142" lon="6.80999">
        <ele>2482</ele>
        <time>2000-01-01T06:50:25.000Z</time>
      </trkpt>
      <trkpt lat="45.75151" lon="6.81053">
        <ele>2476</ele>
        <time>2000-01-01T06:50:35.000Z</time>
      </trkpt>
      <trkpt lat="45.75168" lon="6.81142">
        <ele>2454</ele>
        <time>2000-01-01T06:50:45.000Z</time>
      </trkpt>
      <trkpt lat="45.7517" lon="6.8118">
        <ele>2451</ele>
        <time>2000-01-01T06:50:55.000Z</time>
      </trkpt>
      <trkpt lat="45.75148" lon="6.8122">
        <ele>2443</ele>
        <time>2000-01-01T06:51:05.000Z</time>
      </trkpt>
      <trkpt lat="45.75157" lon="6.81263">
        <ele>2437</ele>
        <time>2000-01-01T06:51:15.000Z</time>
      </trkpt>
      <trkpt lat="45.75175" lon="6.81347">
        <ele>2431</ele>
        <time>2000-01-01T06:51:25.000Z</time>
      </trkpt>
      <trkpt lat="45.75195" lon="6.81391">
        <ele>2425</ele>
        <time>2000-01-01T06:51:35.000Z</time>
      </trkpt>
      <trkpt lat="45.75214" lon="6.81436">
        <ele>2419</ele>
        <time>2000-01-01T06:51:45.000Z</time>
      </trkpt>
      <trkpt lat="45.75234" lon="6.8148">
        <ele>2401</ele>
        <time>2000-01-01T06:51:55.000Z</time>
      </trkpt>
      <trkpt lat="45.75265" lon="6.81549">
        <ele>2387</ele>
        <time>2000-01-01T06:52:05.000Z</time>
      </trkpt>
      <trkpt lat="45.7526" lon="6.81583">
        <ele>2370</ele>
        <time>2000-01-01T06:52:15.000Z</time>
      </trkpt>
      <trkpt lat="45.75254" lon="6.81619">
        <ele>2370</ele>
        <time>2000-01-01T06:52:25.000Z</time>
      </trkpt>
      <trkpt lat="45.75248" lon="6.81586">
        <ele>2370</ele>
        <time>2000-01-01T06:52:35.000Z</time>
      </trkpt>
      <trkpt lat="45.75262" lon="6.81555">
        <ele>2380</ele>
        <time>2000-01-01T06:52:45.000Z</time>
      </trkpt>
      <trkpt lat="45.75243" lon="6.81508">
        <ele>2394</ele>
        <time>2000-01-01T06:52:55.000Z</time>
      </trkpt>
      <trkpt lat="45.75224" lon="6.81461">
        <ele>2401</ele>
        <time>2000-01-01T06:53:05.000Z</time>
      </trkpt>
      <trkpt lat="45.75206" lon="6.81413">
        <ele>2415</ele>
        <time>2000-01-01T06:53:15.000Z</time>
      </trkpt>
      <trkpt lat="45.75187" lon="6.81366">
        <ele>2428</ele>
        <time>2000-01-01T06:53:25.000Z</time>
      </trkpt>
      <trkpt lat="45.75165" lon="6.81311">
        <ele>2430</ele>
        <time>2000-01-01T06:53:35.000Z</time>
      </trkpt>
      <trkpt lat="45.75159" lon="6.81273">
        <ele>2433</ele>
        <time>2000-01-01T06:53:45.000Z</time>
      </trkpt>
      <trkpt lat="45.75152" lon="6.81222">
        <ele>2443</ele>
        <time>2000-01-01T06:53:55.000Z</time>
      </trkpt>
      <trkpt lat="45.75162" lon="6.81191">
        <ele>2450</ele>
        <time>2000-01-01T06:54:05.000Z</time>
      </trkpt>
      <trkpt lat="45.75172" lon="6.81161">
        <ele>2451</ele>
        <time>2000-01-01T06:54:15.000Z</time>
      </trkpt>
      <trkpt lat="45.7516" lon="6.81107">
        <ele>2466</ele>
        <time>2000-01-01T06:54:25.000Z</time>
      </trkpt>
      <trkpt lat="45.75148" lon="6.81052">
        <ele>2476</ele>
        <time>2000-01-01T06:54:35.000Z</time>
      </trkpt>
      <trkpt lat="45.75136" lon="6.80998">
        <ele>2482</ele>
        <time>2000-01-01T06:54:45.000Z</time>
      </trkpt>
      <trkpt lat="45.75123" lon="6.80943">
        <ele>2492</ele>
        <time>2000-01-01T06:54:55.000Z</time>
      </trkpt>
      <trkpt lat="45.75111" lon="6.80889">
        <ele>2502</ele>
        <time>2000-01-01T06:55:05.000Z</time>
      </trkpt>
      <trkpt lat="45.75092" lon="6.80802">
        <ele>2510</ele>
        <time>2000-01-01T06:55:15.000Z</time>
      </trkpt>
      <trkpt lat="45.75107" lon="6.8077">
        <ele>2512</ele>
        <time>2000-01-01T06:55:25.000Z</time>
      </trkpt>
      <trkpt lat="45.75127" lon="6.80726">
        <ele>2512</ele>
        <time>2000-01-01T06:55:35.000Z</time>
      </trkpt>
      <trkpt lat="45.75103" lon="6.80701">
        <ele>2511</ele>
        <time>2000-01-01T06:55:45.000Z</time>
      </trkpt>
      <trkpt lat="45.75081" lon="6.80717">
        <ele>2511</ele>
        <time>2000-01-01T06:55:55.000Z</time>
      </trkpt>
      <trkpt lat="45.75058" lon="6.80734">
        <ele>2514</ele>
        <time>2000-01-01T06:56:05.000Z</time>
      </trkpt>
      <trkpt lat="45.7503" lon="6.80726">
        <ele>2513</ele>
        <time>2000-01-01T06:56:15.000Z</time>
      </trkpt>
      <trkpt lat="45.75012" lon="6.8075">
        <ele>2512</ele>
        <time>2000-01-01T06:56:25.000Z</time>
      </trkpt>
      <trkpt lat="45.75016" lon="6.80775">
        <ele>2507.4</ele>
        <time>2000-01-01T06:56:35.000Z</time>
      </trkpt>
      <trkpt lat="45.74992" lon="6.80802">
        <ele>2511</ele>
        <time>2000-01-01T06:56:45.000Z</time>
      </trkpt>
      <trkpt lat="45.74962" lon="6.80802">
        <ele>2511</ele>
        <time>2000-01-01T06:56:55.000Z</time>
      </trkpt>
      <trkpt lat="45.74909" lon="6.80801">
        <ele>2510</ele>
        <time>2000-01-01T06:57:05.000Z</time>
      </trkpt>
      <trkpt lat="45.74879" lon="6.80818">
        <ele>2510</ele>
        <time>2000-01-01T06:57:15.000Z</time>
      </trkpt>
      <trkpt lat="45.74849" lon="6.80836">
        <ele>2506</ele>
        <time>2000-01-01T06:57:25.000Z</time>
      </trkpt>
      <trkpt lat="45.74812" lon="6.80857">
        <ele>2507</ele>
        <time>2000-01-01T06:57:35.000Z</time>
      </trkpt>
      <trkpt lat="45.74794" lon="6.80905">
        <ele>2509</ele>
        <time>2000-01-01T06:57:45.000Z</time>
      </trkpt>
      <trkpt lat="45.74776" lon="6.80952">
        <ele>2514</ele>
        <time>2000-01-01T06:57:55.000Z</time>
      </trkpt>
      <trkpt lat="45.74759" lon="6.81">
        <ele>2514</ele>
        <time>2000-01-01T06:58:05.000Z</time>
      </trkpt>
      <trkpt lat="45.74741" lon="6.81048">
        <ele>2513</ele>
        <time>2000-01-01T06:58:15.000Z</time>
      </trkpt>
      <trkpt lat="45.74722" lon="6.81099">
        <ele>2512</ele>
        <time>2000-01-01T06:58:25.000Z</time>
      </trkpt>
      <trkpt lat="45.74717" lon="6.81144">
        <ele>2508</ele>
        <time>2000-01-01T06:58:35.000Z</time>
      </trkpt>
      <trkpt lat="45.74712" lon="6.81189">
        <ele>2508</ele>
        <time>2000-01-01T06:58:45.000Z</time>
      </trkpt>
      <trkpt lat="45.74707" lon="6.8124">
        <ele>2508</ele>
        <time>2000-01-01T06:58:55.000Z</time>
      </trkpt>
      <trkpt lat="45.74713" lon="6.81299">
        <ele>2500</ele>
        <time>2000-01-01T06:59:05.000Z</time>
      </trkpt>
      <trkpt lat="45.7472" lon="6.81358">
        <ele>2500</ele>
        <time>2000-01-01T06:59:15.000Z</time>
      </trkpt>
      <trkpt lat="45.74726" lon="6.81416">
        <ele>2495</ele>
        <time>2000-01-01T06:59:25.000Z</time>
      </trkpt>
      <trkpt lat="45.74733" lon="6.81475">
        <ele>2483</ele>
        <time>2000-01-01T06:59:35.000Z</time>
      </trkpt>
      <trkpt lat="45.74739" lon="6.81534">
        <ele>2471</ele>
        <time>2000-01-01T06:59:45.000Z</time>
      </trkpt>
      <trkpt lat="45.74746" lon="6.81593">
        <ele>2473</ele>
        <time>2000-01-01T06:59:55.000Z</time>
      </trkpt>
      <trkpt lat="45.74752" lon="6.81651">
        <ele>2473</ele>
        <time>2000-01-01T07:00:05.000Z</time>
      </trkpt>
      <trkpt lat="45.74762" lon="6.81742">
        <ele>2467</ele>
        <time>2000-01-01T07:00:15.000Z</time>
      </trkpt>
      <trkpt lat="45.74775" lon="6.81785">
        <ele>2465</ele>
        <time>2000-01-01T07:00:25.000Z</time>
      </trkpt>
      <trkpt lat="45.74788" lon="6.81827">
        <ele>2464</ele>
        <time>2000-01-01T07:00:35.000Z</time>
      </trkpt>
      <trkpt lat="45.74804" lon="6.81881">
        <ele>2454</ele>
        <time>2000-01-01T07:00:45.000Z</time>
      </trkpt>
      <trkpt lat="45.74804" lon="6.81934">
        <ele>2452</ele>
        <time>2000-01-01T07:00:55.000Z</time>
      </trkpt>
      <trkpt lat="45.74804" lon="6.81986">
        <ele>2450</ele>
        <time>2000-01-01T07:01:05.000Z</time>
      </trkpt>
      <trkpt lat="45.74803" lon="6.82039">
        <ele>2455</ele>
        <time>2000-01-01T07:01:15.000Z</time>
      </trkpt>
      <trkpt lat="45.74803" lon="6.82122">
        <ele>2457</ele>
        <time>2000-01-01T07:01:25.000Z</time>
      </trkpt>
      <trkpt lat="45.74813" lon="6.8217">
        <ele>2447</ele>
        <time>2000-01-01T07:01:35.000Z</time>
      </trkpt>
      <trkpt lat="45.74823" lon="6.82218">
        <ele>2454</ele>
        <time>2000-01-01T07:01:45.000Z</time>
      </trkpt>
      <trkpt lat="45.74843" lon="6.82311">
        <ele>2454</ele>
        <time>2000-01-01T07:01:55.000Z</time>
      </trkpt>
      <trkpt lat="45.74862" lon="6.82353">
        <ele>2454</ele>
        <time>2000-01-01T07:02:05.000Z</time>
      </trkpt>
      <trkpt lat="45.74881" lon="6.82395">
        <ele>2436</ele>
        <time>2000-01-01T07:02:15.000Z</time>
      </trkpt>
      <trkpt lat="45.74919" lon="6.82477">
        <ele>2436</ele>
        <time>2000-01-01T07:02:25.000Z</time>
      </trkpt>
      <trkpt lat="45.74898" lon="6.82496">
        <ele>2458</ele>
        <time>2000-01-01T07:02:35.000Z</time>
      </trkpt>
      <trkpt lat="45.74873" lon="6.82517">
        <ele>2470</ele>
        <time>2000-01-01T07:02:45.000Z</time>
      </trkpt>
      <trkpt lat="45.74874" lon="6.82576">
        <ele>2475</ele>
        <time>2000-01-01T07:02:55.000Z</time>
      </trkpt>
      <trkpt lat="45.74875" lon="6.82634">
        <ele>2481</ele>
        <time>2000-01-01T07:03:05.000Z</time>
      </trkpt>
      <trkpt lat="45.74876" lon="6.82693">
        <ele>2490</ele>
        <time>2000-01-01T07:03:15.000Z</time>
      </trkpt>
      <trkpt lat="45.74878" lon="6.82752">
        <ele>2498</ele>
        <time>2000-01-01T07:03:25.000Z</time>
      </trkpt>
      <trkpt lat="45.74879" lon="6.82811">
        <ele>2506</ele>
        <time>2000-01-01T07:03:35.000Z</time>
      </trkpt>
      <trkpt lat="45.7488" lon="6.82869">
        <ele>2513</ele>
        <time>2000-01-01T07:03:45.000Z</time>
      </trkpt>
      <trkpt lat="45.74882" lon="6.82976">
        <ele>2522</ele>
        <time>2000-01-01T07:03:55.000Z</time>
      </trkpt>
      <trkpt lat="45.7489" lon="6.83024">
        <ele>2530</ele>
        <time>2000-01-01T07:04:05.000Z</time>
      </trkpt>
      <trkpt lat="45.74899" lon="6.83072">
        <ele>2528</ele>
        <time>2000-01-01T07:04:15.000Z</time>
      </trkpt>
      <trkpt lat="45.74914" lon="6.8316">
        <ele>2537</ele>
        <time>2000-01-01T07:04:25.000Z</time>
      </trkpt>
      <trkpt lat="45.74895" lon="6.83185">
        <ele>2546</ele>
        <time>2000-01-01T07:04:35.000Z</time>
      </trkpt>
      <trkpt lat="45.74892" lon="6.83222">
        <ele>2550</ele>
        <time>2000-01-01T07:04:45.000Z</time>
      </trkpt>
      <trkpt lat="45.74888" lon="6.83267">
        <ele>2565</ele>
        <time>2000-01-01T07:04:55.000Z</time>
      </trkpt>
      <trkpt lat="45.749" lon="6.83317">
        <ele>2594</ele>
        <time>2000-01-01T07:05:05.000Z</time>
      </trkpt>
      <trkpt lat="45.74912" lon="6.83367">
        <ele>2598</ele>
        <time>2000-01-01T07:05:15.000Z</time>
      </trkpt>
      <trkpt lat="45.74925" lon="6.83417">
        <ele>2599</ele>
        <time>2000-01-01T07:05:25.000Z</time>
      </trkpt>
      <trkpt lat="45.74945" lon="6.83499">
        <ele>2599</ele>
        <time>2000-01-01T07:05:35.000Z</time>
      </trkpt>
      <trkpt lat="45.74916" lon="6.83475">
        <ele>2599</ele>
        <time>2000-01-01T07:05:45.000Z</time>
      </trkpt>
      <trkpt lat="45.74891" lon="6.8347">
        <ele>2601</ele>
        <time>2000-01-01T07:05:55.000Z</time>
      </trkpt>
      <trkpt lat="45.74863" lon="6.83464">
        <ele>2604</ele>
        <time>2000-01-01T07:06:05.000Z</time>
      </trkpt>
      <trkpt lat="45.74833" lon="6.83478">
        <ele>2600</ele>
        <time>2000-01-01T07:06:15.000Z</time>
      </trkpt>
      <trkpt lat="45.74803" lon="6.83492">
        <ele>2600</ele>
        <time>2000-01-01T07:06:25.000Z</time>
      </trkpt>
      <trkpt lat="45.7477" lon="6.83507">
        <ele>2601</ele>
        <time>2000-01-01T07:06:35.000Z</time>
      </trkpt>
      <trkpt lat="45.74742" lon="6.83492">
        <ele>2595</ele>
        <time>2000-01-01T07:06:45.000Z</time>
      </trkpt>
      <trkpt lat="45.7471" lon="6.83495">
        <ele>2590</ele>
        <time>2000-01-01T07:06:55.000Z</time>
      </trkpt>
      <trkpt lat="45.74677" lon="6.83498">
        <ele>2589</ele>
        <time>2000-01-01T07:07:05.000Z</time>
      </trkpt>
      <trkpt lat="45.74637" lon="6.83502">
        <ele>2605</ele>
        <time>2000-01-01T07:07:15.000Z</time>
      </trkpt>
      <trkpt lat="45.746" lon="6.83483">
        <ele>2610</ele>
        <time>2000-01-01T07:07:25.000Z</time>
      </trkpt>
      <trkpt lat="45.74576" lon="6.83493">
        <ele>2615</ele>
        <time>2000-01-01T07:07:35.000Z</time>
      </trkpt>
      <trkpt lat="45.74547" lon="6.83505">
        <ele>2620</ele>
        <time>2000-01-01T07:07:45.000Z</time>
      </trkpt>
      <trkpt lat="45.74527" lon="6.835">
        <ele>2620</ele>
        <time>2000-01-01T07:07:55.000Z</time>
      </trkpt>
      <trkpt lat="45.74513" lon="6.83468">
        <ele>2621</ele>
        <time>2000-01-01T07:08:05.000Z</time>
      </trkpt>
      <trkpt lat="45.74497" lon="6.8343">
        <ele>2630</ele>
        <time>2000-01-01T07:08:15.000Z</time>
      </trkpt>
      <trkpt lat="45.74463" lon="6.83418">
        <ele>2629</ele>
        <time>2000-01-01T07:08:25.000Z</time>
      </trkpt>
      <trkpt lat="45.7443" lon="6.83406">
        <ele>2629</ele>
        <time>2000-01-01T07:08:35.000Z</time>
      </trkpt>
      <trkpt lat="45.74369" lon="6.83384">
        <ele>2630</ele>
        <time>2000-01-01T07:08:45.000Z</time>
      </trkpt>
      <trkpt lat="45.74342" lon="6.83364">
        <ele>2630</ele>
        <time>2000-01-01T07:08:55.000Z</time>
      </trkpt>
      <trkpt lat="45.74316" lon="6.83316">
        <ele>2631</ele>
        <time>2000-01-01T07:09:05.000Z</time>
      </trkpt>
      <trkpt lat="45.74292" lon="6.83318">
        <ele>2630</ele>
        <time>2000-01-01T07:09:15.000Z</time>
      </trkpt>
      <trkpt lat="45.74281" lon="6.83356">
        <ele>2629</ele>
        <time>2000-01-01T07:09:25.000Z</time>
      </trkpt>
      <trkpt lat="45.74263" lon="6.83416">
        <ele>2628</ele>
        <time>2000-01-01T07:09:35.000Z</time>
      </trkpt>
      <trkpt lat="45.74238" lon="6.83427">
        <ele>2628</ele>
        <time>2000-01-01T07:09:45.000Z</time>
      </trkpt>
      <trkpt lat="45.74216" lon="6.83401">
        <ele>2636</ele>
        <time>2000-01-01T07:09:55.000Z</time>
      </trkpt>
      <trkpt lat="45.74183" lon="6.83361">
        <ele>2636</ele>
        <time>2000-01-01T07:10:05.000Z</time>
      </trkpt>
      <trkpt lat="45.74178" lon="6.83369">
        <ele>2629</ele>
        <time>2000-01-01T07:10:15.000Z</time>
      </trkpt>
      <trkpt lat="45.74158" lon="6.83354">
        <ele>2636</ele>
        <time>2000-01-01T07:10:25.000Z</time>
      </trkpt>
      <trkpt lat="45.74137" lon="6.8337">
        <ele>2636</ele>
        <time>2000-01-01T07:10:35.000Z</time>
      </trkpt>
      <trkpt lat="45.74113" lon="6.83341">
        <ele>2636</ele>
        <time>2000-01-01T07:10:45.000Z</time>
      </trkpt>
      <trkpt lat="45.74096" lon="6.8334">
        <ele>2632.5</ele>
        <time>2000-01-01T07:10:55.000Z</time>
      </trkpt>
      <trkpt lat="45.74075" lon="6.83378">
        <ele>2636</ele>
        <time>2000-01-01T07:11:05.000Z</time>
      </trkpt>
      <trkpt lat="45.74071" lon="6.83412">
        <ele>2637</ele>
        <time>2000-01-01T07:11:15.000Z</time>
      </trkpt>
      <trkpt lat="45.74067" lon="6.83448">
        <ele>2645</ele>
        <time>2000-01-01T07:11:25.000Z</time>
      </trkpt>
      <trkpt lat="45.74047" lon="6.83454">
        <ele>2647</ele>
        <time>2000-01-01T07:11:35.000Z</time>
      </trkpt>
      <trkpt lat="45.74032" lon="6.83424">
        <ele>2648</ele>
        <time>2000-01-01T07:11:45.000Z</time>
      </trkpt>
      <trkpt lat="45.74014" lon="6.83388">
        <ele>2645</ele>
        <time>2000-01-01T07:11:55.000Z</time>
      </trkpt>
      <trkpt lat="45.73977" lon="6.83352">
        <ele>2646</ele>
        <time>2000-01-01T07:12:05.000Z</time>
      </trkpt>
      <trkpt lat="45.73962" lon="6.83361">
        <ele>2637.2</ele>
        <time>2000-01-01T07:12:15.000Z</time>
      </trkpt>
      <trkpt lat="45.73971" lon="6.83446">
        <ele>2643</ele>
        <time>2000-01-01T07:12:25.000Z</time>
      </trkpt>
      <trkpt lat="45.73947" lon="6.83503">
        <ele>2643</ele>
        <time>2000-01-01T07:12:35.000Z</time>
      </trkpt>
      <trkpt lat="45.73945" lon="6.83538">
        <ele>2643</ele>
        <time>2000-01-01T07:12:45.000Z</time>
      </trkpt>
      <trkpt lat="45.73942" lon="6.83577">
        <ele>2644</ele>
        <time>2000-01-01T07:12:55.000Z</time>
      </trkpt>
      <trkpt lat="45.73921" lon="6.83601">
        <ele>2645</ele>
        <time>2000-01-01T07:13:05.000Z</time>
      </trkpt>
      <trkpt lat="45.73891" lon="6.83635">
        <ele>2645</ele>
        <time>2000-01-01T07:13:15.000Z</time>
      </trkpt>
      <trkpt lat="45.73891" lon="6.83672">
        <ele>2648</ele>
        <time>2000-01-01T07:13:25.000Z</time>
      </trkpt>
      <trkpt lat="45.7389" lon="6.83718">
        <ele>2649</ele>
        <time>2000-01-01T07:13:35.000Z</time>
      </trkpt>
      <trkpt lat="45.73873" lon="6.83689">
        <ele>2651</ele>
        <time>2000-01-01T07:13:45.000Z</time>
      </trkpt>
      <trkpt lat="45.73853" lon="6.83654">
        <ele>2652</ele>
        <time>2000-01-01T07:13:55.000Z</time>
      </trkpt>
      <trkpt lat="45.7384" lon="6.83701">
        <ele>2657</ele>
        <time>2000-01-01T07:14:05.000Z</time>
      </trkpt>
      <trkpt lat="45.73827" lon="6.83749">
        <ele>2658</ele>
        <time>2000-01-01T07:14:15.000Z</time>
      </trkpt>
      <trkpt lat="45.73815" lon="6.83796">
        <ele>2657</ele>
        <time>2000-01-01T07:14:25.000Z</time>
      </trkpt>
      <trkpt lat="45.73801" lon="6.83847">
        <ele>2657</ele>
        <time>2000-01-01T07:14:35.000Z</time>
      </trkpt>
      <trkpt lat="45.73778" lon="6.83858">
        <ele>2657</ele>
        <time>2000-01-01T07:14:45.000Z</time>
      </trkpt>
      <trkpt lat="45.73752" lon="6.83869">
        <ele>2655</ele>
        <time>2000-01-01T07:14:55.000Z</time>
      </trkpt>
      <trkpt lat="45.7374" lon="6.83915">
        <ele>2650</ele>
        <time>2000-01-01T07:15:05.000Z</time>
      </trkpt>
      <trkpt lat="45.73704" lon="6.83944">
        <ele>2643</ele>
        <time>2000-01-01T07:15:15.000Z</time>
      </trkpt>
      <trkpt lat="45.73693" lon="6.83987">
        <ele>2645</ele>
        <time>2000-01-01T07:15:25.000Z</time>
      </trkpt>
      <trkpt lat="45.73683" lon="6.84031">
        <ele>2643</ele>
        <time>2000-01-01T07:15:35.000Z</time>
      </trkpt>
      <trkpt lat="45.7367" lon="6.84082">
        <ele>2643</ele>
        <time>2000-01-01T07:15:45.000Z</time>
      </trkpt>
      <trkpt lat="45.73668" lon="6.84145">
        <ele>2643</ele>
        <time>2000-01-01T07:15:55.000Z</time>
      </trkpt>
      <trkpt lat="45.73679" lon="6.84197">
        <ele>2643</ele>
        <time>2000-01-01T07:16:05.000Z</time>
      </trkpt>
      <trkpt lat="45.7369" lon="6.8425">
        <ele>2634</ele>
        <time>2000-01-01T07:16:15.000Z</time>
      </trkpt>
      <trkpt lat="45.73701" lon="6.84302">
        <ele>2631</ele>
        <time>2000-01-01T07:16:25.000Z</time>
      </trkpt>
      <trkpt lat="45.73712" lon="6.84355">
        <ele>2620</ele>
        <time>2000-01-01T07:16:35.000Z</time>
      </trkpt>
      <trkpt lat="45.73727" lon="6.84426">
        <ele>2621</ele>
        <time>2000-01-01T07:16:45.000Z</time>
      </trkpt>
      <trkpt lat="45.73724" lon="6.84476">
        <ele>2622</ele>
        <time>2000-01-01T07:16:55.000Z</time>
      </trkpt>
      <trkpt lat="45.7372" lon="6.84527">
        <ele>2624</ele>
        <time>2000-01-01T07:17:05.000Z</time>
      </trkpt>
      <trkpt lat="45.73714" lon="6.84627">
        <ele>2632</ele>
        <time>2000-01-01T07:17:15.000Z</time>
      </trkpt>
      <trkpt lat="45.73722" lon="6.84688">
        <ele>2635</ele>
        <time>2000-01-01T07:17:25.000Z</time>
      </trkpt>
      <trkpt lat="45.73714" lon="6.84741">
        <ele>2649</ele>
        <time>2000-01-01T07:17:35.000Z</time>
      </trkpt>
      <trkpt lat="45.73692" lon="6.84775">
        <ele>2652</ele>
        <time>2000-01-01T07:17:45.000Z</time>
      </trkpt>
      <trkpt lat="45.73691" lon="6.84807">
        <ele>2653</ele>
        <time>2000-01-01T07:17:55.000Z</time>
      </trkpt>
      <trkpt lat="45.73711" lon="6.84813">
        <ele>2655</ele>
        <time>2000-01-01T07:18:05.000Z</time>
      </trkpt>
      <trkpt lat="45.73697" lon="6.8485">
        <ele>2669</ele>
        <time>2000-01-01T07:18:15.000Z</time>
      </trkpt>
      <trkpt lat="45.73675" lon="6.84911">
        <ele>2679</ele>
        <time>2000-01-01T07:18:25.000Z</time>
      </trkpt>
      <trkpt lat="45.73694" lon="6.84962">
        <ele>2697</ele>
        <time>2000-01-01T07:18:35.000Z</time>
      </trkpt>
      <trkpt lat="45.73693" lon="6.85006">
        <ele>2703</ele>
        <time>2000-01-01T07:18:45.000Z</time>
      </trkpt>
      <trkpt lat="45.7369" lon="6.85088">
        <ele>2719</ele>
        <time>2000-01-01T07:18:55.000Z</time>
      </trkpt>
      <trkpt lat="45.73702" lon="6.85132">
        <ele>2731</ele>
        <time>2000-01-01T07:19:05.000Z</time>
      </trkpt>
      <trkpt lat="45.73714" lon="6.85175">
        <ele>2733</ele>
        <time>2000-01-01T07:19:15.000Z</time>
      </trkpt>
      <trkpt lat="45.7373" lon="6.85232">
        <ele>2738</ele>
        <time>2000-01-01T07:19:25.000Z</time>
      </trkpt>
      <trkpt lat="45.73717" lon="6.85267">
        <ele>2739</ele>
        <time>2000-01-01T07:19:35.000Z</time>
      </trkpt>
      <trkpt lat="45.73725" lon="6.85298">
        <ele>2740</ele>
        <time>2000-01-01T07:19:45.000Z</time>
      </trkpt>
      <trkpt lat="45.73756" lon="6.85329">
        <ele>2740</ele>
        <time>2000-01-01T07:19:55.000Z</time>
      </trkpt>
      <trkpt lat="45.73775" lon="6.85326">
        <ele>2736</ele>
        <time>2000-01-01T07:20:05.000Z</time>
      </trkpt>
      <trkpt lat="45.73783" lon="6.85367">
        <ele>2737</ele>
        <time>2000-01-01T07:20:15.000Z</time>
      </trkpt>
      <trkpt lat="45.73796" lon="6.85438">
        <ele>2739</ele>
        <time>2000-01-01T07:20:25.000Z</time>
      </trkpt>
      <trkpt lat="45.73821" lon="6.85454">
        <ele>2741</ele>
        <time>2000-01-01T07:20:35.000Z</time>
      </trkpt>
      <trkpt lat="45.73848" lon="6.85434">
        <ele>2744</ele>
        <time>2000-01-01T07:20:45.000Z</time>
      </trkpt>
      <trkpt lat="45.73859" lon="6.85451">
        <ele>2753.5</ele>
        <time>2000-01-01T07:20:55.000Z</time>
      </trkpt>
      <trkpt lat="45.73885" lon="6.85606">
        <ele>2781</ele>
        <time>2000-01-01T07:21:05.000Z</time>
      </trkpt>
      <trkpt lat="45.73875" lon="6.85618">
        <ele>2800.9</ele>
        <time>2000-01-01T07:21:15.000Z</time>
      </trkpt>
      <trkpt lat="45.73832" lon="6.85619">
        <ele>2803</ele>
        <time>2000-01-01T07:21:25.000Z</time>
      </trkpt>
      <trkpt lat="45.73825" lon="6.85663">
        <ele>2817</ele>
        <time>2000-01-01T07:21:35.000Z</time>
      </trkpt>
      <trkpt lat="45.73798" lon="6.85683">
        <ele>2825</ele>
        <time>2000-01-01T07:21:45.000Z</time>
      </trkpt>
      <trkpt lat="45.73749" lon="6.85721">
        <ele>2854</ele>
        <time>2000-01-01T07:21:55.000Z</time>
      </trkpt>
      <trkpt lat="45.73706" lon="6.85721">
        <ele>2855</ele>
        <time>2000-01-01T07:22:05.000Z</time>
      </trkpt>
      <trkpt lat="45.73681" lon="6.85707">
        <ele>2851</ele>
        <time>2000-01-01T07:22:15.000Z</time>
      </trkpt>
      <trkpt lat="45.7365" lon="6.85689">
        <ele>2850</ele>
        <time>2000-01-01T07:22:25.000Z</time>
      </trkpt>
      <trkpt lat="45.73612" lon="6.85685">
        <ele>2850</ele>
        <time>2000-01-01T07:22:35.000Z</time>
      </trkpt>
      <trkpt lat="45.73588" lon="6.85701">
        <ele>2870</ele>
        <time>2000-01-01T07:22:45.000Z</time>
      </trkpt>
      <trkpt lat="45.73556" lon="6.85721">
        <ele>2885</ele>
        <time>2000-01-01T07:22:55.000Z</time>
      </trkpt>
      <trkpt lat="45.73563" lon="6.85736">
        <ele>2893.4</ele>
        <time>2000-01-01T07:23:05.000Z</time>
      </trkpt>
      <trkpt lat="45.73545" lon="6.85747">
        <ele>2897</ele>
        <time>2000-01-01T07:23:15.000Z</time>
      </trkpt>
      <trkpt lat="45.73541" lon="6.85774">
        <ele>2897</ele>
        <time>2000-01-01T07:23:25.000Z</time>
      </trkpt>
      <trkpt lat="45.73515" lon="6.85758">
        <ele>2900</ele>
        <time>2000-01-01T07:23:35.000Z</time>
      </trkpt>
      <trkpt lat="45.73475" lon="6.85735">
        <ele>2910</ele>
        <time>2000-01-01T07:23:45.000Z</time>
      </trkpt>
      <trkpt lat="45.73447" lon="6.85739">
        <ele>2924</ele>
        <time>2000-01-01T07:23:55.000Z</time>
      </trkpt>
      <trkpt lat="45.73405" lon="6.85744">
        <ele>2952</ele>
        <time>2000-01-01T07:24:05.000Z</time>
      </trkpt>
      <trkpt lat="45.73375" lon="6.85781">
        <ele>2951</ele>
        <time>2000-01-01T07:24:15.000Z</time>
      </trkpt>
      <trkpt lat="45.73378" lon="6.85795">
        <ele>2903.7</ele>
        <time>2000-01-01T07:24:25.000Z</time>
      </trkpt>
      <trkpt lat="45.73333" lon="6.85836">
        <ele>2950</ele>
        <time>2000-01-01T07:24:35.000Z</time>
      </trkpt>
      <trkpt lat="45.7332" lon="6.8588">
        <ele>2954</ele>
        <time>2000-01-01T07:24:45.000Z</time>
      </trkpt>
      <trkpt lat="45.73318" lon="6.8592">
        <ele>2954</ele>
        <time>2000-01-01T07:24:55.000Z</time>
      </trkpt>
      <trkpt lat="45.73315" lon="6.85978">
        <ele>2937</ele>
        <time>2000-01-01T07:25:05.000Z</time>
      </trkpt>
      <trkpt lat="45.7333" lon="6.86013">
        <ele>2920</ele>
        <time>2000-01-01T07:25:15.000Z</time>
      </trkpt>
      <trkpt lat="45.73354" lon="6.86069">
        <ele>2927</ele>
        <time>2000-01-01T07:25:25.000Z</time>
      </trkpt>
      <trkpt lat="45.73349" lon="6.86109">
        <ele>2935</ele>
        <time>2000-01-01T07:25:35.000Z</time>
      </trkpt>
      <trkpt lat="45.7333" lon="6.86114">
        <ele>2935</ele>
        <time>2000-01-01T07:25:45.000Z</time>
      </trkpt>
      <trkpt lat="45.73346" lon="6.8616">
        <ele>2941</ele>
        <time>2000-01-01T07:25:55.000Z</time>
      </trkpt>
      <trkpt lat="45.73334" lon="6.86169">
        <ele>2932.3</ele>
        <time>2000-01-01T07:26:05.000Z</time>
      </trkpt>
      <trkpt lat="45.73335" lon="6.86226">
        <ele>2948</ele>
        <time>2000-01-01T07:26:15.000Z</time>
      </trkpt>
      <trkpt lat="45.73311" lon="6.86243">
        <ele>2960</ele>
        <time>2000-01-01T07:26:25.000Z</time>
      </trkpt>
      <trkpt lat="45.7328" lon="6.86266">
        <ele>2967</ele>
        <time>2000-01-01T07:26:35.000Z</time>
      </trkpt>
      <trkpt lat="45.73266" lon="6.86206">
        <ele>2983</ele>
        <time>2000-01-01T07:26:45.000Z</time>
      </trkpt>
      <trkpt lat="45.73239" lon="6.86183">
        <ele>2993</ele>
        <time>2000-01-01T07:26:55.000Z</time>
      </trkpt>
      <trkpt lat="45.73228" lon="6.8614">
        <ele>2996</ele>
        <time>2000-01-01T07:27:05.000Z</time>
      </trkpt>
      <trkpt lat="45.73218" lon="6.86098">
        <ele>2997</ele>
        <time>2000-01-01T07:27:15.000Z</time>
      </trkpt>
      <trkpt lat="45.73207" lon="6.86054">
        <ele>2990</ele>
        <time>2000-01-01T07:27:25.000Z</time>
      </trkpt>
      <trkpt lat="45.73166" lon="6.86044">
        <ele>2987</ele>
        <time>2000-01-01T07:27:35.000Z</time>
      </trkpt>
      <trkpt lat="45.73145" lon="6.86073">
        <ele>2984</ele>
        <time>2000-01-01T07:27:45.000Z</time>
      </trkpt>
      <trkpt lat="45.73109" lon="6.8612">
        <ele>2980</ele>
        <time>2000-01-01T07:27:55.000Z</time>
      </trkpt>
      <trkpt lat="45.73095" lon="6.86158">
        <ele>2992</ele>
        <time>2000-01-01T07:28:05.000Z</time>
      </trkpt>
      <trkpt lat="45.7307" lon="6.86224">
        <ele>2997</ele>
        <time>2000-01-01T07:28:15.000Z</time>
      </trkpt>
      <trkpt lat="45.73053" lon="6.86249">
        <ele>3003</ele>
        <time>2000-01-01T07:28:25.000Z</time>
      </trkpt>
      <trkpt lat="45.73034" lon="6.86277">
        <ele>3003</ele>
        <time>2000-01-01T07:28:35.000Z</time>
      </trkpt>
      <trkpt lat="45.73018" lon="6.8633">
        <ele>3008</ele>
        <time>2000-01-01T07:28:45.000Z</time>
      </trkpt>
      <trkpt lat="45.73037" lon="6.86345">
        <ele>3014</ele>
        <time>2000-01-01T07:28:55.000Z</time>
      </trkpt>
      <trkpt lat="45.73037" lon="6.8638">
        <ele>3012</ele>
        <time>2000-01-01T07:29:05.000Z</time>
      </trkpt>
      <trkpt lat="45.73019" lon="6.86418">
        <ele>3012</ele>
        <time>2000-01-01T07:29:15.000Z</time>
      </trkpt>
      <trkpt lat="45.73001" lon="6.86457">
        <ele>3013</ele>
        <time>2000-01-01T07:29:25.000Z</time>
      </trkpt>
      <trkpt lat="45.72981" lon="6.86501">
        <ele>3016</ele>
        <time>2000-01-01T07:29:35.000Z</time>
      </trkpt>
      <trkpt lat="45.72965" lon="6.865">
        <ele>3008.1</ele>
        <time>2000-01-01T07:29:45.000Z</time>
      </trkpt>
      <trkpt lat="45.72967" lon="6.86521">
        <ele>3007</ele>
        <time>2000-01-01T07:29:55.000Z</time>
      </trkpt>
      <trkpt lat="45.72936" lon="6.8652">
        <ele>2999</ele>
        <time>2000-01-01T07:30:05.000Z</time>
      </trkpt>
      <trkpt lat="45.72913" lon="6.86533">
        <ele>2999</ele>
        <time>2000-01-01T07:30:15.000Z</time>
      </trkpt>
      <trkpt lat="45.72886" lon="6.86547">
        <ele>2995</ele>
        <time>2000-01-01T07:30:25.000Z</time>
      </trkpt>
      <trkpt lat="45.72848" lon="6.86533">
        <ele>2978</ele>
        <time>2000-01-01T07:30:35.000Z</time>
      </trkpt>
      <trkpt lat="45.72834" lon="6.86561">
        <ele>2961</ele>
        <time>2000-01-01T07:30:45.000Z</time>
      </trkpt>
      <trkpt lat="45.72809" lon="6.86572">
        <ele>2950</ele>
        <time>2000-01-01T07:30:55.000Z</time>
      </trkpt>
      <trkpt lat="45.72796" lon="6.8661">
        <ele>2945</ele>
        <time>2000-01-01T07:31:05.000Z</time>
      </trkpt>
      <trkpt lat="45.72775" lon="6.8662">
        <ele>2945</ele>
        <time>2000-01-01T07:31:15.000Z</time>
      </trkpt>
      <trkpt lat="45.72745" lon="6.86617">
        <ele>2930</ele>
        <time>2000-01-01T07:31:25.000Z</time>
      </trkpt>
      <trkpt lat="45.72741" lon="6.86585">
        <ele>2917</ele>
        <time>2000-01-01T07:31:35.000Z</time>
      </trkpt>
      <trkpt lat="45.72716" lon="6.86561">
        <ele>2902</ele>
        <time>2000-01-01T07:31:45.000Z</time>
      </trkpt>
      <trkpt lat="45.72703" lon="6.86591">
        <ele>2900</ele>
        <time>2000-01-01T07:31:55.000Z</time>
      </trkpt>
      <trkpt lat="45.72677" lon="6.86608">
        <ele>2878</ele>
        <time>2000-01-01T07:32:05.000Z</time>
      </trkpt>
      <trkpt lat="45.7264" lon="6.86632">
        <ele>2875</ele>
        <time>2000-01-01T07:32:15.000Z</time>
      </trkpt>
      <trkpt lat="45.72615" lon="6.86614">
        <ele>2859</ele>
        <time>2000-01-01T07:32:25.000Z</time>
      </trkpt>
      <trkpt lat="45.72599" lon="6.86629">
        <ele>2857</ele>
        <time>2000-01-01T07:32:35.000Z</time>
      </trkpt>
      <trkpt lat="45.72569" lon="6.86619">
        <ele>2850</ele>
        <time>2000-01-01T07:32:45.000Z</time>
      </trkpt>
      <trkpt lat="45.72562" lon="6.86602">
        <ele>2849.5</ele>
        <time>2000-01-01T07:32:55.000Z</time>
      </trkpt>
      <trkpt lat="45.72496" lon="6.86688">
        <ele>2845</ele>
        <time>2000-01-01T07:33:05.000Z</time>
      </trkpt>
      <trkpt lat="45.72456" lon="6.86674">
        <ele>2835</ele>
        <time>2000-01-01T07:33:15.000Z</time>
      </trkpt>
      <trkpt lat="45.72437" lon="6.86648">
        <ele>2827</ele>
        <time>2000-01-01T07:33:25.000Z</time>
      </trkpt>
      <trkpt lat="45.72412" lon="6.86616">
        <ele>2819</ele>
        <time>2000-01-01T07:33:35.000Z</time>
      </trkpt>
      <trkpt lat="45.72399" lon="6.86584">
        <ele>2802</ele>
        <time>2000-01-01T07:33:45.000Z</time>
      </trkpt>
      <trkpt lat="45.72383" lon="6.86544">
        <ele>2792</ele>
        <time>2000-01-01T07:33:55.000Z</time>
      </trkpt>
      <trkpt lat="45.72352" lon="6.86575">
        <ele>2781</ele>
        <time>2000-01-01T07:34:05.000Z</time>
      </trkpt>
      <trkpt lat="45.72344" lon="6.86608">
        <ele>2776</ele>
        <time>2000-01-01T07:34:15.000Z</time>
      </trkpt>
      <trkpt lat="45.72319" lon="6.86603">
        <ele>2758</ele>
        <time>2000-01-01T07:34:25.000Z</time>
      </trkpt>
      <trkpt lat="45.7229" lon="6.86598">
        <ele>2751</ele>
        <time>2000-01-01T07:34:35.000Z</time>
      </trkpt>
      <trkpt lat="45.72279" lon="6.8663">
        <ele>2745</ele>
        <time>2000-01-01T07:34:45.000Z</time>
      </trkpt>
      <trkpt lat="45.72267" lon="6.86666">
        <ele>2733</ele>
        <time>2000-01-01T07:34:55.000Z</time>
      </trkpt>
      <trkpt lat="45.72245" lon="6.86663">
        <ele>2733</ele>
        <time>2000-01-01T07:35:05.000Z</time>
      </trkpt>
      <trkpt lat="45.72242" lon="6.86675">
        <ele>2721.1</ele>
        <time>2000-01-01T07:35:15.000Z</time>
      </trkpt>
      <trkpt lat="45.72206" lon="6.86656">
        <ele>2707</ele>
        <time>2000-01-01T07:35:25.000Z</time>
      </trkpt>
      <trkpt lat="45.72188" lon="6.86663">
        <ele>2696</ele>
        <time>2000-01-01T07:35:35.000Z</time>
      </trkpt>
      <trkpt lat="45.72163" lon="6.86727">
        <ele>2688</ele>
        <time>2000-01-01T07:35:45.000Z</time>
      </trkpt>
      <trkpt lat="45.72129" lon="6.86724">
        <ele>2671</ele>
        <time>2000-01-01T07:35:55.000Z</time>
      </trkpt>
      <trkpt lat="45.72096" lon="6.86721">
        <ele>2655</ele>
        <time>2000-01-01T07:36:05.000Z</time>
      </trkpt>
      <trkpt lat="45.72044" lon="6.86717">
        <ele>2626</ele>
        <time>2000-01-01T07:36:15.000Z</time>
      </trkpt>
      <trkpt lat="45.72026" lon="6.86742">
        <ele>2620</ele>
        <time>2000-01-01T07:36:25.000Z</time>
      </trkpt>
      <trkpt lat="45.72004" lon="6.86772">
        <ele>2597</ele>
        <time>2000-01-01T07:36:35.000Z</time>
      </trkpt>
      <trkpt lat="45.71963" lon="6.86793">
        <ele>2592</ele>
        <time>2000-01-01T07:36:45.000Z</time>
      </trkpt>
      <trkpt lat="45.71966" lon="6.86829">
        <ele>2575</ele>
        <time>2000-01-01T07:36:55.000Z</time>
      </trkpt>
      <trkpt lat="45.7197" lon="6.86869">
        <ele>2573</ele>
        <time>2000-01-01T07:37:05.000Z</time>
      </trkpt>
      <trkpt lat="45.71949" lon="6.86873">
        <ele>2563</ele>
        <time>2000-01-01T07:37:15.000Z</time>
      </trkpt>
      <trkpt lat="45.7193" lon="6.86909">
        <ele>2552</ele>
        <time>2000-01-01T07:37:25.000Z</time>
      </trkpt>
      <trkpt lat="45.71892" lon="6.8698">
        <ele>2548</ele>
        <time>2000-01-01T07:37:35.000Z</time>
      </trkpt>
      <trkpt lat="45.71858" lon="6.87005">
        <ele>2545</ele>
        <time>2000-01-01T07:37:45.000Z</time>
      </trkpt>
      <trkpt lat="45.71824" lon="6.8703">
        <ele>2543</ele>
        <time>2000-01-01T07:37:55.000Z</time>
      </trkpt>
      <trkpt lat="45.7179" lon="6.87055">
        <ele>2536</ele>
        <time>2000-01-01T07:38:05.000Z</time>
      </trkpt>
      <trkpt lat="45.71757" lon="6.87079">
        <ele>2530</ele>
        <time>2000-01-01T07:38:15.000Z</time>
      </trkpt>
      <trkpt lat="45.71715" lon="6.8711">
        <ele>2527</ele>
        <time>2000-01-01T07:38:25.000Z</time>
      </trkpt>
      <trkpt lat="45.7169" lon="6.87146">
        <ele>2527</ele>
        <time>2000-01-01T07:38:35.000Z</time>
      </trkpt>
      <trkpt lat="45.71666" lon="6.87182">
        <ele>2523</ele>
        <time>2000-01-01T07:38:45.000Z</time>
      </trkpt>
      <trkpt lat="45.71619" lon="6.8725">
        <ele>2520</ele>
        <time>2000-01-01T07:38:55.000Z</time>
      </trkpt>
      <trkpt lat="45.71597" lon="6.87249">
        <ele>2517</ele>
        <time>2000-01-01T07:39:05.000Z</time>
      </trkpt>
      <trkpt lat="45.71572" lon="6.87273">
        <ele>2514</ele>
        <time>2000-01-01T07:39:15.000Z</time>
      </trkpt>
      <trkpt lat="45.71548" lon="6.87314">
        <ele>2499</ele>
        <time>2000-01-01T07:39:25.000Z</time>
      </trkpt>
      <trkpt lat="45.71525" lon="6.87355">
        <ele>2485</ele>
        <time>2000-01-01T07:39:35.000Z</time>
      </trkpt>
      <trkpt lat="45.71501" lon="6.87397">
        <ele>2485</ele>
        <time>2000-01-01T07:39:45.000Z</time>
      </trkpt>
      <trkpt lat="45.71457" lon="6.87473">
        <ele>2473</ele>
        <time>2000-01-01T07:39:55.000Z</time>
      </trkpt>
      <trkpt lat="45.71419" lon="6.87508">
        <ele>2472</ele>
        <time>2000-01-01T07:40:05.000Z</time>
      </trkpt>
      <trkpt lat="45.71417" lon="6.87534">
        <ele>2473.7</ele>
        <time>2000-01-01T07:40:15.000Z</time>
      </trkpt>
      <trkpt lat="45.7138" lon="6.87576">
        <ele>2439</ele>
        <time>2000-01-01T07:40:25.000Z</time>
      </trkpt>
      <trkpt lat="45.71346" lon="6.87588">
        <ele>2428</ele>
        <time>2000-01-01T07:40:35.000Z</time>
      </trkpt>
      <trkpt lat="45.71312" lon="6.87601">
        <ele>2418</ele>
        <time>2000-01-01T07:40:45.000Z</time>
      </trkpt>
      <trkpt lat="45.71245" lon="6.87625">
        <ele>2417</ele>
        <time>2000-01-01T07:40:55.000Z</time>
      </trkpt>
      <trkpt lat="45.71227" lon="6.87597">
        <ele>2416</ele>
        <time>2000-01-01T07:41:05.000Z</time>
      </trkpt>
      <trkpt lat="45.71204" lon="6.8756">
        <ele>2402</ele>
        <time>2000-01-01T07:41:15.000Z</time>
      </trkpt>
      <trkpt lat="45.71189" lon="6.8756">
        <ele>2416.8</ele>
        <time>2000-01-01T07:41:25.000Z</time>
      </trkpt>
      <trkpt lat="45.71097" lon="6.87623">
        <ele>2351</ele>
        <time>2000-01-01T07:41:35.000Z</time>
      </trkpt>
      <trkpt lat="45.71078" lon="6.87654">
        <ele>2351</ele>
        <time>2000-01-01T07:41:45.000Z</time>
      </trkpt>
      <trkpt lat="45.7105" lon="6.87702">
        <ele>2328</ele>
        <time>2000-01-01T07:41:55.000Z</time>
      </trkpt>
      <trkpt lat="45.71015" lon="6.87704">
        <ele>2322</ele>
        <time>2000-01-01T07:42:05.000Z</time>
      </trkpt>
      <trkpt lat="45.70986" lon="6.87741">
        <ele>2315</ele>
        <time>2000-01-01T07:42:15.000Z</time>
      </trkpt>
      <trkpt lat="45.70952" lon="6.87734">
        <ele>2297</ele>
        <time>2000-01-01T07:42:25.000Z</time>
      </trkpt>
      <trkpt lat="45.70945" lon="6.87768">
        <ele>2294</ele>
        <time>2000-01-01T07:42:35.000Z</time>
      </trkpt>
      <trkpt lat="45.70938" lon="6.87805">
        <ele>2289</ele>
        <time>2000-01-01T07:42:45.000Z</time>
      </trkpt>
      <trkpt lat="45.70918" lon="6.87828">
        <ele>2285</ele>
        <time>2000-01-01T07:42:55.000Z</time>
      </trkpt>
      <trkpt lat="45.70895" lon="6.87856">
        <ele>2277</ele>
        <time>2000-01-01T07:43:05.000Z</time>
      </trkpt>
      <trkpt lat="45.70889" lon="6.87918">
        <ele>2277</ele>
        <time>2000-01-01T07:43:15.000Z</time>
      </trkpt>
      <trkpt lat="45.70869" lon="6.87951">
        <ele>2260</ele>
        <time>2000-01-01T07:43:25.000Z</time>
      </trkpt>
      <trkpt lat="45.70835" lon="6.88009">
        <ele>2257</ele>
        <time>2000-01-01T07:43:35.000Z</time>
      </trkpt>
      <trkpt lat="45.70833" lon="6.88059">
        <ele>2253</ele>
        <time>2000-01-01T07:43:45.000Z</time>
      </trkpt>
      <trkpt lat="45.70817" lon="6.88085">
        <ele>2237</ele>
        <time>2000-01-01T07:43:55.000Z</time>
      </trkpt>
      <trkpt lat="45.70799" lon="6.88113">
        <ele>2215</ele>
        <time>2000-01-01T07:44:05.000Z</time>
      </trkpt>
      <trkpt lat="45.70789" lon="6.88155">
        <ele>2212</ele>
        <time>2000-01-01T07:44:15.000Z</time>
      </trkpt>
      <trkpt lat="45.70772" lon="6.88232">
        <ele>2204</ele>
        <time>2000-01-01T07:44:25.000Z</time>
      </trkpt>
      <trkpt lat="45.70756" lon="6.88272">
        <ele>2182</ele>
        <time>2000-01-01T07:44:35.000Z</time>
      </trkpt>
      <trkpt lat="45.70739" lon="6.88313">
        <ele>2167</ele>
        <time>2000-01-01T07:44:45.000Z</time>
      </trkpt>
      <trkpt lat="45.70719" lon="6.88364">
        <ele>2167</ele>
        <time>2000-01-01T07:44:55.000Z</time>
      </trkpt>
      <trkpt lat="45.70698" lon="6.88324">
        <ele>2156</ele>
        <time>2000-01-01T07:45:05.000Z</time>
      </trkpt>
      <trkpt lat="45.70677" lon="6.88285">
        <ele>2144</ele>
        <time>2000-01-01T07:45:15.000Z</time>
      </trkpt>
      <trkpt lat="45.7064" lon="6.88214">
        <ele>2129</ele>
        <time>2000-01-01T07:45:25.000Z</time>
      </trkpt>
      <trkpt lat="45.7063" lon="6.88161">
        <ele>2124</ele>
        <time>2000-01-01T07:45:35.000Z</time>
      </trkpt>
      <trkpt lat="45.70619" lon="6.88109">
        <ele>2119</ele>
        <time>2000-01-01T07:45:45.000Z</time>
      </trkpt>
      <trkpt lat="45.70609" lon="6.88056">
        <ele>2115</ele>
        <time>2000-01-01T07:45:55.000Z</time>
      </trkpt>
      <trkpt lat="45.70599" lon="6.88004">
        <ele>2093</ele>
        <time>2000-01-01T07:46:05.000Z</time>
      </trkpt>
      <trkpt lat="45.70586" lon="6.87938">
        <ele>2093</ele>
        <time>2000-01-01T07:46:15.000Z</time>
      </trkpt>
      <trkpt lat="45.70559" lon="6.87938">
        <ele>2080</ele>
        <time>2000-01-01T07:46:25.000Z</time>
      </trkpt>
      <trkpt lat="45.70525" lon="6.87938">
        <ele>2073</ele>
        <time>2000-01-01T07:46:35.000Z</time>
      </trkpt>
      <trkpt lat="45.70501" lon="6.87952">
        <ele>2067</ele>
        <time>2000-01-01T07:46:45.000Z</time>
      </trkpt>
      <trkpt lat="45.70473" lon="6.8797">
        <ele>2059</ele>
        <time>2000-01-01T07:46:55.000Z</time>
      </trkpt>
      <trkpt lat="45.70448" lon="6.87974">
        <ele>2057</ele>
        <time>2000-01-01T07:47:05.000Z</time>
      </trkpt>
      <trkpt lat="45.70418" lon="6.87979">
        <ele>2047</ele>
        <time>2000-01-01T07:47:15.000Z</time>
      </trkpt>
      <trkpt lat="45.70401" lon="6.88004">
        <ele>2031</ele>
        <time>2000-01-01T07:47:25.000Z</time>
      </trkpt>
      <trkpt lat="45.70384" lon="6.8803">
        <ele>2026</ele>
        <time>2000-01-01T07:47:35.000Z</time>
      </trkpt>
      <trkpt lat="45.70361" lon="6.88048">
        <ele>2022</ele>
        <time>2000-01-01T07:47:45.000Z</time>
      </trkpt>
      <trkpt lat="45.70332" lon="6.88072">
        <ele>2011</ele>
        <time>2000-01-01T07:47:55.000Z</time>
      </trkpt>
      <trkpt lat="45.70301" lon="6.88078">
        <ele>2006</ele>
        <time>2000-01-01T07:48:05.000Z</time>
      </trkpt>
      <trkpt lat="45.70277" lon="6.88066">
        <ele>1996</ele>
        <time>2000-01-01T07:48:15.000Z</time>
      </trkpt>
      <trkpt lat="45.70249" lon="6.88081">
        <ele>1992</ele>
        <time>2000-01-01T07:48:25.000Z</time>
      </trkpt>
      <trkpt lat="45.70199" lon="6.88107">
        <ele>1985</ele>
        <time>2000-01-01T07:48:35.000Z</time>
      </trkpt>
      <trkpt lat="45.70215" lon="6.88058">
        <ele>1981</ele>
        <time>2000-01-01T07:48:45.000Z</time>
      </trkpt>
      <trkpt lat="45.70189" lon="6.88054">
        <ele>1978</ele>
        <time>2000-01-01T07:48:55.000Z</time>
      </trkpt>
      <trkpt lat="45.7017" lon="6.88077">
        <ele>1976</ele>
        <time>2000-01-01T07:49:05.000Z</time>
      </trkpt>
      <trkpt lat="45.70149" lon="6.88103">
        <ele>1971</ele>
        <time>2000-01-01T07:49:15.000Z</time>
      </trkpt>
      <trkpt lat="45.70124" lon="6.88118">
        <ele>1955</ele>
        <time>2000-01-01T07:49:25.000Z</time>
      </trkpt>
      <trkpt lat="45.70088" lon="6.88139">
        <ele>1949</ele>
        <time>2000-01-01T07:49:35.000Z</time>
      </trkpt>
      <trkpt lat="45.70074" lon="6.88174">
        <ele>1947</ele>
        <time>2000-01-01T07:49:45.000Z</time>
      </trkpt>
      <trkpt lat="45.70055" lon="6.88223">
        <ele>1944</ele>
        <time>2000-01-01T07:49:55.000Z</time>
      </trkpt>
      <trkpt lat="45.70029" lon="6.88216">
        <ele>1942</ele>
        <time>2000-01-01T07:50:05.000Z</time>
      </trkpt>
      <trkpt lat="45.69996" lon="6.88206">
        <ele>1943</ele>
        <time>2000-01-01T07:50:15.000Z</time>
      </trkpt>
      <trkpt lat="45.69977" lon="6.88235">
        <ele>1943</ele>
        <time>2000-01-01T07:50:25.000Z</time>
      </trkpt>
      <trkpt lat="45.69948" lon="6.88279">
        <ele>1943</ele>
        <time>2000-01-01T07:50:35.000Z</time>
      </trkpt>
      <trkpt lat="45.69934" lon="6.8833">
        <ele>1940</ele>
        <time>2000-01-01T07:50:45.000Z</time>
      </trkpt>
      <trkpt lat="45.69921" lon="6.88382">
        <ele>1940</ele>
        <time>2000-01-01T07:50:55.000Z</time>
      </trkpt>
      <trkpt lat="45.69907" lon="6.88434">
        <ele>1941</ele>
        <time>2000-01-01T07:51:05.000Z</time>
      </trkpt>
      <trkpt lat="45.69893" lon="6.88485">
        <ele>1941</ele>
        <time>2000-01-01T07:51:15.000Z</time>
      </trkpt>
      <trkpt lat="45.69873" lon="6.88562">
        <ele>1942</ele>
        <time>2000-01-01T07:51:25.000Z</time>
      </trkpt>
      <trkpt lat="45.69855" lon="6.88559">
        <ele>1942.1</ele>
        <time>2000-01-01T07:51:35.000Z</time>
      </trkpt>
      <trkpt lat="45.69791" lon="6.88488">
        <ele>1959</ele>
        <time>2000-01-01T07:51:45.000Z</time>
      </trkpt>
      <trkpt lat="45.69764" lon="6.88468">
        <ele>1961</ele>
        <time>2000-01-01T07:51:55.000Z</time>
      </trkpt>
      <trkpt lat="45.69712" lon="6.8843">
        <ele>1973</ele>
        <time>2000-01-01T07:52:05.000Z</time>
      </trkpt>
      <trkpt lat="45.6968" lon="6.88423">
        <ele>1997</ele>
        <time>2000-01-01T07:52:15.000Z</time>
      </trkpt>
      <trkpt lat="45.69648" lon="6.88415">
        <ele>2003</ele>
        <time>2000-01-01T07:52:25.000Z</time>
      </trkpt>
      <trkpt lat="45.69608" lon="6.88406">
        <ele>2012</ele>
        <time>2000-01-01T07:52:35.000Z</time>
      </trkpt>
      <trkpt lat="45.69593" lon="6.88377">
        <ele>2022</ele>
        <time>2000-01-01T07:52:45.000Z</time>
      </trkpt>
      <trkpt lat="45.69575" lon="6.88345">
        <ele>2023</ele>
        <time>2000-01-01T07:52:55.000Z</time>
      </trkpt>
      <trkpt lat="45.69575" lon="6.8831">
        <ele>2027</ele>
        <time>2000-01-01T07:53:05.000Z</time>
      </trkpt>
      <trkpt lat="45.69574" lon="6.88272">
        <ele>2033</ele>
        <time>2000-01-01T07:53:15.000Z</time>
      </trkpt>
      <trkpt lat="45.69549" lon="6.88253">
        <ele>2055</ele>
        <time>2000-01-01T07:53:25.000Z</time>
      </trkpt>
      <trkpt lat="45.69543" lon="6.8822">
        <ele>2062</ele>
        <time>2000-01-01T07:53:35.000Z</time>
      </trkpt>
      <trkpt lat="45.69516" lon="6.88256">
        <ele>2073</ele>
        <time>2000-01-01T07:53:45.000Z</time>
      </trkpt>
      <trkpt lat="45.69489" lon="6.88293">
        <ele>2073</ele>
        <time>2000-01-01T07:53:55.000Z</time>
      </trkpt>
      <trkpt lat="45.69463" lon="6.88329">
        <ele>2073</ele>
        <time>2000-01-01T07:54:05.000Z</time>
      </trkpt>
      <trkpt lat="45.69419" lon="6.88389">
        <ele>2074</ele>
        <time>2000-01-01T07:54:15.000Z</time>
      </trkpt>
      <trkpt lat="45.69424" lon="6.88355">
        <ele>2077</ele>
        <time>2000-01-01T07:54:25.000Z</time>
      </trkpt>
      <trkpt lat="45.6943" lon="6.88317">
        <ele>2083</ele>
        <time>2000-01-01T07:54:35.000Z</time>
      </trkpt>
      <trkpt lat="45.69406" lon="6.8834">
        <ele>2088</ele>
        <time>2000-01-01T07:54:45.000Z</time>
      </trkpt>
      <trkpt lat="45.69367" lon="6.88377">
        <ele>2090</ele>
        <time>2000-01-01T07:54:55.000Z</time>
      </trkpt>
      <trkpt lat="45.69339" lon="6.88387">
        <ele>2092</ele>
        <time>2000-01-01T07:55:05.000Z</time>
      </trkpt>
      <trkpt lat="45.69312" lon="6.88382">
        <ele>2096</ele>
        <time>2000-01-01T07:55:15.000Z</time>
      </trkpt>
      <trkpt lat="45.69274" lon="6.88376">
        <ele>2096</ele>
        <time>2000-01-01T07:55:25.000Z</time>
      </trkpt>
      <trkpt lat="45.69241" lon="6.8836">
        <ele>2097</ele>
        <time>2000-01-01T07:55:35.000Z</time>
      </trkpt>
      <trkpt lat="45.69208" lon="6.88344">
        <ele>2096</ele>
        <time>2000-01-01T07:55:45.000Z</time>
      </trkpt>
      <trkpt lat="45.69146" lon="6.88315">
        <ele>2096</ele>
        <time>2000-01-01T07:55:55.000Z</time>
      </trkpt>
      <trkpt lat="45.69143" lon="6.88272">
        <ele>2097</ele>
        <time>2000-01-01T07:56:05.000Z</time>
      </trkpt>
      <trkpt lat="45.69138" lon="6.88199">
        <ele>2098</ele>
        <time>2000-01-01T07:56:15.000Z</time>
      </trkpt>
      <trkpt lat="45.6911" lon="6.88159">
        <ele>2098</ele>
        <time>2000-01-01T07:56:25.000Z</time>
      </trkpt>
      <trkpt lat="45.69077" lon="6.88133">
        <ele>2098</ele>
        <time>2000-01-01T07:56:35.000Z</time>
      </trkpt>
      <trkpt lat="45.69043" lon="6.88108">
        <ele>2100</ele>
        <time>2000-01-01T07:56:45.000Z</time>
      </trkpt>
      <trkpt lat="45.6901" lon="6.88082">
        <ele>2101</ele>
        <time>2000-01-01T07:56:55.000Z</time>
      </trkpt>
      <trkpt lat="45.68977" lon="6.88057">
        <ele>2101</ele>
        <time>2000-01-01T07:57:05.000Z</time>
      </trkpt>
      <trkpt lat="45.68941" lon="6.88029">
        <ele>2102</ele>
        <time>2000-01-01T07:57:15.000Z</time>
      </trkpt>
      <trkpt lat="45.6892" lon="6.88003">
        <ele>2109</ele>
        <time>2000-01-01T07:57:25.000Z</time>
      </trkpt>
      <trkpt lat="45.6889" lon="6.87967">
        <ele>2108</ele>
        <time>2000-01-01T07:57:35.000Z</time>
      </trkpt>
      <trkpt lat="45.68864" lon="6.8796">
        <ele>2108</ele>
        <time>2000-01-01T07:57:45.000Z</time>
      </trkpt>
      <trkpt lat="45.68833" lon="6.87952">
        <ele>2108</ele>
        <time>2000-01-01T07:57:55.000Z</time>
      </trkpt>
      <trkpt lat="45.68801" lon="6.87926">
        <ele>2111</ele>
        <time>2000-01-01T07:58:05.000Z</time>
      </trkpt>
      <trkpt lat="45.68769" lon="6.87899">
        <ele>2115</ele>
        <time>2000-01-01T07:58:15.000Z</time>
      </trkpt>
      <trkpt lat="45.68737" lon="6.87873">
        <ele>2110</ele>
        <time>2000-01-01T07:58:25.000Z</time>
      </trkpt>
      <trkpt lat="45.68683" lon="6.87829">
        <ele>2105</ele>
        <time>2000-01-01T07:58:35.000Z</time>
      </trkpt>
      <trkpt lat="45.68656" lon="6.87818">
        <ele>2105</ele>
        <time>2000-01-01T07:58:45.000Z</time>
      </trkpt>
      <trkpt lat="45.68614" lon="6.87802">
        <ele>2109</ele>
        <time>2000-01-01T07:58:55.000Z</time>
      </trkpt>
      <trkpt lat="45.68587" lon="6.87817">
        <ele>2116</ele>
        <time>2000-01-01T07:59:05.000Z</time>
      </trkpt>
      <trkpt lat="45.68544" lon="6.87842">
        <ele>2111</ele>
        <time>2000-01-01T07:59:15.000Z</time>
      </trkpt>
      <trkpt lat="45.68529" lon="6.87881">
        <ele>2112</ele>
        <time>2000-01-01T07:59:25.000Z</time>
      </trkpt>
      <trkpt lat="45.68502" lon="6.87954">
        <ele>2110</ele>
        <time>2000-01-01T07:59:35.000Z</time>
      </trkpt>
      <trkpt lat="45.68502" lon="6.87995">
        <ele>2108</ele>
        <time>2000-01-01T07:59:45.000Z</time>
      </trkpt>
      <trkpt lat="45.68517" lon="6.88016">
        <ele>2108</ele>
        <time>2000-01-01T07:59:55.000Z</time>
      </trkpt>
      <trkpt lat="45.6851" lon="6.88059">
        <ele>2115</ele>
        <time>2000-01-01T08:00:05.000Z</time>
      </trkpt>
      <trkpt lat="45.68496" lon="6.88142">
        <ele>2123</ele>
        <time>2000-01-01T08:00:15.000Z</time>
      </trkpt>
      <trkpt lat="45.68469" lon="6.88144">
        <ele>2137</ele>
        <time>2000-01-01T08:00:25.000Z</time>
      </trkpt>
      <trkpt lat="45.68476" lon="6.88166">
        <ele>2157.6</ele>
        <time>2000-01-01T08:00:35.000Z</time>
      </trkpt>
      <trkpt lat="45.68416" lon="6.88173">
        <ele>2163</ele>
        <time>2000-01-01T08:00:45.000Z</time>
      </trkpt>
      <trkpt lat="45.68429" lon="6.88209">
        <ele>2174</ele>
        <time>2000-01-01T08:00:55.000Z</time>
      </trkpt>
      <trkpt lat="45.68449" lon="6.88266">
        <ele>2184</ele>
        <time>2000-01-01T08:01:05.000Z</time>
      </trkpt>
      <trkpt lat="45.68457" lon="6.88312">
        <ele>2184</ele>
        <time>2000-01-01T08:01:15.000Z</time>
      </trkpt>
      <trkpt lat="45.68465" lon="6.88357">
        <ele>2183</ele>
        <time>2000-01-01T08:01:25.000Z</time>
      </trkpt>
      <trkpt lat="45.68476" lon="6.88418">
        <ele>2187</ele>
        <time>2000-01-01T08:01:35.000Z</time>
      </trkpt>
      <trkpt lat="45.68458" lon="6.88466">
        <ele>2189</ele>
        <time>2000-01-01T08:01:45.000Z</time>
      </trkpt>
      <trkpt lat="45.68425" lon="6.8849">
        <ele>2189</ele>
        <time>2000-01-01T08:01:55.000Z</time>
      </trkpt>
      <trkpt lat="45.68415" lon="6.88527">
        <ele>2189</ele>
        <time>2000-01-01T08:02:05.000Z</time>
      </trkpt>
      <trkpt lat="45.68402" lon="6.88579">
        <ele>2186</ele>
        <time>2000-01-01T08:02:15.000Z</time>
      </trkpt>
      <trkpt lat="45.6837" lon="6.88605">
        <ele>2186</ele>
        <time>2000-01-01T08:02:25.000Z</time>
      </trkpt>
      <trkpt lat="45.68338" lon="6.88582">
        <ele>2186</ele>
        <time>2000-01-01T08:02:35.000Z</time>
      </trkpt>
      <trkpt lat="45.68307" lon="6.88559">
        <ele>2190</ele>
        <time>2000-01-01T08:02:45.000Z</time>
      </trkpt>
      <trkpt lat="45.68275" lon="6.88536">
        <ele>2191</ele>
        <time>2000-01-01T08:02:55.000Z</time>
      </trkpt>
      <trkpt lat="45.68243" lon="6.88512">
        <ele>2194</ele>
        <time>2000-01-01T08:03:05.000Z</time>
      </trkpt>
      <trkpt lat="45.68217" lon="6.88483">
        <ele>2198</ele>
        <time>2000-01-01T08:03:15.000Z</time>
      </trkpt>
      <trkpt lat="45.68192" lon="6.88454">
        <ele>2199</ele>
        <time>2000-01-01T08:03:25.000Z</time>
      </trkpt>
      <trkpt lat="45.6816" lon="6.88417">
        <ele>2199</ele>
        <time>2000-01-01T08:03:35.000Z</time>
      </trkpt>
      <trkpt lat="45.68133" lon="6.88409">
        <ele>2199</ele>
        <time>2000-01-01T08:03:45.000Z</time>
      </trkpt>
      <trkpt lat="45.68095" lon="6.88399">
        <ele>2201</ele>
        <time>2000-01-01T08:03:55.000Z</time>
      </trkpt>
      <trkpt lat="45.68075" lon="6.88377">
        <ele>2204</ele>
        <time>2000-01-01T08:04:05.000Z</time>
      </trkpt>
      <trkpt lat="45.68051" lon="6.88351">
        <ele>2204</ele>
        <time>2000-01-01T08:04:15.000Z</time>
      </trkpt>
      <trkpt lat="45.68027" lon="6.88349">
        <ele>2201</ele>
        <time>2000-01-01T08:04:25.000Z</time>
      </trkpt>
      <trkpt lat="45.68003" lon="6.88347">
        <ele>2199</ele>
        <time>2000-01-01T08:04:35.000Z</time>
      </trkpt>
      <trkpt lat="45.67985" lon="6.88317">
        <ele>2197</ele>
        <time>2000-01-01T08:04:45.000Z</time>
      </trkpt>
      <trkpt lat="45.67961" lon="6.88276">
        <ele>2194</ele>
        <time>2000-01-01T08:04:55.000Z</time>
      </trkpt>
      <trkpt lat="45.67927" lon="6.88257">
        <ele>2191</ele>
        <time>2000-01-01T08:05:05.000Z</time>
      </trkpt>
      <trkpt lat="45.67892" lon="6.88237">
        <ele>2189</ele>
        <time>2000-01-01T08:05:15.000Z</time>
      </trkpt>
      <trkpt lat="45.67858" lon="6.88218">
        <ele>2187</ele>
        <time>2000-01-01T08:05:25.000Z</time>
      </trkpt>
      <trkpt lat="45.67803" lon="6.88187">
        <ele>2185</ele>
        <time>2000-01-01T08:05:35.000Z</time>
      </trkpt>
      <trkpt lat="45.67767" lon="6.88153">
        <ele>2184</ele>
        <time>2000-01-01T08:05:45.000Z</time>
      </trkpt>
      <trkpt lat="45.67732" lon="6.88118">
        <ele>2184</ele>
        <time>2000-01-01T08:05:55.000Z</time>
      </trkpt>
      <trkpt lat="45.67696" lon="6.88084">
        <ele>2179</ele>
        <time>2000-01-01T08:06:05.000Z</time>
      </trkpt>
      <trkpt lat="45.6766" lon="6.88049">
        <ele>2176</ele>
        <time>2000-01-01T08:06:15.000Z</time>
      </trkpt>
      <trkpt lat="45.67624" lon="6.88015">
        <ele>2173</ele>
        <time>2000-01-01T08:06:25.000Z</time>
      </trkpt>
      <trkpt lat="45.67589" lon="6.8798">
        <ele>2173</ele>
        <time>2000-01-01T08:06:35.000Z</time>
      </trkpt>
      <trkpt lat="45.67553" lon="6.87946">
        <ele>2172</ele>
        <time>2000-01-01T08:06:45.000Z</time>
      </trkpt>
      <trkpt lat="45.67517" lon="6.87911">
        <ele>2172</ele>
        <time>2000-01-01T08:06:55.000Z</time>
      </trkpt>
      <trkpt lat="45.67481" lon="6.87877">
        <ele>2172</ele>
        <time>2000-01-01T08:07:05.000Z</time>
      </trkpt>
      <trkpt lat="45.67446" lon="6.87842">
        <ele>2172</ele>
        <time>2000-01-01T08:07:15.000Z</time>
      </trkpt>
      <trkpt lat="45.67382" lon="6.87781">
        <ele>2172</ele>
        <time>2000-01-01T08:07:25.000Z</time>
      </trkpt>
      <trkpt lat="45.67348" lon="6.87752">
        <ele>2173</ele>
        <time>2000-01-01T08:07:35.000Z</time>
      </trkpt>
      <trkpt lat="45.67315" lon="6.87723">
        <ele>2173</ele>
        <time>2000-01-01T08:07:45.000Z</time>
      </trkpt>
      <trkpt lat="45.67281" lon="6.87694">
        <ele>2168</ele>
        <time>2000-01-01T08:07:55.000Z</time>
      </trkpt>
      <trkpt lat="45.67247" lon="6.87665">
        <ele>2166</ele>
        <time>2000-01-01T08:08:05.000Z</time>
      </trkpt>
      <trkpt lat="45.67213" lon="6.87636">
        <ele>2165</ele>
        <time>2000-01-01T08:08:15.000Z</time>
      </trkpt>
      <trkpt lat="45.67176" lon="6.87604">
        <ele>2165</ele>
        <time>2000-01-01T08:08:25.000Z</time>
      </trkpt>
      <trkpt lat="45.6721" lon="6.87642">
        <ele>2165</ele>
        <time>2000-01-01T08:08:35.000Z</time>
      </trkpt>
      <trkpt lat="45.67245" lon="6.87681">
        <ele>2166</ele>
        <time>2000-01-01T08:08:45.000Z</time>
      </trkpt>
      <trkpt lat="45.67279" lon="6.87719">
        <ele>2166</ele>
        <time>2000-01-01T08:08:55.000Z</time>
      </trkpt>
      <trkpt lat="45.67313" lon="6.87757">
        <ele>2170</ele>
        <time>2000-01-01T08:09:05.000Z</time>
      </trkpt>
      <trkpt lat="45.67347" lon="6.87796">
        <ele>2173</ele>
        <time>2000-01-01T08:09:15.000Z</time>
      </trkpt>
      <trkpt lat="45.67382" lon="6.87834">
        <ele>2173</ele>
        <time>2000-01-01T08:09:25.000Z</time>
      </trkpt>
      <trkpt lat="45.67416" lon="6.87873">
        <ele>2173</ele>
        <time>2000-01-01T08:09:35.000Z</time>
      </trkpt>
      <trkpt lat="45.6745" lon="6.87911">
        <ele>2173</ele>
        <time>2000-01-01T08:09:45.000Z</time>
      </trkpt>
      <trkpt lat="45.67485" lon="6.87949">
        <ele>2173</ele>
        <time>2000-01-01T08:09:55.000Z</time>
      </trkpt>
      <trkpt lat="45.67519" lon="6.87988">
        <ele>2174</ele>
        <time>2000-01-01T08:10:05.000Z</time>
      </trkpt>
      <trkpt lat="45.67553" lon="6.88026">
        <ele>2183</ele>
        <time>2000-01-01T08:10:15.000Z</time>
      </trkpt>
      <trkpt lat="45.67587" lon="6.88064">
        <ele>2183</ele>
        <time>2000-01-01T08:10:25.000Z</time>
      </trkpt>
      <trkpt lat="45.6763" lon="6.88112">
        <ele>2183</ele>
        <time>2000-01-01T08:10:35.000Z</time>
      </trkpt>
      <trkpt lat="45.67654" lon="6.88133">
        <ele>2184</ele>
        <time>2000-01-01T08:10:45.000Z</time>
      </trkpt>
      <trkpt lat="45.67691" lon="6.88166">
        <ele>2186</ele>
        <time>2000-01-01T08:10:55.000Z</time>
      </trkpt>
      <trkpt lat="45.67728" lon="6.88187">
        <ele>2186</ele>
        <time>2000-01-01T08:11:05.000Z</time>
      </trkpt>
      <trkpt lat="45.67764" lon="6.88209">
        <ele>2186</ele>
        <time>2000-01-01T08:11:15.000Z</time>
      </trkpt>
      <trkpt lat="45.67801" lon="6.88231">
        <ele>2187</ele>
        <time>2000-01-01T08:11:25.000Z</time>
      </trkpt>
      <trkpt lat="45.67838" lon="6.88252">
        <ele>2189</ele>
        <time>2000-01-01T08:11:35.000Z</time>
      </trkpt>
      <trkpt lat="45.67875" lon="6.88273">
        <ele>2192</ele>
        <time>2000-01-01T08:11:45.000Z</time>
      </trkpt>
      <trkpt lat="45.67925" lon="6.88303">
        <ele>2195</ele>
        <time>2000-01-01T08:11:55.000Z</time>
      </trkpt>
      <trkpt lat="45.67947" lon="6.88332">
        <ele>2198</ele>
        <time>2000-01-01T08:12:05.000Z</time>
      </trkpt>
      <trkpt lat="45.67987" lon="6.88384">
        <ele>2199</ele>
        <time>2000-01-01T08:12:15.000Z</time>
      </trkpt>
      <trkpt lat="45.67999" lon="6.88419">
        <ele>2203</ele>
        <time>2000-01-01T08:12:25.000Z</time>
      </trkpt>
      <trkpt lat="45.68015" lon="6.88469">
        <ele>2202</ele>
        <time>2000-01-01T08:12:35.000Z</time>
      </trkpt>
      <trkpt lat="45.68046" lon="6.88465">
        <ele>2201</ele>
        <time>2000-01-01T08:12:45.000Z</time>
      </trkpt>
      <trkpt lat="45.68078" lon="6.88462">
        <ele>2200</ele>
        <time>2000-01-01T08:12:55.000Z</time>
      </trkpt>
      <trkpt lat="45.68109" lon="6.88458">
        <ele>2194</ele>
        <time>2000-01-01T08:13:05.000Z</time>
      </trkpt>
      <trkpt lat="45.68145" lon="6.88485">
        <ele>2193</ele>
        <time>2000-01-01T08:13:15.000Z</time>
      </trkpt>
      <trkpt lat="45.68181" lon="6.88512">
        <ele>2192</ele>
        <time>2000-01-01T08:13:25.000Z</time>
      </trkpt>
      <trkpt lat="45.68217" lon="6.88538">
        <ele>2191</ele>
        <time>2000-01-01T08:13:35.000Z</time>
      </trkpt>
      <trkpt lat="45.68253" lon="6.88565">
        <ele>2190</ele>
        <time>2000-01-01T08:13:45.000Z</time>
      </trkpt>
      <trkpt lat="45.68289" lon="6.88592">
        <ele>2190</ele>
        <time>2000-01-01T08:13:55.000Z</time>
      </trkpt>
      <trkpt lat="45.68325" lon="6.88619">
        <ele>2185</ele>
        <time>2000-01-01T08:14:05.000Z</time>
      </trkpt>
      <trkpt lat="45.68368" lon="6.88651">
        <ele>2185</ele>
        <time>2000-01-01T08:14:15.000Z</time>
      </trkpt>
      <trkpt lat="45.68343" lon="6.88689">
        <ele>2189</ele>
        <time>2000-01-01T08:14:25.000Z</time>
      </trkpt>
      <trkpt lat="45.6837" lon="6.88729">
        <ele>2191</ele>
        <time>2000-01-01T08:14:35.000Z</time>
      </trkpt>
      <trkpt lat="45.68397" lon="6.8877">
        <ele>2197</ele>
        <time>2000-01-01T08:14:45.000Z</time>
      </trkpt>
      <trkpt lat="45.68423" lon="6.8881">
        <ele>2202</ele>
        <time>2000-01-01T08:14:55.000Z</time>
      </trkpt>
      <trkpt lat="45.6845" lon="6.8885">
        <ele>2207</ele>
        <time>2000-01-01T08:15:05.000Z</time>
      </trkpt>
      <trkpt lat="45.68497" lon="6.88921">
        <ele>2207</ele>
        <time>2000-01-01T08:15:15.000Z</time>
      </trkpt>
      <trkpt lat="45.68516" lon="6.8896">
        <ele>2212</ele>
        <time>2000-01-01T08:15:25.000Z</time>
      </trkpt>
      <trkpt lat="45.68534" lon="6.88999">
        <ele>2218</ele>
        <time>2000-01-01T08:15:35.000Z</time>
      </trkpt>
      <trkpt lat="45.68559" lon="6.8905">
        <ele>2229</ele>
        <time>2000-01-01T08:15:45.000Z</time>
      </trkpt>
      <trkpt lat="45.68581" lon="6.89082">
        <ele>2232</ele>
        <time>2000-01-01T08:15:55.000Z</time>
      </trkpt>
      <trkpt lat="45.68623" lon="6.89145">
        <ele>2235</ele>
        <time>2000-01-01T08:16:05.000Z</time>
      </trkpt>
      <trkpt lat="45.68642" lon="6.89197">
        <ele>2236</ele>
        <time>2000-01-01T08:16:15.000Z</time>
      </trkpt>
      <trkpt lat="45.68661" lon="6.8925">
        <ele>2237</ele>
        <time>2000-01-01T08:16:25.000Z</time>
      </trkpt>
      <trkpt lat="45.68679" lon="6.89302">
        <ele>2249</ele>
        <time>2000-01-01T08:16:35.000Z</time>
      </trkpt>
      <trkpt lat="45.68698" lon="6.89355">
        <ele>2254</ele>
        <time>2000-01-01T08:16:45.000Z</time>
      </trkpt>
      <trkpt lat="45.68717" lon="6.89408">
        <ele>2261</ele>
        <time>2000-01-01T08:16:55.000Z</time>
      </trkpt>
      <trkpt lat="45.68736" lon="6.8946">
        <ele>2276</ele>
        <time>2000-01-01T08:17:05.000Z</time>
      </trkpt>
      <trkpt lat="45.68755" lon="6.89513">
        <ele>2276</ele>
        <time>2000-01-01T08:17:15.000Z</time>
      </trkpt>
      <trkpt lat="45.68775" lon="6.89569">
        <ele>2277</ele>
        <time>2000-01-01T08:17:25.000Z</time>
      </trkpt>
      <trkpt lat="45.68766" lon="6.89604">
        <ele>2284</ele>
        <time>2000-01-01T08:17:35.000Z</time>
      </trkpt>
      <trkpt lat="45.68756" lon="6.89646">
        <ele>2286</ele>
        <time>2000-01-01T08:17:45.000Z</time>
      </trkpt>
      <trkpt lat="45.68737" lon="6.89658">
        <ele>2288</ele>
        <time>2000-01-01T08:17:55.000Z</time>
      </trkpt>
      <trkpt lat="45.68702" lon="6.89649">
        <ele>2290</ele>
        <time>2000-01-01T08:18:05.000Z</time>
      </trkpt>
      <trkpt lat="45.6868" lon="6.89694">
        <ele>2290</ele>
        <time>2000-01-01T08:18:15.000Z</time>
      </trkpt>
      <trkpt lat="45.68652" lon="6.89718">
        <ele>2294</ele>
        <time>2000-01-01T08:18:25.000Z</time>
      </trkpt>
      <trkpt lat="45.68625" lon="6.89743">
        <ele>2297</ele>
        <time>2000-01-01T08:18:35.000Z</time>
      </trkpt>
      <trkpt lat="45.68591" lon="6.89773">
        <ele>2300</ele>
        <time>2000-01-01T08:18:45.000Z</time>
      </trkpt>
      <trkpt lat="45.6861" lon="6.89821">
        <ele>2310</ele>
        <time>2000-01-01T08:18:55.000Z</time>
      </trkpt>
      <trkpt lat="45.68595" lon="6.89877">
        <ele>2310</ele>
        <time>2000-01-01T08:19:05.000Z</time>
      </trkpt>
      <trkpt lat="45.68605" lon="6.89919">
        <ele>2325</ele>
        <time>2000-01-01T08:19:15.000Z</time>
      </trkpt>
      <trkpt lat="45.68634" lon="6.8994">
        <ele>2328</ele>
        <time>2000-01-01T08:19:25.000Z</time>
      </trkpt>
      <trkpt lat="45.68664" lon="6.89961">
        <ele>2327</ele>
        <time>2000-01-01T08:19:35.000Z</time>
      </trkpt>
      <trkpt lat="45.68703" lon="6.89989">
        <ele>2327</ele>
        <time>2000-01-01T08:19:45.000Z</time>
      </trkpt>
      <trkpt lat="45.68683" lon="6.90027">
        <ele>2340</ele>
        <time>2000-01-01T08:19:55.000Z</time>
      </trkpt>
      <trkpt lat="45.68662" lon="6.90066">
        <ele>2343</ele>
        <time>2000-01-01T08:20:05.000Z</time>
      </trkpt>
      <trkpt lat="45.68631" lon="6.90125">
        <ele>2349</ele>
        <time>2000-01-01T08:20:15.000Z</time>
      </trkpt>
      <trkpt lat="45.68622" lon="6.90167">
        <ele>2356</ele>
        <time>2000-01-01T08:20:25.000Z</time>
      </trkpt>
      <trkpt lat="45.68603" lon="6.90251">
        <ele>2363</ele>
        <time>2000-01-01T08:20:35.000Z</time>
      </trkpt>
      <trkpt lat="45.68624" lon="6.90302">
        <ele>2368</ele>
        <time>2000-01-01T08:20:45.000Z</time>
      </trkpt>
      <trkpt lat="45.68606" lon="6.90337">
        <ele>2373</ele>
        <time>2000-01-01T08:20:55.000Z</time>
      </trkpt>
      <trkpt lat="45.68636" lon="6.90369">
        <ele>2383</ele>
        <time>2000-01-01T08:21:05.000Z</time>
      </trkpt>
      <trkpt lat="45.68665" lon="6.90401">
        <ele>2389</ele>
        <time>2000-01-01T08:21:15.000Z</time>
      </trkpt>
      <trkpt lat="45.68695" lon="6.90433">
        <ele>2399</ele>
        <time>2000-01-01T08:21:25.000Z</time>
      </trkpt>
      <trkpt lat="45.68744" lon="6.90486">
        <ele>2399</ele>
        <time>2000-01-01T08:21:35.000Z</time>
      </trkpt>
      <trkpt lat="45.68734" lon="6.90532">
        <ele>2400</ele>
        <time>2000-01-01T08:21:45.000Z</time>
      </trkpt>
      <trkpt lat="45.68724" lon="6.90578">
        <ele>2401</ele>
        <time>2000-01-01T08:21:55.000Z</time>
      </trkpt>
      <trkpt lat="45.6871" lon="6.90646">
        <ele>2399</ele>
        <time>2000-01-01T08:22:05.000Z</time>
      </trkpt>
      <trkpt lat="45.68692" lon="6.90695">
        <ele>2398</ele>
        <time>2000-01-01T08:22:15.000Z</time>
      </trkpt>
      <trkpt lat="45.68674" lon="6.90744">
        <ele>2399</ele>
        <time>2000-01-01T08:22:25.000Z</time>
      </trkpt>
      <trkpt lat="45.68656" lon="6.90792">
        <ele>2401</ele>
        <time>2000-01-01T08:22:35.000Z</time>
      </trkpt>
      <trkpt lat="45.68639" lon="6.90841">
        <ele>2403</ele>
        <time>2000-01-01T08:22:45.000Z</time>
      </trkpt>
      <trkpt lat="45.68612" lon="6.90914">
        <ele>2410</ele>
        <time>2000-01-01T08:22:55.000Z</time>
      </trkpt>
      <trkpt lat="45.6864" lon="6.90936">
        <ele>2417</ele>
        <time>2000-01-01T08:23:05.000Z</time>
      </trkpt>
      <trkpt lat="45.68667" lon="6.90959">
        <ele>2423</ele>
        <time>2000-01-01T08:23:15.000Z</time>
      </trkpt>
      <trkpt lat="45.68697" lon="6.90983">
        <ele>2437</ele>
        <time>2000-01-01T08:23:25.000Z</time>
      </trkpt>
      <trkpt lat="45.68684" lon="6.91">
        <ele>2434.1</ele>
        <time>2000-01-01T08:23:35.000Z</time>
      </trkpt>
      <trkpt lat="45.68629" lon="6.91007">
        <ele>2454</ele>
        <time>2000-01-01T08:23:45.000Z</time>
      </trkpt>
      <trkpt lat="45.68628" lon="6.91042">
        <ele>2465</ele>
        <time>2000-01-01T08:23:55.000Z</time>
      </trkpt>
      <trkpt lat="45.6865" lon="6.91072">
        <ele>2465</ele>
        <time>2000-01-01T08:24:05.000Z</time>
      </trkpt>
      <trkpt lat="45.68689" lon="6.91125">
        <ele>2465</ele>
        <time>2000-01-01T08:24:15.000Z</time>
      </trkpt>
      <trkpt lat="45.68724" lon="6.91145">
        <ele>2474</ele>
        <time>2000-01-01T08:24:25.000Z</time>
      </trkpt>
      <trkpt lat="45.68712" lon="6.91161">
        <ele>2468.9</ele>
        <time>2000-01-01T08:24:35.000Z</time>
      </trkpt>
      <trkpt lat="45.68655" lon="6.91164">
        <ele>2484</ele>
        <time>2000-01-01T08:24:45.000Z</time>
      </trkpt>
      <trkpt lat="45.68623" lon="6.91146">
        <ele>2484</ele>
        <time>2000-01-01T08:24:55.000Z</time>
      </trkpt>
      <trkpt lat="45.68591" lon="6.91128">
        <ele>2485</ele>
        <time>2000-01-01T08:25:05.000Z</time>
      </trkpt>
      <trkpt lat="45.68535" lon="6.91097">
        <ele>2481</ele>
        <time>2000-01-01T08:25:15.000Z</time>
      </trkpt>
      <trkpt lat="45.68549" lon="6.9113">
        <ele>2477</ele>
        <time>2000-01-01T08:25:25.000Z</time>
      </trkpt>
      <trkpt lat="45.68568" lon="6.91173">
        <ele>2475</ele>
        <time>2000-01-01T08:25:35.000Z</time>
      </trkpt>
      <trkpt lat="45.68562" lon="6.91233">
        <ele>2463</ele>
        <time>2000-01-01T08:25:45.000Z</time>
      </trkpt>
      <trkpt lat="45.68547" lon="6.91273">
        <ele>2454</ele>
        <time>2000-01-01T08:25:55.000Z</time>
      </trkpt>
      <trkpt lat="45.68531" lon="6.91312">
        <ele>2453</ele>
        <time>2000-01-01T08:26:05.000Z</time>
      </trkpt>
      <trkpt lat="45.68515" lon="6.91355">
        <ele>2452</ele>
        <time>2000-01-01T08:26:15.000Z</time>
      </trkpt>
      <trkpt lat="45.68512" lon="6.91402">
        <ele>2452</ele>
        <time>2000-01-01T08:26:25.000Z</time>
      </trkpt>
      <trkpt lat="45.68508" lon="6.91449">
        <ele>2449</ele>
        <time>2000-01-01T08:26:35.000Z</time>
      </trkpt>
      <trkpt lat="45.68504" lon="6.91514">
        <ele>2447</ele>
        <time>2000-01-01T08:26:45.000Z</time>
      </trkpt>
      <trkpt lat="45.68528" lon="6.91545">
        <ele>2436</ele>
        <time>2000-01-01T08:26:55.000Z</time>
      </trkpt>
      <trkpt lat="45.68551" lon="6.91575">
        <ele>2418</ele>
        <time>2000-01-01T08:27:05.000Z</time>
      </trkpt>
      <trkpt lat="45.68577" lon="6.91609">
        <ele>2412</ele>
        <time>2000-01-01T08:27:15.000Z</time>
      </trkpt>
      <trkpt lat="45.6856" lon="6.91645">
        <ele>2410</ele>
        <time>2000-01-01T08:27:25.000Z</time>
      </trkpt>
      <trkpt lat="45.68527" lon="6.91713">
        <ele>2407</ele>
        <time>2000-01-01T08:27:35.000Z</time>
      </trkpt>
      <trkpt lat="45.68515" lon="6.91758">
        <ele>2404</ele>
        <time>2000-01-01T08:27:45.000Z</time>
      </trkpt>
      <trkpt lat="45.68503" lon="6.91803">
        <ele>2391</ele>
        <time>2000-01-01T08:27:55.000Z</time>
      </trkpt>
      <trkpt lat="45.68484" lon="6.91871">
        <ele>2382</ele>
        <time>2000-01-01T08:28:05.000Z</time>
      </trkpt>
      <trkpt lat="45.68495" lon="6.91933">
        <ele>2374</ele>
        <time>2000-01-01T08:28:15.000Z</time>
      </trkpt>
      <trkpt lat="45.68462" lon="6.91967">
        <ele>2371</ele>
        <time>2000-01-01T08:28:25.000Z</time>
      </trkpt>
      <trkpt lat="45.68429" lon="6.92001">
        <ele>2358</ele>
        <time>2000-01-01T08:28:35.000Z</time>
      </trkpt>
      <trkpt lat="45.68396" lon="6.92035">
        <ele>2355</ele>
        <time>2000-01-01T08:28:45.000Z</time>
      </trkpt>
      <trkpt lat="45.68364" lon="6.92069">
        <ele>2353</ele>
        <time>2000-01-01T08:28:55.000Z</time>
      </trkpt>
      <trkpt lat="45.68331" lon="6.92103">
        <ele>2352</ele>
        <time>2000-01-01T08:29:05.000Z</time>
      </trkpt>
      <trkpt lat="45.68298" lon="6.92137">
        <ele>2347</ele>
        <time>2000-01-01T08:29:15.000Z</time>
      </trkpt>
      <trkpt lat="45.68258" lon="6.92179">
        <ele>2338</ele>
        <time>2000-01-01T08:29:25.000Z</time>
      </trkpt>
      <trkpt lat="45.68247" lon="6.92217">
        <ele>2337</ele>
        <time>2000-01-01T08:29:35.000Z</time>
      </trkpt>
      <trkpt lat="45.68224" lon="6.92234">
        <ele>2327</ele>
        <time>2000-01-01T08:29:45.000Z</time>
      </trkpt>
      <trkpt lat="45.68198" lon="6.92253">
        <ele>2326</ele>
        <time>2000-01-01T08:29:55.000Z</time>
      </trkpt>
      <trkpt lat="45.68179" lon="6.92286">
        <ele>2325</ele>
        <time>2000-01-01T08:30:05.000Z</time>
      </trkpt>
      <trkpt lat="45.68146" lon="6.92344">
        <ele>2323</ele>
        <time>2000-01-01T08:30:15.000Z</time>
      </trkpt>
      <trkpt lat="45.68138" lon="6.92383">
        <ele>2323</ele>
        <time>2000-01-01T08:30:25.000Z</time>
      </trkpt>
      <trkpt lat="45.6811" lon="6.92385">
        <ele>2320</ele>
        <time>2000-01-01T08:30:35.000Z</time>
      </trkpt>
      <trkpt lat="45.68085" lon="6.92435">
        <ele>2316</ele>
        <time>2000-01-01T08:30:45.000Z</time>
      </trkpt>
      <trkpt lat="45.6808" lon="6.92472">
        <ele>2306</ele>
        <time>2000-01-01T08:30:55.000Z</time>
      </trkpt>
      <trkpt lat="45.68073" lon="6.92518">
        <ele>2300</ele>
        <time>2000-01-01T08:31:05.000Z</time>
      </trkpt>
      <trkpt lat="45.68081" lon="6.92558">
        <ele>2291</ele>
        <time>2000-01-01T08:31:15.000Z</time>
      </trkpt>
      <trkpt lat="45.68094" lon="6.92625">
        <ele>2284</ele>
        <time>2000-01-01T08:31:25.000Z</time>
      </trkpt>
      <trkpt lat="45.6809" lon="6.92671">
        <ele>2279</ele>
        <time>2000-01-01T08:31:35.000Z</time>
      </trkpt>
      <trkpt lat="45.68087" lon="6.92718">
        <ele>2273</ele>
        <time>2000-01-01T08:31:45.000Z</time>
      </trkpt>
      <trkpt lat="45.68082" lon="6.92777">
        <ele>2271</ele>
        <time>2000-01-01T08:31:55.000Z</time>
      </trkpt>
      <trkpt lat="45.68075" lon="6.92824">
        <ele>2267</ele>
        <time>2000-01-01T08:32:05.000Z</time>
      </trkpt>
      <trkpt lat="45.68068" lon="6.92871">
        <ele>2255</ele>
        <time>2000-01-01T08:32:15.000Z</time>
      </trkpt>
      <trkpt lat="45.68057" lon="6.92942">
        <ele>2252</ele>
        <time>2000-01-01T08:32:25.000Z</time>
      </trkpt>
      <trkpt lat="45.68037" lon="6.92984">
        <ele>2243</ele>
        <time>2000-01-01T08:32:35.000Z</time>
      </trkpt>
      <trkpt lat="45.68018" lon="6.93027">
        <ele>2228</ele>
        <time>2000-01-01T08:32:45.000Z</time>
      </trkpt>
      <trkpt lat="45.67998" lon="6.93069">
        <ele>2226</ele>
        <time>2000-01-01T08:32:55.000Z</time>
      </trkpt>
      <trkpt lat="45.67977" lon="6.93114">
        <ele>2216</ele>
        <time>2000-01-01T08:33:05.000Z</time>
      </trkpt>
      <trkpt lat="45.67972" lon="6.93164">
        <ele>2213</ele>
        <time>2000-01-01T08:33:15.000Z</time>
      </trkpt>
      <trkpt lat="45.67967" lon="6.93213">
        <ele>2207</ele>
        <time>2000-01-01T08:33:25.000Z</time>
      </trkpt>
      <trkpt lat="45.67957" lon="6.93308">
        <ele>2190</ele>
        <time>2000-01-01T08:33:35.000Z</time>
      </trkpt>
      <trkpt lat="45.67956" lon="6.9336">
        <ele>2183</ele>
        <time>2000-01-01T08:33:45.000Z</time>
      </trkpt>
      <trkpt lat="45.67955" lon="6.93412">
        <ele>2180</ele>
        <time>2000-01-01T08:33:55.000Z</time>
      </trkpt>
      <trkpt lat="45.67954" lon="6.93464">
        <ele>2177</ele>
        <time>2000-01-01T08:34:05.000Z</time>
      </trkpt>
      <trkpt lat="45.67953" lon="6.93535">
        <ele>2179</ele>
        <time>2000-01-01T08:34:15.000Z</time>
      </trkpt>
      <trkpt lat="45.67968" lon="6.93581">
        <ele>2181</ele>
        <time>2000-01-01T08:34:25.000Z</time>
      </trkpt>
      <trkpt lat="45.67982" lon="6.93627">
        <ele>2179</ele>
        <time>2000-01-01T08:34:35.000Z</time>
      </trkpt>
      <trkpt lat="45.68011" lon="6.93717">
        <ele>2178</ele>
        <time>2000-01-01T08:34:45.000Z</time>
      </trkpt>
      <trkpt lat="45.68024" lon="6.93749">
        <ele>2178</ele>
        <time>2000-01-01T08:34:55.000Z</time>
      </trkpt>
      <trkpt lat="45.68041" lon="6.93788">
        <ele>2177</ele>
        <time>2000-01-01T08:35:05.000Z</time>
      </trkpt>
      <trkpt lat="45.68067" lon="6.93824">
        <ele>2174</ele>
        <time>2000-01-01T08:35:15.000Z</time>
      </trkpt>
      <trkpt lat="45.68093" lon="6.93861">
        <ele>2171</ele>
        <time>2000-01-01T08:35:25.000Z</time>
      </trkpt>
      <trkpt lat="45.68118" lon="6.93897">
        <ele>2166</ele>
        <time>2000-01-01T08:35:35.000Z</time>
      </trkpt>
      <trkpt lat="45.68153" lon="6.93946">
        <ele>2152</ele>
        <time>2000-01-01T08:35:45.000Z</time>
      </trkpt>
      <trkpt lat="45.68169" lon="6.93981">
        <ele>2148</ele>
        <time>2000-01-01T08:35:55.000Z</time>
      </trkpt>
      <trkpt lat="45.68197" lon="6.9404">
        <ele>2137</ele>
        <time>2000-01-01T08:36:05.000Z</time>
      </trkpt>
      <trkpt lat="45.68219" lon="6.9407">
        <ele>2129</ele>
        <time>2000-01-01T08:36:15.000Z</time>
      </trkpt>
      <trkpt lat="45.68259" lon="6.94125">
        <ele>2115</ele>
        <time>2000-01-01T08:36:25.000Z</time>
      </trkpt>
      <trkpt lat="45.68299" lon="6.94147">
        <ele>2098</ele>
        <time>2000-01-01T08:36:35.000Z</time>
      </trkpt>
      <trkpt lat="45.68317" lon="6.94169">
        <ele>2097</ele>
        <time>2000-01-01T08:36:45.000Z</time>
      </trkpt>
      <trkpt lat="45.68336" lon="6.94192">
        <ele>2096</ele>
        <time>2000-01-01T08:36:55.000Z</time>
      </trkpt>
      <trkpt lat="45.68352" lon="6.9423">
        <ele>2093</ele>
        <time>2000-01-01T08:37:05.000Z</time>
      </trkpt>
      <trkpt lat="45.68384" lon="6.94302">
        <ele>2091</ele>
        <time>2000-01-01T08:37:15.000Z</time>
      </trkpt>
      <trkpt lat="45.68383" lon="6.94358">
        <ele>2082</ele>
        <time>2000-01-01T08:37:25.000Z</time>
      </trkpt>
      <trkpt lat="45.68353" lon="6.94355">
        <ele>2078</ele>
        <time>2000-01-01T08:37:35.000Z</time>
      </trkpt>
      <trkpt lat="45.68325" lon="6.9433">
        <ele>2078</ele>
        <time>2000-01-01T08:37:45.000Z</time>
      </trkpt>
      <trkpt lat="45.68296" lon="6.94305">
        <ele>2072</ele>
        <time>2000-01-01T08:37:55.000Z</time>
      </trkpt>
      <trkpt lat="45.68256" lon="6.94269">
        <ele>2066</ele>
        <time>2000-01-01T08:38:05.000Z</time>
      </trkpt>
      <trkpt lat="45.68229" lon="6.94265">
        <ele>2060</ele>
        <time>2000-01-01T08:38:15.000Z</time>
      </trkpt>
      <trkpt lat="45.68194" lon="6.94259">
        <ele>2060</ele>
        <time>2000-01-01T08:38:25.000Z</time>
      </trkpt>
      <trkpt lat="45.68165" lon="6.9423">
        <ele>2058</ele>
        <time>2000-01-01T08:38:35.000Z</time>
      </trkpt>
      <trkpt lat="45.68133" lon="6.94217">
        <ele>2057</ele>
        <time>2000-01-01T08:38:45.000Z</time>
      </trkpt>
      <trkpt lat="45.68101" lon="6.94204">
        <ele>2055</ele>
        <time>2000-01-01T08:38:55.000Z</time>
      </trkpt>
      <trkpt lat="45.68054" lon="6.94185">
        <ele>2056</ele>
        <time>2000-01-01T08:39:05.000Z</time>
      </trkpt>
      <trkpt lat="45.68025" lon="6.9416">
        <ele>2057</ele>
        <time>2000-01-01T08:39:15.000Z</time>
      </trkpt>
      <trkpt lat="45.67997" lon="6.94136">
        <ele>2062</ele>
        <time>2000-01-01T08:39:25.000Z</time>
      </trkpt>
      <trkpt lat="45.67955" lon="6.941">
        <ele>2067</ele>
        <time>2000-01-01T08:39:35.000Z</time>
      </trkpt>
      <trkpt lat="45.67946" lon="6.94124">
        <ele>2067</ele>
        <time>2000-01-01T08:39:45.000Z</time>
      </trkpt>
      <trkpt lat="45.67911" lon="6.94141">
        <ele>2073</ele>
        <time>2000-01-01T08:39:55.000Z</time>
      </trkpt>
      <trkpt lat="45.67879" lon="6.94119">
        <ele>2082</ele>
        <time>2000-01-01T08:40:05.000Z</time>
      </trkpt>
      <trkpt lat="45.67863" lon="6.9413">
        <ele>2070.2</ele>
        <time>2000-01-01T08:40:15.000Z</time>
      </trkpt>
      <trkpt lat="45.67864" lon="6.94259">
        <ele>2091</ele>
        <time>2000-01-01T08:40:25.000Z</time>
      </trkpt>
      <trkpt lat="45.67842" lon="6.9423">
        <ele>2099</ele>
        <time>2000-01-01T08:40:35.000Z</time>
      </trkpt>
      <trkpt lat="45.67804" lon="6.9418">
        <ele>2107</ele>
        <time>2000-01-01T08:40:45.000Z</time>
      </trkpt>
      <trkpt lat="45.67776" lon="6.94167">
        <ele>2111</ele>
        <time>2000-01-01T08:40:55.000Z</time>
      </trkpt>
      <trkpt lat="45.67732" lon="6.94147">
        <ele>2115</ele>
        <time>2000-01-01T08:41:05.000Z</time>
      </trkpt>
      <trkpt lat="45.67725" lon="6.94156">
        <ele>2108.3</ele>
        <time>2000-01-01T08:41:15.000Z</time>
      </trkpt>
      <trkpt lat="45.67747" lon="6.94199">
        <ele>2125</ele>
        <time>2000-01-01T08:41:25.000Z</time>
      </trkpt>
      <trkpt lat="45.67713" lon="6.94196">
        <ele>2140</ele>
        <time>2000-01-01T08:41:35.000Z</time>
      </trkpt>
      <trkpt lat="45.67702" lon="6.94208">
        <ele>2131.9</ele>
        <time>2000-01-01T08:41:45.000Z</time>
      </trkpt>
      <trkpt lat="45.67719" lon="6.94251">
        <ele>2160</ele>
        <time>2000-01-01T08:41:55.000Z</time>
      </trkpt>
      <trkpt lat="45.67716" lon="6.94284">
        <ele>2167</ele>
        <time>2000-01-01T08:42:05.000Z</time>
      </trkpt>
      <trkpt lat="45.67714" lon="6.94318">
        <ele>2174</ele>
        <time>2000-01-01T08:42:15.000Z</time>
      </trkpt>
      <trkpt lat="45.67693" lon="6.94296">
        <ele>2179</ele>
        <time>2000-01-01T08:42:25.000Z</time>
      </trkpt>
      <trkpt lat="45.67669" lon="6.9427">
        <ele>2191</ele>
        <time>2000-01-01T08:42:35.000Z</time>
      </trkpt>
      <trkpt lat="45.67642" lon="6.94257">
        <ele>2198</ele>
        <time>2000-01-01T08:42:45.000Z</time>
      </trkpt>
      <trkpt lat="45.67601" lon="6.94238">
        <ele>2207</ele>
        <time>2000-01-01T08:42:55.000Z</time>
      </trkpt>
      <trkpt lat="45.67575" lon="6.94196">
        <ele>2216</ele>
        <time>2000-01-01T08:43:05.000Z</time>
      </trkpt>
      <trkpt lat="45.67556" lon="6.94192">
        <ele>2224</ele>
        <time>2000-01-01T08:43:15.000Z</time>
      </trkpt>
      <trkpt lat="45.6755" lon="6.94217">
        <ele>2204.1</ele>
        <time>2000-01-01T08:43:25.000Z</time>
      </trkpt>
      <trkpt lat="45.67589" lon="6.94327">
        <ele>2257</ele>
        <time>2000-01-01T08:43:35.000Z</time>
      </trkpt>
      <trkpt lat="45.67593" lon="6.94379">
        <ele>2274</ele>
        <time>2000-01-01T08:43:45.000Z</time>
      </trkpt>
      <trkpt lat="45.67613" lon="6.94411">
        <ele>2290</ele>
        <time>2000-01-01T08:43:55.000Z</time>
      </trkpt>
      <trkpt lat="45.67649" lon="6.94467">
        <ele>2283</ele>
        <time>2000-01-01T08:44:05.000Z</time>
      </trkpt>
      <trkpt lat="45.67671" lon="6.94486">
        <ele>2276</ele>
        <time>2000-01-01T08:44:15.000Z</time>
      </trkpt>
      <trkpt lat="45.67698" lon="6.94509">
        <ele>2265</ele>
        <time>2000-01-01T08:44:25.000Z</time>
      </trkpt>
      <trkpt lat="45.67713" lon="6.9454">
        <ele>2264</ele>
        <time>2000-01-01T08:44:35.000Z</time>
      </trkpt>
      <trkpt lat="45.67733" lon="6.9458">
        <ele>2264</ele>
        <time>2000-01-01T08:44:45.000Z</time>
      </trkpt>
      <trkpt lat="45.67741" lon="6.94632">
        <ele>2259</ele>
        <time>2000-01-01T08:44:55.000Z</time>
      </trkpt>
      <trkpt lat="45.67732" lon="6.94671">
        <ele>2255</ele>
        <time>2000-01-01T08:45:05.000Z</time>
      </trkpt>
      <trkpt lat="45.67718" lon="6.94731">
        <ele>2241</ele>
        <time>2000-01-01T08:45:15.000Z</time>
      </trkpt>
      <trkpt lat="45.67687" lon="6.94753">
        <ele>2236</ele>
        <time>2000-01-01T08:45:25.000Z</time>
      </trkpt>
      <trkpt lat="45.67656" lon="6.94774">
        <ele>2235</ele>
        <time>2000-01-01T08:45:35.000Z</time>
      </trkpt>
      <trkpt lat="45.67604" lon="6.94811">
        <ele>2234</ele>
        <time>2000-01-01T08:45:45.000Z</time>
      </trkpt>
      <trkpt lat="45.67587" lon="6.9485">
        <ele>2224</ele>
        <time>2000-01-01T08:45:55.000Z</time>
      </trkpt>
      <trkpt lat="45.67561" lon="6.94854">
        <ele>2224</ele>
        <time>2000-01-01T08:46:05.000Z</time>
      </trkpt>
      <trkpt lat="45.6753" lon="6.94858">
        <ele>2222</ele>
        <time>2000-01-01T08:46:15.000Z</time>
      </trkpt>
      <trkpt lat="45.67518" lon="6.94891">
        <ele>2220</ele>
        <time>2000-01-01T08:46:25.000Z</time>
      </trkpt>
      <trkpt lat="45.67504" lon="6.94932">
        <ele>2219</ele>
        <time>2000-01-01T08:46:35.000Z</time>
      </trkpt>
      <trkpt lat="45.67477" lon="6.94908">
        <ele>2219</ele>
        <time>2000-01-01T08:46:45.000Z</time>
      </trkpt>
      <trkpt lat="45.6745" lon="6.94884">
        <ele>2219</ele>
        <time>2000-01-01T08:46:55.000Z</time>
      </trkpt>
      <trkpt lat="45.67421" lon="6.94858">
        <ele>2223</ele>
        <time>2000-01-01T08:47:05.000Z</time>
      </trkpt>
      <trkpt lat="45.67388" lon="6.94843">
        <ele>2216</ele>
        <time>2000-01-01T08:47:15.000Z</time>
      </trkpt>
      <trkpt lat="45.67355" lon="6.94827">
        <ele>2210</ele>
        <time>2000-01-01T08:47:25.000Z</time>
      </trkpt>
      <trkpt lat="45.67297" lon="6.948">
        <ele>2204</ele>
        <time>2000-01-01T08:47:35.000Z</time>
      </trkpt>
      <trkpt lat="45.67279" lon="6.94775">
        <ele>2198</ele>
        <time>2000-01-01T08:47:45.000Z</time>
      </trkpt>
      <trkpt lat="45.67258" lon="6.94747">
        <ele>2194</ele>
        <time>2000-01-01T08:47:55.000Z</time>
      </trkpt>
      <trkpt lat="45.67231" lon="6.94747">
        <ele>2186</ele>
        <time>2000-01-01T08:48:05.000Z</time>
      </trkpt>
      <trkpt lat="45.67192" lon="6.94747">
        <ele>2186</ele>
        <time>2000-01-01T08:48:15.000Z</time>
      </trkpt>
      <trkpt lat="45.67166" lon="6.94757">
        <ele>2186</ele>
        <time>2000-01-01T08:48:25.000Z</time>
      </trkpt>
      <trkpt lat="45.6713" lon="6.94771">
        <ele>2180</ele>
        <time>2000-01-01T08:48:35.000Z</time>
      </trkpt>
      <trkpt lat="45.6709" lon="6.94744">
        <ele>2175</ele>
        <time>2000-01-01T08:48:45.000Z</time>
      </trkpt>
      <trkpt lat="45.67073" lon="6.94767">
        <ele>2175</ele>
        <time>2000-01-01T08:48:55.000Z</time>
      </trkpt>
      <trkpt lat="45.67055" lon="6.94791">
        <ele>2172</ele>
        <time>2000-01-01T08:49:05.000Z</time>
      </trkpt>
      <trkpt lat="45.6706" lon="6.94836">
        <ele>2169</ele>
        <time>2000-01-01T08:49:15.000Z</time>
      </trkpt>
      <trkpt lat="45.67065" lon="6.94881">
        <ele>2161</ele>
        <time>2000-01-01T08:49:25.000Z</time>
      </trkpt>
      <trkpt lat="45.6707" lon="6.94928">
        <ele>2145</ele>
        <time>2000-01-01T08:49:35.000Z</time>
      </trkpt>
      <trkpt lat="45.67089" lon="6.94972">
        <ele>2129</ele>
        <time>2000-01-01T08:49:45.000Z</time>
      </trkpt>
      <trkpt lat="45.67086" lon="6.95008">
        <ele>2119</ele>
        <time>2000-01-01T08:49:55.000Z</time>
      </trkpt>
      <trkpt lat="45.67082" lon="6.9505">
        <ele>2105</ele>
        <time>2000-01-01T08:50:05.000Z</time>
      </trkpt>
      <trkpt lat="45.67098" lon="6.95099">
        <ele>2101</ele>
        <time>2000-01-01T08:50:15.000Z</time>
      </trkpt>
      <trkpt lat="45.67115" lon="6.95148">
        <ele>2095</ele>
        <time>2000-01-01T08:50:25.000Z</time>
      </trkpt>
      <trkpt lat="45.67131" lon="6.95197">
        <ele>2092</ele>
        <time>2000-01-01T08:50:35.000Z</time>
      </trkpt>
      <trkpt lat="45.67147" lon="6.95246">
        <ele>2090</ele>
        <time>2000-01-01T08:50:45.000Z</time>
      </trkpt>
      <trkpt lat="45.67167" lon="6.95305">
        <ele>2089</ele>
        <time>2000-01-01T08:50:55.000Z</time>
      </trkpt>
      <trkpt lat="45.67143" lon="6.9534">
        <ele>2088</ele>
        <time>2000-01-01T08:51:05.000Z</time>
      </trkpt>
      <trkpt lat="45.67101" lon="6.95339">
        <ele>2090</ele>
        <time>2000-01-01T08:51:15.000Z</time>
      </trkpt>
      <trkpt lat="45.67122" lon="6.95366">
        <ele>2090</ele>
        <time>2000-01-01T08:51:25.000Z</time>
      </trkpt>
      <trkpt lat="45.67153" lon="6.95406">
        <ele>2090</ele>
        <time>2000-01-01T08:51:35.000Z</time>
      </trkpt>
      <trkpt lat="45.67168" lon="6.95451">
        <ele>2086</ele>
        <time>2000-01-01T08:51:45.000Z</time>
      </trkpt>
      <trkpt lat="45.67183" lon="6.95496">
        <ele>2086</ele>
        <time>2000-01-01T08:51:55.000Z</time>
      </trkpt>
      <trkpt lat="45.67211" lon="6.95582">
        <ele>2086</ele>
        <time>2000-01-01T08:52:05.000Z</time>
      </trkpt>
      <trkpt lat="45.67211" lon="6.95627">
        <ele>2086</ele>
        <time>2000-01-01T08:52:15.000Z</time>
      </trkpt>
      <trkpt lat="45.67212" lon="6.95672">
        <ele>2097</ele>
        <time>2000-01-01T08:52:25.000Z</time>
      </trkpt>
      <trkpt lat="45.67212" lon="6.95719">
        <ele>2108</ele>
        <time>2000-01-01T08:52:35.000Z</time>
      </trkpt>
      <trkpt lat="45.67226" lon="6.95761">
        <ele>2122</ele>
        <time>2000-01-01T08:52:45.000Z</time>
      </trkpt>
      <trkpt lat="45.6724" lon="6.95804">
        <ele>2150</ele>
        <time>2000-01-01T08:52:55.000Z</time>
      </trkpt>
      <trkpt lat="45.67258" lon="6.95859">
        <ele>2164</ele>
        <time>2000-01-01T08:53:05.000Z</time>
      </trkpt>
      <trkpt lat="45.6726" lon="6.95885">
        <ele>2126.4</ele>
        <time>2000-01-01T08:53:15.000Z</time>
      </trkpt>
      <trkpt lat="45.67243" lon="6.95885">
        <ele>2172</ele>
        <time>2000-01-01T08:53:25.000Z</time>
      </trkpt>
      <trkpt lat="45.67255" lon="6.95928">
        <ele>2187</ele>
        <time>2000-01-01T08:53:35.000Z</time>
      </trkpt>
      <trkpt lat="45.67267" lon="6.95971">
        <ele>2182</ele>
        <time>2000-01-01T08:53:45.000Z</time>
      </trkpt>
      <trkpt lat="45.67282" lon="6.96025">
        <ele>2180</ele>
        <time>2000-01-01T08:53:55.000Z</time>
      </trkpt>
      <trkpt lat="45.67278" lon="6.96065">
        <ele>2179</ele>
        <time>2000-01-01T08:54:05.000Z</time>
      </trkpt>
      <trkpt lat="45.67271" lon="6.96127">
        <ele>2179</ele>
        <time>2000-01-01T08:54:15.000Z</time>
      </trkpt>
      <trkpt lat="45.67282" lon="6.96174">
        <ele>2179</ele>
        <time>2000-01-01T08:54:25.000Z</time>
      </trkpt>
      <trkpt lat="45.67292" lon="6.9622">
        <ele>2179</ele>
        <time>2000-01-01T08:54:35.000Z</time>
      </trkpt>
      <trkpt lat="45.6731" lon="6.96298">
        <ele>2169</ele>
        <time>2000-01-01T08:54:45.000Z</time>
      </trkpt>
      <trkpt lat="45.67333" lon="6.96339">
        <ele>2159</ele>
        <time>2000-01-01T08:54:55.000Z</time>
      </trkpt>
      <trkpt lat="45.67335" lon="6.96385">
        <ele>2144</ele>
        <time>2000-01-01T08:55:05.000Z</time>
      </trkpt>
      <trkpt lat="45.67338" lon="6.96431">
        <ele>2143</ele>
        <time>2000-01-01T08:55:15.000Z</time>
      </trkpt>
      <trkpt lat="45.67341" lon="6.96487">
        <ele>2139</ele>
        <time>2000-01-01T08:55:25.000Z</time>
      </trkpt>
      <trkpt lat="45.67353" lon="6.96518">
        <ele>2131</ele>
        <time>2000-01-01T08:55:35.000Z</time>
      </trkpt>
      <trkpt lat="45.67368" lon="6.96555">
        <ele>2130</ele>
        <time>2000-01-01T08:55:45.000Z</time>
      </trkpt>
      <trkpt lat="45.67372" lon="6.96602">
        <ele>2130</ele>
        <time>2000-01-01T08:55:55.000Z</time>
      </trkpt>
      <trkpt lat="45.67377" lon="6.96648">
        <ele>2130</ele>
        <time>2000-01-01T08:56:05.000Z</time>
      </trkpt>
      <trkpt lat="45.67383" lon="6.96709">
        <ele>2130</ele>
        <time>2000-01-01T08:56:15.000Z</time>
      </trkpt>
      <trkpt lat="45.67393" lon="6.9673">
        <ele>2123.5</ele>
        <time>2000-01-01T08:56:25.000Z</time>
      </trkpt>
      <trkpt lat="45.67411" lon="6.96734">
        <ele>2130</ele>
        <time>2000-01-01T08:56:35.000Z</time>
      </trkpt>
      <trkpt lat="45.67421" lon="6.96766">
        <ele>2134</ele>
        <time>2000-01-01T08:56:45.000Z</time>
      </trkpt>
      <trkpt lat="45.67432" lon="6.96801">
        <ele>2143</ele>
        <time>2000-01-01T08:56:55.000Z</time>
      </trkpt>
      <trkpt lat="45.6741" lon="6.96819">
        <ele>2143</ele>
        <time>2000-01-01T08:57:05.000Z</time>
      </trkpt>
      <trkpt lat="45.67386" lon="6.96839">
        <ele>2152</ele>
        <time>2000-01-01T08:57:15.000Z</time>
      </trkpt>
      <trkpt lat="45.67388" lon="6.96874">
        <ele>2153</ele>
        <time>2000-01-01T08:57:25.000Z</time>
      </trkpt>
      <trkpt lat="45.67391" lon="6.96912">
        <ele>2156</ele>
        <time>2000-01-01T08:57:35.000Z</time>
      </trkpt>
      <trkpt lat="45.67378" lon="6.96929">
        <ele>2151.1</ele>
        <time>2000-01-01T08:57:45.000Z</time>
      </trkpt>
      <trkpt lat="45.67246" lon="6.96919">
        <ele>2162</ele>
        <time>2000-01-01T08:57:55.000Z</time>
      </trkpt>
      <trkpt lat="45.67222" lon="6.96932">
        <ele>2168</ele>
        <time>2000-01-01T08:58:05.000Z</time>
      </trkpt>
      <trkpt lat="45.67194" lon="6.96947">
        <ele>2171</ele>
        <time>2000-01-01T08:58:15.000Z</time>
      </trkpt>
      <trkpt lat="45.6716" lon="6.96949">
        <ele>2186</ele>
        <time>2000-01-01T08:58:25.000Z</time>
      </trkpt>
      <trkpt lat="45.67126" lon="6.96951">
        <ele>2199</ele>
        <time>2000-01-01T08:58:35.000Z</time>
      </trkpt>
      <trkpt lat="45.67069" lon="6.96955">
        <ele>2220</ele>
        <time>2000-01-01T08:58:45.000Z</time>
      </trkpt>
      <trkpt lat="45.6705" lon="6.96977">
        <ele>2229</ele>
        <time>2000-01-01T08:58:55.000Z</time>
      </trkpt>
      <trkpt lat="45.67031" lon="6.97">
        <ele>2245</ele>
        <time>2000-01-01T08:59:05.000Z</time>
      </trkpt>
      <trkpt lat="45.67007" lon="6.97007">
        <ele>2251</ele>
        <time>2000-01-01T08:59:15.000Z</time>
      </trkpt>
      <trkpt lat="45.6698" lon="6.97015">
        <ele>2259</ele>
        <time>2000-01-01T08:59:25.000Z</time>
      </trkpt>
      <trkpt lat="45.66954" lon="6.97044">
        <ele>2280</ele>
        <time>2000-01-01T08:59:35.000Z</time>
      </trkpt>
      <trkpt lat="45.66937" lon="6.97038">
        <ele>2274.8</ele>
        <time>2000-01-01T08:59:45.000Z</time>
      </trkpt>
      <trkpt lat="45.66914" lon="6.97063">
        <ele>2301</ele>
        <time>2000-01-01T08:59:55.000Z</time>
      </trkpt>
      <trkpt lat="45.66889" lon="6.97061">
        <ele>2315</ele>
        <time>2000-01-01T09:00:05.000Z</time>
      </trkpt>
      <trkpt lat="45.66862" lon="6.97059">
        <ele>2327</ele>
        <time>2000-01-01T09:00:15.000Z</time>
      </trkpt>
      <trkpt lat="45.66828" lon="6.97098">
        <ele>2347</ele>
        <time>2000-01-01T09:00:25.000Z</time>
      </trkpt>
      <trkpt lat="45.66821" lon="6.9714">
        <ele>2361</ele>
        <time>2000-01-01T09:00:35.000Z</time>
      </trkpt>
      <trkpt lat="45.66807" lon="6.97217">
        <ele>2369</ele>
        <time>2000-01-01T09:00:45.000Z</time>
      </trkpt>
      <trkpt lat="45.66833" lon="6.97251">
        <ele>2383</ele>
        <time>2000-01-01T09:00:55.000Z</time>
      </trkpt>
      <trkpt lat="45.66859" lon="6.97286">
        <ele>2397</ele>
        <time>2000-01-01T09:01:05.000Z</time>
      </trkpt>
      <trkpt lat="45.66885" lon="6.9732">
        <ele>2413</ele>
        <time>2000-01-01T09:01:15.000Z</time>
      </trkpt>
      <trkpt lat="45.66911" lon="6.97355">
        <ele>2416</ele>
        <time>2000-01-01T09:01:25.000Z</time>
      </trkpt>
      <trkpt lat="45.66936" lon="6.97376">
        <ele>2416</ele>
        <time>2000-01-01T09:01:35.000Z</time>
      </trkpt>
      <trkpt lat="45.66975" lon="6.9741">
        <ele>2415</ele>
        <time>2000-01-01T09:01:45.000Z</time>
      </trkpt>
      <trkpt lat="45.66996" lon="6.97449">
        <ele>2415</ele>
        <time>2000-01-01T09:01:55.000Z</time>
      </trkpt>
      <trkpt lat="45.67018" lon="6.97487">
        <ele>2415</ele>
        <time>2000-01-01T09:02:05.000Z</time>
      </trkpt>
      <trkpt lat="45.67054" lon="6.97553">
        <ele>2407</ele>
        <time>2000-01-01T09:02:15.000Z</time>
      </trkpt>
      <trkpt lat="45.67057" lon="6.9759">
        <ele>2405</ele>
        <time>2000-01-01T09:02:25.000Z</time>
      </trkpt>
      <trkpt lat="45.6706" lon="6.97638">
        <ele>2400</ele>
        <time>2000-01-01T09:02:35.000Z</time>
      </trkpt>
      <trkpt lat="45.67046" lon="6.97669">
        <ele>2396</ele>
        <time>2000-01-01T09:02:45.000Z</time>
      </trkpt>
      <trkpt lat="45.6703" lon="6.97706">
        <ele>2397</ele>
        <time>2000-01-01T09:02:55.000Z</time>
      </trkpt>
      <trkpt lat="45.67036" lon="6.97753">
        <ele>2398</ele>
        <time>2000-01-01T09:03:05.000Z</time>
      </trkpt>
      <trkpt lat="45.67042" lon="6.97801">
        <ele>2405</ele>
        <time>2000-01-01T09:03:15.000Z</time>
      </trkpt>
      <trkpt lat="45.67052" lon="6.97874">
        <ele>2407</ele>
        <time>2000-01-01T09:03:25.000Z</time>
      </trkpt>
      <trkpt lat="45.6708" lon="6.9791">
        <ele>2410</ele>
        <time>2000-01-01T09:03:35.000Z</time>
      </trkpt>
      <trkpt lat="45.67109" lon="6.97946">
        <ele>2428</ele>
        <time>2000-01-01T09:03:45.000Z</time>
      </trkpt>
      <trkpt lat="45.67137" lon="6.97982">
        <ele>2430</ele>
        <time>2000-01-01T09:03:55.000Z</time>
      </trkpt>
      <trkpt lat="45.67165" lon="6.98018">
        <ele>2429</ele>
        <time>2000-01-01T09:04:05.000Z</time>
      </trkpt>
      <trkpt lat="45.67196" lon="6.98057">
        <ele>2429</ele>
        <time>2000-01-01T09:04:15.000Z</time>
      </trkpt>
      <trkpt lat="45.67202" lon="6.98102">
        <ele>2430</ele>
        <time>2000-01-01T09:04:25.000Z</time>
      </trkpt>
      <trkpt lat="45.67208" lon="6.98148">
        <ele>2433</ele>
        <time>2000-01-01T09:04:35.000Z</time>
      </trkpt>
      <trkpt lat="45.67216" lon="6.98203">
        <ele>2436</ele>
        <time>2000-01-01T09:04:45.000Z</time>
      </trkpt>
      <trkpt lat="45.67235" lon="6.98234">
        <ele>2436</ele>
        <time>2000-01-01T09:04:55.000Z</time>
      </trkpt>
      <trkpt lat="45.67263" lon="6.98281">
        <ele>2437</ele>
        <time>2000-01-01T09:05:05.000Z</time>
      </trkpt>
      <trkpt lat="45.67294" lon="6.98302">
        <ele>2438</ele>
        <time>2000-01-01T09:05:15.000Z</time>
      </trkpt>
      <trkpt lat="45.67309" lon="6.98348">
        <ele>2442</ele>
        <time>2000-01-01T09:05:25.000Z</time>
      </trkpt>
      <trkpt lat="45.67321" lon="6.98351">
        <ele>2460.3</ele>
        <time>2000-01-01T09:05:35.000Z</time>
      </trkpt>
      <trkpt lat="45.67326" lon="6.98336">
        <ele>2445</ele>
        <time>2000-01-01T09:05:45.000Z</time>
      </trkpt>
      <trkpt lat="45.67348" lon="6.9837">
        <ele>2448</ele>
        <time>2000-01-01T09:05:55.000Z</time>
      </trkpt>
      <trkpt lat="45.67378" lon="6.98388">
        <ele>2465</ele>
        <time>2000-01-01T09:06:05.000Z</time>
      </trkpt>
      <trkpt lat="45.67408" lon="6.98407">
        <ele>2477</ele>
        <time>2000-01-01T09:06:15.000Z</time>
      </trkpt>
      <trkpt lat="45.67446" lon="6.9843">
        <ele>2479</ele>
        <time>2000-01-01T09:06:25.000Z</time>
      </trkpt>
      <trkpt lat="45.67469" lon="6.9847">
        <ele>2482</ele>
        <time>2000-01-01T09:06:35.000Z</time>
      </trkpt>
      <trkpt lat="45.67492" lon="6.9851">
        <ele>2484</ele>
        <time>2000-01-01T09:06:45.000Z</time>
      </trkpt>
      <trkpt lat="45.67516" lon="6.98549">
        <ele>2483</ele>
        <time>2000-01-01T09:06:55.000Z</time>
      </trkpt>
      <trkpt lat="45.67547" lon="6.98603">
        <ele>2483</ele>
        <time>2000-01-01T09:07:05.000Z</time>
      </trkpt>
      <trkpt lat="45.67569" lon="6.98586">
        <ele>2489</ele>
        <time>2000-01-01T09:07:15.000Z</time>
      </trkpt>
      <trkpt lat="45.67595" lon="6.98566">
        <ele>2491</ele>
        <time>2000-01-01T09:07:25.000Z</time>
      </trkpt>
      <trkpt lat="45.67634" lon="6.98564">
        <ele>2494</ele>
        <time>2000-01-01T09:07:35.000Z</time>
      </trkpt>
      <trkpt lat="45.67641" lon="6.98529">
        <ele>2498</ele>
        <time>2000-01-01T09:07:45.000Z</time>
      </trkpt>
      <trkpt lat="45.67649" lon="6.98489">
        <ele>2494</ele>
        <time>2000-01-01T09:07:55.000Z</time>
      </trkpt>
      <trkpt lat="45.67683" lon="6.98481">
        <ele>2490</ele>
        <time>2000-01-01T09:08:05.000Z</time>
      </trkpt>
      <trkpt lat="45.67699" lon="6.98452">
        <ele>2491</ele>
        <time>2000-01-01T09:08:15.000Z</time>
      </trkpt>
      <trkpt lat="45.67719" lon="6.98417">
        <ele>2493</ele>
        <time>2000-01-01T09:08:25.000Z</time>
      </trkpt>
      <trkpt lat="45.67761" lon="6.98431">
        <ele>2489</ele>
        <time>2000-01-01T09:08:35.000Z</time>
      </trkpt>
      <trkpt lat="45.67776" lon="6.98419">
        <ele>2497.8</ele>
        <time>2000-01-01T09:08:45.000Z</time>
      </trkpt>
      <trkpt lat="45.67814" lon="6.9835">
        <ele>2486</ele>
        <time>2000-01-01T09:08:55.000Z</time>
      </trkpt>
      <trkpt lat="45.67846" lon="6.98331">
        <ele>2468</ele>
        <time>2000-01-01T09:09:05.000Z</time>
      </trkpt>
      <trkpt lat="45.67843" lon="6.98309">
        <ele>2453.4</ele>
        <time>2000-01-01T09:09:15.000Z</time>
      </trkpt>
      <trkpt lat="45.67897" lon="6.98268">
        <ele>2462</ele>
        <time>2000-01-01T09:09:25.000Z</time>
      </trkpt>
      <trkpt lat="45.67913" lon="6.98259">
        <ele>2429.5</ele>
        <time>2000-01-01T09:09:35.000Z</time>
      </trkpt>
      <trkpt lat="45.67948" lon="6.9827">
        <ele>2457</ele>
        <time>2000-01-01T09:09:45.000Z</time>
      </trkpt>
      <trkpt lat="45.67964" lon="6.98295">
        <ele>2467</ele>
        <time>2000-01-01T09:09:55.000Z</time>
      </trkpt>
      <trkpt lat="45.67981" lon="6.9832">
        <ele>2458</ele>
        <time>2000-01-01T09:10:05.000Z</time>
      </trkpt>
      <trkpt lat="45.67994" lon="6.98277">
        <ele>2450</ele>
        <time>2000-01-01T09:10:15.000Z</time>
      </trkpt>
      <trkpt lat="45.68006" lon="6.98235">
        <ele>2422</ele>
        <time>2000-01-01T09:10:25.000Z</time>
      </trkpt>
      <trkpt lat="45.68021" lon="6.98185">
        <ele>2417</ele>
        <time>2000-01-01T09:10:35.000Z</time>
      </trkpt>
      <trkpt lat="45.68055" lon="6.98168">
        <ele>2420</ele>
        <time>2000-01-01T09:10:45.000Z</time>
      </trkpt>
      <trkpt lat="45.68071" lon="6.98131">
        <ele>2419</ele>
        <time>2000-01-01T09:10:55.000Z</time>
      </trkpt>
      <trkpt lat="45.68101" lon="6.98064">
        <ele>2419</ele>
        <time>2000-01-01T09:11:05.000Z</time>
      </trkpt>
      <trkpt lat="45.68127" lon="6.98037">
        <ele>2446</ele>
        <time>2000-01-01T09:11:15.000Z</time>
      </trkpt>
      <trkpt lat="45.68142" lon="6.98028">
        <ele>2418.6</ele>
        <time>2000-01-01T09:11:25.000Z</time>
      </trkpt>
      <trkpt lat="45.68273" lon="6.9807">
        <ele>2444</ele>
        <time>2000-01-01T09:11:35.000Z</time>
      </trkpt>
      <trkpt lat="45.68289" lon="6.98037">
        <ele>2442</ele>
        <time>2000-01-01T09:11:45.000Z</time>
      </trkpt>
      <trkpt lat="45.68314" lon="6.97988">
        <ele>2435</ele>
        <time>2000-01-01T09:11:55.000Z</time>
      </trkpt>
      <trkpt lat="45.68321" lon="6.97944">
        <ele>2435</ele>
        <time>2000-01-01T09:12:05.000Z</time>
      </trkpt>
      <trkpt lat="45.68329" lon="6.979">
        <ele>2416</ele>
        <time>2000-01-01T09:12:15.000Z</time>
      </trkpt>
      <trkpt lat="45.68336" lon="6.97855">
        <ele>2418</ele>
        <time>2000-01-01T09:12:25.000Z</time>
      </trkpt>
      <trkpt lat="45.68369" lon="6.97856">
        <ele>2420</ele>
        <time>2000-01-01T09:12:35.000Z</time>
      </trkpt>
      <trkpt lat="45.68412" lon="6.9788">
        <ele>2457</ele>
        <time>2000-01-01T09:12:45.000Z</time>
      </trkpt>
      <trkpt lat="45.68431" lon="6.97841">
        <ele>2459</ele>
        <time>2000-01-01T09:12:55.000Z</time>
      </trkpt>
      <trkpt lat="45.68431" lon="6.97806">
        <ele>2459</ele>
        <time>2000-01-01T09:13:05.000Z</time>
      </trkpt>
      <trkpt lat="45.68431" lon="6.97768">
        <ele>2459</ele>
        <time>2000-01-01T09:13:15.000Z</time>
      </trkpt>
      <trkpt lat="45.68444" lon="6.97734">
        <ele>2491</ele>
        <time>2000-01-01T09:13:25.000Z</time>
      </trkpt>
      <trkpt lat="45.68463" lon="6.97686">
        <ele>2494</ele>
        <time>2000-01-01T09:13:35.000Z</time>
      </trkpt>
      <trkpt lat="45.6849" lon="6.97727">
        <ele>2498</ele>
        <time>2000-01-01T09:13:45.000Z</time>
      </trkpt>
      <trkpt lat="45.68517" lon="6.97767">
        <ele>2501</ele>
        <time>2000-01-01T09:13:55.000Z</time>
      </trkpt>
      <trkpt lat="45.68544" lon="6.97808">
        <ele>2509</ele>
        <time>2000-01-01T09:14:05.000Z</time>
      </trkpt>
      <trkpt lat="45.68571" lon="6.97849">
        <ele>2533</ele>
        <time>2000-01-01T09:14:15.000Z</time>
      </trkpt>
      <trkpt lat="45.68599" lon="6.9789">
        <ele>2539</ele>
        <time>2000-01-01T09:14:25.000Z</time>
      </trkpt>
      <trkpt lat="45.68628" lon="6.97934">
        <ele>2551</ele>
        <time>2000-01-01T09:14:35.000Z</time>
      </trkpt>
      <trkpt lat="45.68655" lon="6.97965">
        <ele>2558</ele>
        <time>2000-01-01T09:14:45.000Z</time>
      </trkpt>
      <trkpt lat="45.68683" lon="6.97996">
        <ele>2568</ele>
        <time>2000-01-01T09:14:55.000Z</time>
      </trkpt>
      <trkpt lat="45.68734" lon="6.98055">
        <ele>2582</ele>
        <time>2000-01-01T09:15:05.000Z</time>
      </trkpt>
      <trkpt lat="45.68751" lon="6.98094">
        <ele>2579</ele>
        <time>2000-01-01T09:15:15.000Z</time>
      </trkpt>
      <trkpt lat="45.68768" lon="6.98133">
        <ele>2583</ele>
        <time>2000-01-01T09:15:25.000Z</time>
      </trkpt>
      <trkpt lat="45.68787" lon="6.98177">
        <ele>2587</ele>
        <time>2000-01-01T09:15:35.000Z</time>
      </trkpt>
      <trkpt lat="45.68811" lon="6.98193">
        <ele>2596</ele>
        <time>2000-01-01T09:15:45.000Z</time>
      </trkpt>
      <trkpt lat="45.68843" lon="6.98213">
        <ele>2601</ele>
        <time>2000-01-01T09:15:55.000Z</time>
      </trkpt>
      <trkpt lat="45.68867" lon="6.98213">
        <ele>2607</ele>
        <time>2000-01-01T09:16:05.000Z</time>
      </trkpt>
      <trkpt lat="45.68893" lon="6.98214">
        <ele>2617</ele>
        <time>2000-01-01T09:16:15.000Z</time>
      </trkpt>
      <trkpt lat="45.68913" lon="6.98234">
        <ele>2618</ele>
        <time>2000-01-01T09:16:25.000Z</time>
      </trkpt>
      <trkpt lat="45.68936" lon="6.98256">
        <ele>2620</ele>
        <time>2000-01-01T09:16:35.000Z</time>
      </trkpt>
      <trkpt lat="45.68969" lon="6.9824">
        <ele>2626</ele>
        <time>2000-01-01T09:16:45.000Z</time>
      </trkpt>
      <trkpt lat="45.69002" lon="6.98225">
        <ele>2629</ele>
        <time>2000-01-01T09:16:55.000Z</time>
      </trkpt>
      <trkpt lat="45.69062" lon="6.98196">
        <ele>2649</ele>
        <time>2000-01-01T09:17:05.000Z</time>
      </trkpt>
      <trkpt lat="45.69086" lon="6.98221">
        <ele>2686</ele>
        <time>2000-01-01T09:17:15.000Z</time>
      </trkpt>
      <trkpt lat="45.69129" lon="6.98264">
        <ele>2709</ele>
        <time>2000-01-01T09:17:25.000Z</time>
      </trkpt>
      <trkpt lat="45.69144" lon="6.98301">
        <ele>2722</ele>
        <time>2000-01-01T09:17:35.000Z</time>
      </trkpt>
      <trkpt lat="45.69182" lon="6.98314">
        <ele>2731</ele>
        <time>2000-01-01T09:17:45.000Z</time>
      </trkpt>
      <trkpt lat="45.6922" lon="6.98326">
        <ele>2749</ele>
        <time>2000-01-01T09:17:55.000Z</time>
      </trkpt>
      <trkpt lat="45.69258" lon="6.98339">
        <ele>2756</ele>
        <time>2000-01-01T09:18:05.000Z</time>
      </trkpt>
      <trkpt lat="45.69296" lon="6.98352">
        <ele>2777</ele>
        <time>2000-01-01T09:18:15.000Z</time>
      </trkpt>
      <trkpt lat="45.69367" lon="6.98376">
        <ele>2832</ele>
        <time>2000-01-01T09:18:25.000Z</time>
      </trkpt>
      <trkpt lat="45.69397" lon="6.9841">
        <ele>2841</ele>
        <time>2000-01-01T09:18:35.000Z</time>
      </trkpt>
      <trkpt lat="45.69426" lon="6.98443">
        <ele>2850</ele>
        <time>2000-01-01T09:18:45.000Z</time>
      </trkpt>
      <trkpt lat="45.69456" lon="6.98477">
        <ele>2855</ele>
        <time>2000-01-01T09:18:55.000Z</time>
      </trkpt>
      <trkpt lat="45.69486" lon="6.9851">
        <ele>2865</ele>
        <time>2000-01-01T09:19:05.000Z</time>
      </trkpt>
      <trkpt lat="45.69518" lon="6.98547">
        <ele>2874</ele>
        <time>2000-01-01T09:19:15.000Z</time>
      </trkpt>
      <trkpt lat="45.69547" lon="6.98555">
        <ele>2877</ele>
        <time>2000-01-01T09:19:25.000Z</time>
      </trkpt>
      <trkpt lat="45.69597" lon="6.98569">
        <ele>2890</ele>
        <time>2000-01-01T09:19:35.000Z</time>
      </trkpt>
      <trkpt lat="45.69619" lon="6.98597">
        <ele>2908</ele>
        <time>2000-01-01T09:19:45.000Z</time>
      </trkpt>
      <trkpt lat="45.69655" lon="6.98644">
        <ele>2926</ele>
        <time>2000-01-01T09:19:55.000Z</time>
      </trkpt>
      <trkpt lat="45.69686" lon="6.98664">
        <ele>2931</ele>
        <time>2000-01-01T09:20:05.000Z</time>
      </trkpt>
      <trkpt lat="45.69717" lon="6.98685">
        <ele>2948</ele>
        <time>2000-01-01T09:20:15.000Z</time>
      </trkpt>
      <trkpt lat="45.6977" lon="6.98719">
        <ele>2971</ele>
        <time>2000-01-01T09:20:25.000Z</time>
      </trkpt>
      <trkpt lat="45.69794" lon="6.9875">
        <ele>2974</ele>
        <time>2000-01-01T09:20:35.000Z</time>
      </trkpt>
      <trkpt lat="45.69818" lon="6.98782">
        <ele>2983</ele>
        <time>2000-01-01T09:20:45.000Z</time>
      </trkpt>
      <trkpt lat="45.69849" lon="6.98822">
        <ele>2983</ele>
        <time>2000-01-01T09:20:55.000Z</time>
      </trkpt>
      <trkpt lat="45.69852" lon="6.98877">
        <ele>2973</ele>
        <time>2000-01-01T09:21:05.000Z</time>
      </trkpt>
      <trkpt lat="45.69892" lon="6.98911">
        <ele>2974</ele>
        <time>2000-01-01T09:21:15.000Z</time>
      </trkpt>
      <trkpt lat="45.69928" lon="6.98902">
        <ele>2961</ele>
        <time>2000-01-01T09:21:25.000Z</time>
      </trkpt>
      <trkpt lat="45.69963" lon="6.98894">
        <ele>2949</ele>
        <time>2000-01-01T09:21:35.000Z</time>
      </trkpt>
      <trkpt lat="45.69999" lon="6.98885">
        <ele>2955</ele>
        <time>2000-01-01T09:21:45.000Z</time>
      </trkpt>
      <trkpt lat="45.70046" lon="6.98874">
        <ele>2961</ele>
        <time>2000-01-01T09:21:55.000Z</time>
      </trkpt>
      <trkpt lat="45.70075" lon="6.98874">
        <ele>2961</ele>
        <time>2000-01-01T09:22:05.000Z</time>
      </trkpt>
      <trkpt lat="45.70088" lon="6.98888">
        <ele>2983.9</ele>
        <time>2000-01-01T09:22:15.000Z</time>
      </trkpt>
      <trkpt lat="45.70112" lon="6.98871">
        <ele>2962</ele>
        <time>2000-01-01T09:22:25.000Z</time>
      </trkpt>
      <trkpt lat="45.70142" lon="6.98866">
        <ele>2964</ele>
        <time>2000-01-01T09:22:35.000Z</time>
      </trkpt>
      <trkpt lat="45.70196" lon="6.98858">
        <ele>2964</ele>
        <time>2000-01-01T09:22:45.000Z</time>
      </trkpt>
      <trkpt lat="45.70231" lon="6.98886">
        <ele>2959</ele>
        <time>2000-01-01T09:22:55.000Z</time>
      </trkpt>
      <trkpt lat="45.70251" lon="6.98936">
        <ele>2943</ele>
        <time>2000-01-01T09:23:05.000Z</time>
      </trkpt>
      <trkpt lat="45.70248" lon="6.98978">
        <ele>2930</ele>
        <time>2000-01-01T09:23:15.000Z</time>
      </trkpt>
      <trkpt lat="45.70243" lon="6.99047">
        <ele>2920</ele>
        <time>2000-01-01T09:23:25.000Z</time>
      </trkpt>
      <trkpt lat="45.7026" lon="6.99076">
        <ele>2898</ele>
        <time>2000-01-01T09:23:35.000Z</time>
      </trkpt>
      <trkpt lat="45.70282" lon="6.99113">
        <ele>2886</ele>
        <time>2000-01-01T09:23:45.000Z</time>
      </trkpt>
      <trkpt lat="45.7028" lon="6.99148">
        <ele>2876</ele>
        <time>2000-01-01T09:23:55.000Z</time>
      </trkpt>
      <trkpt lat="45.70278" lon="6.99185">
        <ele>2865</ele>
        <time>2000-01-01T09:24:05.000Z</time>
      </trkpt>
      <trkpt lat="45.70301" lon="6.99198">
        <ele>2864</ele>
        <time>2000-01-01T09:24:15.000Z</time>
      </trkpt>
      <trkpt lat="45.70325" lon="6.99212">
        <ele>2865</ele>
        <time>2000-01-01T09:24:25.000Z</time>
      </trkpt>
      <trkpt lat="45.70334" lon="6.99188">
        <ele>2862</ele>
        <time>2000-01-01T09:24:35.000Z</time>
      </trkpt>
      <trkpt lat="45.70358" lon="6.99187">
        <ele>2860</ele>
        <time>2000-01-01T09:24:45.000Z</time>
      </trkpt>
      <trkpt lat="45.70382" lon="6.99187">
        <ele>2850</ele>
        <time>2000-01-01T09:24:55.000Z</time>
      </trkpt>
      <trkpt lat="45.70393" lon="6.99222">
        <ele>2843</ele>
        <time>2000-01-01T09:25:05.000Z</time>
      </trkpt>
      <trkpt lat="45.70409" lon="6.9927">
        <ele>2820</ele>
        <time>2000-01-01T09:25:15.000Z</time>
      </trkpt>
      <trkpt lat="45.70408" lon="6.9931">
        <ele>2802</ele>
        <time>2000-01-01T09:25:25.000Z</time>
      </trkpt>
      <trkpt lat="45.70406" lon="6.9937">
        <ele>2777</ele>
        <time>2000-01-01T09:25:35.000Z</time>
      </trkpt>
      <trkpt lat="45.70416" lon="6.99421">
        <ele>2753</ele>
        <time>2000-01-01T09:25:45.000Z</time>
      </trkpt>
      <trkpt lat="45.70425" lon="6.99472">
        <ele>2737</ele>
        <time>2000-01-01T09:25:55.000Z</time>
      </trkpt>
      <trkpt lat="45.70435" lon="6.99524">
        <ele>2726</ele>
        <time>2000-01-01T09:26:05.000Z</time>
      </trkpt>
      <trkpt lat="45.70451" lon="6.99611">
        <ele>2703</ele>
        <time>2000-01-01T09:26:15.000Z</time>
      </trkpt>
      <trkpt lat="45.70464" lon="6.99625">
        <ele>2695.9</ele>
        <time>2000-01-01T09:26:25.000Z</time>
      </trkpt>
      <trkpt lat="45.70489" lon="6.99603">
        <ele>2694</ele>
        <time>2000-01-01T09:26:35.000Z</time>
      </trkpt>
      <trkpt lat="45.70504" lon="6.99613">
        <ele>2682.3</ele>
        <time>2000-01-01T09:26:45.000Z</time>
      </trkpt>
      <trkpt lat="45.7053" lon="6.99693">
        <ele>2670</ele>
        <time>2000-01-01T09:26:55.000Z</time>
      </trkpt>
      <trkpt lat="45.70552" lon="6.99729">
        <ele>2662</ele>
        <time>2000-01-01T09:27:05.000Z</time>
      </trkpt>
      <trkpt lat="45.70574" lon="6.99766">
        <ele>2658</ele>
        <time>2000-01-01T09:27:15.000Z</time>
      </trkpt>
      <trkpt lat="45.70609" lon="6.99823">
        <ele>2638</ele>
        <time>2000-01-01T09:27:25.000Z</time>
      </trkpt>
      <trkpt lat="45.70622" lon="6.99866">
        <ele>2634</ele>
        <time>2000-01-01T09:27:35.000Z</time>
      </trkpt>
      <trkpt lat="45.70634" lon="6.99909">
        <ele>2629</ele>
        <time>2000-01-01T09:27:45.000Z</time>
      </trkpt>
      <trkpt lat="45.7065" lon="6.99963">
        <ele>2627</ele>
        <time>2000-01-01T09:27:55.000Z</time>
      </trkpt>
      <trkpt lat="45.70674" lon="6.99976">
        <ele>2625</ele>
        <time>2000-01-01T09:28:05.000Z</time>
      </trkpt>
      <trkpt lat="45.70705" lon="6.99993">
        <ele>2622</ele>
        <time>2000-01-01T09:28:15.000Z</time>
      </trkpt>
      <trkpt lat="45.70726" lon="7.00039">
        <ele>2616</ele>
        <time>2000-01-01T09:28:25.000Z</time>
      </trkpt>
      <trkpt lat="45.70747" lon="7.00085">
        <ele>2610</ele>
        <time>2000-01-01T09:28:35.000Z</time>
      </trkpt>
      <trkpt lat="45.70768" lon="7.00131">
        <ele>2605</ele>
        <time>2000-01-01T09:28:45.000Z</time>
      </trkpt>
      <trkpt lat="45.70789" lon="7.00177">
        <ele>2598</ele>
        <time>2000-01-01T09:28:55.000Z</time>
      </trkpt>
      <trkpt lat="45.70817" lon="7.00239">
        <ele>2588</ele>
        <time>2000-01-01T09:29:05.000Z</time>
      </trkpt>
      <trkpt lat="45.70836" lon="7.00263">
        <ele>2586</ele>
        <time>2000-01-01T09:29:15.000Z</time>
      </trkpt>
      <trkpt lat="45.70858" lon="7.00292">
        <ele>2582</ele>
        <time>2000-01-01T09:29:25.000Z</time>
      </trkpt>
      <trkpt lat="45.70885" lon="7.00302">
        <ele>2571</ele>
        <time>2000-01-01T09:29:35.000Z</time>
      </trkpt>
      <trkpt lat="45.70922" lon="7.00315">
        <ele>2571</ele>
        <time>2000-01-01T09:29:45.000Z</time>
      </trkpt>
      <trkpt lat="45.70937" lon="7.00353">
        <ele>2571</ele>
        <time>2000-01-01T09:29:55.000Z</time>
      </trkpt>
      <trkpt lat="45.70967" lon="7.00427">
        <ele>2570</ele>
        <time>2000-01-01T09:30:05.000Z</time>
      </trkpt>
      <trkpt lat="45.70997" lon="7.00459">
        <ele>2570</ele>
        <time>2000-01-01T09:30:15.000Z</time>
      </trkpt>
      <trkpt lat="45.71027" lon="7.00492">
        <ele>2564</ele>
        <time>2000-01-01T09:30:25.000Z</time>
      </trkpt>
      <trkpt lat="45.71056" lon="7.00524">
        <ele>2564</ele>
        <time>2000-01-01T09:30:35.000Z</time>
      </trkpt>
      <trkpt lat="45.71112" lon="7.00584">
        <ele>2570</ele>
        <time>2000-01-01T09:30:45.000Z</time>
      </trkpt>
      <trkpt lat="45.71123" lon="7.00618">
        <ele>2572</ele>
        <time>2000-01-01T09:30:55.000Z</time>
      </trkpt>
      <trkpt lat="45.71137" lon="7.00659">
        <ele>2576</ele>
        <time>2000-01-01T09:31:05.000Z</time>
      </trkpt>
      <trkpt lat="45.71138" lon="7.00726">
        <ele>2580</ele>
        <time>2000-01-01T09:31:15.000Z</time>
      </trkpt>
      <trkpt lat="45.71159" lon="7.00759">
        <ele>2583</ele>
        <time>2000-01-01T09:31:25.000Z</time>
      </trkpt>
      <trkpt lat="45.71199" lon="7.00823">
        <ele>2591</ele>
        <time>2000-01-01T09:31:35.000Z</time>
      </trkpt>
      <trkpt lat="45.71213" lon="7.00858">
        <ele>2595</ele>
        <time>2000-01-01T09:31:45.000Z</time>
      </trkpt>
      <trkpt lat="45.71234" lon="7.0091">
        <ele>2599</ele>
        <time>2000-01-01T09:31:55.000Z</time>
      </trkpt>
      <trkpt lat="45.71259" lon="7.0093">
        <ele>2605</ele>
        <time>2000-01-01T09:32:05.000Z</time>
      </trkpt>
      <trkpt lat="45.713" lon="7.00961">
        <ele>2612</ele>
        <time>2000-01-01T09:32:15.000Z</time>
      </trkpt>
      <trkpt lat="45.71305" lon="7.01001">
        <ele>2626</ele>
        <time>2000-01-01T09:32:25.000Z</time>
      </trkpt>
      <trkpt lat="45.71324" lon="7.0103">
        <ele>2641</ele>
        <time>2000-01-01T09:32:35.000Z</time>
      </trkpt>
      <trkpt lat="45.71351" lon="7.01072">
        <ele>2655</ele>
        <time>2000-01-01T09:32:45.000Z</time>
      </trkpt>
      <trkpt lat="45.71364" lon="7.01108">
        <ele>2657</ele>
        <time>2000-01-01T09:32:55.000Z</time>
      </trkpt>
      <trkpt lat="45.71385" lon="7.01165">
        <ele>2660</ele>
        <time>2000-01-01T09:33:05.000Z</time>
      </trkpt>
      <trkpt lat="45.71427" lon="7.01148">
        <ele>2680</ele>
        <time>2000-01-01T09:33:15.000Z</time>
      </trkpt>
      <trkpt lat="45.71456" lon="7.01162">
        <ele>2707</ele>
        <time>2000-01-01T09:33:25.000Z</time>
      </trkpt>
      <trkpt lat="45.71488" lon="7.01129">
        <ele>2732</ele>
        <time>2000-01-01T09:33:35.000Z</time>
      </trkpt>
      <trkpt lat="45.71518" lon="7.01122">
        <ele>2749</ele>
        <time>2000-01-01T09:33:45.000Z</time>
      </trkpt>
      <trkpt lat="45.71551" lon="7.0114">
        <ele>2755</ele>
        <time>2000-01-01T09:33:55.000Z</time>
      </trkpt>
      <trkpt lat="45.71583" lon="7.01158">
        <ele>2768</ele>
        <time>2000-01-01T09:34:05.000Z</time>
      </trkpt>
      <trkpt lat="45.71647" lon="7.01193">
        <ele>2768</ele>
        <time>2000-01-01T09:34:15.000Z</time>
      </trkpt>
      <trkpt lat="45.71677" lon="7.01215">
        <ele>2770</ele>
        <time>2000-01-01T09:34:25.000Z</time>
      </trkpt>
      <trkpt lat="45.71707" lon="7.01238">
        <ele>2772</ele>
        <time>2000-01-01T09:34:35.000Z</time>
      </trkpt>
      <trkpt lat="45.71755" lon="7.01274">
        <ele>2776</ele>
        <time>2000-01-01T09:34:45.000Z</time>
      </trkpt>
      <trkpt lat="45.71783" lon="7.01279">
        <ele>2782</ele>
        <time>2000-01-01T09:34:55.000Z</time>
      </trkpt>
      <trkpt lat="45.71825" lon="7.01287">
        <ele>2793</ele>
        <time>2000-01-01T09:35:05.000Z</time>
      </trkpt>
      <trkpt lat="45.71825" lon="7.01324">
        <ele>2794</ele>
        <time>2000-01-01T09:35:15.000Z</time>
      </trkpt>
      <trkpt lat="45.71826" lon="7.0137">
        <ele>2796</ele>
        <time>2000-01-01T09:35:25.000Z</time>
      </trkpt>
      <trkpt lat="45.71834" lon="7.01408">
        <ele>2786</ele>
        <time>2000-01-01T09:35:35.000Z</time>
      </trkpt>
      <trkpt lat="45.71847" lon="7.01466">
        <ele>2776</ele>
        <time>2000-01-01T09:35:45.000Z</time>
      </trkpt>
      <trkpt lat="45.7183" lon="7.0151">
        <ele>2759</ele>
        <time>2000-01-01T09:35:55.000Z</time>
      </trkpt>
      <trkpt lat="45.71813" lon="7.01555">
        <ele>2735</ele>
        <time>2000-01-01T09:36:05.000Z</time>
      </trkpt>
      <trkpt lat="45.71796" lon="7.01599">
        <ele>2719</ele>
        <time>2000-01-01T09:36:15.000Z</time>
      </trkpt>
      <trkpt lat="45.71778" lon="7.01645">
        <ele>2699</ele>
        <time>2000-01-01T09:36:25.000Z</time>
      </trkpt>
      <trkpt lat="45.71757" lon="7.01668">
        <ele>2678</ele>
        <time>2000-01-01T09:36:35.000Z</time>
      </trkpt>
      <trkpt lat="45.71758" lon="7.01713">
        <ele>2658</ele>
        <time>2000-01-01T09:36:45.000Z</time>
      </trkpt>
      <trkpt lat="45.71758" lon="7.01759">
        <ele>2656</ele>
        <time>2000-01-01T09:36:55.000Z</time>
      </trkpt>
      <trkpt lat="45.71759" lon="7.01808">
        <ele>2643</ele>
        <time>2000-01-01T09:37:05.000Z</time>
      </trkpt>
      <trkpt lat="45.71739" lon="7.0183">
        <ele>2637</ele>
        <time>2000-01-01T09:37:15.000Z</time>
      </trkpt>
      <trkpt lat="45.71733" lon="7.01869">
        <ele>2633</ele>
        <time>2000-01-01T09:37:25.000Z</time>
      </trkpt>
      <trkpt lat="45.71724" lon="7.01925">
        <ele>2607</ele>
        <time>2000-01-01T09:37:35.000Z</time>
      </trkpt>
      <trkpt lat="45.71702" lon="7.01946">
        <ele>2598</ele>
        <time>2000-01-01T09:37:45.000Z</time>
      </trkpt>
      <trkpt lat="45.71688" lon="7.01987">
        <ele>2596</ele>
        <time>2000-01-01T09:37:55.000Z</time>
      </trkpt>
      <trkpt lat="45.71675" lon="7.02028">
        <ele>2598</ele>
        <time>2000-01-01T09:38:05.000Z</time>
      </trkpt>
      <trkpt lat="45.7166" lon="7.02072">
        <ele>2600</ele>
        <time>2000-01-01T09:38:15.000Z</time>
      </trkpt>
      <trkpt lat="45.71673" lon="7.02121">
        <ele>2597</ele>
        <time>2000-01-01T09:38:25.000Z</time>
      </trkpt>
      <trkpt lat="45.71685" lon="7.0217">
        <ele>2596</ele>
        <time>2000-01-01T09:38:35.000Z</time>
      </trkpt>
      <trkpt lat="45.71698" lon="7.02219">
        <ele>2596</ele>
        <time>2000-01-01T09:38:45.000Z</time>
      </trkpt>
      <trkpt lat="45.71717" lon="7.02292">
        <ele>2595</ele>
        <time>2000-01-01T09:38:55.000Z</time>
      </trkpt>
      <trkpt lat="45.7171" lon="7.02332">
        <ele>2595</ele>
        <time>2000-01-01T09:39:05.000Z</time>
      </trkpt>
      <trkpt lat="45.717" lon="7.02396">
        <ele>2585</ele>
        <time>2000-01-01T09:39:15.000Z</time>
      </trkpt>
      <trkpt lat="45.71707" lon="7.02376">
        <ele>2583.5</ele>
        <time>2000-01-01T09:39:25.000Z</time>
      </trkpt>
      <trkpt lat="45.71724" lon="7.0251">
        <ele>2575</ele>
        <time>2000-01-01T09:39:35.000Z</time>
      </trkpt>
      <trkpt lat="45.71742" lon="7.02547">
        <ele>2559</ele>
        <time>2000-01-01T09:39:45.000Z</time>
      </trkpt>
      <trkpt lat="45.71761" lon="7.02584">
        <ele>2541</ele>
        <time>2000-01-01T09:39:55.000Z</time>
      </trkpt>
      <trkpt lat="45.71781" lon="7.02624">
        <ele>2524</ele>
        <time>2000-01-01T09:40:05.000Z</time>
      </trkpt>
      <trkpt lat="45.7179" lon="7.02672">
        <ele>2520</ele>
        <time>2000-01-01T09:40:15.000Z</time>
      </trkpt>
      <trkpt lat="45.71798" lon="7.02719">
        <ele>2517</ele>
        <time>2000-01-01T09:40:25.000Z</time>
      </trkpt>
      <trkpt lat="45.71813" lon="7.02801">
        <ele>2514</ele>
        <time>2000-01-01T09:40:35.000Z</time>
      </trkpt>
      <trkpt lat="45.71838" lon="7.02838">
        <ele>2506</ele>
        <time>2000-01-01T09:40:45.000Z</time>
      </trkpt>
      <trkpt lat="45.71863" lon="7.02875">
        <ele>2498</ele>
        <time>2000-01-01T09:40:55.000Z</time>
      </trkpt>
      <trkpt lat="45.71887" lon="7.02912">
        <ele>2486</ele>
        <time>2000-01-01T09:41:05.000Z</time>
      </trkpt>
      <trkpt lat="45.71917" lon="7.02956">
        <ele>2478</ele>
        <time>2000-01-01T09:41:15.000Z</time>
      </trkpt>
      <trkpt lat="45.71902" lon="7.02987">
        <ele>2470</ele>
        <time>2000-01-01T09:41:25.000Z</time>
      </trkpt>
      <trkpt lat="45.71907" lon="7.03036">
        <ele>2430</ele>
        <time>2000-01-01T09:41:35.000Z</time>
      </trkpt>
      <trkpt lat="45.71912" lon="7.03085">
        <ele>2407</ele>
        <time>2000-01-01T09:41:45.000Z</time>
      </trkpt>
      <trkpt lat="45.71922" lon="7.03175">
        <ele>2369</ele>
        <time>2000-01-01T09:41:55.000Z</time>
      </trkpt>
      <trkpt lat="45.71941" lon="7.03202">
        <ele>2352</ele>
        <time>2000-01-01T09:42:05.000Z</time>
      </trkpt>
      <trkpt lat="45.71947" lon="7.03263">
        <ele>2332</ele>
        <time>2000-01-01T09:42:15.000Z</time>
      </trkpt>
      <trkpt lat="45.7196" lon="7.033">
        <ele>2317</ele>
        <time>2000-01-01T09:42:25.000Z</time>
      </trkpt>
      <trkpt lat="45.71981" lon="7.03361">
        <ele>2314</ele>
        <time>2000-01-01T09:42:35.000Z</time>
      </trkpt>
      <trkpt lat="45.71977" lon="7.03389">
        <ele>2311</ele>
        <time>2000-01-01T09:42:45.000Z</time>
      </trkpt>
      <trkpt lat="45.71951" lon="7.03394">
        <ele>2287</ele>
        <time>2000-01-01T09:42:55.000Z</time>
      </trkpt>
      <trkpt lat="45.71941" lon="7.03447">
        <ele>2261</ele>
        <time>2000-01-01T09:43:05.000Z</time>
      </trkpt>
      <trkpt lat="45.71919" lon="7.03468">
        <ele>2245</ele>
        <time>2000-01-01T09:43:15.000Z</time>
      </trkpt>
      <trkpt lat="45.71902" lon="7.03526">
        <ele>2218</ele>
        <time>2000-01-01T09:43:25.000Z</time>
      </trkpt>
      <trkpt lat="45.7188" lon="7.03547">
        <ele>2218</ele>
        <time>2000-01-01T09:43:35.000Z</time>
      </trkpt>
      <trkpt lat="45.71852" lon="7.03574">
        <ele>2193</ele>
        <time>2000-01-01T09:43:45.000Z</time>
      </trkpt>
      <trkpt lat="45.71854" lon="7.03616">
        <ele>2186</ele>
        <time>2000-01-01T09:43:55.000Z</time>
      </trkpt>
      <trkpt lat="45.71858" lon="7.0369">
        <ele>2165</ele>
        <time>2000-01-01T09:44:05.000Z</time>
      </trkpt>
      <trkpt lat="45.7184" lon="7.03722">
        <ele>2142</ele>
        <time>2000-01-01T09:44:15.000Z</time>
      </trkpt>
      <trkpt lat="45.71811" lon="7.03775">
        <ele>2128</ele>
        <time>2000-01-01T09:44:25.000Z</time>
      </trkpt>
      <trkpt lat="45.71784" lon="7.03772">
        <ele>2124</ele>
        <time>2000-01-01T09:44:35.000Z</time>
      </trkpt>
      <trkpt lat="45.71749" lon="7.03768">
        <ele>2120</ele>
        <time>2000-01-01T09:44:45.000Z</time>
      </trkpt>
      <trkpt lat="45.71725" lon="7.03742">
        <ele>2117</ele>
        <time>2000-01-01T09:44:55.000Z</time>
      </trkpt>
      <trkpt lat="45.71682" lon="7.03737">
        <ele>2100</ele>
        <time>2000-01-01T09:45:05.000Z</time>
      </trkpt>
      <trkpt lat="45.71648" lon="7.03763">
        <ele>2088</ele>
        <time>2000-01-01T09:45:15.000Z</time>
      </trkpt>
      <trkpt lat="45.71654" lon="7.0382">
        <ele>2069</ele>
        <time>2000-01-01T09:45:25.000Z</time>
      </trkpt>
      <trkpt lat="45.71639" lon="7.03839">
        <ele>2069</ele>
        <time>2000-01-01T09:45:35.000Z</time>
      </trkpt>
      <trkpt lat="45.71651" lon="7.0388">
        <ele>2058</ele>
        <time>2000-01-01T09:45:45.000Z</time>
      </trkpt>
      <trkpt lat="45.7164" lon="7.03878">
        <ele>2059.1</ele>
        <time>2000-01-01T09:45:55.000Z</time>
      </trkpt>
      <trkpt lat="45.71662" lon="7.03937">
        <ele>2045</ele>
        <time>2000-01-01T09:46:05.000Z</time>
      </trkpt>
      <trkpt lat="45.71646" lon="7.03968">
        <ele>2021</ele>
        <time>2000-01-01T09:46:15.000Z</time>
      </trkpt>
      <trkpt lat="45.71611" lon="7.03974">
        <ele>2018</ele>
        <time>2000-01-01T09:46:25.000Z</time>
      </trkpt>
      <trkpt lat="45.7159" lon="7.0396">
        <ele>2012</ele>
        <time>2000-01-01T09:46:35.000Z</time>
      </trkpt>
      <trkpt lat="45.7156" lon="7.03971">
        <ele>2006</ele>
        <time>2000-01-01T09:46:45.000Z</time>
      </trkpt>
      <trkpt lat="45.71504" lon="7.03992">
        <ele>1990</ele>
        <time>2000-01-01T09:46:55.000Z</time>
      </trkpt>
      <trkpt lat="45.71458" lon="7.03981">
        <ele>1976</ele>
        <time>2000-01-01T09:47:05.000Z</time>
      </trkpt>
      <trkpt lat="45.71432" lon="7.03963">
        <ele>1954</ele>
        <time>2000-01-01T09:47:15.000Z</time>
      </trkpt>
      <trkpt lat="45.71389" lon="7.03935">
        <ele>1951</ele>
        <time>2000-01-01T09:47:25.000Z</time>
      </trkpt>
      <trkpt lat="45.71407" lon="7.03985">
        <ele>1945</ele>
        <time>2000-01-01T09:47:35.000Z</time>
      </trkpt>
      <trkpt lat="45.71425" lon="7.04036">
        <ele>1939</ele>
        <time>2000-01-01T09:47:45.000Z</time>
      </trkpt>
      <trkpt lat="45.71443" lon="7.04086">
        <ele>1928</ele>
        <time>2000-01-01T09:47:55.000Z</time>
      </trkpt>
      <trkpt lat="45.71461" lon="7.04137">
        <ele>1899</ele>
        <time>2000-01-01T09:48:05.000Z</time>
      </trkpt>
      <trkpt lat="45.71479" lon="7.04187">
        <ele>1897</ele>
        <time>2000-01-01T09:48:15.000Z</time>
      </trkpt>
      <trkpt lat="45.71502" lon="7.04252">
        <ele>1882</ele>
        <time>2000-01-01T09:48:25.000Z</time>
      </trkpt>
      <trkpt lat="45.71523" lon="7.04282">
        <ele>1879</ele>
        <time>2000-01-01T09:48:35.000Z</time>
      </trkpt>
      <trkpt lat="45.7156" lon="7.04334">
        <ele>1852</ele>
        <time>2000-01-01T09:48:45.000Z</time>
      </trkpt>
      <trkpt lat="45.71576" lon="7.04381">
        <ele>1843</ele>
        <time>2000-01-01T09:48:55.000Z</time>
      </trkpt>
      <trkpt lat="45.71592" lon="7.04427">
        <ele>1833</ele>
        <time>2000-01-01T09:49:05.000Z</time>
      </trkpt>
      <trkpt lat="45.71608" lon="7.04474">
        <ele>1821</ele>
        <time>2000-01-01T09:49:15.000Z</time>
      </trkpt>
      <trkpt lat="45.71629" lon="7.04536">
        <ele>1807</ele>
        <time>2000-01-01T09:49:25.000Z</time>
      </trkpt>
      <trkpt lat="45.71657" lon="7.0458">
        <ele>1793</ele>
        <time>2000-01-01T09:49:35.000Z</time>
      </trkpt>
      <trkpt lat="45.71685" lon="7.04624">
        <ele>1791</ele>
        <time>2000-01-01T09:49:45.000Z</time>
      </trkpt>
      <trkpt lat="45.71713" lon="7.04668">
        <ele>1790</ele>
        <time>2000-01-01T09:49:55.000Z</time>
      </trkpt>
      <trkpt lat="45.71741" lon="7.04711">
        <ele>1776</ele>
        <time>2000-01-01T09:50:05.000Z</time>
      </trkpt>
      <trkpt lat="45.71769" lon="7.04755">
        <ele>1775</ele>
        <time>2000-01-01T09:50:15.000Z</time>
      </trkpt>
      <trkpt lat="45.71797" lon="7.04799">
        <ele>1771</ele>
        <time>2000-01-01T09:50:25.000Z</time>
      </trkpt>
      <trkpt lat="45.71825" lon="7.04843">
        <ele>1759</ele>
        <time>2000-01-01T09:50:35.000Z</time>
      </trkpt>
      <trkpt lat="45.71869" lon="7.04911">
        <ele>1749</ele>
        <time>2000-01-01T09:50:45.000Z</time>
      </trkpt>
      <trkpt lat="45.71892" lon="7.04938">
        <ele>1740</ele>
        <time>2000-01-01T09:50:55.000Z</time>
      </trkpt>
      <trkpt lat="45.71929" lon="7.04982">
        <ele>1726</ele>
        <time>2000-01-01T09:51:05.000Z</time>
      </trkpt>
      <trkpt lat="45.71954" lon="7.04989">
        <ele>1724</ele>
        <time>2000-01-01T09:51:15.000Z</time>
      </trkpt>
      <trkpt lat="45.71985" lon="7.04997">
        <ele>1710</ele>
        <time>2000-01-01T09:51:25.000Z</time>
      </trkpt>
      <trkpt lat="45.72016" lon="7.05025">
        <ele>1685</ele>
        <time>2000-01-01T09:51:35.000Z</time>
      </trkpt>
      <trkpt lat="45.72048" lon="7.05052">
        <ele>1667</ele>
        <time>2000-01-01T09:51:45.000Z</time>
      </trkpt>
      <trkpt lat="45.72079" lon="7.0508">
        <ele>1651</ele>
        <time>2000-01-01T09:51:55.000Z</time>
      </trkpt>
      <trkpt lat="45.72131" lon="7.05126">
        <ele>1647</ele>
        <time>2000-01-01T09:52:05.000Z</time>
      </trkpt>
      <trkpt lat="45.72161" lon="7.05141">
        <ele>1642</ele>
        <time>2000-01-01T09:52:15.000Z</time>
      </trkpt>
      <trkpt lat="45.72192" lon="7.05156">
        <ele>1642</ele>
        <time>2000-01-01T09:52:25.000Z</time>
      </trkpt>
      <trkpt lat="45.72228" lon="7.05173">
        <ele>1637</ele>
        <time>2000-01-01T09:52:35.000Z</time>
      </trkpt>
      <trkpt lat="45.72229" lon="7.0521">
        <ele>1630</ele>
        <time>2000-01-01T09:52:45.000Z</time>
      </trkpt>
      <trkpt lat="45.7223" lon="7.05254">
        <ele>1619</ele>
        <time>2000-01-01T09:52:55.000Z</time>
      </trkpt>
      <trkpt lat="45.72205" lon="7.05249">
        <ele>1613</ele>
        <time>2000-01-01T09:53:05.000Z</time>
      </trkpt>
      <trkpt lat="45.72174" lon="7.05243">
        <ele>1611</ele>
        <time>2000-01-01T09:53:15.000Z</time>
      </trkpt>
      <trkpt lat="45.72193" lon="7.05279">
        <ele>1609</ele>
        <time>2000-01-01T09:53:25.000Z</time>
      </trkpt>
      <trkpt lat="45.7223" lon="7.05351">
        <ele>1604</ele>
        <time>2000-01-01T09:53:35.000Z</time>
      </trkpt>
      <trkpt lat="45.72234" lon="7.05406">
        <ele>1604</ele>
        <time>2000-01-01T09:53:45.000Z</time>
      </trkpt>
      <trkpt lat="45.72247" lon="7.05446">
        <ele>1604</ele>
        <time>2000-01-01T09:53:55.000Z</time>
      </trkpt>
      <trkpt lat="45.72273" lon="7.05521">
        <ele>1602</ele>
        <time>2000-01-01T09:54:05.000Z</time>
      </trkpt>
      <trkpt lat="45.72291" lon="7.05547">
        <ele>1602</ele>
        <time>2000-01-01T09:54:15.000Z</time>
      </trkpt>
      <trkpt lat="45.72312" lon="7.05579">
        <ele>1605</ele>
        <time>2000-01-01T09:54:25.000Z</time>
      </trkpt>
      <trkpt lat="45.72334" lon="7.05567">
        <ele>1605</ele>
        <time>2000-01-01T09:54:35.000Z</time>
      </trkpt>
      <trkpt lat="45.72352" lon="7.05589">
        <ele>1605</ele>
        <time>2000-01-01T09:54:45.000Z</time>
      </trkpt>
      <trkpt lat="45.7237" lon="7.05612">
        <ele>1599</ele>
        <time>2000-01-01T09:54:55.000Z</time>
      </trkpt>
      <trkpt lat="45.72415" lon="7.05612">
        <ele>1594</ele>
        <time>2000-01-01T09:55:05.000Z</time>
      </trkpt>
      <trkpt lat="45.72435" lon="7.05635">
        <ele>1592</ele>
        <time>2000-01-01T09:55:15.000Z</time>
      </trkpt>
      <trkpt lat="45.7246" lon="7.05663">
        <ele>1572</ele>
        <time>2000-01-01T09:55:25.000Z</time>
      </trkpt>
      <trkpt lat="45.72486" lon="7.05678">
        <ele>1572</ele>
        <time>2000-01-01T09:55:35.000Z</time>
      </trkpt>
      <trkpt lat="45.72523" lon="7.057">
        <ele>1553</ele>
        <time>2000-01-01T09:55:45.000Z</time>
      </trkpt>
      <trkpt lat="45.72551" lon="7.05697">
        <ele>1547</ele>
        <time>2000-01-01T09:55:55.000Z</time>
      </trkpt>
      <trkpt lat="45.72593" lon="7.05693">
        <ele>1542</ele>
        <time>2000-01-01T09:56:05.000Z</time>
      </trkpt>
      <trkpt lat="45.72619" lon="7.05733">
        <ele>1541</ele>
        <time>2000-01-01T09:56:15.000Z</time>
      </trkpt>
      <trkpt lat="45.72645" lon="7.05773">
        <ele>1537</ele>
        <time>2000-01-01T09:56:25.000Z</time>
      </trkpt>
      <trkpt lat="45.72671" lon="7.05813">
        <ele>1531</ele>
        <time>2000-01-01T09:56:35.000Z</time>
      </trkpt>
      <trkpt lat="45.72697" lon="7.05853">
        <ele>1525</ele>
        <time>2000-01-01T09:56:45.000Z</time>
      </trkpt>
      <trkpt lat="45.72733" lon="7.05908">
        <ele>1524</ele>
        <time>2000-01-01T09:56:55.000Z</time>
      </trkpt>
      <trkpt lat="45.72757" lon="7.0591">
        <ele>1521</ele>
        <time>2000-01-01T09:57:05.000Z</time>
      </trkpt>
      <trkpt lat="45.72782" lon="7.05912">
        <ele>1517</ele>
        <time>2000-01-01T09:57:15.000Z</time>
      </trkpt>
      <trkpt lat="45.72808" lon="7.05891">
        <ele>1511</ele>
        <time>2000-01-01T09:57:25.000Z</time>
      </trkpt>
      <trkpt lat="45.72851" lon="7.05857">
        <ele>1496</ele>
        <time>2000-01-01T09:57:35.000Z</time>
      </trkpt>
      <trkpt lat="45.7288" lon="7.05852">
        <ele>1493</ele>
        <time>2000-01-01T09:57:45.000Z</time>
      </trkpt>
      <trkpt lat="45.7293" lon="7.05844">
        <ele>1497</ele>
        <time>2000-01-01T09:57:55.000Z</time>
      </trkpt>
      <trkpt lat="45.72969" lon="7.05811">
        <ele>1501</ele>
        <time>2000-01-01T09:58:05.000Z</time>
      </trkpt>
      <trkpt lat="45.72985" lon="7.0577">
        <ele>1518</ele>
        <time>2000-01-01T09:58:15.000Z</time>
      </trkpt>
      <trkpt lat="45.73002" lon="7.05729">
        <ele>1518</ele>
        <time>2000-01-01T09:58:25.000Z</time>
      </trkpt>
      <trkpt lat="45.73023" lon="7.05676">
        <ele>1518</ele>
        <time>2000-01-01T09:58:35.000Z</time>
      </trkpt>
      <trkpt lat="45.73021" lon="7.05638">
        <ele>1532</ele>
        <time>2000-01-01T09:58:45.000Z</time>
      </trkpt>
      <trkpt lat="45.73018" lon="7.05586">
        <ele>1536</ele>
        <time>2000-01-01T09:58:55.000Z</time>
      </trkpt>
      <trkpt lat="45.73037" lon="7.05551">
        <ele>1512</ele>
        <time>2000-01-01T09:59:05.000Z</time>
      </trkpt>
      <trkpt lat="45.73076" lon="7.05481">
        <ele>1506</ele>
        <time>2000-01-01T09:59:15.000Z</time>
      </trkpt>
      <trkpt lat="45.73087" lon="7.05439">
        <ele>1501</ele>
        <time>2000-01-01T09:59:25.000Z</time>
      </trkpt>
      <trkpt lat="45.73108" lon="7.05357">
        <ele>1498</ele>
        <time>2000-01-01T09:59:35.000Z</time>
      </trkpt>
      <trkpt lat="45.73113" lon="7.05298">
        <ele>1497</ele>
        <time>2000-01-01T09:59:45.000Z</time>
      </trkpt>
      <trkpt lat="45.73118" lon="7.05239">
        <ele>1496</ele>
        <time>2000-01-01T09:59:55.000Z</time>
      </trkpt>
      <trkpt lat="45.73123" lon="7.05179">
        <ele>1496</ele>
        <time>2000-01-01T10:00:05.000Z</time>
      </trkpt>
      <trkpt lat="45.73129" lon="7.0512">
        <ele>1493</ele>
        <time>2000-01-01T10:00:15.000Z</time>
      </trkpt>
      <trkpt lat="45.73134" lon="7.05061">
        <ele>1490</ele>
        <time>2000-01-01T10:00:25.000Z</time>
      </trkpt>
      <trkpt lat="45.73139" lon="7.05002">
        <ele>1488</ele>
        <time>2000-01-01T10:00:35.000Z</time>
      </trkpt>
      <trkpt lat="45.73144" lon="7.04943">
        <ele>1488</ele>
        <time>2000-01-01T10:00:45.000Z</time>
      </trkpt>
      <trkpt lat="45.73153" lon="7.04842">
        <ele>1481</ele>
        <time>2000-01-01T10:00:55.000Z</time>
      </trkpt>
      <trkpt lat="45.73166" lon="7.04812">
        <ele>1478</ele>
        <time>2000-01-01T10:01:05.000Z</time>
      </trkpt>
      <trkpt lat="45.73188" lon="7.04773">
        <ele>1475</ele>
        <time>2000-01-01T10:01:15.000Z</time>
      </trkpt>
      <trkpt lat="45.7321" lon="7.04734">
        <ele>1457</ele>
        <time>2000-01-01T10:01:25.000Z</time>
      </trkpt>
      <trkpt lat="45.73252" lon="7.04661">
        <ele>1457</ele>
        <time>2000-01-01T10:01:35.000Z</time>
      </trkpt>
      <trkpt lat="45.73282" lon="7.04636">
        <ele>1455</ele>
        <time>2000-01-01T10:01:45.000Z</time>
      </trkpt>
      <trkpt lat="45.73312" lon="7.04611">
        <ele>1451</ele>
        <time>2000-01-01T10:01:55.000Z</time>
      </trkpt>
      <trkpt lat="45.73366" lon="7.04567">
        <ele>1446</ele>
        <time>2000-01-01T10:02:05.000Z</time>
      </trkpt>
      <trkpt lat="45.73396" lon="7.04569">
        <ele>1446</ele>
        <time>2000-01-01T10:02:15.000Z</time>
      </trkpt>
      <trkpt lat="45.73406" lon="7.04537">
        <ele>1443</ele>
        <time>2000-01-01T10:02:25.000Z</time>
      </trkpt>
      <trkpt lat="45.73426" lon="7.04548">
        <ele>1440</ele>
        <time>2000-01-01T10:02:35.000Z</time>
      </trkpt>
      <trkpt lat="45.7344" lon="7.04528">
        <ele>1440</ele>
        <time>2000-01-01T10:02:45.000Z</time>
      </trkpt>
      <trkpt lat="45.73473" lon="7.04522">
        <ele>1417</ele>
        <time>2000-01-01T10:02:55.000Z</time>
      </trkpt>
      <trkpt lat="45.73497" lon="7.04498">
        <ele>1415</ele>
        <time>2000-01-01T10:03:05.000Z</time>
      </trkpt>
      <trkpt lat="45.73534" lon="7.0446">
        <ele>1423</ele>
        <time>2000-01-01T10:03:15.000Z</time>
      </trkpt>
      <trkpt lat="45.73541" lon="7.04417">
        <ele>1432</ele>
        <time>2000-01-01T10:03:25.000Z</time>
      </trkpt>
      <trkpt lat="45.73564" lon="7.04398">
        <ele>1435</ele>
        <time>2000-01-01T10:03:35.000Z</time>
      </trkpt>
      <trkpt lat="45.73594" lon="7.04374">
        <ele>1440</ele>
        <time>2000-01-01T10:03:45.000Z</time>
      </trkpt>
      <trkpt lat="45.73599" lon="7.04331">
        <ele>1440</ele>
        <time>2000-01-01T10:03:55.000Z</time>
      </trkpt>
      <trkpt lat="45.73607" lon="7.04255">
        <ele>1441</ele>
        <time>2000-01-01T10:04:05.000Z</time>
      </trkpt>
      <trkpt lat="45.73623" lon="7.04214">
        <ele>1443</ele>
        <time>2000-01-01T10:04:15.000Z</time>
      </trkpt>
      <trkpt lat="45.73631" lon="7.04224">
        <ele>1417</ele>
        <time>2000-01-01T10:04:25.000Z</time>
      </trkpt>
      <trkpt lat="45.73641" lon="7.0417">
        <ele>1445</ele>
        <time>2000-01-01T10:04:35.000Z</time>
      </trkpt>
      <trkpt lat="45.73651" lon="7.04176">
        <ele>1418.9</ele>
        <time>2000-01-01T10:04:45.000Z</time>
      </trkpt>
      <trkpt lat="45.73682" lon="7.04145">
        <ele>1444</ele>
        <time>2000-01-01T10:04:55.000Z</time>
      </trkpt>
      <trkpt lat="45.73695" lon="7.04107">
        <ele>1445</ele>
        <time>2000-01-01T10:05:05.000Z</time>
      </trkpt>
      <trkpt lat="45.73718" lon="7.04044">
        <ele>1441</ele>
        <time>2000-01-01T10:05:15.000Z</time>
      </trkpt>
      <trkpt lat="45.73753" lon="7.0401">
        <ele>1443</ele>
        <time>2000-01-01T10:05:25.000Z</time>
      </trkpt>
      <trkpt lat="45.73765" lon="7.03966">
        <ele>1441</ele>
        <time>2000-01-01T10:05:35.000Z</time>
      </trkpt>
      <trkpt lat="45.73777" lon="7.03922">
        <ele>1444</ele>
        <time>2000-01-01T10:05:45.000Z</time>
      </trkpt>
      <trkpt lat="45.73794" lon="7.03861">
        <ele>1442</ele>
        <time>2000-01-01T10:05:55.000Z</time>
      </trkpt>
      <trkpt lat="45.73818" lon="7.03823">
        <ele>1440</ele>
        <time>2000-01-01T10:06:05.000Z</time>
      </trkpt>
      <trkpt lat="45.73847" lon="7.03801">
        <ele>1431</ele>
        <time>2000-01-01T10:06:15.000Z</time>
      </trkpt>
      <trkpt lat="45.73876" lon="7.03779">
        <ele>1426</ele>
        <time>2000-01-01T10:06:25.000Z</time>
      </trkpt>
      <trkpt lat="45.73912" lon="7.03752">
        <ele>1427</ele>
        <time>2000-01-01T10:06:35.000Z</time>
      </trkpt>
      <trkpt lat="45.73912" lon="7.03707">
        <ele>1429</ele>
        <time>2000-01-01T10:06:45.000Z</time>
      </trkpt>
      <trkpt lat="45.73926" lon="7.03679">
        <ele>1435</ele>
        <time>2000-01-01T10:06:55.000Z</time>
      </trkpt>
      <trkpt lat="45.7394" lon="7.0365">
        <ele>1428</ele>
        <time>2000-01-01T10:07:05.000Z</time>
      </trkpt>
      <trkpt lat="45.73971" lon="7.03636">
        <ele>1422</ele>
        <time>2000-01-01T10:07:15.000Z</time>
      </trkpt>
      <trkpt lat="45.73974" lon="7.0368">
        <ele>1416</ele>
        <time>2000-01-01T10:07:25.000Z</time>
      </trkpt>
      <trkpt lat="45.73989" lon="7.0368">
        <ele>1399.9</ele>
        <time>2000-01-01T10:07:35.000Z</time>
      </trkpt>
      <trkpt lat="45.73985" lon="7.03781">
        <ele>1401</ele>
        <time>2000-01-01T10:07:45.000Z</time>
      </trkpt>
      <trkpt lat="45.73999" lon="7.03781">
        <ele>1386</ele>
        <time>2000-01-01T10:07:55.000Z</time>
      </trkpt>
      <trkpt lat="45.74053" lon="7.03696">
        <ele>1387</ele>
        <time>2000-01-01T10:08:05.000Z</time>
      </trkpt>
      <trkpt lat="45.74083" lon="7.03708">
        <ele>1387</ele>
        <time>2000-01-01T10:08:15.000Z</time>
      </trkpt>
      <trkpt lat="45.74141" lon="7.03733">
        <ele>1375</ele>
        <time>2000-01-01T10:08:25.000Z</time>
      </trkpt>
      <trkpt lat="45.74179" lon="7.03696">
        <ele>1376</ele>
        <time>2000-01-01T10:08:35.000Z</time>
      </trkpt>
      <trkpt lat="45.7419" lon="7.03661">
        <ele>1370</ele>
        <time>2000-01-01T10:08:45.000Z</time>
      </trkpt>
      <trkpt lat="45.74217" lon="7.03664">
        <ele>1365</ele>
        <time>2000-01-01T10:08:55.000Z</time>
      </trkpt>
      <trkpt lat="45.74245" lon="7.0365">
        <ele>1353</ele>
        <time>2000-01-01T10:09:05.000Z</time>
      </trkpt>
      <trkpt lat="45.74295" lon="7.03626">
        <ele>1346</ele>
        <time>2000-01-01T10:09:15.000Z</time>
      </trkpt>
      <trkpt lat="45.74321" lon="7.0367">
        <ele>1335</ele>
        <time>2000-01-01T10:09:25.000Z</time>
      </trkpt>
      <trkpt lat="45.74347" lon="7.03654">
        <ele>1325</ele>
        <time>2000-01-01T10:09:35.000Z</time>
      </trkpt>
      <trkpt lat="45.74344" lon="7.03692">
        <ele>1311</ele>
        <time>2000-01-01T10:09:45.000Z</time>
      </trkpt>
      <trkpt lat="45.74341" lon="7.0374">
        <ele>1304</ele>
        <time>2000-01-01T10:09:55.000Z</time>
      </trkpt>
      <trkpt lat="45.74374" lon="7.03706">
        <ele>1303</ele>
        <time>2000-01-01T10:10:05.000Z</time>
      </trkpt>
      <trkpt lat="45.74407" lon="7.03672">
        <ele>1300</ele>
        <time>2000-01-01T10:10:15.000Z</time>
      </trkpt>
      <trkpt lat="45.74441" lon="7.03638">
        <ele>1269</ele>
        <time>2000-01-01T10:10:25.000Z</time>
      </trkpt>
      <trkpt lat="45.74474" lon="7.03604">
        <ele>1264</ele>
        <time>2000-01-01T10:10:35.000Z</time>
      </trkpt>
      <trkpt lat="45.74507" lon="7.0357">
        <ele>1260</ele>
        <time>2000-01-01T10:10:45.000Z</time>
      </trkpt>
      <trkpt lat="45.7454" lon="7.03536">
        <ele>1253</ele>
        <time>2000-01-01T10:10:55.000Z</time>
      </trkpt>
      <trkpt lat="45.74594" lon="7.03481">
        <ele>1252</ele>
        <time>2000-01-01T10:11:05.000Z</time>
      </trkpt>
      <trkpt lat="45.74609" lon="7.03445">
        <ele>1242</ele>
        <time>2000-01-01T10:11:15.000Z</time>
      </trkpt>
      <trkpt lat="45.74635" lon="7.03384">
        <ele>1239</ele>
        <time>2000-01-01T10:11:25.000Z</time>
      </trkpt>
      <trkpt lat="45.74657" lon="7.03364">
        <ele>1237</ele>
        <time>2000-01-01T10:11:35.000Z</time>
      </trkpt>
      <trkpt lat="45.74683" lon="7.03341">
        <ele>1220</ele>
        <time>2000-01-01T10:11:45.000Z</time>
      </trkpt>
      <trkpt lat="45.74701" lon="7.03303">
        <ele>1215</ele>
        <time>2000-01-01T10:11:55.000Z</time>
      </trkpt>
      <trkpt lat="45.747" lon="7.03265">
        <ele>1210</ele>
        <time>2000-01-01T10:12:05.000Z</time>
      </trkpt>
      <trkpt lat="45.74725" lon="7.03233">
        <ele>1205</ele>
        <time>2000-01-01T10:12:15.000Z</time>
      </trkpt>
      <trkpt lat="45.74749" lon="7.03202">
        <ele>1206</ele>
        <time>2000-01-01T10:12:25.000Z</time>
      </trkpt>
      <trkpt lat="45.74783" lon="7.03159">
        <ele>1201</ele>
        <time>2000-01-01T10:12:35.000Z</time>
      </trkpt>
      <trkpt lat="45.74811" lon="7.03155">
        <ele>1196</ele>
        <time>2000-01-01T10:12:45.000Z</time>
      </trkpt>
      <trkpt lat="45.74839" lon="7.03166">
        <ele>1178</ele>
        <time>2000-01-01T10:12:55.000Z</time>
      </trkpt>
      <trkpt lat="45.74884" lon="7.03184">
        <ele>1160</ele>
        <time>2000-01-01T10:13:05.000Z</time>
      </trkpt>
      <trkpt lat="45.7489" lon="7.03237">
        <ele>1154</ele>
        <time>2000-01-01T10:13:15.000Z</time>
      </trkpt>
      <trkpt lat="45.74904" lon="7.03208">
        <ele>1148</ele>
        <time>2000-01-01T10:13:25.000Z</time>
      </trkpt>
      <trkpt lat="45.7492" lon="7.03175">
        <ele>1147</ele>
        <time>2000-01-01T10:13:35.000Z</time>
      </trkpt>
      <trkpt lat="45.74948" lon="7.03185">
        <ele>1130</ele>
        <time>2000-01-01T10:13:45.000Z</time>
      </trkpt>
      <trkpt lat="45.74995" lon="7.03202">
        <ele>1105</ele>
        <time>2000-01-01T10:13:55.000Z</time>
      </trkpt>
      <trkpt lat="45.75002" lon="7.03235">
        <ele>1103</ele>
        <time>2000-01-01T10:14:05.000Z</time>
      </trkpt>
      <trkpt lat="45.75043" lon="7.03234">
        <ele>1093</ele>
        <time>2000-01-01T10:14:15.000Z</time>
      </trkpt>
      <trkpt lat="45.75048" lon="7.03267">
        <ele>1087</ele>
        <time>2000-01-01T10:14:25.000Z</time>
      </trkpt>
      <trkpt lat="45.75053" lon="7.03301">
        <ele>1074</ele>
        <time>2000-01-01T10:14:35.000Z</time>
      </trkpt>
      <trkpt lat="45.75073" lon="7.03269">
        <ele>1061</ele>
        <time>2000-01-01T10:14:45.000Z</time>
      </trkpt>
      <trkpt lat="45.75081" lon="7.03317">
        <ele>1046</ele>
        <time>2000-01-01T10:14:55.000Z</time>
      </trkpt>
      <trkpt lat="45.7509" lon="7.03308">
        <ele>1020.4</ele>
        <time>2000-01-01T10:15:05.000Z</time>
      </trkpt>
      <trkpt lat="45.75071" lon="7.03398">
        <ele>1025</ele>
        <time>2000-01-01T10:15:15.000Z</time>
      </trkpt>
      <trkpt lat="45.75091" lon="7.03422">
        <ele>1016</ele>
        <time>2000-01-01T10:15:25.000Z</time>
      </trkpt>
      <trkpt lat="45.75118" lon="7.03454">
        <ele>999</ele>
        <time>2000-01-01T10:15:35.000Z</time>
      </trkpt>
      <trkpt lat="45.75149" lon="7.03449">
        <ele>984</ele>
        <time>2000-01-01T10:15:45.000Z</time>
      </trkpt>
      <trkpt lat="45.75181" lon="7.03444">
        <ele>974</ele>
        <time>2000-01-01T10:15:55.000Z</time>
      </trkpt>
      <trkpt lat="45.75213" lon="7.03439">
        <ele>967</ele>
        <time>2000-01-01T10:16:05.000Z</time>
      </trkpt>
      <trkpt lat="45.75249" lon="7.03446">
        <ele>957</ele>
        <time>2000-01-01T10:16:15.000Z</time>
      </trkpt>
      <trkpt lat="45.75284" lon="7.03457">
        <ele>949</ele>
        <time>2000-01-01T10:16:25.000Z</time>
      </trkpt>
      <trkpt lat="45.75306" lon="7.03497">
        <ele>942</ele>
        <time>2000-01-01T10:16:35.000Z</time>
      </trkpt>
      <trkpt lat="45.75346" lon="7.03493">
        <ele>938</ele>
        <time>2000-01-01T10:16:45.000Z</time>
      </trkpt>
      <trkpt lat="45.75386" lon="7.03489">
        <ele>925</ele>
        <time>2000-01-01T10:16:55.000Z</time>
      </trkpt>
      <trkpt lat="45.75427" lon="7.03485">
        <ele>925</ele>
        <time>2000-01-01T10:17:05.000Z</time>
      </trkpt>
      <trkpt lat="45.75467" lon="7.03482">
        <ele>926</ele>
        <time>2000-01-01T10:17:15.000Z</time>
      </trkpt>
      <trkpt lat="45.75507" lon="7.03478">
        <ele>926</ele>
        <time>2000-01-01T10:17:25.000Z</time>
      </trkpt>
      <trkpt lat="45.75547" lon="7.03474">
        <ele>919</ele>
        <time>2000-01-01T10:17:35.000Z</time>
      </trkpt>
      <trkpt lat="45.75589" lon="7.0347">
        <ele>918</ele>
        <time>2000-01-01T10:17:45.000Z</time>
      </trkpt>
      <trkpt lat="45.75619" lon="7.03496">
        <ele>918</ele>
        <time>2000-01-01T10:17:55.000Z</time>
      </trkpt>
      <trkpt lat="45.75649" lon="7.03521">
        <ele>918</ele>
        <time>2000-01-01T10:18:05.000Z</time>
      </trkpt>
      <trkpt lat="45.75704" lon="7.03569">
        <ele>918</ele>
        <time>2000-01-01T10:18:15.000Z</time>
      </trkpt>
      <trkpt lat="45.75713" lon="7.03607">
        <ele>920</ele>
        <time>2000-01-01T10:18:25.000Z</time>
      </trkpt>
      <trkpt lat="45.7574" lon="7.03636">
        <ele>917</ele>
        <time>2000-01-01T10:18:35.000Z</time>
      </trkpt>
      <trkpt lat="45.75777" lon="7.03648">
        <ele>914</ele>
        <time>2000-01-01T10:18:45.000Z</time>
      </trkpt>
      <trkpt lat="45.75795" lon="7.03675">
        <ele>914</ele>
        <time>2000-01-01T10:18:55.000Z</time>
      </trkpt>
      <trkpt lat="45.75816" lon="7.03708">
        <ele>920</ele>
        <time>2000-01-01T10:19:05.000Z</time>
      </trkpt>
      <trkpt lat="45.75822" lon="7.03686">
        <ele>925.4</ele>
        <time>2000-01-01T10:19:15.000Z</time>
      </trkpt>
      <trkpt lat="45.75855" lon="7.03718">
        <ele>923</ele>
        <time>2000-01-01T10:19:25.000Z</time>
      </trkpt>
      <trkpt lat="45.75871" lon="7.03746">
        <ele>926</ele>
        <time>2000-01-01T10:19:35.000Z</time>
      </trkpt>
      <trkpt lat="45.75891" lon="7.03781">
        <ele>926</ele>
        <time>2000-01-01T10:19:45.000Z</time>
      </trkpt>
      <trkpt lat="45.75932" lon="7.03787">
        <ele>926</ele>
        <time>2000-01-01T10:19:55.000Z</time>
      </trkpt>
      <trkpt lat="45.75965" lon="7.03781">
        <ele>927</ele>
        <time>2000-01-01T10:20:05.000Z</time>
      </trkpt>
      <trkpt lat="45.75999" lon="7.03776">
        <ele>929</ele>
        <time>2000-01-01T10:20:15.000Z</time>
      </trkpt>
      <trkpt lat="45.76049" lon="7.03767">
        <ele>927</ele>
        <time>2000-01-01T10:20:25.000Z</time>
      </trkpt>
      <trkpt lat="45.76086" lon="7.03771">
        <ele>926</ele>
        <time>2000-01-01T10:20:35.000Z</time>
      </trkpt>
      <trkpt lat="45.76108" lon="7.03789">
        <ele>926</ele>
        <time>2000-01-01T10:20:45.000Z</time>
      </trkpt>
      <trkpt lat="45.76129" lon="7.03753">
        <ele>927</ele>
        <time>2000-01-01T10:20:55.000Z</time>
      </trkpt>
      <trkpt lat="45.7615" lon="7.03717">
        <ele>933</ele>
        <time>2000-01-01T10:21:05.000Z</time>
      </trkpt>
      <trkpt lat="45.76177" lon="7.03671">
        <ele>933</ele>
        <time>2000-01-01T10:21:15.000Z</time>
      </trkpt>
      <trkpt lat="45.76198" lon="7.03673">
        <ele>934</ele>
        <time>2000-01-01T10:21:25.000Z</time>
      </trkpt>
      <trkpt lat="45.76226" lon="7.0365">
        <ele>936</ele>
        <time>2000-01-01T10:21:35.000Z</time>
      </trkpt>
      <trkpt lat="45.76255" lon="7.03626">
        <ele>940</ele>
        <time>2000-01-01T10:21:45.000Z</time>
      </trkpt>
      <trkpt lat="45.76293" lon="7.03595">
        <ele>944</ele>
        <time>2000-01-01T10:21:55.000Z</time>
      </trkpt>
      <trkpt lat="45.76319" lon="7.0356">
        <ele>946</ele>
        <time>2000-01-01T10:22:05.000Z</time>
      </trkpt>
      <trkpt lat="45.76345" lon="7.03525">
        <ele>950</ele>
        <time>2000-01-01T10:22:15.000Z</time>
      </trkpt>
      <trkpt lat="45.76371" lon="7.03491">
        <ele>954</ele>
        <time>2000-01-01T10:22:25.000Z</time>
      </trkpt>
      <trkpt lat="45.76401" lon="7.03451">
        <ele>971</ele>
        <time>2000-01-01T10:22:35.000Z</time>
      </trkpt>
      <trkpt lat="45.76441" lon="7.03429">
        <ele>989</ele>
        <time>2000-01-01T10:22:45.000Z</time>
      </trkpt>
      <trkpt lat="45.76459" lon="7.03394">
        <ele>990</ele>
        <time>2000-01-01T10:22:55.000Z</time>
      </trkpt>
      <trkpt lat="45.7649" lon="7.03333">
        <ele>1006</ele>
        <time>2000-01-01T10:23:05.000Z</time>
      </trkpt>
      <trkpt lat="45.76495" lon="7.03285">
        <ele>1007</ele>
        <time>2000-01-01T10:23:15.000Z</time>
      </trkpt>
      <trkpt lat="45.765" lon="7.03237">
        <ele>1011</ele>
        <time>2000-01-01T10:23:25.000Z</time>
      </trkpt>
      <trkpt lat="45.76507" lon="7.03164">
        <ele>1015</ele>
        <time>2000-01-01T10:23:35.000Z</time>
      </trkpt>
      <trkpt lat="45.7652" lon="7.03131">
        <ele>1020</ele>
        <time>2000-01-01T10:23:45.000Z</time>
      </trkpt>
      <trkpt lat="45.76537" lon="7.03088">
        <ele>1020</ele>
        <time>2000-01-01T10:23:55.000Z</time>
      </trkpt>
      <trkpt lat="45.76541" lon="7.03036">
        <ele>1018</ele>
        <time>2000-01-01T10:24:05.000Z</time>
      </trkpt>
      <trkpt lat="45.76545" lon="7.02985">
        <ele>1016</ele>
        <time>2000-01-01T10:24:15.000Z</time>
      </trkpt>
      <trkpt lat="45.76549" lon="7.02933">
        <ele>1021</ele>
        <time>2000-01-01T10:24:25.000Z</time>
      </trkpt>
      <trkpt lat="45.76554" lon="7.02864">
        <ele>1022</ele>
        <time>2000-01-01T10:24:35.000Z</time>
      </trkpt>
      <trkpt lat="45.76566" lon="7.02819">
        <ele>1023</ele>
        <time>2000-01-01T10:24:45.000Z</time>
      </trkpt>
      <trkpt lat="45.76578" lon="7.02773">
        <ele>1028</ele>
        <time>2000-01-01T10:24:55.000Z</time>
      </trkpt>
      <trkpt lat="45.76597" lon="7.02702">
        <ele>1034</ele>
        <time>2000-01-01T10:25:05.000Z</time>
      </trkpt>
      <trkpt lat="45.76593" lon="7.0265">
        <ele>1034</ele>
        <time>2000-01-01T10:25:15.000Z</time>
      </trkpt>
      <trkpt lat="45.76575" lon="7.02616">
        <ele>1033</ele>
        <time>2000-01-01T10:25:25.000Z</time>
      </trkpt>
      <trkpt lat="45.76585" lon="7.02581">
        <ele>1033</ele>
        <time>2000-01-01T10:25:35.000Z</time>
      </trkpt>
      <trkpt lat="45.76598" lon="7.02538">
        <ele>1033</ele>
        <time>2000-01-01T10:25:45.000Z</time>
      </trkpt>
      <trkpt lat="45.76581" lon="7.02508">
        <ele>1036</ele>
        <time>2000-01-01T10:25:55.000Z</time>
      </trkpt>
      <trkpt lat="45.76557" lon="7.02467">
        <ele>1035</ele>
        <time>2000-01-01T10:26:05.000Z</time>
      </trkpt>
      <trkpt lat="45.76547" lon="7.02433">
        <ele>1034</ele>
        <time>2000-01-01T10:26:15.000Z</time>
      </trkpt>
      <trkpt lat="45.76534" lon="7.02392">
        <ele>1034</ele>
        <time>2000-01-01T10:26:25.000Z</time>
      </trkpt>
      <trkpt lat="45.76536" lon="7.02357">
        <ele>1035</ele>
        <time>2000-01-01T10:26:35.000Z</time>
      </trkpt>
      <trkpt lat="45.76538" lon="7.0232">
        <ele>1034</ele>
        <time>2000-01-01T10:26:45.000Z</time>
      </trkpt>
      <trkpt lat="45.76548" lon="7.02285">
        <ele>1034</ele>
        <time>2000-01-01T10:26:55.000Z</time>
      </trkpt>
      <trkpt lat="45.7656" lon="7.0224">
        <ele>1034</ele>
        <time>2000-01-01T10:27:05.000Z</time>
      </trkpt>
      <trkpt lat="45.76593" lon="7.02202">
        <ele>1039</ele>
        <time>2000-01-01T10:27:15.000Z</time>
      </trkpt>
      <trkpt lat="45.76605" lon="7.02171">
        <ele>1053</ele>
        <time>2000-01-01T10:27:25.000Z</time>
      </trkpt>
      <trkpt lat="45.76618" lon="7.02137">
        <ele>1056</ele>
        <time>2000-01-01T10:27:35.000Z</time>
      </trkpt>
      <trkpt lat="45.7662" lon="7.02091">
        <ele>1056</ele>
        <time>2000-01-01T10:27:45.000Z</time>
      </trkpt>
      <trkpt lat="45.76621" lon="7.02044">
        <ele>1057</ele>
        <time>2000-01-01T10:27:55.000Z</time>
      </trkpt>
      <trkpt lat="45.76623" lon="7.01987">
        <ele>1063</ele>
        <time>2000-01-01T10:28:05.000Z</time>
      </trkpt>
      <trkpt lat="45.76649" lon="7.01935">
        <ele>1077</ele>
        <time>2000-01-01T10:28:15.000Z</time>
      </trkpt>
      <trkpt lat="45.76666" lon="7.01927">
        <ele>1080.5</ele>
        <time>2000-01-01T10:28:25.000Z</time>
      </trkpt>
      <trkpt lat="45.76669" lon="7.01875">
        <ele>1081</ele>
        <time>2000-01-01T10:28:35.000Z</time>
      </trkpt>
      <trkpt lat="45.76697" lon="7.01867">
        <ele>1090</ele>
        <time>2000-01-01T10:28:45.000Z</time>
      </trkpt>
      <trkpt lat="45.76691" lon="7.01818">
        <ele>1097</ele>
        <time>2000-01-01T10:28:55.000Z</time>
      </trkpt>
      <trkpt lat="45.76722" lon="7.01798">
        <ele>1095</ele>
        <time>2000-01-01T10:29:05.000Z</time>
      </trkpt>
      <trkpt lat="45.76703" lon="7.01767">
        <ele>1093</ele>
        <time>2000-01-01T10:29:15.000Z</time>
      </trkpt>
      <trkpt lat="45.76672" lon="7.01717">
        <ele>1093</ele>
        <time>2000-01-01T10:29:25.000Z</time>
      </trkpt>
      <trkpt lat="45.76702" lon="7.01712">
        <ele>1093</ele>
        <time>2000-01-01T10:29:35.000Z</time>
      </trkpt>
      <trkpt lat="45.7676" lon="7.01702">
        <ele>1120</ele>
        <time>2000-01-01T10:29:45.000Z</time>
      </trkpt>
      <trkpt lat="45.76787" lon="7.01723">
        <ele>1134</ele>
        <time>2000-01-01T10:29:55.000Z</time>
      </trkpt>
      <trkpt lat="45.76798" lon="7.01689">
        <ele>1136</ele>
        <time>2000-01-01T10:30:05.000Z</time>
      </trkpt>
      <trkpt lat="45.76836" lon="7.01657">
        <ele>1169</ele>
        <time>2000-01-01T10:30:15.000Z</time>
      </trkpt>
      <trkpt lat="45.76837" lon="7.0171">
        <ele>1174</ele>
        <time>2000-01-01T10:30:25.000Z</time>
      </trkpt>
      <trkpt lat="45.76838" lon="7.01762">
        <ele>1179</ele>
        <time>2000-01-01T10:30:35.000Z</time>
      </trkpt>
      <trkpt lat="45.76839" lon="7.01815">
        <ele>1192</ele>
        <time>2000-01-01T10:30:45.000Z</time>
      </trkpt>
      <trkpt lat="45.76841" lon="7.01899">
        <ele>1196</ele>
        <time>2000-01-01T10:30:55.000Z</time>
      </trkpt>
      <trkpt lat="45.76859" lon="7.0191">
        <ele>1215</ele>
        <time>2000-01-01T10:31:05.000Z</time>
      </trkpt>
      <trkpt lat="45.76858" lon="7.01892">
        <ele>1245.6</ele>
        <time>2000-01-01T10:31:15.000Z</time>
      </trkpt>
      <trkpt lat="45.76876" lon="7.01906">
        <ele>1218</ele>
        <time>2000-01-01T10:31:25.000Z</time>
      </trkpt>
      <trkpt lat="45.76894" lon="7.01848">
        <ele>1252</ele>
        <time>2000-01-01T10:31:35.000Z</time>
      </trkpt>
      <trkpt lat="45.76916" lon="7.01867">
        <ele>1253</ele>
        <time>2000-01-01T10:31:45.000Z</time>
      </trkpt>
      <trkpt lat="45.76942" lon="7.0189">
        <ele>1260</ele>
        <time>2000-01-01T10:31:55.000Z</time>
      </trkpt>
      <trkpt lat="45.76938" lon="7.01842">
        <ele>1268</ele>
        <time>2000-01-01T10:32:05.000Z</time>
      </trkpt>
      <trkpt lat="45.76945" lon="7.0183">
        <ele>1322.1</ele>
        <time>2000-01-01T10:32:15.000Z</time>
      </trkpt>
      <trkpt lat="45.76962" lon="7.01862">
        <ele>1302</ele>
        <time>2000-01-01T10:32:25.000Z</time>
      </trkpt>
      <trkpt lat="45.76969" lon="7.01824">
        <ele>1330</ele>
        <time>2000-01-01T10:32:35.000Z</time>
      </trkpt>
      <trkpt lat="45.76986" lon="7.01849">
        <ele>1330</ele>
        <time>2000-01-01T10:32:45.000Z</time>
      </trkpt>
      <trkpt lat="45.77005" lon="7.01875">
        <ele>1333</ele>
        <time>2000-01-01T10:32:55.000Z</time>
      </trkpt>
      <trkpt lat="45.77036" lon="7.01897">
        <ele>1336</ele>
        <time>2000-01-01T10:33:05.000Z</time>
      </trkpt>
      <trkpt lat="45.77037" lon="7.01872">
        <ele>1385.2</ele>
        <time>2000-01-01T10:33:15.000Z</time>
      </trkpt>
      <trkpt lat="45.77059" lon="7.01898">
        <ele>1364</ele>
        <time>2000-01-01T10:33:25.000Z</time>
      </trkpt>
      <trkpt lat="45.77069" lon="7.01954">
        <ele>1364</ele>
        <time>2000-01-01T10:33:35.000Z</time>
      </trkpt>
      <trkpt lat="45.77086" lon="7.01934">
        <ele>1394</ele>
        <time>2000-01-01T10:33:45.000Z</time>
      </trkpt>
      <trkpt lat="45.7709" lon="7.01961">
        <ele>1403</ele>
        <time>2000-01-01T10:33:55.000Z</time>
      </trkpt>
      <trkpt lat="45.77102" lon="7.01955">
        <ele>1426.9</ele>
        <time>2000-01-01T10:34:05.000Z</time>
      </trkpt>
      <trkpt lat="45.77145" lon="7.02096">
        <ele>1445</ele>
        <time>2000-01-01T10:34:15.000Z</time>
      </trkpt>
      <trkpt lat="45.77182" lon="7.02119">
        <ele>1453</ele>
        <time>2000-01-01T10:34:25.000Z</time>
      </trkpt>
      <trkpt lat="45.77206" lon="7.02116">
        <ele>1470</ele>
        <time>2000-01-01T10:34:35.000Z</time>
      </trkpt>
      <trkpt lat="45.77232" lon="7.02112">
        <ele>1493</ele>
        <time>2000-01-01T10:34:45.000Z</time>
      </trkpt>
      <trkpt lat="45.77246" lon="7.02145">
        <ele>1496</ele>
        <time>2000-01-01T10:34:55.000Z</time>
      </trkpt>
      <trkpt lat="45.77265" lon="7.02188">
        <ele>1493</ele>
        <time>2000-01-01T10:35:05.000Z</time>
      </trkpt>
      <trkpt lat="45.77265" lon="7.02238">
        <ele>1491</ele>
        <time>2000-01-01T10:35:15.000Z</time>
      </trkpt>
      <trkpt lat="45.77265" lon="7.02288">
        <ele>1482</ele>
        <time>2000-01-01T10:35:25.000Z</time>
      </trkpt>
      <trkpt lat="45.77266" lon="7.02384">
        <ele>1474</ele>
        <time>2000-01-01T10:35:35.000Z</time>
      </trkpt>
      <trkpt lat="45.77296" lon="7.02391">
        <ele>1477</ele>
        <time>2000-01-01T10:35:45.000Z</time>
      </trkpt>
      <trkpt lat="45.77354" lon="7.02403">
        <ele>1481</ele>
        <time>2000-01-01T10:35:55.000Z</time>
      </trkpt>
      <trkpt lat="45.77327" lon="7.02453">
        <ele>1485</ele>
        <time>2000-01-01T10:36:05.000Z</time>
      </trkpt>
      <trkpt lat="45.7734" lon="7.02474">
        <ele>1518</ele>
        <time>2000-01-01T10:36:15.000Z</time>
      </trkpt>
      <trkpt lat="45.77332" lon="7.02495">
        <ele>1538</ele>
        <time>2000-01-01T10:36:25.000Z</time>
      </trkpt>
      <trkpt lat="45.77351" lon="7.02514">
        <ele>1541</ele>
        <time>2000-01-01T10:36:35.000Z</time>
      </trkpt>
      <trkpt lat="45.77331" lon="7.02558">
        <ele>1565</ele>
        <time>2000-01-01T10:36:45.000Z</time>
      </trkpt>
      <trkpt lat="45.77341" lon="7.02591">
        <ele>1570</ele>
        <time>2000-01-01T10:36:55.000Z</time>
      </trkpt>
      <trkpt lat="45.77367" lon="7.02602">
        <ele>1583</ele>
        <time>2000-01-01T10:37:05.000Z</time>
      </trkpt>
      <trkpt lat="45.77403" lon="7.02617">
        <ele>1604</ele>
        <time>2000-01-01T10:37:15.000Z</time>
      </trkpt>
      <trkpt lat="45.77417" lon="7.02656">
        <ele>1616</ele>
        <time>2000-01-01T10:37:25.000Z</time>
      </trkpt>
      <trkpt lat="45.77446" lon="7.02734">
        <ele>1660</ele>
        <time>2000-01-01T10:37:35.000Z</time>
      </trkpt>
      <trkpt lat="45.77466" lon="7.02756">
        <ele>1676</ele>
        <time>2000-01-01T10:37:45.000Z</time>
      </trkpt>
      <trkpt lat="45.77489" lon="7.02781">
        <ele>1678</ele>
        <time>2000-01-01T10:37:55.000Z</time>
      </trkpt>
      <trkpt lat="45.77495" lon="7.02747">
        <ele>1669</ele>
        <time>2000-01-01T10:38:05.000Z</time>
      </trkpt>
      <trkpt lat="45.77502" lon="7.02766">
        <ele>1660.3</ele>
        <time>2000-01-01T10:38:15.000Z</time>
      </trkpt>
      <trkpt lat="45.77514" lon="7.02622">
        <ele>1676</ele>
        <time>2000-01-01T10:38:25.000Z</time>
      </trkpt>
      <trkpt lat="45.7753" lon="7.02592">
        <ele>1672</ele>
        <time>2000-01-01T10:38:35.000Z</time>
      </trkpt>
      <trkpt lat="45.77549" lon="7.02555">
        <ele>1690</ele>
        <time>2000-01-01T10:38:45.000Z</time>
      </trkpt>
      <trkpt lat="45.7755" lon="7.02589">
        <ele>1709</ele>
        <time>2000-01-01T10:38:55.000Z</time>
      </trkpt>
      <trkpt lat="45.77552" lon="7.02623">
        <ele>1711</ele>
        <time>2000-01-01T10:39:05.000Z</time>
      </trkpt>
      <trkpt lat="45.77566" lon="7.02661">
        <ele>1716</ele>
        <time>2000-01-01T10:39:15.000Z</time>
      </trkpt>
      <trkpt lat="45.7759" lon="7.02728">
        <ele>1735</ele>
        <time>2000-01-01T10:39:25.000Z</time>
      </trkpt>
      <trkpt lat="45.77608" lon="7.02701">
        <ele>1747</ele>
        <time>2000-01-01T10:39:35.000Z</time>
      </trkpt>
      <trkpt lat="45.7761" lon="7.02637">
        <ele>1747</ele>
        <time>2000-01-01T10:39:45.000Z</time>
      </trkpt>
      <trkpt lat="45.77635" lon="7.02586">
        <ele>1767</ele>
        <time>2000-01-01T10:39:55.000Z</time>
      </trkpt>
      <trkpt lat="45.77641" lon="7.0263">
        <ele>1774</ele>
        <time>2000-01-01T10:40:05.000Z</time>
      </trkpt>
      <trkpt lat="45.77647" lon="7.02675">
        <ele>1777</ele>
        <time>2000-01-01T10:40:15.000Z</time>
      </trkpt>
      <trkpt lat="45.77653" lon="7.02721">
        <ele>1785</ele>
        <time>2000-01-01T10:40:25.000Z</time>
      </trkpt>
      <trkpt lat="45.77666" lon="7.02708">
        <ele>1789</ele>
        <time>2000-01-01T10:40:35.000Z</time>
      </trkpt>
      <trkpt lat="45.77681" lon="7.02621">
        <ele>1792</ele>
        <time>2000-01-01T10:40:45.000Z</time>
      </trkpt>
      <trkpt lat="45.77699" lon="7.02598">
        <ele>1815</ele>
        <time>2000-01-01T10:40:55.000Z</time>
      </trkpt>
      <trkpt lat="45.77719" lon="7.02574">
        <ele>1825</ele>
        <time>2000-01-01T10:41:05.000Z</time>
      </trkpt>
      <trkpt lat="45.77713" lon="7.02607">
        <ele>1823</ele>
        <time>2000-01-01T10:41:15.000Z</time>
      </trkpt>
      <trkpt lat="45.77706" lon="7.02643">
        <ele>1829</ele>
        <time>2000-01-01T10:41:25.000Z</time>
      </trkpt>
      <trkpt lat="45.77715" lon="7.0268">
        <ele>1831</ele>
        <time>2000-01-01T10:41:35.000Z</time>
      </trkpt>
      <trkpt lat="45.77726" lon="7.02729">
        <ele>1834</ele>
        <time>2000-01-01T10:41:45.000Z</time>
      </trkpt>
      <trkpt lat="45.7774" lon="7.02693">
        <ele>1842</ele>
        <time>2000-01-01T10:41:55.000Z</time>
      </trkpt>
      <trkpt lat="45.77763" lon="7.02635">
        <ele>1850</ele>
        <time>2000-01-01T10:42:05.000Z</time>
      </trkpt>
      <trkpt lat="45.77781" lon="7.0262">
        <ele>1851</ele>
        <time>2000-01-01T10:42:15.000Z</time>
      </trkpt>
      <trkpt lat="45.77766" lon="7.02676">
        <ele>1853</ele>
        <time>2000-01-01T10:42:25.000Z</time>
      </trkpt>
      <trkpt lat="45.77783" lon="7.02731">
        <ele>1875</ele>
        <time>2000-01-01T10:42:35.000Z</time>
      </trkpt>
      <trkpt lat="45.778" lon="7.02704">
        <ele>1875</ele>
        <time>2000-01-01T10:42:45.000Z</time>
      </trkpt>
      <trkpt lat="45.7782" lon="7.02672">
        <ele>1884</ele>
        <time>2000-01-01T10:42:55.000Z</time>
      </trkpt>
      <trkpt lat="45.7781" lon="7.02722">
        <ele>1894</ele>
        <time>2000-01-01T10:43:05.000Z</time>
      </trkpt>
      <trkpt lat="45.77824" lon="7.02766">
        <ele>1912</ele>
        <time>2000-01-01T10:43:15.000Z</time>
      </trkpt>
      <trkpt lat="45.77838" lon="7.02811">
        <ele>1912</ele>
        <time>2000-01-01T10:43:25.000Z</time>
      </trkpt>
      <trkpt lat="45.7786" lon="7.02881">
        <ele>1919</ele>
        <time>2000-01-01T10:43:35.000Z</time>
      </trkpt>
      <trkpt lat="45.7786" lon="7.02922">
        <ele>1926</ele>
        <time>2000-01-01T10:43:45.000Z</time>
      </trkpt>
      <trkpt lat="45.77861" lon="7.02988">
        <ele>1947</ele>
        <time>2000-01-01T10:43:55.000Z</time>
      </trkpt>
      <trkpt lat="45.77892" lon="7.02993">
        <ele>1978</ele>
        <time>2000-01-01T10:44:05.000Z</time>
      </trkpt>
      <trkpt lat="45.7789" lon="7.03008">
        <ele>1935.9</ele>
        <time>2000-01-01T10:44:15.000Z</time>
      </trkpt>
      <trkpt lat="45.77902" lon="7.03001">
        <ele>1978</ele>
        <time>2000-01-01T10:44:25.000Z</time>
      </trkpt>
      <trkpt lat="45.7791" lon="7.03024">
        <ele>1952.1</ele>
        <time>2000-01-01T10:44:35.000Z</time>
      </trkpt>
      <trkpt lat="45.77923" lon="7.03018">
        <ele>1989</ele>
        <time>2000-01-01T10:44:45.000Z</time>
      </trkpt>
      <trkpt lat="45.77921" lon="7.03035">
        <ele>1962.3</ele>
        <time>2000-01-01T10:44:55.000Z</time>
      </trkpt>
      <trkpt lat="45.77933" lon="7.03027">
        <ele>2003</ele>
        <time>2000-01-01T10:45:05.000Z</time>
      </trkpt>
      <trkpt lat="45.77934" lon="7.03055">
        <ele>2019</ele>
        <time>2000-01-01T10:45:15.000Z</time>
      </trkpt>
      <trkpt lat="45.77953" lon="7.03049">
        <ele>2019</ele>
        <time>2000-01-01T10:45:25.000Z</time>
      </trkpt>
      <trkpt lat="45.77954" lon="7.03059">
        <ele>1986.6</ele>
        <time>2000-01-01T10:45:35.000Z</time>
      </trkpt>
      <trkpt lat="45.77879" lon="7.03116">
        <ele>2019</ele>
        <time>2000-01-01T10:45:45.000Z</time>
      </trkpt>
      <trkpt lat="45.77882" lon="7.03163">
        <ele>2029</ele>
        <time>2000-01-01T10:45:55.000Z</time>
      </trkpt>
      <trkpt lat="45.7786" lon="7.03199">
        <ele>2032</ele>
        <time>2000-01-01T10:46:05.000Z</time>
      </trkpt>
      <trkpt lat="45.77837" lon="7.03234">
        <ele>2030</ele>
        <time>2000-01-01T10:46:15.000Z</time>
      </trkpt>
      <trkpt lat="45.77805" lon="7.03286">
        <ele>2033</ele>
        <time>2000-01-01T10:46:25.000Z</time>
      </trkpt>
      <trkpt lat="45.7779" lon="7.0333">
        <ele>2037</ele>
        <time>2000-01-01T10:46:35.000Z</time>
      </trkpt>
      <trkpt lat="45.77775" lon="7.03373">
        <ele>2049</ele>
        <time>2000-01-01T10:46:45.000Z</time>
      </trkpt>
      <trkpt lat="45.77751" lon="7.03443">
        <ele>2054</ele>
        <time>2000-01-01T10:46:55.000Z</time>
      </trkpt>
      <trkpt lat="45.77748" lon="7.03485">
        <ele>2053</ele>
        <time>2000-01-01T10:47:05.000Z</time>
      </trkpt>
      <trkpt lat="45.77743" lon="7.03559">
        <ele>2053</ele>
        <time>2000-01-01T10:47:15.000Z</time>
      </trkpt>
      <trkpt lat="45.77758" lon="7.03596">
        <ele>2057</ele>
        <time>2000-01-01T10:47:25.000Z</time>
      </trkpt>
      <trkpt lat="45.77783" lon="7.03659">
        <ele>2059</ele>
        <time>2000-01-01T10:47:35.000Z</time>
      </trkpt>
      <trkpt lat="45.7778" lon="7.03707">
        <ele>2061</ele>
        <time>2000-01-01T10:47:45.000Z</time>
      </trkpt>
      <trkpt lat="45.77776" lon="7.03754">
        <ele>2073</ele>
        <time>2000-01-01T10:47:55.000Z</time>
      </trkpt>
      <trkpt lat="45.77771" lon="7.03825">
        <ele>2087</ele>
        <time>2000-01-01T10:48:05.000Z</time>
      </trkpt>
      <trkpt lat="45.77778" lon="7.03863">
        <ele>2092</ele>
        <time>2000-01-01T10:48:15.000Z</time>
      </trkpt>
      <trkpt lat="45.77788" lon="7.03919">
        <ele>2103</ele>
        <time>2000-01-01T10:48:25.000Z</time>
      </trkpt>
      <trkpt lat="45.77775" lon="7.03954">
        <ele>2099</ele>
        <time>2000-01-01T10:48:35.000Z</time>
      </trkpt>
      <trkpt lat="45.77757" lon="7.04003">
        <ele>2095</ele>
        <time>2000-01-01T10:48:45.000Z</time>
      </trkpt>
      <trkpt lat="45.77758" lon="7.0404">
        <ele>2086</ele>
        <time>2000-01-01T10:48:55.000Z</time>
      </trkpt>
      <trkpt lat="45.77759" lon="7.04083">
        <ele>2071</ele>
        <time>2000-01-01T10:49:05.000Z</time>
      </trkpt>
      <trkpt lat="45.7773" lon="7.04066">
        <ele>2061</ele>
        <time>2000-01-01T10:49:15.000Z</time>
      </trkpt>
      <trkpt lat="45.77675" lon="7.04034">
        <ele>2049</ele>
        <time>2000-01-01T10:49:25.000Z</time>
      </trkpt>
      <trkpt lat="45.77676" lon="7.04049">
        <ele>2053.5</ele>
        <time>2000-01-01T10:49:35.000Z</time>
      </trkpt>
      <trkpt lat="45.77627" lon="7.04046">
        <ele>2028</ele>
        <time>2000-01-01T10:49:45.000Z</time>
      </trkpt>
      <trkpt lat="45.77601" lon="7.04089">
        <ele>2025</ele>
        <time>2000-01-01T10:49:55.000Z</time>
      </trkpt>
      <trkpt lat="45.77629" lon="7.04099">
        <ele>2025</ele>
        <time>2000-01-01T10:50:05.000Z</time>
      </trkpt>
      <trkpt lat="45.77648" lon="7.04123">
        <ele>2023</ele>
        <time>2000-01-01T10:50:15.000Z</time>
      </trkpt>
      <trkpt lat="45.77669" lon="7.0415">
        <ele>2018</ele>
        <time>2000-01-01T10:50:25.000Z</time>
      </trkpt>
      <trkpt lat="45.77685" lon="7.04206">
        <ele>2001</ele>
        <time>2000-01-01T10:50:35.000Z</time>
      </trkpt>
      <trkpt lat="45.77665" lon="7.04229">
        <ele>1991</ele>
        <time>2000-01-01T10:50:45.000Z</time>
      </trkpt>
      <trkpt lat="45.7769" lon="7.04274">
        <ele>1985</ele>
        <time>2000-01-01T10:50:55.000Z</time>
      </trkpt>
      <trkpt lat="45.77694" lon="7.04324">
        <ele>1971</ele>
        <time>2000-01-01T10:51:05.000Z</time>
      </trkpt>
      <trkpt lat="45.77698" lon="7.04373">
        <ele>1958</ele>
        <time>2000-01-01T10:51:15.000Z</time>
      </trkpt>
      <trkpt lat="45.77705" lon="7.04466">
        <ele>1945</ele>
        <time>2000-01-01T10:51:25.000Z</time>
      </trkpt>
      <trkpt lat="45.77717" lon="7.0451">
        <ele>1933</ele>
        <time>2000-01-01T10:51:35.000Z</time>
      </trkpt>
      <trkpt lat="45.77729" lon="7.04553">
        <ele>1924</ele>
        <time>2000-01-01T10:51:45.000Z</time>
      </trkpt>
      <trkpt lat="45.77744" lon="7.04609">
        <ele>1914</ele>
        <time>2000-01-01T10:51:55.000Z</time>
      </trkpt>
      <trkpt lat="45.77762" lon="7.04645">
        <ele>1897</ele>
        <time>2000-01-01T10:52:05.000Z</time>
      </trkpt>
      <trkpt lat="45.77798" lon="7.04713">
        <ele>1897</ele>
        <time>2000-01-01T10:52:15.000Z</time>
      </trkpt>
      <trkpt lat="45.77827" lon="7.04709">
        <ele>1897</ele>
        <time>2000-01-01T10:52:25.000Z</time>
      </trkpt>
      <trkpt lat="45.77872" lon="7.04702">
        <ele>1888</ele>
        <time>2000-01-01T10:52:35.000Z</time>
      </trkpt>
      <trkpt lat="45.77917" lon="7.04715">
        <ele>1890</ele>
        <time>2000-01-01T10:52:45.000Z</time>
      </trkpt>
      <trkpt lat="45.77951" lon="7.04686">
        <ele>1892</ele>
        <time>2000-01-01T10:52:55.000Z</time>
      </trkpt>
      <trkpt lat="45.77984" lon="7.04657">
        <ele>1892</ele>
        <time>2000-01-01T10:53:05.000Z</time>
      </trkpt>
      <trkpt lat="45.78018" lon="7.04628">
        <ele>1887</ele>
        <time>2000-01-01T10:53:15.000Z</time>
      </trkpt>
      <trkpt lat="45.78051" lon="7.04599">
        <ele>1883</ele>
        <time>2000-01-01T10:53:25.000Z</time>
      </trkpt>
      <trkpt lat="45.78085" lon="7.0457">
        <ele>1880</ele>
        <time>2000-01-01T10:53:35.000Z</time>
      </trkpt>
      <trkpt lat="45.78119" lon="7.0454">
        <ele>1877</ele>
        <time>2000-01-01T10:53:45.000Z</time>
      </trkpt>
      <trkpt lat="45.7814" lon="7.04505">
        <ele>1870</ele>
        <time>2000-01-01T10:53:55.000Z</time>
      </trkpt>
      <trkpt lat="45.78161" lon="7.04469">
        <ele>1872</ele>
        <time>2000-01-01T10:54:05.000Z</time>
      </trkpt>
      <trkpt lat="45.78187" lon="7.04426">
        <ele>1872</ele>
        <time>2000-01-01T10:54:15.000Z</time>
      </trkpt>
      <trkpt lat="45.78209" lon="7.04403">
        <ele>1873</ele>
        <time>2000-01-01T10:54:25.000Z</time>
      </trkpt>
      <trkpt lat="45.7824" lon="7.04372">
        <ele>1873</ele>
        <time>2000-01-01T10:54:35.000Z</time>
      </trkpt>
      <trkpt lat="45.78271" lon="7.04364">
        <ele>1859</ele>
        <time>2000-01-01T10:54:45.000Z</time>
      </trkpt>
      <trkpt lat="45.78303" lon="7.04355">
        <ele>1859</ele>
        <time>2000-01-01T10:54:55.000Z</time>
      </trkpt>
      <trkpt lat="45.78339" lon="7.04346">
        <ele>1859</ele>
        <time>2000-01-01T10:55:05.000Z</time>
      </trkpt>
      <trkpt lat="45.78363" lon="7.04327">
        <ele>1861</ele>
        <time>2000-01-01T10:55:15.000Z</time>
      </trkpt>
      <trkpt lat="45.78399" lon="7.04299">
        <ele>1873</ele>
        <time>2000-01-01T10:55:25.000Z</time>
      </trkpt>
      <trkpt lat="45.78426" lon="7.04301">
        <ele>1878</ele>
        <time>2000-01-01T10:55:35.000Z</time>
      </trkpt>
      <trkpt lat="45.78465" lon="7.04304">
        <ele>1874</ele>
        <time>2000-01-01T10:55:45.000Z</time>
      </trkpt>
      <trkpt lat="45.78471" lon="7.04315">
        <ele>1893.1</ele>
        <time>2000-01-01T10:55:55.000Z</time>
      </trkpt>
      <trkpt lat="45.78483" lon="7.04356">
        <ele>1871</ele>
        <time>2000-01-01T10:56:05.000Z</time>
      </trkpt>
      <trkpt lat="45.78478" lon="7.04391">
        <ele>1871</ele>
        <time>2000-01-01T10:56:15.000Z</time>
      </trkpt>
      <trkpt lat="45.78473" lon="7.0443">
        <ele>1872</ele>
        <time>2000-01-01T10:56:25.000Z</time>
      </trkpt>
      <trkpt lat="45.78453" lon="7.04478">
        <ele>1874</ele>
        <time>2000-01-01T10:56:35.000Z</time>
      </trkpt>
      <trkpt lat="45.78434" lon="7.04525">
        <ele>1875</ele>
        <time>2000-01-01T10:56:45.000Z</time>
      </trkpt>
      <trkpt lat="45.78414" lon="7.04573">
        <ele>1874</ele>
        <time>2000-01-01T10:56:55.000Z</time>
      </trkpt>
      <trkpt lat="45.78395" lon="7.04621">
        <ele>1874</ele>
        <time>2000-01-01T10:57:05.000Z</time>
      </trkpt>
      <trkpt lat="45.78364" lon="7.04697">
        <ele>1871</ele>
        <time>2000-01-01T10:57:15.000Z</time>
      </trkpt>
      <trkpt lat="45.78338" lon="7.04734">
        <ele>1868</ele>
        <time>2000-01-01T10:57:25.000Z</time>
      </trkpt>
      <trkpt lat="45.78312" lon="7.04772">
        <ele>1864</ele>
        <time>2000-01-01T10:57:35.000Z</time>
      </trkpt>
      <trkpt lat="45.78286" lon="7.04809">
        <ele>1863</ele>
        <time>2000-01-01T10:57:45.000Z</time>
      </trkpt>
      <trkpt lat="45.78246" lon="7.04867">
        <ele>1863</ele>
        <time>2000-01-01T10:57:55.000Z</time>
      </trkpt>
      <trkpt lat="45.7823" lon="7.04915">
        <ele>1863</ele>
        <time>2000-01-01T10:58:05.000Z</time>
      </trkpt>
      <trkpt lat="45.78213" lon="7.04964">
        <ele>1862</ele>
        <time>2000-01-01T10:58:15.000Z</time>
      </trkpt>
      <trkpt lat="45.78197" lon="7.05012">
        <ele>1861</ele>
        <time>2000-01-01T10:58:25.000Z</time>
      </trkpt>
      <trkpt lat="45.78165" lon="7.05108">
        <ele>1827</ele>
        <time>2000-01-01T10:58:35.000Z</time>
      </trkpt>
      <trkpt lat="45.78188" lon="7.05139">
        <ele>1846</ele>
        <time>2000-01-01T10:58:45.000Z</time>
      </trkpt>
      <trkpt lat="45.7821" lon="7.05171">
        <ele>1855</ele>
        <time>2000-01-01T10:58:55.000Z</time>
      </trkpt>
      <trkpt lat="45.78234" lon="7.05204">
        <ele>1856</ele>
        <time>2000-01-01T10:59:05.000Z</time>
      </trkpt>
      <trkpt lat="45.78223" lon="7.05234">
        <ele>1853</ele>
        <time>2000-01-01T10:59:15.000Z</time>
      </trkpt>
      <trkpt lat="45.78211" lon="7.05265">
        <ele>1853</ele>
        <time>2000-01-01T10:59:25.000Z</time>
      </trkpt>
      <trkpt lat="45.78228" lon="7.05301">
        <ele>1853</ele>
        <time>2000-01-01T10:59:35.000Z</time>
      </trkpt>
      <trkpt lat="45.78229" lon="7.05337">
        <ele>1853</ele>
        <time>2000-01-01T10:59:45.000Z</time>
      </trkpt>
      <trkpt lat="45.78231" lon="7.05379">
        <ele>1853</ele>
        <time>2000-01-01T10:59:55.000Z</time>
      </trkpt>
      <trkpt lat="45.78222" lon="7.05416">
        <ele>1850</ele>
        <time>2000-01-01T11:00:05.000Z</time>
      </trkpt>
      <trkpt lat="45.7821" lon="7.05466">
        <ele>1848</ele>
        <time>2000-01-01T11:00:15.000Z</time>
      </trkpt>
      <trkpt lat="45.78231" lon="7.05509">
        <ele>1847</ele>
        <time>2000-01-01T11:00:25.000Z</time>
      </trkpt>
      <trkpt lat="45.78237" lon="7.05548">
        <ele>1852</ele>
        <time>2000-01-01T11:00:35.000Z</time>
      </trkpt>
      <trkpt lat="45.78246" lon="7.05607">
        <ele>1858</ele>
        <time>2000-01-01T11:00:45.000Z</time>
      </trkpt>
      <trkpt lat="45.78269" lon="7.0563">
        <ele>1858</ele>
        <time>2000-01-01T11:00:55.000Z</time>
      </trkpt>
      <trkpt lat="45.78301" lon="7.05662">
        <ele>1857</ele>
        <time>2000-01-01T11:01:05.000Z</time>
      </trkpt>
      <trkpt lat="45.78328" lon="7.05662">
        <ele>1857</ele>
        <time>2000-01-01T11:01:15.000Z</time>
      </trkpt>
      <trkpt lat="45.78367" lon="7.05661">
        <ele>1860</ele>
        <time>2000-01-01T11:01:25.000Z</time>
      </trkpt>
      <trkpt lat="45.78401" lon="7.05672">
        <ele>1867</ele>
        <time>2000-01-01T11:01:35.000Z</time>
      </trkpt>
      <trkpt lat="45.78435" lon="7.05683">
        <ele>1869</ele>
        <time>2000-01-01T11:01:45.000Z</time>
      </trkpt>
      <trkpt lat="45.785" lon="7.05704">
        <ele>1868</ele>
        <time>2000-01-01T11:01:55.000Z</time>
      </trkpt>
      <trkpt lat="45.78516" lon="7.0573">
        <ele>1868</ele>
        <time>2000-01-01T11:02:05.000Z</time>
      </trkpt>
      <trkpt lat="45.78532" lon="7.05758">
        <ele>1863</ele>
        <time>2000-01-01T11:02:15.000Z</time>
      </trkpt>
      <trkpt lat="45.78534" lon="7.05825">
        <ele>1858</ele>
        <time>2000-01-01T11:02:25.000Z</time>
      </trkpt>
      <trkpt lat="45.78563" lon="7.05876">
        <ele>1857</ele>
        <time>2000-01-01T11:02:35.000Z</time>
      </trkpt>
      <trkpt lat="45.78592" lon="7.05895">
        <ele>1855</ele>
        <time>2000-01-01T11:02:45.000Z</time>
      </trkpt>
      <trkpt lat="45.78622" lon="7.05914">
        <ele>1839</ele>
        <time>2000-01-01T11:02:55.000Z</time>
      </trkpt>
      <trkpt lat="45.78657" lon="7.05937">
        <ele>1837</ele>
        <time>2000-01-01T11:03:05.000Z</time>
      </trkpt>
      <trkpt lat="45.78684" lon="7.05944">
        <ele>1837</ele>
        <time>2000-01-01T11:03:15.000Z</time>
      </trkpt>
      <trkpt lat="45.78722" lon="7.05953">
        <ele>1853</ele>
        <time>2000-01-01T11:03:25.000Z</time>
      </trkpt>
      <trkpt lat="45.7871" lon="7.05975">
        <ele>1847</ele>
        <time>2000-01-01T11:03:35.000Z</time>
      </trkpt>
      <trkpt lat="45.78677" lon="7.05984">
        <ele>1841</ele>
        <time>2000-01-01T11:03:45.000Z</time>
      </trkpt>
      <trkpt lat="45.78645" lon="7.05992">
        <ele>1839</ele>
        <time>2000-01-01T11:03:55.000Z</time>
      </trkpt>
      <trkpt lat="45.786" lon="7.06004">
        <ele>1829</ele>
        <time>2000-01-01T11:04:05.000Z</time>
      </trkpt>
      <trkpt lat="45.78574" lon="7.06017">
        <ele>1825</ele>
        <time>2000-01-01T11:04:15.000Z</time>
      </trkpt>
      <trkpt lat="45.78539" lon="7.06036">
        <ele>1827</ele>
        <time>2000-01-01T11:04:25.000Z</time>
      </trkpt>
      <trkpt lat="45.78568" lon="7.06033">
        <ele>1829</ele>
        <time>2000-01-01T11:04:35.000Z</time>
      </trkpt>
      <trkpt lat="45.78616" lon="7.06028">
        <ele>1840</ele>
        <time>2000-01-01T11:04:45.000Z</time>
      </trkpt>
      <trkpt lat="45.78586" lon="7.06064">
        <ele>1848</ele>
        <time>2000-01-01T11:04:55.000Z</time>
      </trkpt>
      <trkpt lat="45.78617" lon="7.06059">
        <ele>1848</ele>
        <time>2000-01-01T11:05:05.000Z</time>
      </trkpt>
      <trkpt lat="45.78677" lon="7.0605">
        <ele>1858</ele>
        <time>2000-01-01T11:05:15.000Z</time>
      </trkpt>
      <trkpt lat="45.78707" lon="7.06052">
        <ele>1869</ele>
        <time>2000-01-01T11:05:25.000Z</time>
      </trkpt>
      <trkpt lat="45.78758" lon="7.06055">
        <ele>1890</ele>
        <time>2000-01-01T11:05:35.000Z</time>
      </trkpt>
      <trkpt lat="45.78781" lon="7.06042">
        <ele>1911</ele>
        <time>2000-01-01T11:05:45.000Z</time>
      </trkpt>
      <trkpt lat="45.78806" lon="7.06027">
        <ele>1929</ele>
        <time>2000-01-01T11:05:55.000Z</time>
      </trkpt>
      <trkpt lat="45.78837" lon="7.06026">
        <ele>1944</ele>
        <time>2000-01-01T11:06:05.000Z</time>
      </trkpt>
      <trkpt lat="45.78896" lon="7.06024">
        <ele>1972</ele>
        <time>2000-01-01T11:06:15.000Z</time>
      </trkpt>
      <trkpt lat="45.78933" lon="7.06002">
        <ele>1972</ele>
        <time>2000-01-01T11:06:25.000Z</time>
      </trkpt>
      <trkpt lat="45.78951" lon="7.05977">
        <ele>1974</ele>
        <time>2000-01-01T11:06:35.000Z</time>
      </trkpt>
      <trkpt lat="45.78972" lon="7.05947">
        <ele>1980</ele>
        <time>2000-01-01T11:06:45.000Z</time>
      </trkpt>
      <trkpt lat="45.78992" lon="7.05945">
        <ele>1980</ele>
        <time>2000-01-01T11:06:55.000Z</time>
      </trkpt>
      <trkpt lat="45.79007" lon="7.05897">
        <ele>1981</ele>
        <time>2000-01-01T11:07:05.000Z</time>
      </trkpt>
      <trkpt lat="45.79014" lon="7.05942">
        <ele>2000</ele>
        <time>2000-01-01T11:07:15.000Z</time>
      </trkpt>
      <trkpt lat="45.79046" lon="7.0597">
        <ele>2022</ele>
        <time>2000-01-01T11:07:25.000Z</time>
      </trkpt>
      <trkpt lat="45.79064" lon="7.05945">
        <ele>2030</ele>
        <time>2000-01-01T11:07:35.000Z</time>
      </trkpt>
      <trkpt lat="45.79074" lon="7.0596">
        <ele>2027.6</ele>
        <time>2000-01-01T11:07:45.000Z</time>
      </trkpt>
      <trkpt lat="45.79138" lon="7.05962">
        <ele>2030</ele>
        <time>2000-01-01T11:07:55.000Z</time>
      </trkpt>
      <trkpt lat="45.79171" lon="7.05948">
        <ele>2029</ele>
        <time>2000-01-01T11:08:05.000Z</time>
      </trkpt>
      <trkpt lat="45.79205" lon="7.05934">
        <ele>2029</ele>
        <time>2000-01-01T11:08:15.000Z</time>
      </trkpt>
      <trkpt lat="45.79268" lon="7.05907">
        <ele>2051</ele>
        <time>2000-01-01T11:08:25.000Z</time>
      </trkpt>
      <trkpt lat="45.79301" lon="7.05927">
        <ele>2075</ele>
        <time>2000-01-01T11:08:35.000Z</time>
      </trkpt>
      <trkpt lat="45.79331" lon="7.05916">
        <ele>2088</ele>
        <time>2000-01-01T11:08:45.000Z</time>
      </trkpt>
      <trkpt lat="45.79387" lon="7.05894">
        <ele>2105</ele>
        <time>2000-01-01T11:08:55.000Z</time>
      </trkpt>
      <trkpt lat="45.79395" lon="7.05858">
        <ele>2107</ele>
        <time>2000-01-01T11:09:05.000Z</time>
      </trkpt>
      <trkpt lat="45.79419" lon="7.05847">
        <ele>2113</ele>
        <time>2000-01-01T11:09:15.000Z</time>
      </trkpt>
      <trkpt lat="45.79448" lon="7.05833">
        <ele>2121</ele>
        <time>2000-01-01T11:09:25.000Z</time>
      </trkpt>
      <trkpt lat="45.79458" lon="7.05815">
        <ele>2134.9</ele>
        <time>2000-01-01T11:09:35.000Z</time>
      </trkpt>
      <trkpt lat="45.79472" lon="7.05833">
        <ele>2127</ele>
        <time>2000-01-01T11:09:45.000Z</time>
      </trkpt>
      <trkpt lat="45.79498" lon="7.05814">
        <ele>2133</ele>
        <time>2000-01-01T11:09:55.000Z</time>
      </trkpt>
      <trkpt lat="45.79542" lon="7.05782">
        <ele>2145</ele>
        <time>2000-01-01T11:10:05.000Z</time>
      </trkpt>
      <trkpt lat="45.79576" lon="7.05779">
        <ele>2161</ele>
        <time>2000-01-01T11:10:15.000Z</time>
      </trkpt>
      <trkpt lat="45.79605" lon="7.05726">
        <ele>2170</ele>
        <time>2000-01-01T11:10:25.000Z</time>
      </trkpt>
      <trkpt lat="45.79632" lon="7.05739">
        <ele>2177</ele>
        <time>2000-01-01T11:10:35.000Z</time>
      </trkpt>
      <trkpt lat="45.79652" lon="7.05728">
        <ele>2177</ele>
        <time>2000-01-01T11:10:45.000Z</time>
      </trkpt>
      <trkpt lat="45.79677" lon="7.05731">
        <ele>2182</ele>
        <time>2000-01-01T11:10:55.000Z</time>
      </trkpt>
      <trkpt lat="45.79705" lon="7.05734">
        <ele>2185</ele>
        <time>2000-01-01T11:11:05.000Z</time>
      </trkpt>
      <trkpt lat="45.79741" lon="7.0575">
        <ele>2215</ele>
        <time>2000-01-01T11:11:15.000Z</time>
      </trkpt>
      <trkpt lat="45.7976" lon="7.05717">
        <ele>2215</ele>
        <time>2000-01-01T11:11:25.000Z</time>
      </trkpt>
      <trkpt lat="45.79792" lon="7.0566">
        <ele>2218</ele>
        <time>2000-01-01T11:11:35.000Z</time>
      </trkpt>
      <trkpt lat="45.79792" lon="7.05627">
        <ele>2222</ele>
        <time>2000-01-01T11:11:45.000Z</time>
      </trkpt>
      <trkpt lat="45.79827" lon="7.05621">
        <ele>2241</ele>
        <time>2000-01-01T11:11:55.000Z</time>
      </trkpt>
      <trkpt lat="45.7986" lon="7.05666">
        <ele>2263</ele>
        <time>2000-01-01T11:12:05.000Z</time>
      </trkpt>
      <trkpt lat="45.79885" lon="7.05623">
        <ele>2264</ele>
        <time>2000-01-01T11:12:15.000Z</time>
      </trkpt>
      <trkpt lat="45.79909" lon="7.05619">
        <ele>2264</ele>
        <time>2000-01-01T11:12:25.000Z</time>
      </trkpt>
      <trkpt lat="45.79934" lon="7.05614">
        <ele>2269</ele>
        <time>2000-01-01T11:12:35.000Z</time>
      </trkpt>
      <trkpt lat="45.7996" lon="7.05589">
        <ele>2275</ele>
        <time>2000-01-01T11:12:45.000Z</time>
      </trkpt>
      <trkpt lat="45.79986" lon="7.05563">
        <ele>2282</ele>
        <time>2000-01-01T11:12:55.000Z</time>
      </trkpt>
      <trkpt lat="45.80013" lon="7.05537">
        <ele>2291</ele>
        <time>2000-01-01T11:13:05.000Z</time>
      </trkpt>
      <trkpt lat="45.80041" lon="7.05532">
        <ele>2315</ele>
        <time>2000-01-01T11:13:15.000Z</time>
      </trkpt>
      <trkpt lat="45.80084" lon="7.05525">
        <ele>2319</ele>
        <time>2000-01-01T11:13:25.000Z</time>
      </trkpt>
      <trkpt lat="45.80093" lon="7.05484">
        <ele>2323</ele>
        <time>2000-01-01T11:13:35.000Z</time>
      </trkpt>
      <trkpt lat="45.80138" lon="7.05475">
        <ele>2321</ele>
        <time>2000-01-01T11:13:45.000Z</time>
      </trkpt>
      <trkpt lat="45.80152" lon="7.0544">
        <ele>2319</ele>
        <time>2000-01-01T11:13:55.000Z</time>
      </trkpt>
      <trkpt lat="45.80172" lon="7.05389">
        <ele>2323</ele>
        <time>2000-01-01T11:14:05.000Z</time>
      </trkpt>
      <trkpt lat="45.80213" lon="7.05357">
        <ele>2327</ele>
        <time>2000-01-01T11:14:15.000Z</time>
      </trkpt>
      <trkpt lat="45.80235" lon="7.05326">
        <ele>2331</ele>
        <time>2000-01-01T11:14:25.000Z</time>
      </trkpt>
      <trkpt lat="45.80277" lon="7.05266">
        <ele>2344</ele>
        <time>2000-01-01T11:14:35.000Z</time>
      </trkpt>
      <trkpt lat="45.80305" lon="7.05255">
        <ele>2350</ele>
        <time>2000-01-01T11:14:45.000Z</time>
      </trkpt>
      <trkpt lat="45.80313" lon="7.0522">
        <ele>2357</ele>
        <time>2000-01-01T11:14:55.000Z</time>
      </trkpt>
      <trkpt lat="45.80331" lon="7.05198">
        <ele>2363</ele>
        <time>2000-01-01T11:15:05.000Z</time>
      </trkpt>
      <trkpt lat="45.8035" lon="7.05175">
        <ele>2370</ele>
        <time>2000-01-01T11:15:15.000Z</time>
      </trkpt>
      <trkpt lat="45.80393" lon="7.05155">
        <ele>2394</ele>
        <time>2000-01-01T11:15:25.000Z</time>
      </trkpt>
      <trkpt lat="45.8041" lon="7.05107">
        <ele>2403</ele>
        <time>2000-01-01T11:15:35.000Z</time>
      </trkpt>
      <trkpt lat="45.80442" lon="7.051">
        <ele>2409</ele>
        <time>2000-01-01T11:15:45.000Z</time>
      </trkpt>
      <trkpt lat="45.80475" lon="7.05092">
        <ele>2427</ele>
        <time>2000-01-01T11:15:55.000Z</time>
      </trkpt>
      <trkpt lat="45.80516" lon="7.05083">
        <ele>2432</ele>
        <time>2000-01-01T11:16:05.000Z</time>
      </trkpt>
      <trkpt lat="45.80539" lon="7.05036">
        <ele>2437</ele>
        <time>2000-01-01T11:16:15.000Z</time>
      </trkpt>
      <trkpt lat="45.8056" lon="7.05023">
        <ele>2443</ele>
        <time>2000-01-01T11:16:25.000Z</time>
      </trkpt>
      <trkpt lat="45.80576" lon="7.04985">
        <ele>2444</ele>
        <time>2000-01-01T11:16:35.000Z</time>
      </trkpt>
      <trkpt lat="45.80593" lon="7.04946">
        <ele>2446</ele>
        <time>2000-01-01T11:16:45.000Z</time>
      </trkpt>
      <trkpt lat="45.80609" lon="7.04908">
        <ele>2460</ele>
        <time>2000-01-01T11:16:55.000Z</time>
      </trkpt>
      <trkpt lat="45.80647" lon="7.04928">
        <ele>2472</ele>
        <time>2000-01-01T11:17:05.000Z</time>
      </trkpt>
      <trkpt lat="45.80671" lon="7.04923">
        <ele>2479</ele>
        <time>2000-01-01T11:17:15.000Z</time>
      </trkpt>
      <trkpt lat="45.80697" lon="7.04918">
        <ele>2490</ele>
        <time>2000-01-01T11:17:25.000Z</time>
      </trkpt>
      <trkpt lat="45.8072" lon="7.04941">
        <ele>2515</ele>
        <time>2000-01-01T11:17:35.000Z</time>
      </trkpt>
      <trkpt lat="45.80754" lon="7.04976">
        <ele>2511</ele>
        <time>2000-01-01T11:17:45.000Z</time>
      </trkpt>
      <trkpt lat="45.80785" lon="7.04951">
        <ele>2507</ele>
        <time>2000-01-01T11:17:55.000Z</time>
      </trkpt>
      <trkpt lat="45.80775" lon="7.0494">
        <ele>2511.9</ele>
        <time>2000-01-01T11:18:05.000Z</time>
      </trkpt>
      <trkpt lat="45.80797" lon="7.04931">
        <ele>2514</ele>
        <time>2000-01-01T11:18:15.000Z</time>
      </trkpt>
      <trkpt lat="45.80826" lon="7.04943">
        <ele>2515</ele>
        <time>2000-01-01T11:18:25.000Z</time>
      </trkpt>
      <trkpt lat="45.80829" lon="7.0493">
        <ele>2533.6</ele>
        <time>2000-01-01T11:18:35.000Z</time>
      </trkpt>
      <trkpt lat="45.80843" lon="7.04939">
        <ele>2517</ele>
        <time>2000-01-01T11:18:45.000Z</time>
      </trkpt>
      <trkpt lat="45.80882" lon="7.04918">
        <ele>2544</ele>
        <time>2000-01-01T11:18:55.000Z</time>
      </trkpt>
      <trkpt lat="45.809" lon="7.04945">
        <ele>2555</ele>
        <time>2000-01-01T11:19:05.000Z</time>
      </trkpt>
      <trkpt lat="45.80921" lon="7.04978">
        <ele>2565</ele>
        <time>2000-01-01T11:19:15.000Z</time>
      </trkpt>
      <trkpt lat="45.80919" lon="7.04921">
        <ele>2575</ele>
        <time>2000-01-01T11:19:25.000Z</time>
      </trkpt>
      <trkpt lat="45.80936" lon="7.04953">
        <ele>2586</ele>
        <time>2000-01-01T11:19:35.000Z</time>
      </trkpt>
      <trkpt lat="45.80948" lon="7.04946">
        <ele>2601.4</ele>
        <time>2000-01-01T11:19:45.000Z</time>
      </trkpt>
      <trkpt lat="45.80971" lon="7.04877">
        <ele>2611</ele>
        <time>2000-01-01T11:19:55.000Z</time>
      </trkpt>
      <trkpt lat="45.81" lon="7.04887">
        <ele>2630</ele>
        <time>2000-01-01T11:20:05.000Z</time>
      </trkpt>
      <trkpt lat="45.8105" lon="7.04904">
        <ele>2638</ele>
        <time>2000-01-01T11:20:15.000Z</time>
      </trkpt>
      <trkpt lat="45.8106" lon="7.0487">
        <ele>2646</ele>
        <time>2000-01-01T11:20:25.000Z</time>
      </trkpt>
      <trkpt lat="45.81101" lon="7.04899">
        <ele>2653</ele>
        <time>2000-01-01T11:20:35.000Z</time>
      </trkpt>
      <trkpt lat="45.81126" lon="7.04898">
        <ele>2653</ele>
        <time>2000-01-01T11:20:45.000Z</time>
      </trkpt>
      <trkpt lat="45.81154" lon="7.04897">
        <ele>2655</ele>
        <time>2000-01-01T11:20:55.000Z</time>
      </trkpt>
      <trkpt lat="45.81178" lon="7.04878">
        <ele>2658</ele>
        <time>2000-01-01T11:21:05.000Z</time>
      </trkpt>
      <trkpt lat="45.81212" lon="7.04852">
        <ele>2680</ele>
        <time>2000-01-01T11:21:15.000Z</time>
      </trkpt>
      <trkpt lat="45.81202" lon="7.04811">
        <ele>2682</ele>
        <time>2000-01-01T11:21:25.000Z</time>
      </trkpt>
      <trkpt lat="45.81185" lon="7.04738">
        <ele>2690</ele>
        <time>2000-01-01T11:21:35.000Z</time>
      </trkpt>
      <trkpt lat="45.81208" lon="7.04748">
        <ele>2699</ele>
        <time>2000-01-01T11:21:45.000Z</time>
      </trkpt>
      <trkpt lat="45.81232" lon="7.04759">
        <ele>2704</ele>
        <time>2000-01-01T11:21:55.000Z</time>
      </trkpt>
      <trkpt lat="45.81218" lon="7.04736">
        <ele>2713</ele>
        <time>2000-01-01T11:22:05.000Z</time>
      </trkpt>
      <trkpt lat="45.81237" lon="7.04739">
        <ele>2713</ele>
        <time>2000-01-01T11:22:15.000Z</time>
      </trkpt>
      <trkpt lat="45.81223" lon="7.047">
        <ele>2717</ele>
        <time>2000-01-01T11:22:25.000Z</time>
      </trkpt>
      <trkpt lat="45.81257" lon="7.04716">
        <ele>2721</ele>
        <time>2000-01-01T11:22:35.000Z</time>
      </trkpt>
      <trkpt lat="45.81292" lon="7.04731">
        <ele>2738</ele>
        <time>2000-01-01T11:22:45.000Z</time>
      </trkpt>
      <trkpt lat="45.81327" lon="7.04747">
        <ele>2752</ele>
        <time>2000-01-01T11:22:55.000Z</time>
      </trkpt>
      <trkpt lat="45.81374" lon="7.04769">
        <ele>2752</ele>
        <time>2000-01-01T11:23:05.000Z</time>
      </trkpt>
      <trkpt lat="45.81347" lon="7.04749">
        <ele>2752</ele>
        <time>2000-01-01T11:23:15.000Z</time>
      </trkpt>
      <trkpt lat="45.81385" lon="7.04749">
        <ele>2773</ele>
        <time>2000-01-01T11:23:25.000Z</time>
      </trkpt>
      <trkpt lat="45.81362" lon="7.04724">
        <ele>2795</ele>
        <time>2000-01-01T11:23:35.000Z</time>
      </trkpt>
      <trkpt lat="45.81389" lon="7.04723">
        <ele>2797</ele>
        <time>2000-01-01T11:23:45.000Z</time>
      </trkpt>
      <trkpt lat="45.81365" lon="7.04704">
        <ele>2808</ele>
        <time>2000-01-01T11:23:55.000Z</time>
      </trkpt>
      <trkpt lat="45.81389" lon="7.04708">
        <ele>2811</ele>
        <time>2000-01-01T11:24:05.000Z</time>
      </trkpt>
      <trkpt lat="45.81414" lon="7.04713">
        <ele>2816</ele>
        <time>2000-01-01T11:24:15.000Z</time>
      </trkpt>
      <trkpt lat="45.81394" lon="7.04679">
        <ele>2822</ele>
        <time>2000-01-01T11:24:25.000Z</time>
      </trkpt>
      <trkpt lat="45.81424" lon="7.04685">
        <ele>2840</ele>
        <time>2000-01-01T11:24:35.000Z</time>
      </trkpt>
      <trkpt lat="45.8148" lon="7.04697">
        <ele>2868</ele>
        <time>2000-01-01T11:24:45.000Z</time>
      </trkpt>
      <trkpt lat="45.81465" lon="7.04687">
        <ele>2853.3</ele>
        <time>2000-01-01T11:24:55.000Z</time>
      </trkpt>
      <trkpt lat="45.81497" lon="7.04658">
        <ele>2868</ele>
        <time>2000-01-01T11:25:05.000Z</time>
      </trkpt>
      <trkpt lat="45.81493" lon="7.04635">
        <ele>2873.5</ele>
        <time>2000-01-01T11:25:15.000Z</time>
      </trkpt>
      <trkpt lat="45.81562" lon="7.04714">
        <ele>2874</ele>
        <time>2000-01-01T11:25:25.000Z</time>
      </trkpt>
      <trkpt lat="45.81535" lon="7.04686">
        <ele>2867</ele>
        <time>2000-01-01T11:25:35.000Z</time>
      </trkpt>
      <trkpt lat="45.81521" lon="7.04631">
        <ele>2861</ele>
        <time>2000-01-01T11:25:45.000Z</time>
      </trkpt>
      <trkpt lat="45.81548" lon="7.0465">
        <ele>2861</ele>
        <time>2000-01-01T11:25:55.000Z</time>
      </trkpt>
      <trkpt lat="45.81599" lon="7.04685">
        <ele>2853</ele>
        <time>2000-01-01T11:26:05.000Z</time>
      </trkpt>
      <trkpt lat="45.81613" lon="7.04647">
        <ele>2827</ele>
        <time>2000-01-01T11:26:15.000Z</time>
      </trkpt>
      <trkpt lat="45.81639" lon="7.04644">
        <ele>2817</ele>
        <time>2000-01-01T11:26:25.000Z</time>
      </trkpt>
      <trkpt lat="45.8167" lon="7.04641">
        <ele>2815</ele>
        <time>2000-01-01T11:26:35.000Z</time>
      </trkpt>
      <trkpt lat="45.817" lon="7.04628">
        <ele>2798</ele>
        <time>2000-01-01T11:26:45.000Z</time>
      </trkpt>
      <trkpt lat="45.81758" lon="7.04603">
        <ele>2792</ele>
        <time>2000-01-01T11:26:55.000Z</time>
      </trkpt>
      <trkpt lat="45.81775" lon="7.04579">
        <ele>2785</ele>
        <time>2000-01-01T11:27:05.000Z</time>
      </trkpt>
      <trkpt lat="45.81792" lon="7.04555">
        <ele>2771</ele>
        <time>2000-01-01T11:27:15.000Z</time>
      </trkpt>
      <trkpt lat="45.81796" lon="7.04513">
        <ele>2775</ele>
        <time>2000-01-01T11:27:25.000Z</time>
      </trkpt>
      <trkpt lat="45.81802" lon="7.04445">
        <ele>2768</ele>
        <time>2000-01-01T11:27:35.000Z</time>
      </trkpt>
      <trkpt lat="45.81778" lon="7.04408">
        <ele>2761</ele>
        <time>2000-01-01T11:27:45.000Z</time>
      </trkpt>
      <trkpt lat="45.81755" lon="7.0437">
        <ele>2750</ele>
        <time>2000-01-01T11:27:55.000Z</time>
      </trkpt>
      <trkpt lat="45.81731" lon="7.04333">
        <ele>2739</ele>
        <time>2000-01-01T11:28:05.000Z</time>
      </trkpt>
      <trkpt lat="45.81707" lon="7.04295">
        <ele>2719</ele>
        <time>2000-01-01T11:28:15.000Z</time>
      </trkpt>
      <trkpt lat="45.817" lon="7.04255">
        <ele>2712</ele>
        <time>2000-01-01T11:28:25.000Z</time>
      </trkpt>
      <trkpt lat="45.81688" lon="7.04192">
        <ele>2698</ele>
        <time>2000-01-01T11:28:35.000Z</time>
      </trkpt>
      <trkpt lat="45.81674" lon="7.0419">
        <ele>2696.1</ele>
        <time>2000-01-01T11:28:45.000Z</time>
      </trkpt>
      <trkpt lat="45.81708" lon="7.04168">
        <ele>2692</ele>
        <time>2000-01-01T11:28:55.000Z</time>
      </trkpt>
      <trkpt lat="45.8169" lon="7.04157">
        <ele>2682</ele>
        <time>2000-01-01T11:29:05.000Z</time>
      </trkpt>
      <trkpt lat="45.817" lon="7.04139">
        <ele>2677.1</ele>
        <time>2000-01-01T11:29:15.000Z</time>
      </trkpt>
      <trkpt lat="45.81634" lon="7.04128">
        <ele>2657</ele>
        <time>2000-01-01T11:29:25.000Z</time>
      </trkpt>
      <trkpt lat="45.81639" lon="7.04089">
        <ele>2650</ele>
        <time>2000-01-01T11:29:35.000Z</time>
      </trkpt>
      <trkpt lat="45.81663" lon="7.04075">
        <ele>2643</ele>
        <time>2000-01-01T11:29:45.000Z</time>
      </trkpt>
      <trkpt lat="45.81692" lon="7.04057">
        <ele>2635</ele>
        <time>2000-01-01T11:29:55.000Z</time>
      </trkpt>
      <trkpt lat="45.81698" lon="7.04023">
        <ele>2624</ele>
        <time>2000-01-01T11:30:05.000Z</time>
      </trkpt>
      <trkpt lat="45.81705" lon="7.03985">
        <ele>2606</ele>
        <time>2000-01-01T11:30:15.000Z</time>
      </trkpt>
      <trkpt lat="45.817" lon="7.04001">
        <ele>2609.8</ele>
        <time>2000-01-01T11:30:25.000Z</time>
      </trkpt>
      <trkpt lat="45.81689" lon="7.03996">
        <ele>2603</ele>
        <time>2000-01-01T11:30:35.000Z</time>
      </trkpt>
      <trkpt lat="45.81691" lon="7.03953">
        <ele>2601</ele>
        <time>2000-01-01T11:30:45.000Z</time>
      </trkpt>
      <trkpt lat="45.81696" lon="7.03875">
        <ele>2567</ele>
        <time>2000-01-01T11:30:55.000Z</time>
      </trkpt>
      <trkpt lat="45.8168" lon="7.03906">
        <ele>2565</ele>
        <time>2000-01-01T11:31:05.000Z</time>
      </trkpt>
      <trkpt lat="45.81676" lon="7.03857">
        <ele>2551</ele>
        <time>2000-01-01T11:31:15.000Z</time>
      </trkpt>
      <trkpt lat="45.8166" lon="7.03882">
        <ele>2543</ele>
        <time>2000-01-01T11:31:25.000Z</time>
      </trkpt>
      <trkpt lat="45.81657" lon="7.03857">
        <ele>2545</ele>
        <time>2000-01-01T11:31:35.000Z</time>
      </trkpt>
      <trkpt lat="45.81648" lon="7.03872">
        <ele>2537</ele>
        <time>2000-01-01T11:31:45.000Z</time>
      </trkpt>
      <trkpt lat="45.81662" lon="7.03814">
        <ele>2533</ele>
        <time>2000-01-01T11:31:55.000Z</time>
      </trkpt>
      <trkpt lat="45.81641" lon="7.03791">
        <ele>2526</ele>
        <time>2000-01-01T11:32:05.000Z</time>
      </trkpt>
      <trkpt lat="45.81645" lon="7.03747">
        <ele>2524</ele>
        <time>2000-01-01T11:32:15.000Z</time>
      </trkpt>
      <trkpt lat="45.81663" lon="7.03771">
        <ele>2522</ele>
        <time>2000-01-01T11:32:25.000Z</time>
      </trkpt>
      <trkpt lat="45.81686" lon="7.03777">
        <ele>2522</ele>
        <time>2000-01-01T11:32:35.000Z</time>
      </trkpt>
      <trkpt lat="45.81711" lon="7.03784">
        <ele>2516</ele>
        <time>2000-01-01T11:32:45.000Z</time>
      </trkpt>
      <trkpt lat="45.81683" lon="7.03741">
        <ele>2511</ele>
        <time>2000-01-01T11:32:55.000Z</time>
      </trkpt>
      <trkpt lat="45.81711" lon="7.03752">
        <ele>2503</ele>
        <time>2000-01-01T11:33:05.000Z</time>
      </trkpt>
      <trkpt lat="45.81757" lon="7.03771">
        <ele>2496</ele>
        <time>2000-01-01T11:33:15.000Z</time>
      </trkpt>
      <trkpt lat="45.81739" lon="7.03745">
        <ele>2490</ele>
        <time>2000-01-01T11:33:25.000Z</time>
      </trkpt>
      <trkpt lat="45.81766" lon="7.03751">
        <ele>2485</ele>
        <time>2000-01-01T11:33:35.000Z</time>
      </trkpt>
      <trkpt lat="45.81802" lon="7.0376">
        <ele>2435</ele>
        <time>2000-01-01T11:33:45.000Z</time>
      </trkpt>
      <trkpt lat="45.81829" lon="7.03727">
        <ele>2418</ele>
        <time>2000-01-01T11:33:55.000Z</time>
      </trkpt>
      <trkpt lat="45.81853" lon="7.03725">
        <ele>2411</ele>
        <time>2000-01-01T11:34:05.000Z</time>
      </trkpt>
      <trkpt lat="45.81879" lon="7.03722">
        <ele>2411</ele>
        <time>2000-01-01T11:34:15.000Z</time>
      </trkpt>
      <trkpt lat="45.81893" lon="7.03697">
        <ele>2388</ele>
        <time>2000-01-01T11:34:25.000Z</time>
      </trkpt>
      <trkpt lat="45.81922" lon="7.03705">
        <ele>2380</ele>
        <time>2000-01-01T11:34:35.000Z</time>
      </trkpt>
      <trkpt lat="45.81953" lon="7.03679">
        <ele>2377</ele>
        <time>2000-01-01T11:34:45.000Z</time>
      </trkpt>
      <trkpt lat="45.81984" lon="7.03692">
        <ele>2374</ele>
        <time>2000-01-01T11:34:55.000Z</time>
      </trkpt>
      <trkpt lat="45.81976" lon="7.03656">
        <ele>2366</ele>
        <time>2000-01-01T11:35:05.000Z</time>
      </trkpt>
      <trkpt lat="45.82001" lon="7.03662">
        <ele>2359</ele>
        <time>2000-01-01T11:35:15.000Z</time>
      </trkpt>
      <trkpt lat="45.81995" lon="7.03635">
        <ele>2344</ele>
        <time>2000-01-01T11:35:25.000Z</time>
      </trkpt>
      <trkpt lat="45.82025" lon="7.03618">
        <ele>2339</ele>
        <time>2000-01-01T11:35:35.000Z</time>
      </trkpt>
      <trkpt lat="45.82054" lon="7.036">
        <ele>2334</ele>
        <time>2000-01-01T11:35:45.000Z</time>
      </trkpt>
      <trkpt lat="45.82087" lon="7.03581">
        <ele>2323</ele>
        <time>2000-01-01T11:35:55.000Z</time>
      </trkpt>
      <trkpt lat="45.82105" lon="7.03556">
        <ele>2321</ele>
        <time>2000-01-01T11:36:05.000Z</time>
      </trkpt>
      <trkpt lat="45.82125" lon="7.03527">
        <ele>2325</ele>
        <time>2000-01-01T11:36:15.000Z</time>
      </trkpt>
      <trkpt lat="45.82143" lon="7.03566">
        <ele>2329</ele>
        <time>2000-01-01T11:36:25.000Z</time>
      </trkpt>
      <trkpt lat="45.82161" lon="7.03605">
        <ele>2362</ele>
        <time>2000-01-01T11:36:35.000Z</time>
      </trkpt>
      <trkpt lat="45.82184" lon="7.03654">
        <ele>2378</ele>
        <time>2000-01-01T11:36:45.000Z</time>
      </trkpt>
      <trkpt lat="45.82218" lon="7.03651">
        <ele>2390</ele>
        <time>2000-01-01T11:36:55.000Z</time>
      </trkpt>
      <trkpt lat="45.82253" lon="7.03649">
        <ele>2396</ele>
        <time>2000-01-01T11:37:05.000Z</time>
      </trkpt>
      <trkpt lat="45.82313" lon="7.03644">
        <ele>2411</ele>
        <time>2000-01-01T11:37:15.000Z</time>
      </trkpt>
      <trkpt lat="45.82345" lon="7.03668">
        <ele>2431</ele>
        <time>2000-01-01T11:37:25.000Z</time>
      </trkpt>
      <trkpt lat="45.82377" lon="7.03693">
        <ele>2440</ele>
        <time>2000-01-01T11:37:35.000Z</time>
      </trkpt>
      <trkpt lat="45.82409" lon="7.03717">
        <ele>2443</ele>
        <time>2000-01-01T11:37:45.000Z</time>
      </trkpt>
      <trkpt lat="45.82453" lon="7.03751">
        <ele>2455</ele>
        <time>2000-01-01T11:37:55.000Z</time>
      </trkpt>
      <trkpt lat="45.82472" lon="7.03786">
        <ele>2458</ele>
        <time>2000-01-01T11:38:05.000Z</time>
      </trkpt>
      <trkpt lat="45.82506" lon="7.0385">
        <ele>2469</ele>
        <time>2000-01-01T11:38:15.000Z</time>
      </trkpt>
      <trkpt lat="45.82515" lon="7.03893">
        <ele>2481</ele>
        <time>2000-01-01T11:38:25.000Z</time>
      </trkpt>
      <trkpt lat="45.82532" lon="7.03976">
        <ele>2482</ele>
        <time>2000-01-01T11:38:35.000Z</time>
      </trkpt>
      <trkpt lat="45.82553" lon="7.04014">
        <ele>2485</ele>
        <time>2000-01-01T11:38:45.000Z</time>
      </trkpt>
      <trkpt lat="45.82574" lon="7.04051">
        <ele>2495</ele>
        <time>2000-01-01T11:38:55.000Z</time>
      </trkpt>
      <trkpt lat="45.82605" lon="7.04108">
        <ele>2502</ele>
        <time>2000-01-01T11:39:05.000Z</time>
      </trkpt>
      <trkpt lat="45.82617" lon="7.04163">
        <ele>2506</ele>
        <time>2000-01-01T11:39:15.000Z</time>
      </trkpt>
      <trkpt lat="45.82628" lon="7.04221">
        <ele>2517</ele>
        <time>2000-01-01T11:39:25.000Z</time>
      </trkpt>
      <trkpt lat="45.82638" lon="7.04279">
        <ele>2521</ele>
        <time>2000-01-01T11:39:35.000Z</time>
      </trkpt>
      <trkpt lat="45.82649" lon="7.04337">
        <ele>2522</ele>
        <time>2000-01-01T11:39:45.000Z</time>
      </trkpt>
      <trkpt lat="45.8266" lon="7.04395">
        <ele>2529</ele>
        <time>2000-01-01T11:39:55.000Z</time>
      </trkpt>
      <trkpt lat="45.8267" lon="7.04453">
        <ele>2528</ele>
        <time>2000-01-01T11:40:05.000Z</time>
      </trkpt>
      <trkpt lat="45.82681" lon="7.04511">
        <ele>2528</ele>
        <time>2000-01-01T11:40:15.000Z</time>
      </trkpt>
      <trkpt lat="45.82692" lon="7.04569">
        <ele>2516</ele>
        <time>2000-01-01T11:40:25.000Z</time>
      </trkpt>
      <trkpt lat="45.82702" lon="7.04627">
        <ele>2508</ele>
        <time>2000-01-01T11:40:35.000Z</time>
      </trkpt>
      <trkpt lat="45.82714" lon="7.04691">
        <ele>2502</ele>
        <time>2000-01-01T11:40:45.000Z</time>
      </trkpt>
      <trkpt lat="45.82711" lon="7.04742">
        <ele>2493</ele>
        <time>2000-01-01T11:40:55.000Z</time>
      </trkpt>
      <trkpt lat="45.82708" lon="7.04793">
        <ele>2491</ele>
        <time>2000-01-01T11:41:05.000Z</time>
      </trkpt>
      <trkpt lat="45.82705" lon="7.04844">
        <ele>2479</ele>
        <time>2000-01-01T11:41:15.000Z</time>
      </trkpt>
      <trkpt lat="45.82701" lon="7.04904">
        <ele>2470</ele>
        <time>2000-01-01T11:41:25.000Z</time>
      </trkpt>
      <trkpt lat="45.82728" lon="7.04937">
        <ele>2457</ele>
        <time>2000-01-01T11:41:35.000Z</time>
      </trkpt>
      <trkpt lat="45.82755" lon="7.0497">
        <ele>2443</ele>
        <time>2000-01-01T11:41:45.000Z</time>
      </trkpt>
      <trkpt lat="45.82783" lon="7.05002">
        <ele>2437</ele>
        <time>2000-01-01T11:41:55.000Z</time>
      </trkpt>
      <trkpt lat="45.82813" lon="7.05039">
        <ele>2431</ele>
        <time>2000-01-01T11:42:05.000Z</time>
      </trkpt>
      <trkpt lat="45.82809" lon="7.0508">
        <ele>2426</ele>
        <time>2000-01-01T11:42:15.000Z</time>
      </trkpt>
      <trkpt lat="45.82802" lon="7.05143">
        <ele>2420</ele>
        <time>2000-01-01T11:42:25.000Z</time>
      </trkpt>
      <trkpt lat="45.82817" lon="7.05196">
        <ele>2415</ele>
        <time>2000-01-01T11:42:35.000Z</time>
      </trkpt>
      <trkpt lat="45.82833" lon="7.0525">
        <ele>2406</ele>
        <time>2000-01-01T11:42:45.000Z</time>
      </trkpt>
      <trkpt lat="45.82848" lon="7.05303">
        <ele>2402</ele>
        <time>2000-01-01T11:42:55.000Z</time>
      </trkpt>
      <trkpt lat="45.82864" lon="7.05356">
        <ele>2397</ele>
        <time>2000-01-01T11:43:05.000Z</time>
      </trkpt>
      <trkpt lat="45.82879" lon="7.0541">
        <ele>2396</ele>
        <time>2000-01-01T11:43:15.000Z</time>
      </trkpt>
      <trkpt lat="45.8291" lon="7.05516">
        <ele>2386</ele>
        <time>2000-01-01T11:43:25.000Z</time>
      </trkpt>
      <trkpt lat="45.82913" lon="7.05559">
        <ele>2380</ele>
        <time>2000-01-01T11:43:35.000Z</time>
      </trkpt>
      <trkpt lat="45.82919" lon="7.05633">
        <ele>2372</ele>
        <time>2000-01-01T11:43:45.000Z</time>
      </trkpt>
      <trkpt lat="45.82948" lon="7.05658">
        <ele>2369</ele>
        <time>2000-01-01T11:43:55.000Z</time>
      </trkpt>
      <trkpt lat="45.82978" lon="7.05683">
        <ele>2372</ele>
        <time>2000-01-01T11:44:05.000Z</time>
      </trkpt>
      <trkpt lat="45.83027" lon="7.05726">
        <ele>2375</ele>
        <time>2000-01-01T11:44:15.000Z</time>
      </trkpt>
      <trkpt lat="45.82999" lon="7.05763">
        <ele>2380</ele>
        <time>2000-01-01T11:44:25.000Z</time>
      </trkpt>
      <trkpt lat="45.82971" lon="7.05799">
        <ele>2382</ele>
        <time>2000-01-01T11:44:35.000Z</time>
      </trkpt>
      <trkpt lat="45.82943" lon="7.05836">
        <ele>2400</ele>
        <time>2000-01-01T11:44:45.000Z</time>
      </trkpt>
      <trkpt lat="45.82915" lon="7.05873">
        <ele>2418</ele>
        <time>2000-01-01T11:44:55.000Z</time>
      </trkpt>
      <trkpt lat="45.82884" lon="7.05914">
        <ele>2443</ele>
        <time>2000-01-01T11:45:05.000Z</time>
      </trkpt>
      <trkpt lat="45.8291" lon="7.05955">
        <ele>2452</ele>
        <time>2000-01-01T11:45:15.000Z</time>
      </trkpt>
      <trkpt lat="45.82937" lon="7.05997">
        <ele>2471</ele>
        <time>2000-01-01T11:45:25.000Z</time>
      </trkpt>
      <trkpt lat="45.82963" lon="7.06038">
        <ele>2472</ele>
        <time>2000-01-01T11:45:35.000Z</time>
      </trkpt>
      <trkpt lat="45.8299" lon="7.0608">
        <ele>2484</ele>
        <time>2000-01-01T11:45:45.000Z</time>
      </trkpt>
      <trkpt lat="45.83017" lon="7.06121">
        <ele>2494</ele>
        <time>2000-01-01T11:45:55.000Z</time>
      </trkpt>
      <trkpt lat="45.83045" lon="7.06166">
        <ele>2508</ele>
        <time>2000-01-01T11:46:05.000Z</time>
      </trkpt>
      <trkpt lat="45.83017" lon="7.06173">
        <ele>2518</ele>
        <time>2000-01-01T11:46:15.000Z</time>
      </trkpt>
      <trkpt lat="45.82972" lon="7.06185">
        <ele>2526</ele>
        <time>2000-01-01T11:46:25.000Z</time>
      </trkpt>
      <trkpt lat="45.82995" lon="7.06227">
        <ele>2542</ele>
        <time>2000-01-01T11:46:35.000Z</time>
      </trkpt>
      <trkpt lat="45.83017" lon="7.06269">
        <ele>2553</ele>
        <time>2000-01-01T11:46:45.000Z</time>
      </trkpt>
      <trkpt lat="45.8304" lon="7.06312">
        <ele>2572</ele>
        <time>2000-01-01T11:46:55.000Z</time>
      </trkpt>
      <trkpt lat="45.83081" lon="7.06388">
        <ele>2588</ele>
        <time>2000-01-01T11:47:05.000Z</time>
      </trkpt>
      <trkpt lat="45.83051" lon="7.06394">
        <ele>2604</ele>
        <time>2000-01-01T11:47:15.000Z</time>
      </trkpt>
      <trkpt lat="45.82994" lon="7.06406">
        <ele>2614</ele>
        <time>2000-01-01T11:47:25.000Z</time>
      </trkpt>
      <trkpt lat="45.82979" lon="7.06457">
        <ele>2634</ele>
        <time>2000-01-01T11:47:35.000Z</time>
      </trkpt>
      <trkpt lat="45.82986" lon="7.065">
        <ele>2638</ele>
        <time>2000-01-01T11:47:45.000Z</time>
      </trkpt>
      <trkpt lat="45.83" lon="7.06581">
        <ele>2656</ele>
        <time>2000-01-01T11:47:55.000Z</time>
      </trkpt>
      <trkpt lat="45.83025" lon="7.06604">
        <ele>2668</ele>
        <time>2000-01-01T11:48:05.000Z</time>
      </trkpt>
      <trkpt lat="45.8307" lon="7.06645">
        <ele>2670</ele>
        <time>2000-01-01T11:48:15.000Z</time>
      </trkpt>
      <trkpt lat="45.83094" lon="7.06678">
        <ele>2670</ele>
        <time>2000-01-01T11:48:25.000Z</time>
      </trkpt>
      <trkpt lat="45.83118" lon="7.0671">
        <ele>2670</ele>
        <time>2000-01-01T11:48:35.000Z</time>
      </trkpt>
      <trkpt lat="45.83151" lon="7.06755">
        <ele>2682</ele>
        <time>2000-01-01T11:48:45.000Z</time>
      </trkpt>
      <trkpt lat="45.83171" lon="7.06796">
        <ele>2691</ele>
        <time>2000-01-01T11:48:55.000Z</time>
      </trkpt>
      <trkpt lat="45.83191" lon="7.06837">
        <ele>2698</ele>
        <time>2000-01-01T11:49:05.000Z</time>
      </trkpt>
      <trkpt lat="45.8323" lon="7.06917">
        <ele>2705</ele>
        <time>2000-01-01T11:49:15.000Z</time>
      </trkpt>
      <trkpt lat="45.83259" lon="7.0692">
        <ele>2714</ele>
        <time>2000-01-01T11:49:25.000Z</time>
      </trkpt>
      <trkpt lat="45.8331" lon="7.06924">
        <ele>2746</ele>
        <time>2000-01-01T11:49:35.000Z</time>
      </trkpt>
      <trkpt lat="45.83339" lon="7.0696">
        <ele>2756</ele>
        <time>2000-01-01T11:49:45.000Z</time>
      </trkpt>
      <trkpt lat="45.83369" lon="7.06997">
        <ele>2756</ele>
        <time>2000-01-01T11:49:55.000Z</time>
      </trkpt>
      <trkpt lat="45.83398" lon="7.07033">
        <ele>2757</ele>
        <time>2000-01-01T11:50:05.000Z</time>
      </trkpt>
      <trkpt lat="45.83427" lon="7.07069">
        <ele>2758</ele>
        <time>2000-01-01T11:50:15.000Z</time>
      </trkpt>
      <trkpt lat="45.83477" lon="7.07131">
        <ele>2782</ele>
        <time>2000-01-01T11:50:25.000Z</time>
      </trkpt>
      <trkpt lat="45.83505" lon="7.07136">
        <ele>2797</ele>
        <time>2000-01-01T11:50:35.000Z</time>
      </trkpt>
      <trkpt lat="45.83549" lon="7.07144">
        <ele>2806</ele>
        <time>2000-01-01T11:50:45.000Z</time>
      </trkpt>
      <trkpt lat="45.83565" lon="7.072">
        <ele>2809</ele>
        <time>2000-01-01T11:50:55.000Z</time>
      </trkpt>
      <trkpt lat="45.83581" lon="7.07256">
        <ele>2823</ele>
        <time>2000-01-01T11:51:05.000Z</time>
      </trkpt>
      <trkpt lat="45.83597" lon="7.07311">
        <ele>2826</ele>
        <time>2000-01-01T11:51:15.000Z</time>
      </trkpt>
      <trkpt lat="45.83614" lon="7.07367">
        <ele>2842</ele>
        <time>2000-01-01T11:51:25.000Z</time>
      </trkpt>
      <trkpt lat="45.8363" lon="7.07423">
        <ele>2845</ele>
        <time>2000-01-01T11:51:35.000Z</time>
      </trkpt>
      <trkpt lat="45.83646" lon="7.07479">
        <ele>2868</ele>
        <time>2000-01-01T11:51:45.000Z</time>
      </trkpt>
      <trkpt lat="45.83662" lon="7.07535">
        <ele>2872</ele>
        <time>2000-01-01T11:51:55.000Z</time>
      </trkpt>
      <trkpt lat="45.83678" lon="7.0759">
        <ele>2874</ele>
        <time>2000-01-01T11:52:05.000Z</time>
      </trkpt>
      <trkpt lat="45.83706" lon="7.07686">
        <ele>2892</ele>
        <time>2000-01-01T11:52:15.000Z</time>
      </trkpt>
      <trkpt lat="45.83698" lon="7.07737">
        <ele>2888</ele>
        <time>2000-01-01T11:52:25.000Z</time>
      </trkpt>
      <trkpt lat="45.8369" lon="7.07787">
        <ele>2890</ele>
        <time>2000-01-01T11:52:35.000Z</time>
      </trkpt>
      <trkpt lat="45.83681" lon="7.07838">
        <ele>2888</ele>
        <time>2000-01-01T11:52:45.000Z</time>
      </trkpt>
      <trkpt lat="45.8367" lon="7.07909">
        <ele>2887</ele>
        <time>2000-01-01T11:52:55.000Z</time>
      </trkpt>
      <trkpt lat="45.83701" lon="7.07945">
        <ele>2874</ele>
        <time>2000-01-01T11:53:05.000Z</time>
      </trkpt>
      <trkpt lat="45.83732" lon="7.07981">
        <ele>2834</ele>
        <time>2000-01-01T11:53:15.000Z</time>
      </trkpt>
      <trkpt lat="45.83763" lon="7.08017">
        <ele>2817</ele>
        <time>2000-01-01T11:53:25.000Z</time>
      </trkpt>
      <trkpt lat="45.83794" lon="7.08053">
        <ele>2813</ele>
        <time>2000-01-01T11:53:35.000Z</time>
      </trkpt>
      <trkpt lat="45.83825" lon="7.0809">
        <ele>2810</ele>
        <time>2000-01-01T11:53:45.000Z</time>
      </trkpt>
      <trkpt lat="45.8388" lon="7.08153">
        <ele>2807</ele>
        <time>2000-01-01T11:53:55.000Z</time>
      </trkpt>
      <trkpt lat="45.83872" lon="7.08203">
        <ele>2804</ele>
        <time>2000-01-01T11:54:05.000Z</time>
      </trkpt>
      <trkpt lat="45.83865" lon="7.08252">
        <ele>2804</ele>
        <time>2000-01-01T11:54:15.000Z</time>
      </trkpt>
      <trkpt lat="45.83857" lon="7.08302">
        <ele>2803</ele>
        <time>2000-01-01T11:54:25.000Z</time>
      </trkpt>
      <trkpt lat="45.83849" lon="7.08356">
        <ele>2802</ele>
        <time>2000-01-01T11:54:35.000Z</time>
      </trkpt>
      <trkpt lat="45.8383" lon="7.08398">
        <ele>2801</ele>
        <time>2000-01-01T11:54:45.000Z</time>
      </trkpt>
      <trkpt lat="45.83811" lon="7.0844">
        <ele>2801</ele>
        <time>2000-01-01T11:54:55.000Z</time>
      </trkpt>
      <trkpt lat="45.83775" lon="7.08518">
        <ele>2800</ele>
        <time>2000-01-01T11:55:05.000Z</time>
      </trkpt>
      <trkpt lat="45.83773" lon="7.08571">
        <ele>2800</ele>
        <time>2000-01-01T11:55:15.000Z</time>
      </trkpt>
      <trkpt lat="45.8377" lon="7.08624">
        <ele>2794</ele>
        <time>2000-01-01T11:55:25.000Z</time>
      </trkpt>
      <trkpt lat="45.83768" lon="7.08677">
        <ele>2777</ele>
        <time>2000-01-01T11:55:35.000Z</time>
      </trkpt>
      <trkpt lat="45.83764" lon="7.08768">
        <ele>2757</ele>
        <time>2000-01-01T11:55:45.000Z</time>
      </trkpt>
      <trkpt lat="45.8375" lon="7.08799">
        <ele>2748</ele>
        <time>2000-01-01T11:55:55.000Z</time>
      </trkpt>
      <trkpt lat="45.83734" lon="7.08836">
        <ele>2713</ele>
        <time>2000-01-01T11:56:05.000Z</time>
      </trkpt>
      <trkpt lat="45.83738" lon="7.08882">
        <ele>2698</ele>
        <time>2000-01-01T11:56:15.000Z</time>
      </trkpt>
      <trkpt lat="45.83742" lon="7.08927">
        <ele>2696</ele>
        <time>2000-01-01T11:56:25.000Z</time>
      </trkpt>
      <trkpt lat="45.83746" lon="7.08979">
        <ele>2688</ele>
        <time>2000-01-01T11:56:35.000Z</time>
      </trkpt>
      <trkpt lat="45.83731" lon="7.0903">
        <ele>2676</ele>
        <time>2000-01-01T11:56:45.000Z</time>
      </trkpt>
      <trkpt lat="45.83739" lon="7.09072">
        <ele>2662</ele>
        <time>2000-01-01T11:56:55.000Z</time>
      </trkpt>
      <trkpt lat="45.83753" lon="7.09147">
        <ele>2657</ele>
        <time>2000-01-01T11:57:05.000Z</time>
      </trkpt>
      <trkpt lat="45.83751" lon="7.09202">
        <ele>2648</ele>
        <time>2000-01-01T11:57:15.000Z</time>
      </trkpt>
      <trkpt lat="45.8375" lon="7.09257">
        <ele>2632</ele>
        <time>2000-01-01T11:57:25.000Z</time>
      </trkpt>
      <trkpt lat="45.83748" lon="7.09311">
        <ele>2619</ele>
        <time>2000-01-01T11:57:35.000Z</time>
      </trkpt>
      <trkpt lat="45.83747" lon="7.09366">
        <ele>2608</ele>
        <time>2000-01-01T11:57:45.000Z</time>
      </trkpt>
      <trkpt lat="45.83745" lon="7.09443">
        <ele>2582</ele>
        <time>2000-01-01T11:57:55.000Z</time>
      </trkpt>
      <trkpt lat="45.83774" lon="7.09462">
        <ele>2582</ele>
        <time>2000-01-01T11:58:05.000Z</time>
      </trkpt>
      <trkpt lat="45.83803" lon="7.09481">
        <ele>2582</ele>
        <time>2000-01-01T11:58:15.000Z</time>
      </trkpt>
      <trkpt lat="45.83837" lon="7.09503">
        <ele>2577</ele>
        <time>2000-01-01T11:58:25.000Z</time>
      </trkpt>
      <trkpt lat="45.83864" lon="7.09508">
        <ele>2572</ele>
        <time>2000-01-01T11:58:35.000Z</time>
      </trkpt>
      <trkpt lat="45.83904" lon="7.09515">
        <ele>2567</ele>
        <time>2000-01-01T11:58:45.000Z</time>
      </trkpt>
      <trkpt lat="45.83922" lon="7.09551">
        <ele>2539</ele>
        <time>2000-01-01T11:58:55.000Z</time>
      </trkpt>
      <trkpt lat="45.83958" lon="7.09623">
        <ele>2538</ele>
        <time>2000-01-01T11:59:05.000Z</time>
      </trkpt>
      <trkpt lat="45.84002" lon="7.0964">
        <ele>2538</ele>
        <time>2000-01-01T11:59:15.000Z</time>
      </trkpt>
      <trkpt lat="45.84031" lon="7.09673">
        <ele>2545</ele>
        <time>2000-01-01T11:59:25.000Z</time>
      </trkpt>
      <trkpt lat="45.84061" lon="7.09706">
        <ele>2544</ele>
        <time>2000-01-01T11:59:35.000Z</time>
      </trkpt>
      <trkpt lat="45.8409" lon="7.09739">
        <ele>2543</ele>
        <time>2000-01-01T11:59:45.000Z</time>
      </trkpt>
      <trkpt lat="45.84144" lon="7.098">
        <ele>2534</ele>
        <time>2000-01-01T11:59:55.000Z</time>
      </trkpt>
      <trkpt lat="45.84167" lon="7.09841">
        <ele>2525</ele>
        <time>2000-01-01T12:00:05.000Z</time>
      </trkpt>
      <trkpt lat="45.8419" lon="7.09881">
        <ele>2523</ele>
        <time>2000-01-01T12:00:15.000Z</time>
      </trkpt>
      <trkpt lat="45.84213" lon="7.09922">
        <ele>2522</ele>
        <time>2000-01-01T12:00:25.000Z</time>
      </trkpt>
      <trkpt lat="45.84249" lon="7.09984">
        <ele>2522</ele>
        <time>2000-01-01T12:00:35.000Z</time>
      </trkpt>
      <trkpt lat="45.84264" lon="7.10031">
        <ele>2510</ele>
        <time>2000-01-01T12:00:45.000Z</time>
      </trkpt>
      <trkpt lat="45.84279" lon="7.10079">
        <ele>2508</ele>
        <time>2000-01-01T12:00:55.000Z</time>
      </trkpt>
      <trkpt lat="45.84295" lon="7.10126">
        <ele>2504</ele>
        <time>2000-01-01T12:01:05.000Z</time>
      </trkpt>
      <trkpt lat="45.84317" lon="7.10196">
        <ele>2503</ele>
        <time>2000-01-01T12:01:15.000Z</time>
      </trkpt>
      <trkpt lat="45.84339" lon="7.10242">
        <ele>2484</ele>
        <time>2000-01-01T12:01:25.000Z</time>
      </trkpt>
      <trkpt lat="45.8436" lon="7.10288">
        <ele>2481</ele>
        <time>2000-01-01T12:01:35.000Z</time>
      </trkpt>
      <trkpt lat="45.84382" lon="7.10333">
        <ele>2477</ele>
        <time>2000-01-01T12:01:45.000Z</time>
      </trkpt>
      <trkpt lat="45.84403" lon="7.10379">
        <ele>2473</ele>
        <time>2000-01-01T12:01:55.000Z</time>
      </trkpt>
      <trkpt lat="45.84437" lon="7.10451">
        <ele>2457</ele>
        <time>2000-01-01T12:02:05.000Z</time>
      </trkpt>
      <trkpt lat="45.8443" lon="7.10496">
        <ele>2472</ele>
        <time>2000-01-01T12:02:15.000Z</time>
      </trkpt>
      <trkpt lat="45.84469" lon="7.10486">
        <ele>2488</ele>
        <time>2000-01-01T12:02:25.000Z</time>
      </trkpt>
      <trkpt lat="45.84507" lon="7.10475">
        <ele>2507</ele>
        <time>2000-01-01T12:02:35.000Z</time>
      </trkpt>
      <trkpt lat="45.84546" lon="7.10465">
        <ele>2517</ele>
        <time>2000-01-01T12:02:45.000Z</time>
      </trkpt>
      <trkpt lat="45.84585" lon="7.10455">
        <ele>2547</ele>
        <time>2000-01-01T12:02:55.000Z</time>
      </trkpt>
      <trkpt lat="45.84623" lon="7.10445">
        <ele>2572</ele>
        <time>2000-01-01T12:03:05.000Z</time>
      </trkpt>
      <trkpt lat="45.84667" lon="7.10433">
        <ele>2618</ele>
        <time>2000-01-01T12:03:15.000Z</time>
      </trkpt>
      <trkpt lat="45.84707" lon="7.10429">
        <ele>2634</ele>
        <time>2000-01-01T12:03:25.000Z</time>
      </trkpt>
      <trkpt lat="45.84747" lon="7.10425">
        <ele>2634</ele>
        <time>2000-01-01T12:03:35.000Z</time>
      </trkpt>
      <trkpt lat="45.84788" lon="7.10422">
        <ele>2634</ele>
        <time>2000-01-01T12:03:45.000Z</time>
      </trkpt>
      <trkpt lat="45.84828" lon="7.10418">
        <ele>2635</ele>
        <time>2000-01-01T12:03:55.000Z</time>
      </trkpt>
      <trkpt lat="45.84868" lon="7.10414">
        <ele>2637</ele>
        <time>2000-01-01T12:04:05.000Z</time>
      </trkpt>
      <trkpt lat="45.84908" lon="7.1041">
        <ele>2643</ele>
        <time>2000-01-01T12:04:15.000Z</time>
      </trkpt>
      <trkpt lat="45.84952" lon="7.10406">
        <ele>2666</ele>
        <time>2000-01-01T12:04:25.000Z</time>
      </trkpt>
      <trkpt lat="45.84977" lon="7.1038">
        <ele>2685</ele>
        <time>2000-01-01T12:04:35.000Z</time>
      </trkpt>
      <trkpt lat="45.85028" lon="7.10329">
        <ele>2709</ele>
        <time>2000-01-01T12:04:45.000Z</time>
      </trkpt>
      <trkpt lat="45.85044" lon="7.1036">
        <ele>2710</ele>
        <time>2000-01-01T12:04:55.000Z</time>
      </trkpt>
      <trkpt lat="45.85065" lon="7.10403">
        <ele>2734</ele>
        <time>2000-01-01T12:05:05.000Z</time>
      </trkpt>
      <trkpt lat="45.85094" lon="7.10428">
        <ele>2760</ele>
        <time>2000-01-01T12:05:15.000Z</time>
      </trkpt>
      <trkpt lat="45.85122" lon="7.10452">
        <ele>2768</ele>
        <time>2000-01-01T12:05:25.000Z</time>
      </trkpt>
      <trkpt lat="45.85165" lon="7.10489">
        <ele>2783</ele>
        <time>2000-01-01T12:05:35.000Z</time>
      </trkpt>
      <trkpt lat="45.85174" lon="7.10539">
        <ele>2783</ele>
        <time>2000-01-01T12:05:45.000Z</time>
      </trkpt>
      <trkpt lat="45.85184" lon="7.10589">
        <ele>2783</ele>
        <time>2000-01-01T12:05:55.000Z</time>
      </trkpt>
      <trkpt lat="45.85193" lon="7.10639">
        <ele>2801</ele>
        <time>2000-01-01T12:06:05.000Z</time>
      </trkpt>
      <trkpt lat="45.85206" lon="7.10705">
        <ele>2801</ele>
        <time>2000-01-01T12:06:15.000Z</time>
      </trkpt>
      <trkpt lat="45.8521" lon="7.10753">
        <ele>2801</ele>
        <time>2000-01-01T12:06:25.000Z</time>
      </trkpt>
      <trkpt lat="45.85214" lon="7.10801">
        <ele>2795</ele>
        <time>2000-01-01T12:06:35.000Z</time>
      </trkpt>
      <trkpt lat="45.85221" lon="7.10874">
        <ele>2789</ele>
        <time>2000-01-01T12:06:45.000Z</time>
      </trkpt>
      <trkpt lat="45.85237" lon="7.10912">
        <ele>2780</ele>
        <time>2000-01-01T12:06:55.000Z</time>
      </trkpt>
      <trkpt lat="45.8527" lon="7.10988">
        <ele>2755</ele>
        <time>2000-01-01T12:07:05.000Z</time>
      </trkpt>
      <trkpt lat="45.853" lon="7.11006">
        <ele>2748</ele>
        <time>2000-01-01T12:07:15.000Z</time>
      </trkpt>
      <trkpt lat="45.8533" lon="7.11025">
        <ele>2750</ele>
        <time>2000-01-01T12:07:25.000Z</time>
      </trkpt>
      <trkpt lat="45.85371" lon="7.1105">
        <ele>2745</ele>
        <time>2000-01-01T12:07:35.000Z</time>
      </trkpt>
      <trkpt lat="45.85404" lon="7.11091">
        <ele>2740</ele>
        <time>2000-01-01T12:07:45.000Z</time>
      </trkpt>
      <trkpt lat="45.85397" lon="7.11133">
        <ele>2728</ele>
        <time>2000-01-01T12:07:55.000Z</time>
      </trkpt>
      <trkpt lat="45.85379" lon="7.11146">
        <ele>2717</ele>
        <time>2000-01-01T12:08:05.000Z</time>
      </trkpt>
      <trkpt lat="45.85379" lon="7.11189">
        <ele>2705</ele>
        <time>2000-01-01T12:08:15.000Z</time>
      </trkpt>
      <trkpt lat="45.85379" lon="7.11264">
        <ele>2685</ele>
        <time>2000-01-01T12:08:25.000Z</time>
      </trkpt>
      <trkpt lat="45.85372" lon="7.11303">
        <ele>2678</ele>
        <time>2000-01-01T12:08:35.000Z</time>
      </trkpt>
      <trkpt lat="45.85361" lon="7.1136">
        <ele>2667</ele>
        <time>2000-01-01T12:08:45.000Z</time>
      </trkpt>
      <trkpt lat="45.85376" lon="7.11422">
        <ele>2664</ele>
        <time>2000-01-01T12:08:55.000Z</time>
      </trkpt>
      <trkpt lat="45.85412" lon="7.1145">
        <ele>2661</ele>
        <time>2000-01-01T12:09:05.000Z</time>
      </trkpt>
      <trkpt lat="45.8543" lon="7.1148">
        <ele>2661</ele>
        <time>2000-01-01T12:09:15.000Z</time>
      </trkpt>
      <trkpt lat="45.85457" lon="7.11524">
        <ele>2664</ele>
        <time>2000-01-01T12:09:25.000Z</time>
      </trkpt>
      <trkpt lat="45.85463" lon="7.11572">
        <ele>2653</ele>
        <time>2000-01-01T12:09:35.000Z</time>
      </trkpt>
      <trkpt lat="45.85455" lon="7.11625">
        <ele>2649</ele>
        <time>2000-01-01T12:09:45.000Z</time>
      </trkpt>
      <trkpt lat="45.85448" lon="7.11678">
        <ele>2645</ele>
        <time>2000-01-01T12:09:55.000Z</time>
      </trkpt>
      <trkpt lat="45.8544" lon="7.11731">
        <ele>2639</ele>
        <time>2000-01-01T12:10:05.000Z</time>
      </trkpt>
      <trkpt lat="45.85433" lon="7.11784">
        <ele>2633</ele>
        <time>2000-01-01T12:10:15.000Z</time>
      </trkpt>
      <trkpt lat="45.85424" lon="7.11844">
        <ele>2632</ele>
        <time>2000-01-01T12:10:25.000Z</time>
      </trkpt>
      <trkpt lat="45.85421" lon="7.11898">
        <ele>2632</ele>
        <time>2000-01-01T12:10:35.000Z</time>
      </trkpt>
      <trkpt lat="45.85418" lon="7.11952">
        <ele>2631</ele>
        <time>2000-01-01T12:10:45.000Z</time>
      </trkpt>
      <trkpt lat="45.85415" lon="7.12007">
        <ele>2631</ele>
        <time>2000-01-01T12:10:55.000Z</time>
      </trkpt>
      <trkpt lat="45.85412" lon="7.12061">
        <ele>2623</ele>
        <time>2000-01-01T12:11:05.000Z</time>
      </trkpt>
      <trkpt lat="45.85409" lon="7.12125">
        <ele>2618</ele>
        <time>2000-01-01T12:11:15.000Z</time>
      </trkpt>
      <trkpt lat="45.85401" lon="7.12164">
        <ele>2613</ele>
        <time>2000-01-01T12:11:25.000Z</time>
      </trkpt>
      <trkpt lat="45.85389" lon="7.12224">
        <ele>2604</ele>
        <time>2000-01-01T12:11:35.000Z</time>
      </trkpt>
      <trkpt lat="45.85373" lon="7.12264">
        <ele>2602</ele>
        <time>2000-01-01T12:11:45.000Z</time>
      </trkpt>
      <trkpt lat="45.85356" lon="7.12304">
        <ele>2600</ele>
        <time>2000-01-01T12:11:55.000Z</time>
      </trkpt>
      <trkpt lat="45.85336" lon="7.12354">
        <ele>2590</ele>
        <time>2000-01-01T12:12:05.000Z</time>
      </trkpt>
      <trkpt lat="45.85335" lon="7.12389">
        <ele>2581</ele>
        <time>2000-01-01T12:12:15.000Z</time>
      </trkpt>
      <trkpt lat="45.85335" lon="7.12427">
        <ele>2581</ele>
        <time>2000-01-01T12:12:25.000Z</time>
      </trkpt>
      <trkpt lat="45.85325" lon="7.12479">
        <ele>2575</ele>
        <time>2000-01-01T12:12:35.000Z</time>
      </trkpt>
      <trkpt lat="45.85316" lon="7.12531">
        <ele>2573</ele>
        <time>2000-01-01T12:12:45.000Z</time>
      </trkpt>
      <trkpt lat="45.85306" lon="7.12583">
        <ele>2571</ele>
        <time>2000-01-01T12:12:55.000Z</time>
      </trkpt>
      <trkpt lat="45.85288" lon="7.12682">
        <ele>2562</ele>
        <time>2000-01-01T12:13:05.000Z</time>
      </trkpt>
      <trkpt lat="45.85309" lon="7.12713">
        <ele>2558</ele>
        <time>2000-01-01T12:13:15.000Z</time>
      </trkpt>
      <trkpt lat="45.85347" lon="7.1277">
        <ele>2554</ele>
        <time>2000-01-01T12:13:25.000Z</time>
      </trkpt>
      <trkpt lat="45.8536" lon="7.1282">
        <ele>2544</ele>
        <time>2000-01-01T12:13:35.000Z</time>
      </trkpt>
      <trkpt lat="45.85379" lon="7.12842">
        <ele>2544</ele>
        <time>2000-01-01T12:13:45.000Z</time>
      </trkpt>
      <trkpt lat="45.85401" lon="7.12867">
        <ele>2550</ele>
        <time>2000-01-01T12:13:55.000Z</time>
      </trkpt>
      <trkpt lat="45.85414" lon="7.12922">
        <ele>2556</ele>
        <time>2000-01-01T12:14:05.000Z</time>
      </trkpt>
      <trkpt lat="45.85414" lon="7.12957">
        <ele>2556</ele>
        <time>2000-01-01T12:14:15.000Z</time>
      </trkpt>
      <trkpt lat="45.85413" lon="7.12994">
        <ele>2554</ele>
        <time>2000-01-01T12:14:25.000Z</time>
      </trkpt>
      <trkpt lat="45.85425" lon="7.13003">
        <ele>2560.4</ele>
        <time>2000-01-01T12:14:35.000Z</time>
      </trkpt>
      <trkpt lat="45.85376" lon="7.1308">
        <ele>2545</ele>
        <time>2000-01-01T12:14:45.000Z</time>
      </trkpt>
      <trkpt lat="45.85363" lon="7.13125">
        <ele>2542</ele>
        <time>2000-01-01T12:14:55.000Z</time>
      </trkpt>
      <trkpt lat="45.85376" lon="7.13139">
        <ele>2555.1</ele>
        <time>2000-01-01T12:15:05.000Z</time>
      </trkpt>
      <trkpt lat="45.85356" lon="7.13153">
        <ele>2541</ele>
        <time>2000-01-01T12:15:15.000Z</time>
      </trkpt>
      <trkpt lat="45.85353" lon="7.13189">
        <ele>2541</ele>
        <time>2000-01-01T12:15:25.000Z</time>
      </trkpt>
      <trkpt lat="45.8535" lon="7.13232">
        <ele>2531</ele>
        <time>2000-01-01T12:15:35.000Z</time>
      </trkpt>
      <trkpt lat="45.85372" lon="7.13252">
        <ele>2529</ele>
        <time>2000-01-01T12:15:45.000Z</time>
      </trkpt>
      <trkpt lat="45.854" lon="7.13277">
        <ele>2512</ele>
        <time>2000-01-01T12:15:55.000Z</time>
      </trkpt>
      <trkpt lat="45.85383" lon="7.13304">
        <ele>2500</ele>
        <time>2000-01-01T12:16:05.000Z</time>
      </trkpt>
      <trkpt lat="45.85363" lon="7.13335">
        <ele>2499</ele>
        <time>2000-01-01T12:16:15.000Z</time>
      </trkpt>
      <trkpt lat="45.85368" lon="7.13361">
        <ele>2492</ele>
        <time>2000-01-01T12:16:25.000Z</time>
      </trkpt>
      <trkpt lat="45.85355" lon="7.13384">
        <ele>2481</ele>
        <time>2000-01-01T12:16:35.000Z</time>
      </trkpt>
      <trkpt lat="45.8537" lon="7.13401">
        <ele>2481</ele>
        <time>2000-01-01T12:16:45.000Z</time>
      </trkpt>
      <trkpt lat="45.85408" lon="7.13382">
        <ele>2471</ele>
        <time>2000-01-01T12:16:55.000Z</time>
      </trkpt>
      <trkpt lat="45.85432" lon="7.13398">
        <ele>2459</ele>
        <time>2000-01-01T12:17:05.000Z</time>
      </trkpt>
      <trkpt lat="45.85412" lon="7.13407">
        <ele>2459</ele>
        <time>2000-01-01T12:17:15.000Z</time>
      </trkpt>
      <trkpt lat="45.85401" lon="7.13431">
        <ele>2453</ele>
        <time>2000-01-01T12:17:25.000Z</time>
      </trkpt>
      <trkpt lat="45.8541" lon="7.13437">
        <ele>2430.8</ele>
        <time>2000-01-01T12:17:35.000Z</time>
      </trkpt>
      <trkpt lat="45.85447" lon="7.13436">
        <ele>2448</ele>
        <time>2000-01-01T12:17:45.000Z</time>
      </trkpt>
      <trkpt lat="45.85472" lon="7.1342">
        <ele>2444</ele>
        <time>2000-01-01T12:17:55.000Z</time>
      </trkpt>
      <trkpt lat="45.85509" lon="7.13398">
        <ele>2438</ele>
        <time>2000-01-01T12:18:05.000Z</time>
      </trkpt>
      <trkpt lat="45.85537" lon="7.13391">
        <ele>2420</ele>
        <time>2000-01-01T12:18:15.000Z</time>
      </trkpt>
      <trkpt lat="45.8558" lon="7.1338">
        <ele>2405</ele>
        <time>2000-01-01T12:18:25.000Z</time>
      </trkpt>
      <trkpt lat="45.85601" lon="7.13349">
        <ele>2409</ele>
        <time>2000-01-01T12:18:35.000Z</time>
      </trkpt>
      <trkpt lat="45.8564" lon="7.13292">
        <ele>2401</ele>
        <time>2000-01-01T12:18:45.000Z</time>
      </trkpt>
      <trkpt lat="45.85666" lon="7.13276">
        <ele>2393</ele>
        <time>2000-01-01T12:18:55.000Z</time>
      </trkpt>
      <trkpt lat="45.85704" lon="7.13251">
        <ele>2392</ele>
        <time>2000-01-01T12:19:05.000Z</time>
      </trkpt>
      <trkpt lat="45.85734" lon="7.13247">
        <ele>2387</ele>
        <time>2000-01-01T12:19:15.000Z</time>
      </trkpt>
      <trkpt lat="45.85785" lon="7.1324">
        <ele>2384</ele>
        <time>2000-01-01T12:19:25.000Z</time>
      </trkpt>
      <trkpt lat="45.85814" lon="7.13228">
        <ele>2389</ele>
        <time>2000-01-01T12:19:35.000Z</time>
      </trkpt>
      <trkpt lat="45.85863" lon="7.13208">
        <ele>2387</ele>
        <time>2000-01-01T12:19:45.000Z</time>
      </trkpt>
      <trkpt lat="45.85904" lon="7.13227">
        <ele>2391</ele>
        <time>2000-01-01T12:19:55.000Z</time>
      </trkpt>
      <trkpt lat="45.85942" lon="7.13225">
        <ele>2396</ele>
        <time>2000-01-01T12:20:05.000Z</time>
      </trkpt>
      <trkpt lat="45.85928" lon="7.13173">
        <ele>2412</ele>
        <time>2000-01-01T12:20:15.000Z</time>
      </trkpt>
      <trkpt lat="45.85906" lon="7.13167">
        <ele>2428</ele>
        <time>2000-01-01T12:20:25.000Z</time>
      </trkpt>
      <trkpt lat="45.85914" lon="7.13146">
        <ele>2436.1</ele>
        <time>2000-01-01T12:20:35.000Z</time>
      </trkpt>
      <trkpt lat="45.86035" lon="7.13155">
        <ele>2452</ele>
        <time>2000-01-01T12:20:45.000Z</time>
      </trkpt>
      <trkpt lat="45.8607" lon="7.13145">
        <ele>2454</ele>
        <time>2000-01-01T12:20:55.000Z</time>
      </trkpt>
      <trkpt lat="45.86106" lon="7.13135">
        <ele>2456</ele>
        <time>2000-01-01T12:21:05.000Z</time>
      </trkpt>
      <trkpt lat="45.86141" lon="7.13125">
        <ele>2457</ele>
        <time>2000-01-01T12:21:15.000Z</time>
      </trkpt>
      <trkpt lat="45.86189" lon="7.13111">
        <ele>2458</ele>
        <time>2000-01-01T12:21:25.000Z</time>
      </trkpt>
      <trkpt lat="45.86232" lon="7.13122">
        <ele>2466</ele>
        <time>2000-01-01T12:21:35.000Z</time>
      </trkpt>
      <trkpt lat="45.86259" lon="7.13141">
        <ele>2468</ele>
        <time>2000-01-01T12:21:45.000Z</time>
      </trkpt>
      <trkpt lat="45.86307" lon="7.13175">
        <ele>2475</ele>
        <time>2000-01-01T12:21:55.000Z</time>
      </trkpt>
      <trkpt lat="45.86314" lon="7.13136">
        <ele>2480</ele>
        <time>2000-01-01T12:22:05.000Z</time>
      </trkpt>
      <trkpt lat="45.86349" lon="7.13172">
        <ele>2487</ele>
        <time>2000-01-01T12:22:15.000Z</time>
      </trkpt>
      <trkpt lat="45.86364" lon="7.13145">
        <ele>2524</ele>
        <time>2000-01-01T12:22:25.000Z</time>
      </trkpt>
      <trkpt lat="45.86384" lon="7.1317">
        <ele>2534</ele>
        <time>2000-01-01T12:22:35.000Z</time>
      </trkpt>
      <trkpt lat="45.86398" lon="7.13132">
        <ele>2543</ele>
        <time>2000-01-01T12:22:45.000Z</time>
      </trkpt>
      <trkpt lat="45.86392" lon="7.13099">
        <ele>2553</ele>
        <time>2000-01-01T12:22:55.000Z</time>
      </trkpt>
      <trkpt lat="45.86405" lon="7.13094">
        <ele>2557</ele>
        <time>2000-01-01T12:23:05.000Z</time>
      </trkpt>
      <trkpt lat="45.86397" lon="7.13066">
        <ele>2561</ele>
        <time>2000-01-01T12:23:15.000Z</time>
      </trkpt>
      <trkpt lat="45.86421" lon="7.13059">
        <ele>2572</ele>
        <time>2000-01-01T12:23:25.000Z</time>
      </trkpt>
      <trkpt lat="45.86447" lon="7.13051">
        <ele>2579</ele>
        <time>2000-01-01T12:23:35.000Z</time>
      </trkpt>
      <trkpt lat="45.86446" lon="7.13032">
        <ele>2584.9</ele>
        <time>2000-01-01T12:23:45.000Z</time>
      </trkpt>
      <trkpt lat="45.86467" lon="7.13017">
        <ele>2589</ele>
        <time>2000-01-01T12:23:55.000Z</time>
      </trkpt>
      <trkpt lat="45.86452" lon="7.12975">
        <ele>2599</ele>
        <time>2000-01-01T12:24:05.000Z</time>
      </trkpt>
      <trkpt lat="45.86475" lon="7.12964">
        <ele>2612</ele>
        <time>2000-01-01T12:24:15.000Z</time>
      </trkpt>
      <trkpt lat="45.8646" lon="7.12944">
        <ele>2616</ele>
        <time>2000-01-01T12:24:25.000Z</time>
      </trkpt>
      <trkpt lat="45.86489" lon="7.12932">
        <ele>2638</ele>
        <time>2000-01-01T12:24:35.000Z</time>
      </trkpt>
      <trkpt lat="45.86474" lon="7.12915">
        <ele>2638</ele>
        <time>2000-01-01T12:24:45.000Z</time>
      </trkpt>
      <trkpt lat="45.86498" lon="7.12907">
        <ele>2641</ele>
        <time>2000-01-01T12:24:55.000Z</time>
      </trkpt>
      <trkpt lat="45.86478" lon="7.12885">
        <ele>2644</ele>
        <time>2000-01-01T12:25:05.000Z</time>
      </trkpt>
      <trkpt lat="45.86507" lon="7.12873">
        <ele>2690</ele>
        <time>2000-01-01T12:25:15.000Z</time>
      </trkpt>
      <trkpt lat="45.86512" lon="7.12835">
        <ele>2703</ele>
        <time>2000-01-01T12:25:25.000Z</time>
      </trkpt>
      <trkpt lat="45.86539" lon="7.12823">
        <ele>2714</ele>
        <time>2000-01-01T12:25:35.000Z</time>
      </trkpt>
      <trkpt lat="45.86565" lon="7.12767">
        <ele>2703</ele>
        <time>2000-01-01T12:25:45.000Z</time>
      </trkpt>
      <trkpt lat="45.86587" lon="7.1275">
        <ele>2693</ele>
        <time>2000-01-01T12:25:55.000Z</time>
      </trkpt>
      <trkpt lat="45.86611" lon="7.12731">
        <ele>2663</ele>
        <time>2000-01-01T12:26:05.000Z</time>
      </trkpt>
      <trkpt lat="45.86625" lon="7.127">
        <ele>2654</ele>
        <time>2000-01-01T12:26:15.000Z</time>
      </trkpt>
      <trkpt lat="45.86661" lon="7.12691">
        <ele>2603</ele>
        <time>2000-01-01T12:26:25.000Z</time>
      </trkpt>
      <trkpt lat="45.86697" lon="7.12682">
        <ele>2584</ele>
        <time>2000-01-01T12:26:35.000Z</time>
      </trkpt>
      <trkpt lat="45.86732" lon="7.12673">
        <ele>2557</ele>
        <time>2000-01-01T12:26:45.000Z</time>
      </trkpt>
      <trkpt lat="45.86784" lon="7.1266">
        <ele>2528</ele>
        <time>2000-01-01T12:26:55.000Z</time>
      </trkpt>
      <trkpt lat="45.86802" lon="7.12669">
        <ele>2512</ele>
        <time>2000-01-01T12:27:05.000Z</time>
      </trkpt>
      <trkpt lat="45.86827" lon="7.12662">
        <ele>2495</ele>
        <time>2000-01-01T12:27:15.000Z</time>
      </trkpt>
      <trkpt lat="45.86838" lon="7.12641">
        <ele>2472</ele>
        <time>2000-01-01T12:27:25.000Z</time>
      </trkpt>
      <trkpt lat="45.86903" lon="7.12634">
        <ele>2458</ele>
        <time>2000-01-01T12:27:35.000Z</time>
      </trkpt>
      <trkpt lat="45.8692" lon="7.12594">
        <ele>2417</ele>
        <time>2000-01-01T12:27:45.000Z</time>
      </trkpt>
      <trkpt lat="45.86945" lon="7.12596">
        <ele>2396</ele>
        <time>2000-01-01T12:27:55.000Z</time>
      </trkpt>
      <trkpt lat="45.86972" lon="7.12599">
        <ele>2376</ele>
        <time>2000-01-01T12:28:05.000Z</time>
      </trkpt>
      <trkpt lat="45.86995" lon="7.12576">
        <ele>2364</ele>
        <time>2000-01-01T12:28:15.000Z</time>
      </trkpt>
      <trkpt lat="45.8703" lon="7.12541">
        <ele>2334</ele>
        <time>2000-01-01T12:28:25.000Z</time>
      </trkpt>
      <trkpt lat="45.87047" lon="7.125">
        <ele>2326</ele>
        <time>2000-01-01T12:28:35.000Z</time>
      </trkpt>
      <trkpt lat="45.87064" lon="7.12458">
        <ele>2296</ele>
        <time>2000-01-01T12:28:45.000Z</time>
      </trkpt>
      <trkpt lat="45.87088" lon="7.12398">
        <ele>2284</ele>
        <time>2000-01-01T12:28:55.000Z</time>
      </trkpt>
      <trkpt lat="45.87089" lon="7.12351">
        <ele>2280</ele>
        <time>2000-01-01T12:29:05.000Z</time>
      </trkpt>
      <trkpt lat="45.87091" lon="7.12303">
        <ele>2284</ele>
        <time>2000-01-01T12:29:15.000Z</time>
      </trkpt>
      <trkpt lat="45.87093" lon="7.12239">
        <ele>2284</ele>
        <time>2000-01-01T12:29:25.000Z</time>
      </trkpt>
      <trkpt lat="45.87112" lon="7.1221">
        <ele>2284</ele>
        <time>2000-01-01T12:29:35.000Z</time>
      </trkpt>
      <trkpt lat="45.87139" lon="7.12168">
        <ele>2284</ele>
        <time>2000-01-01T12:29:45.000Z</time>
      </trkpt>
      <trkpt lat="45.87143" lon="7.12116">
        <ele>2281</ele>
        <time>2000-01-01T12:29:55.000Z</time>
      </trkpt>
      <trkpt lat="45.87166" lon="7.12076">
        <ele>2278</ele>
        <time>2000-01-01T12:30:05.000Z</time>
      </trkpt>
      <trkpt lat="45.8717" lon="7.12025">
        <ele>2279</ele>
        <time>2000-01-01T12:30:15.000Z</time>
      </trkpt>
      <trkpt lat="45.87173" lon="7.11974">
        <ele>2280</ele>
        <time>2000-01-01T12:30:25.000Z</time>
      </trkpt>
      <trkpt lat="45.87177" lon="7.11924">
        <ele>2289</ele>
        <time>2000-01-01T12:30:35.000Z</time>
      </trkpt>
      <trkpt lat="45.87181" lon="7.11867">
        <ele>2299</ele>
        <time>2000-01-01T12:30:45.000Z</time>
      </trkpt>
      <trkpt lat="45.87202" lon="7.11839">
        <ele>2309</ele>
        <time>2000-01-01T12:30:55.000Z</time>
      </trkpt>
      <trkpt lat="45.87235" lon="7.11794">
        <ele>2309</ele>
        <time>2000-01-01T12:31:05.000Z</time>
      </trkpt>
      <trkpt lat="45.87253" lon="7.11746">
        <ele>2307</ele>
        <time>2000-01-01T12:31:15.000Z</time>
      </trkpt>
      <trkpt lat="45.87282" lon="7.11728">
        <ele>2306</ele>
        <time>2000-01-01T12:31:25.000Z</time>
      </trkpt>
      <trkpt lat="45.87311" lon="7.1171">
        <ele>2307</ele>
        <time>2000-01-01T12:31:35.000Z</time>
      </trkpt>
      <trkpt lat="45.87342" lon="7.11691">
        <ele>2309</ele>
        <time>2000-01-01T12:31:45.000Z</time>
      </trkpt>
      <trkpt lat="45.87366" lon="7.11658">
        <ele>2318</ele>
        <time>2000-01-01T12:31:55.000Z</time>
      </trkpt>
      <trkpt lat="45.87391" lon="7.11626">
        <ele>2326</ele>
        <time>2000-01-01T12:32:05.000Z</time>
      </trkpt>
      <trkpt lat="45.87426" lon="7.11578">
        <ele>2342</ele>
        <time>2000-01-01T12:32:15.000Z</time>
      </trkpt>
      <trkpt lat="45.87447" lon="7.11563">
        <ele>2363</ele>
        <time>2000-01-01T12:32:25.000Z</time>
      </trkpt>
      <trkpt lat="45.87469" lon="7.11548">
        <ele>2381</ele>
        <time>2000-01-01T12:32:35.000Z</time>
      </trkpt>
      <trkpt lat="45.87493" lon="7.11518">
        <ele>2403</ele>
        <time>2000-01-01T12:32:45.000Z</time>
      </trkpt>
      <trkpt lat="45.87516" lon="7.11489">
        <ele>2409</ele>
        <time>2000-01-01T12:32:55.000Z</time>
      </trkpt>
      <trkpt lat="45.8754" lon="7.11459">
        <ele>2426</ele>
        <time>2000-01-01T12:33:05.000Z</time>
      </trkpt>
      <trkpt lat="45.87562" lon="7.11481">
        <ele>2428</ele>
        <time>2000-01-01T12:33:15.000Z</time>
      </trkpt>
      <trkpt lat="45.87591" lon="7.11509">
        <ele>2430</ele>
        <time>2000-01-01T12:33:25.000Z</time>
      </trkpt>
      <trkpt lat="45.87624" lon="7.11491">
        <ele>2432</ele>
        <time>2000-01-01T12:33:35.000Z</time>
      </trkpt>
      <trkpt lat="45.87639" lon="7.11519">
        <ele>2430</ele>
        <time>2000-01-01T12:33:45.000Z</time>
      </trkpt>
      <trkpt lat="45.87655" lon="7.1155">
        <ele>2433</ele>
        <time>2000-01-01T12:33:55.000Z</time>
      </trkpt>
      <trkpt lat="45.87664" lon="7.11587">
        <ele>2431</ele>
        <time>2000-01-01T12:34:05.000Z</time>
      </trkpt>
      <trkpt lat="45.87675" lon="7.11636">
        <ele>2432</ele>
        <time>2000-01-01T12:34:15.000Z</time>
      </trkpt>
      <trkpt lat="45.87697" lon="7.1167">
        <ele>2433</ele>
        <time>2000-01-01T12:34:25.000Z</time>
      </trkpt>
      <trkpt lat="45.8772" lon="7.11704">
        <ele>2433</ele>
        <time>2000-01-01T12:34:35.000Z</time>
      </trkpt>
      <trkpt lat="45.87749" lon="7.11748">
        <ele>2435</ele>
        <time>2000-01-01T12:34:45.000Z</time>
      </trkpt>
      <trkpt lat="45.8779" lon="7.11756">
        <ele>2433</ele>
        <time>2000-01-01T12:34:55.000Z</time>
      </trkpt>
      <trkpt lat="45.87816" lon="7.11779">
        <ele>2432</ele>
        <time>2000-01-01T12:35:05.000Z</time>
      </trkpt>
      <trkpt lat="45.87865" lon="7.11821">
        <ele>2429</ele>
        <time>2000-01-01T12:35:15.000Z</time>
      </trkpt>
      <trkpt lat="45.87887" lon="7.11855">
        <ele>2427</ele>
        <time>2000-01-01T12:35:25.000Z</time>
      </trkpt>
      <trkpt lat="45.8791" lon="7.11889">
        <ele>2417</ele>
        <time>2000-01-01T12:35:35.000Z</time>
      </trkpt>
      <trkpt lat="45.87938" lon="7.11933">
        <ele>2419</ele>
        <time>2000-01-01T12:35:45.000Z</time>
      </trkpt>
      <trkpt lat="45.87969" lon="7.11947">
        <ele>2418</ele>
        <time>2000-01-01T12:35:55.000Z</time>
      </trkpt>
      <trkpt lat="45.88001" lon="7.11961">
        <ele>2417</ele>
        <time>2000-01-01T12:36:05.000Z</time>
      </trkpt>
      <trkpt lat="45.88043" lon="7.1198">
        <ele>2415</ele>
        <time>2000-01-01T12:36:15.000Z</time>
      </trkpt>
      <trkpt lat="45.88071" lon="7.12015">
        <ele>2413</ele>
        <time>2000-01-01T12:36:25.000Z</time>
      </trkpt>
      <trkpt lat="45.881" lon="7.1205">
        <ele>2403</ele>
        <time>2000-01-01T12:36:35.000Z</time>
      </trkpt>
      <trkpt lat="45.88128" lon="7.12085">
        <ele>2413</ele>
        <time>2000-01-01T12:36:45.000Z</time>
      </trkpt>
      <trkpt lat="45.88185" lon="7.12155">
        <ele>2423</ele>
        <time>2000-01-01T12:36:55.000Z</time>
      </trkpt>
      <trkpt lat="45.88211" lon="7.12151">
        <ele>2431</ele>
        <time>2000-01-01T12:37:05.000Z</time>
      </trkpt>
      <trkpt lat="45.88203" lon="7.12111">
        <ele>2434</ele>
        <time>2000-01-01T12:37:15.000Z</time>
      </trkpt>
      <trkpt lat="45.88218" lon="7.12079">
        <ele>2441</ele>
        <time>2000-01-01T12:37:25.000Z</time>
      </trkpt>
      <trkpt lat="45.8824" lon="7.12034">
        <ele>2445</ele>
        <time>2000-01-01T12:37:35.000Z</time>
      </trkpt>
      <trkpt lat="45.88247" lon="7.11996">
        <ele>2449</ele>
        <time>2000-01-01T12:37:45.000Z</time>
      </trkpt>
      <trkpt lat="45.88256" lon="7.11945">
        <ele>2450</ele>
        <time>2000-01-01T12:37:55.000Z</time>
      </trkpt>
      <trkpt lat="45.88277" lon="7.11904">
        <ele>2451</ele>
        <time>2000-01-01T12:38:05.000Z</time>
      </trkpt>
      <trkpt lat="45.88298" lon="7.11863">
        <ele>2445</ele>
        <time>2000-01-01T12:38:15.000Z</time>
      </trkpt>
      <trkpt lat="45.88319" lon="7.11822">
        <ele>2449</ele>
        <time>2000-01-01T12:38:25.000Z</time>
      </trkpt>
      <trkpt lat="45.88343" lon="7.11776">
        <ele>2442</ele>
        <time>2000-01-01T12:38:35.000Z</time>
      </trkpt>
      <trkpt lat="45.88369" lon="7.11776">
        <ele>2435</ele>
        <time>2000-01-01T12:38:45.000Z</time>
      </trkpt>
      <trkpt lat="45.884" lon="7.11775">
        <ele>2425</ele>
        <time>2000-01-01T12:38:55.000Z</time>
      </trkpt>
      <trkpt lat="45.88412" lon="7.11804">
        <ele>2404</ele>
        <time>2000-01-01T12:39:05.000Z</time>
      </trkpt>
      <trkpt lat="45.88425" lon="7.11833">
        <ele>2400</ele>
        <time>2000-01-01T12:39:15.000Z</time>
      </trkpt>
      <trkpt lat="45.88467" lon="7.11808">
        <ele>2405</ele>
        <time>2000-01-01T12:39:25.000Z</time>
      </trkpt>
      <trkpt lat="45.88453" lon="7.11773">
        <ele>2410</ele>
        <time>2000-01-01T12:39:35.000Z</time>
      </trkpt>
      <trkpt lat="45.88433" lon="7.11721">
        <ele>2439</ele>
        <time>2000-01-01T12:39:45.000Z</time>
      </trkpt>
      <trkpt lat="45.88432" lon="7.11677">
        <ele>2442</ele>
        <time>2000-01-01T12:39:55.000Z</time>
      </trkpt>
      <trkpt lat="45.88429" lon="7.11591">
        <ele>2432</ele>
        <time>2000-01-01T12:40:05.000Z</time>
      </trkpt>
      <trkpt lat="45.88447" lon="7.11564">
        <ele>2423</ele>
        <time>2000-01-01T12:40:15.000Z</time>
      </trkpt>
      <trkpt lat="45.88468" lon="7.11532">
        <ele>2423</ele>
        <time>2000-01-01T12:40:25.000Z</time>
      </trkpt>
      <trkpt lat="45.88512" lon="7.1151">
        <ele>2422</ele>
        <time>2000-01-01T12:40:35.000Z</time>
      </trkpt>
      <trkpt lat="45.88549" lon="7.11536">
        <ele>2413</ele>
        <time>2000-01-01T12:40:45.000Z</time>
      </trkpt>
      <trkpt lat="45.88577" lon="7.11538">
        <ele>2403</ele>
        <time>2000-01-01T12:40:55.000Z</time>
      </trkpt>
      <trkpt lat="45.88617" lon="7.1154">
        <ele>2390</ele>
        <time>2000-01-01T12:41:05.000Z</time>
      </trkpt>
      <trkpt lat="45.8864" lon="7.11524">
        <ele>2378</ele>
        <time>2000-01-01T12:41:15.000Z</time>
      </trkpt>
      <trkpt lat="45.88669" lon="7.11505">
        <ele>2379</ele>
        <time>2000-01-01T12:41:25.000Z</time>
      </trkpt>
      <trkpt lat="45.88688" lon="7.11481">
        <ele>2370</ele>
        <time>2000-01-01T12:41:35.000Z</time>
      </trkpt>
      <trkpt lat="45.88712" lon="7.11452">
        <ele>2361</ele>
        <time>2000-01-01T12:41:45.000Z</time>
      </trkpt>
      <trkpt lat="45.88744" lon="7.11449">
        <ele>2347</ele>
        <time>2000-01-01T12:41:55.000Z</time>
      </trkpt>
      <trkpt lat="45.88777" lon="7.11445">
        <ele>2347</ele>
        <time>2000-01-01T12:42:05.000Z</time>
      </trkpt>
      <trkpt lat="45.88819" lon="7.11441">
        <ele>2353</ele>
        <time>2000-01-01T12:42:15.000Z</time>
      </trkpt>
      <trkpt lat="45.88846" lon="7.11412">
        <ele>2352</ele>
        <time>2000-01-01T12:42:25.000Z</time>
      </trkpt>
      <trkpt lat="45.88873" lon="7.11382">
        <ele>2351</ele>
        <time>2000-01-01T12:42:35.000Z</time>
      </trkpt>
      <trkpt lat="45.88916" lon="7.11335">
        <ele>2350</ele>
        <time>2000-01-01T12:42:45.000Z</time>
      </trkpt>
      <trkpt lat="45.8891" lon="7.11313">
        <ele>2326.4</ele>
        <time>2000-01-01T12:42:55.000Z</time>
      </trkpt>
      <trkpt lat="45.88937" lon="7.11261">
        <ele>2350</ele>
        <time>2000-01-01T12:43:05.000Z</time>
      </trkpt>
      <trkpt lat="45.88959" lon="7.11274">
        <ele>2341</ele>
        <time>2000-01-01T12:43:15.000Z</time>
      </trkpt>
      <trkpt lat="45.88983" lon="7.11287">
        <ele>2330</ele>
        <time>2000-01-01T12:43:25.000Z</time>
      </trkpt>
      <trkpt lat="45.8901" lon="7.1128">
        <ele>2318</ele>
        <time>2000-01-01T12:43:35.000Z</time>
      </trkpt>
      <trkpt lat="45.89017" lon="7.11309">
        <ele>2311</ele>
        <time>2000-01-01T12:43:45.000Z</time>
      </trkpt>
      <trkpt lat="45.89053" lon="7.11343">
        <ele>2279</ele>
        <time>2000-01-01T12:43:55.000Z</time>
      </trkpt>
      <trkpt lat="45.89077" lon="7.11347">
        <ele>2272</ele>
        <time>2000-01-01T12:44:05.000Z</time>
      </trkpt>
      <trkpt lat="45.891" lon="7.11333">
        <ele>2272</ele>
        <time>2000-01-01T12:44:15.000Z</time>
      </trkpt>
      <trkpt lat="45.89125" lon="7.11317">
        <ele>2262</ele>
        <time>2000-01-01T12:44:25.000Z</time>
      </trkpt>
      <trkpt lat="45.89162" lon="7.11312">
        <ele>2223</ele>
        <time>2000-01-01T12:44:35.000Z</time>
      </trkpt>
      <trkpt lat="45.89185" lon="7.11342">
        <ele>2220</ele>
        <time>2000-01-01T12:44:45.000Z</time>
      </trkpt>
      <trkpt lat="45.89228" lon="7.114">
        <ele>2193</ele>
        <time>2000-01-01T12:44:55.000Z</time>
      </trkpt>
      <trkpt lat="45.89235" lon="7.11355">
        <ele>2192</ele>
        <time>2000-01-01T12:45:05.000Z</time>
      </trkpt>
      <trkpt lat="45.89242" lon="7.1131">
        <ele>2167</ele>
        <time>2000-01-01T12:45:15.000Z</time>
      </trkpt>
      <trkpt lat="45.8925" lon="7.11258">
        <ele>2150</ele>
        <time>2000-01-01T12:45:25.000Z</time>
      </trkpt>
      <trkpt lat="45.89263" lon="7.11242">
        <ele>2128.7</ele>
        <time>2000-01-01T12:45:35.000Z</time>
      </trkpt>
      <trkpt lat="45.89288" lon="7.11283">
        <ele>2134</ele>
        <time>2000-01-01T12:45:45.000Z</time>
      </trkpt>
      <trkpt lat="45.89305" lon="7.11276">
        <ele>2103.3</ele>
        <time>2000-01-01T12:45:55.000Z</time>
      </trkpt>
      <trkpt lat="45.89286" lon="7.11187">
        <ele>2107</ele>
        <time>2000-01-01T12:46:05.000Z</time>
      </trkpt>
      <trkpt lat="45.89284" lon="7.11137">
        <ele>2103</ele>
        <time>2000-01-01T12:46:15.000Z</time>
      </trkpt>
      <trkpt lat="45.89282" lon="7.11086">
        <ele>2097</ele>
        <time>2000-01-01T12:46:25.000Z</time>
      </trkpt>
      <trkpt lat="45.89278" lon="7.10987">
        <ele>2091</ele>
        <time>2000-01-01T12:46:35.000Z</time>
      </trkpt>
      <trkpt lat="45.89285" lon="7.10937">
        <ele>2086</ele>
        <time>2000-01-01T12:46:45.000Z</time>
      </trkpt>
      <trkpt lat="45.89292" lon="7.10887">
        <ele>2078</ele>
        <time>2000-01-01T12:46:55.000Z</time>
      </trkpt>
      <trkpt lat="45.89299" lon="7.10837">
        <ele>2070</ele>
        <time>2000-01-01T12:47:05.000Z</time>
      </trkpt>
      <trkpt lat="45.89307" lon="7.10779">
        <ele>2050</ele>
        <time>2000-01-01T12:47:15.000Z</time>
      </trkpt>
      <trkpt lat="45.8932" lon="7.10767">
        <ele>2037.6</ele>
        <time>2000-01-01T12:47:25.000Z</time>
      </trkpt>
      <trkpt lat="45.89397" lon="7.10822">
        <ele>2048</ele>
        <time>2000-01-01T12:47:35.000Z</time>
      </trkpt>
      <trkpt lat="45.89414" lon="7.1085">
        <ele>2046</ele>
        <time>2000-01-01T12:47:45.000Z</time>
      </trkpt>
      <trkpt lat="45.89436" lon="7.10886">
        <ele>2043</ele>
        <time>2000-01-01T12:47:55.000Z</time>
      </trkpt>
      <trkpt lat="45.89448" lon="7.10922">
        <ele>2046</ele>
        <time>2000-01-01T12:48:05.000Z</time>
      </trkpt>
      <trkpt lat="45.89467" lon="7.10977">
        <ele>2050</ele>
        <time>2000-01-01T12:48:15.000Z</time>
      </trkpt>
      <trkpt lat="45.89497" lon="7.11014">
        <ele>2059</ele>
        <time>2000-01-01T12:48:25.000Z</time>
      </trkpt>
      <trkpt lat="45.89527" lon="7.1105">
        <ele>2068</ele>
        <time>2000-01-01T12:48:35.000Z</time>
      </trkpt>
      <trkpt lat="45.89557" lon="7.11087">
        <ele>2069</ele>
        <time>2000-01-01T12:48:45.000Z</time>
      </trkpt>
      <trkpt lat="45.89587" lon="7.11124">
        <ele>2077</ele>
        <time>2000-01-01T12:48:55.000Z</time>
      </trkpt>
      <trkpt lat="45.89617" lon="7.1116">
        <ele>2083</ele>
        <time>2000-01-01T12:49:05.000Z</time>
      </trkpt>
      <trkpt lat="45.89655" lon="7.11207">
        <ele>2079</ele>
        <time>2000-01-01T12:49:15.000Z</time>
      </trkpt>
      <trkpt lat="45.89692" lon="7.11218">
        <ele>2079</ele>
        <time>2000-01-01T12:49:25.000Z</time>
      </trkpt>
      <trkpt lat="45.89728" lon="7.1123">
        <ele>2079</ele>
        <time>2000-01-01T12:49:35.000Z</time>
      </trkpt>
      <trkpt lat="45.89765" lon="7.11241">
        <ele>2079</ele>
        <time>2000-01-01T12:49:45.000Z</time>
      </trkpt>
      <trkpt lat="45.89802" lon="7.11252">
        <ele>2085</ele>
        <time>2000-01-01T12:49:55.000Z</time>
      </trkpt>
      <trkpt lat="45.89839" lon="7.11264">
        <ele>2097</ele>
        <time>2000-01-01T12:50:05.000Z</time>
      </trkpt>
      <trkpt lat="45.89866" lon="7.11266">
        <ele>2089</ele>
        <time>2000-01-01T12:50:15.000Z</time>
      </trkpt>
      <trkpt lat="45.89903" lon="7.1127">
        <ele>2091</ele>
        <time>2000-01-01T12:50:25.000Z</time>
      </trkpt>
      <trkpt lat="45.89927" lon="7.11288">
        <ele>2089</ele>
        <time>2000-01-01T12:50:35.000Z</time>
      </trkpt>
      <trkpt lat="45.89958" lon="7.11313">
        <ele>2087</ele>
        <time>2000-01-01T12:50:45.000Z</time>
      </trkpt>
      <trkpt lat="45.89989" lon="7.11323">
        <ele>2084</ele>
        <time>2000-01-01T12:50:55.000Z</time>
      </trkpt>
      <trkpt lat="45.90019" lon="7.11332">
        <ele>2081</ele>
        <time>2000-01-01T12:51:05.000Z</time>
      </trkpt>
      <trkpt lat="45.90051" lon="7.11342">
        <ele>2072</ele>
        <time>2000-01-01T12:51:15.000Z</time>
      </trkpt>
      <trkpt lat="45.90078" lon="7.11328">
        <ele>2072</ele>
        <time>2000-01-01T12:51:25.000Z</time>
      </trkpt>
      <trkpt lat="45.90122" lon="7.11306">
        <ele>2072</ele>
        <time>2000-01-01T12:51:35.000Z</time>
      </trkpt>
      <trkpt lat="45.90157" lon="7.11301">
        <ele>2070</ele>
        <time>2000-01-01T12:51:45.000Z</time>
      </trkpt>
      <trkpt lat="45.90192" lon="7.11296">
        <ele>2069</ele>
        <time>2000-01-01T12:51:55.000Z</time>
      </trkpt>
      <trkpt lat="45.90261" lon="7.11286">
        <ele>2059</ele>
        <time>2000-01-01T12:52:05.000Z</time>
      </trkpt>
      <trkpt lat="45.9028" lon="7.11237">
        <ele>2049</ele>
        <time>2000-01-01T12:52:15.000Z</time>
      </trkpt>
      <trkpt lat="45.90305" lon="7.11214">
        <ele>2044</ele>
        <time>2000-01-01T12:52:25.000Z</time>
      </trkpt>
      <trkpt lat="45.90351" lon="7.11172">
        <ele>2048</ele>
        <time>2000-01-01T12:52:35.000Z</time>
      </trkpt>
      <trkpt lat="45.90348" lon="7.11106">
        <ele>2045</ele>
        <time>2000-01-01T12:52:45.000Z</time>
      </trkpt>
      <trkpt lat="45.90364" lon="7.11071">
        <ele>2043</ele>
        <time>2000-01-01T12:52:55.000Z</time>
      </trkpt>
      <trkpt lat="45.90388" lon="7.11085">
        <ele>2032</ele>
        <time>2000-01-01T12:53:05.000Z</time>
      </trkpt>
      <trkpt lat="45.9042" lon="7.11071">
        <ele>2028</ele>
        <time>2000-01-01T12:53:15.000Z</time>
      </trkpt>
      <trkpt lat="45.90451" lon="7.11057">
        <ele>2025</ele>
        <time>2000-01-01T12:53:25.000Z</time>
      </trkpt>
      <trkpt lat="45.90495" lon="7.11037">
        <ele>2012</ele>
        <time>2000-01-01T12:53:35.000Z</time>
      </trkpt>
      <trkpt lat="45.90513" lon="7.11">
        <ele>1999</ele>
        <time>2000-01-01T12:53:45.000Z</time>
      </trkpt>
      <trkpt lat="45.90532" lon="7.10963">
        <ele>1984</ele>
        <time>2000-01-01T12:53:55.000Z</time>
      </trkpt>
      <trkpt lat="45.90551" lon="7.10925">
        <ele>1981</ele>
        <time>2000-01-01T12:54:05.000Z</time>
      </trkpt>
      <trkpt lat="45.90573" lon="7.10897">
        <ele>1979</ele>
        <time>2000-01-01T12:54:15.000Z</time>
      </trkpt>
      <trkpt lat="45.90608" lon="7.10851">
        <ele>1978</ele>
        <time>2000-01-01T12:54:25.000Z</time>
      </trkpt>
      <trkpt lat="45.90607" lon="7.10812">
        <ele>1978</ele>
        <time>2000-01-01T12:54:35.000Z</time>
      </trkpt>
      <trkpt lat="45.90605" lon="7.10757">
        <ele>1977</ele>
        <time>2000-01-01T12:54:45.000Z</time>
      </trkpt>
      <trkpt lat="45.90615" lon="7.10744">
        <ele>1953.8</ele>
        <time>2000-01-01T12:54:55.000Z</time>
      </trkpt>
      <trkpt lat="45.90658" lon="7.1074">
        <ele>1977</ele>
        <time>2000-01-01T12:55:05.000Z</time>
      </trkpt>
      <trkpt lat="45.90677" lon="7.107">
        <ele>1977</ele>
        <time>2000-01-01T12:55:15.000Z</time>
      </trkpt>
      <trkpt lat="45.90702" lon="7.10693">
        <ele>1977</ele>
        <time>2000-01-01T12:55:25.000Z</time>
      </trkpt>
      <trkpt lat="45.90732" lon="7.10685">
        <ele>1974</ele>
        <time>2000-01-01T12:55:35.000Z</time>
      </trkpt>
      <trkpt lat="45.90757" lon="7.10641">
        <ele>1971</ele>
        <time>2000-01-01T12:55:45.000Z</time>
      </trkpt>
      <trkpt lat="45.90776" lon="7.10599">
        <ele>1976</ele>
        <time>2000-01-01T12:55:55.000Z</time>
      </trkpt>
      <trkpt lat="45.90794" lon="7.10557">
        <ele>1982</ele>
        <time>2000-01-01T12:56:05.000Z</time>
      </trkpt>
      <trkpt lat="45.90828" lon="7.1048">
        <ele>1997</ele>
        <time>2000-01-01T12:56:15.000Z</time>
      </trkpt>
      <trkpt lat="45.90825" lon="7.10433">
        <ele>1999</ele>
        <time>2000-01-01T12:56:25.000Z</time>
      </trkpt>
      <trkpt lat="45.90821" lon="7.10386">
        <ele>2001</ele>
        <time>2000-01-01T12:56:35.000Z</time>
      </trkpt>
      <trkpt lat="45.90817" lon="7.10324">
        <ele>2002</ele>
        <time>2000-01-01T12:56:45.000Z</time>
      </trkpt>
      <trkpt lat="45.90827" lon="7.10286">
        <ele>2004</ele>
        <time>2000-01-01T12:56:55.000Z</time>
      </trkpt>
      <trkpt lat="45.90842" lon="7.10231">
        <ele>2020</ele>
        <time>2000-01-01T12:57:05.000Z</time>
      </trkpt>
      <trkpt lat="45.90863" lon="7.102">
        <ele>2020</ele>
        <time>2000-01-01T12:57:15.000Z</time>
      </trkpt>
      <trkpt lat="45.909" lon="7.10143">
        <ele>2016</ele>
        <time>2000-01-01T12:57:25.000Z</time>
      </trkpt>
      <trkpt lat="45.90907" lon="7.10101">
        <ele>2016</ele>
        <time>2000-01-01T12:57:35.000Z</time>
      </trkpt>
      <trkpt lat="45.90919" lon="7.10027">
        <ele>2013</ele>
        <time>2000-01-01T12:57:45.000Z</time>
      </trkpt>
      <trkpt lat="45.90959" lon="7.09996">
        <ele>2011</ele>
        <time>2000-01-01T12:57:55.000Z</time>
      </trkpt>
      <trkpt lat="45.90987" lon="7.09986">
        <ele>2003</ele>
        <time>2000-01-01T12:58:05.000Z</time>
      </trkpt>
      <trkpt lat="45.91033" lon="7.09969">
        <ele>1986</ele>
        <time>2000-01-01T12:58:15.000Z</time>
      </trkpt>
      <trkpt lat="45.91062" lon="7.09978">
        <ele>1976</ele>
        <time>2000-01-01T12:58:25.000Z</time>
      </trkpt>
      <trkpt lat="45.9111" lon="7.09992">
        <ele>1948</ele>
        <time>2000-01-01T12:58:35.000Z</time>
      </trkpt>
      <trkpt lat="45.91153" lon="7.09982">
        <ele>1949</ele>
        <time>2000-01-01T12:58:45.000Z</time>
      </trkpt>
      <trkpt lat="45.91141" lon="7.09931">
        <ele>1951</ele>
        <time>2000-01-01T12:58:55.000Z</time>
      </trkpt>
      <trkpt lat="45.91129" lon="7.09879">
        <ele>1950</ele>
        <time>2000-01-01T12:59:05.000Z</time>
      </trkpt>
      <trkpt lat="45.91118" lon="7.09828">
        <ele>1949</ele>
        <time>2000-01-01T12:59:15.000Z</time>
      </trkpt>
      <trkpt lat="45.91106" lon="7.09777">
        <ele>1947</ele>
        <time>2000-01-01T12:59:25.000Z</time>
      </trkpt>
      <trkpt lat="45.91094" lon="7.09725">
        <ele>1946</ele>
        <time>2000-01-01T12:59:35.000Z</time>
      </trkpt>
      <trkpt lat="45.91126" lon="7.09694">
        <ele>1939</ele>
        <time>2000-01-01T12:59:45.000Z</time>
      </trkpt>
      <trkpt lat="45.9111" lon="7.0964">
        <ele>1931</ele>
        <time>2000-01-01T12:59:55.000Z</time>
      </trkpt>
      <trkpt lat="45.91126" lon="7.09607">
        <ele>1931</ele>
        <time>2000-01-01T13:00:05.000Z</time>
      </trkpt>
      <trkpt lat="45.91159" lon="7.09621">
        <ele>1917</ele>
        <time>2000-01-01T13:00:15.000Z</time>
      </trkpt>
      <trkpt lat="45.91178" lon="7.09654">
        <ele>1909</ele>
        <time>2000-01-01T13:00:25.000Z</time>
      </trkpt>
      <trkpt lat="45.9121" lon="7.09713">
        <ele>1896</ele>
        <time>2000-01-01T13:00:35.000Z</time>
      </trkpt>
      <trkpt lat="45.91232" lon="7.09761">
        <ele>1884</ele>
        <time>2000-01-01T13:00:45.000Z</time>
      </trkpt>
      <trkpt lat="45.91255" lon="7.09808">
        <ele>1874</ele>
        <time>2000-01-01T13:00:55.000Z</time>
      </trkpt>
      <trkpt lat="45.91277" lon="7.09856">
        <ele>1870</ele>
        <time>2000-01-01T13:01:05.000Z</time>
      </trkpt>
      <trkpt lat="45.913" lon="7.09903">
        <ele>1867</ele>
        <time>2000-01-01T13:01:15.000Z</time>
      </trkpt>
      <trkpt lat="45.91322" lon="7.09951">
        <ele>1852</ele>
        <time>2000-01-01T13:01:25.000Z</time>
      </trkpt>
      <trkpt lat="45.91362" lon="7.10036">
        <ele>1843</ele>
        <time>2000-01-01T13:01:35.000Z</time>
      </trkpt>
      <trkpt lat="45.91396" lon="7.10026">
        <ele>1837</ele>
        <time>2000-01-01T13:01:45.000Z</time>
      </trkpt>
      <trkpt lat="45.91431" lon="7.1004">
        <ele>1825</ele>
        <time>2000-01-01T13:01:55.000Z</time>
      </trkpt>
      <trkpt lat="45.91465" lon="7.10054">
        <ele>1799</ele>
        <time>2000-01-01T13:02:05.000Z</time>
      </trkpt>
      <trkpt lat="45.915" lon="7.10068">
        <ele>1785</ele>
        <time>2000-01-01T13:02:15.000Z</time>
      </trkpt>
      <trkpt lat="45.91543" lon="7.10085">
        <ele>1782</ele>
        <time>2000-01-01T13:02:25.000Z</time>
      </trkpt>
      <trkpt lat="45.91541" lon="7.10116">
        <ele>1784</ele>
        <time>2000-01-01T13:02:35.000Z</time>
      </trkpt>
      <trkpt lat="45.91557" lon="7.10119">
        <ele>1760.5</ele>
        <time>2000-01-01T13:02:45.000Z</time>
      </trkpt>
      <trkpt lat="45.91509" lon="7.10162">
        <ele>1769</ele>
        <time>2000-01-01T13:02:55.000Z</time>
      </trkpt>
      <trkpt lat="45.91505" lon="7.10183">
        <ele>1745.2</ele>
        <time>2000-01-01T13:03:05.000Z</time>
      </trkpt>
      <trkpt lat="45.91538" lon="7.1023">
        <ele>1755</ele>
        <time>2000-01-01T13:03:15.000Z</time>
      </trkpt>
      <trkpt lat="45.91547" lon="7.10261">
        <ele>1746</ele>
        <time>2000-01-01T13:03:25.000Z</time>
      </trkpt>
      <trkpt lat="45.91557" lon="7.10293">
        <ele>1733</ele>
        <time>2000-01-01T13:03:35.000Z</time>
      </trkpt>
      <trkpt lat="45.91573" lon="7.10301">
        <ele>1707.8</ele>
        <time>2000-01-01T13:03:45.000Z</time>
      </trkpt>
      <trkpt lat="45.91542" lon="7.10362">
        <ele>1720</ele>
        <time>2000-01-01T13:03:55.000Z</time>
      </trkpt>
      <trkpt lat="45.91552" lon="7.10395">
        <ele>1691</ele>
        <time>2000-01-01T13:04:05.000Z</time>
      </trkpt>
      <trkpt lat="45.91564" lon="7.10395">
        <ele>1684.8</ele>
        <time>2000-01-01T13:04:15.000Z</time>
      </trkpt>
      <trkpt lat="45.91628" lon="7.10351">
        <ele>1677</ele>
        <time>2000-01-01T13:04:25.000Z</time>
      </trkpt>
      <trkpt lat="45.91644" lon="7.10321">
        <ele>1677</ele>
        <time>2000-01-01T13:04:35.000Z</time>
      </trkpt>
      <trkpt lat="45.91665" lon="7.10281">
        <ele>1677</ele>
        <time>2000-01-01T13:04:45.000Z</time>
      </trkpt>
      <trkpt lat="45.91693" lon="7.10255">
        <ele>1670</ele>
        <time>2000-01-01T13:04:55.000Z</time>
      </trkpt>
      <trkpt lat="45.91721" lon="7.10229">
        <ele>1671</ele>
        <time>2000-01-01T13:05:05.000Z</time>
      </trkpt>
      <trkpt lat="45.91762" lon="7.10192">
        <ele>1672</ele>
        <time>2000-01-01T13:05:15.000Z</time>
      </trkpt>
      <trkpt lat="45.91778" lon="7.10159">
        <ele>1676</ele>
        <time>2000-01-01T13:05:25.000Z</time>
      </trkpt>
      <trkpt lat="45.91801" lon="7.1011">
        <ele>1681</ele>
        <time>2000-01-01T13:05:35.000Z</time>
      </trkpt>
      <trkpt lat="45.91802" lon="7.10072">
        <ele>1681</ele>
        <time>2000-01-01T13:05:45.000Z</time>
      </trkpt>
      <trkpt lat="45.91833" lon="7.10085">
        <ele>1681</ele>
        <time>2000-01-01T13:05:55.000Z</time>
      </trkpt>
      <trkpt lat="45.91864" lon="7.10099">
        <ele>1679</ele>
        <time>2000-01-01T13:06:05.000Z</time>
      </trkpt>
      <trkpt lat="45.919" lon="7.10115">
        <ele>1675</ele>
        <time>2000-01-01T13:06:15.000Z</time>
      </trkpt>
      <trkpt lat="45.91946" lon="7.10107">
        <ele>1660</ele>
        <time>2000-01-01T13:06:25.000Z</time>
      </trkpt>
      <trkpt lat="45.91946" lon="7.10138">
        <ele>1660</ele>
        <time>2000-01-01T13:06:35.000Z</time>
      </trkpt>
      <trkpt lat="45.91968" lon="7.10152">
        <ele>1650</ele>
        <time>2000-01-01T13:06:45.000Z</time>
      </trkpt>
      <trkpt lat="45.91992" lon="7.10127">
        <ele>1648</ele>
        <time>2000-01-01T13:06:55.000Z</time>
      </trkpt>
      <trkpt lat="45.92031" lon="7.10087">
        <ele>1640</ele>
        <time>2000-01-01T13:07:05.000Z</time>
      </trkpt>
      <trkpt lat="45.92064" lon="7.10075">
        <ele>1634</ele>
        <time>2000-01-01T13:07:15.000Z</time>
      </trkpt>
      <trkpt lat="45.92097" lon="7.10064">
        <ele>1633</ele>
        <time>2000-01-01T13:07:25.000Z</time>
      </trkpt>
      <trkpt lat="45.92149" lon="7.10045">
        <ele>1632</ele>
        <time>2000-01-01T13:07:35.000Z</time>
      </trkpt>
      <trkpt lat="45.92176" lon="7.10023">
        <ele>1632</ele>
        <time>2000-01-01T13:07:45.000Z</time>
      </trkpt>
      <trkpt lat="45.92231" lon="7.0998">
        <ele>1631</ele>
        <time>2000-01-01T13:07:55.000Z</time>
      </trkpt>
      <trkpt lat="45.9226" lon="7.09944">
        <ele>1631</ele>
        <time>2000-01-01T13:08:05.000Z</time>
      </trkpt>
      <trkpt lat="45.92289" lon="7.09908">
        <ele>1630</ele>
        <time>2000-01-01T13:08:15.000Z</time>
      </trkpt>
      <trkpt lat="45.92319" lon="7.09872">
        <ele>1630</ele>
        <time>2000-01-01T13:08:25.000Z</time>
      </trkpt>
      <trkpt lat="45.92348" lon="7.09836">
        <ele>1624</ele>
        <time>2000-01-01T13:08:35.000Z</time>
      </trkpt>
      <trkpt lat="45.92394" lon="7.09779">
        <ele>1621</ele>
        <time>2000-01-01T13:08:45.000Z</time>
      </trkpt>
      <trkpt lat="45.92424" lon="7.09751">
        <ele>1620</ele>
        <time>2000-01-01T13:08:55.000Z</time>
      </trkpt>
      <trkpt lat="45.92454" lon="7.09724">
        <ele>1620</ele>
        <time>2000-01-01T13:09:05.000Z</time>
      </trkpt>
      <trkpt lat="45.92483" lon="7.09696">
        <ele>1621</ele>
        <time>2000-01-01T13:09:15.000Z</time>
      </trkpt>
      <trkpt lat="45.92516" lon="7.09666">
        <ele>1622</ele>
        <time>2000-01-01T13:09:25.000Z</time>
      </trkpt>
      <trkpt lat="45.92539" lon="7.09653">
        <ele>1615</ele>
        <time>2000-01-01T13:09:35.000Z</time>
      </trkpt>
      <trkpt lat="45.92566" lon="7.09639">
        <ele>1609</ele>
        <time>2000-01-01T13:09:45.000Z</time>
      </trkpt>
      <trkpt lat="45.92595" lon="7.09659">
        <ele>1606</ele>
        <time>2000-01-01T13:09:55.000Z</time>
      </trkpt>
      <trkpt lat="45.92624" lon="7.09662">
        <ele>1604</ele>
        <time>2000-01-01T13:10:05.000Z</time>
      </trkpt>
      <trkpt lat="45.92674" lon="7.09668">
        <ele>1603</ele>
        <time>2000-01-01T13:10:15.000Z</time>
      </trkpt>
      <trkpt lat="45.92704" lon="7.0966">
        <ele>1598</ele>
        <time>2000-01-01T13:10:25.000Z</time>
      </trkpt>
      <trkpt lat="45.92759" lon="7.09644">
        <ele>1598</ele>
        <time>2000-01-01T13:10:35.000Z</time>
      </trkpt>
      <trkpt lat="45.92785" lon="7.09619">
        <ele>1596</ele>
        <time>2000-01-01T13:10:45.000Z</time>
      </trkpt>
      <trkpt lat="45.92812" lon="7.09593">
        <ele>1596</ele>
        <time>2000-01-01T13:10:55.000Z</time>
      </trkpt>
      <trkpt lat="45.9284" lon="7.09566">
        <ele>1596</ele>
        <time>2000-01-01T13:11:05.000Z</time>
      </trkpt>
      <trkpt lat="45.92863" lon="7.09554">
        <ele>1604</ele>
        <time>2000-01-01T13:11:15.000Z</time>
      </trkpt>
      <trkpt lat="45.9289" lon="7.0954">
        <ele>1608</ele>
        <time>2000-01-01T13:11:25.000Z</time>
      </trkpt>
      <trkpt lat="45.92914" lon="7.0955">
        <ele>1624</ele>
        <time>2000-01-01T13:11:35.000Z</time>
      </trkpt>
      <trkpt lat="45.92938" lon="7.09568">
        <ele>1624</ele>
        <time>2000-01-01T13:11:45.000Z</time>
      </trkpt>
      <trkpt lat="45.9297" lon="7.09593">
        <ele>1622</ele>
        <time>2000-01-01T13:11:55.000Z</time>
      </trkpt>
      <trkpt lat="45.92999" lon="7.09627">
        <ele>1622</ele>
        <time>2000-01-01T13:12:05.000Z</time>
      </trkpt>
      <trkpt lat="45.93028" lon="7.09661">
        <ele>1622</ele>
        <time>2000-01-01T13:12:15.000Z</time>
      </trkpt>
      <trkpt lat="45.93057" lon="7.09696">
        <ele>1624</ele>
        <time>2000-01-01T13:12:25.000Z</time>
      </trkpt>
      <trkpt lat="45.93086" lon="7.0973">
        <ele>1627</ele>
        <time>2000-01-01T13:12:35.000Z</time>
      </trkpt>
      <trkpt lat="45.93118" lon="7.09767">
        <ele>1624</ele>
        <time>2000-01-01T13:12:45.000Z</time>
      </trkpt>
      <trkpt lat="45.93139" lon="7.09799">
        <ele>1621</ele>
        <time>2000-01-01T13:12:55.000Z</time>
      </trkpt>
      <trkpt lat="45.93176" lon="7.09857">
        <ele>1616</ele>
        <time>2000-01-01T13:13:05.000Z</time>
      </trkpt>
      <trkpt lat="45.93212" lon="7.09858">
        <ele>1590</ele>
        <time>2000-01-01T13:13:15.000Z</time>
      </trkpt>
      <trkpt lat="45.93248" lon="7.09859">
        <ele>1586</ele>
        <time>2000-01-01T13:13:25.000Z</time>
      </trkpt>
      <trkpt lat="45.93284" lon="7.0986">
        <ele>1586</ele>
        <time>2000-01-01T13:13:35.000Z</time>
      </trkpt>
      <trkpt lat="45.93331" lon="7.09861">
        <ele>1587</ele>
        <time>2000-01-01T13:13:45.000Z</time>
      </trkpt>
      <trkpt lat="45.93334" lon="7.09895">
        <ele>1592</ele>
        <time>2000-01-01T13:13:55.000Z</time>
      </trkpt>
      <trkpt lat="45.93338" lon="7.0993">
        <ele>1596</ele>
        <time>2000-01-01T13:14:05.000Z</time>
      </trkpt>
      <trkpt lat="45.93372" lon="7.09922">
        <ele>1597</ele>
        <time>2000-01-01T13:14:15.000Z</time>
      </trkpt>
      <trkpt lat="45.93407" lon="7.09914">
        <ele>1596</ele>
        <time>2000-01-01T13:14:25.000Z</time>
      </trkpt>
      <trkpt lat="45.93471" lon="7.09899">
        <ele>1596</ele>
        <time>2000-01-01T13:14:35.000Z</time>
      </trkpt>
      <trkpt lat="45.93504" lon="7.09898">
        <ele>1598</ele>
        <time>2000-01-01T13:14:45.000Z</time>
      </trkpt>
      <trkpt lat="45.93537" lon="7.09897">
        <ele>1598</ele>
        <time>2000-01-01T13:14:55.000Z</time>
      </trkpt>
      <trkpt lat="45.93581" lon="7.09896">
        <ele>1602</ele>
        <time>2000-01-01T13:15:05.000Z</time>
      </trkpt>
      <trkpt lat="45.93612" lon="7.09904">
        <ele>1602</ele>
        <time>2000-01-01T13:15:15.000Z</time>
      </trkpt>
      <trkpt lat="45.93673" lon="7.09921">
        <ele>1603</ele>
        <time>2000-01-01T13:15:25.000Z</time>
      </trkpt>
      <trkpt lat="45.93697" lon="7.09944">
        <ele>1606</ele>
        <time>2000-01-01T13:15:35.000Z</time>
      </trkpt>
      <trkpt lat="45.93733" lon="7.09979">
        <ele>1602</ele>
        <time>2000-01-01T13:15:45.000Z</time>
      </trkpt>
      <trkpt lat="45.93771" lon="7.09987">
        <ele>1604</ele>
        <time>2000-01-01T13:15:55.000Z</time>
      </trkpt>
      <trkpt lat="45.93794" lon="7.10018">
        <ele>1607</ele>
        <time>2000-01-01T13:16:05.000Z</time>
      </trkpt>
      <trkpt lat="45.93817" lon="7.10049">
        <ele>1611</ele>
        <time>2000-01-01T13:16:15.000Z</time>
      </trkpt>
      <trkpt lat="45.93841" lon="7.10082">
        <ele>1617</ele>
        <time>2000-01-01T13:16:25.000Z</time>
      </trkpt>
      <trkpt lat="45.93854" lon="7.10137">
        <ele>1619</ele>
        <time>2000-01-01T13:16:35.000Z</time>
      </trkpt>
      <trkpt lat="45.93867" lon="7.10192">
        <ele>1626</ele>
        <time>2000-01-01T13:16:45.000Z</time>
      </trkpt>
      <trkpt lat="45.9388" lon="7.10247">
        <ele>1630</ele>
        <time>2000-01-01T13:16:55.000Z</time>
      </trkpt>
      <trkpt lat="45.93893" lon="7.10302">
        <ele>1639</ele>
        <time>2000-01-01T13:17:05.000Z</time>
      </trkpt>
      <trkpt lat="45.93906" lon="7.10357">
        <ele>1641</ele>
        <time>2000-01-01T13:17:15.000Z</time>
      </trkpt>
      <trkpt lat="45.93919" lon="7.10412">
        <ele>1639</ele>
        <time>2000-01-01T13:17:25.000Z</time>
      </trkpt>
      <trkpt lat="45.93935" lon="7.10481">
        <ele>1637</ele>
        <time>2000-01-01T13:17:35.000Z</time>
      </trkpt>
      <trkpt lat="45.93972" lon="7.1049">
        <ele>1634</ele>
        <time>2000-01-01T13:17:45.000Z</time>
      </trkpt>
      <trkpt lat="45.93993" lon="7.10514">
        <ele>1636</ele>
        <time>2000-01-01T13:17:55.000Z</time>
      </trkpt>
      <trkpt lat="45.9402" lon="7.10547">
        <ele>1632</ele>
        <time>2000-01-01T13:18:05.000Z</time>
      </trkpt>
      <trkpt lat="45.94049" lon="7.10557">
        <ele>1629</ele>
        <time>2000-01-01T13:18:15.000Z</time>
      </trkpt>
      <trkpt lat="45.94071" lon="7.10582">
        <ele>1629</ele>
        <time>2000-01-01T13:18:25.000Z</time>
      </trkpt>
      <trkpt lat="45.94104" lon="7.10619">
        <ele>1630</ele>
        <time>2000-01-01T13:18:35.000Z</time>
      </trkpt>
      <trkpt lat="45.94121" lon="7.10673">
        <ele>1630</ele>
        <time>2000-01-01T13:18:45.000Z</time>
      </trkpt>
      <trkpt lat="45.94127" lon="7.10629">
        <ele>1630</ele>
        <time>2000-01-01T13:18:55.000Z</time>
      </trkpt>
      <trkpt lat="45.94111" lon="7.10585">
        <ele>1628</ele>
        <time>2000-01-01T13:19:05.000Z</time>
      </trkpt>
      <trkpt lat="45.94119" lon="7.1055">
        <ele>1627</ele>
        <time>2000-01-01T13:19:15.000Z</time>
      </trkpt>
      <trkpt lat="45.94129" lon="7.10508">
        <ele>1624</ele>
        <time>2000-01-01T13:19:25.000Z</time>
      </trkpt>
      <trkpt lat="45.9412" lon="7.10466">
        <ele>1620</ele>
        <time>2000-01-01T13:19:35.000Z</time>
      </trkpt>
      <trkpt lat="45.9413" lon="7.10449">
        <ele>1606.4</ele>
        <time>2000-01-01T13:19:45.000Z</time>
      </trkpt>
      <trkpt lat="45.94165" lon="7.1045">
        <ele>1615</ele>
        <time>2000-01-01T13:19:55.000Z</time>
      </trkpt>
      <trkpt lat="45.94192" lon="7.10477">
        <ele>1610</ele>
        <time>2000-01-01T13:20:05.000Z</time>
      </trkpt>
      <trkpt lat="45.94219" lon="7.10503">
        <ele>1605</ele>
        <time>2000-01-01T13:20:15.000Z</time>
      </trkpt>
      <trkpt lat="45.94255" lon="7.10539">
        <ele>1600</ele>
        <time>2000-01-01T13:20:25.000Z</time>
      </trkpt>
      <trkpt lat="45.94278" lon="7.10579">
        <ele>1599</ele>
        <time>2000-01-01T13:20:35.000Z</time>
      </trkpt>
      <trkpt lat="45.94301" lon="7.10619">
        <ele>1597</ele>
        <time>2000-01-01T13:20:45.000Z</time>
      </trkpt>
      <trkpt lat="45.94325" lon="7.10659">
        <ele>1595</ele>
        <time>2000-01-01T13:20:55.000Z</time>
      </trkpt>
      <trkpt lat="45.94358" lon="7.10717">
        <ele>1594</ele>
        <time>2000-01-01T13:21:05.000Z</time>
      </trkpt>
      <trkpt lat="45.9439" lon="7.10722">
        <ele>1594</ele>
        <time>2000-01-01T13:21:15.000Z</time>
      </trkpt>
      <trkpt lat="45.94422" lon="7.10726">
        <ele>1590</ele>
        <time>2000-01-01T13:21:25.000Z</time>
      </trkpt>
      <trkpt lat="45.94461" lon="7.10732">
        <ele>1579</ele>
        <time>2000-01-01T13:21:35.000Z</time>
      </trkpt>
      <trkpt lat="45.9449" lon="7.1076">
        <ele>1572</ele>
        <time>2000-01-01T13:21:45.000Z</time>
      </trkpt>
      <trkpt lat="45.9452" lon="7.10788">
        <ele>1572</ele>
        <time>2000-01-01T13:21:55.000Z</time>
      </trkpt>
      <trkpt lat="45.94549" lon="7.10816">
        <ele>1568</ele>
        <time>2000-01-01T13:22:05.000Z</time>
      </trkpt>
      <trkpt lat="45.9458" lon="7.10845">
        <ele>1564</ele>
        <time>2000-01-01T13:22:15.000Z</time>
      </trkpt>
      <trkpt lat="45.94616" lon="7.10859">
        <ele>1560</ele>
        <time>2000-01-01T13:22:25.000Z</time>
      </trkpt>
      <trkpt lat="45.94652" lon="7.10873">
        <ele>1560</ele>
        <time>2000-01-01T13:22:35.000Z</time>
      </trkpt>
      <trkpt lat="45.94687" lon="7.10886">
        <ele>1562</ele>
        <time>2000-01-01T13:22:45.000Z</time>
      </trkpt>
      <trkpt lat="45.94751" lon="7.10911">
        <ele>1564</ele>
        <time>2000-01-01T13:22:55.000Z</time>
      </trkpt>
      <trkpt lat="45.94775" lon="7.10932">
        <ele>1573</ele>
        <time>2000-01-01T13:23:05.000Z</time>
      </trkpt>
      <trkpt lat="45.94798" lon="7.10974">
        <ele>1579</ele>
        <time>2000-01-01T13:23:15.000Z</time>
      </trkpt>
      <trkpt lat="45.94821" lon="7.11015">
        <ele>1583</ele>
        <time>2000-01-01T13:23:25.000Z</time>
      </trkpt>
      <trkpt lat="45.94844" lon="7.11057">
        <ele>1590</ele>
        <time>2000-01-01T13:23:35.000Z</time>
      </trkpt>
      <trkpt lat="45.94886" lon="7.11132">
        <ele>1590</ele>
        <time>2000-01-01T13:23:45.000Z</time>
      </trkpt>
      <trkpt lat="45.94908" lon="7.11096">
        <ele>1589</ele>
        <time>2000-01-01T13:23:55.000Z</time>
      </trkpt>
      <trkpt lat="45.94922" lon="7.11121">
        <ele>1588</ele>
        <time>2000-01-01T13:24:05.000Z</time>
      </trkpt>
      <trkpt lat="45.94945" lon="7.11078">
        <ele>1584</ele>
        <time>2000-01-01T13:24:15.000Z</time>
      </trkpt>
      <trkpt lat="45.94976" lon="7.11071">
        <ele>1581</ele>
        <time>2000-01-01T13:24:25.000Z</time>
      </trkpt>
      <trkpt lat="45.95018" lon="7.11089">
        <ele>1579</ele>
        <time>2000-01-01T13:24:35.000Z</time>
      </trkpt>
      <trkpt lat="45.95028" lon="7.11125">
        <ele>1584</ele>
        <time>2000-01-01T13:24:45.000Z</time>
      </trkpt>
      <trkpt lat="45.95043" lon="7.11177">
        <ele>1589</ele>
        <time>2000-01-01T13:24:55.000Z</time>
      </trkpt>
      <trkpt lat="45.95061" lon="7.112">
        <ele>1591</ele>
        <time>2000-01-01T13:25:05.000Z</time>
      </trkpt>
      <trkpt lat="45.9508" lon="7.11225">
        <ele>1591</ele>
        <time>2000-01-01T13:25:15.000Z</time>
      </trkpt>
      <trkpt lat="45.95101" lon="7.11205">
        <ele>1591</ele>
        <time>2000-01-01T13:25:25.000Z</time>
      </trkpt>
      <trkpt lat="45.95124" lon="7.11183">
        <ele>1591</ele>
        <time>2000-01-01T13:25:35.000Z</time>
      </trkpt>
      <trkpt lat="45.95166" lon="7.112">
        <ele>1591</ele>
        <time>2000-01-01T13:25:45.000Z</time>
      </trkpt>
      <trkpt lat="45.952" lon="7.11238">
        <ele>1596</ele>
        <time>2000-01-01T13:25:55.000Z</time>
      </trkpt>
      <trkpt lat="45.95226" lon="7.11236">
        <ele>1594</ele>
        <time>2000-01-01T13:26:05.000Z</time>
      </trkpt>
      <trkpt lat="45.95261" lon="7.11233">
        <ele>1593</ele>
        <time>2000-01-01T13:26:15.000Z</time>
      </trkpt>
      <trkpt lat="45.95274" lon="7.11202">
        <ele>1566</ele>
        <time>2000-01-01T13:26:25.000Z</time>
      </trkpt>
      <trkpt lat="45.9529" lon="7.11164">
        <ele>1541</ele>
        <time>2000-01-01T13:26:35.000Z</time>
      </trkpt>
      <trkpt lat="45.95328" lon="7.11162">
        <ele>1530</ele>
        <time>2000-01-01T13:26:45.000Z</time>
      </trkpt>
      <trkpt lat="45.95365" lon="7.11159">
        <ele>1497</ele>
        <time>2000-01-01T13:26:55.000Z</time>
      </trkpt>
      <trkpt lat="45.95403" lon="7.11157">
        <ele>1497</ele>
        <time>2000-01-01T13:27:05.000Z</time>
      </trkpt>
      <trkpt lat="45.95441" lon="7.11155">
        <ele>1492</ele>
        <time>2000-01-01T13:27:15.000Z</time>
      </trkpt>
      <trkpt lat="45.95482" lon="7.11152">
        <ele>1502</ele>
        <time>2000-01-01T13:27:25.000Z</time>
      </trkpt>
      <trkpt lat="45.95512" lon="7.11175">
        <ele>1512</ele>
        <time>2000-01-01T13:27:35.000Z</time>
      </trkpt>
      <trkpt lat="45.95542" lon="7.11198">
        <ele>1511</ele>
        <time>2000-01-01T13:27:45.000Z</time>
      </trkpt>
      <trkpt lat="45.95594" lon="7.11237">
        <ele>1511</ele>
        <time>2000-01-01T13:27:55.000Z</time>
      </trkpt>
      <trkpt lat="45.95618" lon="7.11232">
        <ele>1501</ele>
        <time>2000-01-01T13:28:05.000Z</time>
      </trkpt>
      <trkpt lat="45.95644" lon="7.11226">
        <ele>1501</ele>
        <time>2000-01-01T13:28:15.000Z</time>
      </trkpt>
      <trkpt lat="45.95676" lon="7.11254">
        <ele>1514</ele>
        <time>2000-01-01T13:28:25.000Z</time>
      </trkpt>
      <trkpt lat="45.95708" lon="7.11281">
        <ele>1523</ele>
        <time>2000-01-01T13:28:35.000Z</time>
      </trkpt>
      <trkpt lat="45.9574" lon="7.11309">
        <ele>1532</ele>
        <time>2000-01-01T13:28:45.000Z</time>
      </trkpt>
      <trkpt lat="45.95804" lon="7.11364">
        <ele>1541</ele>
        <time>2000-01-01T13:28:55.000Z</time>
      </trkpt>
      <trkpt lat="45.9584" lon="7.11381">
        <ele>1539</ele>
        <time>2000-01-01T13:29:05.000Z</time>
      </trkpt>
      <trkpt lat="45.95877" lon="7.11398">
        <ele>1538</ele>
        <time>2000-01-01T13:29:15.000Z</time>
      </trkpt>
      <trkpt lat="45.95913" lon="7.11415">
        <ele>1536</ele>
        <time>2000-01-01T13:29:25.000Z</time>
      </trkpt>
      <trkpt lat="45.9595" lon="7.11431">
        <ele>1534</ele>
        <time>2000-01-01T13:29:35.000Z</time>
      </trkpt>
      <trkpt lat="45.96003" lon="7.11456">
        <ele>1533</ele>
        <time>2000-01-01T13:29:45.000Z</time>
      </trkpt>
      <trkpt lat="45.96017" lon="7.1151">
        <ele>1533</ele>
        <time>2000-01-01T13:29:55.000Z</time>
      </trkpt>
      <trkpt lat="45.96004" lon="7.11556">
        <ele>1532</ele>
        <time>2000-01-01T13:30:05.000Z</time>
      </trkpt>
      <trkpt lat="45.95992" lon="7.11601">
        <ele>1534</ele>
        <time>2000-01-01T13:30:15.000Z</time>
      </trkpt>
      <trkpt lat="45.9597" lon="7.1168">
        <ele>1537</ele>
        <time>2000-01-01T13:30:25.000Z</time>
      </trkpt>
      <trkpt lat="45.95985" lon="7.11719">
        <ele>1532</ele>
        <time>2000-01-01T13:30:35.000Z</time>
      </trkpt>
      <trkpt lat="45.96014" lon="7.11796">
        <ele>1528</ele>
        <time>2000-01-01T13:30:45.000Z</time>
      </trkpt>
      <trkpt lat="45.96011" lon="7.11752">
        <ele>1526</ele>
        <time>2000-01-01T13:30:55.000Z</time>
      </trkpt>
      <trkpt lat="45.96004" lon="7.11665">
        <ele>1526</ele>
        <time>2000-01-01T13:31:05.000Z</time>
      </trkpt>
      <trkpt lat="45.96025" lon="7.11627">
        <ele>1522</ele>
        <time>2000-01-01T13:31:15.000Z</time>
      </trkpt>
      <trkpt lat="45.96045" lon="7.1159">
        <ele>1518</ele>
        <time>2000-01-01T13:31:25.000Z</time>
      </trkpt>
      <trkpt lat="45.96076" lon="7.11534">
        <ele>1493</ele>
        <time>2000-01-01T13:31:35.000Z</time>
      </trkpt>
      <trkpt lat="45.96114" lon="7.11498">
        <ele>1485</ele>
        <time>2000-01-01T13:31:45.000Z</time>
      </trkpt>
      <trkpt lat="45.9613" lon="7.11507">
        <ele>1486.1</ele>
        <time>2000-01-01T13:31:55.000Z</time>
      </trkpt>
      <trkpt lat="45.96138" lon="7.11496">
        <ele>1479</ele>
        <time>2000-01-01T13:32:05.000Z</time>
      </trkpt>
      <trkpt lat="45.9615" lon="7.11445">
        <ele>1474</ele>
        <time>2000-01-01T13:32:15.000Z</time>
      </trkpt>
      <trkpt lat="45.96152" lon="7.1141">
        <ele>1467</ele>
        <time>2000-01-01T13:32:25.000Z</time>
      </trkpt>
      <trkpt lat="45.96154" lon="7.1137">
        <ele>1461</ele>
        <time>2000-01-01T13:32:35.000Z</time>
      </trkpt>
      <trkpt lat="45.96147" lon="7.11322">
        <ele>1447</ele>
        <time>2000-01-01T13:32:45.000Z</time>
      </trkpt>
      <trkpt lat="45.9614" lon="7.11275">
        <ele>1432</ele>
        <time>2000-01-01T13:32:55.000Z</time>
      </trkpt>
      <trkpt lat="45.96128" lon="7.11198">
        <ele>1431</ele>
        <time>2000-01-01T13:33:05.000Z</time>
      </trkpt>
      <trkpt lat="45.96156" lon="7.11193">
        <ele>1418</ele>
        <time>2000-01-01T13:33:15.000Z</time>
      </trkpt>
      <trkpt lat="45.962" lon="7.11186">
        <ele>1393</ele>
        <time>2000-01-01T13:33:25.000Z</time>
      </trkpt>
      <trkpt lat="45.96234" lon="7.11168">
        <ele>1388</ele>
        <time>2000-01-01T13:33:35.000Z</time>
      </trkpt>
      <trkpt lat="45.96268" lon="7.11149">
        <ele>1387</ele>
        <time>2000-01-01T13:33:45.000Z</time>
      </trkpt>
      <trkpt lat="45.96302" lon="7.11131">
        <ele>1387</ele>
        <time>2000-01-01T13:33:55.000Z</time>
      </trkpt>
      <trkpt lat="45.96349" lon="7.11105">
        <ele>1386</ele>
        <time>2000-01-01T13:34:05.000Z</time>
      </trkpt>
      <trkpt lat="45.96373" lon="7.11104">
        <ele>1384</ele>
        <time>2000-01-01T13:34:15.000Z</time>
      </trkpt>
      <trkpt lat="45.964" lon="7.11102">
        <ele>1381</ele>
        <time>2000-01-01T13:34:25.000Z</time>
      </trkpt>
      <trkpt lat="45.96428" lon="7.11112">
        <ele>1380</ele>
        <time>2000-01-01T13:34:35.000Z</time>
      </trkpt>
      <trkpt lat="45.96471" lon="7.11128">
        <ele>1380</ele>
        <time>2000-01-01T13:34:45.000Z</time>
      </trkpt>
      <trkpt lat="45.96494" lon="7.11153">
        <ele>1380</ele>
        <time>2000-01-01T13:34:55.000Z</time>
      </trkpt>
      <trkpt lat="45.96533" lon="7.11193">
        <ele>1380</ele>
        <time>2000-01-01T13:35:05.000Z</time>
      </trkpt>
      <trkpt lat="45.96535" lon="7.11234">
        <ele>1382</ele>
        <time>2000-01-01T13:35:15.000Z</time>
      </trkpt>
      <trkpt lat="45.96539" lon="7.11296">
        <ele>1382</ele>
        <time>2000-01-01T13:35:25.000Z</time>
      </trkpt>
      <trkpt lat="45.96558" lon="7.11326">
        <ele>1380</ele>
        <time>2000-01-01T13:35:35.000Z</time>
      </trkpt>
      <trkpt lat="45.96589" lon="7.11313">
        <ele>1378</ele>
        <time>2000-01-01T13:35:45.000Z</time>
      </trkpt>
      <trkpt lat="45.96605" lon="7.11286">
        <ele>1373</ele>
        <time>2000-01-01T13:35:55.000Z</time>
      </trkpt>
      <trkpt lat="45.96623" lon="7.11256">
        <ele>1373</ele>
        <time>2000-01-01T13:36:05.000Z</time>
      </trkpt>
      <trkpt lat="45.96649" lon="7.11257">
        <ele>1373</ele>
        <time>2000-01-01T13:36:15.000Z</time>
      </trkpt>
      <trkpt lat="45.96671" lon="7.11273">
        <ele>1384</ele>
        <time>2000-01-01T13:36:25.000Z</time>
      </trkpt>
      <trkpt lat="45.96694" lon="7.1129">
        <ele>1385</ele>
        <time>2000-01-01T13:36:35.000Z</time>
      </trkpt>
      <trkpt lat="45.96711" lon="7.11316">
        <ele>1383</ele>
        <time>2000-01-01T13:36:45.000Z</time>
      </trkpt>
      <trkpt lat="45.9673" lon="7.11346">
        <ele>1381</ele>
        <time>2000-01-01T13:36:55.000Z</time>
      </trkpt>
      <trkpt lat="45.96736" lon="7.11384">
        <ele>1374</ele>
        <time>2000-01-01T13:37:05.000Z</time>
      </trkpt>
      <trkpt lat="45.96744" lon="7.11434">
        <ele>1371</ele>
        <time>2000-01-01T13:37:15.000Z</time>
      </trkpt>
      <trkpt lat="45.96765" lon="7.11473">
        <ele>1370</ele>
        <time>2000-01-01T13:37:25.000Z</time>
      </trkpt>
      <trkpt lat="45.96787" lon="7.11512">
        <ele>1369</ele>
        <time>2000-01-01T13:37:35.000Z</time>
      </trkpt>
      <trkpt lat="45.96826" lon="7.11583">
        <ele>1365</ele>
        <time>2000-01-01T13:37:45.000Z</time>
      </trkpt>
      <trkpt lat="45.96846" lon="7.11609">
        <ele>1362</ele>
        <time>2000-01-01T13:37:55.000Z</time>
      </trkpt>
      <trkpt lat="45.96871" lon="7.11642">
        <ele>1359</ele>
        <time>2000-01-01T13:38:05.000Z</time>
      </trkpt>
      <trkpt lat="45.96893" lon="7.11658">
        <ele>1353</ele>
        <time>2000-01-01T13:38:15.000Z</time>
      </trkpt>
      <trkpt lat="45.96919" lon="7.11676">
        <ele>1341</ele>
        <time>2000-01-01T13:38:25.000Z</time>
      </trkpt>
      <trkpt lat="45.9695" lon="7.11719">
        <ele>1342</ele>
        <time>2000-01-01T13:38:35.000Z</time>
      </trkpt>
      <trkpt lat="45.96953" lon="7.11746">
        <ele>1342</ele>
        <time>2000-01-01T13:38:45.000Z</time>
      </trkpt>
      <trkpt lat="45.96974" lon="7.11766">
        <ele>1342</ele>
        <time>2000-01-01T13:38:55.000Z</time>
      </trkpt>
      <trkpt lat="45.96997" lon="7.11788">
        <ele>1342</ele>
        <time>2000-01-01T13:39:05.000Z</time>
      </trkpt>
      <trkpt lat="45.96996" lon="7.11822">
        <ele>1342</ele>
        <time>2000-01-01T13:39:15.000Z</time>
      </trkpt>
      <trkpt lat="45.96971" lon="7.11832">
        <ele>1349</ele>
        <time>2000-01-01T13:39:25.000Z</time>
      </trkpt>
      <trkpt lat="45.9694" lon="7.11844">
        <ele>1354</ele>
        <time>2000-01-01T13:39:35.000Z</time>
      </trkpt>
      <trkpt lat="45.96922" lon="7.11813">
        <ele>1361</ele>
        <time>2000-01-01T13:39:45.000Z</time>
      </trkpt>
      <trkpt lat="45.96897" lon="7.11768">
        <ele>1364</ele>
        <time>2000-01-01T13:39:55.000Z</time>
      </trkpt>
      <trkpt lat="45.96888" lon="7.11804">
        <ele>1373</ele>
        <time>2000-01-01T13:40:05.000Z</time>
      </trkpt>
      <trkpt lat="45.96875" lon="7.11852">
        <ele>1380</ele>
        <time>2000-01-01T13:40:15.000Z</time>
      </trkpt>
      <trkpt lat="45.96862" lon="7.11821">
        <ele>1388</ele>
        <time>2000-01-01T13:40:25.000Z</time>
      </trkpt>
      <trkpt lat="45.96847" lon="7.11784">
        <ele>1390</ele>
        <time>2000-01-01T13:40:35.000Z</time>
      </trkpt>
      <trkpt lat="45.96842" lon="7.11841">
        <ele>1401</ele>
        <time>2000-01-01T13:40:45.000Z</time>
      </trkpt>
      <trkpt lat="45.96804" lon="7.11836">
        <ele>1414</ele>
        <time>2000-01-01T13:40:55.000Z</time>
      </trkpt>
      <trkpt lat="45.96766" lon="7.11831">
        <ele>1433</ele>
        <time>2000-01-01T13:41:05.000Z</time>
      </trkpt>
      <trkpt lat="45.96728" lon="7.11826">
        <ele>1442</ele>
        <time>2000-01-01T13:41:15.000Z</time>
      </trkpt>
      <trkpt lat="45.96691" lon="7.11821">
        <ele>1451</ele>
        <time>2000-01-01T13:41:25.000Z</time>
      </trkpt>
      <trkpt lat="45.96641" lon="7.11814">
        <ele>1471</ele>
        <time>2000-01-01T13:41:35.000Z</time>
      </trkpt>
      <trkpt lat="45.96608" lon="7.11816">
        <ele>1476</ele>
        <time>2000-01-01T13:41:45.000Z</time>
      </trkpt>
      <trkpt lat="45.96575" lon="7.11819">
        <ele>1486</ele>
        <time>2000-01-01T13:41:55.000Z</time>
      </trkpt>
      <trkpt lat="45.96531" lon="7.11822">
        <ele>1508</ele>
        <time>2000-01-01T13:42:05.000Z</time>
      </trkpt>
      <trkpt lat="45.96509" lon="7.11844">
        <ele>1517</ele>
        <time>2000-01-01T13:42:15.000Z</time>
      </trkpt>
      <trkpt lat="45.96482" lon="7.11871">
        <ele>1521</ele>
        <time>2000-01-01T13:42:25.000Z</time>
      </trkpt>
      <trkpt lat="45.96467" lon="7.11844">
        <ele>1516</ele>
        <time>2000-01-01T13:42:35.000Z</time>
      </trkpt>
      <trkpt lat="45.96451" lon="7.11816">
        <ele>1516</ele>
        <time>2000-01-01T13:42:45.000Z</time>
      </trkpt>
      <trkpt lat="45.96427" lon="7.11812">
        <ele>1516</ele>
        <time>2000-01-01T13:42:55.000Z</time>
      </trkpt>
      <trkpt lat="45.96402" lon="7.11808">
        <ele>1530</ele>
        <time>2000-01-01T13:43:05.000Z</time>
      </trkpt>
      <trkpt lat="45.9641" lon="7.11848">
        <ele>1545</ele>
        <time>2000-01-01T13:43:15.000Z</time>
      </trkpt>
      <trkpt lat="45.96422" lon="7.11912">
        <ele>1574</ele>
        <time>2000-01-01T13:43:25.000Z</time>
      </trkpt>
      <trkpt lat="45.96399" lon="7.11884">
        <ele>1577</ele>
        <time>2000-01-01T13:43:35.000Z</time>
      </trkpt>
      <trkpt lat="45.96382" lon="7.11928">
        <ele>1583</ele>
        <time>2000-01-01T13:43:45.000Z</time>
      </trkpt>
      <trkpt lat="45.96365" lon="7.11971">
        <ele>1593</ele>
        <time>2000-01-01T13:43:55.000Z</time>
      </trkpt>
      <trkpt lat="45.96332" lon="7.12054">
        <ele>1604</ele>
        <time>2000-01-01T13:44:05.000Z</time>
      </trkpt>
      <trkpt lat="45.96331" lon="7.12101">
        <ele>1615</ele>
        <time>2000-01-01T13:44:15.000Z</time>
      </trkpt>
      <trkpt lat="45.9633" lon="7.12148">
        <ele>1620</ele>
        <time>2000-01-01T13:44:25.000Z</time>
      </trkpt>
      <trkpt lat="45.96329" lon="7.12212">
        <ele>1620</ele>
        <time>2000-01-01T13:44:35.000Z</time>
      </trkpt>
      <trkpt lat="45.96357" lon="7.12187">
        <ele>1620</ele>
        <time>2000-01-01T13:44:45.000Z</time>
      </trkpt>
      <trkpt lat="45.96363" lon="7.12228">
        <ele>1626</ele>
        <time>2000-01-01T13:44:55.000Z</time>
      </trkpt>
      <trkpt lat="45.96372" lon="7.12297">
        <ele>1648</ele>
        <time>2000-01-01T13:45:05.000Z</time>
      </trkpt>
      <trkpt lat="45.96392" lon="7.12327">
        <ele>1661</ele>
        <time>2000-01-01T13:45:15.000Z</time>
      </trkpt>
      <trkpt lat="45.96423" lon="7.12373">
        <ele>1661</ele>
        <time>2000-01-01T13:45:25.000Z</time>
      </trkpt>
      <trkpt lat="45.96426" lon="7.12417">
        <ele>1681</ele>
        <time>2000-01-01T13:45:35.000Z</time>
      </trkpt>
      <trkpt lat="45.96432" lon="7.12501">
        <ele>1696</ele>
        <time>2000-01-01T13:45:45.000Z</time>
      </trkpt>
      <trkpt lat="45.96455" lon="7.12515">
        <ele>1711</ele>
        <time>2000-01-01T13:45:55.000Z</time>
      </trkpt>
      <trkpt lat="45.96481" lon="7.1253">
        <ele>1726</ele>
        <time>2000-01-01T13:46:05.000Z</time>
      </trkpt>
      <trkpt lat="45.96477" lon="7.12552">
        <ele>1727.7</ele>
        <time>2000-01-01T13:46:15.000Z</time>
      </trkpt>
      <trkpt lat="45.96518" lon="7.12573">
        <ele>1769</ele>
        <time>2000-01-01T13:46:25.000Z</time>
      </trkpt>
      <trkpt lat="45.96507" lon="7.12591">
        <ele>1745.2</ele>
        <time>2000-01-01T13:46:35.000Z</time>
      </trkpt>
      <trkpt lat="45.96516" lon="7.12611">
        <ele>1783</ele>
        <time>2000-01-01T13:46:45.000Z</time>
      </trkpt>
      <trkpt lat="45.9649" lon="7.12623">
        <ele>1783</ele>
        <time>2000-01-01T13:46:55.000Z</time>
      </trkpt>
      <trkpt lat="45.96454" lon="7.12641">
        <ele>1788</ele>
        <time>2000-01-01T13:47:05.000Z</time>
      </trkpt>
      <trkpt lat="45.96481" lon="7.12667">
        <ele>1803</ele>
        <time>2000-01-01T13:47:15.000Z</time>
      </trkpt>
      <trkpt lat="45.96508" lon="7.12694">
        <ele>1809</ele>
        <time>2000-01-01T13:47:25.000Z</time>
      </trkpt>
      <trkpt lat="45.96543" lon="7.12728">
        <ele>1816</ele>
        <time>2000-01-01T13:47:35.000Z</time>
      </trkpt>
      <trkpt lat="45.9655" lon="7.12788">
        <ele>1828</ele>
        <time>2000-01-01T13:47:45.000Z</time>
      </trkpt>
      <trkpt lat="45.96572" lon="7.12831">
        <ele>1828</ele>
        <time>2000-01-01T13:47:55.000Z</time>
      </trkpt>
      <trkpt lat="45.96573" lon="7.12875">
        <ele>1835</ele>
        <time>2000-01-01T13:48:05.000Z</time>
      </trkpt>
      <trkpt lat="45.96574" lon="7.12956">
        <ele>1862</ele>
        <time>2000-01-01T13:48:15.000Z</time>
      </trkpt>
      <trkpt lat="45.96605" lon="7.12973">
        <ele>1869</ele>
        <time>2000-01-01T13:48:25.000Z</time>
      </trkpt>
      <trkpt lat="45.96636" lon="7.12991">
        <ele>1877</ele>
        <time>2000-01-01T13:48:35.000Z</time>
      </trkpt>
      <trkpt lat="45.96679" lon="7.13015">
        <ele>1878</ele>
        <time>2000-01-01T13:48:45.000Z</time>
      </trkpt>
      <trkpt lat="45.96707" lon="7.1301">
        <ele>1886</ele>
        <time>2000-01-01T13:48:55.000Z</time>
      </trkpt>
      <trkpt lat="45.96751" lon="7.13003">
        <ele>1907</ele>
        <time>2000-01-01T13:49:05.000Z</time>
      </trkpt>
      <trkpt lat="45.96789" lon="7.13016">
        <ele>1915</ele>
        <time>2000-01-01T13:49:15.000Z</time>
      </trkpt>
      <trkpt lat="45.96819" lon="7.13046">
        <ele>1930</ele>
        <time>2000-01-01T13:49:25.000Z</time>
      </trkpt>
      <trkpt lat="45.9685" lon="7.13076">
        <ele>1947</ele>
        <time>2000-01-01T13:49:35.000Z</time>
      </trkpt>
      <trkpt lat="45.9688" lon="7.13106">
        <ele>1949</ele>
        <time>2000-01-01T13:49:45.000Z</time>
      </trkpt>
      <trkpt lat="45.96934" lon="7.13159">
        <ele>1960</ele>
        <time>2000-01-01T13:49:55.000Z</time>
      </trkpt>
      <trkpt lat="45.96948" lon="7.13201">
        <ele>1963</ele>
        <time>2000-01-01T13:50:05.000Z</time>
      </trkpt>
      <trkpt lat="45.96962" lon="7.13244">
        <ele>1967</ele>
        <time>2000-01-01T13:50:15.000Z</time>
      </trkpt>
      <trkpt lat="45.96981" lon="7.13299">
        <ele>1972</ele>
        <time>2000-01-01T13:50:25.000Z</time>
      </trkpt>
      <trkpt lat="45.9697" lon="7.13297">
        <ele>1972.4</ele>
        <time>2000-01-01T13:50:35.000Z</time>
      </trkpt>
      <trkpt lat="45.96964" lon="7.1332">
        <ele>1975</ele>
        <time>2000-01-01T13:50:45.000Z</time>
      </trkpt>
      <trkpt lat="45.96972" lon="7.13363">
        <ele>1977</ele>
        <time>2000-01-01T13:50:55.000Z</time>
      </trkpt>
      <trkpt lat="45.96988" lon="7.13445">
        <ele>1975</ele>
        <time>2000-01-01T13:51:05.000Z</time>
      </trkpt>
      <trkpt lat="45.97" lon="7.13473">
        <ele>1976</ele>
        <time>2000-01-01T13:51:15.000Z</time>
      </trkpt>
      <trkpt lat="45.97013" lon="7.13502">
        <ele>1971</ele>
        <time>2000-01-01T13:51:25.000Z</time>
      </trkpt>
      <trkpt lat="45.97038" lon="7.1347">
        <ele>1966</ele>
        <time>2000-01-01T13:51:35.000Z</time>
      </trkpt>
      <trkpt lat="45.97063" lon="7.13438">
        <ele>1941</ele>
        <time>2000-01-01T13:51:45.000Z</time>
      </trkpt>
      <trkpt lat="45.97099" lon="7.13392">
        <ele>1923</ele>
        <time>2000-01-01T13:51:55.000Z</time>
      </trkpt>
      <trkpt lat="45.9711" lon="7.13397">
        <ele>1908.2</ele>
        <time>2000-01-01T13:52:05.000Z</time>
      </trkpt>
      <trkpt lat="45.97112" lon="7.13452">
        <ele>1914</ele>
        <time>2000-01-01T13:52:15.000Z</time>
      </trkpt>
      <trkpt lat="45.97137" lon="7.13461">
        <ele>1905</ele>
        <time>2000-01-01T13:52:25.000Z</time>
      </trkpt>
      <trkpt lat="45.97168" lon="7.13472">
        <ele>1898</ele>
        <time>2000-01-01T13:52:35.000Z</time>
      </trkpt>
      <trkpt lat="45.97191" lon="7.13504">
        <ele>1890</ele>
        <time>2000-01-01T13:52:45.000Z</time>
      </trkpt>
      <trkpt lat="45.97213" lon="7.13536">
        <ele>1896</ele>
        <time>2000-01-01T13:52:55.000Z</time>
      </trkpt>
      <trkpt lat="45.97238" lon="7.1357">
        <ele>1878</ele>
        <time>2000-01-01T13:53:05.000Z</time>
      </trkpt>
      <trkpt lat="45.9728" lon="7.13547">
        <ele>1861</ele>
        <time>2000-01-01T13:53:15.000Z</time>
      </trkpt>
      <trkpt lat="45.97305" lon="7.13546">
        <ele>1861</ele>
        <time>2000-01-01T13:53:25.000Z</time>
      </trkpt>
      <trkpt lat="45.97335" lon="7.13544">
        <ele>1863</ele>
        <time>2000-01-01T13:53:35.000Z</time>
      </trkpt>
      <trkpt lat="45.97364" lon="7.1356">
        <ele>1868</ele>
        <time>2000-01-01T13:53:45.000Z</time>
      </trkpt>
      <trkpt lat="45.97393" lon="7.13576">
        <ele>1867</ele>
        <time>2000-01-01T13:53:55.000Z</time>
      </trkpt>
      <trkpt lat="45.97423" lon="7.13593">
        <ele>1867</ele>
        <time>2000-01-01T13:54:05.000Z</time>
      </trkpt>
      <trkpt lat="45.97459" lon="7.13633">
        <ele>1860</ele>
        <time>2000-01-01T13:54:15.000Z</time>
      </trkpt>
      <trkpt lat="45.97485" lon="7.13629">
        <ele>1854</ele>
        <time>2000-01-01T13:54:25.000Z</time>
      </trkpt>
      <trkpt lat="45.97519" lon="7.13623">
        <ele>1856</ele>
        <time>2000-01-01T13:54:35.000Z</time>
      </trkpt>
      <trkpt lat="45.97547" lon="7.13638">
        <ele>1858</ele>
        <time>2000-01-01T13:54:45.000Z</time>
      </trkpt>
      <trkpt lat="45.97599" lon="7.13664">
        <ele>1847</ele>
        <time>2000-01-01T13:54:55.000Z</time>
      </trkpt>
      <trkpt lat="45.97635" lon="7.13659">
        <ele>1836</ele>
        <time>2000-01-01T13:55:05.000Z</time>
      </trkpt>
      <trkpt lat="45.9767" lon="7.13654">
        <ele>1832</ele>
        <time>2000-01-01T13:55:15.000Z</time>
      </trkpt>
      <trkpt lat="45.97706" lon="7.13649">
        <ele>1822</ele>
        <time>2000-01-01T13:55:25.000Z</time>
      </trkpt>
      <trkpt lat="45.97752" lon="7.13643">
        <ele>1802</ele>
        <time>2000-01-01T13:55:35.000Z</time>
      </trkpt>
      <trkpt lat="45.97779" lon="7.13619">
        <ele>1787</ele>
        <time>2000-01-01T13:55:45.000Z</time>
      </trkpt>
      <trkpt lat="45.97807" lon="7.13595">
        <ele>1775</ele>
        <time>2000-01-01T13:55:55.000Z</time>
      </trkpt>
      <trkpt lat="45.9784" lon="7.13566">
        <ele>1758</ele>
        <time>2000-01-01T13:56:05.000Z</time>
      </trkpt>
      <trkpt lat="45.97812" lon="7.13555">
        <ele>1758</ele>
        <time>2000-01-01T13:56:15.000Z</time>
      </trkpt>
      <trkpt lat="45.97766" lon="7.13536">
        <ele>1752</ele>
        <time>2000-01-01T13:56:25.000Z</time>
      </trkpt>
      <trkpt lat="45.97738" lon="7.13508">
        <ele>1748</ele>
        <time>2000-01-01T13:56:35.000Z</time>
      </trkpt>
      <trkpt lat="45.97709" lon="7.1348">
        <ele>1742</ele>
        <time>2000-01-01T13:56:45.000Z</time>
      </trkpt>
      <trkpt lat="45.97658" lon="7.1343">
        <ele>1736</ele>
        <time>2000-01-01T13:56:55.000Z</time>
      </trkpt>
      <trkpt lat="45.97636" lon="7.13385">
        <ele>1721</ele>
        <time>2000-01-01T13:57:05.000Z</time>
      </trkpt>
      <trkpt lat="45.97661" lon="7.1337">
        <ele>1704</ele>
        <time>2000-01-01T13:57:15.000Z</time>
      </trkpt>
      <trkpt lat="45.97696" lon="7.13349">
        <ele>1689</ele>
        <time>2000-01-01T13:57:25.000Z</time>
      </trkpt>
      <trkpt lat="45.97722" lon="7.13348">
        <ele>1685</ele>
        <time>2000-01-01T13:57:35.000Z</time>
      </trkpt>
      <trkpt lat="45.97757" lon="7.13346">
        <ele>1688</ele>
        <time>2000-01-01T13:57:45.000Z</time>
      </trkpt>
      <trkpt lat="45.97781" lon="7.13355">
        <ele>1685</ele>
        <time>2000-01-01T13:57:55.000Z</time>
      </trkpt>
      <trkpt lat="45.97806" lon="7.13364">
        <ele>1683</ele>
        <time>2000-01-01T13:58:05.000Z</time>
      </trkpt>
      <trkpt lat="45.97842" lon="7.13358">
        <ele>1678</ele>
        <time>2000-01-01T13:58:15.000Z</time>
      </trkpt>
      <trkpt lat="45.97878" lon="7.13352">
        <ele>1670</ele>
        <time>2000-01-01T13:58:25.000Z</time>
      </trkpt>
      <trkpt lat="45.97914" lon="7.13346">
        <ele>1652</ele>
        <time>2000-01-01T13:58:35.000Z</time>
      </trkpt>
      <trkpt lat="45.97967" lon="7.13337">
        <ele>1649</ele>
        <time>2000-01-01T13:58:45.000Z</time>
      </trkpt>
      <trkpt lat="45.97999" lon="7.13313">
        <ele>1624</ele>
        <time>2000-01-01T13:58:55.000Z</time>
      </trkpt>
      <trkpt lat="45.98031" lon="7.13289">
        <ele>1619</ele>
        <time>2000-01-01T13:59:05.000Z</time>
      </trkpt>
      <trkpt lat="45.98063" lon="7.13265">
        <ele>1597</ele>
        <time>2000-01-01T13:59:15.000Z</time>
      </trkpt>
      <trkpt lat="45.98105" lon="7.13233">
        <ele>1584</ele>
        <time>2000-01-01T13:59:25.000Z</time>
      </trkpt>
      <trkpt lat="45.98136" lon="7.13241">
        <ele>1580</ele>
        <time>2000-01-01T13:59:35.000Z</time>
      </trkpt>
      <trkpt lat="45.98168" lon="7.13249">
        <ele>1575</ele>
        <time>2000-01-01T13:59:45.000Z</time>
      </trkpt>
      <trkpt lat="45.98204" lon="7.13259">
        <ele>1570</ele>
        <time>2000-01-01T13:59:55.000Z</time>
      </trkpt>
      <trkpt lat="45.98235" lon="7.13257">
        <ele>1561</ele>
        <time>2000-01-01T14:00:05.000Z</time>
      </trkpt>
      <trkpt lat="45.98293" lon="7.13252">
        <ele>1538</ele>
        <time>2000-01-01T14:00:15.000Z</time>
      </trkpt>
      <trkpt lat="45.98321" lon="7.13273">
        <ele>1524</ele>
        <time>2000-01-01T14:00:25.000Z</time>
      </trkpt>
      <trkpt lat="45.98348" lon="7.13295">
        <ele>1524</ele>
        <time>2000-01-01T14:00:35.000Z</time>
      </trkpt>
      <trkpt lat="45.98378" lon="7.13318">
        <ele>1519</ele>
        <time>2000-01-01T14:00:45.000Z</time>
      </trkpt>
      <trkpt lat="45.98405" lon="7.1333">
        <ele>1508</ele>
        <time>2000-01-01T14:00:55.000Z</time>
      </trkpt>
      <trkpt lat="45.98445" lon="7.13348">
        <ele>1499</ele>
        <time>2000-01-01T14:01:05.000Z</time>
      </trkpt>
      <trkpt lat="45.98474" lon="7.13353">
        <ele>1490</ele>
        <time>2000-01-01T14:01:15.000Z</time>
      </trkpt>
      <trkpt lat="45.98524" lon="7.13362">
        <ele>1485</ele>
        <time>2000-01-01T14:01:25.000Z</time>
      </trkpt>
      <trkpt lat="45.98547" lon="7.13374">
        <ele>1485</ele>
        <time>2000-01-01T14:01:35.000Z</time>
      </trkpt>
      <trkpt lat="45.98573" lon="7.13388">
        <ele>1488</ele>
        <time>2000-01-01T14:01:45.000Z</time>
      </trkpt>
      <trkpt lat="45.98598" lon="7.13383">
        <ele>1488</ele>
        <time>2000-01-01T14:01:55.000Z</time>
      </trkpt>
      <trkpt lat="45.98629" lon="7.13376">
        <ele>1452</ele>
        <time>2000-01-01T14:02:05.000Z</time>
      </trkpt>
      <trkpt lat="45.98613" lon="7.13341">
        <ele>1460</ele>
        <time>2000-01-01T14:02:15.000Z</time>
      </trkpt>
      <trkpt lat="45.9858" lon="7.1332">
        <ele>1450</ele>
        <time>2000-01-01T14:02:25.000Z</time>
      </trkpt>
      <trkpt lat="45.98597" lon="7.13291">
        <ele>1440</ele>
        <time>2000-01-01T14:02:35.000Z</time>
      </trkpt>
      <trkpt lat="45.98619" lon="7.13255">
        <ele>1415</ele>
        <time>2000-01-01T14:02:45.000Z</time>
      </trkpt>
      <trkpt lat="45.9865" lon="7.13249">
        <ele>1407</ele>
        <time>2000-01-01T14:02:55.000Z</time>
      </trkpt>
      <trkpt lat="45.98663" lon="7.13227">
        <ele>1398</ele>
        <time>2000-01-01T14:03:05.000Z</time>
      </trkpt>
      <trkpt lat="45.98649" lon="7.132">
        <ele>1390</ele>
        <time>2000-01-01T14:03:15.000Z</time>
      </trkpt>
      <trkpt lat="45.98635" lon="7.13173">
        <ele>1387</ele>
        <time>2000-01-01T14:03:25.000Z</time>
      </trkpt>
      <trkpt lat="45.98597" lon="7.13139">
        <ele>1384</ele>
        <time>2000-01-01T14:03:35.000Z</time>
      </trkpt>
      <trkpt lat="45.9858" lon="7.13104">
        <ele>1376</ele>
        <time>2000-01-01T14:03:45.000Z</time>
      </trkpt>
      <trkpt lat="45.98552" lon="7.13045">
        <ele>1365</ele>
        <time>2000-01-01T14:03:55.000Z</time>
      </trkpt>
      <trkpt lat="45.98536" lon="7.1299">
        <ele>1361</ele>
        <time>2000-01-01T14:04:05.000Z</time>
      </trkpt>
      <trkpt lat="45.98549" lon="7.12961">
        <ele>1355</ele>
        <time>2000-01-01T14:04:15.000Z</time>
      </trkpt>
      <trkpt lat="45.98568" lon="7.12941">
        <ele>1345</ele>
        <time>2000-01-01T14:04:25.000Z</time>
      </trkpt>
      <trkpt lat="45.98587" lon="7.12921">
        <ele>1326</ele>
        <time>2000-01-01T14:04:35.000Z</time>
      </trkpt>
      <trkpt lat="45.986" lon="7.12891">
        <ele>1308</ele>
        <time>2000-01-01T14:04:45.000Z</time>
      </trkpt>
      <trkpt lat="45.98615" lon="7.12859">
        <ele>1298</ele>
        <time>2000-01-01T14:04:55.000Z</time>
      </trkpt>
      <trkpt lat="45.98653" lon="7.12882">
        <ele>1297</ele>
        <time>2000-01-01T14:05:05.000Z</time>
      </trkpt>
      <trkpt lat="45.98687" lon="7.12866">
        <ele>1293</ele>
        <time>2000-01-01T14:05:15.000Z</time>
      </trkpt>
      <trkpt lat="45.98718" lon="7.12903">
        <ele>1289</ele>
        <time>2000-01-01T14:05:25.000Z</time>
      </trkpt>
      <trkpt lat="45.98753" lon="7.12888">
        <ele>1287</ele>
        <time>2000-01-01T14:05:35.000Z</time>
      </trkpt>
      <trkpt lat="45.98781" lon="7.12923">
        <ele>1284</ele>
        <time>2000-01-01T14:05:45.000Z</time>
      </trkpt>
      <trkpt lat="45.98806" lon="7.12919">
        <ele>1267</ele>
        <time>2000-01-01T14:05:55.000Z</time>
      </trkpt>
      <trkpt lat="45.98837" lon="7.12914">
        <ele>1252</ele>
        <time>2000-01-01T14:06:05.000Z</time>
      </trkpt>
      <trkpt lat="45.98851" lon="7.12882">
        <ele>1242</ele>
        <time>2000-01-01T14:06:15.000Z</time>
      </trkpt>
      <trkpt lat="45.98861" lon="7.12919">
        <ele>1242</ele>
        <time>2000-01-01T14:06:25.000Z</time>
      </trkpt>
      <trkpt lat="45.98875" lon="7.12973">
        <ele>1234</ele>
        <time>2000-01-01T14:06:35.000Z</time>
      </trkpt>
      <trkpt lat="45.98895" lon="7.12941">
        <ele>1218</ele>
        <time>2000-01-01T14:06:45.000Z</time>
      </trkpt>
      <trkpt lat="45.98932" lon="7.12883">
        <ele>1203</ele>
        <time>2000-01-01T14:06:55.000Z</time>
      </trkpt>
      <trkpt lat="45.98928" lon="7.1284">
        <ele>1193</ele>
        <time>2000-01-01T14:07:05.000Z</time>
      </trkpt>
      <trkpt lat="45.98921" lon="7.12763">
        <ele>1188</ele>
        <time>2000-01-01T14:07:15.000Z</time>
      </trkpt>
      <trkpt lat="45.98908" lon="7.12724">
        <ele>1184</ele>
        <time>2000-01-01T14:07:25.000Z</time>
      </trkpt>
      <trkpt lat="45.98872" lon="7.12685">
        <ele>1167</ele>
        <time>2000-01-01T14:07:35.000Z</time>
      </trkpt>
      <trkpt lat="45.98873" lon="7.12618">
        <ele>1156</ele>
        <time>2000-01-01T14:07:45.000Z</time>
      </trkpt>
      <trkpt lat="45.9889" lon="7.12586">
        <ele>1156</ele>
        <time>2000-01-01T14:07:55.000Z</time>
      </trkpt>
      <trkpt lat="45.98915" lon="7.12537">
        <ele>1154</ele>
        <time>2000-01-01T14:08:05.000Z</time>
      </trkpt>
      <trkpt lat="45.98917" lon="7.12497">
        <ele>1158</ele>
        <time>2000-01-01T14:08:15.000Z</time>
      </trkpt>
      <trkpt lat="45.9892" lon="7.12436">
        <ele>1162</ele>
        <time>2000-01-01T14:08:25.000Z</time>
      </trkpt>
      <trkpt lat="45.98908" lon="7.124">
        <ele>1169</ele>
        <time>2000-01-01T14:08:35.000Z</time>
      </trkpt>
      <trkpt lat="45.98881" lon="7.12383">
        <ele>1169</ele>
        <time>2000-01-01T14:08:45.000Z</time>
      </trkpt>
      <trkpt lat="45.98835" lon="7.12355">
        <ele>1174</ele>
        <time>2000-01-01T14:08:55.000Z</time>
      </trkpt>
      <trkpt lat="45.98811" lon="7.12315">
        <ele>1186</ele>
        <time>2000-01-01T14:09:05.000Z</time>
      </trkpt>
      <trkpt lat="45.98788" lon="7.12275">
        <ele>1189</ele>
        <time>2000-01-01T14:09:15.000Z</time>
      </trkpt>
      <trkpt lat="45.98764" lon="7.12235">
        <ele>1189</ele>
        <time>2000-01-01T14:09:25.000Z</time>
      </trkpt>
      <trkpt lat="45.98727" lon="7.12172">
        <ele>1189</ele>
        <time>2000-01-01T14:09:35.000Z</time>
      </trkpt>
      <trkpt lat="45.98763" lon="7.12142">
        <ele>1191</ele>
        <time>2000-01-01T14:09:45.000Z</time>
      </trkpt>
      <trkpt lat="45.98791" lon="7.12159">
        <ele>1194</ele>
        <time>2000-01-01T14:09:55.000Z</time>
      </trkpt>
      <trkpt lat="45.98844" lon="7.12191">
        <ele>1196</ele>
        <time>2000-01-01T14:10:05.000Z</time>
      </trkpt>
      <trkpt lat="45.98836" lon="7.12145">
        <ele>1208</ele>
        <time>2000-01-01T14:10:15.000Z</time>
      </trkpt>
      <trkpt lat="45.98828" lon="7.121">
        <ele>1216</ele>
        <time>2000-01-01T14:10:25.000Z</time>
      </trkpt>
      <trkpt lat="45.98817" lon="7.12039">
        <ele>1223</ele>
        <time>2000-01-01T14:10:35.000Z</time>
      </trkpt>
      <trkpt lat="45.98839" lon="7.12006">
        <ele>1225</ele>
        <time>2000-01-01T14:10:45.000Z</time>
      </trkpt>
      <trkpt lat="45.98836" lon="7.11978">
        <ele>1227</ele>
        <time>2000-01-01T14:10:55.000Z</time>
      </trkpt>
      <trkpt lat="45.98863" lon="7.12001">
        <ele>1229</ele>
        <time>2000-01-01T14:11:05.000Z</time>
      </trkpt>
      <trkpt lat="45.98891" lon="7.12025">
        <ele>1233</ele>
        <time>2000-01-01T14:11:15.000Z</time>
      </trkpt>
      <trkpt lat="45.98922" lon="7.12051">
        <ele>1236</ele>
        <time>2000-01-01T14:11:25.000Z</time>
      </trkpt>
      <trkpt lat="45.98949" lon="7.12053">
        <ele>1240</ele>
        <time>2000-01-01T14:11:35.000Z</time>
      </trkpt>
      <trkpt lat="45.98988" lon="7.12057">
        <ele>1241</ele>
        <time>2000-01-01T14:11:45.000Z</time>
      </trkpt>
      <trkpt lat="45.99023" lon="7.12048">
        <ele>1246</ele>
        <time>2000-01-01T14:11:55.000Z</time>
      </trkpt>
      <trkpt lat="45.99058" lon="7.12038">
        <ele>1251</ele>
        <time>2000-01-01T14:12:05.000Z</time>
      </trkpt>
      <trkpt lat="45.99093" lon="7.12029">
        <ele>1257</ele>
        <time>2000-01-01T14:12:15.000Z</time>
      </trkpt>
      <trkpt lat="45.99136" lon="7.12018">
        <ele>1258</ele>
        <time>2000-01-01T14:12:25.000Z</time>
      </trkpt>
      <trkpt lat="45.99154" lon="7.11996">
        <ele>1258</ele>
        <time>2000-01-01T14:12:35.000Z</time>
      </trkpt>
      <trkpt lat="45.99181" lon="7.11998">
        <ele>1266</ele>
        <time>2000-01-01T14:12:45.000Z</time>
      </trkpt>
      <trkpt lat="45.99204" lon="7.12034">
        <ele>1265</ele>
        <time>2000-01-01T14:12:55.000Z</time>
      </trkpt>
      <trkpt lat="45.99227" lon="7.12071">
        <ele>1265</ele>
        <time>2000-01-01T14:13:05.000Z</time>
      </trkpt>
      <trkpt lat="45.99267" lon="7.12133">
        <ele>1271</ele>
        <time>2000-01-01T14:13:15.000Z</time>
      </trkpt>
      <trkpt lat="45.99295" lon="7.12137">
        <ele>1271</ele>
        <time>2000-01-01T14:13:25.000Z</time>
      </trkpt>
      <trkpt lat="45.99336" lon="7.12143">
        <ele>1272</ele>
        <time>2000-01-01T14:13:35.000Z</time>
      </trkpt>
      <trkpt lat="45.9937" lon="7.12119">
        <ele>1281</ele>
        <time>2000-01-01T14:13:45.000Z</time>
      </trkpt>
      <trkpt lat="45.99405" lon="7.12095">
        <ele>1282</ele>
        <time>2000-01-01T14:13:55.000Z</time>
      </trkpt>
      <trkpt lat="45.99439" lon="7.12071">
        <ele>1283</ele>
        <time>2000-01-01T14:14:05.000Z</time>
      </trkpt>
      <trkpt lat="45.99473" lon="7.12048">
        <ele>1290</ele>
        <time>2000-01-01T14:14:15.000Z</time>
      </trkpt>
      <trkpt lat="45.9952" lon="7.12015">
        <ele>1295</ele>
        <time>2000-01-01T14:14:25.000Z</time>
      </trkpt>
      <trkpt lat="45.99542" lon="7.12025">
        <ele>1300</ele>
        <time>2000-01-01T14:14:35.000Z</time>
      </trkpt>
      <trkpt lat="45.99565" lon="7.12035">
        <ele>1308</ele>
        <time>2000-01-01T14:14:45.000Z</time>
      </trkpt>
      <trkpt lat="45.99557" lon="7.11997">
        <ele>1310</ele>
        <time>2000-01-01T14:14:55.000Z</time>
      </trkpt>
      <trkpt lat="45.99545" lon="7.11944">
        <ele>1314</ele>
        <time>2000-01-01T14:15:05.000Z</time>
      </trkpt>
      <trkpt lat="45.99574" lon="7.11938">
        <ele>1322</ele>
        <time>2000-01-01T14:15:15.000Z</time>
      </trkpt>
      <trkpt lat="45.99558" lon="7.11912">
        <ele>1322</ele>
        <time>2000-01-01T14:15:25.000Z</time>
      </trkpt>
      <trkpt lat="45.9954" lon="7.11884">
        <ele>1323</ele>
        <time>2000-01-01T14:15:35.000Z</time>
      </trkpt>
      <trkpt lat="45.99575" lon="7.11873">
        <ele>1346</ele>
        <time>2000-01-01T14:15:45.000Z</time>
      </trkpt>
      <trkpt lat="45.99611" lon="7.11861">
        <ele>1352</ele>
        <time>2000-01-01T14:15:55.000Z</time>
      </trkpt>
      <trkpt lat="45.99646" lon="7.1185">
        <ele>1357</ele>
        <time>2000-01-01T14:16:05.000Z</time>
      </trkpt>
      <trkpt lat="45.99695" lon="7.11834">
        <ele>1371</ele>
        <time>2000-01-01T14:16:15.000Z</time>
      </trkpt>
      <trkpt lat="45.99684" lon="7.11782">
        <ele>1378</ele>
        <time>2000-01-01T14:16:25.000Z</time>
      </trkpt>
      <trkpt lat="45.99712" lon="7.11805">
        <ele>1386</ele>
        <time>2000-01-01T14:16:35.000Z</time>
      </trkpt>
      <trkpt lat="45.99739" lon="7.11809">
        <ele>1386</ele>
        <time>2000-01-01T14:16:45.000Z</time>
      </trkpt>
      <trkpt lat="45.99777" lon="7.11815">
        <ele>1387</ele>
        <time>2000-01-01T14:16:55.000Z</time>
      </trkpt>
      <trkpt lat="45.99807" lon="7.11838">
        <ele>1384</ele>
        <time>2000-01-01T14:17:05.000Z</time>
      </trkpt>
      <trkpt lat="45.99836" lon="7.11823">
        <ele>1397</ele>
        <time>2000-01-01T14:17:15.000Z</time>
      </trkpt>
      <trkpt lat="45.9989" lon="7.11795">
        <ele>1402</ele>
        <time>2000-01-01T14:17:25.000Z</time>
      </trkpt>
      <trkpt lat="45.99916" lon="7.11804">
        <ele>1401</ele>
        <time>2000-01-01T14:17:35.000Z</time>
      </trkpt>
      <trkpt lat="45.99939" lon="7.1182">
        <ele>1412</ele>
        <time>2000-01-01T14:17:45.000Z</time>
      </trkpt>
      <trkpt lat="45.99966" lon="7.1184">
        <ele>1414</ele>
        <time>2000-01-01T14:17:55.000Z</time>
      </trkpt>
      <trkpt lat="45.99979" lon="7.11869">
        <ele>1413</ele>
        <time>2000-01-01T14:18:05.000Z</time>
      </trkpt>
      <trkpt lat="45.99993" lon="7.119">
        <ele>1413</ele>
        <time>2000-01-01T14:18:15.000Z</time>
      </trkpt>
      <trkpt lat="46.00021" lon="7.11911">
        <ele>1413</ele>
        <time>2000-01-01T14:18:25.000Z</time>
      </trkpt>
      <trkpt lat="46.00069" lon="7.1193">
        <ele>1414</ele>
        <time>2000-01-01T14:18:35.000Z</time>
      </trkpt>
      <trkpt lat="46.00104" lon="7.11931">
        <ele>1415</ele>
        <time>2000-01-01T14:18:45.000Z</time>
      </trkpt>
      <trkpt lat="46.00139" lon="7.11932">
        <ele>1418</ele>
        <time>2000-01-01T14:18:55.000Z</time>
      </trkpt>
      <trkpt lat="46.00175" lon="7.11933">
        <ele>1418</ele>
        <time>2000-01-01T14:19:05.000Z</time>
      </trkpt>
      <trkpt lat="46.00211" lon="7.11934">
        <ele>1407</ele>
        <time>2000-01-01T14:19:15.000Z</time>
      </trkpt>
      <trkpt lat="46.00205" lon="7.11983">
        <ele>1396</ele>
        <time>2000-01-01T14:19:25.000Z</time>
      </trkpt>
      <trkpt lat="46.00237" lon="7.11985">
        <ele>1391</ele>
        <time>2000-01-01T14:19:35.000Z</time>
      </trkpt>
      <trkpt lat="46.00239" lon="7.11947">
        <ele>1386</ele>
        <time>2000-01-01T14:19:45.000Z</time>
      </trkpt>
      <trkpt lat="46.00242" lon="7.11896">
        <ele>1378</ele>
        <time>2000-01-01T14:19:55.000Z</time>
      </trkpt>
      <trkpt lat="46.00267" lon="7.11878">
        <ele>1371</ele>
        <time>2000-01-01T14:20:05.000Z</time>
      </trkpt>
      <trkpt lat="46.00302" lon="7.11851">
        <ele>1334</ele>
        <time>2000-01-01T14:20:15.000Z</time>
      </trkpt>
      <trkpt lat="46.00345" lon="7.11856">
        <ele>1327</ele>
        <time>2000-01-01T14:20:25.000Z</time>
      </trkpt>
      <trkpt lat="46.00335" lon="7.11882">
        <ele>1317</ele>
        <time>2000-01-01T14:20:35.000Z</time>
      </trkpt>
      <trkpt lat="46.00364" lon="7.11891">
        <ele>1316</ele>
        <time>2000-01-01T14:20:45.000Z</time>
      </trkpt>
      <trkpt lat="46.00417" lon="7.11907">
        <ele>1312</ele>
        <time>2000-01-01T14:20:55.000Z</time>
      </trkpt>
      <trkpt lat="46.00443" lon="7.11922">
        <ele>1295</ele>
        <time>2000-01-01T14:21:05.000Z</time>
      </trkpt>
      <trkpt lat="46.00481" lon="7.11945">
        <ele>1278</ele>
        <time>2000-01-01T14:21:15.000Z</time>
      </trkpt>
      <trkpt lat="46.00509" lon="7.11946">
        <ele>1263</ele>
        <time>2000-01-01T14:21:25.000Z</time>
      </trkpt>
      <trkpt lat="46.00552" lon="7.11947">
        <ele>1261</ele>
        <time>2000-01-01T14:21:35.000Z</time>
      </trkpt>
      <trkpt lat="46.00573" lon="7.11923">
        <ele>1259</ele>
        <time>2000-01-01T14:21:45.000Z</time>
      </trkpt>
      <trkpt lat="46.00615" lon="7.11919">
        <ele>1250</ele>
        <time>2000-01-01T14:21:55.000Z</time>
      </trkpt>
      <trkpt lat="46.00633" lon="7.11893">
        <ele>1250</ele>
        <time>2000-01-01T14:22:05.000Z</time>
      </trkpt>
      <trkpt lat="46.00653" lon="7.11864">
        <ele>1251</ele>
        <time>2000-01-01T14:22:15.000Z</time>
      </trkpt>
      <trkpt lat="46.00661" lon="7.11823">
        <ele>1251</ele>
        <time>2000-01-01T14:22:25.000Z</time>
      </trkpt>
      <trkpt lat="46.00674" lon="7.11753">
        <ele>1261</ele>
        <time>2000-01-01T14:22:35.000Z</time>
      </trkpt>
      <trkpt lat="46.00684" lon="7.11796">
        <ele>1256</ele>
        <time>2000-01-01T14:22:45.000Z</time>
      </trkpt>
      <trkpt lat="46.00693" lon="7.11839">
        <ele>1252</ele>
        <time>2000-01-01T14:22:55.000Z</time>
      </trkpt>
      <trkpt lat="46.00703" lon="7.11882">
        <ele>1245</ele>
        <time>2000-01-01T14:23:05.000Z</time>
      </trkpt>
      <trkpt lat="46.00726" lon="7.1191">
        <ele>1239</ele>
        <time>2000-01-01T14:23:15.000Z</time>
      </trkpt>
      <trkpt lat="46.00768" lon="7.11962">
        <ele>1231</ele>
        <time>2000-01-01T14:23:25.000Z</time>
      </trkpt>
      <trkpt lat="46.00796" lon="7.1197">
        <ele>1224</ele>
        <time>2000-01-01T14:23:35.000Z</time>
      </trkpt>
      <trkpt lat="46.00837" lon="7.11981">
        <ele>1224</ele>
        <time>2000-01-01T14:23:45.000Z</time>
      </trkpt>
      <trkpt lat="46.00852" lon="7.12018">
        <ele>1222</ele>
        <time>2000-01-01T14:23:55.000Z</time>
      </trkpt>
      <trkpt lat="46.0088" lon="7.12085">
        <ele>1210</ele>
        <time>2000-01-01T14:24:05.000Z</time>
      </trkpt>
      <trkpt lat="46.00909" lon="7.12076">
        <ele>1210</ele>
        <time>2000-01-01T14:24:15.000Z</time>
      </trkpt>
      <trkpt lat="46.0096" lon="7.12061">
        <ele>1221</ele>
        <time>2000-01-01T14:24:25.000Z</time>
      </trkpt>
      <trkpt lat="46.00981" lon="7.12032">
        <ele>1235</ele>
        <time>2000-01-01T14:24:35.000Z</time>
      </trkpt>
      <trkpt lat="46.01017" lon="7.11985">
        <ele>1235</ele>
        <time>2000-01-01T14:24:45.000Z</time>
      </trkpt>
      <trkpt lat="46.01044" lon="7.11983">
        <ele>1235</ele>
        <time>2000-01-01T14:24:55.000Z</time>
      </trkpt>
      <trkpt lat="46.01082" lon="7.11981">
        <ele>1226</ele>
        <time>2000-01-01T14:25:05.000Z</time>
      </trkpt>
      <trkpt lat="46.01096" lon="7.11957">
        <ele>1224</ele>
        <time>2000-01-01T14:25:15.000Z</time>
      </trkpt>
      <trkpt lat="46.01103" lon="7.11964">
        <ele>1191.7</ele>
        <time>2000-01-01T14:25:25.000Z</time>
      </trkpt>
      <trkpt lat="46.01104" lon="7.11864">
        <ele>1229</ele>
        <time>2000-01-01T14:25:35.000Z</time>
      </trkpt>
      <trkpt lat="46.01118" lon="7.1183">
        <ele>1234</ele>
        <time>2000-01-01T14:25:45.000Z</time>
      </trkpt>
      <trkpt lat="46.01137" lon="7.11784">
        <ele>1218</ele>
        <time>2000-01-01T14:25:55.000Z</time>
      </trkpt>
      <trkpt lat="46.0115" lon="7.11792">
        <ele>1215.7</ele>
        <time>2000-01-01T14:26:05.000Z</time>
      </trkpt>
      <trkpt lat="46.01188" lon="7.1196">
        <ele>1219</ele>
        <time>2000-01-01T14:26:15.000Z</time>
      </trkpt>
      <trkpt lat="46.01215" lon="7.11962">
        <ele>1220</ele>
        <time>2000-01-01T14:26:25.000Z</time>
      </trkpt>
      <trkpt lat="46.01253" lon="7.11964">
        <ele>1234</ele>
        <time>2000-01-01T14:26:35.000Z</time>
      </trkpt>
      <trkpt lat="46.01288" lon="7.11981">
        <ele>1240</ele>
        <time>2000-01-01T14:26:45.000Z</time>
      </trkpt>
      <trkpt lat="46.01315" lon="7.12012">
        <ele>1246</ele>
        <time>2000-01-01T14:26:55.000Z</time>
      </trkpt>
      <trkpt lat="46.01341" lon="7.12044">
        <ele>1253</ele>
        <time>2000-01-01T14:27:05.000Z</time>
      </trkpt>
      <trkpt lat="46.01389" lon="7.121">
        <ele>1264</ele>
        <time>2000-01-01T14:27:15.000Z</time>
      </trkpt>
      <trkpt lat="46.01385" lon="7.12041">
        <ele>1272</ele>
        <time>2000-01-01T14:27:25.000Z</time>
      </trkpt>
      <trkpt lat="46.01402" lon="7.12009">
        <ele>1275</ele>
        <time>2000-01-01T14:27:35.000Z</time>
      </trkpt>
      <trkpt lat="46.01429" lon="7.1196">
        <ele>1296</ele>
        <time>2000-01-01T14:27:45.000Z</time>
      </trkpt>
      <trkpt lat="46.01457" lon="7.1196">
        <ele>1298</ele>
        <time>2000-01-01T14:27:55.000Z</time>
      </trkpt>
      <trkpt lat="46.01496" lon="7.1196">
        <ele>1301</ele>
        <time>2000-01-01T14:28:05.000Z</time>
      </trkpt>
      <trkpt lat="46.01525" lon="7.11967">
        <ele>1322</ele>
        <time>2000-01-01T14:28:15.000Z</time>
      </trkpt>
      <trkpt lat="46.01576" lon="7.1198">
        <ele>1324</ele>
        <time>2000-01-01T14:28:25.000Z</time>
      </trkpt>
      <trkpt lat="46.01609" lon="7.1196">
        <ele>1327</ele>
        <time>2000-01-01T14:28:35.000Z</time>
      </trkpt>
      <trkpt lat="46.01642" lon="7.11941">
        <ele>1328</ele>
        <time>2000-01-01T14:28:45.000Z</time>
      </trkpt>
      <trkpt lat="46.01674" lon="7.11921">
        <ele>1328</ele>
        <time>2000-01-01T14:28:55.000Z</time>
      </trkpt>
      <trkpt lat="46.01712" lon="7.11899">
        <ele>1309</ele>
        <time>2000-01-01T14:29:05.000Z</time>
      </trkpt>
      <trkpt lat="46.01741" lon="7.11899">
        <ele>1309</ele>
        <time>2000-01-01T14:29:15.000Z</time>
      </trkpt>
      <trkpt lat="46.01789" lon="7.119">
        <ele>1313</ele>
        <time>2000-01-01T14:29:25.000Z</time>
      </trkpt>
      <trkpt lat="46.0181" lon="7.11932">
        <ele>1318</ele>
        <time>2000-01-01T14:29:35.000Z</time>
      </trkpt>
      <trkpt lat="46.01849" lon="7.11992">
        <ele>1325</ele>
        <time>2000-01-01T14:29:45.000Z</time>
      </trkpt>
      <trkpt lat="46.01872" lon="7.12003">
        <ele>1335</ele>
        <time>2000-01-01T14:29:55.000Z</time>
      </trkpt>
      <trkpt lat="46.01897" lon="7.12014">
        <ele>1345</ele>
        <time>2000-01-01T14:30:05.000Z</time>
      </trkpt>
      <trkpt lat="46.01878" lon="7.11986">
        <ele>1347</ele>
        <time>2000-01-01T14:30:15.000Z</time>
      </trkpt>
      <trkpt lat="46.01851" lon="7.11948">
        <ele>1357</ele>
        <time>2000-01-01T14:30:25.000Z</time>
      </trkpt>
      <trkpt lat="46.01868" lon="7.11937">
        <ele>1361.8</ele>
        <time>2000-01-01T14:30:35.000Z</time>
      </trkpt>
      <trkpt lat="46.01841" lon="7.11881">
        <ele>1362</ele>
        <time>2000-01-01T14:30:45.000Z</time>
      </trkpt>
      <trkpt lat="46.01875" lon="7.11901">
        <ele>1381</ele>
        <time>2000-01-01T14:30:55.000Z</time>
      </trkpt>
      <trkpt lat="46.01866" lon="7.1186">
        <ele>1386</ele>
        <time>2000-01-01T14:31:05.000Z</time>
      </trkpt>
      <trkpt lat="46.0185" lon="7.11789">
        <ele>1402</ele>
        <time>2000-01-01T14:31:15.000Z</time>
      </trkpt>
      <trkpt lat="46.01888" lon="7.11808">
        <ele>1402</ele>
        <time>2000-01-01T14:31:25.000Z</time>
      </trkpt>
      <trkpt lat="46.01899" lon="7.11834">
        <ele>1402</ele>
        <time>2000-01-01T14:31:35.000Z</time>
      </trkpt>
      <trkpt lat="46.01917" lon="7.11826">
        <ele>1412</ele>
        <time>2000-01-01T14:31:45.000Z</time>
      </trkpt>
      <trkpt lat="46.01938" lon="7.1185">
        <ele>1412</ele>
        <time>2000-01-01T14:31:55.000Z</time>
      </trkpt>
      <trkpt lat="46.01966" lon="7.11882">
        <ele>1419</ele>
        <time>2000-01-01T14:32:05.000Z</time>
      </trkpt>
      <trkpt lat="46.01994" lon="7.11887">
        <ele>1419</ele>
        <time>2000-01-01T14:32:15.000Z</time>
      </trkpt>
      <trkpt lat="46.02038" lon="7.11895">
        <ele>1419</ele>
        <time>2000-01-01T14:32:25.000Z</time>
      </trkpt>
      <trkpt lat="46.0206" lon="7.11869">
        <ele>1410</ele>
        <time>2000-01-01T14:32:35.000Z</time>
      </trkpt>
      <trkpt lat="46.02095" lon="7.11893">
        <ele>1402</ele>
        <time>2000-01-01T14:32:45.000Z</time>
      </trkpt>
      <trkpt lat="46.0213" lon="7.11917">
        <ele>1382</ele>
        <time>2000-01-01T14:32:55.000Z</time>
      </trkpt>
      <trkpt lat="46.02165" lon="7.11941">
        <ele>1371</ele>
        <time>2000-01-01T14:33:05.000Z</time>
      </trkpt>
      <trkpt lat="46.022" lon="7.11964">
        <ele>1372</ele>
        <time>2000-01-01T14:33:15.000Z</time>
      </trkpt>
      <trkpt lat="46.02264" lon="7.12008">
        <ele>1373</ele>
        <time>2000-01-01T14:33:25.000Z</time>
      </trkpt>
      <trkpt lat="46.02291" lon="7.1201">
        <ele>1378</ele>
        <time>2000-01-01T14:33:35.000Z</time>
      </trkpt>
      <trkpt lat="46.02311" lon="7.12032">
        <ele>1391</ele>
        <time>2000-01-01T14:33:45.000Z</time>
      </trkpt>
      <trkpt lat="46.02334" lon="7.12058">
        <ele>1400</ele>
        <time>2000-01-01T14:33:55.000Z</time>
      </trkpt>
      <trkpt lat="46.02368" lon="7.12067">
        <ele>1411</ele>
        <time>2000-01-01T14:34:05.000Z</time>
      </trkpt>
      <trkpt lat="46.02401" lon="7.12075">
        <ele>1416</ele>
        <time>2000-01-01T14:34:15.000Z</time>
      </trkpt>
      <trkpt lat="46.02458" lon="7.1209">
        <ele>1422</ele>
        <time>2000-01-01T14:34:25.000Z</time>
      </trkpt>
      <trkpt lat="46.02482" lon="7.12131">
        <ele>1417</ele>
        <time>2000-01-01T14:34:35.000Z</time>
      </trkpt>
      <trkpt lat="46.02491" lon="7.12113">
        <ele>1426.8</ele>
        <time>2000-01-01T14:34:45.000Z</time>
      </trkpt>
      <trkpt lat="46.02538" lon="7.12128">
        <ele>1418</ele>
        <time>2000-01-01T14:34:55.000Z</time>
      </trkpt>
      <trkpt lat="46.02561" lon="7.12111">
        <ele>1419</ele>
        <time>2000-01-01T14:35:05.000Z</time>
      </trkpt>
      <trkpt lat="46.02591" lon="7.12089">
        <ele>1437</ele>
        <time>2000-01-01T14:35:15.000Z</time>
      </trkpt>
      <trkpt lat="46.02607" lon="7.12094">
        <ele>1451.2</ele>
        <time>2000-01-01T14:35:25.000Z</time>
      </trkpt>
      <trkpt lat="46.02619" lon="7.12108">
        <ele>1438</ele>
        <time>2000-01-01T14:35:35.000Z</time>
      </trkpt>
      <trkpt lat="46.026" lon="7.12145">
        <ele>1440</ele>
        <time>2000-01-01T14:35:45.000Z</time>
      </trkpt>
      <trkpt lat="46.02581" lon="7.12183">
        <ele>1450</ele>
        <time>2000-01-01T14:35:55.000Z</time>
      </trkpt>
      <trkpt lat="46.02557" lon="7.12229">
        <ele>1459</ele>
        <time>2000-01-01T14:36:05.000Z</time>
      </trkpt>
      <trkpt lat="46.02581" lon="7.12235">
        <ele>1459</ele>
        <time>2000-01-01T14:36:15.000Z</time>
      </trkpt>
      <trkpt lat="46.02608" lon="7.12241">
        <ele>1458</ele>
        <time>2000-01-01T14:36:25.000Z</time>
      </trkpt>
      <trkpt lat="46.02638" lon="7.12205">
        <ele>1458</ele>
        <time>2000-01-01T14:36:35.000Z</time>
      </trkpt>
      <trkpt lat="46.02669" lon="7.1217">
        <ele>1464</ele>
        <time>2000-01-01T14:36:45.000Z</time>
      </trkpt>
      <trkpt lat="46.02699" lon="7.12134">
        <ele>1468</ele>
        <time>2000-01-01T14:36:55.000Z</time>
      </trkpt>
      <trkpt lat="46.0273" lon="7.12098">
        <ele>1470</ele>
        <time>2000-01-01T14:37:05.000Z</time>
      </trkpt>
      <trkpt lat="46.0276" lon="7.12063">
        <ele>1467</ele>
        <time>2000-01-01T14:37:15.000Z</time>
      </trkpt>
      <trkpt lat="46.02798" lon="7.12019">
        <ele>1465</ele>
        <time>2000-01-01T14:37:25.000Z</time>
      </trkpt>
      <trkpt lat="46.02809" lon="7.11972">
        <ele>1466</ele>
        <time>2000-01-01T14:37:35.000Z</time>
      </trkpt>
      <trkpt lat="46.02821" lon="7.11924">
        <ele>1462</ele>
        <time>2000-01-01T14:37:45.000Z</time>
      </trkpt>
      <trkpt lat="46.02842" lon="7.11835">
        <ele>1459</ele>
        <time>2000-01-01T14:37:55.000Z</time>
      </trkpt>
      <trkpt lat="46.02869" lon="7.11805">
        <ele>1459</ele>
        <time>2000-01-01T14:38:05.000Z</time>
      </trkpt>
      <trkpt lat="46.02896" lon="7.11776">
        <ele>1459</ele>
        <time>2000-01-01T14:38:15.000Z</time>
      </trkpt>
      <trkpt lat="46.02939" lon="7.11728">
        <ele>1459</ele>
        <time>2000-01-01T14:38:25.000Z</time>
      </trkpt>
      <trkpt lat="46.02965" lon="7.11707">
        <ele>1462</ele>
        <time>2000-01-01T14:38:35.000Z</time>
      </trkpt>
      <trkpt lat="46.03011" lon="7.11671">
        <ele>1463</ele>
        <time>2000-01-01T14:38:45.000Z</time>
      </trkpt>
      <trkpt lat="46.03026" lon="7.11637">
        <ele>1463</ele>
        <time>2000-01-01T14:38:55.000Z</time>
      </trkpt>
      <trkpt lat="46.03047" lon="7.11589">
        <ele>1464</ele>
        <time>2000-01-01T14:39:05.000Z</time>
      </trkpt>
      <trkpt lat="46.03067" lon="7.11608">
        <ele>1466</ele>
        <time>2000-01-01T14:39:15.000Z</time>
      </trkpt>
      <trkpt lat="46.03089" lon="7.11629">
        <ele>1474</ele>
        <time>2000-01-01T14:39:25.000Z</time>
      </trkpt>
      <trkpt lat="46.03125" lon="7.11642">
        <ele>1484</ele>
        <time>2000-01-01T14:39:35.000Z</time>
      </trkpt>
      <trkpt lat="46.03152" lon="7.11625">
        <ele>1491</ele>
        <time>2000-01-01T14:39:45.000Z</time>
      </trkpt>
      <trkpt lat="46.032" lon="7.11596">
        <ele>1512</ele>
        <time>2000-01-01T14:39:55.000Z</time>
      </trkpt>
      <trkpt lat="46.0321" lon="7.11634">
        <ele>1523</ele>
        <time>2000-01-01T14:40:05.000Z</time>
      </trkpt>
      <trkpt lat="46.03228" lon="7.11641">
        <ele>1536.8</ele>
        <time>2000-01-01T14:40:15.000Z</time>
      </trkpt>
      <trkpt lat="46.03218" lon="7.11681">
        <ele>1528</ele>
        <time>2000-01-01T14:40:25.000Z</time>
      </trkpt>
      <trkpt lat="46.0323" lon="7.11683">
        <ele>1549.6</ele>
        <time>2000-01-01T14:40:35.000Z</time>
      </trkpt>
      <trkpt lat="46.03239" lon="7.11755">
        <ele>1579</ele>
        <time>2000-01-01T14:40:45.000Z</time>
      </trkpt>
      <trkpt lat="46.03266" lon="7.11756">
        <ele>1595</ele>
        <time>2000-01-01T14:40:55.000Z</time>
      </trkpt>
      <trkpt lat="46.03302" lon="7.11757">
        <ele>1614</ele>
        <time>2000-01-01T14:41:05.000Z</time>
      </trkpt>
      <trkpt lat="46.03294" lon="7.11807">
        <ele>1628</ele>
        <time>2000-01-01T14:41:15.000Z</time>
      </trkpt>
      <trkpt lat="46.03316" lon="7.11841">
        <ele>1659</ele>
        <time>2000-01-01T14:41:25.000Z</time>
      </trkpt>
      <trkpt lat="46.03342" lon="7.11844">
        <ele>1688</ele>
        <time>2000-01-01T14:41:35.000Z</time>
      </trkpt>
      <trkpt lat="46.03362" lon="7.11873">
        <ele>1718</ele>
        <time>2000-01-01T14:41:45.000Z</time>
      </trkpt>
      <trkpt lat="46.03382" lon="7.11873">
        <ele>1712</ele>
        <time>2000-01-01T14:41:55.000Z</time>
      </trkpt>
      <trkpt lat="46.03377" lon="7.11825">
        <ele>1707</ele>
        <time>2000-01-01T14:42:05.000Z</time>
      </trkpt>
      <trkpt lat="46.0339" lon="7.11798">
        <ele>1710</ele>
        <time>2000-01-01T14:42:15.000Z</time>
      </trkpt>
      <trkpt lat="46.03423" lon="7.11799">
        <ele>1713</ele>
        <time>2000-01-01T14:42:25.000Z</time>
      </trkpt>
      <trkpt lat="46.03424" lon="7.11838">
        <ele>1759</ele>
        <time>2000-01-01T14:42:35.000Z</time>
      </trkpt>
      <trkpt lat="46.03442" lon="7.11821">
        <ele>1777</ele>
        <time>2000-01-01T14:42:45.000Z</time>
      </trkpt>
      <trkpt lat="46.03467" lon="7.11827">
        <ele>1803</ele>
        <time>2000-01-01T14:42:55.000Z</time>
      </trkpt>
      <trkpt lat="46.03479" lon="7.11807">
        <ele>1787.7</ele>
        <time>2000-01-01T14:43:05.000Z</time>
      </trkpt>
      <trkpt lat="46.03497" lon="7.11819">
        <ele>1807</ele>
        <time>2000-01-01T14:43:15.000Z</time>
      </trkpt>
      <trkpt lat="46.03482" lon="7.11859">
        <ele>1809</ele>
        <time>2000-01-01T14:43:25.000Z</time>
      </trkpt>
      <trkpt lat="46.03468" lon="7.11899">
        <ele>1809</ele>
        <time>2000-01-01T14:43:35.000Z</time>
      </trkpt>
      <trkpt lat="46.03453" lon="7.1194">
        <ele>1813</ele>
        <time>2000-01-01T14:43:45.000Z</time>
      </trkpt>
      <trkpt lat="46.03463" lon="7.1197">
        <ele>1817</ele>
        <time>2000-01-01T14:43:55.000Z</time>
      </trkpt>
      <trkpt lat="46.03474" lon="7.12001">
        <ele>1821</ele>
        <time>2000-01-01T14:44:05.000Z</time>
      </trkpt>
      <trkpt lat="46.03461" lon="7.12065">
        <ele>1824</ele>
        <time>2000-01-01T14:44:15.000Z</time>
      </trkpt>
      <trkpt lat="46.0347" lon="7.12084">
        <ele>1838</ele>
        <time>2000-01-01T14:44:25.000Z</time>
      </trkpt>
      <trkpt lat="46.03558" lon="7.11994">
        <ele>1871</ele>
        <time>2000-01-01T14:44:35.000Z</time>
      </trkpt>
      <trkpt lat="46.03582" lon="7.11981">
        <ele>1891</ele>
        <time>2000-01-01T14:44:45.000Z</time>
      </trkpt>
      <trkpt lat="46.0361" lon="7.11966">
        <ele>1908</ele>
        <time>2000-01-01T14:44:55.000Z</time>
      </trkpt>
      <trkpt lat="46.0364" lon="7.1196">
        <ele>1913</ele>
        <time>2000-01-01T14:45:05.000Z</time>
      </trkpt>
      <trkpt lat="46.03695" lon="7.11949">
        <ele>1949</ele>
        <time>2000-01-01T14:45:15.000Z</time>
      </trkpt>
      <trkpt lat="46.03704" lon="7.11932">
        <ele>1989.1</ele>
        <time>2000-01-01T14:45:25.000Z</time>
      </trkpt>
      <trkpt lat="46.03736" lon="7.11937">
        <ele>1962</ele>
        <time>2000-01-01T14:45:35.000Z</time>
      </trkpt>
      <trkpt lat="46.03759" lon="7.11919">
        <ele>1975</ele>
        <time>2000-01-01T14:45:45.000Z</time>
      </trkpt>
      <trkpt lat="46.03788" lon="7.11897">
        <ele>2006</ele>
        <time>2000-01-01T14:45:55.000Z</time>
      </trkpt>
      <trkpt lat="46.03809" lon="7.11905">
        <ele>2038</ele>
        <time>2000-01-01T14:46:05.000Z</time>
      </trkpt>
      <trkpt lat="46.0383" lon="7.11865">
        <ele>2060</ele>
        <time>2000-01-01T14:46:15.000Z</time>
      </trkpt>
      <trkpt lat="46.03865" lon="7.11859">
        <ele>2073</ele>
        <time>2000-01-01T14:46:25.000Z</time>
      </trkpt>
      <trkpt lat="46.039" lon="7.11852">
        <ele>2082</ele>
        <time>2000-01-01T14:46:35.000Z</time>
      </trkpt>
      <trkpt lat="46.03935" lon="7.11846">
        <ele>2082</ele>
        <time>2000-01-01T14:46:45.000Z</time>
      </trkpt>
      <trkpt lat="46.03971" lon="7.11839">
        <ele>2099</ele>
        <time>2000-01-01T14:46:55.000Z</time>
      </trkpt>
      <trkpt lat="46.03985" lon="7.11818">
        <ele>2105</ele>
        <time>2000-01-01T14:47:05.000Z</time>
      </trkpt>
      <trkpt lat="46.04011" lon="7.1181">
        <ele>2122</ele>
        <time>2000-01-01T14:47:15.000Z</time>
      </trkpt>
      <trkpt lat="46.04048" lon="7.118">
        <ele>2130</ele>
        <time>2000-01-01T14:47:25.000Z</time>
      </trkpt>
      <trkpt lat="46.04073" lon="7.11772">
        <ele>2159</ele>
        <time>2000-01-01T14:47:35.000Z</time>
      </trkpt>
      <trkpt lat="46.04103" lon="7.11771">
        <ele>2168</ele>
        <time>2000-01-01T14:47:45.000Z</time>
      </trkpt>
      <trkpt lat="46.04155" lon="7.1177">
        <ele>2185</ele>
        <time>2000-01-01T14:47:55.000Z</time>
      </trkpt>
      <trkpt lat="46.04159" lon="7.11727">
        <ele>2187</ele>
        <time>2000-01-01T14:48:05.000Z</time>
      </trkpt>
      <trkpt lat="46.04167" lon="7.11647">
        <ele>2204</ele>
        <time>2000-01-01T14:48:15.000Z</time>
      </trkpt>
      <trkpt lat="46.04179" lon="7.11612">
        <ele>2205</ele>
        <time>2000-01-01T14:48:25.000Z</time>
      </trkpt>
      <trkpt lat="46.04195" lon="7.11566">
        <ele>2227</ele>
        <time>2000-01-01T14:48:35.000Z</time>
      </trkpt>
      <trkpt lat="46.04209" lon="7.11571">
        <ele>2249.2</ele>
        <time>2000-01-01T14:48:45.000Z</time>
      </trkpt>
      <trkpt lat="46.04215" lon="7.11548">
        <ele>2254</ele>
        <time>2000-01-01T14:48:55.000Z</time>
      </trkpt>
      <trkpt lat="46.04254" lon="7.11514">
        <ele>2275</ele>
        <time>2000-01-01T14:49:05.000Z</time>
      </trkpt>
      <trkpt lat="46.04264" lon="7.1148">
        <ele>2275</ele>
        <time>2000-01-01T14:49:15.000Z</time>
      </trkpt>
      <trkpt lat="46.04275" lon="7.11441">
        <ele>2279</ele>
        <time>2000-01-01T14:49:25.000Z</time>
      </trkpt>
      <trkpt lat="46.04302" lon="7.11444">
        <ele>2284</ele>
        <time>2000-01-01T14:49:35.000Z</time>
      </trkpt>
      <trkpt lat="46.04337" lon="7.11449">
        <ele>2298</ele>
        <time>2000-01-01T14:49:45.000Z</time>
      </trkpt>
      <trkpt lat="46.04369" lon="7.11412">
        <ele>2282</ele>
        <time>2000-01-01T14:49:55.000Z</time>
      </trkpt>
      <trkpt lat="46.04373" lon="7.11365">
        <ele>2267</ele>
        <time>2000-01-01T14:50:05.000Z</time>
      </trkpt>
      <trkpt lat="46.04376" lon="7.11318">
        <ele>2270</ele>
        <time>2000-01-01T14:50:15.000Z</time>
      </trkpt>
      <trkpt lat="46.04381" lon="7.11254">
        <ele>2273</ele>
        <time>2000-01-01T14:50:25.000Z</time>
      </trkpt>
      <trkpt lat="46.04403" lon="7.11242">
        <ele>2273</ele>
        <time>2000-01-01T14:50:35.000Z</time>
      </trkpt>
      <trkpt lat="46.04425" lon="7.11231">
        <ele>2294</ele>
        <time>2000-01-01T14:50:45.000Z</time>
      </trkpt>
      <trkpt lat="46.04464" lon="7.11249">
        <ele>2299</ele>
        <time>2000-01-01T14:50:55.000Z</time>
      </trkpt>
      <trkpt lat="46.04484" lon="7.11235">
        <ele>2304</ele>
        <time>2000-01-01T14:51:05.000Z</time>
      </trkpt>
      <trkpt lat="46.04493" lon="7.11252">
        <ele>2305.6</ele>
        <time>2000-01-01T14:51:15.000Z</time>
      </trkpt>
      <trkpt lat="46.04532" lon="7.11264">
        <ele>2317</ele>
        <time>2000-01-01T14:51:25.000Z</time>
      </trkpt>
      <trkpt lat="46.04548" lon="7.11243">
        <ele>2317</ele>
        <time>2000-01-01T14:51:35.000Z</time>
      </trkpt>
      <trkpt lat="46.04581" lon="7.11242">
        <ele>2316</ele>
        <time>2000-01-01T14:51:45.000Z</time>
      </trkpt>
      <trkpt lat="46.04614" lon="7.11241">
        <ele>2316</ele>
        <time>2000-01-01T14:51:55.000Z</time>
      </trkpt>
      <trkpt lat="46.04662" lon="7.11239">
        <ele>2308</ele>
        <time>2000-01-01T14:52:05.000Z</time>
      </trkpt>
      <trkpt lat="46.04685" lon="7.11202">
        <ele>2290</ele>
        <time>2000-01-01T14:52:15.000Z</time>
      </trkpt>
      <trkpt lat="46.04694" lon="7.11153">
        <ele>2277</ele>
        <time>2000-01-01T14:52:25.000Z</time>
      </trkpt>
      <trkpt lat="46.04703" lon="7.11104">
        <ele>2264</ele>
        <time>2000-01-01T14:52:35.000Z</time>
      </trkpt>
      <trkpt lat="46.04721" lon="7.11008">
        <ele>2232</ele>
        <time>2000-01-01T14:52:45.000Z</time>
      </trkpt>
      <trkpt lat="46.04754" lon="7.10966">
        <ele>2235</ele>
        <time>2000-01-01T14:52:55.000Z</time>
      </trkpt>
      <trkpt lat="46.04782" lon="7.10977">
        <ele>2239</ele>
        <time>2000-01-01T14:53:05.000Z</time>
      </trkpt>
      <trkpt lat="46.04827" lon="7.10995">
        <ele>2275</ele>
        <time>2000-01-01T14:53:15.000Z</time>
      </trkpt>
      <trkpt lat="46.04862" lon="7.10997">
        <ele>2289</ele>
        <time>2000-01-01T14:53:25.000Z</time>
      </trkpt>
      <trkpt lat="46.04898" lon="7.10999">
        <ele>2300</ele>
        <time>2000-01-01T14:53:35.000Z</time>
      </trkpt>
      <trkpt lat="46.04933" lon="7.11002">
        <ele>2316</ele>
        <time>2000-01-01T14:53:45.000Z</time>
      </trkpt>
      <trkpt lat="46.04971" lon="7.11004">
        <ele>2328</ele>
        <time>2000-01-01T14:53:55.000Z</time>
      </trkpt>
      <trkpt lat="46.04987" lon="7.10996">
        <ele>2322.6</ele>
        <time>2000-01-01T14:54:05.000Z</time>
      </trkpt>
      <trkpt lat="46.05017" lon="7.10901">
        <ele>2340</ele>
        <time>2000-01-01T14:54:15.000Z</time>
      </trkpt>
      <trkpt lat="46.05037" lon="7.10938">
        <ele>2362</ele>
        <time>2000-01-01T14:54:25.000Z</time>
      </trkpt>
      <trkpt lat="46.05052" lon="7.10935">
        <ele>2381.4</ele>
        <time>2000-01-01T14:54:35.000Z</time>
      </trkpt>
      <trkpt lat="46.05071" lon="7.10984">
        <ele>2424</ele>
        <time>2000-01-01T14:54:45.000Z</time>
      </trkpt>
      <trkpt lat="46.05095" lon="7.10981">
        <ele>2424</ele>
        <time>2000-01-01T14:54:55.000Z</time>
      </trkpt>
      <trkpt lat="46.05121" lon="7.10977">
        <ele>2450</ele>
        <time>2000-01-01T14:55:05.000Z</time>
      </trkpt>
      <trkpt lat="46.05149" lon="7.11009">
        <ele>2452</ele>
        <time>2000-01-01T14:55:15.000Z</time>
      </trkpt>
      <trkpt lat="46.05157" lon="7.10998">
        <ele>2435.6</ele>
        <time>2000-01-01T14:55:25.000Z</time>
      </trkpt>
      <trkpt lat="46.05168" lon="7.11007">
        <ele>2454</ele>
        <time>2000-01-01T14:55:35.000Z</time>
      </trkpt>
      <trkpt lat="46.05178" lon="7.11072">
        <ele>2505</ele>
        <time>2000-01-01T14:55:45.000Z</time>
      </trkpt>
      <trkpt lat="46.0516" lon="7.11081">
        <ele>2505</ele>
        <time>2000-01-01T14:55:55.000Z</time>
      </trkpt>
      <trkpt lat="46.05163" lon="7.11094">
        <ele>2481.3</ele>
        <time>2000-01-01T14:56:05.000Z</time>
      </trkpt>
      <trkpt lat="46.05195" lon="7.11101">
        <ele>2525</ele>
        <time>2000-01-01T14:56:15.000Z</time>
      </trkpt>
      <trkpt lat="46.05204" lon="7.11122">
        <ele>2510.1</ele>
        <time>2000-01-01T14:56:25.000Z</time>
      </trkpt>
      <trkpt lat="46.05194" lon="7.11131">
        <ele>2528</ele>
        <time>2000-01-01T14:56:35.000Z</time>
      </trkpt>
      <trkpt lat="46.0522" lon="7.1115">
        <ele>2533</ele>
        <time>2000-01-01T14:56:45.000Z</time>
      </trkpt>
      <trkpt lat="46.05263" lon="7.11181">
        <ele>2534</ele>
        <time>2000-01-01T14:56:55.000Z</time>
      </trkpt>
      <trkpt lat="46.05263" lon="7.11199">
        <ele>2558.3</ele>
        <time>2000-01-01T14:57:05.000Z</time>
      </trkpt>
      <trkpt lat="46.05302" lon="7.11197">
        <ele>2536</ele>
        <time>2000-01-01T14:57:15.000Z</time>
      </trkpt>
      <trkpt lat="46.05328" lon="7.11185">
        <ele>2538</ele>
        <time>2000-01-01T14:57:25.000Z</time>
      </trkpt>
      <trkpt lat="46.05363" lon="7.11169">
        <ele>2538</ele>
        <time>2000-01-01T14:57:35.000Z</time>
      </trkpt>
      <trkpt lat="46.05384" lon="7.1114">
        <ele>2548</ele>
        <time>2000-01-01T14:57:45.000Z</time>
      </trkpt>
      <trkpt lat="46.05418" lon="7.11091">
        <ele>2558</ele>
        <time>2000-01-01T14:57:55.000Z</time>
      </trkpt>
      <trkpt lat="46.05438" lon="7.11101">
        <ele>2569</ele>
        <time>2000-01-01T14:58:05.000Z</time>
      </trkpt>
      <trkpt lat="46.05458" lon="7.11088">
        <ele>2572</ele>
        <time>2000-01-01T14:58:15.000Z</time>
      </trkpt>
      <trkpt lat="46.05479" lon="7.11127">
        <ele>2565</ele>
        <time>2000-01-01T14:58:25.000Z</time>
      </trkpt>
      <trkpt lat="46.05524" lon="7.11113">
        <ele>2559</ele>
        <time>2000-01-01T14:58:35.000Z</time>
      </trkpt>
      <trkpt lat="46.05554" lon="7.11114">
        <ele>2549</ele>
        <time>2000-01-01T14:58:45.000Z</time>
      </trkpt>
      <trkpt lat="46.05609" lon="7.11117">
        <ele>2523</ele>
        <time>2000-01-01T14:58:55.000Z</time>
      </trkpt>
      <trkpt lat="46.05621" lon="7.11082">
        <ele>2518</ele>
        <time>2000-01-01T14:59:05.000Z</time>
      </trkpt>
      <trkpt lat="46.05637" lon="7.11036">
        <ele>2506</ele>
        <time>2000-01-01T14:59:15.000Z</time>
      </trkpt>
      <trkpt lat="46.05638" lon="7.10994">
        <ele>2497</ele>
        <time>2000-01-01T14:59:25.000Z</time>
      </trkpt>
      <trkpt lat="46.0564" lon="7.10928">
        <ele>2472</ele>
        <time>2000-01-01T14:59:35.000Z</time>
      </trkpt>
      <trkpt lat="46.05662" lon="7.10893">
        <ele>2465</ele>
        <time>2000-01-01T14:59:45.000Z</time>
      </trkpt>
      <trkpt lat="46.05683" lon="7.10859">
        <ele>2456</ele>
        <time>2000-01-01T14:59:55.000Z</time>
      </trkpt>
      <trkpt lat="46.05711" lon="7.10815">
        <ele>2424</ele>
        <time>2000-01-01T15:00:05.000Z</time>
      </trkpt>
      <trkpt lat="46.05741" lon="7.10784">
        <ele>2410</ele>
        <time>2000-01-01T15:00:15.000Z</time>
      </trkpt>
      <trkpt lat="46.05772" lon="7.10754">
        <ele>2403</ele>
        <time>2000-01-01T15:00:25.000Z</time>
      </trkpt>
      <trkpt lat="46.05802" lon="7.10723">
        <ele>2400</ele>
        <time>2000-01-01T15:00:35.000Z</time>
      </trkpt>
      <trkpt lat="46.05857" lon="7.10667">
        <ele>2397</ele>
        <time>2000-01-01T15:00:45.000Z</time>
      </trkpt>
      <trkpt lat="46.05881" lon="7.10649">
        <ele>2391</ele>
        <time>2000-01-01T15:00:55.000Z</time>
      </trkpt>
      <trkpt lat="46.05912" lon="7.10624">
        <ele>2382</ele>
        <time>2000-01-01T15:01:05.000Z</time>
      </trkpt>
      <trkpt lat="46.05938" lon="7.10617">
        <ele>2382</ele>
        <time>2000-01-01T15:01:15.000Z</time>
      </trkpt>
      <trkpt lat="46.05974" lon="7.10608">
        <ele>2378</ele>
        <time>2000-01-01T15:01:25.000Z</time>
      </trkpt>
      <trkpt lat="46.0598" lon="7.10555">
        <ele>2367</ele>
        <time>2000-01-01T15:01:35.000Z</time>
      </trkpt>
      <trkpt lat="46.05986" lon="7.10502">
        <ele>2347</ele>
        <time>2000-01-01T15:01:45.000Z</time>
      </trkpt>
      <trkpt lat="46.05992" lon="7.1045">
        <ele>2318</ele>
        <time>2000-01-01T15:01:55.000Z</time>
      </trkpt>
      <trkpt lat="46.06003" lon="7.10353">
        <ele>2297</ele>
        <time>2000-01-01T15:02:05.000Z</time>
      </trkpt>
      <trkpt lat="46.05994" lon="7.10316">
        <ele>2283</ele>
        <time>2000-01-01T15:02:15.000Z</time>
      </trkpt>
      <trkpt lat="46.05981" lon="7.10267">
        <ele>2272</ele>
        <time>2000-01-01T15:02:25.000Z</time>
      </trkpt>
      <trkpt lat="46.06001" lon="7.10244">
        <ele>2262</ele>
        <time>2000-01-01T15:02:35.000Z</time>
      </trkpt>
      <trkpt lat="46.06024" lon="7.10218">
        <ele>2243</ele>
        <time>2000-01-01T15:02:45.000Z</time>
      </trkpt>
      <trkpt lat="46.06022" lon="7.10175">
        <ele>2215</ele>
        <time>2000-01-01T15:02:55.000Z</time>
      </trkpt>
      <trkpt lat="46.0606" lon="7.10158">
        <ele>2185</ele>
        <time>2000-01-01T15:03:05.000Z</time>
      </trkpt>
      <trkpt lat="46.06068" lon="7.10123">
        <ele>2174</ele>
        <time>2000-01-01T15:03:15.000Z</time>
      </trkpt>
      <trkpt lat="46.06051" lon="7.10085">
        <ele>2165</ele>
        <time>2000-01-01T15:03:25.000Z</time>
      </trkpt>
      <trkpt lat="46.06049" lon="7.10046">
        <ele>2139</ele>
        <time>2000-01-01T15:03:35.000Z</time>
      </trkpt>
      <trkpt lat="46.06046" lon="7.09994">
        <ele>2127</ele>
        <time>2000-01-01T15:03:45.000Z</time>
      </trkpt>
      <trkpt lat="46.06058" lon="7.09963">
        <ele>2119</ele>
        <time>2000-01-01T15:03:55.000Z</time>
      </trkpt>
      <trkpt lat="46.06071" lon="7.09928">
        <ele>2092</ele>
        <time>2000-01-01T15:04:05.000Z</time>
      </trkpt>
      <trkpt lat="46.06068" lon="7.09894">
        <ele>2087</ele>
        <time>2000-01-01T15:04:15.000Z</time>
      </trkpt>
      <trkpt lat="46.06065" lon="7.09858">
        <ele>2084</ele>
        <time>2000-01-01T15:04:25.000Z</time>
      </trkpt>
      <trkpt lat="46.06048" lon="7.09826">
        <ele>2064</ele>
        <time>2000-01-01T15:04:35.000Z</time>
      </trkpt>
      <trkpt lat="46.06047" lon="7.09781">
        <ele>2046</ele>
        <time>2000-01-01T15:04:45.000Z</time>
      </trkpt>
      <trkpt lat="46.06046" lon="7.09692">
        <ele>2025</ele>
        <time>2000-01-01T15:04:55.000Z</time>
      </trkpt>
      <trkpt lat="46.06032" lon="7.09668">
        <ele>2015</ele>
        <time>2000-01-01T15:05:05.000Z</time>
      </trkpt>
      <trkpt lat="46.06048" lon="7.09655">
        <ele>2018.1</ele>
        <time>2000-01-01T15:05:15.000Z</time>
      </trkpt>
      <trkpt lat="46.06048" lon="7.09632">
        <ele>2003</ele>
        <time>2000-01-01T15:05:25.000Z</time>
      </trkpt>
      <trkpt lat="46.06028" lon="7.09599">
        <ele>1992</ele>
        <time>2000-01-01T15:05:35.000Z</time>
      </trkpt>
      <trkpt lat="46.05988" lon="7.09535">
        <ele>1982</ele>
        <time>2000-01-01T15:05:45.000Z</time>
      </trkpt>
      <trkpt lat="46.05965" lon="7.09556">
        <ele>1973</ele>
        <time>2000-01-01T15:05:55.000Z</time>
      </trkpt>
      <trkpt lat="46.05933" lon="7.09585">
        <ele>1963</ele>
        <time>2000-01-01T15:06:05.000Z</time>
      </trkpt>
      <trkpt lat="46.0592" lon="7.09618">
        <ele>1964</ele>
        <time>2000-01-01T15:06:15.000Z</time>
      </trkpt>
      <trkpt lat="46.05902" lon="7.09661">
        <ele>1956</ele>
        <time>2000-01-01T15:06:25.000Z</time>
      </trkpt>
      <trkpt lat="46.05875" lon="7.09653">
        <ele>1948</ele>
        <time>2000-01-01T15:06:35.000Z</time>
      </trkpt>
      <trkpt lat="46.05874" lon="7.09595">
        <ele>1930</ele>
        <time>2000-01-01T15:06:45.000Z</time>
      </trkpt>
      <trkpt lat="46.05846" lon="7.09619">
        <ele>1913</ele>
        <time>2000-01-01T15:06:55.000Z</time>
      </trkpt>
      <trkpt lat="46.05849" lon="7.09591">
        <ele>1899</ele>
        <time>2000-01-01T15:07:05.000Z</time>
      </trkpt>
      <trkpt lat="46.05815" lon="7.09554">
        <ele>1873</ele>
        <time>2000-01-01T15:07:15.000Z</time>
      </trkpt>
      <trkpt lat="46.0583" lon="7.09533">
        <ele>1872</ele>
        <time>2000-01-01T15:07:25.000Z</time>
      </trkpt>
      <trkpt lat="46.05826" lon="7.09497">
        <ele>1857</ele>
        <time>2000-01-01T15:07:35.000Z</time>
      </trkpt>
      <trkpt lat="46.05798" lon="7.09484">
        <ele>1807</ele>
        <time>2000-01-01T15:07:45.000Z</time>
      </trkpt>
      <trkpt lat="46.05786" lon="7.09451">
        <ele>1796</ele>
        <time>2000-01-01T15:07:55.000Z</time>
      </trkpt>
      <trkpt lat="46.05789" lon="7.09413">
        <ele>1790</ele>
        <time>2000-01-01T15:08:05.000Z</time>
      </trkpt>
      <trkpt lat="46.05793" lon="7.09365">
        <ele>1769</ele>
        <time>2000-01-01T15:08:15.000Z</time>
      </trkpt>
      <trkpt lat="46.0577" lon="7.09373">
        <ele>1769</ele>
        <time>2000-01-01T15:08:25.000Z</time>
      </trkpt>
      <trkpt lat="46.05777" lon="7.09349">
        <ele>1780</ele>
        <time>2000-01-01T15:08:35.000Z</time>
      </trkpt>
      <trkpt lat="46.05765" lon="7.0936">
        <ele>1759</ele>
        <time>2000-01-01T15:08:45.000Z</time>
      </trkpt>
      <trkpt lat="46.05766" lon="7.09349">
        <ele>1766.6</ele>
        <time>2000-01-01T15:08:55.000Z</time>
      </trkpt>
      <trkpt lat="46.0575" lon="7.09357">
        <ele>1759</ele>
        <time>2000-01-01T15:09:05.000Z</time>
      </trkpt>
      <trkpt lat="46.05745" lon="7.09336">
        <ele>1743.5</ele>
        <time>2000-01-01T15:09:15.000Z</time>
      </trkpt>
      <trkpt lat="46.05735" lon="7.09349">
        <ele>1752</ele>
        <time>2000-01-01T15:09:25.000Z</time>
      </trkpt>
      <trkpt lat="46.05722" lon="7.09342">
        <ele>1702.8</ele>
        <time>2000-01-01T15:09:35.000Z</time>
      </trkpt>
      <trkpt lat="46.05711" lon="7.09273">
        <ele>1732</ele>
        <time>2000-01-01T15:09:45.000Z</time>
      </trkpt>
      <trkpt lat="46.05686" lon="7.09282">
        <ele>1714</ele>
        <time>2000-01-01T15:09:55.000Z</time>
      </trkpt>
      <trkpt lat="46.05667" lon="7.09272">
        <ele>1714</ele>
        <time>2000-01-01T15:10:05.000Z</time>
      </trkpt>
      <trkpt lat="46.05679" lon="7.09246">
        <ele>1703</ele>
        <time>2000-01-01T15:10:15.000Z</time>
      </trkpt>
      <trkpt lat="46.0567" lon="7.09208">
        <ele>1684</ele>
        <time>2000-01-01T15:10:25.000Z</time>
      </trkpt>
      <trkpt lat="46.05655" lon="7.09149">
        <ele>1670</ele>
        <time>2000-01-01T15:10:35.000Z</time>
      </trkpt>
      <trkpt lat="46.05669" lon="7.0909">
        <ele>1657</ele>
        <time>2000-01-01T15:10:45.000Z</time>
      </trkpt>
      <trkpt lat="46.05651" lon="7.0908">
        <ele>1639</ele>
        <time>2000-01-01T15:10:55.000Z</time>
      </trkpt>
      <trkpt lat="46.05656" lon="7.09054">
        <ele>1634</ele>
        <time>2000-01-01T15:11:05.000Z</time>
      </trkpt>
      <trkpt lat="46.05648" lon="7.09059">
        <ele>1613.3</ele>
        <time>2000-01-01T15:11:15.000Z</time>
      </trkpt>
      <trkpt lat="46.05639" lon="7.09014">
        <ele>1630</ele>
        <time>2000-01-01T15:11:25.000Z</time>
      </trkpt>
      <trkpt lat="46.05625" lon="7.09005">
        <ele>1612.5</ele>
        <time>2000-01-01T15:11:35.000Z</time>
      </trkpt>
      <trkpt lat="46.05601" lon="7.09022">
        <ele>1580</ele>
        <time>2000-01-01T15:11:45.000Z</time>
      </trkpt>
      <trkpt lat="46.056" lon="7.0901">
        <ele>1566.6</ele>
        <time>2000-01-01T15:11:55.000Z</time>
      </trkpt>
      <trkpt lat="46.05558" lon="7.09022">
        <ele>1555</ele>
        <time>2000-01-01T15:12:05.000Z</time>
      </trkpt>
      <trkpt lat="46.05551" lon="7.08987">
        <ele>1530</ele>
        <time>2000-01-01T15:12:15.000Z</time>
      </trkpt>
      <trkpt lat="46.05543" lon="7.08946">
        <ele>1511</ele>
        <time>2000-01-01T15:12:25.000Z</time>
      </trkpt>
      <trkpt lat="46.05531" lon="7.08917">
        <ele>1492</ele>
        <time>2000-01-01T15:12:35.000Z</time>
      </trkpt>
      <trkpt lat="46.05507" lon="7.08903">
        <ele>1469</ele>
        <time>2000-01-01T15:12:45.000Z</time>
      </trkpt>
      <trkpt lat="46.05489" lon="7.0886">
        <ele>1445</ele>
        <time>2000-01-01T15:12:55.000Z</time>
      </trkpt>
      <trkpt lat="46.05498" lon="7.08837">
        <ele>1434.9</ele>
        <time>2000-01-01T15:13:05.000Z</time>
      </trkpt>
      <trkpt lat="46.05476" lon="7.08792">
        <ele>1406</ele>
        <time>2000-01-01T15:13:15.000Z</time>
      </trkpt>
      <trkpt lat="46.05438" lon="7.08806">
        <ele>1397</ele>
        <time>2000-01-01T15:13:25.000Z</time>
      </trkpt>
      <trkpt lat="46.05428" lon="7.08788">
        <ele>1371.6</ele>
        <time>2000-01-01T15:13:35.000Z</time>
      </trkpt>
      <trkpt lat="46.05406" lon="7.0879">
        <ele>1377</ele>
        <time>2000-01-01T15:13:45.000Z</time>
      </trkpt>
      <trkpt lat="46.05399" lon="7.08759">
        <ele>1367</ele>
        <time>2000-01-01T15:13:55.000Z</time>
      </trkpt>
      <trkpt lat="46.05355" lon="7.08754">
        <ele>1349</ele>
        <time>2000-01-01T15:14:05.000Z</time>
      </trkpt>
      <trkpt lat="46.05335" lon="7.08723">
        <ele>1328</ele>
        <time>2000-01-01T15:14:15.000Z</time>
      </trkpt>
      <trkpt lat="46.053" lon="7.08668">
        <ele>1311</ele>
        <time>2000-01-01T15:14:25.000Z</time>
      </trkpt>
      <trkpt lat="46.0531" lon="7.08666">
        <ele>1293.1</ele>
        <time>2000-01-01T15:14:35.000Z</time>
      </trkpt>
      <trkpt lat="46.05305" lon="7.08641">
        <ele>1305</ele>
        <time>2000-01-01T15:14:45.000Z</time>
      </trkpt>
      <trkpt lat="46.0528" lon="7.08638">
        <ele>1297</ele>
        <time>2000-01-01T15:14:55.000Z</time>
      </trkpt>
      <trkpt lat="46.05274" lon="7.08599">
        <ele>1275</ele>
        <time>2000-01-01T15:15:05.000Z</time>
      </trkpt>
      <trkpt lat="46.05257" lon="7.0857">
        <ele>1269</ele>
        <time>2000-01-01T15:15:15.000Z</time>
      </trkpt>
      <trkpt lat="46.05237" lon="7.08534">
        <ele>1258</ele>
        <time>2000-01-01T15:15:25.000Z</time>
      </trkpt>
      <trkpt lat="46.05263" lon="7.08493">
        <ele>1248</ele>
        <time>2000-01-01T15:15:35.000Z</time>
      </trkpt>
      <trkpt lat="46.05242" lon="7.08478">
        <ele>1242</ele>
        <time>2000-01-01T15:15:45.000Z</time>
      </trkpt>
      <trkpt lat="46.0522" lon="7.08463">
        <ele>1236</ele>
        <time>2000-01-01T15:15:55.000Z</time>
      </trkpt>
      <trkpt lat="46.05197" lon="7.08469">
        <ele>1226</ele>
        <time>2000-01-01T15:16:05.000Z</time>
      </trkpt>
      <trkpt lat="46.05174" lon="7.08476">
        <ele>1216</ele>
        <time>2000-01-01T15:16:15.000Z</time>
      </trkpt>
      <trkpt lat="46.05162" lon="7.08445">
        <ele>1205</ele>
        <time>2000-01-01T15:16:25.000Z</time>
      </trkpt>
      <trkpt lat="46.05148" lon="7.08412">
        <ele>1209</ele>
        <time>2000-01-01T15:16:35.000Z</time>
      </trkpt>
      <trkpt lat="46.05123" lon="7.08402">
        <ele>1214</ele>
        <time>2000-01-01T15:16:45.000Z</time>
      </trkpt>
      <trkpt lat="46.05092" lon="7.08389">
        <ele>1231</ele>
        <time>2000-01-01T15:16:55.000Z</time>
      </trkpt>
      <trkpt lat="46.05073" lon="7.08363">
        <ele>1237</ele>
        <time>2000-01-01T15:17:05.000Z</time>
      </trkpt>
      <trkpt lat="46.05078" lon="7.08307">
        <ele>1242</ele>
        <time>2000-01-01T15:17:15.000Z</time>
      </trkpt>
      <trkpt lat="46.05082" lon="7.08252">
        <ele>1251</ele>
        <time>2000-01-01T15:17:25.000Z</time>
      </trkpt>
      <trkpt lat="46.05087" lon="7.08196">
        <ele>1259</ele>
        <time>2000-01-01T15:17:35.000Z</time>
      </trkpt>
      <trkpt lat="46.05092" lon="7.0814">
        <ele>1267</ele>
        <time>2000-01-01T15:17:45.000Z</time>
      </trkpt>
      <trkpt lat="46.05101" lon="7.08029">
        <ele>1267</ele>
        <time>2000-01-01T15:17:55.000Z</time>
      </trkpt>
      <trkpt lat="46.05127" lon="7.07985">
        <ele>1270</ele>
        <time>2000-01-01T15:18:05.000Z</time>
      </trkpt>
      <trkpt lat="46.05103" lon="7.07994">
        <ele>1273</ele>
        <time>2000-01-01T15:18:15.000Z</time>
      </trkpt>
      <trkpt lat="46.05077" lon="7.08005">
        <ele>1289</ele>
        <time>2000-01-01T15:18:25.000Z</time>
      </trkpt>
      <trkpt lat="46.05055" lon="7.08027">
        <ele>1304</ele>
        <time>2000-01-01T15:18:35.000Z</time>
      </trkpt>
      <trkpt lat="46.05027" lon="7.08056">
        <ele>1314</ele>
        <time>2000-01-01T15:18:45.000Z</time>
      </trkpt>
      <trkpt lat="46.05013" lon="7.08027">
        <ele>1318</ele>
        <time>2000-01-01T15:18:55.000Z</time>
      </trkpt>
      <trkpt lat="46.04997" lon="7.07996">
        <ele>1320</ele>
        <time>2000-01-01T15:19:05.000Z</time>
      </trkpt>
      <trkpt lat="46.04964" lon="7.08043">
        <ele>1322</ele>
        <time>2000-01-01T15:19:15.000Z</time>
      </trkpt>
      <trkpt lat="46.04967" lon="7.08008">
        <ele>1326</ele>
        <time>2000-01-01T15:19:25.000Z</time>
      </trkpt>
      <trkpt lat="46.0497" lon="7.0797">
        <ele>1329</ele>
        <time>2000-01-01T15:19:35.000Z</time>
      </trkpt>
      <trkpt lat="46.04986" lon="7.07933">
        <ele>1337</ele>
        <time>2000-01-01T15:19:45.000Z</time>
      </trkpt>
      <trkpt lat="46.05014" lon="7.07866">
        <ele>1354</ele>
        <time>2000-01-01T15:19:55.000Z</time>
      </trkpt>
      <trkpt lat="46.0501" lon="7.07842">
        <ele>1336.4</ele>
        <time>2000-01-01T15:20:05.000Z</time>
      </trkpt>
      <trkpt lat="46.05056" lon="7.07789">
        <ele>1356</ele>
        <time>2000-01-01T15:20:15.000Z</time>
      </trkpt>
      <trkpt lat="46.05059" lon="7.07759">
        <ele>1358</ele>
        <time>2000-01-01T15:20:25.000Z</time>
      </trkpt>
      <trkpt lat="46.05075" lon="7.07733">
        <ele>1360</ele>
        <time>2000-01-01T15:20:35.000Z</time>
      </trkpt>
      <trkpt lat="46.05092" lon="7.07706">
        <ele>1364</ele>
        <time>2000-01-01T15:20:45.000Z</time>
      </trkpt>
      <trkpt lat="46.05123" lon="7.07681">
        <ele>1363</ele>
        <time>2000-01-01T15:20:55.000Z</time>
      </trkpt>
      <trkpt lat="46.05133" lon="7.07644">
        <ele>1363</ele>
        <time>2000-01-01T15:21:05.000Z</time>
      </trkpt>
      <trkpt lat="46.05149" lon="7.07589">
        <ele>1361</ele>
        <time>2000-01-01T15:21:15.000Z</time>
      </trkpt>
      <trkpt lat="46.05173" lon="7.07565">
        <ele>1360</ele>
        <time>2000-01-01T15:21:25.000Z</time>
      </trkpt>
      <trkpt lat="46.05212" lon="7.07524">
        <ele>1355</ele>
        <time>2000-01-01T15:21:35.000Z</time>
      </trkpt>
      <trkpt lat="46.05213" lon="7.07463">
        <ele>1358</ele>
        <time>2000-01-01T15:21:45.000Z</time>
      </trkpt>
      <trkpt lat="46.05225" lon="7.0743">
        <ele>1355</ele>
        <time>2000-01-01T15:21:55.000Z</time>
      </trkpt>
      <trkpt lat="46.05241" lon="7.07388">
        <ele>1359</ele>
        <time>2000-01-01T15:22:05.000Z</time>
      </trkpt>
      <trkpt lat="46.05234" lon="7.07342">
        <ele>1363</ele>
        <time>2000-01-01T15:22:15.000Z</time>
      </trkpt>
      <trkpt lat="46.05228" lon="7.07295">
        <ele>1359</ele>
        <time>2000-01-01T15:22:25.000Z</time>
      </trkpt>
      <trkpt lat="46.05219" lon="7.07232">
        <ele>1358</ele>
        <time>2000-01-01T15:22:35.000Z</time>
      </trkpt>
      <trkpt lat="46.05196" lon="7.07198">
        <ele>1358</ele>
        <time>2000-01-01T15:22:45.000Z</time>
      </trkpt>
      <trkpt lat="46.05173" lon="7.07163">
        <ele>1369</ele>
        <time>2000-01-01T15:22:55.000Z</time>
      </trkpt>
      <trkpt lat="46.05142" lon="7.07116">
        <ele>1372</ele>
        <time>2000-01-01T15:23:05.000Z</time>
      </trkpt>
      <trkpt lat="46.05114" lon="7.07089">
        <ele>1373</ele>
        <time>2000-01-01T15:23:15.000Z</time>
      </trkpt>
      <trkpt lat="46.05087" lon="7.07063">
        <ele>1383</ele>
        <time>2000-01-01T15:23:25.000Z</time>
      </trkpt>
      <trkpt lat="46.05047" lon="7.07025">
        <ele>1381</ele>
        <time>2000-01-01T15:23:35.000Z</time>
      </trkpt>
      <trkpt lat="46.05025" lon="7.07014">
        <ele>1389</ele>
        <time>2000-01-01T15:23:45.000Z</time>
      </trkpt>
      <trkpt lat="46.05002" lon="7.07002">
        <ele>1389</ele>
        <time>2000-01-01T15:23:55.000Z</time>
      </trkpt>
      <trkpt lat="46.04971" lon="7.06964">
        <ele>1387</ele>
        <time>2000-01-01T15:24:05.000Z</time>
      </trkpt>
      <trkpt lat="46.04941" lon="7.06927">
        <ele>1389</ele>
        <time>2000-01-01T15:24:15.000Z</time>
      </trkpt>
      <trkpt lat="46.04911" lon="7.06889">
        <ele>1392</ele>
        <time>2000-01-01T15:24:25.000Z</time>
      </trkpt>
      <trkpt lat="46.0488" lon="7.06851">
        <ele>1403</ele>
        <time>2000-01-01T15:24:35.000Z</time>
      </trkpt>
      <trkpt lat="46.0485" lon="7.06814">
        <ele>1420</ele>
        <time>2000-01-01T15:24:45.000Z</time>
      </trkpt>
      <trkpt lat="46.04819" lon="7.06776">
        <ele>1430</ele>
        <time>2000-01-01T15:24:55.000Z</time>
      </trkpt>
      <trkpt lat="46.04786" lon="7.06735">
        <ele>1437</ele>
        <time>2000-01-01T15:25:05.000Z</time>
      </trkpt>
      <trkpt lat="46.04769" lon="7.06689">
        <ele>1434</ele>
        <time>2000-01-01T15:25:15.000Z</time>
      </trkpt>
      <trkpt lat="46.04751" lon="7.06642">
        <ele>1433</ele>
        <time>2000-01-01T15:25:25.000Z</time>
      </trkpt>
      <trkpt lat="46.04734" lon="7.06596">
        <ele>1433</ele>
        <time>2000-01-01T15:25:35.000Z</time>
      </trkpt>
      <trkpt lat="46.04706" lon="7.06521">
        <ele>1438</ele>
        <time>2000-01-01T15:25:45.000Z</time>
      </trkpt>
      <trkpt lat="46.04685" lon="7.06491">
        <ele>1449</ele>
        <time>2000-01-01T15:25:55.000Z</time>
      </trkpt>
      <trkpt lat="46.04652" lon="7.06443">
        <ele>1459</ele>
        <time>2000-01-01T15:26:05.000Z</time>
      </trkpt>
      <trkpt lat="46.04638" lon="7.06395">
        <ele>1466</ele>
        <time>2000-01-01T15:26:15.000Z</time>
      </trkpt>
      <trkpt lat="46.04624" lon="7.06348">
        <ele>1473</ele>
        <time>2000-01-01T15:26:25.000Z</time>
      </trkpt>
      <trkpt lat="46.0461" lon="7.063">
        <ele>1480</ele>
        <time>2000-01-01T15:26:35.000Z</time>
      </trkpt>
      <trkpt lat="46.04591" lon="7.06238">
        <ele>1490</ele>
        <time>2000-01-01T15:26:45.000Z</time>
      </trkpt>
      <trkpt lat="46.04567" lon="7.0622">
        <ele>1503</ele>
        <time>2000-01-01T15:26:55.000Z</time>
      </trkpt>
      <trkpt lat="46.04534" lon="7.06196">
        <ele>1516</ele>
        <time>2000-01-01T15:27:05.000Z</time>
      </trkpt>
      <trkpt lat="46.04532" lon="7.06156">
        <ele>1517</ele>
        <time>2000-01-01T15:27:15.000Z</time>
      </trkpt>
      <trkpt lat="46.0452" lon="7.06153">
        <ele>1517.6</ele>
        <time>2000-01-01T15:27:25.000Z</time>
      </trkpt>
      <trkpt lat="46.0453" lon="7.06144">
        <ele>1517</ele>
        <time>2000-01-01T15:27:35.000Z</time>
      </trkpt>
      <trkpt lat="46.045" lon="7.06125">
        <ele>1524</ele>
        <time>2000-01-01T15:27:45.000Z</time>
      </trkpt>
      <trkpt lat="46.0447" lon="7.06106">
        <ele>1534</ele>
        <time>2000-01-01T15:27:55.000Z</time>
      </trkpt>
      <trkpt lat="46.04431" lon="7.06081">
        <ele>1550</ele>
        <time>2000-01-01T15:28:05.000Z</time>
      </trkpt>
      <trkpt lat="46.04409" lon="7.06055">
        <ele>1573</ele>
        <time>2000-01-01T15:28:15.000Z</time>
      </trkpt>
      <trkpt lat="46.04373" lon="7.06015">
        <ele>1594</ele>
        <time>2000-01-01T15:28:25.000Z</time>
      </trkpt>
      <trkpt lat="46.04399" lon="7.05975">
        <ele>1594</ele>
        <time>2000-01-01T15:28:35.000Z</time>
      </trkpt>
      <trkpt lat="46.0438" lon="7.0597">
        <ele>1594</ele>
        <time>2000-01-01T15:28:45.000Z</time>
      </trkpt>
      <trkpt lat="46.04382" lon="7.0595">
        <ele>1590.4</ele>
        <time>2000-01-01T15:28:55.000Z</time>
      </trkpt>
      <trkpt lat="46.04449" lon="7.05825">
        <ele>1599</ele>
        <time>2000-01-01T15:29:05.000Z</time>
      </trkpt>
      <trkpt lat="46.04421" lon="7.05783">
        <ele>1620</ele>
        <time>2000-01-01T15:29:15.000Z</time>
      </trkpt>
      <trkpt lat="46.04424" lon="7.0574">
        <ele>1620</ele>
        <time>2000-01-01T15:29:25.000Z</time>
      </trkpt>
      <trkpt lat="46.04461" lon="7.05726">
        <ele>1620</ele>
        <time>2000-01-01T15:29:35.000Z</time>
      </trkpt>
      <trkpt lat="46.04454" lon="7.05685">
        <ele>1619</ele>
        <time>2000-01-01T15:29:45.000Z</time>
      </trkpt>
      <trkpt lat="46.0448" lon="7.05661">
        <ele>1618</ele>
        <time>2000-01-01T15:29:55.000Z</time>
      </trkpt>
      <trkpt lat="46.04531" lon="7.05615">
        <ele>1612</ele>
        <time>2000-01-01T15:30:05.000Z</time>
      </trkpt>
      <trkpt lat="46.04561" lon="7.05624">
        <ele>1612</ele>
        <time>2000-01-01T15:30:15.000Z</time>
      </trkpt>
      <trkpt lat="46.04617" lon="7.05641">
        <ele>1607</ele>
        <time>2000-01-01T15:30:25.000Z</time>
      </trkpt>
      <trkpt lat="46.04634" lon="7.05665">
        <ele>1603</ele>
        <time>2000-01-01T15:30:35.000Z</time>
      </trkpt>
      <trkpt lat="46.04652" lon="7.05689">
        <ele>1603</ele>
        <time>2000-01-01T15:30:45.000Z</time>
      </trkpt>
      <trkpt lat="46.04677" lon="7.05708">
        <ele>1620</ele>
        <time>2000-01-01T15:30:55.000Z</time>
      </trkpt>
      <trkpt lat="46.04716" lon="7.05737">
        <ele>1632</ele>
        <time>2000-01-01T15:31:05.000Z</time>
      </trkpt>
      <trkpt lat="46.0476" lon="7.0575">
        <ele>1639</ele>
        <time>2000-01-01T15:31:15.000Z</time>
      </trkpt>
      <trkpt lat="46.04798" lon="7.05723">
        <ele>1667</ele>
        <time>2000-01-01T15:31:25.000Z</time>
      </trkpt>
      <trkpt lat="46.04826" lon="7.05728">
        <ele>1695</ele>
        <time>2000-01-01T15:31:35.000Z</time>
      </trkpt>
      <trkpt lat="46.04869" lon="7.05736">
        <ele>1701</ele>
        <time>2000-01-01T15:31:45.000Z</time>
      </trkpt>
      <trkpt lat="46.04891" lon="7.05765">
        <ele>1699</ele>
        <time>2000-01-01T15:31:55.000Z</time>
      </trkpt>
      <trkpt lat="46.04931" lon="7.05817">
        <ele>1697</ele>
        <time>2000-01-01T15:32:05.000Z</time>
      </trkpt>
      <trkpt lat="46.04954" lon="7.05829">
        <ele>1698</ele>
        <time>2000-01-01T15:32:15.000Z</time>
      </trkpt>
      <trkpt lat="46.04979" lon="7.05842">
        <ele>1699</ele>
        <time>2000-01-01T15:32:25.000Z</time>
      </trkpt>
      <trkpt lat="46.05013" lon="7.05825">
        <ele>1713</ele>
        <time>2000-01-01T15:32:35.000Z</time>
      </trkpt>
      <trkpt lat="46.04989" lon="7.0579">
        <ele>1743</ele>
        <time>2000-01-01T15:32:45.000Z</time>
      </trkpt>
      <trkpt lat="46.04964" lon="7.05756">
        <ele>1746</ele>
        <time>2000-01-01T15:32:55.000Z</time>
      </trkpt>
      <trkpt lat="46.04923" lon="7.05697">
        <ele>1749</ele>
        <time>2000-01-01T15:33:05.000Z</time>
      </trkpt>
      <trkpt lat="46.04956" lon="7.05683">
        <ele>1778</ele>
        <time>2000-01-01T15:33:15.000Z</time>
      </trkpt>
      <trkpt lat="46.04953" lon="7.05662">
        <ele>1788.2</ele>
        <time>2000-01-01T15:33:25.000Z</time>
      </trkpt>
      <trkpt lat="46.04969" lon="7.05666">
        <ele>1792</ele>
        <time>2000-01-01T15:33:35.000Z</time>
      </trkpt>
      <trkpt lat="46.04963" lon="7.05638">
        <ele>1792</ele>
        <time>2000-01-01T15:33:45.000Z</time>
      </trkpt>
      <trkpt lat="46.04933" lon="7.05619">
        <ele>1792</ele>
        <time>2000-01-01T15:33:55.000Z</time>
      </trkpt>
      <trkpt lat="46.04969" lon="7.05586">
        <ele>1815</ele>
        <time>2000-01-01T15:34:05.000Z</time>
      </trkpt>
      <trkpt lat="46.04967" lon="7.05548">
        <ele>1826</ele>
        <time>2000-01-01T15:34:15.000Z</time>
      </trkpt>
      <trkpt lat="46.04987" lon="7.05542">
        <ele>1826</ele>
        <time>2000-01-01T15:34:25.000Z</time>
      </trkpt>
      <trkpt lat="46.05019" lon="7.05554">
        <ele>1830</ele>
        <time>2000-01-01T15:34:35.000Z</time>
      </trkpt>
      <trkpt lat="46.05051" lon="7.05566">
        <ele>1842</ele>
        <time>2000-01-01T15:34:45.000Z</time>
      </trkpt>
      <trkpt lat="46.05098" lon="7.05583">
        <ele>1847</ele>
        <time>2000-01-01T15:34:55.000Z</time>
      </trkpt>
      <trkpt lat="46.0513" lon="7.05585">
        <ele>1853</ele>
        <time>2000-01-01T15:35:05.000Z</time>
      </trkpt>
      <trkpt lat="46.05162" lon="7.05586">
        <ele>1860</ele>
        <time>2000-01-01T15:35:15.000Z</time>
      </trkpt>
      <trkpt lat="46.05199" lon="7.05588">
        <ele>1869</ele>
        <time>2000-01-01T15:35:25.000Z</time>
      </trkpt>
      <trkpt lat="46.05222" lon="7.05603">
        <ele>1871</ele>
        <time>2000-01-01T15:35:35.000Z</time>
      </trkpt>
      <trkpt lat="46.05249" lon="7.0562">
        <ele>1878</ele>
        <time>2000-01-01T15:35:45.000Z</time>
      </trkpt>
      <trkpt lat="46.05278" lon="7.05614">
        <ele>1881</ele>
        <time>2000-01-01T15:35:55.000Z</time>
      </trkpt>
      <trkpt lat="46.05327" lon="7.05604">
        <ele>1882</ele>
        <time>2000-01-01T15:36:05.000Z</time>
      </trkpt>
      <trkpt lat="46.05357" lon="7.05589">
        <ele>1882</ele>
        <time>2000-01-01T15:36:15.000Z</time>
      </trkpt>
      <trkpt lat="46.05388" lon="7.05574">
        <ele>1882</ele>
        <time>2000-01-01T15:36:25.000Z</time>
      </trkpt>
      <trkpt lat="46.05424" lon="7.05556">
        <ele>1890</ele>
        <time>2000-01-01T15:36:35.000Z</time>
      </trkpt>
      <trkpt lat="46.05455" lon="7.05554">
        <ele>1891</ele>
        <time>2000-01-01T15:36:45.000Z</time>
      </trkpt>
      <trkpt lat="46.05515" lon="7.05551">
        <ele>1903</ele>
        <time>2000-01-01T15:36:55.000Z</time>
      </trkpt>
      <trkpt lat="46.05543" lon="7.05541">
        <ele>1911</ele>
        <time>2000-01-01T15:37:05.000Z</time>
      </trkpt>
      <trkpt lat="46.05589" lon="7.05526">
        <ele>1925</ele>
        <time>2000-01-01T15:37:15.000Z</time>
      </trkpt>
      <trkpt lat="46.05595" lon="7.05493">
        <ele>1924</ele>
        <time>2000-01-01T15:37:25.000Z</time>
      </trkpt>
      <trkpt lat="46.05602" lon="7.0546">
        <ele>1924</ele>
        <time>2000-01-01T15:37:35.000Z</time>
      </trkpt>
      <trkpt lat="46.05598" lon="7.05405">
        <ele>1941</ele>
        <time>2000-01-01T15:37:45.000Z</time>
      </trkpt>
      <trkpt lat="46.05595" lon="7.0535">
        <ele>1944</ele>
        <time>2000-01-01T15:37:55.000Z</time>
      </trkpt>
      <trkpt lat="46.05591" lon="7.05295">
        <ele>1946</ele>
        <time>2000-01-01T15:38:05.000Z</time>
      </trkpt>
      <trkpt lat="46.05587" lon="7.05239">
        <ele>1949</ele>
        <time>2000-01-01T15:38:15.000Z</time>
      </trkpt>
      <trkpt lat="46.05581" lon="7.0515">
        <ele>1958</ele>
        <time>2000-01-01T15:38:25.000Z</time>
      </trkpt>
      <trkpt lat="46.0557" lon="7.05101">
        <ele>1973</ele>
        <time>2000-01-01T15:38:35.000Z</time>
      </trkpt>
      <trkpt lat="46.05558" lon="7.05051">
        <ele>1979</ele>
        <time>2000-01-01T15:38:45.000Z</time>
      </trkpt>
      <trkpt lat="46.05547" lon="7.05002">
        <ele>1981</ele>
        <time>2000-01-01T15:38:55.000Z</time>
      </trkpt>
      <trkpt lat="46.05531" lon="7.04932">
        <ele>1983</ele>
        <time>2000-01-01T15:39:05.000Z</time>
      </trkpt>
      <trkpt lat="46.05536" lon="7.04895">
        <ele>1990</ele>
        <time>2000-01-01T15:39:15.000Z</time>
      </trkpt>
      <trkpt lat="46.05543" lon="7.04846">
        <ele>1997</ele>
        <time>2000-01-01T15:39:25.000Z</time>
      </trkpt>
      <trkpt lat="46.05536" lon="7.04808">
        <ele>1999</ele>
        <time>2000-01-01T15:39:35.000Z</time>
      </trkpt>
      <trkpt lat="46.05526" lon="7.04755">
        <ele>2001</ele>
        <time>2000-01-01T15:39:45.000Z</time>
      </trkpt>
      <trkpt lat="46.05535" lon="7.04692">
        <ele>2002</ele>
        <time>2000-01-01T15:39:55.000Z</time>
      </trkpt>
      <trkpt lat="46.05553" lon="7.04635">
        <ele>2003</ele>
        <time>2000-01-01T15:40:05.000Z</time>
      </trkpt>
      <trkpt lat="46.05575" lon="7.04622">
        <ele>2001</ele>
        <time>2000-01-01T15:40:15.000Z</time>
      </trkpt>
      <trkpt lat="46.05598" lon="7.04631">
        <ele>2002</ele>
        <time>2000-01-01T15:40:25.000Z</time>
      </trkpt>
      <trkpt lat="46.05618" lon="7.04609">
        <ele>2001</ele>
        <time>2000-01-01T15:40:35.000Z</time>
      </trkpt>
      <trkpt lat="46.05643" lon="7.04583">
        <ele>2008</ele>
        <time>2000-01-01T15:40:45.000Z</time>
      </trkpt>
      <trkpt lat="46.05661" lon="7.04549">
        <ele>2016</ele>
        <time>2000-01-01T15:40:55.000Z</time>
      </trkpt>
      <trkpt lat="46.05693" lon="7.04491">
        <ele>2020</ele>
        <time>2000-01-01T15:41:05.000Z</time>
      </trkpt>
      <trkpt lat="46.05717" lon="7.04466">
        <ele>2036</ele>
        <time>2000-01-01T15:41:15.000Z</time>
      </trkpt>
      <trkpt lat="46.05752" lon="7.04457">
        <ele>2043</ele>
        <time>2000-01-01T15:41:25.000Z</time>
      </trkpt>
      <trkpt lat="46.0574" lon="7.04423">
        <ele>2050</ele>
        <time>2000-01-01T15:41:35.000Z</time>
      </trkpt>
      <trkpt lat="46.05723" lon="7.04378">
        <ele>2051</ele>
        <time>2000-01-01T15:41:45.000Z</time>
      </trkpt>
      <trkpt lat="46.05736" lon="7.04347">
        <ele>2034</ele>
        <time>2000-01-01T15:41:55.000Z</time>
      </trkpt>
      <trkpt lat="46.05752" lon="7.04309">
        <ele>2026</ele>
        <time>2000-01-01T15:42:05.000Z</time>
      </trkpt>
      <trkpt lat="46.05753" lon="7.04272">
        <ele>2028</ele>
        <time>2000-01-01T15:42:15.000Z</time>
      </trkpt>
      <trkpt lat="46.05754" lon="7.04227">
        <ele>2031</ele>
        <time>2000-01-01T15:42:25.000Z</time>
      </trkpt>
      <trkpt lat="46.05767" lon="7.04192">
        <ele>2024</ele>
        <time>2000-01-01T15:42:35.000Z</time>
      </trkpt>
      <trkpt lat="46.05784" lon="7.04144">
        <ele>2018</ele>
        <time>2000-01-01T15:42:45.000Z</time>
      </trkpt>
      <trkpt lat="46.05782" lon="7.04083">
        <ele>2011</ele>
        <time>2000-01-01T15:42:55.000Z</time>
      </trkpt>
      <trkpt lat="46.05769" lon="7.04044">
        <ele>2000</ele>
        <time>2000-01-01T15:43:05.000Z</time>
      </trkpt>
      <trkpt lat="46.05747" lon="7.03973">
        <ele>1991</ele>
        <time>2000-01-01T15:43:15.000Z</time>
      </trkpt>
      <trkpt lat="46.0575" lon="7.03917">
        <ele>1985</ele>
        <time>2000-01-01T15:43:25.000Z</time>
      </trkpt>
      <trkpt lat="46.05753" lon="7.0386">
        <ele>1983</ele>
        <time>2000-01-01T15:43:35.000Z</time>
      </trkpt>
      <trkpt lat="46.05757" lon="7.03804">
        <ele>1981</ele>
        <time>2000-01-01T15:43:45.000Z</time>
      </trkpt>
      <trkpt lat="46.0576" lon="7.03748">
        <ele>1972</ele>
        <time>2000-01-01T15:43:55.000Z</time>
      </trkpt>
      <trkpt lat="46.05763" lon="7.03692">
        <ele>1967</ele>
        <time>2000-01-01T15:44:05.000Z</time>
      </trkpt>
      <trkpt lat="46.05767" lon="7.03626">
        <ele>1932</ele>
        <time>2000-01-01T15:44:15.000Z</time>
      </trkpt>
      <trkpt lat="46.05753" lon="7.03598">
        <ele>1920</ele>
        <time>2000-01-01T15:44:25.000Z</time>
      </trkpt>
      <trkpt lat="46.05737" lon="7.03567">
        <ele>1914</ele>
        <time>2000-01-01T15:44:35.000Z</time>
      </trkpt>
      <trkpt lat="46.05706" lon="7.03551">
        <ele>1909</ele>
        <time>2000-01-01T15:44:45.000Z</time>
      </trkpt>
      <trkpt lat="46.05674" lon="7.03536">
        <ele>1893</ele>
        <time>2000-01-01T15:44:55.000Z</time>
      </trkpt>
      <trkpt lat="46.05629" lon="7.03513">
        <ele>1888</ele>
        <time>2000-01-01T15:45:05.000Z</time>
      </trkpt>
      <trkpt lat="46.05611" lon="7.03486">
        <ele>1879</ele>
        <time>2000-01-01T15:45:15.000Z</time>
      </trkpt>
      <trkpt lat="46.0559" lon="7.03454">
        <ele>1875</ele>
        <time>2000-01-01T15:45:25.000Z</time>
      </trkpt>
      <trkpt lat="46.05579" lon="7.03405">
        <ele>1875</ele>
        <time>2000-01-01T15:45:35.000Z</time>
      </trkpt>
      <trkpt lat="46.05593" lon="7.03367">
        <ele>1875</ele>
        <time>2000-01-01T15:45:45.000Z</time>
      </trkpt>
      <trkpt lat="46.05618" lon="7.03302">
        <ele>1870</ele>
        <time>2000-01-01T15:45:55.000Z</time>
      </trkpt>
      <trkpt lat="46.05625" lon="7.03255">
        <ele>1865</ele>
        <time>2000-01-01T15:46:05.000Z</time>
      </trkpt>
      <trkpt lat="46.05632" lon="7.03208">
        <ele>1854</ele>
        <time>2000-01-01T15:46:15.000Z</time>
      </trkpt>
      <trkpt lat="46.05642" lon="7.03138">
        <ele>1851</ele>
        <time>2000-01-01T15:46:25.000Z</time>
      </trkpt>
      <trkpt lat="46.05657" lon="7.031">
        <ele>1848</ele>
        <time>2000-01-01T15:46:35.000Z</time>
      </trkpt>
      <trkpt lat="46.05683" lon="7.03032">
        <ele>1844</ele>
        <time>2000-01-01T15:46:45.000Z</time>
      </trkpt>
      <trkpt lat="46.05705" lon="7.03006">
        <ele>1842</ele>
        <time>2000-01-01T15:46:55.000Z</time>
      </trkpt>
      <trkpt lat="46.05738" lon="7.02968">
        <ele>1841</ele>
        <time>2000-01-01T15:47:05.000Z</time>
      </trkpt>
      <trkpt lat="46.05767" lon="7.02953">
        <ele>1838</ele>
        <time>2000-01-01T15:47:15.000Z</time>
      </trkpt>
      <trkpt lat="46.05822" lon="7.02923">
        <ele>1835</ele>
        <time>2000-01-01T15:47:25.000Z</time>
      </trkpt>
      <trkpt lat="46.05828" lon="7.02872">
        <ele>1833</ele>
        <time>2000-01-01T15:47:35.000Z</time>
      </trkpt>
      <trkpt lat="46.05834" lon="7.02821">
        <ele>1832</ele>
        <time>2000-01-01T15:47:45.000Z</time>
      </trkpt>
      <trkpt lat="46.0584" lon="7.0277">
        <ele>1825</ele>
        <time>2000-01-01T15:47:55.000Z</time>
      </trkpt>
      <trkpt lat="46.05847" lon="7.02707">
        <ele>1807</ele>
        <time>2000-01-01T15:48:05.000Z</time>
      </trkpt>
      <trkpt lat="46.0583" lon="7.02665">
        <ele>1800</ele>
        <time>2000-01-01T15:48:15.000Z</time>
      </trkpt>
      <trkpt lat="46.05813" lon="7.02623">
        <ele>1787</ele>
        <time>2000-01-01T15:48:25.000Z</time>
      </trkpt>
      <trkpt lat="46.05787" lon="7.02559">
        <ele>1774</ele>
        <time>2000-01-01T15:48:35.000Z</time>
      </trkpt>
      <trkpt lat="46.05766" lon="7.02541">
        <ele>1756</ele>
        <time>2000-01-01T15:48:45.000Z</time>
      </trkpt>
      <trkpt lat="46.05744" lon="7.02522">
        <ele>1756</ele>
        <time>2000-01-01T15:48:55.000Z</time>
      </trkpt>
      <trkpt lat="46.0571" lon="7.02505">
        <ele>1741</ele>
        <time>2000-01-01T15:49:05.000Z</time>
      </trkpt>
      <trkpt lat="46.05676" lon="7.02489">
        <ele>1716</ele>
        <time>2000-01-01T15:49:15.000Z</time>
      </trkpt>
      <trkpt lat="46.05643" lon="7.02472">
        <ele>1715</ele>
        <time>2000-01-01T15:49:25.000Z</time>
      </trkpt>
      <trkpt lat="46.05602" lon="7.02452">
        <ele>1715</ele>
        <time>2000-01-01T15:49:35.000Z</time>
      </trkpt>
      <trkpt lat="46.05585" lon="7.02411">
        <ele>1713</ele>
        <time>2000-01-01T15:49:45.000Z</time>
      </trkpt>
      <trkpt lat="46.05584" lon="7.02361">
        <ele>1711</ele>
        <time>2000-01-01T15:49:55.000Z</time>
      </trkpt>
      <trkpt lat="46.05582" lon="7.02311">
        <ele>1709</ele>
        <time>2000-01-01T15:50:05.000Z</time>
      </trkpt>
      <trkpt lat="46.0558" lon="7.02218">
        <ele>1713</ele>
        <time>2000-01-01T15:50:15.000Z</time>
      </trkpt>
      <trkpt lat="46.05599" lon="7.02174">
        <ele>1718</ele>
        <time>2000-01-01T15:50:25.000Z</time>
      </trkpt>
      <trkpt lat="46.05619" lon="7.0213">
        <ele>1707</ele>
        <time>2000-01-01T15:50:35.000Z</time>
      </trkpt>
      <trkpt lat="46.05638" lon="7.02085">
        <ele>1696</ele>
        <time>2000-01-01T15:50:45.000Z</time>
      </trkpt>
      <trkpt lat="46.05666" lon="7.02021">
        <ele>1694</ele>
        <time>2000-01-01T15:50:55.000Z</time>
      </trkpt>
      <trkpt lat="46.05659" lon="7.01975">
        <ele>1693</ele>
        <time>2000-01-01T15:51:05.000Z</time>
      </trkpt>
      <trkpt lat="46.05671" lon="7.01943">
        <ele>1693</ele>
        <time>2000-01-01T15:51:15.000Z</time>
      </trkpt>
      <trkpt lat="46.05684" lon="7.01907">
        <ele>1676</ele>
        <time>2000-01-01T15:51:25.000Z</time>
      </trkpt>
      <trkpt lat="46.05704" lon="7.01885">
        <ele>1659</ele>
        <time>2000-01-01T15:51:35.000Z</time>
      </trkpt>
      <trkpt lat="46.05727" lon="7.01859">
        <ele>1658</ele>
        <time>2000-01-01T15:51:45.000Z</time>
      </trkpt>
      <trkpt lat="46.05727" lon="7.01805">
        <ele>1659</ele>
        <time>2000-01-01T15:51:55.000Z</time>
      </trkpt>
      <trkpt lat="46.05726" lon="7.0175">
        <ele>1660</ele>
        <time>2000-01-01T15:52:05.000Z</time>
      </trkpt>
      <trkpt lat="46.05726" lon="7.01696">
        <ele>1661</ele>
        <time>2000-01-01T15:52:15.000Z</time>
      </trkpt>
      <trkpt lat="46.05725" lon="7.01642">
        <ele>1650</ele>
        <time>2000-01-01T15:52:25.000Z</time>
      </trkpt>
      <trkpt lat="46.05725" lon="7.0158">
        <ele>1639</ele>
        <time>2000-01-01T15:52:35.000Z</time>
      </trkpt>
      <trkpt lat="46.05711" lon="7.01539">
        <ele>1635</ele>
        <time>2000-01-01T15:52:45.000Z</time>
      </trkpt>
      <trkpt lat="46.05697" lon="7.01497">
        <ele>1637</ele>
        <time>2000-01-01T15:52:55.000Z</time>
      </trkpt>
      <trkpt lat="46.05682" lon="7.01451">
        <ele>1627</ele>
        <time>2000-01-01T15:53:05.000Z</time>
      </trkpt>
      <trkpt lat="46.05721" lon="7.01432">
        <ele>1617</ele>
        <time>2000-01-01T15:53:15.000Z</time>
      </trkpt>
      <trkpt lat="46.05735" lon="7.01402">
        <ele>1619</ele>
        <time>2000-01-01T15:53:25.000Z</time>
      </trkpt>
      <trkpt lat="46.05738" lon="7.01363">
        <ele>1612</ele>
        <time>2000-01-01T15:53:35.000Z</time>
      </trkpt>
      <trkpt lat="46.05742" lon="7.01306">
        <ele>1620</ele>
        <time>2000-01-01T15:53:45.000Z</time>
      </trkpt>
      <trkpt lat="46.05731" lon="7.01264">
        <ele>1613</ele>
        <time>2000-01-01T15:53:55.000Z</time>
      </trkpt>
      <trkpt lat="46.05711" lon="7.01184">
        <ele>1607</ele>
        <time>2000-01-01T15:54:05.000Z</time>
      </trkpt>
      <trkpt lat="46.05728" lon="7.01152">
        <ele>1599</ele>
        <time>2000-01-01T15:54:15.000Z</time>
      </trkpt>
      <trkpt lat="46.05715" lon="7.01118">
        <ele>1595</ele>
        <time>2000-01-01T15:54:25.000Z</time>
      </trkpt>
      <trkpt lat="46.05731" lon="7.0108">
        <ele>1595</ele>
        <time>2000-01-01T15:54:35.000Z</time>
      </trkpt>
      <trkpt lat="46.05764" lon="7.01006">
        <ele>1581</ele>
        <time>2000-01-01T15:54:45.000Z</time>
      </trkpt>
      <trkpt lat="46.05772" lon="7.00969">
        <ele>1570</ele>
        <time>2000-01-01T15:54:55.000Z</time>
      </trkpt>
      <trkpt lat="46.05783" lon="7.00921">
        <ele>1569</ele>
        <time>2000-01-01T15:55:05.000Z</time>
      </trkpt>
      <trkpt lat="46.05775" lon="7.00888">
        <ele>1576</ele>
        <time>2000-01-01T15:55:15.000Z</time>
      </trkpt>
      <trkpt lat="46.05767" lon="7.00852">
        <ele>1567</ele>
        <time>2000-01-01T15:55:25.000Z</time>
      </trkpt>
      <trkpt lat="46.05774" lon="7.00814">
        <ele>1559</ele>
        <time>2000-01-01T15:55:35.000Z</time>
      </trkpt>
      <trkpt lat="46.05783" lon="7.00761">
        <ele>1545</ele>
        <time>2000-01-01T15:55:45.000Z</time>
      </trkpt>
      <trkpt lat="46.05773" lon="7.00714">
        <ele>1548</ele>
        <time>2000-01-01T15:55:55.000Z</time>
      </trkpt>
      <trkpt lat="46.05763" lon="7.00668">
        <ele>1541</ele>
        <time>2000-01-01T15:56:05.000Z</time>
      </trkpt>
      <trkpt lat="46.05747" lon="7.00594">
        <ele>1535</ele>
        <time>2000-01-01T15:56:15.000Z</time>
      </trkpt>
      <trkpt lat="46.05743" lon="7.00541">
        <ele>1519</ele>
        <time>2000-01-01T15:56:25.000Z</time>
      </trkpt>
      <trkpt lat="46.0574" lon="7.00489">
        <ele>1523</ele>
        <time>2000-01-01T15:56:35.000Z</time>
      </trkpt>
      <trkpt lat="46.05737" lon="7.00437">
        <ele>1524</ele>
        <time>2000-01-01T15:56:45.000Z</time>
      </trkpt>
      <trkpt lat="46.05731" lon="7.00353">
        <ele>1526</ele>
        <time>2000-01-01T15:56:55.000Z</time>
      </trkpt>
      <trkpt lat="46.05732" lon="7.00325">
        <ele>1526</ele>
        <time>2000-01-01T15:57:05.000Z</time>
      </trkpt>
      <trkpt lat="46.05749" lon="7.00301">
        <ele>1526</ele>
        <time>2000-01-01T15:57:15.000Z</time>
      </trkpt>
      <trkpt lat="46.05766" lon="7.00277">
        <ele>1527</ele>
        <time>2000-01-01T15:57:25.000Z</time>
      </trkpt>
      <trkpt lat="46.05768" lon="7.00229">
        <ele>1527</ele>
        <time>2000-01-01T15:57:35.000Z</time>
      </trkpt>
      <trkpt lat="46.05771" lon="7.00181">
        <ele>1527</ele>
        <time>2000-01-01T15:57:45.000Z</time>
      </trkpt>
      <trkpt lat="46.05774" lon="7.00112">
        <ele>1527</ele>
        <time>2000-01-01T15:57:55.000Z</time>
      </trkpt>
      <trkpt lat="46.05747" lon="7.00098">
        <ele>1525</ele>
        <time>2000-01-01T15:58:05.000Z</time>
      </trkpt>
      <trkpt lat="46.05707" lon="7.00077">
        <ele>1524</ele>
        <time>2000-01-01T15:58:15.000Z</time>
      </trkpt>
      <trkpt lat="46.05683" lon="7.00081">
        <ele>1520</ele>
        <time>2000-01-01T15:58:25.000Z</time>
      </trkpt>
      <trkpt lat="46.05657" lon="7.00085">
        <ele>1519</ele>
        <time>2000-01-01T15:58:35.000Z</time>
      </trkpt>
      <trkpt lat="46.05627" lon="7.00066">
        <ele>1516</ele>
        <time>2000-01-01T15:58:45.000Z</time>
      </trkpt>
      <trkpt lat="46.05596" lon="7.00047">
        <ele>1516</ele>
        <time>2000-01-01T15:58:55.000Z</time>
      </trkpt>
      <trkpt lat="46.05554" lon="7.0002">
        <ele>1516</ele>
        <time>2000-01-01T15:59:05.000Z</time>
      </trkpt>
      <trkpt lat="46.05525" lon="7.0003">
        <ele>1516</ele>
        <time>2000-01-01T15:59:15.000Z</time>
      </trkpt>
      <trkpt lat="46.05471" lon="7.00047">
        <ele>1518</ele>
        <time>2000-01-01T15:59:25.000Z</time>
      </trkpt>
      <trkpt lat="46.05434" lon="7.0005">
        <ele>1518</ele>
        <time>2000-01-01T15:59:35.000Z</time>
      </trkpt>
      <trkpt lat="46.05396" lon="7.00054">
        <ele>1517</ele>
        <time>2000-01-01T15:59:45.000Z</time>
      </trkpt>
      <trkpt lat="46.05359" lon="7.00057">
        <ele>1516</ele>
        <time>2000-01-01T15:59:55.000Z</time>
      </trkpt>
      <trkpt lat="46.05322" lon="7.00061">
        <ele>1514</ele>
        <time>2000-01-01T16:00:05.000Z</time>
      </trkpt>
      <trkpt lat="46.05284" lon="7.00064">
        <ele>1512</ele>
        <time>2000-01-01T16:00:15.000Z</time>
      </trkpt>
      <trkpt lat="46.05295" lon="7.00037">
        <ele>1498</ele>
        <time>2000-01-01T16:00:25.000Z</time>
      </trkpt>
      <trkpt lat="46.05271" lon="7.00024">
        <ele>1498</ele>
        <time>2000-01-01T16:00:35.000Z</time>
      </trkpt>
      <trkpt lat="46.05267" lon="7.00006">
        <ele>1484.3</ele>
        <time>2000-01-01T16:00:45.000Z</time>
      </trkpt>
      <trkpt lat="46.05284" lon="6.99997">
        <ele>1492</ele>
        <time>2000-01-01T16:00:55.000Z</time>
      </trkpt>
      <trkpt lat="46.0527" lon="6.99972">
        <ele>1487</ele>
        <time>2000-01-01T16:01:05.000Z</time>
      </trkpt>
      <trkpt lat="46.05291" lon="6.99953">
        <ele>1454</ele>
        <time>2000-01-01T16:01:15.000Z</time>
      </trkpt>
      <trkpt lat="46.05316" lon="6.9993">
        <ele>1447</ele>
        <time>2000-01-01T16:01:25.000Z</time>
      </trkpt>
      <trkpt lat="46.053" lon="6.99893">
        <ele>1436</ele>
        <time>2000-01-01T16:01:35.000Z</time>
      </trkpt>
      <trkpt lat="46.05272" lon="6.99827">
        <ele>1407</ele>
        <time>2000-01-01T16:01:45.000Z</time>
      </trkpt>
      <trkpt lat="46.05281" lon="6.9981">
        <ele>1393</ele>
        <time>2000-01-01T16:01:55.000Z</time>
      </trkpt>
      <trkpt lat="46.05264" lon="6.99792">
        <ele>1381</ele>
        <time>2000-01-01T16:02:05.000Z</time>
      </trkpt>
      <trkpt lat="46.05262" lon="6.9973">
        <ele>1358</ele>
        <time>2000-01-01T16:02:15.000Z</time>
      </trkpt>
      <trkpt lat="46.05294" lon="6.99719">
        <ele>1358</ele>
        <time>2000-01-01T16:02:25.000Z</time>
      </trkpt>
      <trkpt lat="46.05335" lon="6.99737">
        <ele>1358</ele>
        <time>2000-01-01T16:02:35.000Z</time>
      </trkpt>
      <trkpt lat="46.05359" lon="6.99737">
        <ele>1352</ele>
        <time>2000-01-01T16:02:45.000Z</time>
      </trkpt>
      <trkpt lat="46.05383" lon="6.99737">
        <ele>1346</ele>
        <time>2000-01-01T16:02:55.000Z</time>
      </trkpt>
      <trkpt lat="46.05417" lon="6.99728">
        <ele>1328</ele>
        <time>2000-01-01T16:03:05.000Z</time>
      </trkpt>
      <trkpt lat="46.0545" lon="6.9972">
        <ele>1323</ele>
        <time>2000-01-01T16:03:15.000Z</time>
      </trkpt>
      <trkpt lat="46.05508" lon="6.99705">
        <ele>1315</ele>
        <time>2000-01-01T16:03:25.000Z</time>
      </trkpt>
      <trkpt lat="46.05544" lon="6.99691">
        <ele>1309</ele>
        <time>2000-01-01T16:03:35.000Z</time>
      </trkpt>
      <trkpt lat="46.0558" lon="6.99677">
        <ele>1300</ele>
        <time>2000-01-01T16:03:45.000Z</time>
      </trkpt>
      <trkpt lat="46.05616" lon="6.99662">
        <ele>1297</ele>
        <time>2000-01-01T16:03:55.000Z</time>
      </trkpt>
      <trkpt lat="46.05686" lon="6.99635">
        <ele>1288</ele>
        <time>2000-01-01T16:04:05.000Z</time>
      </trkpt>
      <trkpt lat="46.05685" lon="6.9959">
        <ele>1288</ele>
        <time>2000-01-01T16:04:15.000Z</time>
      </trkpt>
      <trkpt lat="46.05659" lon="6.99607">
        <ele>1293</ele>
        <time>2000-01-01T16:04:25.000Z</time>
      </trkpt>
      <trkpt lat="46.05643" lon="6.99551">
        <ele>1294</ele>
        <time>2000-01-01T16:04:35.000Z</time>
      </trkpt>
      <trkpt lat="46.05623" lon="6.99534">
        <ele>1294</ele>
        <time>2000-01-01T16:04:45.000Z</time>
      </trkpt>
      <trkpt lat="46.05638" lon="6.99503">
        <ele>1294</ele>
        <time>2000-01-01T16:04:55.000Z</time>
      </trkpt>
      <trkpt lat="46.05656" lon="6.99464">
        <ele>1291</ele>
        <time>2000-01-01T16:05:05.000Z</time>
      </trkpt>
      <trkpt lat="46.05656" lon="6.99406">
        <ele>1282</ele>
        <time>2000-01-01T16:05:15.000Z</time>
      </trkpt>
      <trkpt lat="46.05697" lon="6.99414">
        <ele>1282</ele>
        <time>2000-01-01T16:05:25.000Z</time>
      </trkpt>
      <trkpt lat="46.0573" lon="6.99407">
        <ele>1282</ele>
        <time>2000-01-01T16:05:35.000Z</time>
      </trkpt>
      <trkpt lat="46.05763" lon="6.994">
        <ele>1277</ele>
        <time>2000-01-01T16:05:45.000Z</time>
      </trkpt>
      <trkpt lat="46.05811" lon="6.9939">
        <ele>1274</ele>
        <time>2000-01-01T16:05:55.000Z</time>
      </trkpt>
      <trkpt lat="46.05812" lon="6.99444">
        <ele>1271</ele>
        <time>2000-01-01T16:06:05.000Z</time>
      </trkpt>
      <trkpt lat="46.05827" lon="6.99458">
        <ele>1274.4</ele>
        <time>2000-01-01T16:06:15.000Z</time>
      </trkpt>
      <trkpt lat="46.05911" lon="6.99373">
        <ele>1263</ele>
        <time>2000-01-01T16:06:25.000Z</time>
      </trkpt>
      <trkpt lat="46.05945" lon="6.9936">
        <ele>1263</ele>
        <time>2000-01-01T16:06:35.000Z</time>
      </trkpt>
      <trkpt lat="46.05979" lon="6.99348">
        <ele>1259</ele>
        <time>2000-01-01T16:06:45.000Z</time>
      </trkpt>
      <trkpt lat="46.06013" lon="6.99335">
        <ele>1258</ele>
        <time>2000-01-01T16:06:55.000Z</time>
      </trkpt>
      <trkpt lat="46.06047" lon="6.99323">
        <ele>1258</ele>
        <time>2000-01-01T16:07:05.000Z</time>
      </trkpt>
      <trkpt lat="46.06063" lon="6.99284">
        <ele>1260</ele>
        <time>2000-01-01T16:07:15.000Z</time>
      </trkpt>
      <trkpt lat="46.06088" lon="6.99268">
        <ele>1260</ele>
        <time>2000-01-01T16:07:25.000Z</time>
      </trkpt>
      <trkpt lat="46.06123" lon="6.99246">
        <ele>1255</ele>
        <time>2000-01-01T16:07:35.000Z</time>
      </trkpt>
      <trkpt lat="46.06158" lon="6.99215">
        <ele>1251</ele>
        <time>2000-01-01T16:07:45.000Z</time>
      </trkpt>
      <trkpt lat="46.06194" lon="6.99183">
        <ele>1248</ele>
        <time>2000-01-01T16:07:55.000Z</time>
      </trkpt>
      <trkpt lat="46.06229" lon="6.99152">
        <ele>1246</ele>
        <time>2000-01-01T16:08:05.000Z</time>
      </trkpt>
      <trkpt lat="46.06264" lon="6.99121">
        <ele>1245</ele>
        <time>2000-01-01T16:08:15.000Z</time>
      </trkpt>
      <trkpt lat="46.063" lon="6.9909">
        <ele>1243</ele>
        <time>2000-01-01T16:08:25.000Z</time>
      </trkpt>
      <trkpt lat="46.06335" lon="6.99059">
        <ele>1241</ele>
        <time>2000-01-01T16:08:35.000Z</time>
      </trkpt>
      <trkpt lat="46.0637" lon="6.99027">
        <ele>1241</ele>
        <time>2000-01-01T16:08:45.000Z</time>
      </trkpt>
      <trkpt lat="46.06434" lon="6.98971">
        <ele>1241</ele>
        <time>2000-01-01T16:08:55.000Z</time>
      </trkpt>
      <trkpt lat="46.06459" lon="6.98963">
        <ele>1241</ele>
        <time>2000-01-01T16:09:05.000Z</time>
      </trkpt>
      <trkpt lat="46.06488" lon="6.98954">
        <ele>1237</ele>
        <time>2000-01-01T16:09:15.000Z</time>
      </trkpt>
      <trkpt lat="46.06512" lon="6.98919">
        <ele>1237</ele>
        <time>2000-01-01T16:09:25.000Z</time>
      </trkpt>
      <trkpt lat="46.06535" lon="6.98884">
        <ele>1238</ele>
        <time>2000-01-01T16:09:35.000Z</time>
      </trkpt>
      <trkpt lat="46.06574" lon="6.98826">
        <ele>1247</ele>
        <time>2000-01-01T16:09:45.000Z</time>
      </trkpt>
      <trkpt lat="46.0661" lon="6.98796">
        <ele>1243</ele>
        <time>2000-01-01T16:09:55.000Z</time>
      </trkpt>
      <trkpt lat="46.0662" lon="6.98758">
        <ele>1240</ele>
        <time>2000-01-01T16:10:05.000Z</time>
      </trkpt>
      <trkpt lat="46.06636" lon="6.98701">
        <ele>1235</ele>
        <time>2000-01-01T16:10:15.000Z</time>
      </trkpt>
      <trkpt lat="46.06671" lon="6.98668">
        <ele>1234</ele>
        <time>2000-01-01T16:10:25.000Z</time>
      </trkpt>
      <trkpt lat="46.06662" lon="6.98668">
        <ele>1236.1</ele>
        <time>2000-01-01T16:10:35.000Z</time>
      </trkpt>
      <trkpt lat="46.06691" lon="6.98576">
        <ele>1226</ele>
        <time>2000-01-01T16:10:45.000Z</time>
      </trkpt>
      <trkpt lat="46.06707" lon="6.98539">
        <ele>1214</ele>
        <time>2000-01-01T16:10:55.000Z</time>
      </trkpt>
      <trkpt lat="46.06738" lon="6.98468">
        <ele>1211</ele>
        <time>2000-01-01T16:11:05.000Z</time>
      </trkpt>
      <trkpt lat="46.06762" lon="6.98433">
        <ele>1211</ele>
        <time>2000-01-01T16:11:15.000Z</time>
      </trkpt>
      <trkpt lat="46.06787" lon="6.98398">
        <ele>1205</ele>
        <time>2000-01-01T16:11:25.000Z</time>
      </trkpt>
      <trkpt lat="46.06831" lon="6.98334">
        <ele>1201</ele>
        <time>2000-01-01T16:11:35.000Z</time>
      </trkpt>
      <trkpt lat="46.06857" lon="6.98313">
        <ele>1199</ele>
        <time>2000-01-01T16:11:45.000Z</time>
      </trkpt>
      <trkpt lat="46.069" lon="6.98278">
        <ele>1198</ele>
        <time>2000-01-01T16:11:55.000Z</time>
      </trkpt>
      <trkpt lat="46.06923" lon="6.98244">
        <ele>1198</ele>
        <time>2000-01-01T16:12:05.000Z</time>
      </trkpt>
      <trkpt lat="46.06946" lon="6.9821">
        <ele>1198</ele>
        <time>2000-01-01T16:12:15.000Z</time>
      </trkpt>
      <trkpt lat="46.06979" lon="6.98162">
        <ele>1187</ele>
        <time>2000-01-01T16:12:25.000Z</time>
      </trkpt>
      <trkpt lat="46.07009" lon="6.98141">
        <ele>1187</ele>
        <time>2000-01-01T16:12:35.000Z</time>
      </trkpt>
      <trkpt lat="46.07039" lon="6.9812">
        <ele>1187</ele>
        <time>2000-01-01T16:12:45.000Z</time>
      </trkpt>
      <trkpt lat="46.07082" lon="6.98089">
        <ele>1187</ele>
        <time>2000-01-01T16:12:55.000Z</time>
      </trkpt>
      <trkpt lat="46.07111" lon="6.98051">
        <ele>1187</ele>
        <time>2000-01-01T16:13:05.000Z</time>
      </trkpt>
      <trkpt lat="46.0714" lon="6.98013">
        <ele>1185</ele>
        <time>2000-01-01T16:13:15.000Z</time>
      </trkpt>
      <trkpt lat="46.07169" lon="6.97976">
        <ele>1183</ele>
        <time>2000-01-01T16:13:25.000Z</time>
      </trkpt>
      <trkpt lat="46.07198" lon="6.97938">
        <ele>1179</ele>
        <time>2000-01-01T16:13:35.000Z</time>
      </trkpt>
      <trkpt lat="46.07227" lon="6.979">
        <ele>1179</ele>
        <time>2000-01-01T16:13:45.000Z</time>
      </trkpt>
      <trkpt lat="46.07258" lon="6.97859">
        <ele>1179</ele>
        <time>2000-01-01T16:13:55.000Z</time>
      </trkpt>
      <trkpt lat="46.07282" lon="6.97839">
        <ele>1174</ele>
        <time>2000-01-01T16:14:05.000Z</time>
      </trkpt>
      <trkpt lat="46.07315" lon="6.9781">
        <ele>1172</ele>
        <time>2000-01-01T16:14:15.000Z</time>
      </trkpt>
      <trkpt lat="46.07339" lon="6.97802">
        <ele>1170</ele>
        <time>2000-01-01T16:14:25.000Z</time>
      </trkpt>
      <trkpt lat="46.07368" lon="6.97793">
        <ele>1175</ele>
        <time>2000-01-01T16:14:35.000Z</time>
      </trkpt>
      <trkpt lat="46.07398" lon="6.97804">
        <ele>1180</ele>
        <time>2000-01-01T16:14:45.000Z</time>
      </trkpt>
      <trkpt lat="46.07456" lon="6.97825">
        <ele>1174</ele>
        <time>2000-01-01T16:14:55.000Z</time>
      </trkpt>
      <trkpt lat="46.07493" lon="6.97788">
        <ele>1169</ele>
        <time>2000-01-01T16:15:05.000Z</time>
      </trkpt>
      <trkpt lat="46.07461" lon="6.97743">
        <ele>1163</ele>
        <time>2000-01-01T16:15:15.000Z</time>
      </trkpt>
      <trkpt lat="46.07486" lon="6.97736">
        <ele>1160</ele>
        <time>2000-01-01T16:15:25.000Z</time>
      </trkpt>
      <trkpt lat="46.07516" lon="6.97728">
        <ele>1158</ele>
        <time>2000-01-01T16:15:35.000Z</time>
      </trkpt>
      <trkpt lat="46.07494" lon="6.97688">
        <ele>1138</ele>
        <time>2000-01-01T16:15:45.000Z</time>
      </trkpt>
      <trkpt lat="46.07498" lon="6.97641">
        <ele>1125</ele>
        <time>2000-01-01T16:15:55.000Z</time>
      </trkpt>
      <trkpt lat="46.07525" lon="6.97604">
        <ele>1118</ele>
        <time>2000-01-01T16:16:05.000Z</time>
      </trkpt>
      <trkpt lat="46.0755" lon="6.97597">
        <ele>1110</ele>
        <time>2000-01-01T16:16:15.000Z</time>
      </trkpt>
      <trkpt lat="46.07561" lon="6.97575">
        <ele>1110</ele>
        <time>2000-01-01T16:16:25.000Z</time>
      </trkpt>
      <trkpt lat="46.07547" lon="6.97565">
        <ele>1100.8</ele>
        <time>2000-01-01T16:16:35.000Z</time>
      </trkpt>
      <trkpt lat="46.0756" lon="6.97554">
        <ele>1098</ele>
        <time>2000-01-01T16:16:45.000Z</time>
      </trkpt>
      <trkpt lat="46.07592" lon="6.97548">
        <ele>1074</ele>
        <time>2000-01-01T16:16:55.000Z</time>
      </trkpt>
      <trkpt lat="46.07624" lon="6.97543">
        <ele>1062</ele>
        <time>2000-01-01T16:17:05.000Z</time>
      </trkpt>
      <trkpt lat="46.07661" lon="6.97536">
        <ele>1054</ele>
        <time>2000-01-01T16:17:15.000Z</time>
      </trkpt>
      <trkpt lat="46.07691" lon="6.97558">
        <ele>1047</ele>
        <time>2000-01-01T16:17:25.000Z</time>
      </trkpt>
      <trkpt lat="46.07726" lon="6.97557">
        <ele>1028</ele>
        <time>2000-01-01T16:17:35.000Z</time>
      </trkpt>
      <trkpt lat="46.077" lon="6.97533">
        <ele>1023</ele>
        <time>2000-01-01T16:17:45.000Z</time>
      </trkpt>
      <trkpt lat="46.07651" lon="6.97487">
        <ele>1021</ele>
        <time>2000-01-01T16:17:55.000Z</time>
      </trkpt>
      <trkpt lat="46.07615" lon="6.97474">
        <ele>1019</ele>
        <time>2000-01-01T16:18:05.000Z</time>
      </trkpt>
      <trkpt lat="46.07605" lon="6.97449">
        <ele>999</ele>
        <time>2000-01-01T16:18:15.000Z</time>
      </trkpt>
      <trkpt lat="46.07617" lon="6.97418">
        <ele>996</ele>
        <time>2000-01-01T16:18:25.000Z</time>
      </trkpt>
      <trkpt lat="46.07657" lon="6.97443">
        <ele>993</ele>
        <time>2000-01-01T16:18:35.000Z</time>
      </trkpt>
      <trkpt lat="46.07674" lon="6.97434">
        <ele>960</ele>
        <time>2000-01-01T16:18:45.000Z</time>
      </trkpt>
      <trkpt lat="46.07657" lon="6.97378">
        <ele>975</ele>
        <time>2000-01-01T16:18:55.000Z</time>
      </trkpt>
      <trkpt lat="46.07672" lon="6.9737">
        <ele>934.2</ele>
        <time>2000-01-01T16:19:05.000Z</time>
      </trkpt>
      <trkpt lat="46.07794" lon="6.97506">
        <ele>957</ele>
        <time>2000-01-01T16:19:15.000Z</time>
      </trkpt>
      <trkpt lat="46.0781" lon="6.97518">
        <ele>932.6</ele>
        <time>2000-01-01T16:19:25.000Z</time>
      </trkpt>
      <trkpt lat="46.07856" lon="6.97507">
        <ele>953</ele>
        <time>2000-01-01T16:19:35.000Z</time>
      </trkpt>
      <trkpt lat="46.07886" lon="6.97531">
        <ele>950</ele>
        <time>2000-01-01T16:19:45.000Z</time>
      </trkpt>
      <trkpt lat="46.07895" lon="6.97569">
        <ele>955</ele>
        <time>2000-01-01T16:19:55.000Z</time>
      </trkpt>
      <trkpt lat="46.07916" lon="6.97586">
        <ele>960</ele>
        <time>2000-01-01T16:20:05.000Z</time>
      </trkpt>
      <trkpt lat="46.07913" lon="6.97609">
        <ele>954</ele>
        <time>2000-01-01T16:20:15.000Z</time>
      </trkpt>
      <trkpt lat="46.07959" lon="6.97663">
        <ele>987</ele>
        <time>2000-01-01T16:20:25.000Z</time>
      </trkpt>
      <trkpt lat="46.07951" lon="6.97708">
        <ele>991</ele>
        <time>2000-01-01T16:20:35.000Z</time>
      </trkpt>
      <trkpt lat="46.07962" lon="6.97709">
        <ele>1024.4</ele>
        <time>2000-01-01T16:20:45.000Z</time>
      </trkpt>
      <trkpt lat="46.07959" lon="6.97744">
        <ele>1006</ele>
        <time>2000-01-01T16:20:55.000Z</time>
      </trkpt>
      <trkpt lat="46.07979" lon="6.9775">
        <ele>1056</ele>
        <time>2000-01-01T16:21:05.000Z</time>
      </trkpt>
      <trkpt lat="46.07976" lon="6.97785">
        <ele>1068</ele>
        <time>2000-01-01T16:21:15.000Z</time>
      </trkpt>
      <trkpt lat="46.07999" lon="6.97826">
        <ele>1087</ele>
        <time>2000-01-01T16:21:25.000Z</time>
      </trkpt>
      <trkpt lat="46.07996" lon="6.97886">
        <ele>1107</ele>
        <time>2000-01-01T16:21:35.000Z</time>
      </trkpt>
      <trkpt lat="46.08019" lon="6.97887">
        <ele>1107</ele>
        <time>2000-01-01T16:21:45.000Z</time>
      </trkpt>
      <trkpt lat="46.08037" lon="6.97925">
        <ele>1114</ele>
        <time>2000-01-01T16:21:55.000Z</time>
      </trkpt>
      <trkpt lat="46.08064" lon="6.9795">
        <ele>1126</ele>
        <time>2000-01-01T16:22:05.000Z</time>
      </trkpt>
      <trkpt lat="46.08091" lon="6.97975">
        <ele>1142</ele>
        <time>2000-01-01T16:22:15.000Z</time>
      </trkpt>
      <trkpt lat="46.08123" lon="6.98004">
        <ele>1163</ele>
        <time>2000-01-01T16:22:25.000Z</time>
      </trkpt>
      <trkpt lat="46.08152" lon="6.9805">
        <ele>1178</ele>
        <time>2000-01-01T16:22:35.000Z</time>
      </trkpt>
      <trkpt lat="46.08149" lon="6.98029">
        <ele>1167.6</ele>
        <time>2000-01-01T16:22:45.000Z</time>
      </trkpt>
      <trkpt lat="46.08211" lon="6.98082">
        <ele>1198</ele>
        <time>2000-01-01T16:22:55.000Z</time>
      </trkpt>
      <trkpt lat="46.08219" lon="6.98051">
        <ele>1215</ele>
        <time>2000-01-01T16:23:05.000Z</time>
      </trkpt>
      <trkpt lat="46.08192" lon="6.98008">
        <ele>1222</ele>
        <time>2000-01-01T16:23:15.000Z</time>
      </trkpt>
      <trkpt lat="46.0821" lon="6.98007">
        <ele>1211.1</ele>
        <time>2000-01-01T16:23:25.000Z</time>
      </trkpt>
      <trkpt lat="46.08202" lon="6.97964">
        <ele>1222</ele>
        <time>2000-01-01T16:23:35.000Z</time>
      </trkpt>
      <trkpt lat="46.08213" lon="6.97975">
        <ele>1220.3</ele>
        <time>2000-01-01T16:23:45.000Z</time>
      </trkpt>
      <trkpt lat="46.082" lon="6.97997">
        <ele>1222</ele>
        <time>2000-01-01T16:23:55.000Z</time>
      </trkpt>
      <trkpt lat="46.08189" lon="6.9797">
        <ele>1220</ele>
        <time>2000-01-01T16:24:05.000Z</time>
      </trkpt>
      <trkpt lat="46.08187" lon="6.97927">
        <ele>1219</ele>
        <time>2000-01-01T16:24:15.000Z</time>
      </trkpt>
      <trkpt lat="46.08184" lon="6.97852">
        <ele>1220</ele>
        <time>2000-01-01T16:24:25.000Z</time>
      </trkpt>
      <trkpt lat="46.08195" lon="6.97806">
        <ele>1222</ele>
        <time>2000-01-01T16:24:35.000Z</time>
      </trkpt>
      <trkpt lat="46.0821" lon="6.97761">
        <ele>1222</ele>
        <time>2000-01-01T16:24:45.000Z</time>
      </trkpt>
      <trkpt lat="46.08226" lon="6.97716">
        <ele>1222</ele>
        <time>2000-01-01T16:24:55.000Z</time>
      </trkpt>
      <trkpt lat="46.08255" lon="6.97632">
        <ele>1226</ele>
        <time>2000-01-01T16:25:05.000Z</time>
      </trkpt>
      <trkpt lat="46.08247" lon="6.97696">
        <ele>1235</ele>
        <time>2000-01-01T16:25:15.000Z</time>
      </trkpt>
      <trkpt lat="46.08275" lon="6.97727">
        <ele>1244</ele>
        <time>2000-01-01T16:25:25.000Z</time>
      </trkpt>
      <trkpt lat="46.08301" lon="6.97728">
        <ele>1251</ele>
        <time>2000-01-01T16:25:35.000Z</time>
      </trkpt>
      <trkpt lat="46.0832" lon="6.97703">
        <ele>1253</ele>
        <time>2000-01-01T16:25:45.000Z</time>
      </trkpt>
      <trkpt lat="46.08342" lon="6.97672">
        <ele>1259</ele>
        <time>2000-01-01T16:25:55.000Z</time>
      </trkpt>
      <trkpt lat="46.08352" lon="6.97708">
        <ele>1262</ele>
        <time>2000-01-01T16:26:05.000Z</time>
      </trkpt>
      <trkpt lat="46.08367" lon="6.9776">
        <ele>1268</ele>
        <time>2000-01-01T16:26:15.000Z</time>
      </trkpt>
      <trkpt lat="46.0835" lon="6.97822">
        <ele>1273</ele>
        <time>2000-01-01T16:26:25.000Z</time>
      </trkpt>
      <trkpt lat="46.08373" lon="6.97801">
        <ele>1278</ele>
        <time>2000-01-01T16:26:35.000Z</time>
      </trkpt>
      <trkpt lat="46.08359" lon="6.97849">
        <ele>1282</ele>
        <time>2000-01-01T16:26:45.000Z</time>
      </trkpt>
      <trkpt lat="46.08379" lon="6.97885">
        <ele>1287</ele>
        <time>2000-01-01T16:26:55.000Z</time>
      </trkpt>
      <trkpt lat="46.08369" lon="6.97894">
        <ele>1290.1</ele>
        <time>2000-01-01T16:27:05.000Z</time>
      </trkpt>
      <trkpt lat="46.08416" lon="6.97922">
        <ele>1290</ele>
        <time>2000-01-01T16:27:15.000Z</time>
      </trkpt>
      <trkpt lat="46.0841" lon="6.97936">
        <ele>1297.9</ele>
        <time>2000-01-01T16:27:25.000Z</time>
      </trkpt>
      <trkpt lat="46.08424" lon="6.97906">
        <ele>1293</ele>
        <time>2000-01-01T16:27:35.000Z</time>
      </trkpt>
      <trkpt lat="46.08453" lon="6.97899">
        <ele>1299</ele>
        <time>2000-01-01T16:27:45.000Z</time>
      </trkpt>
      <trkpt lat="46.08477" lon="6.97926">
        <ele>1312</ele>
        <time>2000-01-01T16:27:55.000Z</time>
      </trkpt>
      <trkpt lat="46.08519" lon="6.97975">
        <ele>1316</ele>
        <time>2000-01-01T16:28:05.000Z</time>
      </trkpt>
      <trkpt lat="46.0853" lon="6.97973">
        <ele>1314.4</ele>
        <time>2000-01-01T16:28:15.000Z</time>
      </trkpt>
      <trkpt lat="46.08531" lon="6.97944">
        <ele>1320</ele>
        <time>2000-01-01T16:28:25.000Z</time>
      </trkpt>
      <trkpt lat="46.08562" lon="6.97953">
        <ele>1321</ele>
        <time>2000-01-01T16:28:35.000Z</time>
      </trkpt>
      <trkpt lat="46.08581" lon="6.97994">
        <ele>1327</ele>
        <time>2000-01-01T16:28:45.000Z</time>
      </trkpt>
      <trkpt lat="46.08601" lon="6.98035">
        <ele>1337</ele>
        <time>2000-01-01T16:28:55.000Z</time>
      </trkpt>
      <trkpt lat="46.08637" lon="6.98111">
        <ele>1337</ele>
        <time>2000-01-01T16:29:05.000Z</time>
      </trkpt>
      <trkpt lat="46.08627" lon="6.98053">
        <ele>1337</ele>
        <time>2000-01-01T16:29:15.000Z</time>
      </trkpt>
      <trkpt lat="46.08636" lon="6.98016">
        <ele>1341</ele>
        <time>2000-01-01T16:29:25.000Z</time>
      </trkpt>
      <trkpt lat="46.08657" lon="6.98044">
        <ele>1345</ele>
        <time>2000-01-01T16:29:35.000Z</time>
      </trkpt>
      <trkpt lat="46.08689" lon="6.98087">
        <ele>1348</ele>
        <time>2000-01-01T16:29:45.000Z</time>
      </trkpt>
      <trkpt lat="46.08714" lon="6.98093">
        <ele>1357</ele>
        <time>2000-01-01T16:29:55.000Z</time>
      </trkpt>
      <trkpt lat="46.08744" lon="6.981">
        <ele>1359</ele>
        <time>2000-01-01T16:30:05.000Z</time>
      </trkpt>
      <trkpt lat="46.08774" lon="6.98144">
        <ele>1368</ele>
        <time>2000-01-01T16:30:15.000Z</time>
      </trkpt>
      <trkpt lat="46.08803" lon="6.98189">
        <ele>1374</ele>
        <time>2000-01-01T16:30:25.000Z</time>
      </trkpt>
      <trkpt lat="46.08833" lon="6.98233">
        <ele>1375</ele>
        <time>2000-01-01T16:30:35.000Z</time>
      </trkpt>
      <trkpt lat="46.08863" lon="6.98277">
        <ele>1376</ele>
        <time>2000-01-01T16:30:45.000Z</time>
      </trkpt>
      <trkpt lat="46.08893" lon="6.98322">
        <ele>1378</ele>
        <time>2000-01-01T16:30:55.000Z</time>
      </trkpt>
      <trkpt lat="46.08922" lon="6.98366">
        <ele>1382</ele>
        <time>2000-01-01T16:31:05.000Z</time>
      </trkpt>
      <trkpt lat="46.08952" lon="6.9841">
        <ele>1388</ele>
        <time>2000-01-01T16:31:15.000Z</time>
      </trkpt>
      <trkpt lat="46.08982" lon="6.98455">
        <ele>1395</ele>
        <time>2000-01-01T16:31:25.000Z</time>
      </trkpt>
      <trkpt lat="46.09012" lon="6.98499">
        <ele>1407</ele>
        <time>2000-01-01T16:31:35.000Z</time>
      </trkpt>
      <trkpt lat="46.09041" lon="6.98543">
        <ele>1421</ele>
        <time>2000-01-01T16:31:45.000Z</time>
      </trkpt>
      <trkpt lat="46.09096" lon="6.98625">
        <ele>1424</ele>
        <time>2000-01-01T16:31:55.000Z</time>
      </trkpt>
      <trkpt lat="46.09124" lon="6.98636">
        <ele>1424</ele>
        <time>2000-01-01T16:32:05.000Z</time>
      </trkpt>
      <trkpt lat="46.09169" lon="6.98655">
        <ele>1429</ele>
        <time>2000-01-01T16:32:15.000Z</time>
      </trkpt>
      <trkpt lat="46.09198" lon="6.98603">
        <ele>1430</ele>
        <time>2000-01-01T16:32:25.000Z</time>
      </trkpt>
      <trkpt lat="46.09232" lon="6.98605">
        <ele>1433</ele>
        <time>2000-01-01T16:32:35.000Z</time>
      </trkpt>
      <trkpt lat="46.09267" lon="6.98607">
        <ele>1437</ele>
        <time>2000-01-01T16:32:45.000Z</time>
      </trkpt>
      <trkpt lat="46.09329" lon="6.9861">
        <ele>1453</ele>
        <time>2000-01-01T16:32:55.000Z</time>
      </trkpt>
      <trkpt lat="46.0936" lon="6.98623">
        <ele>1457</ele>
        <time>2000-01-01T16:33:05.000Z</time>
      </trkpt>
      <trkpt lat="46.09387" lon="6.98605">
        <ele>1459</ele>
        <time>2000-01-01T16:33:15.000Z</time>
      </trkpt>
      <trkpt lat="46.09437" lon="6.98572">
        <ele>1470</ele>
        <time>2000-01-01T16:33:25.000Z</time>
      </trkpt>
      <trkpt lat="46.09461" lon="6.98591">
        <ele>1469</ele>
        <time>2000-01-01T16:33:35.000Z</time>
      </trkpt>
      <trkpt lat="46.09498" lon="6.9862">
        <ele>1469</ele>
        <time>2000-01-01T16:33:45.000Z</time>
      </trkpt>
      <trkpt lat="46.09511" lon="6.98608">
        <ele>1458</ele>
        <time>2000-01-01T16:33:55.000Z</time>
      </trkpt>
      <trkpt lat="46.09632" lon="6.98648">
        <ele>1461</ele>
        <time>2000-01-01T16:34:05.000Z</time>
      </trkpt>
      <trkpt lat="46.0965" lon="6.9864">
        <ele>1461</ele>
        <time>2000-01-01T16:34:15.000Z</time>
      </trkpt>
      <trkpt lat="46.09681" lon="6.98646">
        <ele>1478</ele>
        <time>2000-01-01T16:34:25.000Z</time>
      </trkpt>
      <trkpt lat="46.09741" lon="6.98659">
        <ele>1481</ele>
        <time>2000-01-01T16:34:35.000Z</time>
      </trkpt>
      <trkpt lat="46.09767" lon="6.98677">
        <ele>1469</ele>
        <time>2000-01-01T16:34:45.000Z</time>
      </trkpt>
      <trkpt lat="46.0981" lon="6.98707">
        <ele>1464</ele>
        <time>2000-01-01T16:34:55.000Z</time>
      </trkpt>
      <trkpt lat="46.09834" lon="6.98705">
        <ele>1460</ele>
        <time>2000-01-01T16:35:05.000Z</time>
      </trkpt>
      <trkpt lat="46.09862" lon="6.98722">
        <ele>1446</ele>
        <time>2000-01-01T16:35:15.000Z</time>
      </trkpt>
      <trkpt lat="46.09917" lon="6.98755">
        <ele>1445</ele>
        <time>2000-01-01T16:35:25.000Z</time>
      </trkpt>
      <trkpt lat="46.09953" lon="6.98748">
        <ele>1431</ele>
        <time>2000-01-01T16:35:35.000Z</time>
      </trkpt>
      <trkpt lat="46.09977" lon="6.98757">
        <ele>1432</ele>
        <time>2000-01-01T16:35:45.000Z</time>
      </trkpt>
      <trkpt lat="46.10005" lon="6.98768">
        <ele>1433</ele>
        <time>2000-01-01T16:35:55.000Z</time>
      </trkpt>
      <trkpt lat="46.10034" lon="6.98763">
        <ele>1430</ele>
        <time>2000-01-01T16:36:05.000Z</time>
      </trkpt>
      <trkpt lat="46.10068" lon="6.988">
        <ele>1432</ele>
        <time>2000-01-01T16:36:15.000Z</time>
      </trkpt>
      <trkpt lat="46.101" lon="6.98806">
        <ele>1421</ele>
        <time>2000-01-01T16:36:25.000Z</time>
      </trkpt>
      <trkpt lat="46.10129" lon="6.98851">
        <ele>1420</ele>
        <time>2000-01-01T16:36:35.000Z</time>
      </trkpt>
      <trkpt lat="46.10158" lon="6.98862">
        <ele>1420</ele>
        <time>2000-01-01T16:36:45.000Z</time>
      </trkpt>
      <trkpt lat="46.10207" lon="6.98881">
        <ele>1413</ele>
        <time>2000-01-01T16:36:55.000Z</time>
      </trkpt>
      <trkpt lat="46.10247" lon="6.98873">
        <ele>1411</ele>
        <time>2000-01-01T16:37:05.000Z</time>
      </trkpt>
      <trkpt lat="46.10281" lon="6.98897">
        <ele>1388</ele>
        <time>2000-01-01T16:37:15.000Z</time>
      </trkpt>
      <trkpt lat="46.103" lon="6.98887">
        <ele>1378</ele>
        <time>2000-01-01T16:37:25.000Z</time>
      </trkpt>
      <trkpt lat="46.10327" lon="6.98896">
        <ele>1377</ele>
        <time>2000-01-01T16:37:35.000Z</time>
      </trkpt>
      <trkpt lat="46.10334" lon="6.98852">
        <ele>1377</ele>
        <time>2000-01-01T16:37:45.000Z</time>
      </trkpt>
      <trkpt lat="46.10347" lon="6.98767">
        <ele>1401</ele>
        <time>2000-01-01T16:37:55.000Z</time>
      </trkpt>
      <trkpt lat="46.10362" lon="6.98735">
        <ele>1411</ele>
        <time>2000-01-01T16:38:05.000Z</time>
      </trkpt>
      <trkpt lat="46.10381" lon="6.98692">
        <ele>1422</ele>
        <time>2000-01-01T16:38:15.000Z</time>
      </trkpt>
      <trkpt lat="46.10383" lon="6.98657">
        <ele>1434</ele>
        <time>2000-01-01T16:38:25.000Z</time>
      </trkpt>
      <trkpt lat="46.10385" lon="6.9862">
        <ele>1438</ele>
        <time>2000-01-01T16:38:35.000Z</time>
      </trkpt>
      <trkpt lat="46.10396" lon="6.9857">
        <ele>1454</ele>
        <time>2000-01-01T16:38:45.000Z</time>
      </trkpt>
      <trkpt lat="46.10408" lon="6.9852">
        <ele>1458</ele>
        <time>2000-01-01T16:38:55.000Z</time>
      </trkpt>
      <trkpt lat="46.10419" lon="6.9847">
        <ele>1463</ele>
        <time>2000-01-01T16:39:05.000Z</time>
      </trkpt>
      <trkpt lat="46.10437" lon="6.98391">
        <ele>1475</ele>
        <time>2000-01-01T16:39:15.000Z</time>
      </trkpt>
      <trkpt lat="46.10457" lon="6.98354">
        <ele>1473</ele>
        <time>2000-01-01T16:39:25.000Z</time>
      </trkpt>
      <trkpt lat="46.10477" lon="6.98318">
        <ele>1472</ele>
        <time>2000-01-01T16:39:35.000Z</time>
      </trkpt>
      <trkpt lat="46.10503" lon="6.98272">
        <ele>1482</ele>
        <time>2000-01-01T16:39:45.000Z</time>
      </trkpt>
      <trkpt lat="46.10512" lon="6.98229">
        <ele>1483</ele>
        <time>2000-01-01T16:39:55.000Z</time>
      </trkpt>
      <trkpt lat="46.10522" lon="6.98186">
        <ele>1485</ele>
        <time>2000-01-01T16:40:05.000Z</time>
      </trkpt>
      <trkpt lat="46.10531" lon="6.98143">
        <ele>1487</ele>
        <time>2000-01-01T16:40:15.000Z</time>
      </trkpt>
      <trkpt lat="46.10551" lon="6.98109">
        <ele>1489</ele>
        <time>2000-01-01T16:40:25.000Z</time>
      </trkpt>
      <trkpt lat="46.10592" lon="6.98042">
        <ele>1490</ele>
        <time>2000-01-01T16:40:35.000Z</time>
      </trkpt>
      <trkpt lat="46.10605" lon="6.97998">
        <ele>1491</ele>
        <time>2000-01-01T16:40:45.000Z</time>
      </trkpt>
      <trkpt lat="46.10617" lon="6.97955">
        <ele>1514</ele>
        <time>2000-01-01T16:40:55.000Z</time>
      </trkpt>
      <trkpt lat="46.10634" lon="6.97897">
        <ele>1529</ele>
        <time>2000-01-01T16:41:05.000Z</time>
      </trkpt>
      <trkpt lat="46.10653" lon="6.97869">
        <ele>1544</ele>
        <time>2000-01-01T16:41:15.000Z</time>
      </trkpt>
      <trkpt lat="46.10679" lon="6.9783">
        <ele>1545</ele>
        <time>2000-01-01T16:41:25.000Z</time>
      </trkpt>
      <trkpt lat="46.10676" lon="6.97798">
        <ele>1576</ele>
        <time>2000-01-01T16:41:35.000Z</time>
      </trkpt>
      <trkpt lat="46.10657" lon="6.9779">
        <ele>1590</ele>
        <time>2000-01-01T16:41:45.000Z</time>
      </trkpt>
      <trkpt lat="46.10675" lon="6.97762">
        <ele>1594</ele>
        <time>2000-01-01T16:41:55.000Z</time>
      </trkpt>
      <trkpt lat="46.10673" lon="6.97734">
        <ele>1610</ele>
        <time>2000-01-01T16:42:05.000Z</time>
      </trkpt>
      <trkpt lat="46.10651" lon="6.97704">
        <ele>1641</ele>
        <time>2000-01-01T16:42:15.000Z</time>
      </trkpt>
      <trkpt lat="46.10677" lon="6.97679">
        <ele>1637</ele>
        <time>2000-01-01T16:42:25.000Z</time>
      </trkpt>
      <trkpt lat="46.10727" lon="6.9763">
        <ele>1638</ele>
        <time>2000-01-01T16:42:35.000Z</time>
      </trkpt>
      <trkpt lat="46.10756" lon="6.97631">
        <ele>1633</ele>
        <time>2000-01-01T16:42:45.000Z</time>
      </trkpt>
      <trkpt lat="46.10801" lon="6.97634">
        <ele>1642</ele>
        <time>2000-01-01T16:42:55.000Z</time>
      </trkpt>
      <trkpt lat="46.10833" lon="6.97614">
        <ele>1643</ele>
        <time>2000-01-01T16:43:05.000Z</time>
      </trkpt>
      <trkpt lat="46.10858" lon="6.97616">
        <ele>1645</ele>
        <time>2000-01-01T16:43:15.000Z</time>
      </trkpt>
      <trkpt lat="46.10883" lon="6.97598">
        <ele>1655</ele>
        <time>2000-01-01T16:43:25.000Z</time>
      </trkpt>
      <trkpt lat="46.10923" lon="6.97569">
        <ele>1659</ele>
        <time>2000-01-01T16:43:35.000Z</time>
      </trkpt>
      <trkpt lat="46.10949" lon="6.9759">
        <ele>1659</ele>
        <time>2000-01-01T16:43:45.000Z</time>
      </trkpt>
      <trkpt lat="46.10955" lon="6.97627">
        <ele>1659</ele>
        <time>2000-01-01T16:43:55.000Z</time>
      </trkpt>
      <trkpt lat="46.10963" lon="6.97676">
        <ele>1667</ele>
        <time>2000-01-01T16:44:05.000Z</time>
      </trkpt>
      <trkpt lat="46.10982" lon="6.97618">
        <ele>1668</ele>
        <time>2000-01-01T16:44:15.000Z</time>
      </trkpt>
      <trkpt lat="46.1101" lon="6.97586">
        <ele>1676</ele>
        <time>2000-01-01T16:44:25.000Z</time>
      </trkpt>
      <trkpt lat="46.11044" lon="6.97617">
        <ele>1690</ele>
        <time>2000-01-01T16:44:35.000Z</time>
      </trkpt>
      <trkpt lat="46.11065" lon="6.97578">
        <ele>1716</ele>
        <time>2000-01-01T16:44:45.000Z</time>
      </trkpt>
      <trkpt lat="46.11084" lon="6.97599">
        <ele>1715</ele>
        <time>2000-01-01T16:44:55.000Z</time>
      </trkpt>
      <trkpt lat="46.11087" lon="6.97649">
        <ele>1715</ele>
        <time>2000-01-01T16:45:05.000Z</time>
      </trkpt>
      <trkpt lat="46.1109" lon="6.977">
        <ele>1715</ele>
        <time>2000-01-01T16:45:15.000Z</time>
      </trkpt>
      <trkpt lat="46.11096" lon="6.978">
        <ele>1743</ele>
        <time>2000-01-01T16:45:25.000Z</time>
      </trkpt>
      <trkpt lat="46.11085" lon="6.97849">
        <ele>1744</ele>
        <time>2000-01-01T16:45:35.000Z</time>
      </trkpt>
      <trkpt lat="46.11095" lon="6.97898">
        <ele>1747</ele>
        <time>2000-01-01T16:45:45.000Z</time>
      </trkpt>
      <trkpt lat="46.11105" lon="6.97947">
        <ele>1756</ele>
        <time>2000-01-01T16:45:55.000Z</time>
      </trkpt>
      <trkpt lat="46.11115" lon="6.97996">
        <ele>1765</ele>
        <time>2000-01-01T16:46:05.000Z</time>
      </trkpt>
      <trkpt lat="46.11126" lon="6.98053">
        <ele>1763</ele>
        <time>2000-01-01T16:46:15.000Z</time>
      </trkpt>
      <trkpt lat="46.11115" lon="6.98109">
        <ele>1766</ele>
        <time>2000-01-01T16:46:25.000Z</time>
      </trkpt>
      <trkpt lat="46.11104" lon="6.98166">
        <ele>1756</ele>
        <time>2000-01-01T16:46:35.000Z</time>
      </trkpt>
      <trkpt lat="46.11094" lon="6.98222">
        <ele>1747</ele>
        <time>2000-01-01T16:46:45.000Z</time>
      </trkpt>
      <trkpt lat="46.11083" lon="6.98278">
        <ele>1746</ele>
        <time>2000-01-01T16:46:55.000Z</time>
      </trkpt>
      <trkpt lat="46.11072" lon="6.98335">
        <ele>1740</ele>
        <time>2000-01-01T16:47:05.000Z</time>
      </trkpt>
      <trkpt lat="46.11061" lon="6.98391">
        <ele>1718</ele>
        <time>2000-01-01T16:47:15.000Z</time>
      </trkpt>
      <trkpt lat="46.11044" lon="6.9848">
        <ele>1716</ele>
        <time>2000-01-01T16:47:25.000Z</time>
      </trkpt>
      <trkpt lat="46.11048" lon="6.9852">
        <ele>1727</ele>
        <time>2000-01-01T16:47:35.000Z</time>
      </trkpt>
      <trkpt lat="46.11054" lon="6.98579">
        <ele>1739</ele>
        <time>2000-01-01T16:47:45.000Z</time>
      </trkpt>
      <trkpt lat="46.11073" lon="6.98609">
        <ele>1761</ele>
        <time>2000-01-01T16:47:55.000Z</time>
      </trkpt>
      <trkpt lat="46.11101" lon="6.98655">
        <ele>1758</ele>
        <time>2000-01-01T16:48:05.000Z</time>
      </trkpt>
      <trkpt lat="46.11104" lon="6.98707">
        <ele>1756</ele>
        <time>2000-01-01T16:48:15.000Z</time>
      </trkpt>
      <trkpt lat="46.11119" lon="6.98743">
        <ele>1755</ele>
        <time>2000-01-01T16:48:25.000Z</time>
      </trkpt>
      <trkpt lat="46.11144" lon="6.98805">
        <ele>1748</ele>
        <time>2000-01-01T16:48:35.000Z</time>
      </trkpt>
      <trkpt lat="46.11177" lon="6.98825">
        <ele>1745</ele>
        <time>2000-01-01T16:48:45.000Z</time>
      </trkpt>
      <trkpt lat="46.1121" lon="6.98845">
        <ele>1749</ele>
        <time>2000-01-01T16:48:55.000Z</time>
      </trkpt>
      <trkpt lat="46.11242" lon="6.98865">
        <ele>1753</ele>
        <time>2000-01-01T16:49:05.000Z</time>
      </trkpt>
      <trkpt lat="46.11283" lon="6.9889">
        <ele>1756</ele>
        <time>2000-01-01T16:49:15.000Z</time>
      </trkpt>
      <trkpt lat="46.11308" lon="6.98925">
        <ele>1766</ele>
        <time>2000-01-01T16:49:25.000Z</time>
      </trkpt>
      <trkpt lat="46.11332" lon="6.98921">
        <ele>1764</ele>
        <time>2000-01-01T16:49:35.000Z</time>
      </trkpt>
      <trkpt lat="46.11347" lon="6.98959">
        <ele>1764</ele>
        <time>2000-01-01T16:49:45.000Z</time>
      </trkpt>
      <trkpt lat="46.11389" lon="6.98965">
        <ele>1760</ele>
        <time>2000-01-01T16:49:55.000Z</time>
      </trkpt>
      <trkpt lat="46.11402" lon="6.98994">
        <ele>1759</ele>
        <time>2000-01-01T16:50:05.000Z</time>
      </trkpt>
      <trkpt lat="46.11416" lon="6.99024">
        <ele>1759</ele>
        <time>2000-01-01T16:50:15.000Z</time>
      </trkpt>
      <trkpt lat="46.11448" lon="6.9905">
        <ele>1759</ele>
        <time>2000-01-01T16:50:25.000Z</time>
      </trkpt>
      <trkpt lat="46.11479" lon="6.99053">
        <ele>1759</ele>
        <time>2000-01-01T16:50:35.000Z</time>
      </trkpt>
      <trkpt lat="46.11492" lon="6.99083">
        <ele>1758</ele>
        <time>2000-01-01T16:50:45.000Z</time>
      </trkpt>
      <trkpt lat="46.11506" lon="6.99115">
        <ele>1764</ele>
        <time>2000-01-01T16:50:55.000Z</time>
      </trkpt>
      <trkpt lat="46.11532" lon="6.99141">
        <ele>1771</ele>
        <time>2000-01-01T16:51:05.000Z</time>
      </trkpt>
      <trkpt lat="46.11558" lon="6.99167">
        <ele>1775</ele>
        <time>2000-01-01T16:51:15.000Z</time>
      </trkpt>
      <trkpt lat="46.11586" lon="6.99196">
        <ele>1779</ele>
        <time>2000-01-01T16:51:25.000Z</time>
      </trkpt>
      <trkpt lat="46.11613" lon="6.99209">
        <ele>1783</ele>
        <time>2000-01-01T16:51:35.000Z</time>
      </trkpt>
      <trkpt lat="46.11636" lon="6.99198">
        <ele>1788</ele>
        <time>2000-01-01T16:51:45.000Z</time>
      </trkpt>
      <trkpt lat="46.11662" lon="6.99185">
        <ele>1797</ele>
        <time>2000-01-01T16:51:55.000Z</time>
      </trkpt>
      <trkpt lat="46.11679" lon="6.9914">
        <ele>1801</ele>
        <time>2000-01-01T16:52:05.000Z</time>
      </trkpt>
      <trkpt lat="46.11644" lon="6.99155">
        <ele>1801</ele>
        <time>2000-01-01T16:52:15.000Z</time>
      </trkpt>
      <trkpt lat="46.11621" lon="6.99135">
        <ele>1802</ele>
        <time>2000-01-01T16:52:25.000Z</time>
      </trkpt>
      <trkpt lat="46.11591" lon="6.99108">
        <ele>1804</ele>
        <time>2000-01-01T16:52:35.000Z</time>
      </trkpt>
      <trkpt lat="46.11575" lon="6.99082">
        <ele>1799</ele>
        <time>2000-01-01T16:52:45.000Z</time>
      </trkpt>
      <trkpt lat="46.11559" lon="6.99056">
        <ele>1799</ele>
        <time>2000-01-01T16:52:55.000Z</time>
      </trkpt>
      <trkpt lat="46.11577" lon="6.99011">
        <ele>1800</ele>
        <time>2000-01-01T16:53:05.000Z</time>
      </trkpt>
      <trkpt lat="46.11595" lon="6.98967">
        <ele>1800</ele>
        <time>2000-01-01T16:53:15.000Z</time>
      </trkpt>
      <trkpt lat="46.11613" lon="6.98922">
        <ele>1809</ele>
        <time>2000-01-01T16:53:25.000Z</time>
      </trkpt>
      <trkpt lat="46.11637" lon="6.98863">
        <ele>1824</ele>
        <time>2000-01-01T16:53:35.000Z</time>
      </trkpt>
      <trkpt lat="46.11616" lon="6.9883">
        <ele>1826</ele>
        <time>2000-01-01T16:53:45.000Z</time>
      </trkpt>
      <trkpt lat="46.11576" lon="6.98765">
        <ele>1858</ele>
        <time>2000-01-01T16:53:55.000Z</time>
      </trkpt>
      <trkpt lat="46.11553" lon="6.98764">
        <ele>1858</ele>
        <time>2000-01-01T16:54:05.000Z</time>
      </trkpt>
      <trkpt lat="46.11529" lon="6.98764">
        <ele>1870</ele>
        <time>2000-01-01T16:54:15.000Z</time>
      </trkpt>
      <trkpt lat="46.11507" lon="6.98729">
        <ele>1885</ele>
        <time>2000-01-01T16:54:25.000Z</time>
      </trkpt>
      <trkpt lat="46.1148" lon="6.98717">
        <ele>1889</ele>
        <time>2000-01-01T16:54:35.000Z</time>
      </trkpt>
      <trkpt lat="46.1144" lon="6.98699">
        <ele>1905</ele>
        <time>2000-01-01T16:54:45.000Z</time>
      </trkpt>
      <trkpt lat="46.11424" lon="6.98658">
        <ele>1950</ele>
        <time>2000-01-01T16:54:55.000Z</time>
      </trkpt>
      <trkpt lat="46.11408" lon="6.98617">
        <ele>1963</ele>
        <time>2000-01-01T16:55:05.000Z</time>
      </trkpt>
      <trkpt lat="46.11386" lon="6.98562">
        <ele>1990</ele>
        <time>2000-01-01T16:55:15.000Z</time>
      </trkpt>
      <trkpt lat="46.11382" lon="6.98526">
        <ele>2000</ele>
        <time>2000-01-01T16:55:25.000Z</time>
      </trkpt>
      <trkpt lat="46.11377" lon="6.98484">
        <ele>2003</ele>
        <time>2000-01-01T16:55:35.000Z</time>
      </trkpt>
      <trkpt lat="46.1139" lon="6.98455">
        <ele>2017</ele>
        <time>2000-01-01T16:55:45.000Z</time>
      </trkpt>
      <trkpt lat="46.11422" lon="6.98466">
        <ele>2032</ele>
        <time>2000-01-01T16:55:55.000Z</time>
      </trkpt>
      <trkpt lat="46.11459" lon="6.98452">
        <ele>2038</ele>
        <time>2000-01-01T16:56:05.000Z</time>
      </trkpt>
      <trkpt lat="46.1146" lon="6.98399">
        <ele>2067</ele>
        <time>2000-01-01T16:56:15.000Z</time>
      </trkpt>
      <trkpt lat="46.1146" lon="6.98346">
        <ele>2117</ele>
        <time>2000-01-01T16:56:25.000Z</time>
      </trkpt>
      <trkpt lat="46.11461" lon="6.98294">
        <ele>2121</ele>
        <time>2000-01-01T16:56:35.000Z</time>
      </trkpt>
      <trkpt lat="46.11462" lon="6.98209">
        <ele>2126</ele>
        <time>2000-01-01T16:56:45.000Z</time>
      </trkpt>
      <trkpt lat="46.11484" lon="6.98206">
        <ele>2126</ele>
        <time>2000-01-01T16:56:55.000Z</time>
      </trkpt>
      <trkpt lat="46.11501" lon="6.98172">
        <ele>2157</ele>
        <time>2000-01-01T16:57:05.000Z</time>
      </trkpt>
      <trkpt lat="46.11531" lon="6.98113">
        <ele>2177</ele>
        <time>2000-01-01T16:57:15.000Z</time>
      </trkpt>
      <trkpt lat="46.11569" lon="6.98084">
        <ele>2197</ele>
        <time>2000-01-01T16:57:25.000Z</time>
      </trkpt>
      <trkpt lat="46.11599" lon="6.98036">
        <ele>2202</ele>
        <time>2000-01-01T16:57:35.000Z</time>
      </trkpt>
      <trkpt lat="46.11607" lon="6.97992">
        <ele>2239</ele>
        <time>2000-01-01T16:57:45.000Z</time>
      </trkpt>
      <trkpt lat="46.11615" lon="6.97949">
        <ele>2251</ele>
        <time>2000-01-01T16:57:55.000Z</time>
      </trkpt>
      <trkpt lat="46.11624" lon="6.97903">
        <ele>2268</ele>
        <time>2000-01-01T16:58:05.000Z</time>
      </trkpt>
      <trkpt lat="46.11642" lon="6.97871">
        <ele>2275</ele>
        <time>2000-01-01T16:58:15.000Z</time>
      </trkpt>
      <trkpt lat="46.11672" lon="6.9782">
        <ele>2295</ele>
        <time>2000-01-01T16:58:25.000Z</time>
      </trkpt>
      <trkpt lat="46.11685" lon="6.97761">
        <ele>2322</ele>
        <time>2000-01-01T16:58:35.000Z</time>
      </trkpt>
      <trkpt lat="46.11704" lon="6.97736">
        <ele>2344</ele>
        <time>2000-01-01T16:58:45.000Z</time>
      </trkpt>
      <trkpt lat="46.11727" lon="6.97706">
        <ele>2370</ele>
        <time>2000-01-01T16:58:55.000Z</time>
      </trkpt>
      <trkpt lat="46.11726" lon="6.97661">
        <ele>2378</ele>
        <time>2000-01-01T16:59:05.000Z</time>
      </trkpt>
      <trkpt lat="46.11725" lon="6.97574">
        <ele>2380</ele>
        <time>2000-01-01T16:59:15.000Z</time>
      </trkpt>
      <trkpt lat="46.11766" lon="6.97586">
        <ele>2399</ele>
        <time>2000-01-01T16:59:25.000Z</time>
      </trkpt>
      <trkpt lat="46.11784" lon="6.97547">
        <ele>2405</ele>
        <time>2000-01-01T16:59:35.000Z</time>
      </trkpt>
      <trkpt lat="46.11806" lon="6.97547">
        <ele>2406</ele>
        <time>2000-01-01T16:59:45.000Z</time>
      </trkpt>
      <trkpt lat="46.11813" lon="6.97516">
        <ele>2407</ele>
        <time>2000-01-01T16:59:55.000Z</time>
      </trkpt>
      <trkpt lat="46.11849" lon="6.97515">
        <ele>2415</ele>
        <time>2000-01-01T17:00:05.000Z</time>
      </trkpt>
      <trkpt lat="46.11872" lon="6.97485">
        <ele>2433</ele>
        <time>2000-01-01T17:00:15.000Z</time>
      </trkpt>
      <trkpt lat="46.11919" lon="6.97427">
        <ele>2457</ele>
        <time>2000-01-01T17:00:25.000Z</time>
      </trkpt>
      <trkpt lat="46.11913" lon="6.9738">
        <ele>2467</ele>
        <time>2000-01-01T17:00:35.000Z</time>
      </trkpt>
      <trkpt lat="46.11958" lon="6.9737">
        <ele>2498</ele>
        <time>2000-01-01T17:00:45.000Z</time>
      </trkpt>
      <trkpt lat="46.1196" lon="6.97349">
        <ele>2522.9</ele>
        <time>2000-01-01T17:00:55.000Z</time>
      </trkpt>
      <trkpt lat="46.11993" lon="6.97377">
        <ele>2531</ele>
        <time>2000-01-01T17:01:05.000Z</time>
      </trkpt>
      <trkpt lat="46.12014" lon="6.97357">
        <ele>2531</ele>
        <time>2000-01-01T17:01:15.000Z</time>
      </trkpt>
      <trkpt lat="46.1204" lon="6.97334">
        <ele>2574</ele>
        <time>2000-01-01T17:01:25.000Z</time>
      </trkpt>
      <trkpt lat="46.12026" lon="6.97287">
        <ele>2609</ele>
        <time>2000-01-01T17:01:35.000Z</time>
      </trkpt>
      <trkpt lat="46.12038" lon="6.97241">
        <ele>2619</ele>
        <time>2000-01-01T17:01:45.000Z</time>
      </trkpt>
      <trkpt lat="46.1205" lon="6.97195">
        <ele>2634</ele>
        <time>2000-01-01T17:01:55.000Z</time>
      </trkpt>
      <trkpt lat="46.12071" lon="6.97114">
        <ele>2696</ele>
        <time>2000-01-01T17:02:05.000Z</time>
      </trkpt>
      <trkpt lat="46.12073" lon="6.97073">
        <ele>2708</ele>
        <time>2000-01-01T17:02:15.000Z</time>
      </trkpt>
      <trkpt lat="46.12075" lon="6.97011">
        <ele>2722</ele>
        <time>2000-01-01T17:02:25.000Z</time>
      </trkpt>
      <trkpt lat="46.1206" lon="6.97006">
        <ele>2770.7</ele>
        <time>2000-01-01T17:02:35.000Z</time>
      </trkpt>
      <trkpt lat="46.12099" lon="6.96953">
        <ele>2726</ele>
        <time>2000-01-01T17:02:45.000Z</time>
      </trkpt>
      <trkpt lat="46.12101" lon="6.96895">
        <ele>2718</ele>
        <time>2000-01-01T17:02:55.000Z</time>
      </trkpt>
      <trkpt lat="46.12104" lon="6.96836">
        <ele>2710</ele>
        <time>2000-01-01T17:03:05.000Z</time>
      </trkpt>
      <trkpt lat="46.12106" lon="6.96778">
        <ele>2698</ele>
        <time>2000-01-01T17:03:15.000Z</time>
      </trkpt>
      <trkpt lat="46.12108" lon="6.9672">
        <ele>2696</ele>
        <time>2000-01-01T17:03:25.000Z</time>
      </trkpt>
      <trkpt lat="46.1211" lon="6.96662">
        <ele>2678</ele>
        <time>2000-01-01T17:03:35.000Z</time>
      </trkpt>
      <trkpt lat="46.12113" lon="6.96604">
        <ele>2674</ele>
        <time>2000-01-01T17:03:45.000Z</time>
      </trkpt>
      <trkpt lat="46.12116" lon="6.96519">
        <ele>2657</ele>
        <time>2000-01-01T17:03:55.000Z</time>
      </trkpt>
      <trkpt lat="46.12113" lon="6.96483">
        <ele>2655</ele>
        <time>2000-01-01T17:04:05.000Z</time>
      </trkpt>
      <trkpt lat="46.12109" lon="6.96442">
        <ele>2650</ele>
        <time>2000-01-01T17:04:15.000Z</time>
      </trkpt>
      <trkpt lat="46.12095" lon="6.96408">
        <ele>2639</ele>
        <time>2000-01-01T17:04:25.000Z</time>
      </trkpt>
      <trkpt lat="46.12077" lon="6.96362">
        <ele>2631</ele>
        <time>2000-01-01T17:04:35.000Z</time>
      </trkpt>
      <trkpt lat="46.12075" lon="6.9632">
        <ele>2626</ele>
        <time>2000-01-01T17:04:45.000Z</time>
      </trkpt>
      <trkpt lat="46.12073" lon="6.96254">
        <ele>2604</ele>
        <time>2000-01-01T17:04:55.000Z</time>
      </trkpt>
      <trkpt lat="46.12064" lon="6.96205">
        <ele>2593</ele>
        <time>2000-01-01T17:05:05.000Z</time>
      </trkpt>
      <trkpt lat="46.12055" lon="6.96157">
        <ele>2568</ele>
        <time>2000-01-01T17:05:15.000Z</time>
      </trkpt>
      <trkpt lat="46.12037" lon="6.96063">
        <ele>2544</ele>
        <time>2000-01-01T17:05:25.000Z</time>
      </trkpt>
      <trkpt lat="46.12038" lon="6.96026">
        <ele>2530</ele>
        <time>2000-01-01T17:05:35.000Z</time>
      </trkpt>
      <trkpt lat="46.12039" lon="6.95983">
        <ele>2513</ele>
        <time>2000-01-01T17:05:45.000Z</time>
      </trkpt>
      <trkpt lat="46.12054" lon="6.95941">
        <ele>2504</ele>
        <time>2000-01-01T17:05:55.000Z</time>
      </trkpt>
      <trkpt lat="46.12031" lon="6.95902">
        <ele>2484</ele>
        <time>2000-01-01T17:06:05.000Z</time>
      </trkpt>
      <trkpt lat="46.12009" lon="6.95864">
        <ele>2476</ele>
        <time>2000-01-01T17:06:15.000Z</time>
      </trkpt>
      <trkpt lat="46.11964" lon="6.95788">
        <ele>2470</ele>
        <time>2000-01-01T17:06:25.000Z</time>
      </trkpt>
      <trkpt lat="46.11955" lon="6.95753">
        <ele>2464</ele>
        <time>2000-01-01T17:06:35.000Z</time>
      </trkpt>
      <trkpt lat="46.11944" lon="6.95708">
        <ele>2461</ele>
        <time>2000-01-01T17:06:45.000Z</time>
      </trkpt>
      <trkpt lat="46.11952" lon="6.95702">
        <ele>2459.4</ele>
        <time>2000-01-01T17:06:55.000Z</time>
      </trkpt>
      <trkpt lat="46.11976" lon="6.95744">
        <ele>2459</ele>
        <time>2000-01-01T17:07:05.000Z</time>
      </trkpt>
      <trkpt lat="46.12002" lon="6.95759">
        <ele>2449</ele>
        <time>2000-01-01T17:07:15.000Z</time>
      </trkpt>
      <trkpt lat="46.1204" lon="6.95781">
        <ele>2438</ele>
        <time>2000-01-01T17:07:25.000Z</time>
      </trkpt>
      <trkpt lat="46.12081" lon="6.95781">
        <ele>2417</ele>
        <time>2000-01-01T17:07:35.000Z</time>
      </trkpt>
      <trkpt lat="46.121" lon="6.95752">
        <ele>2407</ele>
        <time>2000-01-01T17:07:45.000Z</time>
      </trkpt>
      <trkpt lat="46.12126" lon="6.9571">
        <ele>2392</ele>
        <time>2000-01-01T17:07:55.000Z</time>
      </trkpt>
      <trkpt lat="46.12157" lon="6.95713">
        <ele>2378</ele>
        <time>2000-01-01T17:08:05.000Z</time>
      </trkpt>
      <trkpt lat="46.12189" lon="6.95716">
        <ele>2371</ele>
        <time>2000-01-01T17:08:15.000Z</time>
      </trkpt>
      <trkpt lat="46.12223" lon="6.95719">
        <ele>2363</ele>
        <time>2000-01-01T17:08:25.000Z</time>
      </trkpt>
      <trkpt lat="46.12209" lon="6.95688">
        <ele>2356</ele>
        <time>2000-01-01T17:08:35.000Z</time>
      </trkpt>
      <trkpt lat="46.12217" lon="6.95657">
        <ele>2341</ele>
        <time>2000-01-01T17:08:45.000Z</time>
      </trkpt>
      <trkpt lat="46.12243" lon="6.95637">
        <ele>2329</ele>
        <time>2000-01-01T17:08:55.000Z</time>
      </trkpt>
      <trkpt lat="46.12284" lon="6.95606">
        <ele>2320</ele>
        <time>2000-01-01T17:09:05.000Z</time>
      </trkpt>
      <trkpt lat="46.12312" lon="6.95615">
        <ele>2306</ele>
        <time>2000-01-01T17:09:15.000Z</time>
      </trkpt>
      <trkpt lat="46.1236" lon="6.95631">
        <ele>2293</ele>
        <time>2000-01-01T17:09:25.000Z</time>
      </trkpt>
      <trkpt lat="46.12405" lon="6.95616">
        <ele>2280</ele>
        <time>2000-01-01T17:09:35.000Z</time>
      </trkpt>
      <trkpt lat="46.12415" lon="6.95653">
        <ele>2265</ele>
        <time>2000-01-01T17:09:45.000Z</time>
      </trkpt>
      <trkpt lat="46.12429" lon="6.95659">
        <ele>2261.5</ele>
        <time>2000-01-01T17:09:55.000Z</time>
      </trkpt>
      <trkpt lat="46.12509" lon="6.95621">
        <ele>2225</ele>
        <time>2000-01-01T17:10:05.000Z</time>
      </trkpt>
      <trkpt lat="46.12533" lon="6.95627">
        <ele>2214</ele>
        <time>2000-01-01T17:10:15.000Z</time>
      </trkpt>
      <trkpt lat="46.12559" lon="6.95606">
        <ele>2204</ele>
        <time>2000-01-01T17:10:25.000Z</time>
      </trkpt>
      <trkpt lat="46.12602" lon="6.95571">
        <ele>2171</ele>
        <time>2000-01-01T17:10:35.000Z</time>
      </trkpt>
      <trkpt lat="46.12633" lon="6.95562">
        <ele>2157</ele>
        <time>2000-01-01T17:10:45.000Z</time>
      </trkpt>
      <trkpt lat="46.12663" lon="6.95552">
        <ele>2150</ele>
        <time>2000-01-01T17:10:55.000Z</time>
      </trkpt>
      <trkpt lat="46.12695" lon="6.95543">
        <ele>2150</ele>
        <time>2000-01-01T17:11:05.000Z</time>
      </trkpt>
      <trkpt lat="46.12725" lon="6.95557">
        <ele>2135</ele>
        <time>2000-01-01T17:11:15.000Z</time>
      </trkpt>
      <trkpt lat="46.12759" lon="6.95559">
        <ele>2120</ele>
        <time>2000-01-01T17:11:25.000Z</time>
      </trkpt>
      <trkpt lat="46.12794" lon="6.95562">
        <ele>2106</ele>
        <time>2000-01-01T17:11:35.000Z</time>
      </trkpt>
      <trkpt lat="46.12856" lon="6.95566">
        <ele>2093</ele>
        <time>2000-01-01T17:11:45.000Z</time>
      </trkpt>
      <trkpt lat="46.12878" lon="6.9558">
        <ele>2093</ele>
        <time>2000-01-01T17:11:55.000Z</time>
      </trkpt>
      <trkpt lat="46.12901" lon="6.95594">
        <ele>2087</ele>
        <time>2000-01-01T17:12:05.000Z</time>
      </trkpt>
      <trkpt lat="46.12924" lon="6.95581">
        <ele>2077</ele>
        <time>2000-01-01T17:12:15.000Z</time>
      </trkpt>
      <trkpt lat="46.12949" lon="6.95566">
        <ele>2074</ele>
        <time>2000-01-01T17:12:25.000Z</time>
      </trkpt>
      <trkpt lat="46.12959" lon="6.95518">
        <ele>2071</ele>
        <time>2000-01-01T17:12:35.000Z</time>
      </trkpt>
      <trkpt lat="46.13" lon="6.95497">
        <ele>2064</ele>
        <time>2000-01-01T17:12:45.000Z</time>
      </trkpt>
      <trkpt lat="46.13025" lon="6.95499">
        <ele>2054</ele>
        <time>2000-01-01T17:12:55.000Z</time>
      </trkpt>
      <trkpt lat="46.13055" lon="6.95501">
        <ele>2047</ele>
        <time>2000-01-01T17:13:05.000Z</time>
      </trkpt>
      <trkpt lat="46.13084" lon="6.95483">
        <ele>2045</ele>
        <time>2000-01-01T17:13:15.000Z</time>
      </trkpt>
      <trkpt lat="46.13118" lon="6.95493">
        <ele>2043</ele>
        <time>2000-01-01T17:13:25.000Z</time>
      </trkpt>
      <trkpt lat="46.13151" lon="6.95502">
        <ele>2042</ele>
        <time>2000-01-01T17:13:35.000Z</time>
      </trkpt>
      <trkpt lat="46.13212" lon="6.9552">
        <ele>2031</ele>
        <time>2000-01-01T17:13:45.000Z</time>
      </trkpt>
      <trkpt lat="46.13233" lon="6.95557">
        <ele>2020</ele>
        <time>2000-01-01T17:13:55.000Z</time>
      </trkpt>
      <trkpt lat="46.13265" lon="6.9555">
        <ele>2011</ele>
        <time>2000-01-01T17:14:05.000Z</time>
      </trkpt>
      <trkpt lat="46.13296" lon="6.95544">
        <ele>2002</ele>
        <time>2000-01-01T17:14:15.000Z</time>
      </trkpt>
      <trkpt lat="46.13334" lon="6.95536">
        <ele>1990</ele>
        <time>2000-01-01T17:14:25.000Z</time>
      </trkpt>
      <trkpt lat="46.13354" lon="6.95574">
        <ele>1990</ele>
        <time>2000-01-01T17:14:35.000Z</time>
      </trkpt>
      <trkpt lat="46.13374" lon="6.95611">
        <ele>1986</ele>
        <time>2000-01-01T17:14:45.000Z</time>
      </trkpt>
      <trkpt lat="46.13402" lon="6.95663">
        <ele>1984</ele>
        <time>2000-01-01T17:14:55.000Z</time>
      </trkpt>
      <trkpt lat="46.13419" lon="6.95706">
        <ele>1983</ele>
        <time>2000-01-01T17:15:05.000Z</time>
      </trkpt>
      <trkpt lat="46.13436" lon="6.95749">
        <ele>1979</ele>
        <time>2000-01-01T17:15:15.000Z</time>
      </trkpt>
      <trkpt lat="46.13467" lon="6.95827">
        <ele>1977</ele>
        <time>2000-01-01T17:15:25.000Z</time>
      </trkpt>
      <trkpt lat="46.13484" lon="6.95852">
        <ele>1976</ele>
        <time>2000-01-01T17:15:35.000Z</time>
      </trkpt>
      <trkpt lat="46.13502" lon="6.95878">
        <ele>1966</ele>
        <time>2000-01-01T17:15:45.000Z</time>
      </trkpt>
      <trkpt lat="46.13529" lon="6.95887">
        <ele>1958</ele>
        <time>2000-01-01T17:15:55.000Z</time>
      </trkpt>
      <trkpt lat="46.13567" lon="6.95899">
        <ele>1945</ele>
        <time>2000-01-01T17:16:05.000Z</time>
      </trkpt>
      <trkpt lat="46.13586" lon="6.95933">
        <ele>1934</ele>
        <time>2000-01-01T17:16:15.000Z</time>
      </trkpt>
      <trkpt lat="46.13622" lon="6.95997">
        <ele>1926</ele>
        <time>2000-01-01T17:16:25.000Z</time>
      </trkpt>
      <trkpt lat="46.13635" lon="6.9603">
        <ele>1930</ele>
        <time>2000-01-01T17:16:35.000Z</time>
      </trkpt>
      <trkpt lat="46.13653" lon="6.96075">
        <ele>1934</ele>
        <time>2000-01-01T17:16:45.000Z</time>
      </trkpt>
      <trkpt lat="46.13651" lon="6.96124">
        <ele>1935</ele>
        <time>2000-01-01T17:16:55.000Z</time>
      </trkpt>
      <trkpt lat="46.13667" lon="6.96161">
        <ele>1935</ele>
        <time>2000-01-01T17:17:05.000Z</time>
      </trkpt>
      <trkpt lat="46.13698" lon="6.96233">
        <ele>1936</ele>
        <time>2000-01-01T17:17:15.000Z</time>
      </trkpt>
      <trkpt lat="46.13708" lon="6.9628">
        <ele>1943</ele>
        <time>2000-01-01T17:17:25.000Z</time>
      </trkpt>
      <trkpt lat="46.13718" lon="6.96326">
        <ele>1951</ele>
        <time>2000-01-01T17:17:35.000Z</time>
      </trkpt>
      <trkpt lat="46.13735" lon="6.96403">
        <ele>1954</ele>
        <time>2000-01-01T17:17:45.000Z</time>
      </trkpt>
      <trkpt lat="46.13753" lon="6.96452">
        <ele>1950</ele>
        <time>2000-01-01T17:17:55.000Z</time>
      </trkpt>
      <trkpt lat="46.13771" lon="6.96501">
        <ele>1949</ele>
        <time>2000-01-01T17:18:05.000Z</time>
      </trkpt>
      <trkpt lat="46.1379" lon="6.9655">
        <ele>1948</ele>
        <time>2000-01-01T17:18:15.000Z</time>
      </trkpt>
      <trkpt lat="46.13808" lon="6.96599">
        <ele>1944</ele>
        <time>2000-01-01T17:18:25.000Z</time>
      </trkpt>
      <trkpt lat="46.13839" lon="6.96683">
        <ele>1944</ele>
        <time>2000-01-01T17:18:35.000Z</time>
      </trkpt>
      <trkpt lat="46.1385" lon="6.96653">
        <ele>1941</ele>
        <time>2000-01-01T17:18:45.000Z</time>
      </trkpt>
      <trkpt lat="46.13858" lon="6.96664">
        <ele>1928.9</ele>
        <time>2000-01-01T17:18:55.000Z</time>
      </trkpt>
      <trkpt lat="46.13938" lon="6.96658">
        <ele>1904</ele>
        <time>2000-01-01T17:19:05.000Z</time>
      </trkpt>
      <trkpt lat="46.13977" lon="6.96669">
        <ele>1892</ele>
        <time>2000-01-01T17:19:15.000Z</time>
      </trkpt>
      <trkpt lat="46.14017" lon="6.96681">
        <ele>1886</ele>
        <time>2000-01-01T17:19:25.000Z</time>
      </trkpt>
      <trkpt lat="46.14056" lon="6.96692">
        <ele>1881</ele>
        <time>2000-01-01T17:19:35.000Z</time>
      </trkpt>
      <trkpt lat="46.14095" lon="6.96703">
        <ele>1882</ele>
        <time>2000-01-01T17:19:45.000Z</time>
      </trkpt>
      <trkpt lat="46.14135" lon="6.96714">
        <ele>1884</ele>
        <time>2000-01-01T17:19:55.000Z</time>
      </trkpt>
      <trkpt lat="46.14174" lon="6.96726">
        <ele>1886</ele>
        <time>2000-01-01T17:20:05.000Z</time>
      </trkpt>
      <trkpt lat="46.14216" lon="6.96738">
        <ele>1921</ele>
        <time>2000-01-01T17:20:15.000Z</time>
      </trkpt>
      <trkpt lat="46.14239" lon="6.96782">
        <ele>1929</ele>
        <time>2000-01-01T17:20:25.000Z</time>
      </trkpt>
      <trkpt lat="46.14262" lon="6.96827">
        <ele>1929</ele>
        <time>2000-01-01T17:20:35.000Z</time>
      </trkpt>
      <trkpt lat="46.14285" lon="6.96871">
        <ele>1929</ele>
        <time>2000-01-01T17:20:45.000Z</time>
      </trkpt>
      <trkpt lat="46.14307" lon="6.96916">
        <ele>1928</ele>
        <time>2000-01-01T17:20:55.000Z</time>
      </trkpt>
      <trkpt lat="46.14345" lon="6.96989">
        <ele>1928</ele>
        <time>2000-01-01T17:21:05.000Z</time>
      </trkpt>
      <trkpt lat="46.14376" lon="6.96997">
        <ele>1928</ele>
        <time>2000-01-01T17:21:15.000Z</time>
      </trkpt>
      <trkpt lat="46.14406" lon="6.97005">
        <ele>1926</ele>
        <time>2000-01-01T17:21:25.000Z</time>
      </trkpt>
      <trkpt lat="46.14438" lon="6.97014">
        <ele>1926</ele>
        <time>2000-01-01T17:21:35.000Z</time>
      </trkpt>
      <trkpt lat="46.14471" lon="6.9703">
        <ele>1926</ele>
        <time>2000-01-01T17:21:45.000Z</time>
      </trkpt>
      <trkpt lat="46.14503" lon="6.97046">
        <ele>1927</ele>
        <time>2000-01-01T17:21:55.000Z</time>
      </trkpt>
      <trkpt lat="46.14563" lon="6.97076">
        <ele>1927</ele>
        <time>2000-01-01T17:22:05.000Z</time>
      </trkpt>
      <trkpt lat="46.14589" lon="6.97062">
        <ele>1927</ele>
        <time>2000-01-01T17:22:15.000Z</time>
      </trkpt>
      <trkpt lat="46.14626" lon="6.97041">
        <ele>1930</ele>
        <time>2000-01-01T17:22:25.000Z</time>
      </trkpt>
      <trkpt lat="46.14633" lon="6.96995">
        <ele>1926</ele>
        <time>2000-01-01T17:22:35.000Z</time>
      </trkpt>
      <trkpt lat="46.1464" lon="6.96948">
        <ele>1923</ele>
        <time>2000-01-01T17:22:45.000Z</time>
      </trkpt>
      <trkpt lat="46.1465" lon="6.96885">
        <ele>1923</ele>
        <time>2000-01-01T17:22:55.000Z</time>
      </trkpt>
      <trkpt lat="46.14648" lon="6.96844">
        <ele>1922</ele>
        <time>2000-01-01T17:23:05.000Z</time>
      </trkpt>
      <trkpt lat="46.14646" lon="6.96782">
        <ele>1921</ele>
        <time>2000-01-01T17:23:15.000Z</time>
      </trkpt>
      <trkpt lat="46.14657" lon="6.96743">
        <ele>1922</ele>
        <time>2000-01-01T17:23:25.000Z</time>
      </trkpt>
      <trkpt lat="46.14677" lon="6.96676">
        <ele>1922</ele>
        <time>2000-01-01T17:23:35.000Z</time>
      </trkpt>
      <trkpt lat="46.14677" lon="6.96616">
        <ele>1922</ele>
        <time>2000-01-01T17:23:45.000Z</time>
      </trkpt>
      <trkpt lat="46.14677" lon="6.96557">
        <ele>1922</ele>
        <time>2000-01-01T17:23:55.000Z</time>
      </trkpt>
      <trkpt lat="46.14677" lon="6.96497">
        <ele>1923</ele>
        <time>2000-01-01T17:24:05.000Z</time>
      </trkpt>
      <trkpt lat="46.14677" lon="6.96437">
        <ele>1925</ele>
        <time>2000-01-01T17:24:15.000Z</time>
      </trkpt>
      <trkpt lat="46.14677" lon="6.96377">
        <ele>1925</ele>
        <time>2000-01-01T17:24:25.000Z</time>
      </trkpt>
      <trkpt lat="46.14677" lon="6.96318">
        <ele>1930</ele>
        <time>2000-01-01T17:24:35.000Z</time>
      </trkpt>
      <trkpt lat="46.14677" lon="6.96258">
        <ele>1927</ele>
        <time>2000-01-01T17:24:45.000Z</time>
      </trkpt>
      <trkpt lat="46.14677" lon="6.96151">
        <ele>1927</ele>
        <time>2000-01-01T17:24:55.000Z</time>
      </trkpt>
      <trkpt lat="46.14671" lon="6.96102">
        <ele>1928</ele>
        <time>2000-01-01T17:25:05.000Z</time>
      </trkpt>
      <trkpt lat="46.14666" lon="6.96053">
        <ele>1924</ele>
        <time>2000-01-01T17:25:15.000Z</time>
      </trkpt>
      <trkpt lat="46.14656" lon="6.95965">
        <ele>1928</ele>
        <time>2000-01-01T17:25:25.000Z</time>
      </trkpt>
      <trkpt lat="46.14661" lon="6.95922">
        <ele>1928</ele>
        <time>2000-01-01T17:25:35.000Z</time>
      </trkpt>
      <trkpt lat="46.14671" lon="6.95841">
        <ele>1928</ele>
        <time>2000-01-01T17:25:45.000Z</time>
      </trkpt>
      <trkpt lat="46.14647" lon="6.95828">
        <ele>1928</ele>
        <time>2000-01-01T17:25:55.000Z</time>
      </trkpt>
      <trkpt lat="46.14619" lon="6.95813">
        <ele>1929</ele>
        <time>2000-01-01T17:26:05.000Z</time>
      </trkpt>
      <trkpt lat="46.1459" lon="6.95785">
        <ele>1929</ele>
        <time>2000-01-01T17:26:15.000Z</time>
      </trkpt>
      <trkpt lat="46.14561" lon="6.95758">
        <ele>1930</ele>
        <time>2000-01-01T17:26:25.000Z</time>
      </trkpt>
      <trkpt lat="46.14507" lon="6.95706">
        <ele>1930</ele>
        <time>2000-01-01T17:26:35.000Z</time>
      </trkpt>
      <trkpt lat="46.145" lon="6.95666">
        <ele>1930</ele>
        <time>2000-01-01T17:26:45.000Z</time>
      </trkpt>
      <trkpt lat="46.14489" lon="6.95605">
        <ele>1930</ele>
        <time>2000-01-01T17:26:55.000Z</time>
      </trkpt>
      <trkpt lat="46.14472" lon="6.95573">
        <ele>1927</ele>
        <time>2000-01-01T17:27:05.000Z</time>
      </trkpt>
      <trkpt lat="46.14446" lon="6.95525">
        <ele>1926</ele>
        <time>2000-01-01T17:27:15.000Z</time>
      </trkpt>
      <trkpt lat="46.14432" lon="6.9548">
        <ele>1926</ele>
        <time>2000-01-01T17:27:25.000Z</time>
      </trkpt>
      <trkpt lat="46.14419" lon="6.95436">
        <ele>1929</ele>
        <time>2000-01-01T17:27:35.000Z</time>
      </trkpt>
      <trkpt lat="46.14397" lon="6.95365">
        <ele>1933</ele>
        <time>2000-01-01T17:27:45.000Z</time>
      </trkpt>
      <trkpt lat="46.14401" lon="6.95354">
        <ele>1936.1</ele>
        <time>2000-01-01T17:27:55.000Z</time>
      </trkpt>
      <trkpt lat="46.1442" lon="6.95381">
        <ele>1938</ele>
        <time>2000-01-01T17:28:05.000Z</time>
      </trkpt>
      <trkpt lat="46.14439" lon="6.95384">
        <ele>1938</ele>
        <time>2000-01-01T17:28:15.000Z</time>
      </trkpt>
      <trkpt lat="46.14466" lon="6.95365">
        <ele>1943</ele>
        <time>2000-01-01T17:28:25.000Z</time>
      </trkpt>
      <trkpt lat="46.14517" lon="6.95329">
        <ele>1942</ele>
        <time>2000-01-01T17:28:35.000Z</time>
      </trkpt>
      <trkpt lat="46.14517" lon="6.95287">
        <ele>1942</ele>
        <time>2000-01-01T17:28:45.000Z</time>
      </trkpt>
      <trkpt lat="46.14517" lon="6.95218">
        <ele>1937</ele>
        <time>2000-01-01T17:28:55.000Z</time>
      </trkpt>
      <trkpt lat="46.1453" lon="6.95169">
        <ele>1935</ele>
        <time>2000-01-01T17:29:05.000Z</time>
      </trkpt>
      <trkpt lat="46.14543" lon="6.9512">
        <ele>1936</ele>
        <time>2000-01-01T17:29:15.000Z</time>
      </trkpt>
      <trkpt lat="46.14556" lon="6.95072">
        <ele>1937</ele>
        <time>2000-01-01T17:29:25.000Z</time>
      </trkpt>
      <trkpt lat="46.14575" lon="6.95001">
        <ele>1938</ele>
        <time>2000-01-01T17:29:35.000Z</time>
      </trkpt>
      <trkpt lat="46.14591" lon="6.94957">
        <ele>1938</ele>
        <time>2000-01-01T17:29:45.000Z</time>
      </trkpt>
      <trkpt lat="46.14608" lon="6.94913">
        <ele>1943</ele>
        <time>2000-01-01T17:29:55.000Z</time>
      </trkpt>
      <trkpt lat="46.14639" lon="6.94829">
        <ele>1947</ele>
        <time>2000-01-01T17:30:05.000Z</time>
      </trkpt>
      <trkpt lat="46.14674" lon="6.94804">
        <ele>1952</ele>
        <time>2000-01-01T17:30:15.000Z</time>
      </trkpt>
      <trkpt lat="46.14686" lon="6.94768">
        <ele>1954</ele>
        <time>2000-01-01T17:30:25.000Z</time>
      </trkpt>
      <trkpt lat="46.14702" lon="6.94717">
        <ele>1955</ele>
        <time>2000-01-01T17:30:35.000Z</time>
      </trkpt>
      <trkpt lat="46.14736" lon="6.94689">
        <ele>1962</ele>
        <time>2000-01-01T17:30:45.000Z</time>
      </trkpt>
      <trkpt lat="46.14751" lon="6.94658">
        <ele>1966</ele>
        <time>2000-01-01T17:30:55.000Z</time>
      </trkpt>
      <trkpt lat="46.14769" lon="6.94618">
        <ele>1970</ele>
        <time>2000-01-01T17:31:05.000Z</time>
      </trkpt>
      <trkpt lat="46.14774" lon="6.94569">
        <ele>1973</ele>
        <time>2000-01-01T17:31:15.000Z</time>
      </trkpt>
      <trkpt lat="46.14778" lon="6.94521">
        <ele>1976</ele>
        <time>2000-01-01T17:31:25.000Z</time>
      </trkpt>
      <trkpt lat="46.14786" lon="6.9444">
        <ele>1980</ele>
        <time>2000-01-01T17:31:35.000Z</time>
      </trkpt>
      <trkpt lat="46.14771" lon="6.94401">
        <ele>1985</ele>
        <time>2000-01-01T17:31:45.000Z</time>
      </trkpt>
      <trkpt lat="46.14755" lon="6.94361">
        <ele>1987</ele>
        <time>2000-01-01T17:31:55.000Z</time>
      </trkpt>
      <trkpt lat="46.14739" lon="6.9432">
        <ele>1996</ele>
        <time>2000-01-01T17:32:05.000Z</time>
      </trkpt>
      <trkpt lat="46.14736" lon="6.94275">
        <ele>2001</ele>
        <time>2000-01-01T17:32:15.000Z</time>
      </trkpt>
      <trkpt lat="46.14732" lon="6.9423">
        <ele>2008</ele>
        <time>2000-01-01T17:32:25.000Z</time>
      </trkpt>
      <trkpt lat="46.14729" lon="6.94182">
        <ele>2013</ele>
        <time>2000-01-01T17:32:35.000Z</time>
      </trkpt>
      <trkpt lat="46.14747" lon="6.94138">
        <ele>2018</ele>
        <time>2000-01-01T17:32:45.000Z</time>
      </trkpt>
      <trkpt lat="46.14765" lon="6.94093">
        <ele>2033</ele>
        <time>2000-01-01T17:32:55.000Z</time>
      </trkpt>
      <trkpt lat="46.14783" lon="6.94049">
        <ele>2049</ele>
        <time>2000-01-01T17:33:05.000Z</time>
      </trkpt>
      <trkpt lat="46.14805" lon="6.93994">
        <ele>2055</ele>
        <time>2000-01-01T17:33:15.000Z</time>
      </trkpt>
      <trkpt lat="46.14784" lon="6.93987">
        <ele>2055</ele>
        <time>2000-01-01T17:33:25.000Z</time>
      </trkpt>
      <trkpt lat="46.14771" lon="6.93955">
        <ele>2060</ele>
        <time>2000-01-01T17:33:35.000Z</time>
      </trkpt>
      <trkpt lat="46.14792" lon="6.93934">
        <ele>2066</ele>
        <time>2000-01-01T17:33:45.000Z</time>
      </trkpt>
      <trkpt lat="46.14782" lon="6.93893">
        <ele>2071</ele>
        <time>2000-01-01T17:33:55.000Z</time>
      </trkpt>
      <trkpt lat="46.14792" lon="6.93858">
        <ele>2076</ele>
        <time>2000-01-01T17:34:05.000Z</time>
      </trkpt>
      <trkpt lat="46.14804" lon="6.93814">
        <ele>2081</ele>
        <time>2000-01-01T17:34:15.000Z</time>
      </trkpt>
      <trkpt lat="46.148" lon="6.93762">
        <ele>2087</ele>
        <time>2000-01-01T17:34:25.000Z</time>
      </trkpt>
      <trkpt lat="46.14811" lon="6.93739">
        <ele>2117</ele>
        <time>2000-01-01T17:34:35.000Z</time>
      </trkpt>
      <trkpt lat="46.14848" lon="6.93732">
        <ele>2123</ele>
        <time>2000-01-01T17:34:45.000Z</time>
      </trkpt>
      <trkpt lat="46.14836" lon="6.937">
        <ele>2130</ele>
        <time>2000-01-01T17:34:55.000Z</time>
      </trkpt>
      <trkpt lat="46.14823" lon="6.93664">
        <ele>2134</ele>
        <time>2000-01-01T17:35:05.000Z</time>
      </trkpt>
      <trkpt lat="46.1485" lon="6.9367">
        <ele>2134</ele>
        <time>2000-01-01T17:35:15.000Z</time>
      </trkpt>
      <trkpt lat="46.14857" lon="6.93621">
        <ele>2158</ele>
        <time>2000-01-01T17:35:25.000Z</time>
      </trkpt>
      <trkpt lat="46.14864" lon="6.93573">
        <ele>2163</ele>
        <time>2000-01-01T17:35:35.000Z</time>
      </trkpt>
      <trkpt lat="46.14877" lon="6.93486">
        <ele>2174</ele>
        <time>2000-01-01T17:35:45.000Z</time>
      </trkpt>
      <trkpt lat="46.14891" lon="6.93455">
        <ele>2182</ele>
        <time>2000-01-01T17:35:55.000Z</time>
      </trkpt>
      <trkpt lat="46.14907" lon="6.93418">
        <ele>2193</ele>
        <time>2000-01-01T17:36:05.000Z</time>
      </trkpt>
      <trkpt lat="46.14883" lon="6.93399">
        <ele>2195</ele>
        <time>2000-01-01T17:36:15.000Z</time>
      </trkpt>
      <trkpt lat="46.14847" lon="6.9337">
        <ele>2197</ele>
        <time>2000-01-01T17:36:25.000Z</time>
      </trkpt>
      <trkpt lat="46.14843" lon="6.93315">
        <ele>2199</ele>
        <time>2000-01-01T17:36:35.000Z</time>
      </trkpt>
      <trkpt lat="46.14812" lon="6.93284">
        <ele>2201</ele>
        <time>2000-01-01T17:36:45.000Z</time>
      </trkpt>
      <trkpt lat="46.14812" lon="6.9325">
        <ele>2210</ele>
        <time>2000-01-01T17:36:55.000Z</time>
      </trkpt>
      <trkpt lat="46.14795" lon="6.93222">
        <ele>2220</ele>
        <time>2000-01-01T17:37:05.000Z</time>
      </trkpt>
      <trkpt lat="46.14773" lon="6.93186">
        <ele>2228</ele>
        <time>2000-01-01T17:37:15.000Z</time>
      </trkpt>
      <trkpt lat="46.14787" lon="6.93146">
        <ele>2232</ele>
        <time>2000-01-01T17:37:25.000Z</time>
      </trkpt>
      <trkpt lat="46.14785" lon="6.93112">
        <ele>2235</ele>
        <time>2000-01-01T17:37:35.000Z</time>
      </trkpt>
      <trkpt lat="46.14784" lon="6.93076">
        <ele>2238</ele>
        <time>2000-01-01T17:37:45.000Z</time>
      </trkpt>
      <trkpt lat="46.14773" lon="6.93045">
        <ele>2234</ele>
        <time>2000-01-01T17:37:55.000Z</time>
      </trkpt>
      <trkpt lat="46.14762" lon="6.93014">
        <ele>2230</ele>
        <time>2000-01-01T17:38:05.000Z</time>
      </trkpt>
      <trkpt lat="46.14765" lon="6.92971">
        <ele>2238</ele>
        <time>2000-01-01T17:38:15.000Z</time>
      </trkpt>
      <trkpt lat="46.1477" lon="6.92897">
        <ele>2246</ele>
        <time>2000-01-01T17:38:25.000Z</time>
      </trkpt>
      <trkpt lat="46.14782" lon="6.92858">
        <ele>2260</ele>
        <time>2000-01-01T17:38:35.000Z</time>
      </trkpt>
      <trkpt lat="46.14804" lon="6.9279">
        <ele>2261</ele>
        <time>2000-01-01T17:38:45.000Z</time>
      </trkpt>
      <trkpt lat="46.14806" lon="6.92738">
        <ele>2263</ele>
        <time>2000-01-01T17:38:55.000Z</time>
      </trkpt>
      <trkpt lat="46.14822" lon="6.92705">
        <ele>2285</ele>
        <time>2000-01-01T17:39:05.000Z</time>
      </trkpt>
      <trkpt lat="46.14844" lon="6.92659">
        <ele>2285</ele>
        <time>2000-01-01T17:39:15.000Z</time>
      </trkpt>
      <trkpt lat="46.14841" lon="6.92624">
        <ele>2286</ele>
        <time>2000-01-01T17:39:25.000Z</time>
      </trkpt>
      <trkpt lat="46.14837" lon="6.92584">
        <ele>2297</ele>
        <time>2000-01-01T17:39:35.000Z</time>
      </trkpt>
      <trkpt lat="46.14853" lon="6.92577">
        <ele>2311.4</ele>
        <time>2000-01-01T17:39:45.000Z</time>
      </trkpt>
      <trkpt lat="46.14877" lon="6.92434">
        <ele>2373</ele>
        <time>2000-01-01T17:39:55.000Z</time>
      </trkpt>
      <trkpt lat="46.14862" lon="6.92404">
        <ele>2386</ele>
        <time>2000-01-01T17:40:05.000Z</time>
      </trkpt>
      <trkpt lat="46.14843" lon="6.92366">
        <ele>2392</ele>
        <time>2000-01-01T17:40:15.000Z</time>
      </trkpt>
      <trkpt lat="46.14836" lon="6.92375">
        <ele>2378.1</ele>
        <time>2000-01-01T17:40:25.000Z</time>
      </trkpt>
      <trkpt lat="46.14821" lon="6.9236">
        <ele>2392</ele>
        <time>2000-01-01T17:40:35.000Z</time>
      </trkpt>
      <trkpt lat="46.14809" lon="6.92375">
        <ele>2385.1</ele>
        <time>2000-01-01T17:40:45.000Z</time>
      </trkpt>
      <trkpt lat="46.1479" lon="6.92359">
        <ele>2394</ele>
        <time>2000-01-01T17:40:55.000Z</time>
      </trkpt>
      <trkpt lat="46.14788" lon="6.92318">
        <ele>2406</ele>
        <time>2000-01-01T17:41:05.000Z</time>
      </trkpt>
      <trkpt lat="46.14785" lon="6.92256">
        <ele>2417</ele>
        <time>2000-01-01T17:41:15.000Z</time>
      </trkpt>
      <trkpt lat="46.14801" lon="6.92235">
        <ele>2442</ele>
        <time>2000-01-01T17:41:25.000Z</time>
      </trkpt>
      <trkpt lat="46.14801" lon="6.92176">
        <ele>2457</ele>
        <time>2000-01-01T17:41:35.000Z</time>
      </trkpt>
      <trkpt lat="46.14831" lon="6.92153">
        <ele>2475</ele>
        <time>2000-01-01T17:41:45.000Z</time>
      </trkpt>
      <trkpt lat="46.14861" lon="6.92131">
        <ele>2484</ele>
        <time>2000-01-01T17:41:55.000Z</time>
      </trkpt>
      <trkpt lat="46.14913" lon="6.92092">
        <ele>2491</ele>
        <time>2000-01-01T17:42:05.000Z</time>
      </trkpt>
      <trkpt lat="46.14917" lon="6.9207">
        <ele>2508.6</ele>
        <time>2000-01-01T17:42:15.000Z</time>
      </trkpt>
      <trkpt lat="46.14894" lon="6.92042">
        <ele>2489</ele>
        <time>2000-01-01T17:42:25.000Z</time>
      </trkpt>
      <trkpt lat="46.14886" lon="6.92051">
        <ele>2504.1</ele>
        <time>2000-01-01T17:42:35.000Z</time>
      </trkpt>
      <trkpt lat="46.14876" lon="6.92029">
        <ele>2489</ele>
        <time>2000-01-01T17:42:45.000Z</time>
      </trkpt>
      <trkpt lat="46.14845" lon="6.92012">
        <ele>2482</ele>
        <time>2000-01-01T17:42:55.000Z</time>
      </trkpt>
      <trkpt lat="46.14834" lon="6.91959">
        <ele>2475</ele>
        <time>2000-01-01T17:43:05.000Z</time>
      </trkpt>
      <trkpt lat="46.14846" lon="6.91896">
        <ele>2458</ele>
        <time>2000-01-01T17:43:15.000Z</time>
      </trkpt>
      <trkpt lat="46.14832" lon="6.91878">
        <ele>2451</ele>
        <time>2000-01-01T17:43:25.000Z</time>
      </trkpt>
      <trkpt lat="46.14843" lon="6.91847">
        <ele>2441</ele>
        <time>2000-01-01T17:43:35.000Z</time>
      </trkpt>
      <trkpt lat="46.14855" lon="6.91813">
        <ele>2434</ele>
        <time>2000-01-01T17:43:45.000Z</time>
      </trkpt>
      <trkpt lat="46.14887" lon="6.91793">
        <ele>2428</ele>
        <time>2000-01-01T17:43:55.000Z</time>
      </trkpt>
      <trkpt lat="46.14911" lon="6.91754">
        <ele>2428</ele>
        <time>2000-01-01T17:44:05.000Z</time>
      </trkpt>
      <trkpt lat="46.14892" lon="6.91705">
        <ele>2424</ele>
        <time>2000-01-01T17:44:15.000Z</time>
      </trkpt>
      <trkpt lat="46.14873" lon="6.91657">
        <ele>2414</ele>
        <time>2000-01-01T17:44:25.000Z</time>
      </trkpt>
      <trkpt lat="46.14854" lon="6.91608">
        <ele>2412</ele>
        <time>2000-01-01T17:44:35.000Z</time>
      </trkpt>
      <trkpt lat="46.14835" lon="6.91559">
        <ele>2406</ele>
        <time>2000-01-01T17:44:45.000Z</time>
      </trkpt>
      <trkpt lat="46.14801" lon="6.91471">
        <ele>2393</ele>
        <time>2000-01-01T17:44:55.000Z</time>
      </trkpt>
      <trkpt lat="46.14774" lon="6.91463">
        <ele>2370</ele>
        <time>2000-01-01T17:45:05.000Z</time>
      </trkpt>
      <trkpt lat="46.14734" lon="6.91451">
        <ele>2355</ele>
        <time>2000-01-01T17:45:15.000Z</time>
      </trkpt>
      <trkpt lat="46.14719" lon="6.91407">
        <ele>2357</ele>
        <time>2000-01-01T17:45:25.000Z</time>
      </trkpt>
      <trkpt lat="46.14704" lon="6.91363">
        <ele>2351</ele>
        <time>2000-01-01T17:45:35.000Z</time>
      </trkpt>
      <trkpt lat="46.1468" lon="6.91292">
        <ele>2345</ele>
        <time>2000-01-01T17:45:45.000Z</time>
      </trkpt>
      <trkpt lat="46.14661" lon="6.9126">
        <ele>2340</ele>
        <time>2000-01-01T17:45:55.000Z</time>
      </trkpt>
      <trkpt lat="46.14631" lon="6.91208">
        <ele>2330</ele>
        <time>2000-01-01T17:46:05.000Z</time>
      </trkpt>
      <trkpt lat="46.14623" lon="6.91168">
        <ele>2325</ele>
        <time>2000-01-01T17:46:15.000Z</time>
      </trkpt>
      <trkpt lat="46.14611" lon="6.91105">
        <ele>2314</ele>
        <time>2000-01-01T17:46:25.000Z</time>
      </trkpt>
      <trkpt lat="46.14591" lon="6.91059">
        <ele>2307</ele>
        <time>2000-01-01T17:46:35.000Z</time>
      </trkpt>
      <trkpt lat="46.14572" lon="6.91014">
        <ele>2306</ele>
        <time>2000-01-01T17:46:45.000Z</time>
      </trkpt>
      <trkpt lat="46.14552" lon="6.90968">
        <ele>2302</ele>
        <time>2000-01-01T17:46:55.000Z</time>
      </trkpt>
      <trkpt lat="46.14514" lon="6.90881">
        <ele>2286</ele>
        <time>2000-01-01T17:47:05.000Z</time>
      </trkpt>
      <trkpt lat="46.14488" lon="6.90847">
        <ele>2286</ele>
        <time>2000-01-01T17:47:15.000Z</time>
      </trkpt>
      <trkpt lat="46.14463" lon="6.90812">
        <ele>2281</ele>
        <time>2000-01-01T17:47:25.000Z</time>
      </trkpt>
      <trkpt lat="46.14437" lon="6.90778">
        <ele>2276</ele>
        <time>2000-01-01T17:47:35.000Z</time>
      </trkpt>
      <trkpt lat="46.14411" lon="6.90743">
        <ele>2276</ele>
        <time>2000-01-01T17:47:45.000Z</time>
      </trkpt>
      <trkpt lat="46.14404" lon="6.90692">
        <ele>2270</ele>
        <time>2000-01-01T17:47:55.000Z</time>
      </trkpt>
      <trkpt lat="46.14397" lon="6.90641">
        <ele>2265</ele>
        <time>2000-01-01T17:48:05.000Z</time>
      </trkpt>
      <trkpt lat="46.1439" lon="6.9059">
        <ele>2250</ele>
        <time>2000-01-01T17:48:15.000Z</time>
      </trkpt>
      <trkpt lat="46.1438" lon="6.90522">
        <ele>2245</ele>
        <time>2000-01-01T17:48:25.000Z</time>
      </trkpt>
      <trkpt lat="46.1436" lon="6.90498">
        <ele>2244</ele>
        <time>2000-01-01T17:48:35.000Z</time>
      </trkpt>
      <trkpt lat="46.14337" lon="6.9047">
        <ele>2239</ele>
        <time>2000-01-01T17:48:45.000Z</time>
      </trkpt>
      <trkpt lat="46.14317" lon="6.9043">
        <ele>2231</ele>
        <time>2000-01-01T17:48:55.000Z</time>
      </trkpt>
      <trkpt lat="46.14297" lon="6.9039">
        <ele>2224</ele>
        <time>2000-01-01T17:49:05.000Z</time>
      </trkpt>
      <trkpt lat="46.14264" lon="6.90322">
        <ele>2202</ele>
        <time>2000-01-01T17:49:15.000Z</time>
      </trkpt>
      <trkpt lat="46.14223" lon="6.90308">
        <ele>2192</ele>
        <time>2000-01-01T17:49:25.000Z</time>
      </trkpt>
      <trkpt lat="46.14207" lon="6.90267">
        <ele>2174</ele>
        <time>2000-01-01T17:49:35.000Z</time>
      </trkpt>
      <trkpt lat="46.14192" lon="6.90225">
        <ele>2165</ele>
        <time>2000-01-01T17:49:45.000Z</time>
      </trkpt>
      <trkpt lat="46.14171" lon="6.90171">
        <ele>2153</ele>
        <time>2000-01-01T17:49:55.000Z</time>
      </trkpt>
      <trkpt lat="46.1415" lon="6.90141">
        <ele>2152</ele>
        <time>2000-01-01T17:50:05.000Z</time>
      </trkpt>
      <trkpt lat="46.14113" lon="6.90088">
        <ele>2150</ele>
        <time>2000-01-01T17:50:15.000Z</time>
      </trkpt>
      <trkpt lat="46.14097" lon="6.90051">
        <ele>2144</ele>
        <time>2000-01-01T17:50:25.000Z</time>
      </trkpt>
      <trkpt lat="46.14068" lon="6.89984">
        <ele>2133</ele>
        <time>2000-01-01T17:50:35.000Z</time>
      </trkpt>
      <trkpt lat="46.14039" lon="6.89954">
        <ele>2126</ele>
        <time>2000-01-01T17:50:45.000Z</time>
      </trkpt>
      <trkpt lat="46.14011" lon="6.89924">
        <ele>2116</ele>
        <time>2000-01-01T17:50:55.000Z</time>
      </trkpt>
      <trkpt lat="46.13983" lon="6.89893">
        <ele>2108</ele>
        <time>2000-01-01T17:51:05.000Z</time>
      </trkpt>
      <trkpt lat="46.13951" lon="6.8986">
        <ele>2102</ele>
        <time>2000-01-01T17:51:15.000Z</time>
      </trkpt>
      <trkpt lat="46.13935" lon="6.89818">
        <ele>2093</ele>
        <time>2000-01-01T17:51:25.000Z</time>
      </trkpt>
      <trkpt lat="46.13941" lon="6.89761">
        <ele>2092</ele>
        <time>2000-01-01T17:51:35.000Z</time>
      </trkpt>
      <trkpt lat="46.13923" lon="6.89714">
        <ele>2092</ele>
        <time>2000-01-01T17:51:45.000Z</time>
      </trkpt>
      <trkpt lat="46.13905" lon="6.89668">
        <ele>2092</ele>
        <time>2000-01-01T17:51:55.000Z</time>
      </trkpt>
      <trkpt lat="46.13887" lon="6.89621">
        <ele>2085</ele>
        <time>2000-01-01T17:52:05.000Z</time>
      </trkpt>
      <trkpt lat="46.13855" lon="6.89538">
        <ele>2070</ele>
        <time>2000-01-01T17:52:15.000Z</time>
      </trkpt>
      <trkpt lat="46.13853" lon="6.89501">
        <ele>2066</ele>
        <time>2000-01-01T17:52:25.000Z</time>
      </trkpt>
      <trkpt lat="46.13851" lon="6.89457">
        <ele>2061</ele>
        <time>2000-01-01T17:52:35.000Z</time>
      </trkpt>
      <trkpt lat="46.13835" lon="6.89424">
        <ele>2054</ele>
        <time>2000-01-01T17:52:45.000Z</time>
      </trkpt>
      <trkpt lat="46.13809" lon="6.89419">
        <ele>2052</ele>
        <time>2000-01-01T17:52:55.000Z</time>
      </trkpt>
      <trkpt lat="46.13798" lon="6.8938">
        <ele>2041</ele>
        <time>2000-01-01T17:53:05.000Z</time>
      </trkpt>
      <trkpt lat="46.1378" lon="6.89318">
        <ele>2030</ele>
        <time>2000-01-01T17:53:15.000Z</time>
      </trkpt>
      <trkpt lat="46.13764" lon="6.89323">
        <ele>2023.7</ele>
        <time>2000-01-01T17:53:25.000Z</time>
      </trkpt>
      <trkpt lat="46.13756" lon="6.89298">
        <ele>2012</ele>
        <time>2000-01-01T17:53:35.000Z</time>
      </trkpt>
      <trkpt lat="46.13751" lon="6.89258">
        <ele>2008</ele>
        <time>2000-01-01T17:53:45.000Z</time>
      </trkpt>
      <trkpt lat="46.13743" lon="6.89195">
        <ele>2004</ele>
        <time>2000-01-01T17:53:55.000Z</time>
      </trkpt>
      <trkpt lat="46.1373" lon="6.8915">
        <ele>1991</ele>
        <time>2000-01-01T17:54:05.000Z</time>
      </trkpt>
      <trkpt lat="46.13718" lon="6.89105">
        <ele>1987</ele>
        <time>2000-01-01T17:54:15.000Z</time>
      </trkpt>
      <trkpt lat="46.13698" lon="6.89034">
        <ele>1981</ele>
        <time>2000-01-01T17:54:25.000Z</time>
      </trkpt>
      <trkpt lat="46.13692" lon="6.88988">
        <ele>1976</ele>
        <time>2000-01-01T17:54:35.000Z</time>
      </trkpt>
      <trkpt lat="46.13687" lon="6.88942">
        <ele>1971</ele>
        <time>2000-01-01T17:54:45.000Z</time>
      </trkpt>
      <trkpt lat="46.1368" lon="6.88886">
        <ele>1965</ele>
        <time>2000-01-01T17:54:55.000Z</time>
      </trkpt>
      <trkpt lat="46.13661" lon="6.88862">
        <ele>1964</ele>
        <time>2000-01-01T17:55:05.000Z</time>
      </trkpt>
      <trkpt lat="46.13638" lon="6.88835">
        <ele>1959</ele>
        <time>2000-01-01T17:55:15.000Z</time>
      </trkpt>
      <trkpt lat="46.13612" lon="6.88851">
        <ele>1954</ele>
        <time>2000-01-01T17:55:25.000Z</time>
      </trkpt>
      <trkpt lat="46.13572" lon="6.88875">
        <ele>1947</ele>
        <time>2000-01-01T17:55:35.000Z</time>
      </trkpt>
      <trkpt lat="46.13553" lon="6.88867">
        <ele>1938</ele>
        <time>2000-01-01T17:55:45.000Z</time>
      </trkpt>
      <trkpt lat="46.13541" lon="6.88827">
        <ele>1935</ele>
        <time>2000-01-01T17:55:55.000Z</time>
      </trkpt>
      <trkpt lat="46.13512" lon="6.88851">
        <ele>1933</ele>
        <time>2000-01-01T17:56:05.000Z</time>
      </trkpt>
      <trkpt lat="46.13471" lon="6.88853">
        <ele>1933</ele>
        <time>2000-01-01T17:56:15.000Z</time>
      </trkpt>
      <trkpt lat="46.1345" lon="6.88824">
        <ele>1933</ele>
        <time>2000-01-01T17:56:25.000Z</time>
      </trkpt>
      <trkpt lat="46.13416" lon="6.88775">
        <ele>1941</ele>
        <time>2000-01-01T17:56:35.000Z</time>
      </trkpt>
      <trkpt lat="46.13389" lon="6.88773">
        <ele>1954</ele>
        <time>2000-01-01T17:56:45.000Z</time>
      </trkpt>
      <trkpt lat="46.13379" lon="6.88787">
        <ele>1961.9</ele>
        <time>2000-01-01T17:56:55.000Z</time>
      </trkpt>
      <trkpt lat="46.13333" lon="6.88767">
        <ele>1966</ele>
        <time>2000-01-01T17:57:05.000Z</time>
      </trkpt>
      <trkpt lat="46.13325" lon="6.88729">
        <ele>1966</ele>
        <time>2000-01-01T17:57:15.000Z</time>
      </trkpt>
      <trkpt lat="46.13313" lon="6.88676">
        <ele>1967</ele>
        <time>2000-01-01T17:57:25.000Z</time>
      </trkpt>
      <trkpt lat="46.13286" lon="6.88625">
        <ele>1981</ele>
        <time>2000-01-01T17:57:35.000Z</time>
      </trkpt>
      <trkpt lat="46.13276" lon="6.88574">
        <ele>1989</ele>
        <time>2000-01-01T17:57:45.000Z</time>
      </trkpt>
      <trkpt lat="46.13266" lon="6.88524">
        <ele>2003</ele>
        <time>2000-01-01T17:57:55.000Z</time>
      </trkpt>
      <trkpt lat="46.13256" lon="6.88473">
        <ele>2018</ele>
        <time>2000-01-01T17:58:05.000Z</time>
      </trkpt>
      <trkpt lat="46.13241" lon="6.88394">
        <ele>2025</ele>
        <time>2000-01-01T17:58:15.000Z</time>
      </trkpt>
      <trkpt lat="46.13245" lon="6.88343">
        <ele>2026</ele>
        <time>2000-01-01T17:58:25.000Z</time>
      </trkpt>
      <trkpt lat="46.13232" lon="6.88311">
        <ele>2034</ele>
        <time>2000-01-01T17:58:35.000Z</time>
      </trkpt>
      <trkpt lat="46.13216" lon="6.88272">
        <ele>2034</ele>
        <time>2000-01-01T17:58:45.000Z</time>
      </trkpt>
      <trkpt lat="46.1321" lon="6.88285">
        <ele>2038.5</ele>
        <time>2000-01-01T17:58:55.000Z</time>
      </trkpt>
      <trkpt lat="46.13156" lon="6.88285">
        <ele>2046</ele>
        <time>2000-01-01T17:59:05.000Z</time>
      </trkpt>
      <trkpt lat="46.13163" lon="6.88328">
        <ele>2059</ele>
        <time>2000-01-01T17:59:15.000Z</time>
      </trkpt>
      <trkpt lat="46.13177" lon="6.88408">
        <ele>2065</ele>
        <time>2000-01-01T17:59:25.000Z</time>
      </trkpt>
      <trkpt lat="46.13157" lon="6.88464">
        <ele>2090</ele>
        <time>2000-01-01T17:59:35.000Z</time>
      </trkpt>
      <trkpt lat="46.13129" lon="6.88473">
        <ele>2093</ele>
        <time>2000-01-01T17:59:45.000Z</time>
      </trkpt>
      <trkpt lat="46.13142" lon="6.88508">
        <ele>2092</ele>
        <time>2000-01-01T17:59:55.000Z</time>
      </trkpt>
      <trkpt lat="46.13161" lon="6.8856">
        <ele>2100</ele>
        <time>2000-01-01T18:00:05.000Z</time>
      </trkpt>
      <trkpt lat="46.13153" lon="6.88611">
        <ele>2109</ele>
        <time>2000-01-01T18:00:15.000Z</time>
      </trkpt>
      <trkpt lat="46.1312" lon="6.88635">
        <ele>2120</ele>
        <time>2000-01-01T18:00:25.000Z</time>
      </trkpt>
      <trkpt lat="46.13101" lon="6.88624">
        <ele>2131</ele>
        <time>2000-01-01T18:00:35.000Z</time>
      </trkpt>
      <trkpt lat="46.13075" lon="6.88589">
        <ele>2137</ele>
        <time>2000-01-01T18:00:45.000Z</time>
      </trkpt>
      <trkpt lat="46.13073" lon="6.88552">
        <ele>2143</ele>
        <time>2000-01-01T18:00:55.000Z</time>
      </trkpt>
      <trkpt lat="46.1307" lon="6.88508">
        <ele>2142</ele>
        <time>2000-01-01T18:01:05.000Z</time>
      </trkpt>
      <trkpt lat="46.13054" lon="6.88471">
        <ele>2142</ele>
        <time>2000-01-01T18:01:15.000Z</time>
      </trkpt>
      <trkpt lat="46.13024" lon="6.88401">
        <ele>2140</ele>
        <time>2000-01-01T18:01:25.000Z</time>
      </trkpt>
      <trkpt lat="46.13021" lon="6.88359">
        <ele>2140</ele>
        <time>2000-01-01T18:01:35.000Z</time>
      </trkpt>
      <trkpt lat="46.13016" lon="6.88286">
        <ele>2140</ele>
        <time>2000-01-01T18:01:45.000Z</time>
      </trkpt>
      <trkpt lat="46.13002" lon="6.88244">
        <ele>2140</ele>
        <time>2000-01-01T18:01:55.000Z</time>
      </trkpt>
      <trkpt lat="46.12987" lon="6.88201">
        <ele>2160</ele>
        <time>2000-01-01T18:02:05.000Z</time>
      </trkpt>
      <trkpt lat="46.12968" lon="6.88145">
        <ele>2174</ele>
        <time>2000-01-01T18:02:15.000Z</time>
      </trkpt>
      <trkpt lat="46.12972" lon="6.88118">
        <ele>2177</ele>
        <time>2000-01-01T18:02:25.000Z</time>
      </trkpt>
      <trkpt lat="46.12951" lon="6.88101">
        <ele>2185</ele>
        <time>2000-01-01T18:02:35.000Z</time>
      </trkpt>
      <trkpt lat="46.1293" lon="6.88084">
        <ele>2189</ele>
        <time>2000-01-01T18:02:45.000Z</time>
      </trkpt>
      <trkpt lat="46.12911" lon="6.88104">
        <ele>2194</ele>
        <time>2000-01-01T18:02:55.000Z</time>
      </trkpt>
      <trkpt lat="46.12892" lon="6.88077">
        <ele>2208</ele>
        <time>2000-01-01T18:03:05.000Z</time>
      </trkpt>
      <trkpt lat="46.12865" lon="6.88039">
        <ele>2224</ele>
        <time>2000-01-01T18:03:15.000Z</time>
      </trkpt>
      <trkpt lat="46.12822" lon="6.88025">
        <ele>2239</ele>
        <time>2000-01-01T18:03:25.000Z</time>
      </trkpt>
      <trkpt lat="46.12812" lon="6.88047">
        <ele>2249.3</ele>
        <time>2000-01-01T18:03:35.000Z</time>
      </trkpt>
      <trkpt lat="46.12777" lon="6.88036">
        <ele>2268</ele>
        <time>2000-01-01T18:03:45.000Z</time>
      </trkpt>
      <trkpt lat="46.12761" lon="6.88001">
        <ele>2285</ele>
        <time>2000-01-01T18:03:55.000Z</time>
      </trkpt>
      <trkpt lat="46.12734" lon="6.87944">
        <ele>2311</ele>
        <time>2000-01-01T18:04:05.000Z</time>
      </trkpt>
      <trkpt lat="46.1273" lon="6.87895">
        <ele>2317</ele>
        <time>2000-01-01T18:04:15.000Z</time>
      </trkpt>
      <trkpt lat="46.12726" lon="6.87846">
        <ele>2334</ele>
        <time>2000-01-01T18:04:25.000Z</time>
      </trkpt>
      <trkpt lat="46.1272" lon="6.87762">
        <ele>2363</ele>
        <time>2000-01-01T18:04:35.000Z</time>
      </trkpt>
      <trkpt lat="46.12743" lon="6.87716">
        <ele>2368</ele>
        <time>2000-01-01T18:04:45.000Z</time>
      </trkpt>
      <trkpt lat="46.12772" lon="6.87715">
        <ele>2373</ele>
        <time>2000-01-01T18:04:55.000Z</time>
      </trkpt>
      <trkpt lat="46.12746" lon="6.8767">
        <ele>2396</ele>
        <time>2000-01-01T18:05:05.000Z</time>
      </trkpt>
      <trkpt lat="46.12734" lon="6.87698">
        <ele>2430</ele>
        <time>2000-01-01T18:05:15.000Z</time>
      </trkpt>
      <trkpt lat="46.12712" lon="6.87681">
        <ele>2434</ele>
        <time>2000-01-01T18:05:25.000Z</time>
      </trkpt>
      <trkpt lat="46.12682" lon="6.87681">
        <ele>2474</ele>
        <time>2000-01-01T18:05:35.000Z</time>
      </trkpt>
      <trkpt lat="46.1267" lon="6.87637">
        <ele>2476</ele>
        <time>2000-01-01T18:05:45.000Z</time>
      </trkpt>
      <trkpt lat="46.12659" lon="6.87657">
        <ele>2479.5</ele>
        <time>2000-01-01T18:05:55.000Z</time>
      </trkpt>
      <trkpt lat="46.12644" lon="6.87648">
        <ele>2489</ele>
        <time>2000-01-01T18:06:05.000Z</time>
      </trkpt>
      <trkpt lat="46.12615" lon="6.87663">
        <ele>2499</ele>
        <time>2000-01-01T18:06:15.000Z</time>
      </trkpt>
      <trkpt lat="46.12556" lon="6.87693">
        <ele>2507</ele>
        <time>2000-01-01T18:06:25.000Z</time>
      </trkpt>
      <trkpt lat="46.12539" lon="6.87682">
        <ele>2503.4</ele>
        <time>2000-01-01T18:06:35.000Z</time>
      </trkpt>
      <trkpt lat="46.12575" lon="6.8751">
        <ele>2532</ele>
        <time>2000-01-01T18:06:45.000Z</time>
      </trkpt>
      <trkpt lat="46.12575" lon="6.87457">
        <ele>2532</ele>
        <time>2000-01-01T18:06:55.000Z</time>
      </trkpt>
      <trkpt lat="46.12575" lon="6.87404">
        <ele>2530</ele>
        <time>2000-01-01T18:07:05.000Z</time>
      </trkpt>
      <trkpt lat="46.12575" lon="6.8735">
        <ele>2532</ele>
        <time>2000-01-01T18:07:15.000Z</time>
      </trkpt>
      <trkpt lat="46.12575" lon="6.87257">
        <ele>2532</ele>
        <time>2000-01-01T18:07:25.000Z</time>
      </trkpt>
      <trkpt lat="46.12571" lon="6.87211">
        <ele>2531</ele>
        <time>2000-01-01T18:07:35.000Z</time>
      </trkpt>
      <trkpt lat="46.12567" lon="6.87165">
        <ele>2530</ele>
        <time>2000-01-01T18:07:45.000Z</time>
      </trkpt>
      <trkpt lat="46.12562" lon="6.87111">
        <ele>2530</ele>
        <time>2000-01-01T18:07:55.000Z</time>
      </trkpt>
      <trkpt lat="46.1255" lon="6.87064">
        <ele>2531</ele>
        <time>2000-01-01T18:08:05.000Z</time>
      </trkpt>
      <trkpt lat="46.12538" lon="6.87017">
        <ele>2527</ele>
        <time>2000-01-01T18:08:15.000Z</time>
      </trkpt>
      <trkpt lat="46.12514" lon="6.86926">
        <ele>2523</ele>
        <time>2000-01-01T18:08:25.000Z</time>
      </trkpt>
      <trkpt lat="46.12519" lon="6.86885">
        <ele>2517</ele>
        <time>2000-01-01T18:08:35.000Z</time>
      </trkpt>
      <trkpt lat="46.12526" lon="6.8682">
        <ele>2504</ele>
        <time>2000-01-01T18:08:45.000Z</time>
      </trkpt>
      <trkpt lat="46.12549" lon="6.86772">
        <ele>2478</ele>
        <time>2000-01-01T18:08:55.000Z</time>
      </trkpt>
      <trkpt lat="46.12542" lon="6.86714">
        <ele>2458</ele>
        <time>2000-01-01T18:09:05.000Z</time>
      </trkpt>
      <trkpt lat="46.12553" lon="6.86684">
        <ele>2443</ele>
        <time>2000-01-01T18:09:15.000Z</time>
      </trkpt>
      <trkpt lat="46.12564" lon="6.86654">
        <ele>2441</ele>
        <time>2000-01-01T18:09:25.000Z</time>
      </trkpt>
      <trkpt lat="46.12568" lon="6.86604">
        <ele>2439</ele>
        <time>2000-01-01T18:09:35.000Z</time>
      </trkpt>
      <trkpt lat="46.12573" lon="6.86555">
        <ele>2438</ele>
        <time>2000-01-01T18:09:45.000Z</time>
      </trkpt>
      <trkpt lat="46.12581" lon="6.8646">
        <ele>2431</ele>
        <time>2000-01-01T18:09:55.000Z</time>
      </trkpt>
      <trkpt lat="46.12573" lon="6.86421">
        <ele>2417</ele>
        <time>2000-01-01T18:10:05.000Z</time>
      </trkpt>
      <trkpt lat="46.12592" lon="6.86374">
        <ele>2404</ele>
        <time>2000-01-01T18:10:15.000Z</time>
      </trkpt>
      <trkpt lat="46.12589" lon="6.86318">
        <ele>2393</ele>
        <time>2000-01-01T18:10:25.000Z</time>
      </trkpt>
      <trkpt lat="46.12587" lon="6.86262">
        <ele>2393</ele>
        <time>2000-01-01T18:10:35.000Z</time>
      </trkpt>
      <trkpt lat="46.12584" lon="6.86206">
        <ele>2393</ele>
        <time>2000-01-01T18:10:45.000Z</time>
      </trkpt>
      <trkpt lat="46.12582" lon="6.8615">
        <ele>2394</ele>
        <time>2000-01-01T18:10:55.000Z</time>
      </trkpt>
      <trkpt lat="46.12579" lon="6.86094">
        <ele>2394</ele>
        <time>2000-01-01T18:11:05.000Z</time>
      </trkpt>
      <trkpt lat="46.12577" lon="6.86037">
        <ele>2394</ele>
        <time>2000-01-01T18:11:15.000Z</time>
      </trkpt>
      <trkpt lat="46.12561" lon="6.85988">
        <ele>2386</ele>
        <time>2000-01-01T18:11:25.000Z</time>
      </trkpt>
      <trkpt lat="46.12545" lon="6.85938">
        <ele>2383</ele>
        <time>2000-01-01T18:11:35.000Z</time>
      </trkpt>
      <trkpt lat="46.12529" lon="6.85889">
        <ele>2380</ele>
        <time>2000-01-01T18:11:45.000Z</time>
      </trkpt>
      <trkpt lat="46.12513" lon="6.8584">
        <ele>2377</ele>
        <time>2000-01-01T18:11:55.000Z</time>
      </trkpt>
      <trkpt lat="46.12493" lon="6.85779">
        <ele>2376</ele>
        <time>2000-01-01T18:12:05.000Z</time>
      </trkpt>
      <trkpt lat="46.12473" lon="6.8575">
        <ele>2375</ele>
        <time>2000-01-01T18:12:15.000Z</time>
      </trkpt>
      <trkpt lat="46.12443" lon="6.85706">
        <ele>2370</ele>
        <time>2000-01-01T18:12:25.000Z</time>
      </trkpt>
      <trkpt lat="46.12413" lon="6.85676">
        <ele>2367</ele>
        <time>2000-01-01T18:12:35.000Z</time>
      </trkpt>
      <trkpt lat="46.12383" lon="6.85646">
        <ele>2363</ele>
        <time>2000-01-01T18:12:45.000Z</time>
      </trkpt>
      <trkpt lat="46.12354" lon="6.85615">
        <ele>2359</ele>
        <time>2000-01-01T18:12:55.000Z</time>
      </trkpt>
      <trkpt lat="46.12308" lon="6.85569">
        <ele>2342</ele>
        <time>2000-01-01T18:13:05.000Z</time>
      </trkpt>
      <trkpt lat="46.12303" lon="6.85514">
        <ele>2333</ele>
        <time>2000-01-01T18:13:15.000Z</time>
      </trkpt>
      <trkpt lat="46.12298" lon="6.8546">
        <ele>2325</ele>
        <time>2000-01-01T18:13:25.000Z</time>
      </trkpt>
      <trkpt lat="46.12293" lon="6.85405">
        <ele>2321</ele>
        <time>2000-01-01T18:13:35.000Z</time>
      </trkpt>
      <trkpt lat="46.12288" lon="6.8535">
        <ele>2321</ele>
        <time>2000-01-01T18:13:45.000Z</time>
      </trkpt>
      <trkpt lat="46.12281" lon="6.85267">
        <ele>2315</ele>
        <time>2000-01-01T18:13:55.000Z</time>
      </trkpt>
      <trkpt lat="46.12264" lon="6.85224">
        <ele>2314</ele>
        <time>2000-01-01T18:14:05.000Z</time>
      </trkpt>
      <trkpt lat="46.12246" lon="6.8518">
        <ele>2314</ele>
        <time>2000-01-01T18:14:15.000Z</time>
      </trkpt>
      <trkpt lat="46.12214" lon="6.85099">
        <ele>2311</ele>
        <time>2000-01-01T18:14:25.000Z</time>
      </trkpt>
      <trkpt lat="46.12192" lon="6.85068">
        <ele>2308</ele>
        <time>2000-01-01T18:14:35.000Z</time>
      </trkpt>
      <trkpt lat="46.12151" lon="6.85011">
        <ele>2304</ele>
        <time>2000-01-01T18:14:45.000Z</time>
      </trkpt>
      <trkpt lat="46.12138" lon="6.84978">
        <ele>2305</ele>
        <time>2000-01-01T18:14:55.000Z</time>
      </trkpt>
      <trkpt lat="46.1212" lon="6.84934">
        <ele>2300</ele>
        <time>2000-01-01T18:15:05.000Z</time>
      </trkpt>
      <trkpt lat="46.12091" lon="6.84913">
        <ele>2298</ele>
        <time>2000-01-01T18:15:15.000Z</time>
      </trkpt>
      <trkpt lat="46.12061" lon="6.84891">
        <ele>2298</ele>
        <time>2000-01-01T18:15:25.000Z</time>
      </trkpt>
      <trkpt lat="46.12021" lon="6.84862">
        <ele>2297</ele>
        <time>2000-01-01T18:15:35.000Z</time>
      </trkpt>
      <trkpt lat="46.11994" lon="6.84824">
        <ele>2297</ele>
        <time>2000-01-01T18:15:45.000Z</time>
      </trkpt>
      <trkpt lat="46.11967" lon="6.84786">
        <ele>2292</ele>
        <time>2000-01-01T18:15:55.000Z</time>
      </trkpt>
      <trkpt lat="46.1194" lon="6.84749">
        <ele>2292</ele>
        <time>2000-01-01T18:16:05.000Z</time>
      </trkpt>
      <trkpt lat="46.11912" lon="6.84711">
        <ele>2291</ele>
        <time>2000-01-01T18:16:15.000Z</time>
      </trkpt>
      <trkpt lat="46.1188" lon="6.84666">
        <ele>2291</ele>
        <time>2000-01-01T18:16:25.000Z</time>
      </trkpt>
      <trkpt lat="46.1185" lon="6.8466">
        <ele>2287</ele>
        <time>2000-01-01T18:16:35.000Z</time>
      </trkpt>
      <trkpt lat="46.11793" lon="6.84649">
        <ele>2283</ele>
        <time>2000-01-01T18:16:45.000Z</time>
      </trkpt>
      <trkpt lat="46.11787" lon="6.84611">
        <ele>2278</ele>
        <time>2000-01-01T18:16:55.000Z</time>
      </trkpt>
      <trkpt lat="46.11779" lon="6.84558">
        <ele>2266</ele>
        <time>2000-01-01T18:17:05.000Z</time>
      </trkpt>
      <trkpt lat="46.11765" lon="6.84521">
        <ele>2256</ele>
        <time>2000-01-01T18:17:15.000Z</time>
      </trkpt>
      <trkpt lat="46.11742" lon="6.84459">
        <ele>2238</ele>
        <time>2000-01-01T18:17:25.000Z</time>
      </trkpt>
      <trkpt lat="46.11724" lon="6.84425">
        <ele>2224</ele>
        <time>2000-01-01T18:17:35.000Z</time>
      </trkpt>
      <trkpt lat="46.11693" lon="6.84368">
        <ele>2206</ele>
        <time>2000-01-01T18:17:45.000Z</time>
      </trkpt>
      <trkpt lat="46.11679" lon="6.8436">
        <ele>2196.1</ele>
        <time>2000-01-01T18:17:55.000Z</time>
      </trkpt>
      <trkpt lat="46.11674" lon="6.84372">
        <ele>2199</ele>
        <time>2000-01-01T18:18:05.000Z</time>
      </trkpt>
      <trkpt lat="46.11676" lon="6.84332">
        <ele>2193</ele>
        <time>2000-01-01T18:18:15.000Z</time>
      </trkpt>
      <trkpt lat="46.11696" lon="6.84314">
        <ele>2181</ele>
        <time>2000-01-01T18:18:25.000Z</time>
      </trkpt>
      <trkpt lat="46.11716" lon="6.84296">
        <ele>2163</ele>
        <time>2000-01-01T18:18:35.000Z</time>
      </trkpt>
      <trkpt lat="46.11723" lon="6.84243">
        <ele>2148</ele>
        <time>2000-01-01T18:18:45.000Z</time>
      </trkpt>
      <trkpt lat="46.11731" lon="6.8419">
        <ele>2137</ele>
        <time>2000-01-01T18:18:55.000Z</time>
      </trkpt>
      <trkpt lat="46.11738" lon="6.84137">
        <ele>2131</ele>
        <time>2000-01-01T18:19:05.000Z</time>
      </trkpt>
      <trkpt lat="46.11746" lon="6.84085">
        <ele>2128</ele>
        <time>2000-01-01T18:19:15.000Z</time>
      </trkpt>
      <trkpt lat="46.11753" lon="6.84031">
        <ele>2121</ele>
        <time>2000-01-01T18:19:25.000Z</time>
      </trkpt>
      <trkpt lat="46.11737" lon="6.83995">
        <ele>2120</ele>
        <time>2000-01-01T18:19:35.000Z</time>
      </trkpt>
      <trkpt lat="46.11709" lon="6.83931">
        <ele>2106</ele>
        <time>2000-01-01T18:19:45.000Z</time>
      </trkpt>
      <trkpt lat="46.11724" lon="6.83894">
        <ele>2103</ele>
        <time>2000-01-01T18:19:55.000Z</time>
      </trkpt>
      <trkpt lat="46.11728" lon="6.8385">
        <ele>2098</ele>
        <time>2000-01-01T18:20:05.000Z</time>
      </trkpt>
      <trkpt lat="46.11735" lon="6.83762">
        <ele>2086</ele>
        <time>2000-01-01T18:20:15.000Z</time>
      </trkpt>
      <trkpt lat="46.11722" lon="6.83703">
        <ele>2069</ele>
        <time>2000-01-01T18:20:25.000Z</time>
      </trkpt>
      <trkpt lat="46.11745" lon="6.83666">
        <ele>2057</ele>
        <time>2000-01-01T18:20:35.000Z</time>
      </trkpt>
      <trkpt lat="46.11734" lon="6.83654">
        <ele>2059.4</ele>
        <time>2000-01-01T18:20:45.000Z</time>
      </trkpt>
      <trkpt lat="46.11739" lon="6.83614">
        <ele>2028</ele>
        <time>2000-01-01T18:20:55.000Z</time>
      </trkpt>
      <trkpt lat="46.11768" lon="6.83564">
        <ele>2025</ele>
        <time>2000-01-01T18:21:05.000Z</time>
      </trkpt>
      <trkpt lat="46.11762" lon="6.83521">
        <ele>2017</ele>
        <time>2000-01-01T18:21:15.000Z</time>
      </trkpt>
      <trkpt lat="46.11752" lon="6.83445">
        <ele>1997</ele>
        <time>2000-01-01T18:21:25.000Z</time>
      </trkpt>
      <trkpt lat="46.11725" lon="6.83445">
        <ele>1984</ele>
        <time>2000-01-01T18:21:35.000Z</time>
      </trkpt>
      <trkpt lat="46.11688" lon="6.83444">
        <ele>1974</ele>
        <time>2000-01-01T18:21:45.000Z</time>
      </trkpt>
      <trkpt lat="46.11659" lon="6.8343">
        <ele>1974</ele>
        <time>2000-01-01T18:21:55.000Z</time>
      </trkpt>
      <trkpt lat="46.11603" lon="6.83403">
        <ele>1971</ele>
        <time>2000-01-01T18:22:05.000Z</time>
      </trkpt>
      <trkpt lat="46.11579" lon="6.83403">
        <ele>1970</ele>
        <time>2000-01-01T18:22:15.000Z</time>
      </trkpt>
      <trkpt lat="46.11553" lon="6.83404">
        <ele>1970</ele>
        <time>2000-01-01T18:22:25.000Z</time>
      </trkpt>
      <trkpt lat="46.11512" lon="6.83384">
        <ele>1968</ele>
        <time>2000-01-01T18:22:35.000Z</time>
      </trkpt>
      <trkpt lat="46.11485" lon="6.83394">
        <ele>1973</ele>
        <time>2000-01-01T18:22:45.000Z</time>
      </trkpt>
      <trkpt lat="46.11447" lon="6.83409">
        <ele>1975</ele>
        <time>2000-01-01T18:22:55.000Z</time>
      </trkpt>
      <trkpt lat="46.11418" lon="6.83432">
        <ele>1975</ele>
        <time>2000-01-01T18:23:05.000Z</time>
      </trkpt>
      <trkpt lat="46.11389" lon="6.83455">
        <ele>1975</ele>
        <time>2000-01-01T18:23:15.000Z</time>
      </trkpt>
      <trkpt lat="46.11347" lon="6.83488">
        <ele>1973</ele>
        <time>2000-01-01T18:23:25.000Z</time>
      </trkpt>
      <trkpt lat="46.11329" lon="6.83514">
        <ele>1977</ele>
        <time>2000-01-01T18:23:35.000Z</time>
      </trkpt>
      <trkpt lat="46.11306" lon="6.83547">
        <ele>1981</ele>
        <time>2000-01-01T18:23:45.000Z</time>
      </trkpt>
      <trkpt lat="46.11283" lon="6.8356">
        <ele>1986</ele>
        <time>2000-01-01T18:23:55.000Z</time>
      </trkpt>
      <trkpt lat="46.11259" lon="6.83574">
        <ele>1989</ele>
        <time>2000-01-01T18:24:05.000Z</time>
      </trkpt>
      <trkpt lat="46.11242" lon="6.83614">
        <ele>1992</ele>
        <time>2000-01-01T18:24:15.000Z</time>
      </trkpt>
      <trkpt lat="46.11226" lon="6.83654">
        <ele>1972</ele>
        <time>2000-01-01T18:24:25.000Z</time>
      </trkpt>
      <trkpt lat="46.11205" lon="6.83704">
        <ele>1952</ele>
        <time>2000-01-01T18:24:35.000Z</time>
      </trkpt>
      <trkpt lat="46.11224" lon="6.83752">
        <ele>1929</ele>
        <time>2000-01-01T18:24:45.000Z</time>
      </trkpt>
      <trkpt lat="46.11231" lon="6.83761">
        <ele>1900.3</ele>
        <time>2000-01-01T18:24:55.000Z</time>
      </trkpt>
      <trkpt lat="46.1126" lon="6.83741">
        <ele>1921</ele>
        <time>2000-01-01T18:25:05.000Z</time>
      </trkpt>
      <trkpt lat="46.11247" lon="6.8371">
        <ele>1943</ele>
        <time>2000-01-01T18:25:15.000Z</time>
      </trkpt>
      <trkpt lat="46.11231" lon="6.83675">
        <ele>1966</ele>
        <time>2000-01-01T18:25:25.000Z</time>
      </trkpt>
      <trkpt lat="46.11241" lon="6.83639">
        <ele>1979</ele>
        <time>2000-01-01T18:25:35.000Z</time>
      </trkpt>
      <trkpt lat="46.11256" lon="6.83589">
        <ele>1982</ele>
        <time>2000-01-01T18:25:45.000Z</time>
      </trkpt>
      <trkpt lat="46.11285" lon="6.83556">
        <ele>1981</ele>
        <time>2000-01-01T18:25:55.000Z</time>
      </trkpt>
      <trkpt lat="46.11313" lon="6.83524">
        <ele>1981</ele>
        <time>2000-01-01T18:26:05.000Z</time>
      </trkpt>
      <trkpt lat="46.11342" lon="6.83491">
        <ele>1978</ele>
        <time>2000-01-01T18:26:15.000Z</time>
      </trkpt>
      <trkpt lat="46.11385" lon="6.83442">
        <ele>1980</ele>
        <time>2000-01-01T18:26:25.000Z</time>
      </trkpt>
      <trkpt lat="46.11386" lon="6.83396">
        <ele>1982</ele>
        <time>2000-01-01T18:26:35.000Z</time>
      </trkpt>
      <trkpt lat="46.11378" lon="6.83364">
        <ele>1999</ele>
        <time>2000-01-01T18:26:45.000Z</time>
      </trkpt>
      <trkpt lat="46.11369" lon="6.83331">
        <ele>2011</ele>
        <time>2000-01-01T18:26:55.000Z</time>
      </trkpt>
      <trkpt lat="46.11346" lon="6.83298">
        <ele>2056</ele>
        <time>2000-01-01T18:27:05.000Z</time>
      </trkpt>
      <trkpt lat="46.11323" lon="6.83264">
        <ele>2059</ele>
        <time>2000-01-01T18:27:15.000Z</time>
      </trkpt>
      <trkpt lat="46.11294" lon="6.83221">
        <ele>2107</ele>
        <time>2000-01-01T18:27:25.000Z</time>
      </trkpt>
      <trkpt lat="46.11282" lon="6.8319">
        <ele>2126</ele>
        <time>2000-01-01T18:27:35.000Z</time>
      </trkpt>
      <trkpt lat="46.11269" lon="6.83156">
        <ele>2125</ele>
        <time>2000-01-01T18:27:45.000Z</time>
      </trkpt>
      <trkpt lat="46.11254" lon="6.83172">
        <ele>2096.1</ele>
        <time>2000-01-01T18:27:55.000Z</time>
      </trkpt>
      <trkpt lat="46.11247" lon="6.83237">
        <ele>2127</ele>
        <time>2000-01-01T18:28:05.000Z</time>
      </trkpt>
      <trkpt lat="46.11219" lon="6.8327">
        <ele>2130</ele>
        <time>2000-01-01T18:28:15.000Z</time>
      </trkpt>
      <trkpt lat="46.11196" lon="6.83246">
        <ele>2145</ele>
        <time>2000-01-01T18:28:25.000Z</time>
      </trkpt>
      <trkpt lat="46.11198" lon="6.83206">
        <ele>2156</ele>
        <time>2000-01-01T18:28:35.000Z</time>
      </trkpt>
      <trkpt lat="46.11201" lon="6.8315">
        <ele>2160</ele>
        <time>2000-01-01T18:28:45.000Z</time>
      </trkpt>
      <trkpt lat="46.11215" lon="6.8312">
        <ele>2161</ele>
        <time>2000-01-01T18:28:55.000Z</time>
      </trkpt>
      <trkpt lat="46.11233" lon="6.83083">
        <ele>2171</ele>
        <time>2000-01-01T18:29:05.000Z</time>
      </trkpt>
      <trkpt lat="46.11238" lon="6.83041">
        <ele>2183</ele>
        <time>2000-01-01T18:29:15.000Z</time>
      </trkpt>
      <trkpt lat="46.11248" lon="6.82966">
        <ele>2184</ele>
        <time>2000-01-01T18:29:25.000Z</time>
      </trkpt>
      <trkpt lat="46.1123" lon="6.82907">
        <ele>2191</ele>
        <time>2000-01-01T18:29:35.000Z</time>
      </trkpt>
      <trkpt lat="46.11211" lon="6.82885">
        <ele>2191</ele>
        <time>2000-01-01T18:29:45.000Z</time>
      </trkpt>
      <trkpt lat="46.11192" lon="6.82863">
        <ele>2192</ele>
        <time>2000-01-01T18:29:55.000Z</time>
      </trkpt>
      <trkpt lat="46.11192" lon="6.82829">
        <ele>2193</ele>
        <time>2000-01-01T18:30:05.000Z</time>
      </trkpt>
      <trkpt lat="46.11192" lon="6.82793">
        <ele>2197</ele>
        <time>2000-01-01T18:30:15.000Z</time>
      </trkpt>
      <trkpt lat="46.11176" lon="6.8274">
        <ele>2197</ele>
        <time>2000-01-01T18:30:25.000Z</time>
      </trkpt>
      <trkpt lat="46.11162" lon="6.82697">
        <ele>2202</ele>
        <time>2000-01-01T18:30:35.000Z</time>
      </trkpt>
      <trkpt lat="46.11148" lon="6.82653">
        <ele>2213</ele>
        <time>2000-01-01T18:30:45.000Z</time>
      </trkpt>
      <trkpt lat="46.11127" lon="6.82591">
        <ele>2227</ele>
        <time>2000-01-01T18:30:55.000Z</time>
      </trkpt>
      <trkpt lat="46.11109" lon="6.82559">
        <ele>2235</ele>
        <time>2000-01-01T18:31:05.000Z</time>
      </trkpt>
      <trkpt lat="46.11083" lon="6.82511">
        <ele>2230</ele>
        <time>2000-01-01T18:31:15.000Z</time>
      </trkpt>
      <trkpt lat="46.11073" lon="6.8251">
        <ele>2225.8</ele>
        <time>2000-01-01T18:31:25.000Z</time>
      </trkpt>
      <trkpt lat="46.11067" lon="6.82567">
        <ele>2226</ele>
        <time>2000-01-01T18:31:35.000Z</time>
      </trkpt>
      <trkpt lat="46.11039" lon="6.82556">
        <ele>2246</ele>
        <time>2000-01-01T18:31:45.000Z</time>
      </trkpt>
      <trkpt lat="46.11057" lon="6.82495">
        <ele>2266</ele>
        <time>2000-01-01T18:31:55.000Z</time>
      </trkpt>
      <trkpt lat="46.11047" lon="6.82461">
        <ele>2274</ele>
        <time>2000-01-01T18:32:05.000Z</time>
      </trkpt>
      <trkpt lat="46.11057" lon="6.82412">
        <ele>2276</ele>
        <time>2000-01-01T18:32:15.000Z</time>
      </trkpt>
      <trkpt lat="46.11035" lon="6.82414">
        <ele>2278</ele>
        <time>2000-01-01T18:32:25.000Z</time>
      </trkpt>
      <trkpt lat="46.11041" lon="6.82354">
        <ele>2301</ele>
        <time>2000-01-01T18:32:35.000Z</time>
      </trkpt>
      <trkpt lat="46.1106" lon="6.82317">
        <ele>2344</ele>
        <time>2000-01-01T18:32:45.000Z</time>
      </trkpt>
      <trkpt lat="46.11045" lon="6.82283">
        <ele>2347</ele>
        <time>2000-01-01T18:32:55.000Z</time>
      </trkpt>
      <trkpt lat="46.11024" lon="6.82233">
        <ele>2347</ele>
        <time>2000-01-01T18:33:05.000Z</time>
      </trkpt>
      <trkpt lat="46.10997" lon="6.82241">
        <ele>2347</ele>
        <time>2000-01-01T18:33:15.000Z</time>
      </trkpt>
      <trkpt lat="46.10958" lon="6.82253">
        <ele>2346</ele>
        <time>2000-01-01T18:33:25.000Z</time>
      </trkpt>
      <trkpt lat="46.10944" lon="6.8228">
        <ele>2340</ele>
        <time>2000-01-01T18:33:35.000Z</time>
      </trkpt>
      <trkpt lat="46.10931" lon="6.82308">
        <ele>2340</ele>
        <time>2000-01-01T18:33:45.000Z</time>
      </trkpt>
      <trkpt lat="46.10916" lon="6.82315">
        <ele>2322.4</ele>
        <time>2000-01-01T18:33:55.000Z</time>
      </trkpt>
      <trkpt lat="46.10904" lon="6.82304">
        <ele>2341</ele>
        <time>2000-01-01T18:34:05.000Z</time>
      </trkpt>
      <trkpt lat="46.10881" lon="6.82317">
        <ele>2341</ele>
        <time>2000-01-01T18:34:15.000Z</time>
      </trkpt>
      <trkpt lat="46.10857" lon="6.82332">
        <ele>2332</ele>
        <time>2000-01-01T18:34:25.000Z</time>
      </trkpt>
      <trkpt lat="46.10837" lon="6.82372">
        <ele>2333</ele>
        <time>2000-01-01T18:34:35.000Z</time>
      </trkpt>
      <trkpt lat="46.10809" lon="6.82363">
        <ele>2332</ele>
        <time>2000-01-01T18:34:45.000Z</time>
      </trkpt>
      <trkpt lat="46.10762" lon="6.82348">
        <ele>2333</ele>
        <time>2000-01-01T18:34:55.000Z</time>
      </trkpt>
      <trkpt lat="46.10741" lon="6.82408">
        <ele>2335</ele>
        <time>2000-01-01T18:35:05.000Z</time>
      </trkpt>
      <trkpt lat="46.10701" lon="6.82441">
        <ele>2341</ele>
        <time>2000-01-01T18:35:15.000Z</time>
      </trkpt>
      <trkpt lat="46.10673" lon="6.82423">
        <ele>2347</ele>
        <time>2000-01-01T18:35:25.000Z</time>
      </trkpt>
      <trkpt lat="46.10623" lon="6.8239">
        <ele>2359</ele>
        <time>2000-01-01T18:35:35.000Z</time>
      </trkpt>
      <trkpt lat="46.10608" lon="6.82392">
        <ele>2358.4</ele>
        <time>2000-01-01T18:35:45.000Z</time>
      </trkpt>
      <trkpt lat="46.10565" lon="6.8245">
        <ele>2368</ele>
        <time>2000-01-01T18:35:55.000Z</time>
      </trkpt>
      <trkpt lat="46.10542" lon="6.82437">
        <ele>2374</ele>
        <time>2000-01-01T18:36:05.000Z</time>
      </trkpt>
      <trkpt lat="46.10517" lon="6.82422">
        <ele>2388</ele>
        <time>2000-01-01T18:36:15.000Z</time>
      </trkpt>
      <trkpt lat="46.10511" lon="6.82464">
        <ele>2397</ele>
        <time>2000-01-01T18:36:25.000Z</time>
      </trkpt>
      <trkpt lat="46.10502" lon="6.82537">
        <ele>2408</ele>
        <time>2000-01-01T18:36:35.000Z</time>
      </trkpt>
      <trkpt lat="46.10467" lon="6.82524">
        <ele>2427</ele>
        <time>2000-01-01T18:36:45.000Z</time>
      </trkpt>
      <trkpt lat="46.10453" lon="6.82564">
        <ele>2442</ele>
        <time>2000-01-01T18:36:55.000Z</time>
      </trkpt>
      <trkpt lat="46.10439" lon="6.82604">
        <ele>2459</ele>
        <time>2000-01-01T18:37:05.000Z</time>
      </trkpt>
      <trkpt lat="46.10424" lon="6.82645">
        <ele>2465</ele>
        <time>2000-01-01T18:37:15.000Z</time>
      </trkpt>
      <trkpt lat="46.10409" lon="6.82634">
        <ele>2463.8</ele>
        <time>2000-01-01T18:37:25.000Z</time>
      </trkpt>
      <trkpt lat="46.10408" lon="6.82652">
        <ele>2466</ele>
        <time>2000-01-01T18:37:35.000Z</time>
      </trkpt>
      <trkpt lat="46.10379" lon="6.82653">
        <ele>2465</ele>
        <time>2000-01-01T18:37:45.000Z</time>
      </trkpt>
      <trkpt lat="46.10363" lon="6.82624">
        <ele>2465</ele>
        <time>2000-01-01T18:37:55.000Z</time>
      </trkpt>
      <trkpt lat="46.10342" lon="6.82587">
        <ele>2462</ele>
        <time>2000-01-01T18:38:05.000Z</time>
      </trkpt>
      <trkpt lat="46.10344" lon="6.82559">
        <ele>2460</ele>
        <time>2000-01-01T18:38:15.000Z</time>
      </trkpt>
      <trkpt lat="46.10319" lon="6.82585">
        <ele>2439</ele>
        <time>2000-01-01T18:38:25.000Z</time>
      </trkpt>
      <trkpt lat="46.10286" lon="6.82585">
        <ele>2411</ele>
        <time>2000-01-01T18:38:35.000Z</time>
      </trkpt>
      <trkpt lat="46.10252" lon="6.82585">
        <ele>2383</ele>
        <time>2000-01-01T18:38:45.000Z</time>
      </trkpt>
      <trkpt lat="46.10203" lon="6.82585">
        <ele>2342</ele>
        <time>2000-01-01T18:38:55.000Z</time>
      </trkpt>
      <trkpt lat="46.10184" lon="6.82569">
        <ele>2323</ele>
        <time>2000-01-01T18:39:05.000Z</time>
      </trkpt>
      <trkpt lat="46.10178" lon="6.82528">
        <ele>2315</ele>
        <time>2000-01-01T18:39:15.000Z</time>
      </trkpt>
      <trkpt lat="46.10162" lon="6.82542">
        <ele>2315</ele>
        <time>2000-01-01T18:39:25.000Z</time>
      </trkpt>
      <trkpt lat="46.10124" lon="6.8253">
        <ele>2288</ele>
        <time>2000-01-01T18:39:35.000Z</time>
      </trkpt>
      <trkpt lat="46.1012" lon="6.82472">
        <ele>2273</ele>
        <time>2000-01-01T18:39:45.000Z</time>
      </trkpt>
      <trkpt lat="46.1008" lon="6.82496">
        <ele>2261</ele>
        <time>2000-01-01T18:39:55.000Z</time>
      </trkpt>
      <trkpt lat="46.10079" lon="6.82463">
        <ele>2255</ele>
        <time>2000-01-01T18:40:05.000Z</time>
      </trkpt>
      <trkpt lat="46.1005" lon="6.82432">
        <ele>2233</ele>
        <time>2000-01-01T18:40:15.000Z</time>
      </trkpt>
      <trkpt lat="46.10046" lon="6.82365">
        <ele>2209</ele>
        <time>2000-01-01T18:40:25.000Z</time>
      </trkpt>
      <trkpt lat="46.10026" lon="6.82372">
        <ele>2209</ele>
        <time>2000-01-01T18:40:35.000Z</time>
      </trkpt>
      <trkpt lat="46.10013" lon="6.82336">
        <ele>2189</ele>
        <time>2000-01-01T18:40:45.000Z</time>
      </trkpt>
      <trkpt lat="46.09977" lon="6.82354">
        <ele>2179</ele>
        <time>2000-01-01T18:40:55.000Z</time>
      </trkpt>
      <trkpt lat="46.09972" lon="6.82311">
        <ele>2163</ele>
        <time>2000-01-01T18:41:05.000Z</time>
      </trkpt>
      <trkpt lat="46.09964" lon="6.82234">
        <ele>2148</ele>
        <time>2000-01-01T18:41:15.000Z</time>
      </trkpt>
      <trkpt lat="46.09925" lon="6.82255">
        <ele>2111</ele>
        <time>2000-01-01T18:41:25.000Z</time>
      </trkpt>
      <trkpt lat="46.099" lon="6.82289">
        <ele>2105</ele>
        <time>2000-01-01T18:41:35.000Z</time>
      </trkpt>
      <trkpt lat="46.09875" lon="6.82322">
        <ele>2098</ele>
        <time>2000-01-01T18:41:45.000Z</time>
      </trkpt>
      <trkpt lat="46.09832" lon="6.8238">
        <ele>2098</ele>
        <time>2000-01-01T18:41:55.000Z</time>
      </trkpt>
      <trkpt lat="46.09808" lon="6.82372">
        <ele>2093</ele>
        <time>2000-01-01T18:42:05.000Z</time>
      </trkpt>
      <trkpt lat="46.09782" lon="6.82364">
        <ele>2089</ele>
        <time>2000-01-01T18:42:15.000Z</time>
      </trkpt>
      <trkpt lat="46.09762" lon="6.82328">
        <ele>2074</ele>
        <time>2000-01-01T18:42:25.000Z</time>
      </trkpt>
      <trkpt lat="46.09743" lon="6.82292">
        <ele>2055</ele>
        <time>2000-01-01T18:42:35.000Z</time>
      </trkpt>
      <trkpt lat="46.09721" lon="6.82252">
        <ele>2044</ele>
        <time>2000-01-01T18:42:45.000Z</time>
      </trkpt>
      <trkpt lat="46.09717" lon="6.82207">
        <ele>2042</ele>
        <time>2000-01-01T18:42:55.000Z</time>
      </trkpt>
      <trkpt lat="46.09712" lon="6.82162">
        <ele>2039</ele>
        <time>2000-01-01T18:43:05.000Z</time>
      </trkpt>
      <trkpt lat="46.09708" lon="6.82114">
        <ele>2024</ele>
        <time>2000-01-01T18:43:15.000Z</time>
      </trkpt>
      <trkpt lat="46.09674" lon="6.82093">
        <ele>2012</ele>
        <time>2000-01-01T18:43:25.000Z</time>
      </trkpt>
      <trkpt lat="46.09669" lon="6.82064">
        <ele>2003</ele>
        <time>2000-01-01T18:43:35.000Z</time>
      </trkpt>
      <trkpt lat="46.0964" lon="6.82058">
        <ele>1997</ele>
        <time>2000-01-01T18:43:45.000Z</time>
      </trkpt>
      <trkpt lat="46.0963" lon="6.82017">
        <ele>1970</ele>
        <time>2000-01-01T18:43:55.000Z</time>
      </trkpt>
      <trkpt lat="46.09612" lon="6.82009">
        <ele>1970</ele>
        <time>2000-01-01T18:44:05.000Z</time>
      </trkpt>
      <trkpt lat="46.09611" lon="6.81969">
        <ele>1963</ele>
        <time>2000-01-01T18:44:15.000Z</time>
      </trkpt>
      <trkpt lat="46.09596" lon="6.81978">
        <ele>1949.8</ele>
        <time>2000-01-01T18:44:25.000Z</time>
      </trkpt>
      <trkpt lat="46.09596" lon="6.81948">
        <ele>1946</ele>
        <time>2000-01-01T18:44:35.000Z</time>
      </trkpt>
      <trkpt lat="46.09568" lon="6.81916">
        <ele>1935</ele>
        <time>2000-01-01T18:44:45.000Z</time>
      </trkpt>
      <trkpt lat="46.09541" lon="6.81917">
        <ele>1933</ele>
        <time>2000-01-01T18:44:55.000Z</time>
      </trkpt>
      <trkpt lat="46.09506" lon="6.81918">
        <ele>1929</ele>
        <time>2000-01-01T18:45:05.000Z</time>
      </trkpt>
      <trkpt lat="46.09476" lon="6.81892">
        <ele>1916</ele>
        <time>2000-01-01T18:45:15.000Z</time>
      </trkpt>
      <trkpt lat="46.09448" lon="6.81886">
        <ele>1909</ele>
        <time>2000-01-01T18:45:25.000Z</time>
      </trkpt>
      <trkpt lat="46.09408" lon="6.81877">
        <ele>1897</ele>
        <time>2000-01-01T18:45:35.000Z</time>
      </trkpt>
      <trkpt lat="46.09376" lon="6.81926">
        <ele>1886</ele>
        <time>2000-01-01T18:45:45.000Z</time>
      </trkpt>
      <trkpt lat="46.0935" lon="6.81938">
        <ele>1878</ele>
        <time>2000-01-01T18:45:55.000Z</time>
      </trkpt>
      <trkpt lat="46.09313" lon="6.81954">
        <ele>1877</ele>
        <time>2000-01-01T18:46:05.000Z</time>
      </trkpt>
      <trkpt lat="46.09295" lon="6.81992">
        <ele>1877</ele>
        <time>2000-01-01T18:46:15.000Z</time>
      </trkpt>
      <trkpt lat="46.09254" lon="6.82007">
        <ele>1866</ele>
        <time>2000-01-01T18:46:25.000Z</time>
      </trkpt>
      <trkpt lat="46.09214" lon="6.81992">
        <ele>1865</ele>
        <time>2000-01-01T18:46:35.000Z</time>
      </trkpt>
      <trkpt lat="46.09192" lon="6.81968">
        <ele>1860</ele>
        <time>2000-01-01T18:46:45.000Z</time>
      </trkpt>
      <trkpt lat="46.0916" lon="6.81932">
        <ele>1850</ele>
        <time>2000-01-01T18:46:55.000Z</time>
      </trkpt>
      <trkpt lat="46.09183" lon="6.81924">
        <ele>1850</ele>
        <time>2000-01-01T18:47:05.000Z</time>
      </trkpt>
      <trkpt lat="46.09206" lon="6.81915">
        <ele>1842</ele>
        <time>2000-01-01T18:47:15.000Z</time>
      </trkpt>
      <trkpt lat="46.09174" lon="6.81879">
        <ele>1831</ele>
        <time>2000-01-01T18:47:25.000Z</time>
      </trkpt>
      <trkpt lat="46.09192" lon="6.81859">
        <ele>1820</ele>
        <time>2000-01-01T18:47:35.000Z</time>
      </trkpt>
      <trkpt lat="46.09179" lon="6.8183">
        <ele>1813</ele>
        <time>2000-01-01T18:47:45.000Z</time>
      </trkpt>
      <trkpt lat="46.09197" lon="6.81816">
        <ele>1804</ele>
        <time>2000-01-01T18:47:55.000Z</time>
      </trkpt>
      <trkpt lat="46.09174" lon="6.81791">
        <ele>1797</ele>
        <time>2000-01-01T18:48:05.000Z</time>
      </trkpt>
      <trkpt lat="46.09136" lon="6.81752">
        <ele>1793</ele>
        <time>2000-01-01T18:48:15.000Z</time>
      </trkpt>
      <trkpt lat="46.09124" lon="6.81708">
        <ele>1785</ele>
        <time>2000-01-01T18:48:25.000Z</time>
      </trkpt>
      <trkpt lat="46.09138" lon="6.81674">
        <ele>1782</ele>
        <time>2000-01-01T18:48:35.000Z</time>
      </trkpt>
      <trkpt lat="46.09123" lon="6.81656">
        <ele>1772</ele>
        <time>2000-01-01T18:48:45.000Z</time>
      </trkpt>
      <trkpt lat="46.09118" lon="6.81614">
        <ele>1763</ele>
        <time>2000-01-01T18:48:55.000Z</time>
      </trkpt>
      <trkpt lat="46.09109" lon="6.81539">
        <ele>1750</ele>
        <time>2000-01-01T18:49:05.000Z</time>
      </trkpt>
      <trkpt lat="46.0909" lon="6.81518">
        <ele>1747</ele>
        <time>2000-01-01T18:49:15.000Z</time>
      </trkpt>
      <trkpt lat="46.09071" lon="6.81497">
        <ele>1747</ele>
        <time>2000-01-01T18:49:25.000Z</time>
      </trkpt>
      <trkpt lat="46.09087" lon="6.81455">
        <ele>1744</ele>
        <time>2000-01-01T18:49:35.000Z</time>
      </trkpt>
      <trkpt lat="46.09074" lon="6.81413">
        <ele>1744</ele>
        <time>2000-01-01T18:49:45.000Z</time>
      </trkpt>
      <trkpt lat="46.09061" lon="6.81371">
        <ele>1746</ele>
        <time>2000-01-01T18:49:55.000Z</time>
      </trkpt>
      <trkpt lat="46.09047" lon="6.81323">
        <ele>1746</ele>
        <time>2000-01-01T18:50:05.000Z</time>
      </trkpt>
      <trkpt lat="46.09045" lon="6.81276">
        <ele>1743</ele>
        <time>2000-01-01T18:50:15.000Z</time>
      </trkpt>
      <trkpt lat="46.09043" lon="6.81228">
        <ele>1736</ele>
        <time>2000-01-01T18:50:25.000Z</time>
      </trkpt>
      <trkpt lat="46.09041" lon="6.81164">
        <ele>1736</ele>
        <time>2000-01-01T18:50:35.000Z</time>
      </trkpt>
      <trkpt lat="46.09031" lon="6.8112">
        <ele>1733</ele>
        <time>2000-01-01T18:50:45.000Z</time>
      </trkpt>
      <trkpt lat="46.0902" lon="6.81076">
        <ele>1731</ele>
        <time>2000-01-01T18:50:55.000Z</time>
      </trkpt>
      <trkpt lat="46.09007" lon="6.8102">
        <ele>1729</ele>
        <time>2000-01-01T18:51:05.000Z</time>
      </trkpt>
      <trkpt lat="46.08986" lon="6.80976">
        <ele>1729</ele>
        <time>2000-01-01T18:51:15.000Z</time>
      </trkpt>
      <trkpt lat="46.08964" lon="6.80932">
        <ele>1729</ele>
        <time>2000-01-01T18:51:25.000Z</time>
      </trkpt>
      <trkpt lat="46.08943" lon="6.80889">
        <ele>1729</ele>
        <time>2000-01-01T18:51:35.000Z</time>
      </trkpt>
      <trkpt lat="46.08904" lon="6.80808">
        <ele>1728</ele>
        <time>2000-01-01T18:51:45.000Z</time>
      </trkpt>
      <trkpt lat="46.08895" lon="6.80768">
        <ele>1727</ele>
        <time>2000-01-01T18:51:55.000Z</time>
      </trkpt>
      <trkpt lat="46.08881" lon="6.80703">
        <ele>1724</ele>
        <time>2000-01-01T18:52:05.000Z</time>
      </trkpt>
      <trkpt lat="46.08865" lon="6.80663">
        <ele>1724</ele>
        <time>2000-01-01T18:52:15.000Z</time>
      </trkpt>
      <trkpt lat="46.08849" lon="6.80624">
        <ele>1724</ele>
        <time>2000-01-01T18:52:25.000Z</time>
      </trkpt>
      <trkpt lat="46.08832" lon="6.8058">
        <ele>1724</ele>
        <time>2000-01-01T18:52:35.000Z</time>
      </trkpt>
      <trkpt lat="46.08831" lon="6.80543">
        <ele>1723</ele>
        <time>2000-01-01T18:52:45.000Z</time>
      </trkpt>
      <trkpt lat="46.08829" lon="6.80496">
        <ele>1722</ele>
        <time>2000-01-01T18:52:55.000Z</time>
      </trkpt>
      <trkpt lat="46.08808" lon="6.80447">
        <ele>1722</ele>
        <time>2000-01-01T18:53:05.000Z</time>
      </trkpt>
      <trkpt lat="46.08804" lon="6.80409">
        <ele>1722</ele>
        <time>2000-01-01T18:53:15.000Z</time>
      </trkpt>
      <trkpt lat="46.088" lon="6.8036">
        <ele>1721</ele>
        <time>2000-01-01T18:53:25.000Z</time>
      </trkpt>
      <trkpt lat="46.08782" lon="6.80348">
        <ele>1720</ele>
        <time>2000-01-01T18:53:35.000Z</time>
      </trkpt>
      <trkpt lat="46.08777" lon="6.80286">
        <ele>1711</ele>
        <time>2000-01-01T18:53:45.000Z</time>
      </trkpt>
      <trkpt lat="46.08762" lon="6.80252">
        <ele>1711</ele>
        <time>2000-01-01T18:53:55.000Z</time>
      </trkpt>
      <trkpt lat="46.0874" lon="6.802">
        <ele>1710</ele>
        <time>2000-01-01T18:54:05.000Z</time>
      </trkpt>
      <trkpt lat="46.08714" lon="6.80194">
        <ele>1705</ele>
        <time>2000-01-01T18:54:15.000Z</time>
      </trkpt>
      <trkpt lat="46.08682" lon="6.80187">
        <ele>1702</ele>
        <time>2000-01-01T18:54:25.000Z</time>
      </trkpt>
      <trkpt lat="46.0864" lon="6.802">
        <ele>1702</ele>
        <time>2000-01-01T18:54:35.000Z</time>
      </trkpt>
      <trkpt lat="46.08617" lon="6.80191">
        <ele>1699</ele>
        <time>2000-01-01T18:54:45.000Z</time>
      </trkpt>
      <trkpt lat="46.08591" lon="6.80181">
        <ele>1698</ele>
        <time>2000-01-01T18:54:55.000Z</time>
      </trkpt>
      <trkpt lat="46.0856" lon="6.80217">
        <ele>1698</ele>
        <time>2000-01-01T18:55:05.000Z</time>
      </trkpt>
      <trkpt lat="46.08528" lon="6.80227">
        <ele>1685</ele>
        <time>2000-01-01T18:55:15.000Z</time>
      </trkpt>
      <trkpt lat="46.08518" lon="6.80252">
        <ele>1680</ele>
        <time>2000-01-01T18:55:25.000Z</time>
      </trkpt>
      <trkpt lat="46.08487" lon="6.80271">
        <ele>1679</ele>
        <time>2000-01-01T18:55:35.000Z</time>
      </trkpt>
      <trkpt lat="46.08456" lon="6.8029">
        <ele>1676</ele>
        <time>2000-01-01T18:55:45.000Z</time>
      </trkpt>
      <trkpt lat="46.08404" lon="6.80322">
        <ele>1675</ele>
        <time>2000-01-01T18:55:55.000Z</time>
      </trkpt>
      <trkpt lat="46.08379" lon="6.80332">
        <ele>1675</ele>
        <time>2000-01-01T18:56:05.000Z</time>
      </trkpt>
      <trkpt lat="46.0835" lon="6.80345">
        <ele>1675</ele>
        <time>2000-01-01T18:56:15.000Z</time>
      </trkpt>
      <trkpt lat="46.08323" lon="6.80334">
        <ele>1669</ele>
        <time>2000-01-01T18:56:25.000Z</time>
      </trkpt>
      <trkpt lat="46.08281" lon="6.80316">
        <ele>1646</ele>
        <time>2000-01-01T18:56:35.000Z</time>
      </trkpt>
      <trkpt lat="46.08259" lon="6.80339">
        <ele>1645</ele>
        <time>2000-01-01T18:56:45.000Z</time>
      </trkpt>
      <trkpt lat="46.08228" lon="6.80372">
        <ele>1641</ele>
        <time>2000-01-01T18:56:55.000Z</time>
      </trkpt>
      <trkpt lat="46.08188" lon="6.80367">
        <ele>1632</ele>
        <time>2000-01-01T18:57:05.000Z</time>
      </trkpt>
      <trkpt lat="46.08161" lon="6.80375">
        <ele>1632</ele>
        <time>2000-01-01T18:57:15.000Z</time>
      </trkpt>
      <trkpt lat="46.08123" lon="6.80387">
        <ele>1626</ele>
        <time>2000-01-01T18:57:25.000Z</time>
      </trkpt>
      <trkpt lat="46.08107" lon="6.80414">
        <ele>1621</ele>
        <time>2000-01-01T18:57:35.000Z</time>
      </trkpt>
      <trkpt lat="46.0809" lon="6.80444">
        <ele>1612</ele>
        <time>2000-01-01T18:57:45.000Z</time>
      </trkpt>
      <trkpt lat="46.08065" lon="6.80451">
        <ele>1605</ele>
        <time>2000-01-01T18:57:55.000Z</time>
      </trkpt>
      <trkpt lat="46.08046" lon="6.80396">
        <ele>1597</ele>
        <time>2000-01-01T18:58:05.000Z</time>
      </trkpt>
      <trkpt lat="46.08024" lon="6.80375">
        <ele>1592</ele>
        <time>2000-01-01T18:58:15.000Z</time>
      </trkpt>
      <trkpt lat="46.07994" lon="6.80346">
        <ele>1574</ele>
        <time>2000-01-01T18:58:25.000Z</time>
      </trkpt>
      <trkpt lat="46.07968" lon="6.80362">
        <ele>1569</ele>
        <time>2000-01-01T18:58:35.000Z</time>
      </trkpt>
      <trkpt lat="46.07943" lon="6.80357">
        <ele>1567</ele>
        <time>2000-01-01T18:58:45.000Z</time>
      </trkpt>
      <trkpt lat="46.07913" lon="6.80351">
        <ele>1565</ele>
        <time>2000-01-01T18:58:55.000Z</time>
      </trkpt>
      <trkpt lat="46.07904" lon="6.80374">
        <ele>1556.4</ele>
        <time>2000-01-01T18:59:05.000Z</time>
      </trkpt>
      <trkpt lat="46.07847" lon="6.80317">
        <ele>1538</ele>
        <time>2000-01-01T18:59:15.000Z</time>
      </trkpt>
      <trkpt lat="46.07814" lon="6.80316">
        <ele>1536</ele>
        <time>2000-01-01T18:59:25.000Z</time>
      </trkpt>
      <trkpt lat="46.07803" lon="6.80296">
        <ele>1524.1</ele>
        <time>2000-01-01T18:59:35.000Z</time>
      </trkpt>
      <trkpt lat="46.07823" lon="6.80254">
        <ele>1534</ele>
        <time>2000-01-01T18:59:45.000Z</time>
      </trkpt>
      <trkpt lat="46.07796" lon="6.8024">
        <ele>1519</ele>
        <time>2000-01-01T18:59:55.000Z</time>
      </trkpt>
      <trkpt lat="46.07753" lon="6.80219">
        <ele>1507</ele>
        <time>2000-01-01T19:00:05.000Z</time>
      </trkpt>
      <trkpt lat="46.07725" lon="6.80178">
        <ele>1493</ele>
        <time>2000-01-01T19:00:15.000Z</time>
      </trkpt>
      <trkpt lat="46.07699" lon="6.80158">
        <ele>1481</ele>
        <time>2000-01-01T19:00:25.000Z</time>
      </trkpt>
      <trkpt lat="46.07657" lon="6.80126">
        <ele>1470</ele>
        <time>2000-01-01T19:00:35.000Z</time>
      </trkpt>
      <trkpt lat="46.07664" lon="6.80093">
        <ele>1462</ele>
        <time>2000-01-01T19:00:45.000Z</time>
      </trkpt>
      <trkpt lat="46.07689" lon="6.80087">
        <ele>1462</ele>
        <time>2000-01-01T19:00:55.000Z</time>
      </trkpt>
      <trkpt lat="46.07711" lon="6.80036">
        <ele>1457</ele>
        <time>2000-01-01T19:01:05.000Z</time>
      </trkpt>
      <trkpt lat="46.07685" lon="6.80041">
        <ele>1452</ele>
        <time>2000-01-01T19:01:15.000Z</time>
      </trkpt>
      <trkpt lat="46.07653" lon="6.80048">
        <ele>1444</ele>
        <time>2000-01-01T19:01:25.000Z</time>
      </trkpt>
      <trkpt lat="46.07622" lon="6.80041">
        <ele>1442</ele>
        <time>2000-01-01T19:01:35.000Z</time>
      </trkpt>
      <trkpt lat="46.07591" lon="6.80035">
        <ele>1441</ele>
        <time>2000-01-01T19:01:45.000Z</time>
      </trkpt>
      <trkpt lat="46.0756" lon="6.80028">
        <ele>1440</ele>
        <time>2000-01-01T19:01:55.000Z</time>
      </trkpt>
      <trkpt lat="46.07533" lon="6.80012">
        <ele>1429</ele>
        <time>2000-01-01T19:02:05.000Z</time>
      </trkpt>
      <trkpt lat="46.07487" lon="6.79984">
        <ele>1419</ele>
        <time>2000-01-01T19:02:15.000Z</time>
      </trkpt>
      <trkpt lat="46.07467" lon="6.80002">
        <ele>1409</ele>
        <time>2000-01-01T19:02:25.000Z</time>
      </trkpt>
      <trkpt lat="46.07437" lon="6.7999">
        <ele>1400</ele>
        <time>2000-01-01T19:02:35.000Z</time>
      </trkpt>
      <trkpt lat="46.07381" lon="6.79968">
        <ele>1393</ele>
        <time>2000-01-01T19:02:45.000Z</time>
      </trkpt>
      <trkpt lat="46.07353" lon="6.79965">
        <ele>1384</ele>
        <time>2000-01-01T19:02:55.000Z</time>
      </trkpt>
      <trkpt lat="46.0731" lon="6.7996">
        <ele>1362</ele>
        <time>2000-01-01T19:03:05.000Z</time>
      </trkpt>
      <trkpt lat="46.07289" lon="6.79945">
        <ele>1346</ele>
        <time>2000-01-01T19:03:15.000Z</time>
      </trkpt>
      <trkpt lat="46.07268" lon="6.7993">
        <ele>1331</ele>
        <time>2000-01-01T19:03:25.000Z</time>
      </trkpt>
      <trkpt lat="46.07269" lon="6.79892">
        <ele>1330</ele>
        <time>2000-01-01T19:03:35.000Z</time>
      </trkpt>
      <trkpt lat="46.0727" lon="6.79844">
        <ele>1325</ele>
        <time>2000-01-01T19:03:45.000Z</time>
      </trkpt>
      <trkpt lat="46.07304" lon="6.79806">
        <ele>1321</ele>
        <time>2000-01-01T19:03:55.000Z</time>
      </trkpt>
      <trkpt lat="46.07312" lon="6.79771">
        <ele>1315</ele>
        <time>2000-01-01T19:04:05.000Z</time>
      </trkpt>
      <trkpt lat="46.07302" lon="6.7972">
        <ele>1312</ele>
        <time>2000-01-01T19:04:15.000Z</time>
      </trkpt>
      <trkpt lat="46.07315" lon="6.79688">
        <ele>1309</ele>
        <time>2000-01-01T19:04:25.000Z</time>
      </trkpt>
      <trkpt lat="46.073" lon="6.79653">
        <ele>1307</ele>
        <time>2000-01-01T19:04:35.000Z</time>
      </trkpt>
      <trkpt lat="46.07278" lon="6.79599">
        <ele>1304</ele>
        <time>2000-01-01T19:04:45.000Z</time>
      </trkpt>
      <trkpt lat="46.07286" lon="6.7955">
        <ele>1301</ele>
        <time>2000-01-01T19:04:55.000Z</time>
      </trkpt>
      <trkpt lat="46.07263" lon="6.79542">
        <ele>1294</ele>
        <time>2000-01-01T19:05:05.000Z</time>
      </trkpt>
      <trkpt lat="46.07238" lon="6.79534">
        <ele>1280</ele>
        <time>2000-01-01T19:05:15.000Z</time>
      </trkpt>
      <trkpt lat="46.07215" lon="6.79495">
        <ele>1280</ele>
        <time>2000-01-01T19:05:25.000Z</time>
      </trkpt>
      <trkpt lat="46.07232" lon="6.79546">
        <ele>1280</ele>
        <time>2000-01-01T19:05:35.000Z</time>
      </trkpt>
      <trkpt lat="46.07205" lon="6.79541">
        <ele>1267</ele>
        <time>2000-01-01T19:05:45.000Z</time>
      </trkpt>
      <trkpt lat="46.07169" lon="6.79534">
        <ele>1254</ele>
        <time>2000-01-01T19:05:55.000Z</time>
      </trkpt>
      <trkpt lat="46.07138" lon="6.79484">
        <ele>1250</ele>
        <time>2000-01-01T19:06:05.000Z</time>
      </trkpt>
      <trkpt lat="46.07115" lon="6.79464">
        <ele>1246</ele>
        <time>2000-01-01T19:06:15.000Z</time>
      </trkpt>
      <trkpt lat="46.07085" lon="6.79439">
        <ele>1243</ele>
        <time>2000-01-01T19:06:25.000Z</time>
      </trkpt>
      <trkpt lat="46.07095" lon="6.79499">
        <ele>1220</ele>
        <time>2000-01-01T19:06:35.000Z</time>
      </trkpt>
      <trkpt lat="46.07083" lon="6.79533">
        <ele>1216</ele>
        <time>2000-01-01T19:06:45.000Z</time>
      </trkpt>
      <trkpt lat="46.07055" lon="6.79505">
        <ele>1207</ele>
        <time>2000-01-01T19:06:55.000Z</time>
      </trkpt>
      <trkpt lat="46.07028" lon="6.79478">
        <ele>1197</ele>
        <time>2000-01-01T19:07:05.000Z</time>
      </trkpt>
      <trkpt lat="46.06984" lon="6.79434">
        <ele>1191</ele>
        <time>2000-01-01T19:07:15.000Z</time>
      </trkpt>
      <trkpt lat="46.06975" lon="6.79402">
        <ele>1190</ele>
        <time>2000-01-01T19:07:25.000Z</time>
      </trkpt>
      <trkpt lat="46.06965" lon="6.79369">
        <ele>1190</ele>
        <time>2000-01-01T19:07:35.000Z</time>
      </trkpt>
      <trkpt lat="46.06965" lon="6.79408">
        <ele>1186</ele>
        <time>2000-01-01T19:07:45.000Z</time>
      </trkpt>
      <trkpt lat="46.06966" lon="6.79464">
        <ele>1166</ele>
        <time>2000-01-01T19:07:55.000Z</time>
      </trkpt>
      <trkpt lat="46.06958" lon="6.79513">
        <ele>1151</ele>
        <time>2000-01-01T19:08:05.000Z</time>
      </trkpt>
      <trkpt lat="46.06944" lon="6.79509">
        <ele>1131.7</ele>
        <time>2000-01-01T19:08:15.000Z</time>
      </trkpt>
      <trkpt lat="46.06885" lon="6.7938">
        <ele>1111</ele>
        <time>2000-01-01T19:08:25.000Z</time>
      </trkpt>
      <trkpt lat="46.06885" lon="6.79337">
        <ele>1116</ele>
        <time>2000-01-01T19:08:35.000Z</time>
      </trkpt>
      <trkpt lat="46.06884" lon="6.79259">
        <ele>1107</ele>
        <time>2000-01-01T19:08:45.000Z</time>
      </trkpt>
      <trkpt lat="46.0687" lon="6.79233">
        <ele>1098</ele>
        <time>2000-01-01T19:08:55.000Z</time>
      </trkpt>
      <trkpt lat="46.06848" lon="6.79204">
        <ele>1096</ele>
        <time>2000-01-01T19:09:05.000Z</time>
      </trkpt>
      <trkpt lat="46.0681" lon="6.79154">
        <ele>1094</ele>
        <time>2000-01-01T19:09:15.000Z</time>
      </trkpt>
      <trkpt lat="46.06814" lon="6.79188">
        <ele>1080</ele>
        <time>2000-01-01T19:09:25.000Z</time>
      </trkpt>
      <trkpt lat="46.06819" lon="6.79223">
        <ele>1063</ele>
        <time>2000-01-01T19:09:35.000Z</time>
      </trkpt>
      <trkpt lat="46.06795" lon="6.79203">
        <ele>1050</ele>
        <time>2000-01-01T19:09:45.000Z</time>
      </trkpt>
      <trkpt lat="46.06762" lon="6.79174">
        <ele>1050</ele>
        <time>2000-01-01T19:09:55.000Z</time>
      </trkpt>
      <trkpt lat="46.06743" lon="6.79146">
        <ele>1050</ele>
        <time>2000-01-01T19:10:05.000Z</time>
      </trkpt>
      <trkpt lat="46.06716" lon="6.79108">
        <ele>1034</ele>
        <time>2000-01-01T19:10:15.000Z</time>
      </trkpt>
      <trkpt lat="46.06708" lon="6.79068">
        <ele>1027</ele>
        <time>2000-01-01T19:10:25.000Z</time>
      </trkpt>
      <trkpt lat="46.06683" lon="6.79048">
        <ele>1010</ele>
        <time>2000-01-01T19:10:35.000Z</time>
      </trkpt>
      <trkpt lat="46.06643" lon="6.79016">
        <ele>996</ele>
        <time>2000-01-01T19:10:45.000Z</time>
      </trkpt>
      <trkpt lat="46.06629" lon="6.78956">
        <ele>984</ele>
        <time>2000-01-01T19:10:55.000Z</time>
      </trkpt>
      <trkpt lat="46.06585" lon="6.78951">
        <ele>977</ele>
        <time>2000-01-01T19:11:05.000Z</time>
      </trkpt>
      <trkpt lat="46.06577" lon="6.78961">
        <ele>966.2</ele>
        <time>2000-01-01T19:11:15.000Z</time>
      </trkpt>
      <trkpt lat="46.06544" lon="6.78932">
        <ele>973</ele>
        <time>2000-01-01T19:11:25.000Z</time>
      </trkpt>
      <trkpt lat="46.06545" lon="6.78898">
        <ele>969</ele>
        <time>2000-01-01T19:11:35.000Z</time>
      </trkpt>
      <trkpt lat="46.06547" lon="6.78864">
        <ele>967</ele>
        <time>2000-01-01T19:11:45.000Z</time>
      </trkpt>
      <trkpt lat="46.06522" lon="6.78867">
        <ele>967</ele>
        <time>2000-01-01T19:11:55.000Z</time>
      </trkpt>
      <trkpt lat="46.06495" lon="6.78871">
        <ele>962</ele>
        <time>2000-01-01T19:12:05.000Z</time>
      </trkpt>
      <trkpt lat="46.06474" lon="6.78892">
        <ele>961</ele>
        <time>2000-01-01T19:12:15.000Z</time>
      </trkpt>
      <trkpt lat="46.06447" lon="6.78881">
        <ele>952</ele>
        <time>2000-01-01T19:12:25.000Z</time>
      </trkpt>
      <trkpt lat="46.06408" lon="6.78865">
        <ele>927</ele>
        <time>2000-01-01T19:12:35.000Z</time>
      </trkpt>
      <trkpt lat="46.06379" lon="6.7888">
        <ele>921</ele>
        <time>2000-01-01T19:12:45.000Z</time>
      </trkpt>
      <trkpt lat="46.06325" lon="6.78908">
        <ele>913</ele>
        <time>2000-01-01T19:12:55.000Z</time>
      </trkpt>
      <trkpt lat="46.06301" lon="6.78908">
        <ele>908</ele>
        <time>2000-01-01T19:13:05.000Z</time>
      </trkpt>
      <trkpt lat="46.06276" lon="6.78908">
        <ele>900</ele>
        <time>2000-01-01T19:13:15.000Z</time>
      </trkpt>
      <trkpt lat="46.0625" lon="6.78946">
        <ele>887</ele>
        <time>2000-01-01T19:13:25.000Z</time>
      </trkpt>
      <trkpt lat="46.06224" lon="6.78984">
        <ele>874</ele>
        <time>2000-01-01T19:13:35.000Z</time>
      </trkpt>
      <trkpt lat="46.06198" lon="6.79022">
        <ele>862</ele>
        <time>2000-01-01T19:13:45.000Z</time>
      </trkpt>
      <trkpt lat="46.0615" lon="6.79092">
        <ele>847</ele>
        <time>2000-01-01T19:13:55.000Z</time>
      </trkpt>
      <trkpt lat="46.06129" lon="6.79076">
        <ele>845</ele>
        <time>2000-01-01T19:14:05.000Z</time>
      </trkpt>
      <trkpt lat="46.06108" lon="6.79059">
        <ele>843</ele>
        <time>2000-01-01T19:14:15.000Z</time>
      </trkpt>
      <trkpt lat="46.06076" lon="6.79088">
        <ele>837</ele>
        <time>2000-01-01T19:14:25.000Z</time>
      </trkpt>
      <trkpt lat="46.06046" lon="6.79097">
        <ele>829</ele>
        <time>2000-01-01T19:14:35.000Z</time>
      </trkpt>
      <trkpt lat="46.05987" lon="6.79114">
        <ele>822</ele>
        <time>2000-01-01T19:14:45.000Z</time>
      </trkpt>
      <trkpt lat="46.05967" lon="6.7914">
        <ele>820</ele>
        <time>2000-01-01T19:14:55.000Z</time>
      </trkpt>
      <trkpt lat="46.05939" lon="6.79175">
        <ele>817</ele>
        <time>2000-01-01T19:15:05.000Z</time>
      </trkpt>
      <trkpt lat="46.0593" lon="6.7914">
        <ele>812</ele>
        <time>2000-01-01T19:15:15.000Z</time>
      </trkpt>
      <trkpt lat="46.0592" lon="6.79099">
        <ele>811</ele>
        <time>2000-01-01T19:15:25.000Z</time>
      </trkpt>
      <trkpt lat="46.05897" lon="6.79106">
        <ele>811</ele>
        <time>2000-01-01T19:15:35.000Z</time>
      </trkpt>
      <trkpt lat="46.05874" lon="6.79114">
        <ele>814</ele>
        <time>2000-01-01T19:15:45.000Z</time>
      </trkpt>
      <trkpt lat="46.05884" lon="6.79155">
        <ele>817</ele>
        <time>2000-01-01T19:15:55.000Z</time>
      </trkpt>
      <trkpt lat="46.05901" lon="6.79228">
        <ele>824</ele>
        <time>2000-01-01T19:16:05.000Z</time>
      </trkpt>
      <trkpt lat="46.05926" lon="6.79253">
        <ele>821</ele>
        <time>2000-01-01T19:16:15.000Z</time>
      </trkpt>
      <trkpt lat="46.05971" lon="6.79298">
        <ele>826</ele>
        <time>2000-01-01T19:16:25.000Z</time>
      </trkpt>
      <trkpt lat="46.05988" lon="6.79339">
        <ele>820</ele>
        <time>2000-01-01T19:16:35.000Z</time>
      </trkpt>
      <trkpt lat="46.06024" lon="6.79362">
        <ele>818</ele>
        <time>2000-01-01T19:16:45.000Z</time>
      </trkpt>
      <trkpt lat="46.06027" lon="6.79396">
        <ele>819</ele>
        <time>2000-01-01T19:16:55.000Z</time>
      </trkpt>
      <trkpt lat="46.0603" lon="6.79431">
        <ele>821</ele>
        <time>2000-01-01T19:17:05.000Z</time>
      </trkpt>
      <trkpt lat="46.06044" lon="6.79466">
        <ele>822</ele>
        <time>2000-01-01T19:17:15.000Z</time>
      </trkpt>
      <trkpt lat="46.06065" lon="6.79519">
        <ele>822</ele>
        <time>2000-01-01T19:17:25.000Z</time>
      </trkpt>
      <trkpt lat="46.06091" lon="6.79543">
        <ele>822</ele>
        <time>2000-01-01T19:17:35.000Z</time>
      </trkpt>
      <trkpt lat="46.06142" lon="6.7959">
        <ele>830</ele>
        <time>2000-01-01T19:17:45.000Z</time>
      </trkpt>
      <trkpt lat="46.06162" lon="6.7962">
        <ele>833</ele>
        <time>2000-01-01T19:17:55.000Z</time>
      </trkpt>
      <trkpt lat="46.06192" lon="6.79666">
        <ele>836</ele>
        <time>2000-01-01T19:18:05.000Z</time>
      </trkpt>
      <trkpt lat="46.06216" lon="6.79681">
        <ele>839</ele>
        <time>2000-01-01T19:18:15.000Z</time>
      </trkpt>
      <trkpt lat="46.06245" lon="6.797">
        <ele>837</ele>
        <time>2000-01-01T19:18:25.000Z</time>
      </trkpt>
      <trkpt lat="46.0627" lon="6.7969">
        <ele>835</ele>
        <time>2000-01-01T19:18:35.000Z</time>
      </trkpt>
      <trkpt lat="46.06304" lon="6.79676">
        <ele>835</ele>
        <time>2000-01-01T19:18:45.000Z</time>
      </trkpt>
      <trkpt lat="46.06341" lon="6.79691">
        <ele>835</ele>
        <time>2000-01-01T19:18:55.000Z</time>
      </trkpt>
      <trkpt lat="46.06365" lon="6.79687">
        <ele>828</ele>
        <time>2000-01-01T19:19:05.000Z</time>
      </trkpt>
      <trkpt lat="46.06392" lon="6.79682">
        <ele>828</ele>
        <time>2000-01-01T19:19:15.000Z</time>
      </trkpt>
      <trkpt lat="46.06405" lon="6.79717">
        <ele>828</ele>
        <time>2000-01-01T19:19:25.000Z</time>
      </trkpt>
      <trkpt lat="46.06403" lon="6.79763">
        <ele>829</ele>
        <time>2000-01-01T19:19:35.000Z</time>
      </trkpt>
      <trkpt lat="46.064" lon="6.79808">
        <ele>830</ele>
        <time>2000-01-01T19:19:45.000Z</time>
      </trkpt>
      <trkpt lat="46.06398" lon="6.7986">
        <ele>830</ele>
        <time>2000-01-01T19:19:55.000Z</time>
      </trkpt>
      <trkpt lat="46.06419" lon="6.79906">
        <ele>830</ele>
        <time>2000-01-01T19:20:05.000Z</time>
      </trkpt>
      <trkpt lat="46.06414" lon="6.79933">
        <ele>832</ele>
        <time>2000-01-01T19:20:15.000Z</time>
      </trkpt>
      <trkpt lat="46.06395" lon="6.79941">
        <ele>849</ele>
        <time>2000-01-01T19:20:25.000Z</time>
      </trkpt>
      <trkpt lat="46.06393" lon="6.7993">
        <ele>832.2</ele>
        <time>2000-01-01T19:20:35.000Z</time>
      </trkpt>
      <trkpt lat="46.06391" lon="6.79948">
        <ele>849</ele>
        <time>2000-01-01T19:20:45.000Z</time>
      </trkpt>
      <trkpt lat="46.06374" lon="6.79944">
        <ele>843.4</ele>
        <time>2000-01-01T19:20:55.000Z</time>
      </trkpt>
      <trkpt lat="46.06363" lon="6.79964">
        <ele>849</ele>
        <time>2000-01-01T19:21:05.000Z</time>
      </trkpt>
      <trkpt lat="46.06386" lon="6.79956">
        <ele>849</ele>
        <time>2000-01-01T19:21:15.000Z</time>
      </trkpt>
      <trkpt lat="46.06384" lon="6.80003">
        <ele>853</ele>
        <time>2000-01-01T19:21:25.000Z</time>
      </trkpt>
      <trkpt lat="46.06416" lon="6.80047">
        <ele>857</ele>
        <time>2000-01-01T19:21:35.000Z</time>
      </trkpt>
      <trkpt lat="46.06419" lon="6.8009">
        <ele>877</ele>
        <time>2000-01-01T19:21:45.000Z</time>
      </trkpt>
      <trkpt lat="46.06405" lon="6.80121">
        <ele>910</ele>
        <time>2000-01-01T19:21:55.000Z</time>
      </trkpt>
      <trkpt lat="46.06387" lon="6.8016">
        <ele>919</ele>
        <time>2000-01-01T19:22:05.000Z</time>
      </trkpt>
      <trkpt lat="46.06399" lon="6.80195">
        <ele>924</ele>
        <time>2000-01-01T19:22:15.000Z</time>
      </trkpt>
      <trkpt lat="46.06382" lon="6.80225">
        <ele>930</ele>
        <time>2000-01-01T19:22:25.000Z</time>
      </trkpt>
      <trkpt lat="46.06359" lon="6.80266">
        <ele>938</ele>
        <time>2000-01-01T19:22:35.000Z</time>
      </trkpt>
      <trkpt lat="46.06347" lon="6.80314">
        <ele>947</ele>
        <time>2000-01-01T19:22:45.000Z</time>
      </trkpt>
      <trkpt lat="46.06334" lon="6.80363">
        <ele>957</ele>
        <time>2000-01-01T19:22:55.000Z</time>
      </trkpt>
      <trkpt lat="46.06322" lon="6.80411">
        <ele>963</ele>
        <time>2000-01-01T19:23:05.000Z</time>
      </trkpt>
      <trkpt lat="46.06306" lon="6.80473">
        <ele>979</ele>
        <time>2000-01-01T19:23:15.000Z</time>
      </trkpt>
      <trkpt lat="46.06282" lon="6.80503">
        <ele>999</ele>
        <time>2000-01-01T19:23:25.000Z</time>
      </trkpt>
      <trkpt lat="46.06257" lon="6.80534">
        <ele>1017</ele>
        <time>2000-01-01T19:23:35.000Z</time>
      </trkpt>
      <trkpt lat="46.06227" lon="6.80571">
        <ele>1054</ele>
        <time>2000-01-01T19:23:45.000Z</time>
      </trkpt>
      <trkpt lat="46.06232" lon="6.80598">
        <ele>1054</ele>
        <time>2000-01-01T19:23:55.000Z</time>
      </trkpt>
      <trkpt lat="46.06207" lon="6.80605">
        <ele>1055</ele>
        <time>2000-01-01T19:24:05.000Z</time>
      </trkpt>
      <trkpt lat="46.06177" lon="6.80613">
        <ele>1057</ele>
        <time>2000-01-01T19:24:15.000Z</time>
      </trkpt>
      <trkpt lat="46.06179" lon="6.80654">
        <ele>1065</ele>
        <time>2000-01-01T19:24:25.000Z</time>
      </trkpt>
      <trkpt lat="46.06182" lon="6.80718">
        <ele>1093</ele>
        <time>2000-01-01T19:24:35.000Z</time>
      </trkpt>
      <trkpt lat="46.06164" lon="6.8076">
        <ele>1099</ele>
        <time>2000-01-01T19:24:45.000Z</time>
      </trkpt>
      <trkpt lat="46.06181" lon="6.80795">
        <ele>1107</ele>
        <time>2000-01-01T19:24:55.000Z</time>
      </trkpt>
      <trkpt lat="46.06209" lon="6.80854">
        <ele>1148</ele>
        <time>2000-01-01T19:25:05.000Z</time>
      </trkpt>
      <trkpt lat="46.06195" lon="6.80895">
        <ele>1153</ele>
        <time>2000-01-01T19:25:15.000Z</time>
      </trkpt>
      <trkpt lat="46.06182" lon="6.80936">
        <ele>1158</ele>
        <time>2000-01-01T19:25:25.000Z</time>
      </trkpt>
      <trkpt lat="46.06167" lon="6.80982">
        <ele>1182</ele>
        <time>2000-01-01T19:25:35.000Z</time>
      </trkpt>
      <trkpt lat="46.06175" lon="6.81018">
        <ele>1193</ele>
        <time>2000-01-01T19:25:45.000Z</time>
      </trkpt>
      <trkpt lat="46.06186" lon="6.81066">
        <ele>1210</ele>
        <time>2000-01-01T19:25:55.000Z</time>
      </trkpt>
      <trkpt lat="46.06152" lon="6.8111">
        <ele>1217</ele>
        <time>2000-01-01T19:26:05.000Z</time>
      </trkpt>
      <trkpt lat="46.0615" lon="6.81173">
        <ele>1230</ele>
        <time>2000-01-01T19:26:15.000Z</time>
      </trkpt>
      <trkpt lat="46.06121" lon="6.81189">
        <ele>1235</ele>
        <time>2000-01-01T19:26:25.000Z</time>
      </trkpt>
      <trkpt lat="46.06131" lon="6.81218">
        <ele>1243</ele>
        <time>2000-01-01T19:26:35.000Z</time>
      </trkpt>
      <trkpt lat="46.06154" lon="6.81229">
        <ele>1243</ele>
        <time>2000-01-01T19:26:45.000Z</time>
      </trkpt>
      <trkpt lat="46.06181" lon="6.81242">
        <ele>1254</ele>
        <time>2000-01-01T19:26:55.000Z</time>
      </trkpt>
      <trkpt lat="46.06202" lon="6.81285">
        <ele>1268</ele>
        <time>2000-01-01T19:27:05.000Z</time>
      </trkpt>
      <trkpt lat="46.06222" lon="6.81328">
        <ele>1271</ele>
        <time>2000-01-01T19:27:15.000Z</time>
      </trkpt>
      <trkpt lat="46.06243" lon="6.8137">
        <ele>1275</ele>
        <time>2000-01-01T19:27:25.000Z</time>
      </trkpt>
      <trkpt lat="46.06272" lon="6.81431">
        <ele>1291</ele>
        <time>2000-01-01T19:27:35.000Z</time>
      </trkpt>
      <trkpt lat="46.06247" lon="6.81422">
        <ele>1300</ele>
        <time>2000-01-01T19:27:45.000Z</time>
      </trkpt>
      <trkpt lat="46.06216" lon="6.81412">
        <ele>1315</ele>
        <time>2000-01-01T19:27:55.000Z</time>
      </trkpt>
      <trkpt lat="46.0619" lon="6.81413">
        <ele>1327</ele>
        <time>2000-01-01T19:28:05.000Z</time>
      </trkpt>
      <trkpt lat="46.06155" lon="6.81415">
        <ele>1339</ele>
        <time>2000-01-01T19:28:15.000Z</time>
      </trkpt>
      <trkpt lat="46.06169" lon="6.81444">
        <ele>1344</ele>
        <time>2000-01-01T19:28:25.000Z</time>
      </trkpt>
      <trkpt lat="46.06183" lon="6.81474">
        <ele>1353</ele>
        <time>2000-01-01T19:28:35.000Z</time>
      </trkpt>
      <trkpt lat="46.06191" lon="6.81511">
        <ele>1357</ele>
        <time>2000-01-01T19:28:45.000Z</time>
      </trkpt>
      <trkpt lat="46.06201" lon="6.81562">
        <ele>1368</ele>
        <time>2000-01-01T19:28:55.000Z</time>
      </trkpt>
      <trkpt lat="46.06226" lon="6.81603">
        <ele>1378</ele>
        <time>2000-01-01T19:29:05.000Z</time>
      </trkpt>
      <trkpt lat="46.0625" lon="6.81645">
        <ele>1382</ele>
        <time>2000-01-01T19:29:15.000Z</time>
      </trkpt>
      <trkpt lat="46.06275" lon="6.81686">
        <ele>1387</ele>
        <time>2000-01-01T19:29:25.000Z</time>
      </trkpt>
      <trkpt lat="46.063" lon="6.81727">
        <ele>1414</ele>
        <time>2000-01-01T19:29:35.000Z</time>
      </trkpt>
      <trkpt lat="46.0633" lon="6.81778">
        <ele>1415</ele>
        <time>2000-01-01T19:29:45.000Z</time>
      </trkpt>
      <trkpt lat="46.06299" lon="6.81766">
        <ele>1425</ele>
        <time>2000-01-01T19:29:55.000Z</time>
      </trkpt>
      <trkpt lat="46.06267" lon="6.81753">
        <ele>1426</ele>
        <time>2000-01-01T19:30:05.000Z</time>
      </trkpt>
      <trkpt lat="46.06227" lon="6.81737">
        <ele>1428</ele>
        <time>2000-01-01T19:30:15.000Z</time>
      </trkpt>
      <trkpt lat="46.06232" lon="6.81775">
        <ele>1467</ele>
        <time>2000-01-01T19:30:25.000Z</time>
      </trkpt>
      <trkpt lat="46.06198" lon="6.81777">
        <ele>1468</ele>
        <time>2000-01-01T19:30:35.000Z</time>
      </trkpt>
      <trkpt lat="46.06163" lon="6.8178">
        <ele>1469</ele>
        <time>2000-01-01T19:30:45.000Z</time>
      </trkpt>
      <trkpt lat="46.06102" lon="6.81784">
        <ele>1473</ele>
        <time>2000-01-01T19:30:55.000Z</time>
      </trkpt>
      <trkpt lat="46.06077" lon="6.81765">
        <ele>1474</ele>
        <time>2000-01-01T19:31:05.000Z</time>
      </trkpt>
      <trkpt lat="46.0604" lon="6.81736">
        <ele>1475</ele>
        <time>2000-01-01T19:31:15.000Z</time>
      </trkpt>
      <trkpt lat="46.0602" lon="6.81735">
        <ele>1475</ele>
        <time>2000-01-01T19:31:25.000Z</time>
      </trkpt>
      <trkpt lat="46.05981" lon="6.81763">
        <ele>1498</ele>
        <time>2000-01-01T19:31:35.000Z</time>
      </trkpt>
      <trkpt lat="46.05955" lon="6.81771">
        <ele>1520</ele>
        <time>2000-01-01T19:31:45.000Z</time>
      </trkpt>
      <trkpt lat="46.0592" lon="6.81781">
        <ele>1520</ele>
        <time>2000-01-01T19:31:55.000Z</time>
      </trkpt>
      <trkpt lat="46.05939" lon="6.81804">
        <ele>1535</ele>
        <time>2000-01-01T19:32:05.000Z</time>
      </trkpt>
      <trkpt lat="46.05961" lon="6.81829">
        <ele>1540</ele>
        <time>2000-01-01T19:32:15.000Z</time>
      </trkpt>
      <trkpt lat="46.05988" lon="6.81829">
        <ele>1540</ele>
        <time>2000-01-01T19:32:25.000Z</time>
      </trkpt>
      <trkpt lat="46.06028" lon="6.81829">
        <ele>1539</ele>
        <time>2000-01-01T19:32:35.000Z</time>
      </trkpt>
      <trkpt lat="46.05998" lon="6.81847">
        <ele>1539</ele>
        <time>2000-01-01T19:32:45.000Z</time>
      </trkpt>
      <trkpt lat="46.05969" lon="6.81865">
        <ele>1556</ele>
        <time>2000-01-01T19:32:55.000Z</time>
      </trkpt>
      <trkpt lat="46.05932" lon="6.81888">
        <ele>1576</ele>
        <time>2000-01-01T19:33:05.000Z</time>
      </trkpt>
      <trkpt lat="46.05903" lon="6.81921">
        <ele>1577</ele>
        <time>2000-01-01T19:33:15.000Z</time>
      </trkpt>
      <trkpt lat="46.05892" lon="6.81924">
        <ele>1589.8</ele>
        <time>2000-01-01T19:33:25.000Z</time>
      </trkpt>
      <trkpt lat="46.05864" lon="6.81881">
        <ele>1578</ele>
        <time>2000-01-01T19:33:35.000Z</time>
      </trkpt>
      <trkpt lat="46.0584" lon="6.8189">
        <ele>1584</ele>
        <time>2000-01-01T19:33:45.000Z</time>
      </trkpt>
      <trkpt lat="46.05814" lon="6.819">
        <ele>1586</ele>
        <time>2000-01-01T19:33:55.000Z</time>
      </trkpt>
      <trkpt lat="46.05806" lon="6.81918">
        <ele>1602.5</ele>
        <time>2000-01-01T19:34:05.000Z</time>
      </trkpt>
      <trkpt lat="46.05824" lon="6.81922">
        <ele>1593</ele>
        <time>2000-01-01T19:34:15.000Z</time>
      </trkpt>
      <trkpt lat="46.05846" lon="6.81959">
        <ele>1601</ele>
        <time>2000-01-01T19:34:25.000Z</time>
      </trkpt>
      <trkpt lat="46.05827" lon="6.8199">
        <ele>1615</ele>
        <time>2000-01-01T19:34:35.000Z</time>
      </trkpt>
      <trkpt lat="46.05799" lon="6.82038">
        <ele>1633</ele>
        <time>2000-01-01T19:34:45.000Z</time>
      </trkpt>
      <trkpt lat="46.05813" lon="6.82053">
        <ele>1650.9</ele>
        <time>2000-01-01T19:34:55.000Z</time>
      </trkpt>
      <trkpt lat="46.05811" lon="6.82102">
        <ele>1661</ele>
        <time>2000-01-01T19:35:05.000Z</time>
      </trkpt>
      <trkpt lat="46.0579" lon="6.82119">
        <ele>1663</ele>
        <time>2000-01-01T19:35:15.000Z</time>
      </trkpt>
      <trkpt lat="46.05758" lon="6.82109">
        <ele>1663</ele>
        <time>2000-01-01T19:35:25.000Z</time>
      </trkpt>
      <trkpt lat="46.05729" lon="6.82119">
        <ele>1663</ele>
        <time>2000-01-01T19:35:35.000Z</time>
      </trkpt>
      <trkpt lat="46.05699" lon="6.8211">
        <ele>1661</ele>
        <time>2000-01-01T19:35:45.000Z</time>
      </trkpt>
      <trkpt lat="46.05644" lon="6.82094">
        <ele>1666</ele>
        <time>2000-01-01T19:35:55.000Z</time>
      </trkpt>
      <trkpt lat="46.05618" lon="6.82129">
        <ele>1671</ele>
        <time>2000-01-01T19:36:05.000Z</time>
      </trkpt>
      <trkpt lat="46.0559" lon="6.82105">
        <ele>1672</ele>
        <time>2000-01-01T19:36:15.000Z</time>
      </trkpt>
      <trkpt lat="46.05563" lon="6.82081">
        <ele>1672</ele>
        <time>2000-01-01T19:36:25.000Z</time>
      </trkpt>
      <trkpt lat="46.05528" lon="6.82051">
        <ele>1668</ele>
        <time>2000-01-01T19:36:35.000Z</time>
      </trkpt>
      <trkpt lat="46.05494" lon="6.82048">
        <ele>1669</ele>
        <time>2000-01-01T19:36:45.000Z</time>
      </trkpt>
      <trkpt lat="46.05467" lon="6.82028">
        <ele>1669</ele>
        <time>2000-01-01T19:36:55.000Z</time>
      </trkpt>
      <trkpt lat="46.05447" lon="6.82">
        <ele>1669</ele>
        <time>2000-01-01T19:37:05.000Z</time>
      </trkpt>
      <trkpt lat="46.05416" lon="6.81959">
        <ele>1667</ele>
        <time>2000-01-01T19:37:15.000Z</time>
      </trkpt>
      <trkpt lat="46.05398" lon="6.81912">
        <ele>1666</ele>
        <time>2000-01-01T19:37:25.000Z</time>
      </trkpt>
      <trkpt lat="46.05379" lon="6.81866">
        <ele>1666</ele>
        <time>2000-01-01T19:37:35.000Z</time>
      </trkpt>
      <trkpt lat="46.05361" lon="6.81819">
        <ele>1662</ele>
        <time>2000-01-01T19:37:45.000Z</time>
      </trkpt>
      <trkpt lat="46.05326" lon="6.8173">
        <ele>1660</ele>
        <time>2000-01-01T19:37:55.000Z</time>
      </trkpt>
      <trkpt lat="46.05323" lon="6.81673">
        <ele>1658</ele>
        <time>2000-01-01T19:38:05.000Z</time>
      </trkpt>
      <trkpt lat="46.05321" lon="6.81616">
        <ele>1658</ele>
        <time>2000-01-01T19:38:15.000Z</time>
      </trkpt>
      <trkpt lat="46.05318" lon="6.81559">
        <ele>1658</ele>
        <time>2000-01-01T19:38:25.000Z</time>
      </trkpt>
      <trkpt lat="46.05315" lon="6.81502">
        <ele>1659</ele>
        <time>2000-01-01T19:38:35.000Z</time>
      </trkpt>
      <trkpt lat="46.05312" lon="6.81445">
        <ele>1656</ele>
        <time>2000-01-01T19:38:45.000Z</time>
      </trkpt>
      <trkpt lat="46.05308" lon="6.81353">
        <ele>1654</ele>
        <time>2000-01-01T19:38:55.000Z</time>
      </trkpt>
      <trkpt lat="46.05293" lon="6.81303">
        <ele>1654</ele>
        <time>2000-01-01T19:39:05.000Z</time>
      </trkpt>
      <trkpt lat="46.05278" lon="6.81254">
        <ele>1654</ele>
        <time>2000-01-01T19:39:15.000Z</time>
      </trkpt>
      <trkpt lat="46.05264" lon="6.81204">
        <ele>1650</ele>
        <time>2000-01-01T19:39:25.000Z</time>
      </trkpt>
      <trkpt lat="46.05249" lon="6.81155">
        <ele>1649</ele>
        <time>2000-01-01T19:39:35.000Z</time>
      </trkpt>
      <trkpt lat="46.05234" lon="6.81105">
        <ele>1649</ele>
        <time>2000-01-01T19:39:45.000Z</time>
      </trkpt>
      <trkpt lat="46.05226" lon="6.81063">
        <ele>1644</ele>
        <time>2000-01-01T19:39:55.000Z</time>
      </trkpt>
      <trkpt lat="46.05211" lon="6.80983">
        <ele>1644</ele>
        <time>2000-01-01T19:40:05.000Z</time>
      </trkpt>
      <trkpt lat="46.05218" lon="6.80946">
        <ele>1644</ele>
        <time>2000-01-01T19:40:15.000Z</time>
      </trkpt>
      <trkpt lat="46.05228" lon="6.80898">
        <ele>1643</ele>
        <time>2000-01-01T19:40:25.000Z</time>
      </trkpt>
      <trkpt lat="46.05214" lon="6.8086">
        <ele>1636</ele>
        <time>2000-01-01T19:40:35.000Z</time>
      </trkpt>
      <trkpt lat="46.05191" lon="6.80793">
        <ele>1635</ele>
        <time>2000-01-01T19:40:45.000Z</time>
      </trkpt>
      <trkpt lat="46.05188" lon="6.80754">
        <ele>1634</ele>
        <time>2000-01-01T19:40:55.000Z</time>
      </trkpt>
      <trkpt lat="46.05185" lon="6.80699">
        <ele>1623</ele>
        <time>2000-01-01T19:41:05.000Z</time>
      </trkpt>
      <trkpt lat="46.0517" lon="6.8066">
        <ele>1617</ele>
        <time>2000-01-01T19:41:15.000Z</time>
      </trkpt>
      <trkpt lat="46.05142" lon="6.80584">
        <ele>1617</ele>
        <time>2000-01-01T19:41:25.000Z</time>
      </trkpt>
      <trkpt lat="46.05138" lon="6.80545">
        <ele>1608</ele>
        <time>2000-01-01T19:41:35.000Z</time>
      </trkpt>
      <trkpt lat="46.05133" lon="6.80493">
        <ele>1612</ele>
        <time>2000-01-01T19:41:45.000Z</time>
      </trkpt>
      <trkpt lat="46.05103" lon="6.80472">
        <ele>1617</ele>
        <time>2000-01-01T19:41:55.000Z</time>
      </trkpt>
      <trkpt lat="46.05073" lon="6.80452">
        <ele>1617</ele>
        <time>2000-01-01T19:42:05.000Z</time>
      </trkpt>
      <trkpt lat="46.05031" lon="6.80423">
        <ele>1617</ele>
        <time>2000-01-01T19:42:15.000Z</time>
      </trkpt>
      <trkpt lat="46.04998" lon="6.80438">
        <ele>1613</ele>
        <time>2000-01-01T19:42:25.000Z</time>
      </trkpt>
      <trkpt lat="46.04968" lon="6.80439">
        <ele>1612</ele>
        <time>2000-01-01T19:42:35.000Z</time>
      </trkpt>
      <trkpt lat="46.04917" lon="6.8044">
        <ele>1612</ele>
        <time>2000-01-01T19:42:45.000Z</time>
      </trkpt>
      <trkpt lat="46.04884" lon="6.8043">
        <ele>1606</ele>
        <time>2000-01-01T19:42:55.000Z</time>
      </trkpt>
      <trkpt lat="46.04851" lon="6.8042">
        <ele>1610</ele>
        <time>2000-01-01T19:43:05.000Z</time>
      </trkpt>
      <trkpt lat="46.04797" lon="6.80404">
        <ele>1609</ele>
        <time>2000-01-01T19:43:15.000Z</time>
      </trkpt>
      <trkpt lat="46.04775" lon="6.80379">
        <ele>1608</ele>
        <time>2000-01-01T19:43:25.000Z</time>
      </trkpt>
      <trkpt lat="46.0474" lon="6.80341">
        <ele>1608</ele>
        <time>2000-01-01T19:43:35.000Z</time>
      </trkpt>
      <trkpt lat="46.04712" lon="6.80322">
        <ele>1624</ele>
        <time>2000-01-01T19:43:45.000Z</time>
      </trkpt>
      <trkpt lat="46.04683" lon="6.80303">
        <ele>1639</ele>
        <time>2000-01-01T19:43:55.000Z</time>
      </trkpt>
      <trkpt lat="46.04654" lon="6.80283">
        <ele>1639</ele>
        <time>2000-01-01T19:44:05.000Z</time>
      </trkpt>
      <trkpt lat="46.04657" lon="6.80254">
        <ele>1633</ele>
        <time>2000-01-01T19:44:15.000Z</time>
      </trkpt>
      <trkpt lat="46.04641" lon="6.80218">
        <ele>1633</ele>
        <time>2000-01-01T19:44:25.000Z</time>
      </trkpt>
      <trkpt lat="46.04612" lon="6.80156">
        <ele>1633</ele>
        <time>2000-01-01T19:44:35.000Z</time>
      </trkpt>
      <trkpt lat="46.04608" lon="6.80115">
        <ele>1630</ele>
        <time>2000-01-01T19:44:45.000Z</time>
      </trkpt>
      <trkpt lat="46.04612" lon="6.8009">
        <ele>1618.6</ele>
        <time>2000-01-01T19:44:55.000Z</time>
      </trkpt>
      <trkpt lat="46.04654" lon="6.80053">
        <ele>1594</ele>
        <time>2000-01-01T19:45:05.000Z</time>
      </trkpt>
      <trkpt lat="46.04672" lon="6.79992">
        <ele>1569</ele>
        <time>2000-01-01T19:45:15.000Z</time>
      </trkpt>
      <trkpt lat="46.04665" lon="6.79951">
        <ele>1560</ele>
        <time>2000-01-01T19:45:25.000Z</time>
      </trkpt>
      <trkpt lat="46.04654" lon="6.79886">
        <ele>1546</ele>
        <time>2000-01-01T19:45:35.000Z</time>
      </trkpt>
      <trkpt lat="46.04655" lon="6.79845">
        <ele>1528</ele>
        <time>2000-01-01T19:45:45.000Z</time>
      </trkpt>
      <trkpt lat="46.04657" lon="6.79779">
        <ele>1510</ele>
        <time>2000-01-01T19:45:55.000Z</time>
      </trkpt>
      <trkpt lat="46.04638" lon="6.79757">
        <ele>1507</ele>
        <time>2000-01-01T19:46:05.000Z</time>
      </trkpt>
      <trkpt lat="46.04617" lon="6.79732">
        <ele>1507</ele>
        <time>2000-01-01T19:46:15.000Z</time>
      </trkpt>
      <trkpt lat="46.04589" lon="6.79716">
        <ele>1505</ele>
        <time>2000-01-01T19:46:25.000Z</time>
      </trkpt>
      <trkpt lat="46.04537" lon="6.79687">
        <ele>1507</ele>
        <time>2000-01-01T19:46:35.000Z</time>
      </trkpt>
      <trkpt lat="46.04496" lon="6.79683">
        <ele>1509</ele>
        <time>2000-01-01T19:46:45.000Z</time>
      </trkpt>
      <trkpt lat="46.04486" lon="6.79649">
        <ele>1507</ele>
        <time>2000-01-01T19:46:55.000Z</time>
      </trkpt>
      <trkpt lat="46.04474" lon="6.79609">
        <ele>1508</ele>
        <time>2000-01-01T19:47:05.000Z</time>
      </trkpt>
      <trkpt lat="46.04455" lon="6.79577">
        <ele>1502</ele>
        <time>2000-01-01T19:47:15.000Z</time>
      </trkpt>
      <trkpt lat="46.04424" lon="6.79526">
        <ele>1496</ele>
        <time>2000-01-01T19:47:25.000Z</time>
      </trkpt>
      <trkpt lat="46.04395" lon="6.79492">
        <ele>1492</ele>
        <time>2000-01-01T19:47:35.000Z</time>
      </trkpt>
      <trkpt lat="46.04366" lon="6.79458">
        <ele>1488</ele>
        <time>2000-01-01T19:47:45.000Z</time>
      </trkpt>
      <trkpt lat="46.04337" lon="6.79424">
        <ele>1484</ele>
        <time>2000-01-01T19:47:55.000Z</time>
      </trkpt>
      <trkpt lat="46.04281" lon="6.79357">
        <ele>1463</ele>
        <time>2000-01-01T19:48:05.000Z</time>
      </trkpt>
      <trkpt lat="46.04269" lon="6.79325">
        <ele>1439</ele>
        <time>2000-01-01T19:48:15.000Z</time>
      </trkpt>
      <trkpt lat="46.04255" lon="6.79286">
        <ele>1421</ele>
        <time>2000-01-01T19:48:25.000Z</time>
      </trkpt>
      <trkpt lat="46.04264" lon="6.79244">
        <ele>1412</ele>
        <time>2000-01-01T19:48:35.000Z</time>
      </trkpt>
      <trkpt lat="46.04281" lon="6.79169">
        <ele>1402</ele>
        <time>2000-01-01T19:48:45.000Z</time>
      </trkpt>
      <trkpt lat="46.04249" lon="6.79186">
        <ele>1398</ele>
        <time>2000-01-01T19:48:55.000Z</time>
      </trkpt>
      <trkpt lat="46.04216" lon="6.79203">
        <ele>1395</ele>
        <time>2000-01-01T19:49:05.000Z</time>
      </trkpt>
      <trkpt lat="46.04159" lon="6.79234">
        <ele>1403</ele>
        <time>2000-01-01T19:49:15.000Z</time>
      </trkpt>
      <trkpt lat="46.04135" lon="6.79287">
        <ele>1403</ele>
        <time>2000-01-01T19:49:25.000Z</time>
      </trkpt>
      <trkpt lat="46.04116" lon="6.7926">
        <ele>1399</ele>
        <time>2000-01-01T19:49:35.000Z</time>
      </trkpt>
      <trkpt lat="46.04091" lon="6.79226">
        <ele>1400</ele>
        <time>2000-01-01T19:49:45.000Z</time>
      </trkpt>
      <trkpt lat="46.04059" lon="6.79228">
        <ele>1402</ele>
        <time>2000-01-01T19:49:55.000Z</time>
      </trkpt>
      <trkpt lat="46.04084" lon="6.79262">
        <ele>1413</ele>
        <time>2000-01-01T19:50:05.000Z</time>
      </trkpt>
      <trkpt lat="46.04056" lon="6.79275">
        <ele>1430</ele>
        <time>2000-01-01T19:50:15.000Z</time>
      </trkpt>
      <trkpt lat="46.04012" lon="6.79295">
        <ele>1448</ele>
        <time>2000-01-01T19:50:25.000Z</time>
      </trkpt>
      <trkpt lat="46.0398" lon="6.79282">
        <ele>1457</ele>
        <time>2000-01-01T19:50:35.000Z</time>
      </trkpt>
      <trkpt lat="46.03947" lon="6.79269">
        <ele>1465</ele>
        <time>2000-01-01T19:50:45.000Z</time>
      </trkpt>
      <trkpt lat="46.03898" lon="6.7925">
        <ele>1494</ele>
        <time>2000-01-01T19:50:55.000Z</time>
      </trkpt>
      <trkpt lat="46.03895" lon="6.79295">
        <ele>1500</ele>
        <time>2000-01-01T19:51:05.000Z</time>
      </trkpt>
      <trkpt lat="46.0389" lon="6.79384">
        <ele>1515</ele>
        <time>2000-01-01T19:51:15.000Z</time>
      </trkpt>
      <trkpt lat="46.03874" lon="6.79349">
        <ele>1518</ele>
        <time>2000-01-01T19:51:25.000Z</time>
      </trkpt>
      <trkpt lat="46.0385" lon="6.79295">
        <ele>1521</ele>
        <time>2000-01-01T19:51:35.000Z</time>
      </trkpt>
      <trkpt lat="46.03826" lon="6.79336">
        <ele>1550</ele>
        <time>2000-01-01T19:51:45.000Z</time>
      </trkpt>
      <trkpt lat="46.03821" lon="6.7938">
        <ele>1555</ele>
        <time>2000-01-01T19:51:55.000Z</time>
      </trkpt>
      <trkpt lat="46.03817" lon="6.79425">
        <ele>1580</ele>
        <time>2000-01-01T19:52:05.000Z</time>
      </trkpt>
      <trkpt lat="46.03812" lon="6.7947">
        <ele>1603</ele>
        <time>2000-01-01T19:52:15.000Z</time>
      </trkpt>
      <trkpt lat="46.03793" lon="6.7944">
        <ele>1623</ele>
        <time>2000-01-01T19:52:25.000Z</time>
      </trkpt>
      <trkpt lat="46.03764" lon="6.79395">
        <ele>1623</ele>
        <time>2000-01-01T19:52:35.000Z</time>
      </trkpt>
      <trkpt lat="46.03766" lon="6.79436">
        <ele>1632</ele>
        <time>2000-01-01T19:52:45.000Z</time>
      </trkpt>
      <trkpt lat="46.03769" lon="6.79501">
        <ele>1636</ele>
        <time>2000-01-01T19:52:55.000Z</time>
      </trkpt>
      <trkpt lat="46.03748" lon="6.79477">
        <ele>1641</ele>
        <time>2000-01-01T19:53:05.000Z</time>
      </trkpt>
      <trkpt lat="46.03719" lon="6.79443">
        <ele>1656</ele>
        <time>2000-01-01T19:53:15.000Z</time>
      </trkpt>
      <trkpt lat="46.03709" lon="6.79504">
        <ele>1691</ele>
        <time>2000-01-01T19:53:25.000Z</time>
      </trkpt>
      <trkpt lat="46.0369" lon="6.79478">
        <ele>1694</ele>
        <time>2000-01-01T19:53:35.000Z</time>
      </trkpt>
      <trkpt lat="46.03664" lon="6.79443">
        <ele>1697</ele>
        <time>2000-01-01T19:53:45.000Z</time>
      </trkpt>
      <trkpt lat="46.03658" lon="6.79478">
        <ele>1723</ele>
        <time>2000-01-01T19:53:55.000Z</time>
      </trkpt>
      <trkpt lat="46.03652" lon="6.79518">
        <ele>1723</ele>
        <time>2000-01-01T19:54:05.000Z</time>
      </trkpt>
      <trkpt lat="46.03631" lon="6.79486">
        <ele>1723</ele>
        <time>2000-01-01T19:54:15.000Z</time>
      </trkpt>
      <trkpt lat="46.0359" lon="6.79425">
        <ele>1736</ele>
        <time>2000-01-01T19:54:25.000Z</time>
      </trkpt>
      <trkpt lat="46.03576" lon="6.79458">
        <ele>1751</ele>
        <time>2000-01-01T19:54:35.000Z</time>
      </trkpt>
      <trkpt lat="46.03557" lon="6.79504">
        <ele>1781</ele>
        <time>2000-01-01T19:54:45.000Z</time>
      </trkpt>
      <trkpt lat="46.03532" lon="6.7951">
        <ele>1786</ele>
        <time>2000-01-01T19:54:55.000Z</time>
      </trkpt>
      <trkpt lat="46.03502" lon="6.79518">
        <ele>1799</ele>
        <time>2000-01-01T19:55:05.000Z</time>
      </trkpt>
      <trkpt lat="46.0351" lon="6.7955">
        <ele>1823</ele>
        <time>2000-01-01T19:55:15.000Z</time>
      </trkpt>
      <trkpt lat="46.03519" lon="6.79583">
        <ele>1834</ele>
        <time>2000-01-01T19:55:25.000Z</time>
      </trkpt>
      <trkpt lat="46.03502" lon="6.79635">
        <ele>1847</ele>
        <time>2000-01-01T19:55:35.000Z</time>
      </trkpt>
      <trkpt lat="46.03504" lon="6.79677">
        <ele>1857</ele>
        <time>2000-01-01T19:55:45.000Z</time>
      </trkpt>
      <trkpt lat="46.03507" lon="6.79748">
        <ele>1889</ele>
        <time>2000-01-01T19:55:55.000Z</time>
      </trkpt>
      <trkpt lat="46.0348" lon="6.7976">
        <ele>1894</ele>
        <time>2000-01-01T19:56:05.000Z</time>
      </trkpt>
      <trkpt lat="46.03438" lon="6.79779">
        <ele>1915</ele>
        <time>2000-01-01T19:56:15.000Z</time>
      </trkpt>
      <trkpt lat="46.03411" lon="6.79773">
        <ele>1915</ele>
        <time>2000-01-01T19:56:25.000Z</time>
      </trkpt>
      <trkpt lat="46.03376" lon="6.79765">
        <ele>1920</ele>
        <time>2000-01-01T19:56:35.000Z</time>
      </trkpt>
      <trkpt lat="46.03353" lon="6.79772">
        <ele>1925</ele>
        <time>2000-01-01T19:56:45.000Z</time>
      </trkpt>
      <trkpt lat="46.0333" lon="6.79779">
        <ele>1938</ele>
        <time>2000-01-01T19:56:55.000Z</time>
      </trkpt>
      <trkpt lat="46.03301" lon="6.79773">
        <ele>1940</ele>
        <time>2000-01-01T19:57:05.000Z</time>
      </trkpt>
      <trkpt lat="46.03254" lon="6.79762">
        <ele>1943</ele>
        <time>2000-01-01T19:57:15.000Z</time>
      </trkpt>
      <trkpt lat="46.03221" lon="6.79807">
        <ele>1960</ele>
        <time>2000-01-01T19:57:25.000Z</time>
      </trkpt>
      <trkpt lat="46.03249" lon="6.79826">
        <ele>1962</ele>
        <time>2000-01-01T19:57:35.000Z</time>
      </trkpt>
      <trkpt lat="46.0326" lon="6.79864">
        <ele>1964</ele>
        <time>2000-01-01T19:57:45.000Z</time>
      </trkpt>
      <trkpt lat="46.03277" lon="6.79921">
        <ele>1973</ele>
        <time>2000-01-01T19:57:55.000Z</time>
      </trkpt>
      <trkpt lat="46.03311" lon="6.79931">
        <ele>1976</ele>
        <time>2000-01-01T19:58:05.000Z</time>
      </trkpt>
      <trkpt lat="46.03315" lon="6.79966">
        <ele>1977</ele>
        <time>2000-01-01T19:58:15.000Z</time>
      </trkpt>
      <trkpt lat="46.03319" lon="6.80006">
        <ele>1978</ele>
        <time>2000-01-01T19:58:25.000Z</time>
      </trkpt>
      <trkpt lat="46.03308" lon="6.80041">
        <ele>1983</ele>
        <time>2000-01-01T19:58:35.000Z</time>
      </trkpt>
      <trkpt lat="46.03293" lon="6.8009">
        <ele>1990</ele>
        <time>2000-01-01T19:58:45.000Z</time>
      </trkpt>
      <trkpt lat="46.03299" lon="6.80129">
        <ele>2003</ele>
        <time>2000-01-01T19:58:55.000Z</time>
      </trkpt>
      <trkpt lat="46.03337" lon="6.80133">
        <ele>2028</ele>
        <time>2000-01-01T19:59:05.000Z</time>
      </trkpt>
      <trkpt lat="46.03317" lon="6.80177">
        <ele>2028</ele>
        <time>2000-01-01T19:59:15.000Z</time>
      </trkpt>
      <trkpt lat="46.03298" lon="6.80221">
        <ele>2033</ele>
        <time>2000-01-01T19:59:25.000Z</time>
      </trkpt>
      <trkpt lat="46.03278" lon="6.80266">
        <ele>2048</ele>
        <time>2000-01-01T19:59:35.000Z</time>
      </trkpt>
      <trkpt lat="46.03247" lon="6.80335">
        <ele>2056</ele>
        <time>2000-01-01T19:59:45.000Z</time>
      </trkpt>
      <trkpt lat="46.03271" lon="6.80355">
        <ele>2075</ele>
        <time>2000-01-01T19:59:55.000Z</time>
      </trkpt>
      <trkpt lat="46.03307" lon="6.80384">
        <ele>2098</ele>
        <time>2000-01-01T20:00:05.000Z</time>
      </trkpt>
      <trkpt lat="46.0334" lon="6.80378">
        <ele>2107</ele>
        <time>2000-01-01T20:00:15.000Z</time>
      </trkpt>
      <trkpt lat="46.03354" lon="6.80416">
        <ele>2120</ele>
        <time>2000-01-01T20:00:25.000Z</time>
      </trkpt>
      <trkpt lat="46.03378" lon="6.80485">
        <ele>2133</ele>
        <time>2000-01-01T20:00:35.000Z</time>
      </trkpt>
      <trkpt lat="46.03413" lon="6.80472">
        <ele>2165</ele>
        <time>2000-01-01T20:00:45.000Z</time>
      </trkpt>
      <trkpt lat="46.03421" lon="6.80532">
        <ele>2172</ele>
        <time>2000-01-01T20:00:55.000Z</time>
      </trkpt>
      <trkpt lat="46.03444" lon="6.80536">
        <ele>2187</ele>
        <time>2000-01-01T20:01:05.000Z</time>
      </trkpt>
      <trkpt lat="46.03468" lon="6.80541">
        <ele>2195</ele>
        <time>2000-01-01T20:01:15.000Z</time>
      </trkpt>
      <trkpt lat="46.03489" lon="6.80562">
        <ele>2199</ele>
        <time>2000-01-01T20:01:25.000Z</time>
      </trkpt>
      <trkpt lat="46.0347" lon="6.80593">
        <ele>2205</ele>
        <time>2000-01-01T20:01:35.000Z</time>
      </trkpt>
      <trkpt lat="46.03439" lon="6.80642">
        <ele>2215</ele>
        <time>2000-01-01T20:01:45.000Z</time>
      </trkpt>
      <trkpt lat="46.03438" lon="6.8068">
        <ele>2223</ele>
        <time>2000-01-01T20:01:55.000Z</time>
      </trkpt>
      <trkpt lat="46.03436" lon="6.80727">
        <ele>2231</ele>
        <time>2000-01-01T20:02:05.000Z</time>
      </trkpt>
      <trkpt lat="46.03456" lon="6.80745">
        <ele>2241</ele>
        <time>2000-01-01T20:02:15.000Z</time>
      </trkpt>
      <trkpt lat="46.03484" lon="6.80706">
        <ele>2252</ele>
        <time>2000-01-01T20:02:25.000Z</time>
      </trkpt>
      <trkpt lat="46.03493" lon="6.80742">
        <ele>2285</ele>
        <time>2000-01-01T20:02:35.000Z</time>
      </trkpt>
      <trkpt lat="46.03515" lon="6.80742">
        <ele>2285</ele>
        <time>2000-01-01T20:02:45.000Z</time>
      </trkpt>
      <trkpt lat="46.03522" lon="6.80781">
        <ele>2304</ele>
        <time>2000-01-01T20:02:55.000Z</time>
      </trkpt>
      <trkpt lat="46.03533" lon="6.80837">
        <ele>2308</ele>
        <time>2000-01-01T20:03:05.000Z</time>
      </trkpt>
      <trkpt lat="46.0356" lon="6.80888">
        <ele>2340</ele>
        <time>2000-01-01T20:03:15.000Z</time>
      </trkpt>
      <trkpt lat="46.03584" lon="6.80901">
        <ele>2340</ele>
        <time>2000-01-01T20:03:25.000Z</time>
      </trkpt>
      <trkpt lat="46.03596" lon="6.80934">
        <ele>2341</ele>
        <time>2000-01-01T20:03:35.000Z</time>
      </trkpt>
      <trkpt lat="46.03612" lon="6.80976">
        <ele>2360</ele>
        <time>2000-01-01T20:03:45.000Z</time>
      </trkpt>
      <trkpt lat="46.03614" lon="6.81024">
        <ele>2370</ele>
        <time>2000-01-01T20:03:55.000Z</time>
      </trkpt>
      <trkpt lat="46.0363" lon="6.81026">
        <ele>2358.4</ele>
        <time>2000-01-01T20:04:05.000Z</time>
      </trkpt>
      <trkpt lat="46.03658" lon="6.812">
        <ele>2415</ele>
        <time>2000-01-01T20:04:15.000Z</time>
      </trkpt>
      <trkpt lat="46.03685" lon="6.81222">
        <ele>2424</ele>
        <time>2000-01-01T20:04:25.000Z</time>
      </trkpt>
      <trkpt lat="46.03712" lon="6.81244">
        <ele>2446</ele>
        <time>2000-01-01T20:04:35.000Z</time>
      </trkpt>
      <trkpt lat="46.0374" lon="6.81266">
        <ele>2446</ele>
        <time>2000-01-01T20:04:45.000Z</time>
      </trkpt>
      <trkpt lat="46.03762" lon="6.81315">
        <ele>2444</ele>
        <time>2000-01-01T20:04:55.000Z</time>
      </trkpt>
      <trkpt lat="46.03784" lon="6.81364">
        <ele>2441</ele>
        <time>2000-01-01T20:05:05.000Z</time>
      </trkpt>
      <trkpt lat="46.03806" lon="6.81413">
        <ele>2441</ele>
        <time>2000-01-01T20:05:15.000Z</time>
      </trkpt>
      <trkpt lat="46.03828" lon="6.81462">
        <ele>2437</ele>
        <time>2000-01-01T20:05:25.000Z</time>
      </trkpt>
      <trkpt lat="46.0385" lon="6.81511">
        <ele>2433</ele>
        <time>2000-01-01T20:05:35.000Z</time>
      </trkpt>
      <trkpt lat="46.03872" lon="6.8156">
        <ele>2430</ele>
        <time>2000-01-01T20:05:45.000Z</time>
      </trkpt>
      <trkpt lat="46.03904" lon="6.81633">
        <ele>2430</ele>
        <time>2000-01-01T20:05:55.000Z</time>
      </trkpt>
      <trkpt lat="46.03929" lon="6.81661">
        <ele>2430</ele>
        <time>2000-01-01T20:06:05.000Z</time>
      </trkpt>
      <trkpt lat="46.03954" lon="6.81688">
        <ele>2438</ele>
        <time>2000-01-01T20:06:15.000Z</time>
      </trkpt>
      <trkpt lat="46.03982" lon="6.81719">
        <ele>2449</ele>
        <time>2000-01-01T20:06:25.000Z</time>
      </trkpt>
      <trkpt lat="46.03995" lon="6.81778">
        <ele>2459</ele>
        <time>2000-01-01T20:06:35.000Z</time>
      </trkpt>
      <trkpt lat="46.04009" lon="6.81836">
        <ele>2465</ele>
        <time>2000-01-01T20:06:45.000Z</time>
      </trkpt>
      <trkpt lat="46.04023" lon="6.81895">
        <ele>2474</ele>
        <time>2000-01-01T20:06:55.000Z</time>
      </trkpt>
      <trkpt lat="46.04036" lon="6.81954">
        <ele>2479</ele>
        <time>2000-01-01T20:07:05.000Z</time>
      </trkpt>
      <trkpt lat="46.0405" lon="6.82013">
        <ele>2481</ele>
        <time>2000-01-01T20:07:15.000Z</time>
      </trkpt>
      <trkpt lat="46.04063" lon="6.82071">
        <ele>2498</ele>
        <time>2000-01-01T20:07:25.000Z</time>
      </trkpt>
      <trkpt lat="46.04077" lon="6.8213">
        <ele>2503</ele>
        <time>2000-01-01T20:07:35.000Z</time>
      </trkpt>
      <trkpt lat="46.0409" lon="6.82189">
        <ele>2507</ele>
        <time>2000-01-01T20:07:45.000Z</time>
      </trkpt>
      <trkpt lat="46.04104" lon="6.82248">
        <ele>2511</ele>
        <time>2000-01-01T20:07:55.000Z</time>
      </trkpt>
      <trkpt lat="46.04117" lon="6.82306">
        <ele>2516</ele>
        <time>2000-01-01T20:08:05.000Z</time>
      </trkpt>
      <trkpt lat="46.04131" lon="6.82365">
        <ele>2528</ele>
        <time>2000-01-01T20:08:15.000Z</time>
      </trkpt>
      <trkpt lat="46.04148" lon="6.8244">
        <ele>2541</ele>
        <time>2000-01-01T20:08:25.000Z</time>
      </trkpt>
      <trkpt lat="46.04152" lon="6.8249">
        <ele>2541</ele>
        <time>2000-01-01T20:08:35.000Z</time>
      </trkpt>
      <trkpt lat="46.04157" lon="6.82541">
        <ele>2547</ele>
        <time>2000-01-01T20:08:45.000Z</time>
      </trkpt>
      <trkpt lat="46.04161" lon="6.82591">
        <ele>2554</ele>
        <time>2000-01-01T20:08:55.000Z</time>
      </trkpt>
      <trkpt lat="46.04166" lon="6.82646">
        <ele>2555</ele>
        <time>2000-01-01T20:09:05.000Z</time>
      </trkpt>
      <trkpt lat="46.04161" lon="6.82695">
        <ele>2544</ele>
        <time>2000-01-01T20:09:15.000Z</time>
      </trkpt>
      <trkpt lat="46.04156" lon="6.82743">
        <ele>2542</ele>
        <time>2000-01-01T20:09:25.000Z</time>
      </trkpt>
      <trkpt lat="46.04148" lon="6.82826">
        <ele>2543</ele>
        <time>2000-01-01T20:09:35.000Z</time>
      </trkpt>
      <trkpt lat="46.04153" lon="6.82874">
        <ele>2541</ele>
        <time>2000-01-01T20:09:45.000Z</time>
      </trkpt>
      <trkpt lat="46.04158" lon="6.82923">
        <ele>2548</ele>
        <time>2000-01-01T20:09:55.000Z</time>
      </trkpt>
      <trkpt lat="46.04166" lon="6.83002">
        <ele>2543</ele>
        <time>2000-01-01T20:10:05.000Z</time>
      </trkpt>
      <trkpt lat="46.0415" lon="6.83058">
        <ele>2539</ele>
        <time>2000-01-01T20:10:15.000Z</time>
      </trkpt>
      <trkpt lat="46.04133" lon="6.83114">
        <ele>2540</ele>
        <time>2000-01-01T20:10:25.000Z</time>
      </trkpt>
      <trkpt lat="46.04117" lon="6.8317">
        <ele>2540</ele>
        <time>2000-01-01T20:10:35.000Z</time>
      </trkpt>
      <trkpt lat="46.04101" lon="6.83226">
        <ele>2540</ele>
        <time>2000-01-01T20:10:45.000Z</time>
      </trkpt>
      <trkpt lat="46.04085" lon="6.83282">
        <ele>2537</ele>
        <time>2000-01-01T20:10:55.000Z</time>
      </trkpt>
      <trkpt lat="46.04068" lon="6.83338">
        <ele>2539</ele>
        <time>2000-01-01T20:11:05.000Z</time>
      </trkpt>
      <trkpt lat="46.04052" lon="6.83395">
        <ele>2533</ele>
        <time>2000-01-01T20:11:15.000Z</time>
      </trkpt>
      <trkpt lat="46.04036" lon="6.83451">
        <ele>2528</ele>
        <time>2000-01-01T20:11:25.000Z</time>
      </trkpt>
      <trkpt lat="46.04019" lon="6.83507">
        <ele>2530</ele>
        <time>2000-01-01T20:11:35.000Z</time>
      </trkpt>
      <trkpt lat="46.03999" lon="6.83577">
        <ele>2530</ele>
        <time>2000-01-01T20:11:45.000Z</time>
      </trkpt>
      <trkpt lat="46.04007" lon="6.83629">
        <ele>2530</ele>
        <time>2000-01-01T20:11:55.000Z</time>
      </trkpt>
      <trkpt lat="46.04014" lon="6.8368">
        <ele>2528</ele>
        <time>2000-01-01T20:12:05.000Z</time>
      </trkpt>
      <trkpt lat="46.04022" lon="6.83732">
        <ele>2533</ele>
        <time>2000-01-01T20:12:15.000Z</time>
      </trkpt>
      <trkpt lat="46.04035" lon="6.83817">
        <ele>2539</ele>
        <time>2000-01-01T20:12:25.000Z</time>
      </trkpt>
      <trkpt lat="46.04005" lon="6.8382">
        <ele>2536</ele>
        <time>2000-01-01T20:12:35.000Z</time>
      </trkpt>
      <trkpt lat="46.03949" lon="6.83826">
        <ele>2538</ele>
        <time>2000-01-01T20:12:45.000Z</time>
      </trkpt>
      <trkpt lat="46.03966" lon="6.83862">
        <ele>2540</ele>
        <time>2000-01-01T20:12:55.000Z</time>
      </trkpt>
      <trkpt lat="46.03996" lon="6.83925">
        <ele>2548</ele>
        <time>2000-01-01T20:13:05.000Z</time>
      </trkpt>
      <trkpt lat="46.03996" lon="6.83977">
        <ele>2548</ele>
        <time>2000-01-01T20:13:15.000Z</time>
      </trkpt>
      <trkpt lat="46.03996" lon="6.84028">
        <ele>2550</ele>
        <time>2000-01-01T20:13:25.000Z</time>
      </trkpt>
      <trkpt lat="46.03996" lon="6.8408">
        <ele>2550</ele>
        <time>2000-01-01T20:13:35.000Z</time>
      </trkpt>
      <trkpt lat="46.03996" lon="6.84148">
        <ele>2552</ele>
        <time>2000-01-01T20:13:45.000Z</time>
      </trkpt>
      <trkpt lat="46.04006" lon="6.842">
        <ele>2552</ele>
        <time>2000-01-01T20:13:55.000Z</time>
      </trkpt>
      <trkpt lat="46.04015" lon="6.84252">
        <ele>2552</ele>
        <time>2000-01-01T20:14:05.000Z</time>
      </trkpt>
      <trkpt lat="46.04025" lon="6.84303">
        <ele>2552</ele>
        <time>2000-01-01T20:14:15.000Z</time>
      </trkpt>
      <trkpt lat="46.04043" lon="6.84401">
        <ele>2553</ele>
        <time>2000-01-01T20:14:25.000Z</time>
      </trkpt>
      <trkpt lat="46.04021" lon="6.84433">
        <ele>2551</ele>
        <time>2000-01-01T20:14:35.000Z</time>
      </trkpt>
      <trkpt lat="46.03999" lon="6.84466">
        <ele>2550</ele>
        <time>2000-01-01T20:14:45.000Z</time>
      </trkpt>
      <trkpt lat="46.03976" lon="6.845">
        <ele>2551</ele>
        <time>2000-01-01T20:14:55.000Z</time>
      </trkpt>
      <trkpt lat="46.03964" lon="6.84535">
        <ele>2549</ele>
        <time>2000-01-01T20:15:05.000Z</time>
      </trkpt>
      <trkpt lat="46.03946" lon="6.84586">
        <ele>2549</ele>
        <time>2000-01-01T20:15:15.000Z</time>
      </trkpt>
      <trkpt lat="46.03958" lon="6.84628">
        <ele>2549</ele>
        <time>2000-01-01T20:15:25.000Z</time>
      </trkpt>
      <trkpt lat="46.03969" lon="6.8467">
        <ele>2550</ele>
        <time>2000-01-01T20:15:35.000Z</time>
      </trkpt>
      <trkpt lat="46.03982" lon="6.84716">
        <ele>2550</ele>
        <time>2000-01-01T20:15:45.000Z</time>
      </trkpt>
      <trkpt lat="46.03968" lon="6.84756">
        <ele>2550</ele>
        <time>2000-01-01T20:15:55.000Z</time>
      </trkpt>
      <trkpt lat="46.03941" lon="6.84832">
        <ele>2557</ele>
        <time>2000-01-01T20:16:05.000Z</time>
      </trkpt>
      <trkpt lat="46.03912" lon="6.84858">
        <ele>2561</ele>
        <time>2000-01-01T20:16:15.000Z</time>
      </trkpt>
      <trkpt lat="46.03882" lon="6.84883">
        <ele>2567</ele>
        <time>2000-01-01T20:16:25.000Z</time>
      </trkpt>
      <trkpt lat="46.0383" lon="6.84929">
        <ele>2581</ele>
        <time>2000-01-01T20:16:35.000Z</time>
      </trkpt>
      <trkpt lat="46.0381" lon="6.84965">
        <ele>2611</ele>
        <time>2000-01-01T20:16:45.000Z</time>
      </trkpt>
      <trkpt lat="46.0379" lon="6.85001">
        <ele>2627</ele>
        <time>2000-01-01T20:16:55.000Z</time>
      </trkpt>
      <trkpt lat="46.03767" lon="6.85043">
        <ele>2637</ele>
        <time>2000-01-01T20:17:05.000Z</time>
      </trkpt>
      <trkpt lat="46.03736" lon="6.85063">
        <ele>2654</ele>
        <time>2000-01-01T20:17:15.000Z</time>
      </trkpt>
      <trkpt lat="46.03706" lon="6.85082">
        <ele>2670</ele>
        <time>2000-01-01T20:17:25.000Z</time>
      </trkpt>
      <trkpt lat="46.03658" lon="6.85113">
        <ele>2682</ele>
        <time>2000-01-01T20:17:35.000Z</time>
      </trkpt>
      <trkpt lat="46.03628" lon="6.85141">
        <ele>2705</ele>
        <time>2000-01-01T20:17:45.000Z</time>
      </trkpt>
      <trkpt lat="46.03599" lon="6.85169">
        <ele>2717</ele>
        <time>2000-01-01T20:17:55.000Z</time>
      </trkpt>
      <trkpt lat="46.03569" lon="6.85197">
        <ele>2741</ele>
        <time>2000-01-01T20:18:05.000Z</time>
      </trkpt>
      <trkpt lat="46.03535" lon="6.85229">
        <ele>2776</ele>
        <time>2000-01-01T20:18:15.000Z</time>
      </trkpt>
      <trkpt lat="46.03556" lon="6.85269">
        <ele>2782</ele>
        <time>2000-01-01T20:18:25.000Z</time>
      </trkpt>
      <trkpt lat="46.03578" lon="6.85309">
        <ele>2801</ele>
        <time>2000-01-01T20:18:35.000Z</time>
      </trkpt>
      <trkpt lat="46.03599" lon="6.85349">
        <ele>2811</ele>
        <time>2000-01-01T20:18:45.000Z</time>
      </trkpt>
      <trkpt lat="46.03621" lon="6.8539">
        <ele>2815</ele>
        <time>2000-01-01T20:18:55.000Z</time>
      </trkpt>
      <trkpt lat="46.03591" lon="6.85369">
        <ele>2813</ele>
        <time>2000-01-01T20:19:05.000Z</time>
      </trkpt>
      <trkpt lat="46.03561" lon="6.85348">
        <ele>2812</ele>
        <time>2000-01-01T20:19:15.000Z</time>
      </trkpt>
      <trkpt lat="46.03514" lon="6.85315">
        <ele>2812</ele>
        <time>2000-01-01T20:19:25.000Z</time>
      </trkpt>
      <trkpt lat="46.0349" lon="6.85281">
        <ele>2814</ele>
        <time>2000-01-01T20:19:35.000Z</time>
      </trkpt>
      <trkpt lat="46.03466" lon="6.85247">
        <ele>2813</ele>
        <time>2000-01-01T20:19:45.000Z</time>
      </trkpt>
      <trkpt lat="46.03427" lon="6.85193">
        <ele>2813</ele>
        <time>2000-01-01T20:19:55.000Z</time>
      </trkpt>
      <trkpt lat="46.03399" lon="6.85188">
        <ele>2814</ele>
        <time>2000-01-01T20:20:05.000Z</time>
      </trkpt>
      <trkpt lat="46.03383" lon="6.85156">
        <ele>2815</ele>
        <time>2000-01-01T20:20:15.000Z</time>
      </trkpt>
      <trkpt lat="46.03362" lon="6.85113">
        <ele>2821</ele>
        <time>2000-01-01T20:20:25.000Z</time>
      </trkpt>
      <trkpt lat="46.03332" lon="6.85094">
        <ele>2828</ele>
        <time>2000-01-01T20:20:35.000Z</time>
      </trkpt>
      <trkpt lat="46.03302" lon="6.85075">
        <ele>2841</ele>
        <time>2000-01-01T20:20:45.000Z</time>
      </trkpt>
      <trkpt lat="46.03262" lon="6.85049">
        <ele>2881</ele>
        <time>2000-01-01T20:20:55.000Z</time>
      </trkpt>
      <trkpt lat="46.03225" lon="6.85052">
        <ele>2904</ele>
        <time>2000-01-01T20:21:05.000Z</time>
      </trkpt>
      <trkpt lat="46.03189" lon="6.85055">
        <ele>2913</ele>
        <time>2000-01-01T20:21:15.000Z</time>
      </trkpt>
      <trkpt lat="46.03152" lon="6.85057">
        <ele>2922</ele>
        <time>2000-01-01T20:21:25.000Z</time>
      </trkpt>
      <trkpt lat="46.03093" lon="6.85062">
        <ele>2939</ele>
        <time>2000-01-01T20:21:35.000Z</time>
      </trkpt>
      <trkpt lat="46.03055" lon="6.85071">
        <ele>2946</ele>
        <time>2000-01-01T20:21:45.000Z</time>
      </trkpt>
      <trkpt lat="46.03016" lon="6.85081">
        <ele>2958</ele>
        <time>2000-01-01T20:21:55.000Z</time>
      </trkpt>
      <trkpt lat="46.02978" lon="6.8509">
        <ele>2970</ele>
        <time>2000-01-01T20:22:05.000Z</time>
      </trkpt>
      <trkpt lat="46.0294" lon="6.851">
        <ele>2975</ele>
        <time>2000-01-01T20:22:15.000Z</time>
      </trkpt>
      <trkpt lat="46.02867" lon="6.85118">
        <ele>2985</ele>
        <time>2000-01-01T20:22:25.000Z</time>
      </trkpt>
      <trkpt lat="46.02832" lon="6.85113">
        <ele>3000</ele>
        <time>2000-01-01T20:22:35.000Z</time>
      </trkpt>
      <trkpt lat="46.02796" lon="6.85108">
        <ele>3007</ele>
        <time>2000-01-01T20:22:45.000Z</time>
      </trkpt>
      <trkpt lat="46.02761" lon="6.85102">
        <ele>3019</ele>
        <time>2000-01-01T20:22:55.000Z</time>
      </trkpt>
      <trkpt lat="46.02718" lon="6.85096">
        <ele>3028</ele>
        <time>2000-01-01T20:23:05.000Z</time>
      </trkpt>
      <trkpt lat="46.02688" lon="6.85109">
        <ele>3042</ele>
        <time>2000-01-01T20:23:15.000Z</time>
      </trkpt>
      <trkpt lat="46.02629" lon="6.85135">
        <ele>3050</ele>
        <time>2000-01-01T20:23:25.000Z</time>
      </trkpt>
      <trkpt lat="46.02596" lon="6.8516">
        <ele>3051</ele>
        <time>2000-01-01T20:23:35.000Z</time>
      </trkpt>
      <trkpt lat="46.02564" lon="6.85185">
        <ele>3058</ele>
        <time>2000-01-01T20:23:45.000Z</time>
      </trkpt>
      <trkpt lat="46.02531" lon="6.85211">
        <ele>3070</ele>
        <time>2000-01-01T20:23:55.000Z</time>
      </trkpt>
      <trkpt lat="46.02474" lon="6.85255">
        <ele>3078</ele>
        <time>2000-01-01T20:24:05.000Z</time>
      </trkpt>
      <trkpt lat="46.02446" lon="6.85218">
        <ele>3079</ele>
        <time>2000-01-01T20:24:15.000Z</time>
      </trkpt>
      <trkpt lat="46.02419" lon="6.85181">
        <ele>3074</ele>
        <time>2000-01-01T20:24:25.000Z</time>
      </trkpt>
      <trkpt lat="46.02391" lon="6.85143">
        <ele>3069</ele>
        <time>2000-01-01T20:24:35.000Z</time>
      </trkpt>
      <trkpt lat="46.02364" lon="6.85106">
        <ele>3058</ele>
        <time>2000-01-01T20:24:45.000Z</time>
      </trkpt>
      <trkpt lat="46.02331" lon="6.85062">
        <ele>3053</ele>
        <time>2000-01-01T20:24:55.000Z</time>
      </trkpt>
      <trkpt lat="46.02296" lon="6.8504">
        <ele>3043</ele>
        <time>2000-01-01T20:25:05.000Z</time>
      </trkpt>
      <trkpt lat="46.02261" lon="6.85017">
        <ele>3028</ele>
        <time>2000-01-01T20:25:15.000Z</time>
      </trkpt>
      <trkpt lat="46.02225" lon="6.84995">
        <ele>3026</ele>
        <time>2000-01-01T20:25:25.000Z</time>
      </trkpt>
      <trkpt lat="46.0219" lon="6.84973">
        <ele>3025</ele>
        <time>2000-01-01T20:25:35.000Z</time>
      </trkpt>
      <trkpt lat="46.02134" lon="6.84937">
        <ele>3016</ele>
        <time>2000-01-01T20:25:45.000Z</time>
      </trkpt>
      <trkpt lat="46.02113" lon="6.84961">
        <ele>2987</ele>
        <time>2000-01-01T20:25:55.000Z</time>
      </trkpt>
      <trkpt lat="46.02087" lon="6.84991">
        <ele>2971</ele>
        <time>2000-01-01T20:26:05.000Z</time>
      </trkpt>
      <trkpt lat="46.02057" lon="6.84996">
        <ele>2955</ele>
        <time>2000-01-01T20:26:15.000Z</time>
      </trkpt>
      <trkpt lat="46.02005" lon="6.85006">
        <ele>2928</ele>
        <time>2000-01-01T20:26:25.000Z</time>
      </trkpt>
      <trkpt lat="46.01998" lon="6.85051">
        <ele>2921</ele>
        <time>2000-01-01T20:26:35.000Z</time>
      </trkpt>
      <trkpt lat="46.01991" lon="6.85097">
        <ele>2917</ele>
        <time>2000-01-01T20:26:45.000Z</time>
      </trkpt>
      <trkpt lat="46.01982" lon="6.85152">
        <ele>2913</ele>
        <time>2000-01-01T20:26:55.000Z</time>
      </trkpt>
      <trkpt lat="46.01954" lon="6.85159">
        <ele>2883</ele>
        <time>2000-01-01T20:27:05.000Z</time>
      </trkpt>
      <trkpt lat="46.01909" lon="6.85171">
        <ele>2837</ele>
        <time>2000-01-01T20:27:15.000Z</time>
      </trkpt>
      <trkpt lat="46.01882" lon="6.85186">
        <ele>2837</ele>
        <time>2000-01-01T20:27:25.000Z</time>
      </trkpt>
      <trkpt lat="46.01838" lon="6.85212">
        <ele>2797</ele>
        <time>2000-01-01T20:27:35.000Z</time>
      </trkpt>
      <trkpt lat="46.01803" lon="6.85201">
        <ele>2792</ele>
        <time>2000-01-01T20:27:45.000Z</time>
      </trkpt>
      <trkpt lat="46.01768" lon="6.8519">
        <ele>2754</ele>
        <time>2000-01-01T20:27:55.000Z</time>
      </trkpt>
      <trkpt lat="46.01734" lon="6.8518">
        <ele>2749</ele>
        <time>2000-01-01T20:28:05.000Z</time>
      </trkpt>
      <trkpt lat="46.01693" lon="6.85167">
        <ele>2744</ele>
        <time>2000-01-01T20:28:15.000Z</time>
      </trkpt>
      <trkpt lat="46.01659" lon="6.85138">
        <ele>2742</ele>
        <time>2000-01-01T20:28:25.000Z</time>
      </trkpt>
      <trkpt lat="46.01626" lon="6.85109">
        <ele>2725</ele>
        <time>2000-01-01T20:28:35.000Z</time>
      </trkpt>
      <trkpt lat="46.01592" lon="6.8508">
        <ele>2710</ele>
        <time>2000-01-01T20:28:45.000Z</time>
      </trkpt>
      <trkpt lat="46.01558" lon="6.85052">
        <ele>2705</ele>
        <time>2000-01-01T20:28:55.000Z</time>
      </trkpt>
      <trkpt lat="46.01524" lon="6.85023">
        <ele>2690</ele>
        <time>2000-01-01T20:29:05.000Z</time>
      </trkpt>
      <trkpt lat="46.01485" lon="6.84989">
        <ele>2671</ele>
        <time>2000-01-01T20:29:15.000Z</time>
      </trkpt>
      <trkpt lat="46.01457" lon="6.84991">
        <ele>2662</ele>
        <time>2000-01-01T20:29:25.000Z</time>
      </trkpt>
      <trkpt lat="46.01413" lon="6.84993">
        <ele>2643</ele>
        <time>2000-01-01T20:29:35.000Z</time>
      </trkpt>
      <trkpt lat="46.01381" lon="6.8502">
        <ele>2637</ele>
        <time>2000-01-01T20:29:45.000Z</time>
      </trkpt>
      <trkpt lat="46.01349" lon="6.85047">
        <ele>2632</ele>
        <time>2000-01-01T20:29:55.000Z</time>
      </trkpt>
      <trkpt lat="46.01317" lon="6.85074">
        <ele>2625</ele>
        <time>2000-01-01T20:30:05.000Z</time>
      </trkpt>
      <trkpt lat="46.01261" lon="6.85122">
        <ele>2618</ele>
        <time>2000-01-01T20:30:15.000Z</time>
      </trkpt>
      <trkpt lat="46.01236" lon="6.85166">
        <ele>2612</ele>
        <time>2000-01-01T20:30:25.000Z</time>
      </trkpt>
      <trkpt lat="46.01211" lon="6.85211">
        <ele>2603</ele>
        <time>2000-01-01T20:30:35.000Z</time>
      </trkpt>
      <trkpt lat="46.01186" lon="6.85255">
        <ele>2594</ele>
        <time>2000-01-01T20:30:45.000Z</time>
      </trkpt>
      <trkpt lat="46.01162" lon="6.85299">
        <ele>2574</ele>
        <time>2000-01-01T20:30:55.000Z</time>
      </trkpt>
      <trkpt lat="46.01137" lon="6.85344">
        <ele>2562</ele>
        <time>2000-01-01T20:31:05.000Z</time>
      </trkpt>
      <trkpt lat="46.011" lon="6.85409">
        <ele>2550</ele>
        <time>2000-01-01T20:31:15.000Z</time>
      </trkpt>
      <trkpt lat="46.01088" lon="6.85456">
        <ele>2537</ele>
        <time>2000-01-01T20:31:25.000Z</time>
      </trkpt>
      <trkpt lat="46.01076" lon="6.85504">
        <ele>2515</ele>
        <time>2000-01-01T20:31:35.000Z</time>
      </trkpt>
      <trkpt lat="46.01052" lon="6.85598">
        <ele>2513</ele>
        <time>2000-01-01T20:31:45.000Z</time>
      </trkpt>
      <trkpt lat="46.01015" lon="6.85605">
        <ele>2497</ele>
        <time>2000-01-01T20:31:55.000Z</time>
      </trkpt>
      <trkpt lat="46.00979" lon="6.85613">
        <ele>2495</ele>
        <time>2000-01-01T20:32:05.000Z</time>
      </trkpt>
      <trkpt lat="46.00942" lon="6.8562">
        <ele>2494</ele>
        <time>2000-01-01T20:32:15.000Z</time>
      </trkpt>
      <trkpt lat="46.00877" lon="6.85633">
        <ele>2494</ele>
        <time>2000-01-01T20:32:25.000Z</time>
      </trkpt>
      <trkpt lat="46.00847" lon="6.85607">
        <ele>2495</ele>
        <time>2000-01-01T20:32:35.000Z</time>
      </trkpt>
      <trkpt lat="46.00816" lon="6.85582">
        <ele>2502</ele>
        <time>2000-01-01T20:32:45.000Z</time>
      </trkpt>
      <trkpt lat="46.00786" lon="6.85556">
        <ele>2507</ele>
        <time>2000-01-01T20:32:55.000Z</time>
      </trkpt>
      <trkpt lat="46.00754" lon="6.8553">
        <ele>2510</ele>
        <time>2000-01-01T20:33:05.000Z</time>
      </trkpt>
      <trkpt lat="46.00731" lon="6.85526">
        <ele>2513</ele>
        <time>2000-01-01T20:33:15.000Z</time>
      </trkpt>
      <trkpt lat="46.00707" lon="6.85521">
        <ele>2510</ele>
        <time>2000-01-01T20:33:25.000Z</time>
      </trkpt>
      <trkpt lat="46.00697" lon="6.85465">
        <ele>2508</ele>
        <time>2000-01-01T20:33:35.000Z</time>
      </trkpt>
      <trkpt lat="46.00687" lon="6.85409">
        <ele>2493</ele>
        <time>2000-01-01T20:33:45.000Z</time>
      </trkpt>
      <trkpt lat="46.00677" lon="6.85353">
        <ele>2481</ele>
        <time>2000-01-01T20:33:55.000Z</time>
      </trkpt>
      <trkpt lat="46.00667" lon="6.85297">
        <ele>2459</ele>
        <time>2000-01-01T20:34:05.000Z</time>
      </trkpt>
      <trkpt lat="46.00656" lon="6.85241">
        <ele>2454</ele>
        <time>2000-01-01T20:34:15.000Z</time>
      </trkpt>
      <trkpt lat="46.00646" lon="6.85185">
        <ele>2429</ele>
        <time>2000-01-01T20:34:25.000Z</time>
      </trkpt>
      <trkpt lat="46.00635" lon="6.85122">
        <ele>2408</ele>
        <time>2000-01-01T20:34:35.000Z</time>
      </trkpt>
      <trkpt lat="46.00629" lon="6.8508">
        <ele>2392</ele>
        <time>2000-01-01T20:34:45.000Z</time>
      </trkpt>
      <trkpt lat="46.0062" lon="6.8501">
        <ele>2369</ele>
        <time>2000-01-01T20:34:55.000Z</time>
      </trkpt>
      <trkpt lat="46.00621" lon="6.84955">
        <ele>2361</ele>
        <time>2000-01-01T20:35:05.000Z</time>
      </trkpt>
      <trkpt lat="46.00622" lon="6.84899">
        <ele>2354</ele>
        <time>2000-01-01T20:35:15.000Z</time>
      </trkpt>
      <trkpt lat="46.00623" lon="6.84844">
        <ele>2345</ele>
        <time>2000-01-01T20:35:25.000Z</time>
      </trkpt>
      <trkpt lat="46.00624" lon="6.84788">
        <ele>2341</ele>
        <time>2000-01-01T20:35:35.000Z</time>
      </trkpt>
      <trkpt lat="46.00626" lon="6.84697">
        <ele>2330</ele>
        <time>2000-01-01T20:35:45.000Z</time>
      </trkpt>
      <trkpt lat="46.00637" lon="6.84658">
        <ele>2324</ele>
        <time>2000-01-01T20:35:55.000Z</time>
      </trkpt>
      <trkpt lat="46.00656" lon="6.84594">
        <ele>2315</ele>
        <time>2000-01-01T20:36:05.000Z</time>
      </trkpt>
      <trkpt lat="46.0068" lon="6.84572">
        <ele>2307</ele>
        <time>2000-01-01T20:36:15.000Z</time>
      </trkpt>
      <trkpt lat="46.00719" lon="6.84538">
        <ele>2283</ele>
        <time>2000-01-01T20:36:25.000Z</time>
      </trkpt>
      <trkpt lat="46.00718" lon="6.84491">
        <ele>2271</ele>
        <time>2000-01-01T20:36:35.000Z</time>
      </trkpt>
      <trkpt lat="46.00717" lon="6.84444">
        <ele>2255</ele>
        <time>2000-01-01T20:36:45.000Z</time>
      </trkpt>
      <trkpt lat="46.00716" lon="6.84384">
        <ele>2233</ele>
        <time>2000-01-01T20:36:55.000Z</time>
      </trkpt>
      <trkpt lat="46.00691" lon="6.84362">
        <ele>2222</ele>
        <time>2000-01-01T20:37:05.000Z</time>
      </trkpt>
      <trkpt lat="46.00647" lon="6.84324">
        <ele>2198</ele>
        <time>2000-01-01T20:37:15.000Z</time>
      </trkpt>
      <trkpt lat="46.00659" lon="6.84285">
        <ele>2182</ele>
        <time>2000-01-01T20:37:25.000Z</time>
      </trkpt>
      <trkpt lat="46.0068" lon="6.84216">
        <ele>2170</ele>
        <time>2000-01-01T20:37:35.000Z</time>
      </trkpt>
      <trkpt lat="46.0066" lon="6.84181">
        <ele>2161</ele>
        <time>2000-01-01T20:37:45.000Z</time>
      </trkpt>
      <trkpt lat="46.00641" lon="6.84146">
        <ele>2154</ele>
        <time>2000-01-01T20:37:55.000Z</time>
      </trkpt>
      <trkpt lat="46.0062" lon="6.84109">
        <ele>2144</ele>
        <time>2000-01-01T20:38:05.000Z</time>
      </trkpt>
      <trkpt lat="46.0059" lon="6.84083">
        <ele>2137</ele>
        <time>2000-01-01T20:38:15.000Z</time>
      </trkpt>
      <trkpt lat="46.0056" lon="6.84057">
        <ele>2135</ele>
        <time>2000-01-01T20:38:25.000Z</time>
      </trkpt>
      <trkpt lat="46.00501" lon="6.84006">
        <ele>2116</ele>
        <time>2000-01-01T20:38:35.000Z</time>
      </trkpt>
      <trkpt lat="46.00477" lon="6.84002">
        <ele>2113</ele>
        <time>2000-01-01T20:38:45.000Z</time>
      </trkpt>
      <trkpt lat="46.0045" lon="6.83998">
        <ele>2109</ele>
        <time>2000-01-01T20:38:55.000Z</time>
      </trkpt>
      <trkpt lat="46.00423" lon="6.8397">
        <ele>2108</ele>
        <time>2000-01-01T20:39:05.000Z</time>
      </trkpt>
      <trkpt lat="46.00396" lon="6.83942">
        <ele>2103</ele>
        <time>2000-01-01T20:39:15.000Z</time>
      </trkpt>
      <trkpt lat="46.00358" lon="6.83903">
        <ele>2088</ele>
        <time>2000-01-01T20:39:25.000Z</time>
      </trkpt>
      <trkpt lat="46.00329" lon="6.83908">
        <ele>2077</ele>
        <time>2000-01-01T20:39:35.000Z</time>
      </trkpt>
      <trkpt lat="46.0028" lon="6.83916">
        <ele>2061</ele>
        <time>2000-01-01T20:39:45.000Z</time>
      </trkpt>
      <trkpt lat="46.00264" lon="6.83877">
        <ele>2045</ele>
        <time>2000-01-01T20:39:55.000Z</time>
      </trkpt>
      <trkpt lat="46.00233" lon="6.838">
        <ele>2032</ele>
        <time>2000-01-01T20:40:05.000Z</time>
      </trkpt>
      <trkpt lat="46.00199" lon="6.8377">
        <ele>2023</ele>
        <time>2000-01-01T20:40:15.000Z</time>
      </trkpt>
      <trkpt lat="46.00165" lon="6.83739">
        <ele>2018</ele>
        <time>2000-01-01T20:40:25.000Z</time>
      </trkpt>
      <trkpt lat="46.00131" lon="6.83709">
        <ele>2013</ele>
        <time>2000-01-01T20:40:35.000Z</time>
      </trkpt>
      <trkpt lat="46.00097" lon="6.83679">
        <ele>2013</ele>
        <time>2000-01-01T20:40:45.000Z</time>
      </trkpt>
      <trkpt lat="46.00064" lon="6.83648">
        <ele>2011</ele>
        <time>2000-01-01T20:40:55.000Z</time>
      </trkpt>
      <trkpt lat="46.00003" lon="6.83594">
        <ele>1997</ele>
        <time>2000-01-01T20:41:05.000Z</time>
      </trkpt>
      <trkpt lat="45.99971" lon="6.83555">
        <ele>1994</ele>
        <time>2000-01-01T20:41:15.000Z</time>
      </trkpt>
      <trkpt lat="45.99939" lon="6.83516">
        <ele>1974</ele>
        <time>2000-01-01T20:41:25.000Z</time>
      </trkpt>
      <trkpt lat="45.99907" lon="6.83477">
        <ele>1970</ele>
        <time>2000-01-01T20:41:35.000Z</time>
      </trkpt>
      <trkpt lat="45.99875" lon="6.83438">
        <ele>1965</ele>
        <time>2000-01-01T20:41:45.000Z</time>
      </trkpt>
      <trkpt lat="45.99843" lon="6.83398">
        <ele>1960</ele>
        <time>2000-01-01T20:41:55.000Z</time>
      </trkpt>
      <trkpt lat="45.99811" lon="6.83359">
        <ele>1952</ele>
        <time>2000-01-01T20:42:05.000Z</time>
      </trkpt>
      <trkpt lat="45.99779" lon="6.8332">
        <ele>1950</ele>
        <time>2000-01-01T20:42:15.000Z</time>
      </trkpt>
      <trkpt lat="45.99747" lon="6.83281">
        <ele>1949</ele>
        <time>2000-01-01T20:42:25.000Z</time>
      </trkpt>
      <trkpt lat="45.9969" lon="6.83212">
        <ele>1945</ele>
        <time>2000-01-01T20:42:35.000Z</time>
      </trkpt>
      <trkpt lat="45.99651" lon="6.83197">
        <ele>1944</ele>
        <time>2000-01-01T20:42:45.000Z</time>
      </trkpt>
      <trkpt lat="45.99612" lon="6.83182">
        <ele>1943</ele>
        <time>2000-01-01T20:42:55.000Z</time>
      </trkpt>
      <trkpt lat="45.99572" lon="6.83167">
        <ele>1937</ele>
        <time>2000-01-01T20:43:05.000Z</time>
      </trkpt>
      <trkpt lat="45.99533" lon="6.83152">
        <ele>1935</ele>
        <time>2000-01-01T20:43:15.000Z</time>
      </trkpt>
      <trkpt lat="45.99494" lon="6.83138">
        <ele>1931</ele>
        <time>2000-01-01T20:43:25.000Z</time>
      </trkpt>
      <trkpt lat="45.99455" lon="6.83123">
        <ele>1928</ele>
        <time>2000-01-01T20:43:35.000Z</time>
      </trkpt>
      <trkpt lat="45.99398" lon="6.83101">
        <ele>1919</ele>
        <time>2000-01-01T20:43:45.000Z</time>
      </trkpt>
      <trkpt lat="45.99372" lon="6.83101">
        <ele>1911</ele>
        <time>2000-01-01T20:43:55.000Z</time>
      </trkpt>
      <trkpt lat="45.99338" lon="6.83101">
        <ele>1908</ele>
        <time>2000-01-01T20:44:05.000Z</time>
      </trkpt>
      <trkpt lat="45.99309" lon="6.8311">
        <ele>1892</ele>
        <time>2000-01-01T20:44:15.000Z</time>
      </trkpt>
      <trkpt lat="45.99258" lon="6.83126">
        <ele>1883</ele>
        <time>2000-01-01T20:44:25.000Z</time>
      </trkpt>
      <trkpt lat="45.99233" lon="6.83118">
        <ele>1881</ele>
        <time>2000-01-01T20:44:35.000Z</time>
      </trkpt>
      <trkpt lat="45.99204" lon="6.83109">
        <ele>1881</ele>
        <time>2000-01-01T20:44:45.000Z</time>
      </trkpt>
      <trkpt lat="45.99174" lon="6.83088">
        <ele>1881</ele>
        <time>2000-01-01T20:44:55.000Z</time>
      </trkpt>
      <trkpt lat="45.99145" lon="6.83068">
        <ele>1888</ele>
        <time>2000-01-01T20:45:05.000Z</time>
      </trkpt>
      <trkpt lat="45.99106" lon="6.83041">
        <ele>1888</ele>
        <time>2000-01-01T20:45:15.000Z</time>
      </trkpt>
      <trkpt lat="45.99066" lon="6.83036">
        <ele>1892</ele>
        <time>2000-01-01T20:45:25.000Z</time>
      </trkpt>
      <trkpt lat="45.99025" lon="6.83031">
        <ele>1892</ele>
        <time>2000-01-01T20:45:35.000Z</time>
      </trkpt>
      <trkpt lat="45.98985" lon="6.83025">
        <ele>1891</ele>
        <time>2000-01-01T20:45:45.000Z</time>
      </trkpt>
      <trkpt lat="45.98944" lon="6.8302">
        <ele>1890</ele>
        <time>2000-01-01T20:45:55.000Z</time>
      </trkpt>
      <trkpt lat="45.98904" lon="6.83015">
        <ele>1888</ele>
        <time>2000-01-01T20:46:05.000Z</time>
      </trkpt>
      <trkpt lat="45.98864" lon="6.8301">
        <ele>1886</ele>
        <time>2000-01-01T20:46:15.000Z</time>
      </trkpt>
      <trkpt lat="45.98805" lon="6.83002">
        <ele>1886</ele>
        <time>2000-01-01T20:46:25.000Z</time>
      </trkpt>
      <trkpt lat="45.98774" lon="6.83008">
        <ele>1886</ele>
        <time>2000-01-01T20:46:35.000Z</time>
      </trkpt>
      <trkpt lat="45.98742" lon="6.83013">
        <ele>1888</ele>
        <time>2000-01-01T20:46:45.000Z</time>
      </trkpt>
      <trkpt lat="45.98709" lon="6.83019">
        <ele>1890</ele>
        <time>2000-01-01T20:46:55.000Z</time>
      </trkpt>
      <trkpt lat="45.9868" lon="6.83016">
        <ele>1891</ele>
        <time>2000-01-01T20:47:05.000Z</time>
      </trkpt>
      <trkpt lat="45.98632" lon="6.83011">
        <ele>1886</ele>
        <time>2000-01-01T20:47:15.000Z</time>
      </trkpt>
      <trkpt lat="45.98595" lon="6.83003">
        <ele>1884</ele>
        <time>2000-01-01T20:47:25.000Z</time>
      </trkpt>
      <trkpt lat="45.98557" lon="6.82994">
        <ele>1889</ele>
        <time>2000-01-01T20:47:35.000Z</time>
      </trkpt>
      <trkpt lat="45.9852" lon="6.82986">
        <ele>1885</ele>
        <time>2000-01-01T20:47:45.000Z</time>
      </trkpt>
      <trkpt lat="45.98483" lon="6.82977">
        <ele>1881</ele>
        <time>2000-01-01T20:47:55.000Z</time>
      </trkpt>
      <trkpt lat="45.98441" lon="6.82968">
        <ele>1883</ele>
        <time>2000-01-01T20:48:05.000Z</time>
      </trkpt>
      <trkpt lat="45.98406" lon="6.82948">
        <ele>1886</ele>
        <time>2000-01-01T20:48:15.000Z</time>
      </trkpt>
      <trkpt lat="45.98372" lon="6.82928">
        <ele>1893</ele>
        <time>2000-01-01T20:48:25.000Z</time>
      </trkpt>
      <trkpt lat="45.98337" lon="6.82908">
        <ele>1897</ele>
        <time>2000-01-01T20:48:35.000Z</time>
      </trkpt>
      <trkpt lat="45.98271" lon="6.82869">
        <ele>1899</ele>
        <time>2000-01-01T20:48:45.000Z</time>
      </trkpt>
      <trkpt lat="45.98239" lon="6.82843">
        <ele>1901</ele>
        <time>2000-01-01T20:48:55.000Z</time>
      </trkpt>
      <trkpt lat="45.98206" lon="6.82818">
        <ele>1903</ele>
        <time>2000-01-01T20:49:05.000Z</time>
      </trkpt>
      <trkpt lat="45.98174" lon="6.82792">
        <ele>1893</ele>
        <time>2000-01-01T20:49:15.000Z</time>
      </trkpt>
      <trkpt lat="45.98119" lon="6.82749">
        <ele>1884</ele>
        <time>2000-01-01T20:49:25.000Z</time>
      </trkpt>
      <trkpt lat="45.981" lon="6.82709">
        <ele>1884</ele>
        <time>2000-01-01T20:49:35.000Z</time>
      </trkpt>
      <trkpt lat="45.9808" lon="6.82669">
        <ele>1888</ele>
        <time>2000-01-01T20:49:45.000Z</time>
      </trkpt>
      <trkpt lat="45.9805" lon="6.82607">
        <ele>1886</ele>
        <time>2000-01-01T20:49:55.000Z</time>
      </trkpt>
      <trkpt lat="45.98052" lon="6.82657">
        <ele>1885</ele>
        <time>2000-01-01T20:50:05.000Z</time>
      </trkpt>
      <trkpt lat="45.98055" lon="6.82706">
        <ele>1874</ele>
        <time>2000-01-01T20:50:15.000Z</time>
      </trkpt>
      <trkpt lat="45.98059" lon="6.82796">
        <ele>1860</ele>
        <time>2000-01-01T20:50:25.000Z</time>
      </trkpt>
      <trkpt lat="45.98078" lon="6.82841">
        <ele>1858</ele>
        <time>2000-01-01T20:50:35.000Z</time>
      </trkpt>
      <trkpt lat="45.98097" lon="6.82887">
        <ele>1857</ele>
        <time>2000-01-01T20:50:45.000Z</time>
      </trkpt>
      <trkpt lat="45.98115" lon="6.82932">
        <ele>1857</ele>
        <time>2000-01-01T20:50:55.000Z</time>
      </trkpt>
      <trkpt lat="45.98146" lon="6.83006">
        <ele>1845</ele>
        <time>2000-01-01T20:51:05.000Z</time>
      </trkpt>
      <trkpt lat="45.98174" lon="6.83046">
        <ele>1845</ele>
        <time>2000-01-01T20:51:15.000Z</time>
      </trkpt>
      <trkpt lat="45.98203" lon="6.83086">
        <ele>1841</ele>
        <time>2000-01-01T20:51:25.000Z</time>
      </trkpt>
      <trkpt lat="45.98231" lon="6.83126">
        <ele>1832</ele>
        <time>2000-01-01T20:51:35.000Z</time>
      </trkpt>
      <trkpt lat="45.98259" lon="6.83166">
        <ele>1818</ele>
        <time>2000-01-01T20:51:45.000Z</time>
      </trkpt>
      <trkpt lat="45.98287" lon="6.83206">
        <ele>1798</ele>
        <time>2000-01-01T20:51:55.000Z</time>
      </trkpt>
      <trkpt lat="45.98331" lon="6.83268">
        <ele>1796</ele>
        <time>2000-01-01T20:52:05.000Z</time>
      </trkpt>
      <trkpt lat="45.98311" lon="6.83304">
        <ele>1796</ele>
        <time>2000-01-01T20:52:15.000Z</time>
      </trkpt>
      <trkpt lat="45.98291" lon="6.83339">
        <ele>1796</ele>
        <time>2000-01-01T20:52:25.000Z</time>
      </trkpt>
      <trkpt lat="45.98268" lon="6.8338">
        <ele>1801</ele>
        <time>2000-01-01T20:52:35.000Z</time>
      </trkpt>
      <trkpt lat="45.98231" lon="6.83401">
        <ele>1806</ele>
        <time>2000-01-01T20:52:45.000Z</time>
      </trkpt>
      <trkpt lat="45.98193" lon="6.83422">
        <ele>1813</ele>
        <time>2000-01-01T20:52:55.000Z</time>
      </trkpt>
      <trkpt lat="45.98156" lon="6.83443">
        <ele>1817</ele>
        <time>2000-01-01T20:53:05.000Z</time>
      </trkpt>
      <trkpt lat="45.98119" lon="6.83464">
        <ele>1822</ele>
        <time>2000-01-01T20:53:15.000Z</time>
      </trkpt>
      <trkpt lat="45.98081" lon="6.83485">
        <ele>1822</ele>
        <time>2000-01-01T20:53:25.000Z</time>
      </trkpt>
      <trkpt lat="45.98008" lon="6.83526">
        <ele>1822</ele>
        <time>2000-01-01T20:53:35.000Z</time>
      </trkpt>
      <trkpt lat="45.97978" lon="6.83534">
        <ele>1822</ele>
        <time>2000-01-01T20:53:45.000Z</time>
      </trkpt>
      <trkpt lat="45.97919" lon="6.83551">
        <ele>1822</ele>
        <time>2000-01-01T20:53:55.000Z</time>
      </trkpt>
      <trkpt lat="45.97898" lon="6.83576">
        <ele>1823</ele>
        <time>2000-01-01T20:54:05.000Z</time>
      </trkpt>
      <trkpt lat="45.97868" lon="6.83611">
        <ele>1823</ele>
        <time>2000-01-01T20:54:15.000Z</time>
      </trkpt>
      <trkpt lat="45.97854" lon="6.83572">
        <ele>1818</ele>
        <time>2000-01-01T20:54:25.000Z</time>
      </trkpt>
      <trkpt lat="45.97828" lon="6.835">
        <ele>1807</ele>
        <time>2000-01-01T20:54:35.000Z</time>
      </trkpt>
      <trkpt lat="45.97802" lon="6.83463">
        <ele>1802</ele>
        <time>2000-01-01T20:54:45.000Z</time>
      </trkpt>
      <trkpt lat="45.97776" lon="6.83426">
        <ele>1799</ele>
        <time>2000-01-01T20:54:55.000Z</time>
      </trkpt>
      <trkpt lat="45.9775" lon="6.83389">
        <ele>1792</ele>
        <time>2000-01-01T20:55:05.000Z</time>
      </trkpt>
      <trkpt lat="45.97707" lon="6.83328">
        <ele>1774</ele>
        <time>2000-01-01T20:55:15.000Z</time>
      </trkpt>
      <trkpt lat="45.97686" lon="6.83287">
        <ele>1760</ele>
        <time>2000-01-01T20:55:25.000Z</time>
      </trkpt>
      <trkpt lat="45.97664" lon="6.83246">
        <ele>1750</ele>
        <time>2000-01-01T20:55:35.000Z</time>
      </trkpt>
      <trkpt lat="45.97643" lon="6.83205">
        <ele>1737</ele>
        <time>2000-01-01T20:55:45.000Z</time>
      </trkpt>
      <trkpt lat="45.97618" lon="6.83156">
        <ele>1720</ele>
        <time>2000-01-01T20:55:55.000Z</time>
      </trkpt>
      <trkpt lat="45.97583" lon="6.83132">
        <ele>1720</ele>
        <time>2000-01-01T20:56:05.000Z</time>
      </trkpt>
      <trkpt lat="45.97547" lon="6.83108">
        <ele>1709</ele>
        <time>2000-01-01T20:56:15.000Z</time>
      </trkpt>
      <trkpt lat="45.97512" lon="6.83084">
        <ele>1706</ele>
        <time>2000-01-01T20:56:25.000Z</time>
      </trkpt>
      <trkpt lat="45.97477" lon="6.8306">
        <ele>1704</ele>
        <time>2000-01-01T20:56:35.000Z</time>
      </trkpt>
      <trkpt lat="45.97442" lon="6.83035">
        <ele>1695</ele>
        <time>2000-01-01T20:56:45.000Z</time>
      </trkpt>
      <trkpt lat="45.97406" lon="6.83011">
        <ele>1686</ele>
        <time>2000-01-01T20:56:55.000Z</time>
      </trkpt>
      <trkpt lat="45.97378" lon="6.8303">
        <ele>1677</ele>
        <time>2000-01-01T20:57:05.000Z</time>
      </trkpt>
      <trkpt lat="45.97325" lon="6.83066">
        <ele>1676</ele>
        <time>2000-01-01T20:57:15.000Z</time>
      </trkpt>
      <trkpt lat="45.97291" lon="6.83063">
        <ele>1672</ele>
        <time>2000-01-01T20:57:25.000Z</time>
      </trkpt>
      <trkpt lat="45.97257" lon="6.83059">
        <ele>1675</ele>
        <time>2000-01-01T20:57:35.000Z</time>
      </trkpt>
      <trkpt lat="45.97197" lon="6.83053">
        <ele>1672</ele>
        <time>2000-01-01T20:57:45.000Z</time>
      </trkpt>
      <trkpt lat="45.97167" lon="6.83027">
        <ele>1670</ele>
        <time>2000-01-01T20:57:55.000Z</time>
      </trkpt>
      <trkpt lat="45.97136" lon="6.83001">
        <ele>1664</ele>
        <time>2000-01-01T20:58:05.000Z</time>
      </trkpt>
      <trkpt lat="45.97106" lon="6.82975">
        <ele>1657</ele>
        <time>2000-01-01T20:58:15.000Z</time>
      </trkpt>
      <trkpt lat="45.97072" lon="6.82946">
        <ele>1651</ele>
        <time>2000-01-01T20:58:25.000Z</time>
      </trkpt>
      <trkpt lat="45.97052" lon="6.82909">
        <ele>1634</ele>
        <time>2000-01-01T20:58:35.000Z</time>
      </trkpt>
      <trkpt lat="45.97031" lon="6.82872">
        <ele>1634</ele>
        <time>2000-01-01T20:58:45.000Z</time>
      </trkpt>
      <trkpt lat="45.97003" lon="6.82821">
        <ele>1628</ele>
        <time>2000-01-01T20:58:55.000Z</time>
      </trkpt>
      <trkpt lat="45.96969" lon="6.82812">
        <ele>1638</ele>
        <time>2000-01-01T20:59:05.000Z</time>
      </trkpt>
      <trkpt lat="45.96935" lon="6.82803">
        <ele>1648</ele>
        <time>2000-01-01T20:59:15.000Z</time>
      </trkpt>
      <trkpt lat="45.96872" lon="6.82787">
        <ele>1653</ele>
        <time>2000-01-01T20:59:25.000Z</time>
      </trkpt>
      <trkpt lat="45.96842" lon="6.82771">
        <ele>1657</ele>
        <time>2000-01-01T20:59:35.000Z</time>
      </trkpt>
      <trkpt lat="45.96813" lon="6.82755">
        <ele>1662</ele>
        <time>2000-01-01T20:59:45.000Z</time>
      </trkpt>
      <trkpt lat="45.96781" lon="6.82738">
        <ele>1664</ele>
        <time>2000-01-01T20:59:55.000Z</time>
      </trkpt>
      <trkpt lat="45.96747" lon="6.82733">
        <ele>1680</ele>
        <time>2000-01-01T21:00:05.000Z</time>
      </trkpt>
      <trkpt lat="45.96712" lon="6.82727">
        <ele>1690</ele>
        <time>2000-01-01T21:00:15.000Z</time>
      </trkpt>
      <trkpt lat="45.9665" lon="6.82718">
        <ele>1703</ele>
        <time>2000-01-01T21:00:25.000Z</time>
      </trkpt>
      <trkpt lat="45.96626" lon="6.82694">
        <ele>1701</ele>
        <time>2000-01-01T21:00:35.000Z</time>
      </trkpt>
      <trkpt lat="45.96586" lon="6.82653">
        <ele>1715</ele>
        <time>2000-01-01T21:00:45.000Z</time>
      </trkpt>
      <trkpt lat="45.96549" lon="6.82656">
        <ele>1730</ele>
        <time>2000-01-01T21:00:55.000Z</time>
      </trkpt>
      <trkpt lat="45.96511" lon="6.82658">
        <ele>1742</ele>
        <time>2000-01-01T21:01:05.000Z</time>
      </trkpt>
      <trkpt lat="45.96474" lon="6.82661">
        <ele>1749</ele>
        <time>2000-01-01T21:01:15.000Z</time>
      </trkpt>
      <trkpt lat="45.96402" lon="6.82666">
        <ele>1756</ele>
        <time>2000-01-01T21:01:25.000Z</time>
      </trkpt>
      <trkpt lat="45.96368" lon="6.82703">
        <ele>1756</ele>
        <time>2000-01-01T21:01:35.000Z</time>
      </trkpt>
      <trkpt lat="45.96334" lon="6.82739">
        <ele>1758</ele>
        <time>2000-01-01T21:01:45.000Z</time>
      </trkpt>
      <trkpt lat="45.963" lon="6.82776">
        <ele>1765</ele>
        <time>2000-01-01T21:01:55.000Z</time>
      </trkpt>
      <trkpt lat="45.96266" lon="6.82812">
        <ele>1773</ele>
        <time>2000-01-01T21:02:05.000Z</time>
      </trkpt>
      <trkpt lat="45.96232" lon="6.82849">
        <ele>1774</ele>
        <time>2000-01-01T21:02:15.000Z</time>
      </trkpt>
      <trkpt lat="45.96198" lon="6.82885">
        <ele>1782</ele>
        <time>2000-01-01T21:02:25.000Z</time>
      </trkpt>
      <trkpt lat="45.96164" lon="6.82922">
        <ele>1790</ele>
        <time>2000-01-01T21:02:35.000Z</time>
      </trkpt>
      <trkpt lat="45.9613" lon="6.82959">
        <ele>1792</ele>
        <time>2000-01-01T21:02:45.000Z</time>
      </trkpt>
      <trkpt lat="45.96096" lon="6.82995">
        <ele>1799</ele>
        <time>2000-01-01T21:02:55.000Z</time>
      </trkpt>
      <trkpt lat="45.96042" lon="6.83054">
        <ele>1809</ele>
        <time>2000-01-01T21:03:05.000Z</time>
      </trkpt>
      <trkpt lat="45.96006" lon="6.83078">
        <ele>1815</ele>
        <time>2000-01-01T21:03:15.000Z</time>
      </trkpt>
      <trkpt lat="45.9597" lon="6.83102">
        <ele>1817</ele>
        <time>2000-01-01T21:03:25.000Z</time>
      </trkpt>
      <trkpt lat="45.95934" lon="6.83125">
        <ele>1819</ele>
        <time>2000-01-01T21:03:35.000Z</time>
      </trkpt>
      <trkpt lat="45.95898" lon="6.83149">
        <ele>1824</ele>
        <time>2000-01-01T21:03:45.000Z</time>
      </trkpt>
      <trkpt lat="45.95862" lon="6.83173">
        <ele>1827</ele>
        <time>2000-01-01T21:03:55.000Z</time>
      </trkpt>
      <trkpt lat="45.95808" lon="6.83209">
        <ele>1833</ele>
        <time>2000-01-01T21:04:05.000Z</time>
      </trkpt>
      <trkpt lat="45.9577" lon="6.83226">
        <ele>1849</ele>
        <time>2000-01-01T21:04:15.000Z</time>
      </trkpt>
      <trkpt lat="45.95733" lon="6.83243">
        <ele>1849</ele>
        <time>2000-01-01T21:04:25.000Z</time>
      </trkpt>
      <trkpt lat="45.95695" lon="6.8326">
        <ele>1849</ele>
        <time>2000-01-01T21:04:35.000Z</time>
      </trkpt>
      <trkpt lat="45.95658" lon="6.83277">
        <ele>1856</ele>
        <time>2000-01-01T21:04:45.000Z</time>
      </trkpt>
      <trkpt lat="45.9562" lon="6.83294">
        <ele>1856</ele>
        <time>2000-01-01T21:04:55.000Z</time>
      </trkpt>
      <trkpt lat="45.95574" lon="6.83315">
        <ele>1854</ele>
        <time>2000-01-01T21:05:05.000Z</time>
      </trkpt>
      <trkpt lat="45.95549" lon="6.83349">
        <ele>1863</ele>
        <time>2000-01-01T21:05:15.000Z</time>
      </trkpt>
      <trkpt lat="45.95524" lon="6.83383">
        <ele>1866</ele>
        <time>2000-01-01T21:05:25.000Z</time>
      </trkpt>
      <trkpt lat="45.95478" lon="6.83446">
        <ele>1865</ele>
        <time>2000-01-01T21:05:35.000Z</time>
      </trkpt>
      <trkpt lat="45.95443" lon="6.83459">
        <ele>1865</ele>
        <time>2000-01-01T21:05:45.000Z</time>
      </trkpt>
      <trkpt lat="45.95409" lon="6.83472">
        <ele>1874</ele>
        <time>2000-01-01T21:05:55.000Z</time>
      </trkpt>
      <trkpt lat="45.95374" lon="6.83485">
        <ele>1877</ele>
        <time>2000-01-01T21:06:05.000Z</time>
      </trkpt>
      <trkpt lat="45.9533" lon="6.83501">
        <ele>1882</ele>
        <time>2000-01-01T21:06:15.000Z</time>
      </trkpt>
      <trkpt lat="45.95308" lon="6.83518">
        <ele>1887</ele>
        <time>2000-01-01T21:06:25.000Z</time>
      </trkpt>
      <trkpt lat="45.95283" lon="6.83538">
        <ele>1899</ele>
        <time>2000-01-01T21:06:35.000Z</time>
      </trkpt>
      <trkpt lat="45.95246" lon="6.83528">
        <ele>1909</ele>
        <time>2000-01-01T21:06:45.000Z</time>
      </trkpt>
      <trkpt lat="45.95208" lon="6.83518">
        <ele>1911</ele>
        <time>2000-01-01T21:06:55.000Z</time>
      </trkpt>
      <trkpt lat="45.95171" lon="6.83509">
        <ele>1915</ele>
        <time>2000-01-01T21:07:05.000Z</time>
      </trkpt>
      <trkpt lat="45.95134" lon="6.83499">
        <ele>1922</ele>
        <time>2000-01-01T21:07:15.000Z</time>
      </trkpt>
      <trkpt lat="45.95089" lon="6.83487">
        <ele>1927</ele>
        <time>2000-01-01T21:07:25.000Z</time>
      </trkpt>
      <trkpt lat="45.95064" lon="6.83468">
        <ele>1926</ele>
        <time>2000-01-01T21:07:35.000Z</time>
      </trkpt>
      <trkpt lat="45.95025" lon="6.83439">
        <ele>1936</ele>
        <time>2000-01-01T21:07:45.000Z</time>
      </trkpt>
      <trkpt lat="45.95" lon="6.83447">
        <ele>1939</ele>
        <time>2000-01-01T21:07:55.000Z</time>
      </trkpt>
      <trkpt lat="45.94972" lon="6.83456">
        <ele>1942</ele>
        <time>2000-01-01T21:08:05.000Z</time>
      </trkpt>
      <trkpt lat="45.94942" lon="6.8348">
        <ele>1949</ele>
        <time>2000-01-01T21:08:15.000Z</time>
      </trkpt>
      <trkpt lat="45.94911" lon="6.83504">
        <ele>1955</ele>
        <time>2000-01-01T21:08:25.000Z</time>
      </trkpt>
      <trkpt lat="45.94856" lon="6.83547">
        <ele>1971</ele>
        <time>2000-01-01T21:08:35.000Z</time>
      </trkpt>
      <trkpt lat="45.9483" lon="6.83549">
        <ele>1983</ele>
        <time>2000-01-01T21:08:45.000Z</time>
      </trkpt>
      <trkpt lat="45.94796" lon="6.83552">
        <ele>1989</ele>
        <time>2000-01-01T21:08:55.000Z</time>
      </trkpt>
      <trkpt lat="45.94766" lon="6.83547">
        <ele>1996</ele>
        <time>2000-01-01T21:09:05.000Z</time>
      </trkpt>
      <trkpt lat="45.94714" lon="6.83538">
        <ele>2002</ele>
        <time>2000-01-01T21:09:15.000Z</time>
      </trkpt>
      <trkpt lat="45.94692" lon="6.8352">
        <ele>2016</ele>
        <time>2000-01-01T21:09:25.000Z</time>
      </trkpt>
      <trkpt lat="45.94699" lon="6.83573">
        <ele>2040</ele>
        <time>2000-01-01T21:09:35.000Z</time>
      </trkpt>
      <trkpt lat="45.94674" lon="6.83583">
        <ele>2046</ele>
        <time>2000-01-01T21:09:45.000Z</time>
      </trkpt>
      <trkpt lat="45.94691" lon="6.83608">
        <ele>2049</ele>
        <time>2000-01-01T21:09:55.000Z</time>
      </trkpt>
      <trkpt lat="45.94708" lon="6.83633">
        <ele>2054</ele>
        <time>2000-01-01T21:10:05.000Z</time>
      </trkpt>
      <trkpt lat="45.94662" lon="6.83641">
        <ele>2061</ele>
        <time>2000-01-01T21:10:15.000Z</time>
      </trkpt>
      <trkpt lat="45.94664" lon="6.83659">
        <ele>2073.6</ele>
        <time>2000-01-01T21:10:25.000Z</time>
      </trkpt>
      <trkpt lat="45.94717" lon="6.83693">
        <ele>2060</ele>
        <time>2000-01-01T21:10:35.000Z</time>
      </trkpt>
      <trkpt lat="45.94748" lon="6.83698">
        <ele>2059</ele>
        <time>2000-01-01T21:10:45.000Z</time>
      </trkpt>
      <trkpt lat="45.9478" lon="6.83704">
        <ele>2050</ele>
        <time>2000-01-01T21:10:55.000Z</time>
      </trkpt>
      <trkpt lat="45.94814" lon="6.8371">
        <ele>2051</ele>
        <time>2000-01-01T21:11:05.000Z</time>
      </trkpt>
      <trkpt lat="45.94836" lon="6.83744">
        <ele>2052</ele>
        <time>2000-01-01T21:11:15.000Z</time>
      </trkpt>
      <trkpt lat="45.94859" lon="6.83777">
        <ele>2052</ele>
        <time>2000-01-01T21:11:25.000Z</time>
      </trkpt>
      <trkpt lat="45.94886" lon="6.83819">
        <ele>2052</ele>
        <time>2000-01-01T21:11:35.000Z</time>
      </trkpt>
      <trkpt lat="45.94912" lon="6.83823">
        <ele>2064</ele>
        <time>2000-01-01T21:11:45.000Z</time>
      </trkpt>
      <trkpt lat="45.94944" lon="6.83828">
        <ele>2068</ele>
        <time>2000-01-01T21:11:55.000Z</time>
      </trkpt>
      <trkpt lat="45.94964" lon="6.83861">
        <ele>2088</ele>
        <time>2000-01-01T21:12:05.000Z</time>
      </trkpt>
      <trkpt lat="45.95001" lon="6.83924">
        <ele>2095</ele>
        <time>2000-01-01T21:12:15.000Z</time>
      </trkpt>
      <trkpt lat="45.95032" lon="6.8392">
        <ele>2102</ele>
        <time>2000-01-01T21:12:25.000Z</time>
      </trkpt>
      <trkpt lat="45.95036" lon="6.8394">
        <ele>2116.8</ele>
        <time>2000-01-01T21:12:35.000Z</time>
      </trkpt>
      <trkpt lat="45.95082" lon="6.83946">
        <ele>2114</ele>
        <time>2000-01-01T21:12:45.000Z</time>
      </trkpt>
      <trkpt lat="45.95117" lon="6.83985">
        <ele>2124</ele>
        <time>2000-01-01T21:12:55.000Z</time>
      </trkpt>
      <trkpt lat="45.95149" lon="6.83997">
        <ele>2126</ele>
        <time>2000-01-01T21:13:05.000Z</time>
      </trkpt>
      <trkpt lat="45.95181" lon="6.8401">
        <ele>2128</ele>
        <time>2000-01-01T21:13:15.000Z</time>
      </trkpt>
      <trkpt lat="45.95224" lon="6.84027">
        <ele>2142</ele>
        <time>2000-01-01T21:13:25.000Z</time>
      </trkpt>
      <trkpt lat="45.95242" lon="6.84072">
        <ele>2151</ele>
        <time>2000-01-01T21:13:35.000Z</time>
      </trkpt>
      <trkpt lat="45.95275" lon="6.84078">
        <ele>2155</ele>
        <time>2000-01-01T21:13:45.000Z</time>
      </trkpt>
      <trkpt lat="45.95308" lon="6.84083">
        <ele>2160</ele>
        <time>2000-01-01T21:13:55.000Z</time>
      </trkpt>
      <trkpt lat="45.95358" lon="6.84092">
        <ele>2161</ele>
        <time>2000-01-01T21:14:05.000Z</time>
      </trkpt>
      <trkpt lat="45.9536" lon="6.84133">
        <ele>2182</ele>
        <time>2000-01-01T21:14:15.000Z</time>
      </trkpt>
      <trkpt lat="45.95399" lon="6.84149">
        <ele>2184</ele>
        <time>2000-01-01T21:14:25.000Z</time>
      </trkpt>
      <trkpt lat="45.95384" lon="6.84186">
        <ele>2195</ele>
        <time>2000-01-01T21:14:35.000Z</time>
      </trkpt>
      <trkpt lat="45.95401" lon="6.842">
        <ele>2203</ele>
        <time>2000-01-01T21:14:45.000Z</time>
      </trkpt>
      <trkpt lat="45.9538" lon="6.84224">
        <ele>2212</ele>
        <time>2000-01-01T21:14:55.000Z</time>
      </trkpt>
      <trkpt lat="45.95404" lon="6.84233">
        <ele>2212</ele>
        <time>2000-01-01T21:15:05.000Z</time>
      </trkpt>
      <trkpt lat="45.95429" lon="6.84242">
        <ele>2219</ele>
        <time>2000-01-01T21:15:15.000Z</time>
      </trkpt>
      <trkpt lat="45.95442" lon="6.84273">
        <ele>2228</ele>
        <time>2000-01-01T21:15:25.000Z</time>
      </trkpt>
      <trkpt lat="45.95457" lon="6.84309">
        <ele>2239</ele>
        <time>2000-01-01T21:15:35.000Z</time>
      </trkpt>
      <trkpt lat="45.95493" lon="6.84333">
        <ele>2251</ele>
        <time>2000-01-01T21:15:45.000Z</time>
      </trkpt>
      <trkpt lat="45.95507" lon="6.84362">
        <ele>2258</ele>
        <time>2000-01-01T21:15:55.000Z</time>
      </trkpt>
      <trkpt lat="45.95536" lon="6.8437">
        <ele>2259</ele>
        <time>2000-01-01T21:16:05.000Z</time>
      </trkpt>
      <trkpt lat="45.95589" lon="6.84384">
        <ele>2268</ele>
        <time>2000-01-01T21:16:15.000Z</time>
      </trkpt>
      <trkpt lat="45.95604" lon="6.84432">
        <ele>2269</ele>
        <time>2000-01-01T21:16:25.000Z</time>
      </trkpt>
      <trkpt lat="45.95619" lon="6.84479">
        <ele>2272</ele>
        <time>2000-01-01T21:16:35.000Z</time>
      </trkpt>
      <trkpt lat="45.95634" lon="6.84527">
        <ele>2279</ele>
        <time>2000-01-01T21:16:45.000Z</time>
      </trkpt>
      <trkpt lat="45.95657" lon="6.84598">
        <ele>2277</ele>
        <time>2000-01-01T21:16:55.000Z</time>
      </trkpt>
      <trkpt lat="45.95689" lon="6.84603">
        <ele>2277</ele>
        <time>2000-01-01T21:17:05.000Z</time>
      </trkpt>
      <trkpt lat="45.95721" lon="6.84607">
        <ele>2277</ele>
        <time>2000-01-01T21:17:15.000Z</time>
      </trkpt>
      <trkpt lat="45.95761" lon="6.84613">
        <ele>2277</ele>
        <time>2000-01-01T21:17:25.000Z</time>
      </trkpt>
      <trkpt lat="45.95784" lon="6.84601">
        <ele>2281</ele>
        <time>2000-01-01T21:17:35.000Z</time>
      </trkpt>
      <trkpt lat="45.95808" lon="6.84588">
        <ele>2281</ele>
        <time>2000-01-01T21:17:45.000Z</time>
      </trkpt>
      <trkpt lat="45.95833" lon="6.8459">
        <ele>2276</ele>
        <time>2000-01-01T21:17:55.000Z</time>
      </trkpt>
      <trkpt lat="45.95853" lon="6.8457">
        <ele>2276</ele>
        <time>2000-01-01T21:18:05.000Z</time>
      </trkpt>
      <trkpt lat="45.95881" lon="6.84572">
        <ele>2271</ele>
        <time>2000-01-01T21:18:15.000Z</time>
      </trkpt>
      <trkpt lat="45.959" lon="6.84551">
        <ele>2266</ele>
        <time>2000-01-01T21:18:25.000Z</time>
      </trkpt>
      <trkpt lat="45.9592" lon="6.84528">
        <ele>2265</ele>
        <time>2000-01-01T21:18:35.000Z</time>
      </trkpt>
      <trkpt lat="45.95933" lon="6.84489">
        <ele>2264</ele>
        <time>2000-01-01T21:18:45.000Z</time>
      </trkpt>
      <trkpt lat="45.95956" lon="6.84487">
        <ele>2264</ele>
        <time>2000-01-01T21:18:55.000Z</time>
      </trkpt>
      <trkpt lat="45.9596" lon="6.84543">
        <ele>2269</ele>
        <time>2000-01-01T21:19:05.000Z</time>
      </trkpt>
      <trkpt lat="45.9599" lon="6.84514">
        <ele>2270</ele>
        <time>2000-01-01T21:19:15.000Z</time>
      </trkpt>
      <trkpt lat="45.95991" lon="6.8456">
        <ele>2284</ele>
        <time>2000-01-01T21:19:25.000Z</time>
      </trkpt>
      <trkpt lat="45.95992" lon="6.84607">
        <ele>2289</ele>
        <time>2000-01-01T21:19:35.000Z</time>
      </trkpt>
      <trkpt lat="45.95994" lon="6.84662">
        <ele>2289</ele>
        <time>2000-01-01T21:19:45.000Z</time>
      </trkpt>
      <trkpt lat="45.96002" lon="6.84701">
        <ele>2288</ele>
        <time>2000-01-01T21:19:55.000Z</time>
      </trkpt>
      <trkpt lat="45.96015" lon="6.84763">
        <ele>2288</ele>
        <time>2000-01-01T21:20:05.000Z</time>
      </trkpt>
      <trkpt lat="45.96008" lon="6.84801">
        <ele>2288</ele>
        <time>2000-01-01T21:20:15.000Z</time>
      </trkpt>
      <trkpt lat="45.95999" lon="6.84855">
        <ele>2286</ele>
        <time>2000-01-01T21:20:25.000Z</time>
      </trkpt>
      <trkpt lat="45.95969" lon="6.84889">
        <ele>2284</ele>
        <time>2000-01-01T21:20:35.000Z</time>
      </trkpt>
      <trkpt lat="45.95952" lon="6.84932">
        <ele>2284</ele>
        <time>2000-01-01T21:20:45.000Z</time>
      </trkpt>
      <trkpt lat="45.95935" lon="6.84975">
        <ele>2284</ele>
        <time>2000-01-01T21:20:55.000Z</time>
      </trkpt>
      <trkpt lat="45.95904" lon="6.85054">
        <ele>2287</ele>
        <time>2000-01-01T21:21:05.000Z</time>
      </trkpt>
      <trkpt lat="45.9588" lon="6.85075">
        <ele>2291</ele>
        <time>2000-01-01T21:21:15.000Z</time>
      </trkpt>
      <trkpt lat="45.95844" lon="6.85106">
        <ele>2295</ele>
        <time>2000-01-01T21:21:25.000Z</time>
      </trkpt>
      <trkpt lat="45.95832" lon="6.85152">
        <ele>2304</ele>
        <time>2000-01-01T21:21:35.000Z</time>
      </trkpt>
      <trkpt lat="45.95821" lon="6.85198">
        <ele>2320</ele>
        <time>2000-01-01T21:21:45.000Z</time>
      </trkpt>
      <trkpt lat="45.95802" lon="6.85273">
        <ele>2325</ele>
        <time>2000-01-01T21:21:55.000Z</time>
      </trkpt>
      <trkpt lat="45.95817" lon="6.85306">
        <ele>2330</ele>
        <time>2000-01-01T21:22:05.000Z</time>
      </trkpt>
      <trkpt lat="45.95839" lon="6.85352">
        <ele>2350</ele>
        <time>2000-01-01T21:22:15.000Z</time>
      </trkpt>
      <trkpt lat="45.95864" lon="6.85372">
        <ele>2358</ele>
        <time>2000-01-01T21:22:25.000Z</time>
      </trkpt>
      <trkpt lat="45.95902" lon="6.85402">
        <ele>2365</ele>
        <time>2000-01-01T21:22:35.000Z</time>
      </trkpt>
      <trkpt lat="45.95915" lon="6.8545">
        <ele>2376</ele>
        <time>2000-01-01T21:22:45.000Z</time>
      </trkpt>
      <trkpt lat="45.95927" lon="6.85499">
        <ele>2388</ele>
        <time>2000-01-01T21:22:55.000Z</time>
      </trkpt>
      <trkpt lat="45.9594" lon="6.85547">
        <ele>2403</ele>
        <time>2000-01-01T21:23:05.000Z</time>
      </trkpt>
      <trkpt lat="45.95957" lon="6.85612">
        <ele>2431</ele>
        <time>2000-01-01T21:23:15.000Z</time>
      </trkpt>
      <trkpt lat="45.95991" lon="6.85611">
        <ele>2433</ele>
        <time>2000-01-01T21:23:25.000Z</time>
      </trkpt>
      <trkpt lat="45.95994" lon="6.85646">
        <ele>2443</ele>
        <time>2000-01-01T21:23:35.000Z</time>
      </trkpt>
      <trkpt lat="45.96016" lon="6.85656">
        <ele>2443</ele>
        <time>2000-01-01T21:23:45.000Z</time>
      </trkpt>
      <trkpt lat="45.96039" lon="6.85666">
        <ele>2454</ele>
        <time>2000-01-01T21:23:55.000Z</time>
      </trkpt>
      <trkpt lat="45.96058" lon="6.85691">
        <ele>2462</ele>
        <time>2000-01-01T21:24:05.000Z</time>
      </trkpt>
      <trkpt lat="45.96082" lon="6.85723">
        <ele>2460</ele>
        <time>2000-01-01T21:24:15.000Z</time>
      </trkpt>
      <trkpt lat="45.96114" lon="6.8574">
        <ele>2459</ele>
        <time>2000-01-01T21:24:25.000Z</time>
      </trkpt>
      <trkpt lat="45.96126" lon="6.85771">
        <ele>2440</ele>
        <time>2000-01-01T21:24:35.000Z</time>
      </trkpt>
      <trkpt lat="45.9613" lon="6.85834">
        <ele>2434</ele>
        <time>2000-01-01T21:24:45.000Z</time>
      </trkpt>
      <trkpt lat="45.96149" lon="6.85859">
        <ele>2429</ele>
        <time>2000-01-01T21:24:55.000Z</time>
      </trkpt>
      <trkpt lat="45.9615" lon="6.85898">
        <ele>2422</ele>
        <time>2000-01-01T21:25:05.000Z</time>
      </trkpt>
      <trkpt lat="45.96152" lon="6.8595">
        <ele>2416</ele>
        <time>2000-01-01T21:25:15.000Z</time>
      </trkpt>
      <trkpt lat="45.96134" lon="6.85925">
        <ele>2410</ele>
        <time>2000-01-01T21:25:25.000Z</time>
      </trkpt>
      <trkpt lat="45.96113" lon="6.85895">
        <ele>2409</ele>
        <time>2000-01-01T21:25:35.000Z</time>
      </trkpt>
      <trkpt lat="45.96114" lon="6.85929">
        <ele>2395</ele>
        <time>2000-01-01T21:25:45.000Z</time>
      </trkpt>
      <trkpt lat="45.96116" lon="6.85964">
        <ele>2379</ele>
        <time>2000-01-01T21:25:55.000Z</time>
      </trkpt>
      <trkpt lat="45.96124" lon="6.85998">
        <ele>2374</ele>
        <time>2000-01-01T21:26:05.000Z</time>
      </trkpt>
      <trkpt lat="45.96134" lon="6.86039">
        <ele>2373</ele>
        <time>2000-01-01T21:26:15.000Z</time>
      </trkpt>
      <trkpt lat="45.96152" lon="6.86073">
        <ele>2365</ele>
        <time>2000-01-01T21:26:25.000Z</time>
      </trkpt>
      <trkpt lat="45.96185" lon="6.86135">
        <ele>2357</ele>
        <time>2000-01-01T21:26:35.000Z</time>
      </trkpt>
      <trkpt lat="45.96177" lon="6.86148">
        <ele>2348.8</ele>
        <time>2000-01-01T21:26:45.000Z</time>
      </trkpt>
      <trkpt lat="45.96155" lon="6.8612">
        <ele>2350</ele>
        <time>2000-01-01T21:26:55.000Z</time>
      </trkpt>
      <trkpt lat="45.96162" lon="6.86177">
        <ele>2344</ele>
        <time>2000-01-01T21:27:05.000Z</time>
      </trkpt>
      <trkpt lat="45.96169" lon="6.86234">
        <ele>2320</ele>
        <time>2000-01-01T21:27:15.000Z</time>
      </trkpt>
      <trkpt lat="45.96176" lon="6.86291">
        <ele>2300</ele>
        <time>2000-01-01T21:27:25.000Z</time>
      </trkpt>
      <trkpt lat="45.96183" lon="6.86348">
        <ele>2294</ele>
        <time>2000-01-01T21:27:35.000Z</time>
      </trkpt>
      <trkpt lat="45.9619" lon="6.86405">
        <ele>2289</ele>
        <time>2000-01-01T21:27:45.000Z</time>
      </trkpt>
      <trkpt lat="45.96197" lon="6.86462">
        <ele>2264</ele>
        <time>2000-01-01T21:27:55.000Z</time>
      </trkpt>
      <trkpt lat="45.96205" lon="6.86523">
        <ele>2260</ele>
        <time>2000-01-01T21:28:05.000Z</time>
      </trkpt>
      <trkpt lat="45.96216" lon="6.86561">
        <ele>2257</ele>
        <time>2000-01-01T21:28:15.000Z</time>
      </trkpt>
      <trkpt lat="45.96235" lon="6.86624">
        <ele>2255</ele>
        <time>2000-01-01T21:28:25.000Z</time>
      </trkpt>
      <trkpt lat="45.96254" lon="6.86659">
        <ele>2254</ele>
        <time>2000-01-01T21:28:35.000Z</time>
      </trkpt>
      <trkpt lat="45.9629" lon="6.86724">
        <ele>2244</ele>
        <time>2000-01-01T21:28:45.000Z</time>
      </trkpt>
      <trkpt lat="45.96307" lon="6.86771">
        <ele>2247</ele>
        <time>2000-01-01T21:28:55.000Z</time>
      </trkpt>
      <trkpt lat="45.96325" lon="6.86818">
        <ele>2244</ele>
        <time>2000-01-01T21:29:05.000Z</time>
      </trkpt>
      <trkpt lat="45.96342" lon="6.86865">
        <ele>2242</ele>
        <time>2000-01-01T21:29:15.000Z</time>
      </trkpt>
      <trkpt lat="45.96374" lon="6.86951">
        <ele>2234</ele>
        <time>2000-01-01T21:29:25.000Z</time>
      </trkpt>
      <trkpt lat="45.96345" lon="6.86976">
        <ele>2221</ele>
        <time>2000-01-01T21:29:35.000Z</time>
      </trkpt>
      <trkpt lat="45.96356" lon="6.87028">
        <ele>2209</ele>
        <time>2000-01-01T21:29:45.000Z</time>
      </trkpt>
      <trkpt lat="45.96331" lon="6.87028">
        <ele>2194</ele>
        <time>2000-01-01T21:29:55.000Z</time>
      </trkpt>
      <trkpt lat="45.96349" lon="6.87087">
        <ele>2180</ele>
        <time>2000-01-01T21:30:05.000Z</time>
      </trkpt>
      <trkpt lat="45.96349" lon="6.87125">
        <ele>2163</ele>
        <time>2000-01-01T21:30:15.000Z</time>
      </trkpt>
      <trkpt lat="45.96349" lon="6.87172">
        <ele>2152</ele>
        <time>2000-01-01T21:30:25.000Z</time>
      </trkpt>
      <trkpt lat="45.96321" lon="6.87184">
        <ele>2152</ele>
        <time>2000-01-01T21:30:35.000Z</time>
      </trkpt>
      <trkpt lat="45.96276" lon="6.87204">
        <ele>2114</ele>
        <time>2000-01-01T21:30:45.000Z</time>
      </trkpt>
      <trkpt lat="45.96243" lon="6.87203">
        <ele>2103</ele>
        <time>2000-01-01T21:30:55.000Z</time>
      </trkpt>
      <trkpt lat="45.9621" lon="6.87233">
        <ele>2086</ele>
        <time>2000-01-01T21:31:05.000Z</time>
      </trkpt>
      <trkpt lat="45.96192" lon="6.87264">
        <ele>2081</ele>
        <time>2000-01-01T21:31:15.000Z</time>
      </trkpt>
      <trkpt lat="45.96167" lon="6.87308">
        <ele>2064</ele>
        <time>2000-01-01T21:31:25.000Z</time>
      </trkpt>
      <trkpt lat="45.96158" lon="6.87347">
        <ele>2063</ele>
        <time>2000-01-01T21:31:35.000Z</time>
      </trkpt>
      <trkpt lat="45.96143" lon="6.87411">
        <ele>2036</ele>
        <time>2000-01-01T21:31:45.000Z</time>
      </trkpt>
      <trkpt lat="45.96146" lon="6.87472">
        <ele>2030</ele>
        <time>2000-01-01T21:31:55.000Z</time>
      </trkpt>
      <trkpt lat="45.96111" lon="6.87481">
        <ele>2014</ele>
        <time>2000-01-01T21:32:05.000Z</time>
      </trkpt>
      <trkpt lat="45.96081" lon="6.87458">
        <ele>2003</ele>
        <time>2000-01-01T21:32:15.000Z</time>
      </trkpt>
      <trkpt lat="45.9609" lon="6.87497">
        <ele>1999</ele>
        <time>2000-01-01T21:32:25.000Z</time>
      </trkpt>
      <trkpt lat="45.96104" lon="6.87557">
        <ele>1996</ele>
        <time>2000-01-01T21:32:35.000Z</time>
      </trkpt>
      <trkpt lat="45.9609" lon="6.87602">
        <ele>1988</ele>
        <time>2000-01-01T21:32:45.000Z</time>
      </trkpt>
      <trkpt lat="45.96076" lon="6.87647">
        <ele>1981</ele>
        <time>2000-01-01T21:32:55.000Z</time>
      </trkpt>
      <trkpt lat="45.96052" lon="6.87725">
        <ele>1976</ele>
        <time>2000-01-01T21:33:05.000Z</time>
      </trkpt>
      <trkpt lat="45.96039" lon="6.87731">
        <ele>1962.3</ele>
        <time>2000-01-01T21:33:15.000Z</time>
      </trkpt>
      <trkpt lat="45.9601" lon="6.87689">
        <ele>1932</ele>
        <time>2000-01-01T21:33:25.000Z</time>
      </trkpt>
      <trkpt lat="45.9599" lon="6.87712">
        <ele>1930</ele>
        <time>2000-01-01T21:33:35.000Z</time>
      </trkpt>
      <trkpt lat="45.95981" lon="6.87676">
        <ele>1920</ele>
        <time>2000-01-01T21:33:45.000Z</time>
      </trkpt>
      <trkpt lat="45.9597" lon="6.87629">
        <ele>1917</ele>
        <time>2000-01-01T21:33:55.000Z</time>
      </trkpt>
      <trkpt lat="45.95942" lon="6.87663">
        <ele>1907</ele>
        <time>2000-01-01T21:34:05.000Z</time>
      </trkpt>
      <trkpt lat="45.95936" lon="6.87627">
        <ele>1901</ele>
        <time>2000-01-01T21:34:15.000Z</time>
      </trkpt>
      <trkpt lat="45.95928" lon="6.87581">
        <ele>1896</ele>
        <time>2000-01-01T21:34:25.000Z</time>
      </trkpt>
      <trkpt lat="45.95901" lon="6.87556">
        <ele>1889</ele>
        <time>2000-01-01T21:34:35.000Z</time>
      </trkpt>
      <trkpt lat="45.95875" lon="6.87531">
        <ele>1890</ele>
        <time>2000-01-01T21:34:45.000Z</time>
      </trkpt>
      <trkpt lat="45.95846" lon="6.87504">
        <ele>1884</ele>
        <time>2000-01-01T21:34:55.000Z</time>
      </trkpt>
      <trkpt lat="45.95849" lon="6.87539">
        <ele>1878</ele>
        <time>2000-01-01T21:35:05.000Z</time>
      </trkpt>
      <trkpt lat="45.95853" lon="6.87578">
        <ele>1864</ele>
        <time>2000-01-01T21:35:15.000Z</time>
      </trkpt>
      <trkpt lat="45.95841" lon="6.87627">
        <ele>1860</ele>
        <time>2000-01-01T21:35:25.000Z</time>
      </trkpt>
      <trkpt lat="45.95831" lon="6.87632">
        <ele>1855.9</ele>
        <time>2000-01-01T21:35:35.000Z</time>
      </trkpt>
      <trkpt lat="45.95804" lon="6.87595">
        <ele>1857</ele>
        <time>2000-01-01T21:35:45.000Z</time>
      </trkpt>
      <trkpt lat="45.9579" lon="6.87633">
        <ele>1836</ele>
        <time>2000-01-01T21:35:55.000Z</time>
      </trkpt>
      <trkpt lat="45.95764" lon="6.87703">
        <ele>1821</ele>
        <time>2000-01-01T21:36:05.000Z</time>
      </trkpt>
      <trkpt lat="45.95739" lon="6.87671">
        <ele>1820</ele>
        <time>2000-01-01T21:36:15.000Z</time>
      </trkpt>
      <trkpt lat="45.95714" lon="6.87639">
        <ele>1820</ele>
        <time>2000-01-01T21:36:25.000Z</time>
      </trkpt>
      <trkpt lat="45.95677" lon="6.87592">
        <ele>1809</ele>
        <time>2000-01-01T21:36:35.000Z</time>
      </trkpt>
      <trkpt lat="45.9568" lon="6.8763">
        <ele>1809</ele>
        <time>2000-01-01T21:36:45.000Z</time>
      </trkpt>
      <trkpt lat="45.95685" lon="6.87678">
        <ele>1788</ele>
        <time>2000-01-01T21:36:55.000Z</time>
      </trkpt>
      <trkpt lat="45.95675" lon="6.87722">
        <ele>1780</ele>
        <time>2000-01-01T21:37:05.000Z</time>
      </trkpt>
      <trkpt lat="45.95666" lon="6.87766">
        <ele>1776</ele>
        <time>2000-01-01T21:37:15.000Z</time>
      </trkpt>
      <trkpt lat="45.95655" lon="6.87817">
        <ele>1756</ele>
        <time>2000-01-01T21:37:25.000Z</time>
      </trkpt>
      <trkpt lat="45.95667" lon="6.87857">
        <ele>1760</ele>
        <time>2000-01-01T21:37:35.000Z</time>
      </trkpt>
      <trkpt lat="45.9569" lon="6.87929">
        <ele>1747</ele>
        <time>2000-01-01T21:37:45.000Z</time>
      </trkpt>
      <trkpt lat="45.95683" lon="6.87969">
        <ele>1735</ele>
        <time>2000-01-01T21:37:55.000Z</time>
      </trkpt>
      <trkpt lat="45.95671" lon="6.88034">
        <ele>1735</ele>
        <time>2000-01-01T21:38:05.000Z</time>
      </trkpt>
      <trkpt lat="45.95677" lon="6.88068">
        <ele>1735</ele>
        <time>2000-01-01T21:38:15.000Z</time>
      </trkpt>
      <trkpt lat="45.95683" lon="6.88103">
        <ele>1737</ele>
        <time>2000-01-01T21:38:25.000Z</time>
      </trkpt>
      <trkpt lat="45.95664" lon="6.88147">
        <ele>1730</ele>
        <time>2000-01-01T21:38:35.000Z</time>
      </trkpt>
      <trkpt lat="45.95646" lon="6.8819">
        <ele>1724</ele>
        <time>2000-01-01T21:38:45.000Z</time>
      </trkpt>
      <trkpt lat="45.95627" lon="6.88234">
        <ele>1721</ele>
        <time>2000-01-01T21:38:55.000Z</time>
      </trkpt>
      <trkpt lat="45.95606" lon="6.88285">
        <ele>1710</ele>
        <time>2000-01-01T21:39:05.000Z</time>
      </trkpt>
      <trkpt lat="45.95607" lon="6.88329">
        <ele>1703</ele>
        <time>2000-01-01T21:39:15.000Z</time>
      </trkpt>
      <trkpt lat="45.9561" lon="6.88411">
        <ele>1687</ele>
        <time>2000-01-01T21:39:25.000Z</time>
      </trkpt>
      <trkpt lat="45.95621" lon="6.88459">
        <ele>1690</ele>
        <time>2000-01-01T21:39:35.000Z</time>
      </trkpt>
      <trkpt lat="45.95632" lon="6.88506">
        <ele>1686</ele>
        <time>2000-01-01T21:39:45.000Z</time>
      </trkpt>
      <trkpt lat="45.95653" lon="6.88598">
        <ele>1683</ele>
        <time>2000-01-01T21:39:55.000Z</time>
      </trkpt>
      <trkpt lat="45.95615" lon="6.88561">
        <ele>1672</ele>
        <time>2000-01-01T21:40:05.000Z</time>
      </trkpt>
      <trkpt lat="45.95594" lon="6.88509">
        <ele>1658</ele>
        <time>2000-01-01T21:40:15.000Z</time>
      </trkpt>
      <trkpt lat="45.95585" lon="6.88533">
        <ele>1655</ele>
        <time>2000-01-01T21:40:25.000Z</time>
      </trkpt>
      <trkpt lat="45.95598" lon="6.88574">
        <ele>1625</ele>
        <time>2000-01-01T21:40:35.000Z</time>
      </trkpt>
      <trkpt lat="45.95563" lon="6.88557">
        <ele>1625</ele>
        <time>2000-01-01T21:40:45.000Z</time>
      </trkpt>
      <trkpt lat="45.95554" lon="6.8852">
        <ele>1619</ele>
        <time>2000-01-01T21:40:55.000Z</time>
      </trkpt>
      <trkpt lat="45.95541" lon="6.88468">
        <ele>1614</ele>
        <time>2000-01-01T21:41:05.000Z</time>
      </trkpt>
      <trkpt lat="45.95531" lon="6.8853">
        <ele>1614</ele>
        <time>2000-01-01T21:41:15.000Z</time>
      </trkpt>
      <trkpt lat="45.95528" lon="6.88489">
        <ele>1614</ele>
        <time>2000-01-01T21:41:25.000Z</time>
      </trkpt>
      <trkpt lat="45.95511" lon="6.88456">
        <ele>1611</ele>
        <time>2000-01-01T21:41:35.000Z</time>
      </trkpt>
      <trkpt lat="45.95483" lon="6.88402">
        <ele>1609</ele>
        <time>2000-01-01T21:41:45.000Z</time>
      </trkpt>
      <trkpt lat="45.95486" lon="6.88453">
        <ele>1598</ele>
        <time>2000-01-01T21:41:55.000Z</time>
      </trkpt>
      <trkpt lat="45.95489" lon="6.88505">
        <ele>1593</ele>
        <time>2000-01-01T21:42:05.000Z</time>
      </trkpt>
      <trkpt lat="45.95492" lon="6.88556">
        <ele>1588</ele>
        <time>2000-01-01T21:42:15.000Z</time>
      </trkpt>
      <trkpt lat="45.95496" lon="6.88622">
        <ele>1586</ele>
        <time>2000-01-01T21:42:25.000Z</time>
      </trkpt>
      <trkpt lat="45.95485" lon="6.88588">
        <ele>1583</ele>
        <time>2000-01-01T21:42:35.000Z</time>
      </trkpt>
      <trkpt lat="45.95471" lon="6.88545">
        <ele>1581</ele>
        <time>2000-01-01T21:42:45.000Z</time>
      </trkpt>
      <trkpt lat="45.95449" lon="6.88508">
        <ele>1563</ele>
        <time>2000-01-01T21:42:55.000Z</time>
      </trkpt>
      <trkpt lat="45.95426" lon="6.88471">
        <ele>1550</ele>
        <time>2000-01-01T21:43:05.000Z</time>
      </trkpt>
      <trkpt lat="45.95389" lon="6.88409">
        <ele>1548</ele>
        <time>2000-01-01T21:43:15.000Z</time>
      </trkpt>
      <trkpt lat="45.95365" lon="6.88418">
        <ele>1526</ele>
        <time>2000-01-01T21:43:25.000Z</time>
      </trkpt>
      <trkpt lat="45.95357" lon="6.88399">
        <ele>1531.7</ele>
        <time>2000-01-01T21:43:35.000Z</time>
      </trkpt>
      <trkpt lat="45.95349" lon="6.88423">
        <ele>1520</ele>
        <time>2000-01-01T21:43:45.000Z</time>
      </trkpt>
      <trkpt lat="45.9533" lon="6.88403">
        <ele>1515</ele>
        <time>2000-01-01T21:43:55.000Z</time>
      </trkpt>
      <trkpt lat="45.95318" lon="6.8844">
        <ele>1502</ele>
        <time>2000-01-01T21:44:05.000Z</time>
      </trkpt>
      <trkpt lat="45.953" lon="6.88499">
        <ele>1490</ele>
        <time>2000-01-01T21:44:15.000Z</time>
      </trkpt>
      <trkpt lat="45.95277" lon="6.88456">
        <ele>1475</ele>
        <time>2000-01-01T21:44:25.000Z</time>
      </trkpt>
      <trkpt lat="45.9527" lon="6.88476">
        <ele>1466.4</ele>
        <time>2000-01-01T21:44:35.000Z</time>
      </trkpt>
      <trkpt lat="45.95249" lon="6.88453">
        <ele>1453</ele>
        <time>2000-01-01T21:44:45.000Z</time>
      </trkpt>
      <trkpt lat="45.95214" lon="6.88485">
        <ele>1444</ele>
        <time>2000-01-01T21:44:55.000Z</time>
      </trkpt>
      <trkpt lat="45.95212" lon="6.88451">
        <ele>1436</ele>
        <time>2000-01-01T21:45:05.000Z</time>
      </trkpt>
      <trkpt lat="45.95209" lon="6.88415">
        <ele>1431</ele>
        <time>2000-01-01T21:45:15.000Z</time>
      </trkpt>
      <trkpt lat="45.95191" lon="6.8839">
        <ele>1426</ele>
        <time>2000-01-01T21:45:25.000Z</time>
      </trkpt>
      <trkpt lat="45.9517" lon="6.8836">
        <ele>1427</ele>
        <time>2000-01-01T21:45:35.000Z</time>
      </trkpt>
      <trkpt lat="45.95161" lon="6.88329">
        <ele>1415</ele>
        <time>2000-01-01T21:45:45.000Z</time>
      </trkpt>
      <trkpt lat="45.95151" lon="6.88297">
        <ele>1404</ele>
        <time>2000-01-01T21:45:55.000Z</time>
      </trkpt>
      <trkpt lat="45.95146" lon="6.88245">
        <ele>1403</ele>
        <time>2000-01-01T21:46:05.000Z</time>
      </trkpt>
      <trkpt lat="45.9514" lon="6.88194">
        <ele>1403</ele>
        <time>2000-01-01T21:46:15.000Z</time>
      </trkpt>
      <trkpt lat="45.95135" lon="6.88142">
        <ele>1401</ele>
        <time>2000-01-01T21:46:25.000Z</time>
      </trkpt>
      <trkpt lat="45.95127" lon="6.88069">
        <ele>1400</ele>
        <time>2000-01-01T21:46:35.000Z</time>
      </trkpt>
      <trkpt lat="45.95099" lon="6.88051">
        <ele>1402</ele>
        <time>2000-01-01T21:46:45.000Z</time>
      </trkpt>
      <trkpt lat="45.95048" lon="6.88017">
        <ele>1397</ele>
        <time>2000-01-01T21:46:55.000Z</time>
      </trkpt>
      <trkpt lat="45.95021" lon="6.88029">
        <ele>1395</ele>
        <time>2000-01-01T21:47:05.000Z</time>
      </trkpt>
      <trkpt lat="45.94982" lon="6.88047">
        <ele>1394</ele>
        <time>2000-01-01T21:47:15.000Z</time>
      </trkpt>
      <trkpt lat="45.94959" lon="6.8807">
        <ele>1382</ele>
        <time>2000-01-01T21:47:25.000Z</time>
      </trkpt>
      <trkpt lat="45.94927" lon="6.88103">
        <ele>1372</ele>
        <time>2000-01-01T21:47:35.000Z</time>
      </trkpt>
      <trkpt lat="45.94885" lon="6.88096">
        <ele>1363</ele>
        <time>2000-01-01T21:47:45.000Z</time>
      </trkpt>
      <trkpt lat="45.94871" lon="6.88067">
        <ele>1367</ele>
        <time>2000-01-01T21:47:55.000Z</time>
      </trkpt>
      <trkpt lat="45.94855" lon="6.88035">
        <ele>1363</ele>
        <time>2000-01-01T21:48:05.000Z</time>
      </trkpt>
      <trkpt lat="45.94831" lon="6.88012">
        <ele>1359</ele>
        <time>2000-01-01T21:48:15.000Z</time>
      </trkpt>
      <trkpt lat="45.94791" lon="6.87975">
        <ele>1354</ele>
        <time>2000-01-01T21:48:25.000Z</time>
      </trkpt>
      <trkpt lat="45.94783" lon="6.87943">
        <ele>1366</ele>
        <time>2000-01-01T21:48:35.000Z</time>
      </trkpt>
      <trkpt lat="45.94774" lon="6.87909">
        <ele>1362</ele>
        <time>2000-01-01T21:48:45.000Z</time>
      </trkpt>
      <trkpt lat="45.9475" lon="6.87889">
        <ele>1362</ele>
        <time>2000-01-01T21:48:55.000Z</time>
      </trkpt>
      <trkpt lat="45.94713" lon="6.87858">
        <ele>1355</ele>
        <time>2000-01-01T21:49:05.000Z</time>
      </trkpt>
      <trkpt lat="45.94674" lon="6.87847">
        <ele>1348</ele>
        <time>2000-01-01T21:49:15.000Z</time>
      </trkpt>
      <trkpt lat="45.94648" lon="6.87822">
        <ele>1341</ele>
        <time>2000-01-01T21:49:25.000Z</time>
      </trkpt>
      <trkpt lat="45.946" lon="6.87776">
        <ele>1334</ele>
        <time>2000-01-01T21:49:35.000Z</time>
      </trkpt>
      <trkpt lat="45.94588" lon="6.87721">
        <ele>1326</ele>
        <time>2000-01-01T21:49:45.000Z</time>
      </trkpt>
      <trkpt lat="45.94562" lon="6.87709">
        <ele>1324</ele>
        <time>2000-01-01T21:49:55.000Z</time>
      </trkpt>
      <trkpt lat="45.94527" lon="6.87692">
        <ele>1319</ele>
        <time>2000-01-01T21:50:05.000Z</time>
      </trkpt>
      <trkpt lat="45.94498" lon="6.87696">
        <ele>1319</ele>
        <time>2000-01-01T21:50:15.000Z</time>
      </trkpt>
      <trkpt lat="45.9447" lon="6.87673">
        <ele>1320</ele>
        <time>2000-01-01T21:50:25.000Z</time>
      </trkpt>
      <trkpt lat="45.94462" lon="6.87691">
        <ele>1301.7</ele>
        <time>2000-01-01T21:50:35.000Z</time>
      </trkpt>
      <trkpt lat="45.94473" lon="6.87672">
        <ele>1320</ele>
        <time>2000-01-01T21:50:45.000Z</time>
      </trkpt>
      <trkpt lat="45.94447" lon="6.87668">
        <ele>1314</ele>
        <time>2000-01-01T21:50:55.000Z</time>
      </trkpt>
      <trkpt lat="45.94414" lon="6.87662">
        <ele>1306</ele>
        <time>2000-01-01T21:51:05.000Z</time>
      </trkpt>
      <trkpt lat="45.94388" lon="6.87641">
        <ele>1299</ele>
        <time>2000-01-01T21:51:15.000Z</time>
      </trkpt>
      <trkpt lat="45.94342" lon="6.87605">
        <ele>1278</ele>
        <time>2000-01-01T21:51:25.000Z</time>
      </trkpt>
      <trkpt lat="45.94314" lon="6.87595">
        <ele>1263</ele>
        <time>2000-01-01T21:51:35.000Z</time>
      </trkpt>
      <trkpt lat="45.94272" lon="6.87581">
        <ele>1242</ele>
        <time>2000-01-01T21:51:45.000Z</time>
      </trkpt>
      <trkpt lat="45.94269" lon="6.87545">
        <ele>1242</ele>
        <time>2000-01-01T21:51:55.000Z</time>
      </trkpt>
      <trkpt lat="45.94265" lon="6.87504">
        <ele>1237</ele>
        <time>2000-01-01T21:52:05.000Z</time>
      </trkpt>
      <trkpt lat="45.94227" lon="6.87476">
        <ele>1232</ele>
        <time>2000-01-01T21:52:15.000Z</time>
      </trkpt>
      <trkpt lat="45.94199" lon="6.87484">
        <ele>1228</ele>
        <time>2000-01-01T21:52:25.000Z</time>
      </trkpt>
      <trkpt lat="45.94154" lon="6.87498">
        <ele>1226</ele>
        <time>2000-01-01T21:52:35.000Z</time>
      </trkpt>
      <trkpt lat="45.94135" lon="6.87474">
        <ele>1225</ele>
        <time>2000-01-01T21:52:45.000Z</time>
      </trkpt>
      <trkpt lat="45.94106" lon="6.87463">
        <ele>1225</ele>
        <time>2000-01-01T21:52:55.000Z</time>
      </trkpt>
      <trkpt lat="45.94051" lon="6.87443">
        <ele>1213</ele>
        <time>2000-01-01T21:53:05.000Z</time>
      </trkpt>
      <trkpt lat="45.94025" lon="6.8742">
        <ele>1202</ele>
        <time>2000-01-01T21:53:15.000Z</time>
      </trkpt>
      <trkpt lat="45.9398" lon="6.87379">
        <ele>1203</ele>
        <time>2000-01-01T21:53:25.000Z</time>
      </trkpt>
      <trkpt lat="45.93957" lon="6.87345">
        <ele>1202</ele>
        <time>2000-01-01T21:53:35.000Z</time>
      </trkpt>
      <trkpt lat="45.93935" lon="6.87311">
        <ele>1202</ele>
        <time>2000-01-01T21:53:45.000Z</time>
      </trkpt>
      <trkpt lat="45.93904" lon="6.87265">
        <ele>1200</ele>
        <time>2000-01-01T21:53:55.000Z</time>
      </trkpt>
      <trkpt lat="45.93879" lon="6.87242">
        <ele>1203</ele>
        <time>2000-01-01T21:54:05.000Z</time>
      </trkpt>
      <trkpt lat="45.93839" lon="6.87205">
        <ele>1202</ele>
        <time>2000-01-01T21:54:15.000Z</time>
      </trkpt>
      <trkpt lat="45.93807" lon="6.872">
        <ele>1201</ele>
        <time>2000-01-01T21:54:25.000Z</time>
      </trkpt>
      <trkpt lat="45.93775" lon="6.87194">
        <ele>1195</ele>
        <time>2000-01-01T21:54:35.000Z</time>
      </trkpt>
      <trkpt lat="45.93735" lon="6.87188">
        <ele>1183</ele>
        <time>2000-01-01T21:54:45.000Z</time>
      </trkpt>
      <trkpt lat="45.9373" lon="6.87213">
        <ele>1170.5</ele>
        <time>2000-01-01T21:54:55.000Z</time>
      </trkpt>
      <trkpt lat="45.93752" lon="6.87242">
        <ele>1176</ele>
        <time>2000-01-01T21:55:05.000Z</time>
      </trkpt>
      <trkpt lat="45.93736" lon="6.87265">
        <ele>1167</ele>
        <time>2000-01-01T21:55:15.000Z</time>
      </trkpt>
      <trkpt lat="45.93707" lon="6.87266">
        <ele>1154</ele>
        <time>2000-01-01T21:55:25.000Z</time>
      </trkpt>
      <trkpt lat="45.93683" lon="6.87258">
        <ele>1148</ele>
        <time>2000-01-01T21:55:35.000Z</time>
      </trkpt>
      <trkpt lat="45.93655" lon="6.8725">
        <ele>1150</ele>
        <time>2000-01-01T21:55:45.000Z</time>
      </trkpt>
      <trkpt lat="45.93632" lon="6.87222">
        <ele>1143</ele>
        <time>2000-01-01T21:55:55.000Z</time>
      </trkpt>
      <trkpt lat="45.93593" lon="6.87172">
        <ele>1137</ele>
        <time>2000-01-01T21:56:05.000Z</time>
      </trkpt>
      <trkpt lat="45.93561" lon="6.87151">
        <ele>1140</ele>
        <time>2000-01-01T21:56:15.000Z</time>
      </trkpt>
      <trkpt lat="45.93528" lon="6.87129">
        <ele>1134</ele>
        <time>2000-01-01T21:56:25.000Z</time>
      </trkpt>
      <trkpt lat="45.93496" lon="6.87108">
        <ele>1129</ele>
        <time>2000-01-01T21:56:35.000Z</time>
      </trkpt>
      <trkpt lat="45.93457" lon="6.87083">
        <ele>1124</ele>
        <time>2000-01-01T21:56:45.000Z</time>
      </trkpt>
      <trkpt lat="45.93429" lon="6.87073">
        <ele>1120</ele>
        <time>2000-01-01T21:56:55.000Z</time>
      </trkpt>
      <trkpt lat="45.93383" lon="6.87057">
        <ele>1120</ele>
        <time>2000-01-01T21:57:05.000Z</time>
      </trkpt>
      <trkpt lat="45.93352" lon="6.87061">
        <ele>1113</ele>
        <time>2000-01-01T21:57:15.000Z</time>
      </trkpt>
      <trkpt lat="45.93291" lon="6.8707">
        <ele>1106</ele>
        <time>2000-01-01T21:57:25.000Z</time>
      </trkpt>
      <trkpt lat="45.93266" lon="6.87066">
        <ele>1106</ele>
        <time>2000-01-01T21:57:35.000Z</time>
      </trkpt>
      <trkpt lat="45.93235" lon="6.87062">
        <ele>1102</ele>
        <time>2000-01-01T21:57:45.000Z</time>
      </trkpt>
      <trkpt lat="45.93201" lon="6.87069">
        <ele>1101</ele>
        <time>2000-01-01T21:57:55.000Z</time>
      </trkpt>
      <trkpt lat="45.93167" lon="6.87076">
        <ele>1090</ele>
        <time>2000-01-01T21:58:05.000Z</time>
      </trkpt>
      <trkpt lat="45.93111" lon="6.87088">
        <ele>1072</ele>
        <time>2000-01-01T21:58:15.000Z</time>
      </trkpt>
      <trkpt lat="45.93118" lon="6.8713">
        <ele>1063</ele>
        <time>2000-01-01T21:58:25.000Z</time>
      </trkpt>
      <trkpt lat="45.9309" lon="6.8717">
        <ele>1054</ele>
        <time>2000-01-01T21:58:35.000Z</time>
      </trkpt>
      <trkpt lat="45.93081" lon="6.87205">
        <ele>1054</ele>
        <time>2000-01-01T21:58:45.000Z</time>
      </trkpt>
      <trkpt lat="45.9307" lon="6.87249">
        <ele>1050</ele>
        <time>2000-01-01T21:58:55.000Z</time>
      </trkpt>
      <trkpt lat="45.9304" lon="6.87243">
        <ele>1047</ele>
        <time>2000-01-01T21:59:05.000Z</time>
      </trkpt>
      <trkpt lat="45.92983" lon="6.87232">
        <ele>1046</ele>
        <time>2000-01-01T21:59:15.000Z</time>
      </trkpt>
      <trkpt lat="45.92972" lon="6.87256">
        <ele>1045</ele>
        <time>2000-01-01T21:59:25.000Z</time>
      </trkpt>
      <trkpt lat="45.92942" lon="6.87261">
        <ele>1043</ele>
        <time>2000-01-01T21:59:35.000Z</time>
      </trkpt>
      <trkpt lat="45.92901" lon="6.87247">
        <ele>1039</ele>
        <time>2000-01-01T21:59:45.000Z</time>
      </trkpt>
      <trkpt lat="45.9286" lon="6.87233">
        <ele>1035</ele>
        <time>2000-01-01T21:59:55.000Z</time>
      </trkpt>
      <trkpt lat="45.92819" lon="6.87219">
        <ele>1035</ele>
        <time>2000-01-01T22:00:05.000Z</time>
      </trkpt>
      <trkpt lat="45.92778" lon="6.87205">
        <ele>1035</ele>
        <time>2000-01-01T22:00:15.000Z</time>
      </trkpt>
      <trkpt lat="45.92738" lon="6.87191">
        <ele>1035</ele>
        <time>2000-01-01T22:00:25.000Z</time>
      </trkpt>
      <trkpt lat="45.92697" lon="6.87177">
        <ele>1036</ele>
        <time>2000-01-01T22:00:35.000Z</time>
      </trkpt>
      <trkpt lat="45.92656" lon="6.87163">
        <ele>1036</ele>
        <time>2000-01-01T22:00:45.000Z</time>
      </trkpt>
      <trkpt lat="45.92615" lon="6.87149">
        <ele>1038</ele>
        <time>2000-01-01T22:00:55.000Z</time>
      </trkpt>
      <trkpt lat="45.92545" lon="6.87125">
        <ele>1035</ele>
        <time>2000-01-01T22:01:05.000Z</time>
      </trkpt>
      <trkpt lat="45.92504" lon="6.8713">
        <ele>1035</ele>
        <time>2000-01-01T22:01:15.000Z</time>
      </trkpt>
      <trkpt lat="45.92508" lon="6.87086">
        <ele>1036</ele>
        <time>2000-01-01T22:01:25.000Z</time>
      </trkpt>
      <trkpt lat="45.92515" lon="6.87">
        <ele>1035</ele>
        <time>2000-01-01T22:01:35.000Z</time>
      </trkpt>
      <trkpt lat="45.92505" lon="6.86981">
        <ele>1039</ele>
        <time>2000-01-01T22:01:45.000Z</time>
      </trkpt>
      <trkpt lat="45.92378" lon="6.86988">
        <ele>1034</ele>
        <time>2000-01-01T22:01:55.000Z</time>
      </trkpt>
      <trkpt lat="45.92358" lon="6.87013">
        <ele>1034</ele>
        <time>2000-01-01T22:02:05.000Z</time>
      </trkpt>
      <trkpt lat="45.92334" lon="6.87044">
        <ele>1035</ele>
        <time>2000-01-01T22:02:15.000Z</time>
      </trkpt>
      <trkpt lat="45.92308" lon="6.86999">
        <ele>1034</ele>
        <time>2000-01-01T22:02:25.000Z</time>
      </trkpt>
      <trkpt lat="45.92328" lon="6.8698">
        <ele>1033</ele>
        <time>2000-01-01T22:02:35.000Z</time>
      </trkpt>
      <trkpt lat="45.9235" lon="6.8696">
        <ele>1033</ele>
        <time>2000-01-01T22:02:45.000Z</time>
      </trkpt>
      <trkpt lat="45.92359" lon="6.86924">
        <ele>1037</ele>
        <time>2000-01-01T22:02:55.000Z</time>
      </trkpt>
      <trkpt lat="45.92371" lon="6.86875">
        <ele>1037</ele>
        <time>2000-01-01T22:03:05.000Z</time>
      </trkpt>
      <trkpt lat="45.92352" lon="6.86924">
        <ele>1037</ele>
        <time>2000-01-01T22:03:15.000Z</time>
      </trkpt>
    </trkseg>
  </trk>
</gpx>